
Distance (Route):
Temperature : 19.9°C
Humidity : 60.6%
Pressure : 995.9hPa| Receiver | Frames | First received | Last received |
|---|---|---|---|
| DL1XH-west | 595 | 2026-08-31 09:52:14 | 2026-08-31 11:34:25 |
| DM0DOS-11 | 563 | 2026-08-31 09:46:29 | 2026-08-31 11:34:52 |
| BIOWL1-15 | 549 | 2026-08-31 09:48:32 | 2026-08-31 11:33:07 |
| DL1XH1-15 | 494 | 2026-08-31 09:52:41 | 2026-08-31 11:34:27 |
| DO2JMG | 434 | 2026-08-31 09:58:26 | 2026-08-31 11:22:44 |
| DL1XH-15 | 348 | 2026-08-31 10:00:37 | 2026-08-31 11:31:16 |
| GOEST3-10 | 285 | 2026-08-31 09:51:19 | 2026-08-31 11:35:04 |
| AA1-15 | 278 | 2026-08-31 10:14:58 | 2026-08-31 11:20:56 |
| DB0DAN | 204 | 2026-08-31 10:18:40 | 2026-08-31 11:24:40 |
| DD8BA-10 | 195 | 2026-08-31 09:47:54 | 2026-08-31 11:33:21 |
| DF8AY | 182 | 2026-08-31 10:23:38 | 2026-08-31 11:19:29 |
| HSKMA3-T | 168 | 2026-08-31 10:32:07 | 2026-08-31 11:13:42 |
| DO2SHX-10 | 143 | 2026-08-31 10:20:58 | 2026-08-31 11:11:33 |
| DJ2DS-15 | 135 | 2026-08-31 09:47:48 | 2026-08-31 11:35:20 |
| DF5WG-10 | 114 | 2026-08-31 09:57:32 | 2026-08-31 11:33:48 |
| DL3AQ-11 | 71 | 2026-08-31 10:01:05 | 2026-08-31 11:22:53 |
| DO9LL-15 | 63 | 2026-08-31 09:48:04 | 2026-08-31 11:25:58 |
| DL4XJ-10 | 57 | 2026-08-31 10:17:07 | 2026-08-31 11:25:03 |
| DF4FW | 50 | 2026-08-31 09:54:32 | 2026-08-31 11:30:47 |
| DL4BBY-15 | 39 | 2026-08-31 09:48:36 | 2026-08-31 11:22:28 |
| BIOWL9-15 | 37 | 2026-08-31 09:48:32 | 2026-08-31 11:30:34 |
| HTAHTA | 35 | 2026-08-31 09:52:48 | 2026-08-31 11:29:35 |
| DC6BW-12 | 28 | 2026-08-31 09:49:26 | 2026-08-31 11:10:52 |
| DL1LOL-11 | 26 | 2026-08-31 09:46:58 | 2026-08-31 11:30:19 |
| DB0UT-7 | 26 | 2026-08-31 10:00:00 | 2026-08-31 11:20:53 |
| DC4HF-4 | 26 | 2026-08-31 10:07:02 | 2026-08-31 11:25:47 |
| BUE01 | 25 | 2026-08-31 10:05:30 | 2026-08-31 11:26:14 |
| DD1CC3-15 | 24 | 2026-08-31 10:02:33 | 2026-08-31 11:14:53 |
| DF8AY-15 | 24 | 2026-08-31 10:31:09 | 2026-08-31 11:09:06 |
| SONCRA | 23 | 2026-08-31 10:03:43 | 2026-08-31 11:20:23 |
| DK9SH | 20 | 2026-08-31 09:52:28 | 2026-08-31 11:18:38 |
| DD1CC8 | 20 | 2026-08-31 10:13:40 | 2026-08-31 11:15:46 |
| DL1CLM-18 | 19 | 2026-08-31 09:46:19 | 2026-08-31 11:29:30 |
| DL8OAI-8 | 16 | 2026-08-31 10:14:46 | 2026-08-31 11:14:56 |
| SMARD9-15 | 15 | 2026-08-31 10:14:28 | 2026-08-31 11:00:00 |
| BIOWL7-15 | 12 | 2026-08-31 09:48:07 | 2026-08-31 11:29:48 |
| DO2LYB-13 | 8 | 2026-08-31 10:06:03 | 2026-08-31 11:11:32 |
| MET0W-2 | 7 | 2026-08-31 10:07:46 | 2026-08-31 10:35:43 |
| EDDB2-12 | 7 | 2026-08-31 10:48:33 | 2026-08-31 11:13:53 |
| WEDDY | 6 | 2026-08-31 10:10:32 | 2026-08-31 11:22:42 |
| SMARD9-10 | 6 | 2026-08-31 10:11:25 | 2026-08-31 11:27:50 |
| SONDE2-11 | 5 | 2026-08-31 10:28:51 | 2026-08-31 11:12:50 |
| DL8DAS-14 | 5 | 2026-08-31 10:50:13 | 2026-08-31 10:55:23 |
| DL3OBA | 5 | 2026-08-31 10:54:11 | 2026-08-31 11:04:11 |
| DF2AP-13 | 4 | 2026-08-31 10:51:12 | 2026-08-31 10:58:15 |
| DB0ND-19 | 3 | 2026-08-31 10:15:48 | 2026-08-31 10:16:51 |
| DB0NH | 3 | 2026-08-31 10:32:32 | 2026-08-31 10:41:43 |
| DJ2KF-10 | 2 | 2026-08-31 10:59:38 | 2026-08-31 11:05:39 |
| DK1YY | 1 | 2026-08-31 10:38:02 | 2026-08-31 10:38:02 |
| DL9SK-14 | 1 | 2026-08-31 10:43:10 | 2026-08-31 10:43:10 |
| DD1CC1-15 | 1 | 2026-08-31 10:44:11 | 2026-08-31 10:44:11 |
| DL1NUX | 1 | 2026-08-31 10:57:08 | 2026-08-31 10:57:08 |
| Receiver | Date | Latitude | Longitude | Direction | Speed | Altitude | Climb | Temperature | Humidity | Pressure | Voltage | Killtimer | Uptime | BKT | XDATA |
|---|---|---|---|---|---|---|---|---|---|---|---|---|---|---|---|
| DJ2DS-15 | 2026-08-31 11:35:20 | 53.27944 | 8.42995 | 31° | 33km/h | 131m | -6.6m/s | 19.9°C | 60.6% | 995.9hPa | 2.6V | 00:00:00 | 00:00:00 | 00:00:00 | |
| DJ2DS-15 | 2026-08-31 11:35:10 | 53.27871 | 8.42938 | 26° | 40km/h | 189m | -6.7m/s | 19.4°C | 62.7% | 989.2hPa | 2.6V | 00:00:00 | 02:03:32 | 00:00:00 | |
| DJ2DS-15 | 2026-08-31 11:35:05 | 53.27825 | 8.42900 | 27° | 42km/h | 224m | -5.9m/s | 19.0°C | 64.0% | 985.0hPa | 2.6V | 00:00:00 | 02:03:27 | 00:00:00 | |
| GOEST3-10 | 2026-08-31 11:35:04 | 53.27815 | 8.42892 | 26° | 42km/h | 230m | -5.9m/s | 18.9°C | 63.8% | 984.3hPa | 2.6V | 00:00:00 | 02:03:26 | 00:00:00 | |
| GOEST3-10 | 2026-08-31 11:35:02 | 53.27796 | 8.42877 | 24° | 42km/h | 241m | -5.7m/s | 18.8°C | 64.5% | 982.9hPa | 2.6V | 00:00:00 | 02:03:24 | 00:00:00 | |
| GOEST3-10 | 2026-08-31 11:35:00 | 53.27776 | 8.42863 | 23° | 42km/h | 253m | -6.1m/s | 18.7°C | 65.0% | 981.7hPa | 2.7V | 00:00:00 | 00:00:00 | 00:00:00 | |
| DJ2DS-15 | 2026-08-31 11:35:00 | 53.27776 | 8.42863 | 23° | 42km/h | 253m | -6.1m/s | 18.7°C | 65.0% | 981.7hPa | 2.7V | 00:00:00 | 02:03:22 | 00:00:00 | |
| GOEST3-10 | 2026-08-31 11:34:59 | 53.27766 | 8.42856 | 23° | 42km/h | 259m | -6.0m/s | 18.6°C | 65.1% | 981.0hPa | 2.7V | 00:00:00 | 02:03:21 | 00:00:00 | |
| GOEST3-10 | 2026-08-31 11:34:58 | 53.27756 | 8.42849 | 24° | 42km/h | 265m | -6.0m/s | 18.5°C | 65.3% | 980.3hPa | 2.7V | 00:00:00 | 00:00:00 | 00:00:00 | |
| GOEST3-10 | 2026-08-31 11:34:57 | 53.27747 | 8.42842 | 25° | 42km/h | 272m | -5.8m/s | 18.4°C | 64.8% | 979.6hPa | 2.7V | 00:00:00 | 02:03:19 | 00:00:00 | |
| GOEST3-10 | 2026-08-31 11:34:56 | 53.27737 | 8.42835 | 26° | 42km/h | 277m | -5.9m/s | 18.4°C | 65.1% | 978.9hPa | 2.7V | 00:00:00 | 00:00:00 | 00:00:00 | |
| GOEST3-10 | 2026-08-31 11:34:55 | 53.27728 | 8.42827 | 29° | 42km/h | 283m | -6.2m/s | 18.4°C | 65.8% | 978.3hPa | 2.7V | 00:00:00 | 02:03:17 | 00:00:00 | |
| DJ2DS-15 | 2026-08-31 11:34:55 | 53.27728 | 8.42827 | 29° | 42km/h | 283m | -6.2m/s | 18.4°C | 65.8% | 978.3hPa | 2.7V | 00:00:00 | 02:03:17 | 00:00:00 | |
| GOEST3-10 | 2026-08-31 11:34:54 | 53.27719 | 8.42818 | 29° | 42km/h | 289m | -5.9m/s | 18.4°C | 66.1% | 977.5hPa | 2.7V | 07:58:00 | 00:00:00 | 00:00:00 | |
| GOEST3-10 | 2026-08-31 11:34:53 | 53.27709 | 8.42810 | 29° | 42km/h | 295m | -5.3m/s | 18.3°C | 66.4% | 976.9hPa | 2.7V | 00:00:00 | 02:03:15 | 00:00:00 | |
| GOEST3-10 | 2026-08-31 11:34:52 | 53.27700 | 8.42801 | 28° | 42km/h | 300m | -5.8m/s | 18.3°C | 66.5% | 976.2hPa | 2.7V | 00:00:00 | 00:00:00 | 00:00:00 | |
| GOEST3-10 | 2026-08-31 11:34:52 | 53.27690 | 8.42793 | 27° | 44km/h | 306m | -5.4m/s | 18.2°C | 67.0% | 975.7hPa | 2.7V | 00:00:00 | 02:03:13 | 00:00:00 | |
| DM0DOS-11 | 2026-08-31 11:34:52 | 53.27681 | 8.42785 | 26° | 42km/h | 312m | -5.5m/s | 18.2°C | 67% | 974.9hPa | 2.7V | 07:59:01 | 02:03:12 | 00:00:00 | |
| DM0DOS-11 | 2026-08-31 11:34:52 | 53.27661 | 8.42770 | 25° | 44km/h | 322m | -5.4m/s | 18°C | 67.5% | 973.8hPa | 2.7V | 07:59:03 | 02:03:10 | 00:00:00 | |
| DM0DOS-11 | 2026-08-31 11:34:52 | 53.27641 | 8.42754 | 24° | 44km/h | 333m | -5.7m/s | 17.8°C | 67.8% | 972.5hPa | 2.7V | 07:59:05 | 02:03:08 | 00:00:00 | |
| DJ2DS-15 | 2026-08-31 11:34:50 | 53.27680 | 8.42785 | 27° | 44km/h | 312m | -5.4m/s | 18.2°C | 67.0% | 974.8hPa | 2.7V | 00:00:00 | 02:03:12 | 00:00:00 | |
| GOEST3-10 | 2026-08-31 11:34:50 | 53.27680 | 8.42785 | 27° | 44km/h | 312m | -5.4m/s | 18.2°C | 67.0% | 974.8hPa | 2.7V | 00:00:00 | 00:00:00 | 00:00:00 | |
| GOEST3-10 | 2026-08-31 11:34:46 | 53.27640 | 8.42754 | 25° | 44km/h | 334m | -5.6m/s | 17.7°C | 67.8% | 972.4hPa | 2.7V | 00:00:00 | 02:03:08 | 00:00:00 | |
| DM0DOS-11 | 2026-08-31 11:34:45 | 53.27621 | 8.42739 | 26° | 42km/h | 345m | -5.8m/s | 17.7°C | 67.8% | 971.2hPa | 2.7V | 07:59:07 | 02:03:06 | 00:00:00 | |
| DM0DOS-11 | 2026-08-31 11:34:45 | 53.27603 | 8.42723 | 27° | 40km/h | 357m | -5.7m/s | 17.6°C | 68.2% | 969.9hPa | 2.7V | 07:59:09 | 02:03:04 | 00:00:00 | |
| DM0DOS-11 | 2026-08-31 11:34:45 | 53.27584 | 8.42707 | 26° | 40km/h | 368m | -5.5m/s | 17.4°C | 68.9% | 968.8hPa | 2.7V | 07:59:11 | 02:03:02 | 00:00:00 | |
| DJ2DS-15 | 2026-08-31 11:34:44 | 53.27621 | 8.42739 | 26° | 42km/h | 345m | -5.8m/s | 17.7°C | 67.8% | 971.2hPa | 2.7V | 00:00:00 | 00:00:00 | 00:00:00 | |
| GOEST3-10 | 2026-08-31 11:34:44 | 53.27621 | 8.42739 | 27° | 42km/h | 345m | -5.8m/s | 17.6°C | 67.8% | 971.2hPa | 2.7V | 00:00:00 | 00:00:00 | 00:00:00 | |
| GOEST3-10 | 2026-08-31 11:34:42 | 53.27603 | 8.42722 | 28° | 40km/h | 357m | -5.7m/s | 17.5°C | 68.2% | 969.8hPa | 2.7V | 00:00:00 | 02:03:04 | 00:00:00 | |
| DJ2DS-15 | 2026-08-31 11:34:40 | 53.27584 | 8.42707 | 27° | 40km/h | 368m | -5.4m/s | 17.4°C | 68.9% | 968.7hPa | 2.7V | 00:00:00 | 02:03:02 | 00:00:00 | |
| DJ2DS-15 | 2026-08-31 11:34:35 | 53.27540 | 8.42669 | 30° | 40km/h | 397m | -6.0m/s | 17.1°C | 69.8% | 965.2hPa | 2.7V | 07:59:00 | 02:02:57 | 00:00:00 | |
| GOEST3-10 | 2026-08-31 11:34:30 | 53.27496 | 8.42629 | 29° | 38km/h | 425m | -5.9m/s | 16.9°C | 70.0% | 962.0hPa | 2.7V | 07:59:00 | 00:00:00 | 00:00:00 | |
| DJ2DS-15 | 2026-08-31 11:34:30 | 53.27496 | 8.42629 | 29° | 37km/h | 425m | -5.9m/s | 16.9°C | 70.0% | 962.0hPa | 2.7V | 00:00:00 | 02:02:52 | 00:00:00 | |
| DL1XH1-15 | 2026-08-31 11:34:27 | 53.27419 | 8.42547 | 37° | 37km/h | 482m | -5.4m/s | 16.4°C | 71.4% | 955.5hPa | 2.7V | 07:59:31 | 02:02:42 | 00:00:00 | |
| DL1XH-west | 2026-08-31 11:34:25 | 53.27456 | 8.42590 | 32° | 37km/h | 454m | -5.8m/s | 16.7°C | 76.7% | 958.8hPa | 2.6V | 07:59:49 | 02:02:47 | 00:00:00 | |
| DL1XH-west | 2026-08-31 11:34:24 | 53.27433 | 8.42565 | 35° | 37km/h | 472m | -5.8m/s | 16.5°C | 75.1% | 956.7hPa | 2.7V | 07:59:49 | 02:02:44 | 00:00:00 | |
| DL1XH-west | 2026-08-31 11:34:22 | 53.27426 | 8.42557 | 36° | 37km/h | 477m | -5.5m/s | 16.5°C | 75.5% | 956hPa | 2.7V | 07:59:49 | 02:02:43 | 00:00:00 | |
| DL1XH1-15 | 2026-08-31 11:34:21 | 53.27411 | 8.42538 | 38° | 37km/h | 488m | -5.3m/s | 16.3°C | 72.1% | 954.7hPa | 2.6V | 07:59:32 | 02:02:41 | 00:00:00 | |
| DL1XH-west | 2026-08-31 11:34:21 | 53.27419 | 8.42547 | 38° | 37km/h | 482m | -5.4m/s | 16.4°C | 75.7% | 955.5hPa | 2.7V | 07:59:49 | 02:02:42 | 00:00:00 | |
| DL1XH-west | 2026-08-31 11:34:20 | 53.27411 | 8.42538 | 39° | 37km/h | 488m | -5.4m/s | 16.3°C | 76.2% | 954.7hPa | 2.6V | 07:59:49 | 02:02:41 | 00:00:00 | |
| DL1XH-west | 2026-08-31 11:34:18 | 53.27404 | 8.42528 | 39° | 37km/h | 494m | -6m/s | 16.3°C | 76.9% | 954.4hPa | 2.7V | 07:59:49 | 02:02:40 | 00:00:00 | |
| DM0DOS-11 | 2026-08-31 11:34:17 | 53.27375 | 8.42489 | 38° | 37km/h | 518m | -4.9m/s | 16.1°C | 74.2% | 951.6hPa | 2.7V | 07:59:37 | 02:02:36 | 00:00:00 | |
| DM0DOS-11 | 2026-08-31 11:34:17 | 53.27361 | 8.42471 | 38° | 35km/h | 528m | -5.1m/s | 16.1°C | 75.4% | 950.4hPa | 2.7V | 07:59:39 | 02:02:34 | 00:00:00 | |
| DL1XH-west | 2026-08-31 11:34:17 | 53.27397 | 8.42518 | 39° | 38km/h | 500m | -6.1m/s | 16.2°C | 77.4% | 953.6hPa | 2.7V | 07:59:49 | 02:02:39 | 00:00:00 | |
| DL1XH-west | 2026-08-31 11:34:16 | 53.27389 | 8.42508 | 39° | 37km/h | 506m | -6m/s | 16.2°C | 77.9% | 953.1hPa | 2.7V | 07:59:49 | 02:02:38 | 00:00:00 | |
| DL1XH-west | 2026-08-31 11:34:15 | 53.27382 | 8.42499 | 38° | 37km/h | 512m | -6.2m/s | 16.2°C | 78.7% | 952.3hPa | 2.7V | 07:59:49 | 02:02:37 | 00:00:00 | |
| DL1XH-west | 2026-08-31 11:34:14 | 53.27375 | 8.42489 | 39° | 37km/h | 518m | -4.9m/s | 16.1°C | 78.5% | 951.6hPa | 2.7V | 07:59:49 | 02:02:36 | 00:00:00 | |
| DL1XH-west | 2026-08-31 11:34:13 | 53.27361 | 8.42471 | 38° | 35km/h | 528m | -5.1m/s | 16.1°C | 80.1% | 950.4hPa | 2.7V | 07:59:49 | 02:02:34 | 00:00:00 | |
| DM0DOS-11 | 2026-08-31 11:34:12 | 53.27332 | 8.42431 | 44° | 40km/h | 552m | -6.5m/s | 15.9°C | 76.5% | 947.7hPa | 2.7V | 07:59:43 | 02:02:30 | 00:00:00 | |
| DL1XH-west | 2026-08-31 11:34:10 | 53.27347 | 8.42452 | 38° | 37km/h | 539m | -5.7m/s | 15.9°C | 80.7% | 949.2hPa | 2.6V | 07:59:49 | 02:02:32 | 00:00:00 | |
| GOEST3-10 | 2026-08-31 11:34:10 | 53.27347 | 8.42452 | 39° | 37km/h | 539m | -5.6m/s | 15.9°C | 76.0% | 949.2hPa | 2.7V | 00:00:00 | 00:00:00 | 00:00:00 | |
| DJ2DS-15 | 2026-08-31 11:34:10 | 53.27347 | 8.42452 | 39° | 38km/h | 539m | -5.6m/s | 15.9°C | 76.0% | 949.2hPa | 2.7V | 00:00:00 | 02:02:32 | 00:00:00 | |
| DL1XH1-15 | 2026-08-31 11:34:08 | 53.27325 | 8.42419 | 44° | 40km/h | 558m | -6.7m/s | 15.8°C | 77% | 947.1hPa | 2.7V | 07:59:44 | 02:02:29 | 00:00:00 | |
| DL1XH-west | 2026-08-31 11:34:08 | 53.27332 | 8.42431 | 45° | 40km/h | 552m | -6.5m/s | 15.9°C | 82% | 947.7hPa | 2.7V | 07:59:49 | 02:02:30 | 00:00:00 | |
| DM0DOS-11 | 2026-08-31 11:34:07 | 53.27287 | 8.42363 | 40° | 40km/h | 593m | -6.8m/s | 15.5°C | 78.4% | 943.3hPa | 2.7V | 07:59:49 | 02:02:24 | 00:00:00 | |
| DL1XH-west | 2026-08-31 11:34:07 | 53.27325 | 8.42419 | 45° | 40km/h | 558m | -6.7m/s | 15.8°C | 83% | 947.1hPa | 2.7V | 07:59:49 | 02:02:29 | 00:00:00 | |
| DL1XH-west | 2026-08-31 11:34:06 | 53.27318 | 8.42408 | 43° | 40km/h | 565m | -6.9m/s | 15.7°C | 83.3% | 946.5hPa | 2.7V | 07:59:49 | 02:02:28 | 00:00:00 | |
| DL1XH-west | 2026-08-31 11:34:04 | 53.27303 | 8.42385 | 41° | 40km/h | 579m | -7.2m/s | 15.6°C | 83.6% | 945hPa | 2.7V | 07:59:49 | 02:02:26 | 00:00:00 | |
| DL1XH-west | 2026-08-31 11:34:03 | 53.27287 | 8.42363 | 40° | 40km/h | 593m | -6.8m/s | 15.5°C | 84.5% | 943.3hPa | 2.7V | 07:59:49 | 02:02:24 | 00:00:00 | |
| DL1XH1-15 | 2026-08-31 11:34:02 | 53.27265 | 8.42331 | 39° | 40km/h | 613m | -6.6m/s | 15.3°C | 75% | 940.8hPa | 2.7V | 07:59:52 | 02:02:21 | 00:00:00 | |
| DL1XH1-15 | 2026-08-31 11:34:02 | 53.27249 | 8.42310 | 40° | 40km/h | 626m | -6.6m/s | 15.1°C | 76.3% | 939.5hPa | 2.7V | 07:59:54 | 02:02:19 | 00:00:00 | |
| DL1XH-west | 2026-08-31 11:34:02 | 53.27280 | 8.42352 | 40° | 40km/h | 600m | -7m/s | 15.4°C | 83.1% | 942.5hPa | 2.7V | 08:00:40 | 02:02:23 | 00:00:00 | |
| DL1XH-west | 2026-08-31 11:34:01 | 53.27272 | 8.42342 | 40° | 38km/h | 607m | -6.7m/s | 15.3°C | 80.1% | 941.7hPa | 2.7V | 08:00:40 | 02:02:22 | 00:00:00 | |
| DL1XH-west | 2026-08-31 11:33:59 | 53.27265 | 8.42331 | 40° | 40km/h | 613m | -6.6m/s | 15.3°C | 80.5% | 940.8hPa | 2.7V | 08:00:40 | 02:02:21 | 00:00:00 | |
| DL1XH-west | 2026-08-31 11:33:57 | 53.27249 | 8.42310 | 41° | 40km/h | 626m | -6.6m/s | 15.1°C | 81.8% | 939.5hPa | 2.7V | 08:00:40 | 02:02:19 | 00:00:00 | |
| GOEST3-10 | 2026-08-31 11:33:57 | 53.27249 | 8.42310 | 41° | 40km/h | 626m | -6.6m/s | 15.1°C | 76.3% | 939.4hPa | 2.7V | 00:00:00 | 00:00:00 | 00:00:00 | |
| DL1XH1-15 | 2026-08-31 11:33:56 | 53.27234 | 8.42287 | 40° | 42km/h | 639m | -6.8m/s | 15°C | 76% | 938.1hPa | 2.7V | 07:59:56 | 02:02:17 | 00:00:00 | |
| DL1XH1-15 | 2026-08-31 11:33:56 | 53.27217 | 8.42264 | 40° | 42km/h | 653m | -6.6m/s | 14.9°C | 76.3% | 936.4hPa | 2.6V | 07:59:58 | 02:02:15 | 00:00:00 | |
| DL1XH-west | 2026-08-31 11:33:55 | 53.27233 | 8.42287 | 40° | 42km/h | 639m | -6.8m/s | 15°C | 81.9% | 938.1hPa | 2.7V | 08:00:40 | 02:02:17 | 00:00:00 | |
| DL1XH-west | 2026-08-31 11:33:54 | 53.27225 | 8.42275 | 41° | 42km/h | 646m | -6.8m/s | 14.9°C | 82.5% | 937.4hPa | 2.6V | 08:00:40 | 02:02:16 | 00:00:00 | |
| DL1XH-west | 2026-08-31 11:33:53 | 53.27217 | 8.42263 | 41° | 42km/h | 653m | -6.6m/s | 14.9°C | 82.4% | 936.4hPa | 2.6V | 08:00:40 | 02:02:15 | 00:00:00 | |
| DL1XH-west | 2026-08-31 11:33:52 | 53.27193 | 8.42229 | 40° | 42km/h | 673m | -6.7m/s | 14.7°C | 84.3% | 934.3hPa | 2.7V | 08:00:40 | 02:02:12 | 00:00:00 | |
| GOEST3-10 | 2026-08-31 11:33:51 | 53.27201 | 8.42240 | 41° | 42km/h | 667m | -7.1m/s | 14.7°C | 77.0% | 935.0hPa | 2.7V | 00:00:00 | 00:00:00 | 00:00:00 | |
| DL1XH1-15 | 2026-08-31 11:33:51 | 53.27184 | 8.42218 | 38° | 42km/h | 680m | -6.3m/s | 14.6°C | 77.4% | 933.6hPa | 2.7V | 08:00:02 | 02:02:11 | 00:00:00 | |
| DL1XH1-15 | 2026-08-31 11:33:51 | 53.27168 | 8.42195 | 38° | 42km/h | 692m | -6m/s | 14.4°C | 80% | 932.1hPa | 2.7V | 08:00:04 | 02:02:09 | 00:00:00 | |
| DL1XH1-15 | 2026-08-31 11:33:51 | 53.27150 | 8.42173 | 37° | 44km/h | 703m | -5.2m/s | 14.3°C | 79.4% | 930.9hPa | 2.7V | 08:00:06 | 02:02:07 | 00:00:00 | |
| DL1XH-west | 2026-08-31 11:33:50 | 53.27184 | 8.42218 | 39° | 42km/h | 680m | -6.3m/s | 14.6°C | 82.8% | 933.6hPa | 2.7V | 08:00:40 | 02:02:11 | 00:00:00 | |
| DL1XH-west | 2026-08-31 11:33:48 | 53.27176 | 8.42207 | 39° | 42km/h | 686m | -6.2m/s | 14.5°C | 84.6% | 932.8hPa | 2.7V | 08:00:40 | 02:02:10 | 00:00:00 | |
| DF5WG-10 | 2026-08-31 11:33:48 | 53.27176 | 8.42206 | 39° | 42km/h | 686m | -6.2m/s | 14.4°C | 79.8% | 932.7hPa | 2.7V | 00:00:00 | 02:02:10 | 00:00:00 | |
| GOEST3-10 | 2026-08-31 11:33:48 | 53.27176 | 8.42206 | 39° | 42km/h | 686m | -6.2m/s | 14.4°C | 79.8% | 932.7hPa | 2.7V | 00:00:00 | 02:02:10 | 00:00:00 | |
| DF5WG-10 | 2026-08-31 11:33:47 | 53.27168 | 8.42195 | 39° | 44km/h | 692m | -6.0m/s | 14.4°C | 80.0% | 932.1hPa | 2.7V | 00:00:00 | 02:02:09 | 00:00:00 | |
| GOEST3-10 | 2026-08-31 11:33:47 | 53.27168 | 8.42195 | 39° | 44km/h | 692m | -6.0m/s | 14.4°C | 80.0% | 932.1hPa | 2.7V | 00:00:00 | 00:00:00 | 00:00:00 | |
| DL1XH-west | 2026-08-31 11:33:47 | 53.27168 | 8.42195 | 38° | 44km/h | 692m | -6m/s | 14.5°C | 84.6% | 932.1hPa | 2.7V | 08:00:40 | 02:02:09 | 00:00:00 | |
| DF5WG-10 | 2026-08-31 11:33:46 | 53.27159 | 8.42184 | 39° | 44km/h | 698m | -5.6m/s | 14.4°C | 79.0% | 931.4hPa | 2.7V | 00:00:00 | 02:02:08 | 00:00:00 | |
| DM0DOS-11 | 2026-08-31 11:33:46 | 53.27125 | 8.42139 | 39° | 42km/h | 719m | -5.5m/s | 14.2°C | 80.2% | 929.1hPa | 2.7V | 08:00:09 | 02:02:04 | 00:00:00 | |
| DL1XH-west | 2026-08-31 11:33:45 | 53.27151 | 8.42173 | 38° | 44km/h | 703m | -5.2m/s | 14.4°C | 83.3% | 930.9hPa | 2.7V | 08:00:40 | 02:02:07 | 00:00:00 | |
| DL1XH-west | 2026-08-31 11:33:44 | 53.27142 | 8.42161 | 39° | 44km/h | 708m | -4.8m/s | 14.3°C | 83.7% | 930.2hPa | 2.6V | 08:00:40 | 02:02:06 | 00:00:00 | |
| DL1XH-west | 2026-08-31 11:33:42 | 53.27125 | 8.42139 | 40° | 42km/h | 719m | -5.5m/s | 14.2°C | 84.6% | 929.1hPa | 2.7V | 08:00:40 | 02:02:04 | 00:00:00 | |
| DF5WG-10 | 2026-08-31 11:33:42 | 53.27125 | 8.42139 | 40° | 42km/h | 719m | -5.5m/s | 14.1°C | 80.2% | 929.0hPa | 2.7V | 00:00:00 | 02:02:04 | 00:00:00 | |
| GOEST3-10 | 2026-08-31 11:33:42 | 53.27125 | 8.42139 | 40° | 42km/h | 719m | -5.5m/s | 14.1°C | 80.2% | 929.0hPa | 2.7V | 00:00:00 | 02:02:04 | 00:00:00 | |
| DM0DOS-11 | 2026-08-31 11:33:41 | 53.27109 | 8.42116 | 40° | 42km/h | 730m | -5.9m/s | 14.1°C | 80.1% | 927.8hPa | 2.7V | 08:00:11 | 02:02:02 | 00:00:00 | |
| DM0DOS-11 | 2026-08-31 11:33:41 | 53.27092 | 8.42094 | 36° | 44km/h | 742m | -6.5m/s | 14°C | 80.3% | 926.6hPa | 2.7V | 08:00:13 | 02:02:00 | 00:00:00 | |
| DL1XH-west | 2026-08-31 11:33:40 | 53.27109 | 8.42116 | 40° | 42km/h | 730m | -5.9m/s | 14.1°C | 85.3% | 927.8hPa | 2.7V | 08:00:40 | 02:02:02 | 00:00:00 | |
| DL1XH-west | 2026-08-31 11:33:39 | 53.27092 | 8.42094 | 37° | 44km/h | 742m | -6.5m/s | 14°C | 86.1% | 926.6hPa | 2.7V | 08:00:40 | 02:02:00 | 00:00:00 | |
| GOEST3-10 | 2026-08-31 11:33:39 | 53.27101 | 8.42105 | 39° | 42km/h | 736m | -5.9m/s | 14.0°C | 80.0% | 927.0hPa | 2.6V | 00:00:00 | 00:00:00 | 00:00:00 | |
| DL1XH1-15 | 2026-08-31 11:33:38 | 53.27084 | 8.42083 | 36° | 46km/h | 748m | -6.3m/s | 13.9°C | 81.3% | 925.8hPa | 2.6V | 08:00:14 | 02:01:59 | 00:00:00 | |
| GOEST3-10 | 2026-08-31 11:33:38 | 53.27092 | 8.42094 | 37° | 44km/h | 742m | -6.5m/s | 13.9°C | 80.3% | 926.5hPa | 2.7V | 00:00:00 | 02:02:00 | 00:00:00 | |
| DF5WG-10 | 2026-08-31 11:33:37 | 53.27083 | 8.42082 | 37° | 46km/h | 748m | -6.3m/s | 13.9°C | 81.3% | 925.8hPa | 2.6V | 00:00:00 | 02:01:59 | 00:00:00 | |
| GOEST3-10 | 2026-08-31 11:33:37 | 53.27083 | 8.42082 | 37° | 46km/h | 748m | -6.3m/s | 13.9°C | 81.3% | 925.8hPa | 2.7V | 00:00:00 | 00:00:00 | 00:00:00 | |
| DM0DOS-11 | 2026-08-31 11:33:36 | 53.27057 | 8.42050 | 36° | 42km/h | 767m | -6.3m/s | 13.7°C | 82.6% | 923.7hPa | 2.7V | 08:00:17 | 02:01:56 | 00:00:00 | |
| DL1XH-west | 2026-08-31 11:33:36 | 53.27074 | 8.42071 | 36° | 44km/h | 754m | -6.3m/s | 13.8°C | 87.4% | 925.3hPa | 2.7V | 08:00:40 | 02:01:58 | 00:00:00 | |
| DL1XH-west | 2026-08-31 11:33:35 | 53.27066 | 8.42061 | 36° | 44km/h | 761m | -6.5m/s | 13.7°C | 88.3% | 924.4hPa | 2.7V | 08:00:40 | 02:01:57 | 00:00:00 | |
| DL1XH-west | 2026-08-31 11:33:34 | 53.27057 | 8.42050 | 37° | 42km/h | 767m | -6.3m/s | 13.7°C | 87.4% | 923.7hPa | 2.7V | 08:00:40 | 02:01:56 | 00:00:00 | |
| DL1XH-west | 2026-08-31 11:33:32 | 53.27040 | 8.42029 | 38° | 40km/h | 779m | -5.9m/s | 13.6°C | 87.2% | 922.3hPa | 2.6V | 08:00:40 | 02:01:54 | 00:00:00 | |
| DL1XH1-15 | 2026-08-31 11:33:32 | 53.27032 | 8.42018 | 37° | 40km/h | 785m | -6.6m/s | 13.6°C | 81.7% | 921.9hPa | 2.7V | 08:00:20 | 02:01:53 | 00:00:00 | |
| DJ2DS-15 | 2026-08-31 11:33:32 | 53.27032 | 8.42018 | 37° | 40km/h | 785m | -6.6m/s | 13.6°C | 81.5% | 921.9hPa | 2.7V | 00:00:00 | 00:00:00 | 00:00:00 | |
| DM0DOS-11 | 2026-08-31 11:33:31 | 53.27008 | 8.41986 | 38° | 42km/h | 804m | -6.3m/s | 13.3°C | 83.2% | 919.7hPa | 2.7V | 08:00:23 | 02:01:50 | 00:00:00 | |
| DM0DOS-11 | 2026-08-31 11:33:31 | 53.26990 | 8.41965 | 36° | 44km/h | 817m | -6m/s | 13.2°C | 83.9% | 918.3hPa | 2.7V | 08:00:25 | 02:01:48 | 00:00:00 | |
| DL1XH-west | 2026-08-31 11:33:30 | 53.27024 | 8.42008 | 37° | 40km/h | 792m | -6.1m/s | 13.5°C | 86.1% | 921.2hPa | 2.7V | 08:00:40 | 02:01:52 | 00:00:00 | |
| DL1XH-west | 2026-08-31 11:33:29 | 53.27008 | 8.41986 | 39° | 42km/h | 804m | -6.3m/s | 13.4°C | 87.5% | 919.7hPa | 2.7V | 08:00:40 | 02:01:50 | 00:00:00 | |
| DL1XH-west | 2026-08-31 11:33:27 | 53.26999 | 8.41975 | 36° | 44km/h | 810m | -5.8m/s | 13.3°C | 89.5% | 919.2hPa | 2.6V | 08:00:40 | 02:01:49 | 00:00:00 | |
| GOEST3-10 | 2026-08-31 11:33:27 | 53.26999 | 8.41975 | 36° | 44km/h | 810m | -5.7m/s | 13.2°C | 85.1% | 919.2hPa | 2.7V | 00:00:00 | 00:00:00 | 00:00:00 | |
| DF5WG-10 | 2026-08-31 11:33:27 | 53.26990 | 8.41964 | 37° | 44km/h | 817m | -6.0m/s | 13.2°C | 83.9% | 918.3hPa | 2.7V | 00:00:00 | 02:01:48 | 00:00:00 | |
| DL1XH1-15 | 2026-08-31 11:33:27 | 53.26964 | 8.41932 | 37° | 42km/h | 836m | -7.3m/s | 13.1°C | 85.4% | 916.1hPa | 2.7V | 08:00:28 | 02:01:45 | 00:00:00 | |
| DL1XH-west | 2026-08-31 11:33:25 | 53.26981 | 8.41954 | 37° | 44km/h | 822m | -6.4m/s | 13.1°C | 91.3% | 917.8hPa | 2.7V | 08:00:40 | 02:01:47 | 00:00:00 | |
| DL1XH-west | 2026-08-31 11:33:23 | 53.26964 | 8.41932 | 38° | 42km/h | 836m | -7.3m/s | 13.1°C | 90.8% | 916.1hPa | 2.7V | 08:00:40 | 02:01:45 | 00:00:00 | |
| DL1XH-west | 2026-08-31 11:33:21 | 53.26940 | 8.41900 | 38° | 40km/h | 858m | -7.6m/s | 12.9°C | 90.8% | 914hPa | 2.7V | 08:00:40 | 02:01:42 | 00:00:00 | |
| GOEST3-10 | 2026-08-31 11:33:21 | 53.26948 | 8.41911 | 39° | 40km/h | 851m | -7.3m/s | 12.9°C | 84.1% | 914.8hPa | 2.7V | 00:00:00 | 00:00:00 | 00:00:00 | |
| DD8BA-10 | 2026-08-31 11:33:21 | 53.26948 | 8.41911 | 39° | 40km/h | 851m | -7.3m/s | 12.9°C | 84.1% | 914.8hPa | 2.7V | 00:00:00 | 00:00:00 | 00:00:00 | |
| DF5WG-10 | 2026-08-31 11:33:21 | 53.26940 | 8.41900 | 38° | 40km/h | 858m | -7.6m/s | 12.8°C | 84.7% | 914.0hPa | 2.7V | 08:00:00 | 02:01:42 | 00:00:00 | |
| GOEST3-10 | 2026-08-31 11:33:20 | 53.26940 | 8.41900 | 38° | 40km/h | 858m | -7.6m/s | 12.8°C | 84.7% | 914.0hPa | 2.7V | 00:00:00 | 02:01:42 | 00:00:00 | |
| DJ2DS-15 | 2026-08-31 11:33:20 | 53.26940 | 8.41900 | 38° | 42km/h | 858m | -7.6m/s | 12.8°C | 84.7% | 914.0hPa | 2.7V | 00:00:00 | 02:01:42 | 00:00:00 | |
| DM0DOS-11 | 2026-08-31 11:33:20 | 53.26923 | 8.41880 | 34° | 42km/h | 874m | -7.8m/s | 12.7°C | 86.3% | 912.3hPa | 2.7V | 08:00:33 | 02:01:40 | 00:00:00 | |
| DL1XH-west | 2026-08-31 11:33:19 | 53.26932 | 8.41890 | 37° | 42km/h | 866m | -8.1m/s | 12.8°C | 90.8% | 913.1hPa | 2.7V | 08:00:40 | 02:01:41 | 00:00:00 | |
| DL1XH-west | 2026-08-31 11:33:17 | 53.26914 | 8.41870 | 35° | 42km/h | 882m | -7.9m/s | 12.6°C | 93.2% | 911.4hPa | 2.7V | 08:00:40 | 02:01:39 | 00:00:00 | |
| DL1XH-west | 2026-08-31 11:33:16 | 53.26906 | 8.41859 | 36° | 42km/h | 889m | -7.8m/s | 12.6°C | 90.1% | 910.4hPa | 2.7V | 08:00:40 | 02:01:38 | 00:00:00 | |
| DL1XH-west | 2026-08-31 11:33:14 | 53.26888 | 8.41838 | 37° | 42km/h | 905m | -7.3m/s | 12.4°C | 91.6% | 908.8hPa | 2.6V | 08:00:40 | 02:01:36 | 00:00:00 | |
| DL1XH1-15 | 2026-08-31 11:33:14 | 53.26880 | 8.41827 | 37° | 42km/h | 912m | -6.8m/s | 12.3°C | 87% | 908.1hPa | 2.6V | 08:00:38 | 02:01:35 | 00:00:00 | |
| DL1XH-west | 2026-08-31 11:33:13 | 53.26880 | 8.41827 | 38° | 42km/h | 912m | -6.8m/s | 12.4°C | 91.5% | 908.1hPa | 2.6V | 08:00:40 | 02:01:35 | 00:00:00 | |
| DL1XH-west | 2026-08-31 11:33:11 | 53.26862 | 8.41805 | 37° | 42km/h | 926m | -7.4m/s | 12.3°C | 90.7% | 906.4hPa | 2.7V | 08:00:40 | 02:01:33 | 00:00:00 | |
| DL1XH-west | 2026-08-31 11:33:09 | 53.26845 | 8.41783 | 36° | 44km/h | 941m | -7.4m/s | 12.1°C | 94.4% | 904.8hPa | 2.7V | 08:01:31 | 02:01:31 | 00:00:00 | |
| DL1XH-west | 2026-08-31 11:33:08 | 53.26836 | 8.41773 | 36° | 44km/h | 949m | -7.5m/s | 12°C | 93.9% | 904.1hPa | 2.7V | 08:01:31 | 02:01:30 | 00:00:00 | |
| BIOWL1-15 | 2026-08-31 11:33:07 | 53.26809 | 8.41739 | 37° | 46km/h | 971m | -7.4m/s | 11.9°C | 92.9% | 901.5hPa | 2.6V | 08:01:31 | 02:01:27 | 00:00:00 | |
| DL1XH-west | 2026-08-31 11:33:06 | 53.26818 | 8.41751 | 36° | 46km/h | 964m | -7.9m/s | 11.9°C | 93.4% | 902.7hPa | 2.7V | 08:01:31 | 02:01:28 | 00:00:00 | |
| DL1XH-west | 2026-08-31 11:33:04 | 53.26799 | 8.41728 | 37° | 46km/h | 978m | -6.7m/s | 11.9°C | 89.2% | 900.8hPa | 2.6V | 08:01:31 | 02:01:26 | 00:00:00 | |
| DL1XH-west | 2026-08-31 11:33:03 | 53.26790 | 8.41716 | 37° | 46km/h | 985m | -6.6m/s | 11.8°C | 89.9% | 900hPa | 2.7V | 08:01:31 | 02:01:25 | 00:00:00 | |
| GOEST3-10 | 2026-08-31 11:33:03 | 53.26790 | 8.41716 | 38° | 46km/h | 985m | -6.6m/s | 11.8°C | 85.3% | 900.0hPa | 2.7V | 00:00:00 | 00:00:00 | 00:00:00 | |
| DL1XH1-15 | 2026-08-31 11:33:02 | 53.26737 | 8.41644 | 39° | 46km/h | 1026m | -6.1m/s | 11.4°C | 87.4% | 895.8hPa | 2.7V | 08:00:54 | 02:01:19 | 00:00:00 | |
| BIOWL1-15 | 2026-08-31 11:33:02 | 53.26763 | 8.41681 | 39° | 44km/h | 1006m | -7.1m/s | 11.6°C | 90.5% | 897.9hPa | 2.7V | 08:01:31 | 02:01:22 | 00:00:00 | |
| DL1XH-west | 2026-08-31 11:33:01 | 53.26772 | 8.41693 | 38° | 46km/h | 999m | -6.7m/s | 11.7°C | 90.5% | 898.8hPa | 2.7V | 08:01:31 | 02:01:23 | 00:00:00 | |
| DL1XH-west | 2026-08-31 11:32:59 | 53.26755 | 8.41669 | 40° | 46km/h | 1013m | -7.4m/s | 11.6°C | 90.9% | 897.3hPa | 2.7V | 08:01:31 | 02:01:21 | 00:00:00 | |
| DL1XH-west | 2026-08-31 11:32:58 | 53.26746 | 8.41657 | 39° | 46km/h | 1020m | -6.5m/s | 11.5°C | 91.1% | 896.4hPa | 2.7V | 08:01:31 | 02:01:20 | 00:00:00 | |
| BIOWL1-15 | 2026-08-31 11:32:57 | 53.26700 | 8.41593 | 41° | 47km/h | 1054m | -7.4m/s | 11.2°C | 93.6% | 892.7hPa | 2.7V | 08:01:31 | 02:01:15 | 00:00:00 | |
| DL1XH-west | 2026-08-31 11:32:57 | 53.26728 | 8.41632 | 40° | 47km/h | 1033m | -7.3m/s | 11.4°C | 92.7% | 895.1hPa | 2.6V | 08:01:31 | 02:01:18 | 00:00:00 | |
| DL1XH-west | 2026-08-31 11:32:55 | 53.26719 | 8.41619 | 41° | 47km/h | 1040m | -6.5m/s | 11.3°C | 93% | 894.3hPa | 2.6V | 08:01:31 | 02:01:17 | 00:00:00 | |
| GOEST3-10 | 2026-08-31 11:32:55 | 53.26719 | 8.41619 | 42° | 47km/h | 1040m | -6.4m/s | 11.2°C | 87.8% | 894.3hPa | 2.7V | 00:00:00 | 00:00:00 | 00:00:00 | |
| DJ2DS-15 | 2026-08-31 11:32:55 | 53.26719 | 8.41619 | 42° | 47km/h | 1040m | -6.4m/s | 11.2°C | 87.8% | 894.3hPa | 2.7V | 00:00:00 | 02:01:17 | 00:00:00 | |
| GOEST3-10 | 2026-08-31 11:32:54 | 53.26709 | 8.41606 | 39° | 49km/h | 1047m | -7.0m/s | 11.2°C | 88.2% | 893.5hPa | 2.7V | 00:00:00 | 02:01:16 | 00:00:00 | |
| DL1XH-west | 2026-08-31 11:32:54 | 53.26709 | 8.41606 | 38° | 49km/h | 1047m | -7m/s | 11.2°C | 93.4% | 893.5hPa | 2.7V | 08:01:31 | 02:01:16 | 00:00:00 | |
| GOEST3-10 | 2026-08-31 11:32:53 | 53.26700 | 8.41593 | 42° | 47km/h | 1054m | -7.4m/s | 11.1°C | 88.4% | 892.7hPa | 2.7V | 00:00:00 | 00:00:00 | 00:00:00 | |
| DD8BA-10 | 2026-08-31 11:32:53 | 53.26700 | 8.41593 | 42° | 47km/h | 1054m | -7.4m/s | 11.1°C | 88.4% | 892.7hPa | 2.7V | 00:00:00 | 00:00:00 | 00:00:00 | |
| DF5WG-10 | 2026-08-31 11:32:53 | 53.26691 | 8.41580 | 40° | 47km/h | 1061m | -7.8m/s | 11.0°C | 88.7% | 892.0hPa | 2.7V | 00:00:00 | 02:01:14 | 00:00:00 | |
| DM0DOS-11 | 2026-08-31 11:32:52 | 53.26655 | 8.41528 | 41° | 46km/h | 1093m | -7.7m/s | 10.7°C | 91.5% | 888.6hPa | 2.7V | 08:01:03 | 02:01:10 | 00:00:00 | |
| DL1XH-west | 2026-08-31 11:32:52 | 53.26691 | 8.41580 | 40° | 47km/h | 1061m | -7.8m/s | 11.1°C | 94% | 892.1hPa | 2.7V | 08:01:31 | 02:01:14 | 00:00:00 | |
| BIOWL1-15 | 2026-08-31 11:32:51 | 53.26682 | 8.41567 | 41° | 47km/h | 1069m | -8m/s | 11°C | 94.5% | 891.1hPa | 2.7V | 08:01:31 | 02:01:13 | 00:00:00 | |
| DL1XH1-15 | 2026-08-31 11:32:50 | 53.26629 | 8.41488 | 42° | 49km/h | 1117m | -8m/s | 10.6°C | 90.9% | 886.2hPa | 2.7V | 08:01:06 | 02:01:07 | 00:00:00 | |
| DL1XH-west | 2026-08-31 11:32:50 | 53.26673 | 8.41554 | 40° | 46km/h | 1077m | -8.1m/s | 10.9°C | 95% | 890.2hPa | 2.7V | 08:01:31 | 02:01:12 | 00:00:00 | |
| BIOWL1-15 | 2026-08-31 11:32:49 | 53.26664 | 8.41541 | 43° | 46km/h | 1085m | -8.2m/s | 10.8°C | 95.8% | 889.5hPa | 2.7V | 08:01:31 | 02:01:11 | 00:00:00 | |
| DL1XH-west | 2026-08-31 11:32:48 | 53.26655 | 8.41528 | 41° | 46km/h | 1093m | -7.7m/s | 10.7°C | 95.7% | 888.6hPa | 2.7V | 08:01:31 | 02:01:10 | 00:00:00 | |
| BIOWL1-15 | 2026-08-31 11:32:47 | 53.26647 | 8.41515 | 43° | 46km/h | 1101m | -7.8m/s | 10.6°C | 96.2% | 887.8hPa | 2.6V | 08:01:31 | 02:01:09 | 00:00:00 | |
| DL1XH-west | 2026-08-31 11:32:46 | 53.26629 | 8.41488 | 43° | 49km/h | 1117m | -8m/s | 10.6°C | 94.4% | 886.2hPa | 2.7V | 08:01:31 | 02:01:07 | 00:00:00 | |
| BIOWL1-15 | 2026-08-31 11:32:46 | 53.26638 | 8.41502 | 42° | 47km/h | 1109m | -8.5m/s | 10.6°C | 96.4% | 886.9hPa | 2.6V | 08:01:31 | 02:01:08 | 00:00:00 | |
| DL1XH-west | 2026-08-31 11:32:45 | 53.26620 | 8.41474 | 43° | 49km/h | 1126m | -7.7m/s | 10.6°C | 96.2% | 885.3hPa | 2.7V | 08:01:31 | 02:01:06 | 00:00:00 | |
| DL1XH1-15 | 2026-08-31 11:32:45 | 53.26611 | 8.41460 | 43° | 49km/h | 1133m | -8.1m/s | 10.5°C | 91.1% | 884.4hPa | 2.7V | 08:01:08 | 02:01:05 | 00:00:00 | |
| DL1XH-west | 2026-08-31 11:32:43 | 53.26611 | 8.41460 | 43° | 49km/h | 1133m | -8.1m/s | 10.5°C | 95.1% | 884.4hPa | 2.7V | 08:01:31 | 02:01:05 | 00:00:00 | |
| DM0DOS-11 | 2026-08-31 11:32:42 | 53.26564 | 8.41388 | 43° | 49km/h | 1172m | -8.4m/s | 10°C | 96.2% | 880hPa | 2.6V | 08:01:13 | 02:01:00 | 00:00:00 | |
| DL1XH-west | 2026-08-31 11:32:42 | 53.26601 | 8.41445 | 42° | 51km/h | 1141m | -7.5m/s | 10.4°C | 97.2% | 883.6hPa | 2.7V | 08:01:31 | 02:01:04 | 00:00:00 | |
| DL1XH-west | 2026-08-31 11:32:40 | 53.26583 | 8.41417 | 42° | 51km/h | 1156m | -7.7m/s | 10.2°C | 98.3% | 882hPa | 2.7V | 08:01:31 | 02:01:02 | 00:00:00 | |
| DL1XH-west | 2026-08-31 11:32:39 | 53.26573 | 8.41403 | 43° | 49km/h | 1164m | -8.1m/s | 10.1°C | 98.8% | 881.1hPa | 2.7V | 08:01:31 | 02:01:01 | 00:00:00 | |
| BIOWL1-15 | 2026-08-31 11:32:38 | 53.26564 | 8.41388 | 44° | 49km/h | 1172m | -8.4m/s | 10°C | 99.6% | 880hPa | 2.6V | 08:01:31 | 02:01:00 | 00:00:00 | |
| DD8BA-10 | 2026-08-31 11:32:38 | 53.26564 | 8.41388 | 44° | 49km/h | 1173m | -8.3m/s | 9.9°C | 96.2% | 880.0hPa | 2.6V | 00:00:00 | 00:00:00 | 00:00:00 | |
| GOEST3-10 | 2026-08-31 11:32:38 | 53.26564 | 8.41388 | 44° | 49km/h | 1173m | -8.3m/s | 9.9°C | 96.2% | 880.0hPa | 2.6V | 00:00:00 | 02:01:00 | 00:00:00 | |
| DF5WG-10 | 2026-08-31 11:32:38 | 53.26555 | 8.41374 | 45° | 47km/h | 1181m | -8.1m/s | 9.9°C | 95.8% | 879.2hPa | 2.7V | 00:00:00 | 02:00:59 | 00:00:00 | |
| DM0DOS-11 | 2026-08-31 11:32:37 | 53.26511 | 8.41302 | 44° | 51km/h | 1221m | -8.2m/s | 9.4°C | 97.6% | 875.1hPa | 2.7V | 08:01:19 | 02:00:54 | 00:00:00 | |
| BIOWL1-15 | 2026-08-31 11:32:37 | 53.26555 | 8.41374 | 44° | 49km/h | 1181m | -8.1m/s | 10°C | 99.4% | 879.3hPa | 2.6V | 08:01:31 | 02:00:59 | 00:00:00 | |
| DL1XH-west | 2026-08-31 11:32:36 | 53.26546 | 8.41360 | 44° | 49km/h | 1189m | -8.2m/s | 10°C | 97% | 878.5hPa | 2.7V | 08:01:31 | 02:00:58 | 00:00:00 | |
| BIOWL1-15 | 2026-08-31 11:32:35 | 53.26537 | 8.41346 | 44° | 47km/h | 1197m | -7.8m/s | 10°C | 96.1% | 877.6hPa | 2.7V | 08:01:31 | 02:00:57 | 00:00:00 | |
| DL1XH-west | 2026-08-31 11:32:34 | 53.26529 | 8.41331 | 43° | 49km/h | 1205m | -8.1m/s | 9.9°C | 93.3% | 876.8hPa | 2.7V | 08:01:31 | 02:00:56 | 00:00:00 | |
| DL1XH-west | 2026-08-31 11:32:33 | 53.26520 | 8.41317 | 44° | 49km/h | 1213m | -8.4m/s | 9.5°C | 99.7% | 876hPa | 2.7V | 08:01:31 | 02:00:55 | 00:00:00 | |
| GOEST3-10 | 2026-08-31 11:32:33 | 53.26519 | 8.41317 | 45° | 49km/h | 1213m | -8.3m/s | 9.5°C | 0% | 875.9hPa | 2.7V | 00:00:00 | 00:00:00 | 00:00:00 | |
| DL1XH1-15 | 2026-08-31 11:32:32 | 53.26501 | 8.41287 | 44° | 51km/h | 1230m | -8.6m/s | 9.4°C | 0% | 874.1hPa | 2.7V | 08:01:20 | 02:00:53 | 00:00:00 | |
| GOEST3-10 | 2026-08-31 11:32:32 | 53.26510 | 8.41302 | 45° | 51km/h | 1221m | -8.1m/s | 9.4°C | 0% | 875.0hPa | 2.7V | 08:01:00 | 02:00:54 | 00:00:00 | |
| DD8BA-10 | 2026-08-31 11:32:32 | 53.26510 | 8.41302 | 45° | 51km/h | 1221m | -8.1m/s | 9.4°C | 0% | 875.0hPa | 2.6V | 00:00:00 | 00:00:00 | 00:00:00 | |
| DM0DOS-11 | 2026-08-31 11:32:31 | 53.26492 | 8.41272 | 44° | 51km/h | 1238m | -8.4m/s | 9.5°C | 99.6% | 873.4hPa | 2.6V | 08:01:21 | 02:00:52 | 00:00:00 | |
| DM0DOS-11 | 2026-08-31 11:32:31 | 53.26455 | 8.41211 | 44° | 51km/h | 1270m | -8m/s | 10°C | 82% | 870hPa | 2.7V | 08:01:25 | 02:00:48 | 00:00:00 | |
| DL1XH-west | 2026-08-31 11:32:31 | 53.26501 | 8.41287 | 44° | 51km/h | 1230m | -8.6m/s | 9.4°C | 100% | 874.1hPa | 2.7V | 08:01:31 | 02:00:53 | 00:00:00 | |
| DL1XH-west | 2026-08-31 11:32:30 | 53.26492 | 8.41272 | 44° | 51km/h | 1238m | -8.4m/s | 9.5°C | 100% | 873.4hPa | 2.6V | 08:01:31 | 02:00:52 | 00:00:00 | |
| DL1XH-west | 2026-08-31 11:32:28 | 53.26473 | 8.41241 | 46° | 51km/h | 1255m | -8.2m/s | 9.8°C | 96.1% | 871.6hPa | 2.7V | 08:01:31 | 02:00:50 | 00:00:00 | |
| DL1XH-west | 2026-08-31 11:32:26 | 53.26455 | 8.41211 | 45° | 51km/h | 1271m | -8m/s | 10°C | 88.5% | 870hPa | 2.7V | 08:01:31 | 02:00:48 | 00:00:00 | |
| DF5WG-10 | 2026-08-31 11:32:26 | 53.26455 | 8.41211 | 45° | 51km/h | 1271m | -8.0m/s | 10.0°C | 82.0% | 869.9hPa | 2.7V | 00:00:00 | 02:00:48 | 00:00:00 | |
| GOEST3-10 | 2026-08-31 11:32:26 | 53.26455 | 8.41211 | 45° | 51km/h | 1271m | -8.0m/s | 10.0°C | 82.0% | 869.9hPa | 2.7V | 00:00:00 | 02:00:48 | 00:00:00 | |
| DM0DOS-11 | 2026-08-31 11:32:26 | 53.26437 | 8.41181 | 44° | 51km/h | 1287m | -8.2m/s | 9.9°C | 82.1% | 868.2hPa | 2.7V | 08:01:27 | 02:00:46 | 00:00:00 | |
| DM0DOS-11 | 2026-08-31 11:32:26 | 53.26400 | 8.41119 | 45° | 53km/h | 1319m | -8m/s | 9.6°C | 84% | 864.8hPa | 2.6V | 08:01:31 | 02:00:42 | 00:00:00 | |
| DL1XH-west | 2026-08-31 11:32:25 | 53.26446 | 8.41196 | 45° | 49km/h | 1279m | -8.1m/s | 10°C | 87.3% | 869.1hPa | 2.7V | 08:01:31 | 02:00:47 | 00:00:00 | |
| BIOWL1-15 | 2026-08-31 11:32:24 | 53.26437 | 8.41181 | 45° | 51km/h | 1287m | -8.2m/s | 9.9°C | 88.9% | 868.2hPa | 2.7V | 08:01:31 | 02:00:46 | 00:00:00 | |
| DL1XH-west | 2026-08-31 11:32:23 | 53.26427 | 8.41166 | 44° | 51km/h | 1295m | -8.1m/s | 9.8°C | 89.7% | 867.4hPa | 2.7V | 08:01:31 | 02:00:45 | 00:00:00 | |
| BIOWL1-15 | 2026-08-31 11:32:22 | 53.26399 | 8.41119 | 45° | 53km/h | 1319m | -8m/s | 9.6°C | 90.3% | 864.8hPa | 2.6V | 08:01:31 | 02:00:42 | 00:00:00 | |
| DL1XH-west | 2026-08-31 11:32:21 | 53.26409 | 8.41135 | 46° | 53km/h | 1311m | -7.9m/s | 9.6°C | 90.8% | 865.6hPa | 2.6V | 08:01:31 | 02:00:43 | 00:00:00 | |
| GOEST3-10 | 2026-08-31 11:32:21 | 53.26409 | 8.41134 | 46° | 51km/h | 1311m | -7.9m/s | 9.6°C | 84.3% | 865.6hPa | 2.7V | 00:00:00 | 00:00:00 | 00:00:00 | |
| DL1XH1-15 | 2026-08-31 11:32:20 | 53.26352 | 8.41039 | 45° | 53km/h | 1361m | -8.4m/s | 9.3°C | 82.1% | 860.4hPa | 2.7V | 08:01:36 | 02:00:37 | 00:00:00 | |
| DL1XH-west | 2026-08-31 11:32:19 | 53.26390 | 8.41103 | 45° | 53km/h | 1327m | -8m/s | 9.5°C | 89.9% | 864.1hPa | 2.7V | 08:02:22 | 02:00:41 | 00:00:00 | |
| DL1XH-west | 2026-08-31 11:32:18 | 53.26381 | 8.41087 | 46° | 53km/h | 1335m | -8.4m/s | 9.5°C | 90.2% | 863hPa | 2.7V | 08:02:22 | 02:00:40 | 00:00:00 | |
| DL1XH-west | 2026-08-31 11:32:17 | 53.26371 | 8.41071 | 46° | 53km/h | 1344m | -8.7m/s | 9.4°C | 89.6% | 862.3hPa | 2.7V | 08:02:22 | 02:00:39 | 00:00:00 | |
| DL1XH-west | 2026-08-31 11:32:15 | 53.26334 | 8.41007 | 48° | 53km/h | 1377m | -8.1m/s | 9.1°C | 87.4% | 858.7hPa | 2.6V | 08:02:22 | 02:00:35 | 00:00:00 | |
| GOEST3-10 | 2026-08-31 11:32:15 | 53.26352 | 8.41039 | 46° | 53km/h | 1361m | -8.4m/s | 9.3°C | 82.1% | 860.4hPa | 2.7V | 00:00:00 | 00:00:00 | 00:00:00 | |
| DJ2DS-15 | 2026-08-31 11:32:15 | 53.26352 | 8.41039 | 46° | 53km/h | 1361m | -8.4m/s | 9.3°C | 82.1% | 860.4hPa | 2.7V | 08:01:00 | 02:00:37 | 00:00:00 | |
| DL1XH1-15 | 2026-08-31 11:32:15 | 53.26334 | 8.41007 | 47° | 53km/h | 1377m | -8.1m/s | 9.1°C | 82.7% | 858.7hPa | 2.6V | 08:01:38 | 02:00:35 | 00:00:00 | |
| BIOWL1-15 | 2026-08-31 11:32:14 | 53.26325 | 8.40990 | 48° | 51km/h | 1385m | -8.3m/s | 9°C | 87.1% | 857.8hPa | 2.6V | 08:02:22 | 02:00:34 | 00:00:00 | |
| DL1XH-west | 2026-08-31 11:32:11 | 53.26316 | 8.40974 | 48° | 51km/h | 1394m | -8.3m/s | 8.7°C | 88% | 857hPa | 2.7V | 08:02:22 | 02:00:33 | 00:00:00 | |
| BIOWL1-15 | 2026-08-31 11:32:10 | 53.26272 | 8.40896 | 45° | 51km/h | 1436m | -8.4m/s | 7.8°C | 89.8% | 852.7hPa | 2.7V | 08:02:22 | 02:00:28 | 00:00:00 | |
| DL1XH-west | 2026-08-31 11:32:09 | 53.26299 | 8.40943 | 47° | 51km/h | 1411m | -9.1m/s | 8.2°C | 93.6% | 855.4hPa | 2.7V | 08:02:22 | 02:00:31 | 00:00:00 | |
| GOEST3-10 | 2026-08-31 11:32:09 | 53.26299 | 8.40942 | 47° | 51km/h | 1411m | -9.1m/s | 8.2°C | 92.5% | 855.4hPa | 2.7V | 00:00:00 | 00:00:00 | 00:00:00 | |
| DD8BA-10 | 2026-08-31 11:32:09 | 53.26299 | 8.40942 | 47° | 51km/h | 1411m | -9.1m/s | 8.2°C | 92.5% | 855.4hPa | 2.7V | 00:00:00 | 00:00:00 | 00:00:00 | |
| DL1XH1-15 | 2026-08-31 11:32:08 | 53.26281 | 8.40912 | 45° | 51km/h | 1428m | -8.1m/s | 8°C | 93.3% | 853.6hPa | 2.7V | 08:01:44 | 02:00:29 | 00:00:00 | |
| DL1XH-west | 2026-08-31 11:32:07 | 53.26281 | 8.40912 | 46° | 51km/h | 1428m | -8.1m/s | 8°C | 93.6% | 853.6hPa | 2.7V | 08:02:22 | 02:00:29 | 00:00:00 | |
| DL1XH-west | 2026-08-31 11:32:05 | 53.26263 | 8.40881 | 45° | 53km/h | 1445m | -9.2m/s | 7.7°C | 92.7% | 851.9hPa | 2.6V | 08:02:22 | 02:00:27 | 00:00:00 | |
| BIOWL1-15 | 2026-08-31 11:32:04 | 53.26225 | 8.40815 | 47° | 53km/h | 1481m | -8.6m/s | 7.6°C | 100% | 848.2hPa | 2.7V | 08:02:22 | 02:00:23 | 00:00:00 | |
| DL1XH-west | 2026-08-31 11:32:04 | 53.26244 | 8.40848 | 47° | 55km/h | 1463m | -9.3m/s | 8°C | 100% | 850.1hPa | 2.7V | 08:02:22 | 02:00:25 | 00:00:00 | |
| GOEST3-10 | 2026-08-31 11:32:03 | 53.26243 | 8.40848 | 47° | 55km/h | 1463m | -9.2m/s | 8.0°C | 0% | 850.0hPa | 2.7V | 00:00:00 | 00:00:00 | 00:00:00 | |
| DD8BA-10 | 2026-08-31 11:32:03 | 53.26243 | 8.40848 | 47° | 53km/h | 1463m | -9.2m/s | 8.0°C | 0% | 850.0hPa | 2.7V | 00:00:00 | 00:00:00 | 00:00:00 | |
| DL1XH1-15 | 2026-08-31 11:32:02 | 53.26207 | 8.40782 | 46° | 51km/h | 1497m | -8.4m/s | 7.7°C | 97.6% | 846.5hPa | 2.7V | 08:01:52 | 02:00:21 | 00:00:00 | |
| DL1XH-west | 2026-08-31 11:32:02 | 53.26234 | 8.40831 | 48° | 55km/h | 1472m | -8.8m/s | 7.9°C | 100% | 849.1hPa | 2.7V | 08:02:22 | 02:00:24 | 00:00:00 | |
| DL1XH-west | 2026-08-31 11:32:00 | 53.26216 | 8.40798 | 48° | 53km/h | 1489m | -8.5m/s | 7.7°C | 100% | 847.3hPa | 2.7V | 08:02:22 | 02:00:22 | 00:00:00 | |
| DL1XH-west | 2026-08-31 11:31:58 | 53.26198 | 8.40766 | 46° | 51km/h | 1506m | -8.7m/s | 7.8°C | 94.3% | 845.6hPa | 2.7V | 08:02:22 | 02:00:20 | 00:00:00 | |
| DL1XH-west | 2026-08-31 11:31:56 | 53.26179 | 8.40735 | 45° | 53km/h | 1523m | -8.2m/s | 7.9°C | 91.7% | 843.9hPa | 2.6V | 08:02:22 | 02:00:18 | 00:00:00 | |
| BIOWL1-15 | 2026-08-31 11:31:55 | 53.26170 | 8.40719 | 44° | 53km/h | 1531m | -8.3m/s | 7.9°C | 93.4% | 842.8hPa | 2.7V | 08:02:22 | 02:00:17 | 00:00:00 | |
| DL1XH-west | 2026-08-31 11:31:54 | 53.26160 | 8.40704 | 44° | 53km/h | 1539m | -8.4m/s | 8.1°C | 89.6% | 842hPa | 2.7V | 08:02:22 | 02:00:16 | 00:00:00 | |
| BIOWL1-15 | 2026-08-31 11:31:53 | 53.26150 | 8.40688 | 44° | 53km/h | 1547m | -7.8m/s | 8.1°C | 86.4% | 841.1hPa | 2.7V | 08:02:22 | 02:00:15 | 00:00:00 | |
| BIOWL1-15 | 2026-08-31 11:31:52 | 53.26140 | 8.40672 | 44° | 53km/h | 1555m | -8.2m/s | 8.1°C | 85.9% | 840.4hPa | 2.7V | 08:02:22 | 02:00:14 | 00:00:00 | |
| DL1XH-west | 2026-08-31 11:31:50 | 53.26121 | 8.40640 | 44° | 55km/h | 1572m | -8m/s | 8.1°C | 85.3% | 838.9hPa | 2.7V | 08:02:22 | 02:00:12 | 00:00:00 | |
| DL1XH-west | 2026-08-31 11:31:49 | 53.26111 | 8.40624 | 45° | 55km/h | 1580m | -8.1m/s | 8°C | 85.5% | 837.9hPa | 2.6V | 08:02:22 | 02:00:11 | 00:00:00 | |
| BIOWL1-15 | 2026-08-31 11:31:48 | 53.26101 | 8.40608 | 44° | 55km/h | 1588m | -7.8m/s | 7.9°C | 85.9% | 837.2hPa | 2.6V | 08:02:22 | 02:00:10 | 00:00:00 | |
| DL1XH-west | 2026-08-31 11:31:47 | 53.26091 | 8.40592 | 44° | 55km/h | 1595m | -8m/s | 7.9°C | 86.2% | 836.4hPa | 2.7V | 08:02:22 | 02:00:09 | 00:00:00 | |
| DL1XH-west | 2026-08-31 11:31:46 | 53.26081 | 8.40576 | 45° | 55km/h | 1603m | -7.7m/s | 7.8°C | 86.4% | 835.5hPa | 2.7V | 08:02:22 | 02:00:08 | 00:00:00 | |
| BIOWL1-15 | 2026-08-31 11:31:45 | 53.26072 | 8.40559 | 45° | 55km/h | 1611m | -8.3m/s | 7.7°C | 86.8% | 834.7hPa | 2.7V | 08:02:22 | 02:00:07 | 00:00:00 | |
| DL1XH-west | 2026-08-31 11:31:44 | 53.26062 | 8.40543 | 45° | 55km/h | 1619m | -7.9m/s | 7.7°C | 87.2% | 833.8hPa | 2.7V | 08:02:22 | 02:00:06 | 00:00:00 | |
| BIOWL1-15 | 2026-08-31 11:31:43 | 53.26014 | 8.40461 | 46° | 55km/h | 1659m | -7.9m/s | 7.4°C | 87.9% | 829.9hPa | 2.7V | 08:02:22 | 02:00:01 | 00:00:00 | |
| DL1XH-west | 2026-08-31 11:31:43 | 53.26033 | 8.40494 | 46° | 55km/h | 1643m | -8m/s | 7.5°C | 87.7% | 831.6hPa | 2.6V | 08:02:22 | 02:00:03 | 00:00:00 | |
| DL1XH-west | 2026-08-31 11:31:40 | 53.26023 | 8.40477 | 46° | 55km/h | 1651m | -7.7m/s | 7.4°C | 87.7% | 830.7hPa | 2.6V | 08:02:22 | 02:00:02 | 00:00:00 | |
| DJ2DS-15 | 2026-08-31 11:31:40 | 53.26023 | 8.40477 | 47° | 55km/h | 1651m | -7.6m/s | 7.4°C | 83.0% | 830.7hPa | 2.7V | 00:00:00 | 02:00:02 | 00:00:00 | |
| GOEST3-10 | 2026-08-31 11:31:40 | 53.26023 | 8.40477 | 47° | 55km/h | 1651m | -7.6m/s | 7.4°C | 83.0% | 830.7hPa | 2.7V | 00:00:00 | 02:00:02 | 00:00:00 | |
| GOEST3-10 | 2026-08-31 11:31:39 | 53.26014 | 8.40460 | 47° | 55km/h | 1658m | -7.9m/s | 7.3°C | 83.4% | 829.9hPa | 2.7V | 00:00:00 | 00:00:00 | 00:00:00 | |
| DL1XH1-15 | 2026-08-31 11:31:38 | 53.25976 | 8.40394 | 46° | 55km/h | 1690m | -7.9m/s | 7.2°C | 82.6% | 826.7hPa | 2.7V | 08:02:16 | 01:59:57 | 00:00:00 | |
| DL1XH1-15 | 2026-08-31 11:31:38 | 53.25957 | 8.40361 | 46° | 55km/h | 1706m | -7.9m/s | 7.2°C | 81.6% | 825hPa | 2.6V | 08:02:18 | 01:59:55 | 00:00:00 | |
| BIOWL1-15 | 2026-08-31 11:31:38 | 53.26004 | 8.40444 | 47° | 55km/h | 1666m | -8.1m/s | 7.3°C | 87.8% | 829.1hPa | 2.7V | 08:02:22 | 02:00:00 | 00:00:00 | |
| DL1XH-west | 2026-08-31 11:31:37 | 53.25995 | 8.40427 | 46° | 55km/h | 1674m | -7.8m/s | 7.3°C | 87.8% | 828.2hPa | 2.7V | 08:02:22 | 01:59:59 | 00:00:00 | |
| BIOWL1-15 | 2026-08-31 11:31:36 | 53.25957 | 8.40361 | 47° | 55km/h | 1706m | -7.9m/s | 7.2°C | 86.6% | 825hPa | 2.6V | 08:02:22 | 01:59:55 | 00:00:00 | |
| DL1XH-west | 2026-08-31 11:31:35 | 53.25976 | 8.40394 | 46° | 55km/h | 1690m | -7.9m/s | 7.2°C | 87% | 826.7hPa | 2.7V | 08:02:22 | 01:59:57 | 00:00:00 | |
| DL1XH-west | 2026-08-31 11:31:34 | 53.25966 | 8.40377 | 47° | 55km/h | 1698m | -8.3m/s | 7.2°C | 86.9% | 826hPa | 2.7V | 08:02:22 | 01:59:56 | 00:00:00 | |
| DL1XH-west | 2026-08-31 11:31:32 | 53.25947 | 8.40344 | 46° | 55km/h | 1714m | -7.5m/s | 7.2°C | 86.7% | 824.4hPa | 2.6V | 08:02:22 | 01:59:54 | 00:00:00 | |
| DL1XH-west | 2026-08-31 11:31:31 | 53.25938 | 8.40327 | 46° | 55km/h | 1722m | -7.8m/s | 7.1°C | 86.7% | 823.5hPa | 2.7V | 08:02:22 | 01:59:53 | 00:00:00 | |
| BIOWL1-15 | 2026-08-31 11:31:30 | 53.25928 | 8.40310 | 46° | 55km/h | 1729m | -8m/s | 7°C | 87% | 822.8hPa | 2.7V | 08:02:22 | 01:59:52 | 00:00:00 | |
| DL1XH-west | 2026-08-31 11:31:29 | 53.25919 | 8.40294 | 47° | 55km/h | 1737m | -7.9m/s | 7°C | 87.2% | 822hPa | 2.7V | 08:02:22 | 01:59:51 | 00:00:00 | |
| BIOWL1-15 | 2026-08-31 11:31:28 | 53.25909 | 8.40277 | 46° | 55km/h | 1745m | -7.5m/s | 6.9°C | 87.4% | 821.2hPa | 2.7V | 08:03:13 | 01:59:50 | 00:00:00 | |
| BIOWL1-15 | 2026-08-31 11:31:27 | 53.25899 | 8.40260 | 46° | 55km/h | 1753m | -7.9m/s | 6.9°C | 87.8% | 820.6hPa | 2.7V | 08:03:13 | 01:59:49 | 00:00:00 | |
| DL1XH-west | 2026-08-31 11:31:26 | 53.25890 | 8.40243 | 46° | 55km/h | 1761m | -7.7m/s | 6.8°C | 88.1% | 819.7hPa | 2.6V | 08:03:13 | 01:59:48 | 00:00:00 | |
| BIOWL1-15 | 2026-08-31 11:31:25 | 53.25880 | 8.40227 | 46° | 55km/h | 1768m | -7.8m/s | 6.7°C | 88.4% | 818.9hPa | 2.6V | 08:03:13 | 01:59:47 | 00:00:00 | |
| DL1XH-west | 2026-08-31 11:31:24 | 53.25870 | 8.40210 | 46° | 55km/h | 1776m | -8m/s | 6.7°C | 88.4% | 818.2hPa | 2.7V | 08:03:13 | 01:59:46 | 00:00:00 | |
| BIOWL1-15 | 2026-08-31 11:31:23 | 53.25861 | 8.40193 | 46° | 55km/h | 1784m | -7.8m/s | 6.6°C | 88.5% | 817.4hPa | 2.7V | 08:03:13 | 01:59:45 | 00:00:00 | |
| BIOWL1-15 | 2026-08-31 11:31:22 | 53.25851 | 8.40176 | 46° | 55km/h | 1792m | -7.9m/s | 6.6°C | 88.4% | 816.6hPa | 2.7V | 08:03:13 | 01:59:44 | 00:00:00 | |
| BIOWL1-15 | 2026-08-31 11:31:21 | 53.25842 | 8.40159 | 47° | 55km/h | 1799m | -7.8m/s | 6.5°C | 88.3% | 815.8hPa | 2.7V | 08:03:13 | 01:59:43 | 00:00:00 | |
| DL1XH-west | 2026-08-31 11:31:20 | 53.25832 | 8.40143 | 46° | 55km/h | 1807m | -8.1m/s | 6.4°C | 88.3% | 814.9hPa | 2.7V | 08:03:13 | 01:59:42 | 00:00:00 | |
| BIOWL1-15 | 2026-08-31 11:31:19 | 53.25747 | 8.39992 | 46° | 55km/h | 1877m | -7.6m/s | 6°C | 88.9% | 808.1hPa | 2.6V | 08:03:13 | 01:59:33 | 00:00:00 | |
| DL1XH-west | 2026-08-31 11:31:18 | 53.25813 | 8.40109 | 47° | 55km/h | 1823m | -7.5m/s | 6.3°C | 88.4% | 813.5hPa | 2.6V | 08:03:13 | 01:59:40 | 00:00:00 | |
| GOEST3-10 | 2026-08-31 11:31:18 | 53.25813 | 8.40109 | 47° | 55km/h | 1823m | -7.4m/s | 6.3°C | 84.2% | 813.4hPa | 2.6V | 08:02:00 | 01:59:40 | 00:00:00 | |
| GOEST3-10 | 2026-08-31 11:31:17 | 53.25803 | 8.40092 | 47° | 55km/h | 1830m | -7.8m/s | 6.3°C | 84.1% | 812.6hPa | 2.7V | 00:00:00 | 00:00:00 | 00:00:00 | |
| DL1XH-15 | 2026-08-31 11:31:16 | 53.25785 | 8.40059 | 47° | 55km/h | 1846m | -7.9m/s | 6.2°C | 84.1% | 811.2hPa | 2.7V | 08:02:36 | 01:59:37 | 00:00:00 | |
| BIOWL1-15 | 2026-08-31 11:31:16 | 53.25737 | 8.39976 | 46° | 53km/h | 1884m | -7.7m/s | 6°C | 88.9% | 807.5hPa | 2.6V | 08:03:13 | 01:59:32 | 00:00:00 | |
| DL1XH-west | 2026-08-31 11:31:16 | 53.25794 | 8.40076 | 46° | 55km/h | 1838m | -7.7m/s | 6.3°C | 88.4% | 811.9hPa | 2.7V | 08:03:13 | 01:59:38 | 00:00:00 | |
| DL1XH-west | 2026-08-31 11:31:15 | 53.25784 | 8.40059 | 47° | 55km/h | 1846m | -7.9m/s | 6.2°C | 88.5% | 811.2hPa | 2.7V | 08:03:13 | 01:59:37 | 00:00:00 | |
| DL1XH-west | 2026-08-31 11:31:13 | 53.25765 | 8.40026 | 47° | 55km/h | 1861m | -7.9m/s | 6.2°C | 88.3% | 809.7hPa | 2.7V | 08:03:13 | 01:59:35 | 00:00:00 | |
| DL1XH-west | 2026-08-31 11:31:11 | 53.25728 | 8.39959 | 46° | 53km/h | 1892m | -7.9m/s | 5.9°C | 89.2% | 806.7hPa | 2.7V | 08:03:13 | 01:59:31 | 00:00:00 | |
| GOEST3-10 | 2026-08-31 11:31:11 | 53.25747 | 8.39992 | 47° | 55km/h | 1877m | -7.5m/s | 6.0°C | 84.3% | 808.1hPa | 2.7V | 00:00:00 | 00:00:00 | 00:00:00 | |
| DL1XH-15 | 2026-08-31 11:31:10 | 53.25728 | 8.39959 | 46° | 53km/h | 1892m | -7.9m/s | 5.9°C | 84.9% | 806.7hPa | 2.7V | 08:02:42 | 01:59:31 | 00:00:00 | |
| DL1XH-west | 2026-08-31 11:31:09 | 53.25719 | 8.39943 | 46° | 53km/h | 1900m | -7.3m/s | 5.8°C | 89.2% | 805.9hPa | 2.7V | 08:03:13 | 01:59:30 | 00:00:00 | |
| DM0DOS-11 | 2026-08-31 11:31:09 | 53.25709 | 8.39927 | 46° | 53km/h | 1907m | -7.5m/s | 5.7°C | 85.5% | 805.2hPa | 2.7V | 08:02:44 | 01:59:29 | 00:00:00 | |
| BIOWL1-15 | 2026-08-31 11:31:08 | 53.25700 | 8.39911 | 46° | 51km/h | 1914m | -7.8m/s | 5.8°C | 89% | 804.4hPa | 2.7V | 08:03:13 | 01:59:28 | 00:00:00 | |
| DL1XH-west | 2026-08-31 11:31:07 | 53.25709 | 8.39927 | 46° | 53km/h | 1907m | -7.5m/s | 5.7°C | 89.3% | 805.2hPa | 2.7V | 08:03:13 | 01:59:29 | 00:00:00 | |
| GOEST3-10 | 2026-08-31 11:31:07 | 53.25709 | 8.39927 | 47° | 53km/h | 1907m | -7.4m/s | 5.7°C | 85.5% | 805.1hPa | 2.7V | 00:00:00 | 00:00:00 | 00:00:00 | |
| DL1XH1-15 | 2026-08-31 11:31:06 | 53.25691 | 8.39895 | 46° | 51km/h | 1921m | -7.1m/s | 5.8°C | 84.2% | 803.5hPa | 2.7V | 08:02:46 | 01:59:27 | 00:00:00 | |
| DL1XH-west | 2026-08-31 11:31:05 | 53.25691 | 8.39895 | 46° | 51km/h | 1922m | -7.1m/s | 5.8°C | 88.4% | 803.5hPa | 2.7V | 08:03:13 | 01:59:27 | 00:00:00 | |
| BIOWL1-15 | 2026-08-31 11:31:04 | 53.25682 | 8.39880 | 46° | 51km/h | 1929m | -7.4m/s | 5.6°C | 88.7% | 803hPa | 2.7V | 08:03:13 | 01:59:26 | 00:00:00 | |
| DL1XH-west | 2026-08-31 11:31:03 | 53.25673 | 8.39864 | 46° | 51km/h | 1936m | -7.4m/s | 5.6°C | 89% | 802.2hPa | 2.6V | 08:03:13 | 01:59:25 | 00:00:00 | |
| DM0DOS-11 | 2026-08-31 11:31:02 | 53.25655 | 8.39833 | 45° | 51km/h | 1951m | -7.8m/s | 5.5°C | 85.3% | 800.9hPa | 2.7V | 08:02:50 | 01:59:23 | 00:00:00 | |
| DL1XH-west | 2026-08-31 11:31:02 | 53.25664 | 8.39849 | 46° | 49km/h | 1943m | -7.3m/s | 5.6°C | 89% | 801.4hPa | 2.6V | 08:03:13 | 01:59:24 | 00:00:00 | |
| BIOWL1-15 | 2026-08-31 11:31:01 | 53.25655 | 8.39833 | 45° | 51km/h | 1951m | -7.9m/s | 5.5°C | 89.3% | 800.9hPa | 2.7V | 08:03:13 | 01:59:23 | 00:00:00 | |
| GOEST3-10 | 2026-08-31 11:31:01 | 53.25655 | 8.39833 | 46° | 51km/h | 1951m | -7.8m/s | 5.4°C | 85.3% | 800.8hPa | 2.7V | 00:00:00 | 00:00:00 | 00:00:00 | |
| DF5WG-10 | 2026-08-31 11:31:01 | 53.25655 | 8.39833 | 46° | 51km/h | 1951m | -7.8m/s | 5.4°C | 85.3% | 800.8hPa | 2.7V | 00:00:00 | 01:59:23 | 00:00:00 | |
| DL1XH1-15 | 2026-08-31 11:31:00 | 53.25637 | 8.39803 | 44° | 51km/h | 1966m | -7.3m/s | 5.4°C | 85.4% | 799.3hPa | 2.7V | 08:02:52 | 01:59:21 | 00:00:00 | |
| DL1XH1-15 | 2026-08-31 11:31:00 | 53.25620 | 8.39774 | 44° | 49km/h | 1980m | -7.5m/s | 5.3°C | 84.7% | 797.8hPa | 2.7V | 08:02:54 | 01:59:19 | 00:00:00 | |
| DL1XH-west | 2026-08-31 11:31:00 | 53.25646 | 8.39818 | 45° | 49km/h | 1959m | -7.3m/s | 5.4°C | 89.5% | 800hPa | 2.7V | 08:03:13 | 01:59:22 | 00:00:00 | |
| DL1XH-west | 2026-08-31 11:30:58 | 53.25628 | 8.39788 | 45° | 49km/h | 1973m | -7.2m/s | 5.4°C | 88.1% | 798.5hPa | 2.7V | 08:03:13 | 01:59:20 | 00:00:00 | |
| DL1XH-west | 2026-08-31 11:30:57 | 53.25619 | 8.39774 | 45° | 49km/h | 1980m | -7.5m/s | 5.3°C | 88.8% | 797.8hPa | 2.7V | 08:03:13 | 01:59:19 | 00:00:00 | |
| DM0DOS-11 | 2026-08-31 11:30:56 | 53.25602 | 8.39745 | 43° | 49km/h | 1995m | -7.1m/s | 5.3°C | 83% | 796.5hPa | 2.6V | 08:02:56 | 01:59:17 | 00:00:00 | |
| DM0DOS-11 | 2026-08-31 11:30:56 | 53.25567 | 8.39688 | 44° | 47km/h | 2024m | -7.4m/s | 5°C | 85.4% | 793.5hPa | 2.7V | 08:03:00 | 01:59:13 | 00:00:00 | |
| DD8BA-10 | 2026-08-31 11:30:56 | 53.25610 | 8.39759 | 45° | 47km/h | 1988m | -7.1m/s | 5.3°C | 84.2% | 797.0hPa | 2.7V | 00:00:00 | 00:00:00 | 00:00:00 | |
| GOEST3-10 | 2026-08-31 11:30:56 | 53.25610 | 8.39759 | 45° | 49km/h | 1988m | -7.1m/s | 5.3°C | 84.2% | 797.0hPa | 2.7V | 00:00:00 | 01:59:18 | 00:00:00 | |
| DL1XH1-15 | 2026-08-31 11:30:55 | 53.25558 | 8.39674 | 44° | 47km/h | 2032m | -7.6m/s | 4.9°C | 85.7% | 792.8hPa | 2.7V | 08:03:01 | 01:59:12 | 00:00:00 | |
| DL1XH-west | 2026-08-31 11:30:55 | 53.25602 | 8.39745 | 44° | 49km/h | 1995m | -7.1m/s | 5.3°C | 87.6% | 796.5hPa | 2.6V | 08:03:13 | 01:59:17 | 00:00:00 | |
| DF5WG-10 | 2026-08-31 11:30:55 | 53.25602 | 8.39745 | 44° | 47km/h | 1995m | -7.1m/s | 5.3°C | 83.0% | 796.5hPa | 2.6V | 00:00:00 | 01:59:17 | 00:00:00 | |
| GOEST3-10 | 2026-08-31 11:30:55 | 53.25602 | 8.39745 | 44° | 47km/h | 1995m | -7.1m/s | 5.3°C | 83.0% | 796.5hPa | 2.7V | 00:00:00 | 00:00:00 | 00:00:00 | |
| DJ2DS-15 | 2026-08-31 11:30:55 | 53.25602 | 8.39745 | 44° | 47km/h | 1995m | -7.1m/s | 5.3°C | 83.0% | 796.5hPa | 2.7V | 00:00:00 | 01:59:17 | 00:00:00 | |
| DM0DOS-11 | 2026-08-31 11:30:51 | 53.25524 | 8.39619 | 42° | 47km/h | 2061m | -7.5m/s | 4.7°C | 85% | 790hPa | 2.7V | 08:03:05 | 01:59:08 | 00:00:00 | |
| BIOWL1-15 | 2026-08-31 11:30:48 | 53.25541 | 8.39646 | 43° | 47km/h | 2047m | -6.9m/s | 4.8°C | 89.3% | 791.4hPa | 2.6V | 08:03:13 | 01:59:10 | 00:00:00 | |
| DL1XH1-15 | 2026-08-31 11:30:47 | 53.25515 | 8.39606 | 43° | 47km/h | 2068m | -7.9m/s | 4.6°C | 85% | 789.3hPa | 2.7V | 08:03:06 | 01:59:07 | 00:00:00 | |
| DL1XH-west | 2026-08-31 11:30:47 | 53.25533 | 8.39633 | 43° | 46km/h | 2054m | -6.8m/s | 4.7°C | 89.1% | 790.7hPa | 2.7V | 08:03:13 | 01:59:09 | 00:00:00 | |
| DF4FW | 2026-08-31 11:30:47 | 53.25532 | 8.39633 | 44° | 47km/h | 2054m | -6.8m/s | 4.7°C | 84.0% | 790.7hPa | 2.7V | 00:00:00 | 00:00:00 | 00:00:00 | |
| DD8BA-10 | 2026-08-31 11:30:46 | 53.25524 | 8.39619 | 43° | 47km/h | 2061m | -7.5m/s | 4.6°C | 85.0% | 790.0hPa | 2.7V | 00:00:00 | 00:00:00 | 00:00:00 | |
| DF5WG-10 | 2026-08-31 11:30:43 | 53.25498 | 8.39579 | 43° | 47km/h | 2084m | -7.6m/s | 4.4°C | 85.5% | 787.6hPa | 2.7V | 00:00:00 | 01:59:05 | 00:00:00 | |
| DL1XH1-15 | 2026-08-31 11:30:41 | 53.25472 | 8.39539 | 43° | 46km/h | 2106m | -7m/s | 4.3°C | 87.4% | 785.7hPa | 2.7V | 08:03:11 | 01:59:02 | 00:00:00 | |
| DL1XH1-15 | 2026-08-31 11:30:41 | 53.25429 | 8.39470 | 43° | 47km/h | 2142m | -6.9m/s | 4.1°C | 87.2% | 782.2hPa | 2.6V | 08:03:16 | 01:58:57 | 00:00:00 | |
| DM0DOS-11 | 2026-08-31 11:30:39 | 53.25438 | 8.39484 | 43° | 47km/h | 2136m | -6.8m/s | 4.1°C | 87.8% | 782.8hPa | 2.7V | 08:03:15 | 01:58:58 | 00:00:00 | |
| BIOWL1-15 | 2026-08-31 11:30:38 | 53.25394 | 8.39415 | 43° | 47km/h | 2172m | -7.2m/s | 3.8°C | 91.2% | 779.4hPa | 2.7V | 08:04:04 | 01:58:53 | 00:00:00 | |
| DL1XH-west | 2026-08-31 11:30:37 | 53.25447 | 8.39498 | 43° | 47km/h | 2129m | -7.1m/s | 4.2°C | 91.7% | 783.6hPa | 2.7V | 08:04:04 | 01:58:59 | 00:00:00 | |
| DF5WG-10 | 2026-08-31 11:30:37 | 53.25447 | 8.39498 | 44° | 47km/h | 2129m | -7.1m/s | 4.1°C | 87.9% | 783.6hPa | 2.7V | 08:03:00 | 01:58:59 | 00:00:00 | |
| DD8BA-10 | 2026-08-31 11:30:36 | 53.25438 | 8.39484 | 44° | 47km/h | 2136m | -6.8m/s | 4.1°C | 87.8% | 782.8hPa | 2.7V | 00:00:00 | 00:00:00 | 00:00:00 | |
| DL1XH1-15 | 2026-08-31 11:30:35 | 53.25385 | 8.39401 | 43° | 47km/h | 2179m | -7.4m/s | 3.8°C | 87.2% | 778.7hPa | 2.7V | 08:03:21 | 01:58:52 | 00:00:00 | |
| BIOWL9-15 | 2026-08-31 11:30:34 | 53.25411 | 8.39443 | 44° | 47km/h | 2157m | -7.8m/s | 4.0°C | 85.7% | 780.7hPa | 2.7V | 00:00:00 | 00:00:00 | 00:00:00 | |
| DM0DOS-11 | 2026-08-31 11:30:32 | 53.25394 | 8.39415 | 43° | 47km/h | 2171m | -7.2m/s | 3.8°C | 87.6% | 779.4hPa | 2.7V | 08:03:20 | 01:58:53 | 00:00:00 | |
| GOEST3-10 | 2026-08-31 11:30:31 | 53.25394 | 8.39415 | 44° | 49km/h | 2172m | -7.1m/s | 3.8°C | 87.6% | 779.3hPa | 2.7V | 00:00:00 | 01:58:53 | 00:00:00 | |
| DL1XH1-15 | 2026-08-31 11:30:30 | 53.25341 | 8.39329 | 43° | 49km/h | 2215m | -7.2m/s | 3.6°C | 87% | 775.2hPa | 2.7V | 08:03:26 | 01:58:47 | 00:00:00 | |
| BIOWL1-15 | 2026-08-31 11:30:27 | 53.25341 | 8.39329 | 44° | 49km/h | 2215m | -7.2m/s | 3.6°C | 90.8% | 775.2hPa | 2.7V | 08:04:04 | 01:58:47 | 00:00:00 | |
| DL1XH-west | 2026-08-31 11:30:26 | 53.25350 | 8.39344 | 43° | 49km/h | 2208m | -7.2m/s | 3.7°C | 90.9% | 775.8hPa | 2.7V | 08:04:04 | 01:58:48 | 00:00:00 | |
| DD8BA-10 | 2026-08-31 11:30:26 | 53.25350 | 8.39344 | 44° | 51km/h | 2208m | -7.1m/s | 3.6°C | 87.0% | 775.8hPa | 2.6V | 00:00:00 | 00:00:00 | 00:00:00 | |
| DL1XH1-15 | 2026-08-31 11:30:25 | 53.25296 | 8.39254 | 45° | 51km/h | 2251m | -7.6m/s | 3.4°C | 88.1% | 771.5hPa | 2.6V | 08:03:31 | 01:58:42 | 00:00:00 | |
| DF5WG-10 | 2026-08-31 11:30:25 | 53.25340 | 8.39329 | 44° | 51km/h | 2215m | -7.1m/s | 3.6°C | 87.0% | 775.2hPa | 2.6V | 00:00:00 | 01:58:47 | 00:00:00 | |
| DM0DOS-11 | 2026-08-31 11:30:22 | 53.25305 | 8.39269 | 44° | 51km/h | 2244m | -7.1m/s | 3.4°C | 87.9% | 772.4hPa | 2.6V | 08:03:30 | 01:58:43 | 00:00:00 | |
| GOEST3-10 | 2026-08-31 11:30:21 | 53.25305 | 8.39269 | 45° | 51km/h | 2244m | -7.1m/s | 3.4°C | 87.9% | 772.4hPa | 2.6V | 08:03:00 | 00:00:00 | 00:00:00 | |
| DL1LOL-11 | 2026-08-31 11:30:19 | 53.25287 | 8.39239 | 48° | 49km/h | 2259m | -7.1m/s | 3.3°C | 87.2% | 771.0hPa | 2.7V | 00:00:00 | 00:00:00 | 00:00:00 | |
| DL1XH1-15 | 2026-08-31 11:30:17 | 53.25251 | 8.39177 | 45° | 51km/h | 2287m | -7.3m/s | 3.2°C | 86.4% | 768.1hPa | 2.7V | 08:03:36 | 01:58:37 | 00:00:00 | |
| DM0DOS-11 | 2026-08-31 11:30:17 | 53.25260 | 8.39193 | 46° | 51km/h | 2280m | -7.6m/s | 3.3°C | 86.8% | 768.9hPa | 2.7V | 08:03:35 | 01:58:38 | 00:00:00 | |
| DL1XH-west | 2026-08-31 11:30:16 | 53.25260 | 8.39193 | 47° | 51km/h | 2280m | -7.6m/s | 3.3°C | 90.6% | 768.9hPa | 2.7V | 08:04:04 | 01:58:38 | 00:00:00 | |
| BIOWL1-15 | 2026-08-31 11:30:14 | 53.25205 | 8.39100 | 45° | 51km/h | 2324m | -7.8m/s | 2.9°C | 89.5% | 764.8hPa | 2.7V | 08:04:04 | 01:58:32 | 00:00:00 | |
| DF5WG-10 | 2026-08-31 11:30:13 | 53.25232 | 8.39146 | 45° | 51km/h | 2302m | -7.2m/s | 3.1°C | 86.6% | 766.7hPa | 2.7V | 00:00:00 | 01:58:35 | 00:00:00 | |
| DL1XH1-15 | 2026-08-31 11:30:11 | 53.25205 | 8.39100 | 44° | 51km/h | 2324m | -7.8m/s | 3°C | 86.3% | 764.8hPa | 2.7V | 08:03:41 | 01:58:32 | 00:00:00 | |
| GOEST3-10 | 2026-08-31 11:30:11 | 53.25214 | 8.39115 | 47° | 53km/h | 2316m | -7.5m/s | 2.9°C | 86.4% | 765.2hPa | 2.6V | 00:00:00 | 01:58:33 | 00:00:00 | |
| DJ2DS-15 | 2026-08-31 11:30:09 | 53.25196 | 8.39084 | 48° | 53km/h | 2332m | -8.0m/s | 2.8°C | 86.4% | 763.9hPa | 2.6V | 00:00:00 | 01:58:31 | 00:00:00 | |
| DM0DOS-11 | 2026-08-31 11:30:07 | 53.25169 | 8.39036 | 46° | 53km/h | 2355m | -7.4m/s | 2.7°C | 86.7% | 761.8hPa | 2.6V | 08:03:45 | 01:58:28 | 00:00:00 | |
| DL1XH-west | 2026-08-31 11:30:06 | 53.25169 | 8.39036 | 47° | 53km/h | 2355m | -7.4m/s | 2.7°C | 89.8% | 761.8hPa | 2.6V | 08:04:04 | 01:58:28 | 00:00:00 | |
| DD8BA-10 | 2026-08-31 11:30:06 | 53.25169 | 8.39036 | 47° | 53km/h | 2355m | -7.3m/s | 2.7°C | 86.7% | 761.8hPa | 2.6V | 08:03:00 | 00:00:00 | 00:00:00 | |
| DL1XH1-15 | 2026-08-31 11:30:05 | 53.25115 | 8.38938 | 48° | 53km/h | 2402m | -8m/s | 2.3°C | 87.9% | 757.4hPa | 2.6V | 08:03:51 | 01:58:22 | 00:00:00 | |
| BIOWL1-15 | 2026-08-31 11:30:04 | 53.25133 | 8.38971 | 47° | 53km/h | 2387m | -7.9m/s | 2.5°C | 90.4% | 758.8hPa | 2.7V | 08:04:04 | 01:58:24 | 00:00:00 | |
| BIOWL9-15 | 2026-08-31 11:30:03 | 53.25133 | 8.38971 | 46° | 51km/h | 2386m | -7.9m/s | 2.5°C | 86.4% | 758.8hPa | 2.7V | 00:00:00 | 00:00:00 | 00:00:00 | |
| DL1XH1-15 | 2026-08-31 11:29:58 | 53.25069 | 8.38855 | 47° | 55km/h | 2439m | -7.9m/s | 2°C | 88.3% | 753.9hPa | 2.7V | 08:03:56 | 01:58:17 | 00:00:00 | |
| DM0DOS-11 | 2026-08-31 11:29:57 | 53.25078 | 8.38871 | 46° | 55km/h | 2432m | -7.5m/s | 2.1°C | 88.3% | 754.6hPa | 2.7V | 08:03:55 | 01:58:18 | 00:00:00 | |
| DL1XH-west | 2026-08-31 11:29:55 | 53.25069 | 8.38855 | 48° | 55km/h | 2439m | -7.9m/s | 2.1°C | 91.4% | 753.9hPa | 2.7V | 08:04:04 | 01:58:17 | 00:00:00 | |
| BIOWL1-15 | 2026-08-31 11:29:51 | 53.25011 | 8.38752 | 47° | 57km/h | 2486m | -8m/s | 2.1°C | 86% | 749.6hPa | 2.7V | 08:04:04 | 01:58:11 | 00:00:00 | |
| DL1XH1-15 | 2026-08-31 11:29:51 | 53.25021 | 8.38770 | 47° | 57km/h | 2478m | -8m/s | 2.1°C | 83.5% | 750.3hPa | 2.7V | 08:04:01 | 01:58:12 | 00:00:00 | |
| GOEST3-10 | 2026-08-31 11:29:51 | 53.25030 | 8.38787 | 47° | 58km/h | 2470m | -7.8m/s | 2.1°C | 83.9% | 751.0hPa | 2.7V | 00:00:00 | 01:58:13 | 00:00:00 | |
| DJ2DS-15 | 2026-08-31 11:29:49 | 53.25011 | 8.38752 | 48° | 58km/h | 2486m | -8.0m/s | 2.1°C | 81.8% | 749.5hPa | 2.7V | 00:00:00 | 01:58:11 | 00:00:00 | |
| BIOWL7-15 | 2026-08-31 11:29:48 | 53.25011 | 8.38752 | 48° | 57km/h | 2486m | -8.0m/s | 2.1°C | 80.7% | 749.6hPa | 2.7V | 00:00:00 | 00:00:00 | 00:00:00 | |
| DM0DOS-11 | 2026-08-31 11:29:47 | 53.24981 | 8.38699 | 47° | 58km/h | 2509m | -8.2m/s | 2.1°C | 78% | 747.4hPa | 2.7V | 08:04:05 | 01:58:08 | 00:00:00 | |
| DL1XH1-15 | 2026-08-31 11:29:45 | 53.24971 | 8.38681 | 46° | 58km/h | 2516m | -8m/s | 2.1°C | 77.6% | 746.8hPa | 2.7V | 08:04:06 | 01:58:07 | 00:00:00 | |
| DL1XH1-15 | 2026-08-31 11:29:45 | 53.24920 | 8.38591 | 44° | 58km/h | 2556m | -7.7m/s | 1.9°C | 78.3% | 743hPa | 2.6V | 08:04:11 | 01:58:02 | 00:00:00 | |
| DL1XH-west | 2026-08-31 11:29:45 | 53.24971 | 8.38681 | 47° | 58km/h | 2516m | -8m/s | 2.1°C | 82.5% | 746.8hPa | 2.7V | 08:04:55 | 01:58:07 | 00:00:00 | |
| BIOWL1-15 | 2026-08-31 11:29:43 | 53.24931 | 8.38609 | 47° | 57km/h | 2548m | -7.5m/s | 1.9°C | 83.1% | 743.8hPa | 2.6V | 08:04:55 | 01:58:03 | 00:00:00 | |
| DF5WG-10 | 2026-08-31 11:29:43 | 53.24951 | 8.38645 | 47° | 58km/h | 2533m | -7.8m/s | 2.0°C | 77.4% | 745.1hPa | 2.7V | 08:04:00 | 01:58:05 | 00:00:00 | |
| GOEST3-10 | 2026-08-31 11:29:41 | 53.24930 | 8.38609 | 47° | 58km/h | 2549m | -7.5m/s | 1.9°C | 77.9% | 743.7hPa | 2.7V | 00:00:00 | 00:00:00 | 00:00:00 | |
| DM0DOS-11 | 2026-08-31 11:29:37 | 53.24879 | 8.38520 | 47° | 58km/h | 2588m | -8.1m/s | 1.5°C | 79.8% | 740.1hPa | 2.7V | 08:04:15 | 01:57:58 | 00:00:00 | |
| DL1XH1-15 | 2026-08-31 11:29:37 | 53.24869 | 8.38501 | 47° | 60km/h | 2596m | -8.7m/s | 1.5°C | 80% | 739.4hPa | 2.6V | 08:04:16 | 01:57:57 | 00:00:00 | |
| DF5WG-10 | 2026-08-31 11:29:37 | 53.24890 | 8.38538 | 46° | 60km/h | 2580m | -8.1m/s | 1.6°C | 79.5% | 740.7hPa | 2.6V | 00:00:00 | 01:57:59 | 00:00:00 | |
| DL1XH-15 | 2026-08-31 11:29:36 | 53.24859 | 8.38483 | 46° | 60km/h | 2605m | -8.2m/s | 1.4°C | 80.5% | 738.6hPa | 2.6V | 08:04:17 | 01:57:56 | 00:00:00 | |
| HTAHTA | 2026-08-31 11:29:35 | 53.24869 | 8.38501 | 47° | 58km/h | 2596m | -8.7m/s | 1.5°C | 78.8% | 739.4hPa | 2.7V | 00:00:00 | 00:00:00 | 00:00:00 | |
| DL1XH-west | 2026-08-31 11:29:35 | 53.24869 | 8.38501 | 48° | 60km/h | 2597m | -8.7m/s | 1.5°C | 84.2% | 739.4hPa | 2.6V | 08:04:55 | 01:57:57 | 00:00:00 | |
| DM0DOS-11 | 2026-08-31 11:29:32 | 53.24828 | 8.38427 | 48° | 58km/h | 2628m | -7.4m/s | 1.1°C | 81.5% | 736.5hPa | 2.7V | 08:04:20 | 01:57:53 | 00:00:00 | |
| BIOWL1-15 | 2026-08-31 11:29:31 | 53.24797 | 8.38371 | 49° | 60km/h | 2650m | -8.1m/s | 1°C | 86.6% | 734.3hPa | 2.6V | 08:04:55 | 01:57:50 | 00:00:00 | |
| DL1CLM-18 | 2026-08-31 11:29:30 | 53.24828 | 8.38427 | 49° | 58km/h | 2628m | -7.4m/s | 1.2°C | 80.2% | 736.5hPa | 2.7V | 00:00:00 | 00:00:00 | 00:00:00 | |
| DL1XH-15 | 2026-08-31 11:29:29 | 53.24808 | 8.38390 | 46° | 60km/h | 2643m | -7.9m/s | 1°C | 82.4% | 735hPa | 2.7V | 08:04:22 | 01:57:51 | 00:00:00 | |
| DL1XH-15 | 2026-08-31 11:29:29 | 53.24746 | 8.38277 | 47° | 62km/h | 2690m | -7.9m/s | 0.6°C | 84% | 730.7hPa | 2.7V | 08:04:28 | 01:57:45 | 00:00:00 | |
| DJ2DS-15 | 2026-08-31 11:29:29 | 53.24808 | 8.38390 | 47° | 62km/h | 2643m | -7.8m/s | 1.0°C | 82.4% | 735.0hPa | 2.7V | 00:00:00 | 01:57:51 | 00:00:00 | |
| DM0DOS-11 | 2026-08-31 11:29:26 | 53.24777 | 8.38333 | 46° | 60km/h | 2667m | -7.8m/s | 0.8°C | 83.5% | 732.9hPa | 2.7V | 08:04:25 | 01:57:48 | 00:00:00 | |
| DL1XH1-15 | 2026-08-31 11:29:26 | 53.24767 | 8.38315 | 47° | 60km/h | 2674m | -7.4m/s | 0.8°C | 84% | 732.1hPa | 2.7V | 08:04:26 | 01:57:47 | 00:00:00 | |
| DL1XH1-15 | 2026-08-31 11:29:26 | 53.24714 | 8.38219 | 48° | 62km/h | 2712m | -7.6m/s | 0.4°C | 84.8% | 728.7hPa | 2.7V | 08:04:31 | 01:57:42 | 00:00:00 | |
| DL1XH-west | 2026-08-31 11:29:25 | 53.24766 | 8.38315 | 47° | 60km/h | 2674m | -7.4m/s | 0.8°C | 87% | 732.1hPa | 2.7V | 08:04:55 | 01:57:47 | 00:00:00 | |
| DM0DOS-11 | 2026-08-31 11:29:21 | 53.24662 | 8.38121 | 48° | 62km/h | 2749m | -7.1m/s | 0.1°C | 86.7% | 725.3hPa | 2.6V | 08:04:36 | 01:57:37 | 00:00:00 | |
| BIOWL1-15 | 2026-08-31 11:29:17 | 53.24683 | 8.38160 | 48° | 62km/h | 2734m | -7m/s | 0.3°C | 87.4% | 726.7hPa | 2.7V | 08:04:55 | 01:57:39 | 00:00:00 | |
| DL1XH1-15 | 2026-08-31 11:29:16 | 53.24662 | 8.38121 | 48° | 62km/h | 2749m | -7.1m/s | 0.1°C | 86.7% | 725.3hPa | 2.6V | 08:04:36 | 01:57:37 | 00:00:00 | |
| DM0DOS-11 | 2026-08-31 11:29:16 | 53.24610 | 8.38024 | 49° | 60km/h | 2786m | -7.5m/s | 0.1°C | 84.5% | 722hPa | 2.6V | 08:04:41 | 01:57:32 | 00:00:00 | |
| DL1XH-west | 2026-08-31 11:29:14 | 53.24651 | 8.38102 | 47° | 62km/h | 2756m | -7.4m/s | 0.1°C | 88.7% | 724.6hPa | 2.7V | 08:04:55 | 01:57:36 | 00:00:00 | |
| DL1XH-15 | 2026-08-31 11:29:13 | 53.24641 | 8.38083 | 48° | 62km/h | 2763m | -7.3m/s | 0°C | 87.3% | 724hPa | 2.7V | 08:04:38 | 01:57:35 | 00:00:00 | |
| DF5WG-10 | 2026-08-31 11:29:13 | 53.24640 | 8.38083 | 49° | 62km/h | 2764m | -7.3m/s | 0.0°C | 87.3% | 723.9hPa | 2.7V | 00:00:00 | 01:57:35 | 00:00:00 | |
| GOEST3-10 | 2026-08-31 11:29:11 | 53.24620 | 8.38044 | 50° | 60km/h | 2779m | -7.8m/s | -0.0°C | 87.2% | 722.5hPa | 2.7V | 00:00:00 | 01:57:33 | 00:00:00 | |
| DL1XH-15 | 2026-08-31 11:29:08 | 53.24590 | 8.37985 | 50° | 60km/h | 2801m | -7.8m/s | 0.4°C | 79.5% | 720.6hPa | 2.7V | 08:04:43 | 01:57:30 | 00:00:00 | |
| DL1XH-15 | 2026-08-31 11:29:08 | 53.24532 | 8.37868 | 51° | 60km/h | 2848m | -7.6m/s | 0.2°C | 77.6% | 716.5hPa | 2.7V | 08:04:49 | 01:57:24 | 00:00:00 | |
| DL1XH1-15 | 2026-08-31 11:29:08 | 53.24561 | 8.37926 | 50° | 60km/h | 2825m | -8.2m/s | 0.3°C | 78.5% | 718.6hPa | 2.7V | 08:04:46 | 01:57:27 | 00:00:00 | |
| BIOWL1-15 | 2026-08-31 11:29:06 | 53.24561 | 8.37926 | 51° | 60km/h | 2825m | -8.2m/s | 0.3°C | 83% | 718.6hPa | 2.7V | 08:04:55 | 01:57:27 | 00:00:00 | |
| DD8BA-10 | 2026-08-31 11:29:05 | 53.24561 | 8.37926 | 51° | 58km/h | 2825m | -8.1m/s | 0.3°C | 78.5% | 718.5hPa | 2.7V | 00:00:00 | 00:00:00 | 00:00:00 | |
| DM0DOS-11 | 2026-08-31 11:29:04 | 53.24504 | 8.37809 | 52° | 58km/h | 2872m | -8.3m/s | 0.2°C | 73.5% | 714.4hPa | 2.7V | 08:04:52 | 01:57:21 | 00:00:00 | |
| DL1XH-west | 2026-08-31 11:29:04 | 53.24532 | 8.37868 | 52° | 60km/h | 2848m | -7.6m/s | 0.2°C | 81.8% | 716.5hPa | 2.7V | 08:04:55 | 01:57:24 | 00:00:00 | |
| DL1XH-15 | 2026-08-31 11:29:03 | 53.24487 | 8.37770 | 51° | 58km/h | 2887m | -8.1m/s | 0.1°C | 71.3% | 713hPa | 2.6V | 08:04:54 | 01:57:19 | 00:00:00 | |
| BIOWL9-15 | 2026-08-31 11:29:01 | 53.24514 | 8.37829 | 50° | 58km/h | 2863m | -8.0m/s | 0.2°C | 72.3% | 715.1hPa | 2.7V | 00:00:00 | 00:00:00 | 00:00:00 | |
| DM0DOS-11 | 2026-08-31 11:28:59 | 53.24460 | 8.37712 | 53° | 58km/h | 2912m | -8.2m/s | -0.1°C | 71.4% | 710.9hPa | 2.7V | 08:04:57 | 01:57:16 | 00:00:00 | |
| DL1XH-15 | 2026-08-31 11:28:55 | 53.24443 | 8.37673 | 53° | 58km/h | 2927m | -7.3m/s | -0.2°C | 72.4% | 709.5hPa | 2.6V | 08:04:59 | 01:57:14 | 00:00:00 | |
| DL1XH1-15 | 2026-08-31 11:28:55 | 53.24469 | 8.37732 | 53° | 57km/h | 2904m | -8m/s | -0°C | 71.2% | 711.6hPa | 2.7V | 08:04:56 | 01:57:17 | 00:00:00 | |
| BIOWL1-15 | 2026-08-31 11:28:55 | 53.24469 | 8.37732 | 54° | 57km/h | 2904m | -8m/s | -0°C | 76% | 711.6hPa | 2.7V | 08:05:46 | 01:57:17 | 00:00:00 | |
| DM0DOS-11 | 2026-08-31 11:28:54 | 53.24417 | 8.37614 | 53° | 58km/h | 2950m | -7.9m/s | -0.4°C | 73.3% | 707.4hPa | 2.7V | 08:05:02 | 01:57:11 | 00:00:00 | |
| DL1XH-west | 2026-08-31 11:28:51 | 53.24434 | 8.37654 | 53° | 58km/h | 2935m | -7.7m/s | -0.3°C | 77.4% | 708.8hPa | 2.6V | 08:05:46 | 01:57:13 | 00:00:00 | |
| GOEST3-10 | 2026-08-31 11:28:51 | 53.24434 | 8.37653 | 53° | 57km/h | 2935m | -7.7m/s | -0.2°C | 72.9% | 708.8hPa | 2.6V | 08:05:00 | 01:57:13 | 00:00:00 | |
| DL1XH-15 | 2026-08-31 11:28:49 | 53.24400 | 8.37575 | 53° | 57km/h | 2966m | -7.9m/s | -0.6°C | 73.9% | 706.1hPa | 2.6V | 08:05:04 | 01:57:09 | 00:00:00 | |
| DM0DOS-11 | 2026-08-31 11:28:49 | 53.24365 | 8.37500 | 53° | 57km/h | 2996m | -8m/s | -0.8°C | 75.1% | 703.3hPa | 2.7V | 08:05:08 | 01:57:05 | 00:00:00 | |
| DJ2DS-15 | 2026-08-31 11:28:49 | 53.24417 | 8.37614 | 54° | 55km/h | 2950m | -7.9m/s | -0.4°C | 73.3% | 707.4hPa | 2.6V | 00:00:00 | 01:57:11 | 00:00:00 | |
| DL1XH1-15 | 2026-08-31 11:28:45 | 53.24382 | 8.37537 | 52° | 57km/h | 2981m | -7.4m/s | -0.7°C | 74.5% | 704.6hPa | 2.6V | 08:05:06 | 01:57:07 | 00:00:00 | |
| DL1XH1-15 | 2026-08-31 11:28:45 | 53.24340 | 8.37443 | 53° | 55km/h | 3020m | -7.4m/s | -1°C | 75.9% | 701.2hPa | 2.6V | 08:05:11 | 01:57:02 | 00:00:00 | |
| BIOWL1-15 | 2026-08-31 11:28:45 | 53.24374 | 8.37518 | 52° | 57km/h | 2989m | -7.5m/s | -0.8°C | 79.1% | 704hPa | 2.7V | 08:05:46 | 01:57:06 | 00:00:00 | |
| DD8BA-10 | 2026-08-31 11:28:45 | 53.24382 | 8.37537 | 53° | 55km/h | 2982m | -7.3m/s | -0.7°C | 74.5% | 704.6hPa | 2.7V | 00:00:00 | 00:00:00 | 00:00:00 | |
| DL1XH-15 | 2026-08-31 11:28:44 | 53.24357 | 8.37481 | 52° | 57km/h | 3004m | -7.6m/s | -0.9°C | 75.4% | 702.6hPa | 2.7V | 08:05:09 | 01:57:04 | 00:00:00 | |
| DM0DOS-11 | 2026-08-31 11:28:44 | 53.24324 | 8.37405 | 52° | 55km/h | 3035m | -8m/s | -1.1°C | 76% | 699.9hPa | 2.7V | 08:05:13 | 01:57:00 | 00:00:00 | |
| DL1XH-west | 2026-08-31 11:28:40 | 53.24340 | 8.37443 | 53° | 55km/h | 3020m | -7.4m/s | -1°C | 79.9% | 701.2hPa | 2.6V | 08:05:46 | 01:57:02 | 00:00:00 | |
| DM0DOS-11 | 2026-08-31 11:28:38 | 53.24282 | 8.37313 | 52° | 55km/h | 3075m | -7.7m/s | -1.4°C | 74.3% | 696.6hPa | 2.6V | 08:05:18 | 01:56:55 | 00:00:00 | |
| DL1XH-15 | 2026-08-31 11:28:37 | 53.24315 | 8.37386 | 54° | 55km/h | 3043m | -8.1m/s | -1.2°C | 76% | 699.2hPa | 2.7V | 08:05:14 | 01:56:59 | 00:00:00 | |
| DL1XH-15 | 2026-08-31 11:28:37 | 53.24265 | 8.37277 | 51° | 53km/h | 3090m | -8m/s | -1.5°C | 75% | 695.1hPa | 2.7V | 08:05:20 | 01:56:53 | 00:00:00 | |
| DF5WG-10 | 2026-08-31 11:28:37 | 53.24315 | 8.37386 | 55° | 55km/h | 3043m | -8.0m/s | -1.2°C | 76.0% | 699.2hPa | 2.6V | 00:00:00 | 01:56:59 | 00:00:00 | |
| DL1XH1-15 | 2026-08-31 11:28:35 | 53.24299 | 8.37349 | 52° | 55km/h | 3059m | -8.1m/s | -1.3°C | 76.1% | 697.9hPa | 2.6V | 08:05:16 | 01:56:57 | 00:00:00 | |
| DL1XH1-15 | 2026-08-31 11:28:35 | 53.24257 | 8.37259 | 50° | 53km/h | 3098m | -7.6m/s | -1.6°C | 75.2% | 694.4hPa | 2.6V | 08:05:21 | 01:56:52 | 00:00:00 | |
| BIOWL1-15 | 2026-08-31 11:28:34 | 53.24290 | 8.37331 | 52° | 55km/h | 3067m | -7.7m/s | -1.3°C | 78.1% | 697.2hPa | 2.6V | 08:05:46 | 01:56:56 | 00:00:00 | |
| DM0DOS-11 | 2026-08-31 11:28:33 | 53.24240 | 8.37223 | 51° | 55km/h | 3114m | -7.5m/s | -1.8°C | 75.8% | 693.2hPa | 2.6V | 08:05:23 | 01:56:50 | 00:00:00 | |
| HTAHTA | 2026-08-31 11:28:33 | 53.24274 | 8.37295 | 53° | 53km/h | 3082m | -7.7m/s | -1.5°C | 73.3% | 695.9hPa | 2.7V | 00:00:00 | 00:00:00 | 00:00:00 | |
| DL1XH-15 | 2026-08-31 11:28:32 | 53.24223 | 8.37188 | 52° | 53km/h | 3129m | -7.8m/s | -1.9°C | 76.5% | 691.7hPa | 2.7V | 08:05:25 | 01:56:48 | 00:00:00 | |
| DL1XH-west | 2026-08-31 11:28:30 | 53.24257 | 8.37259 | 50° | 53km/h | 3098m | -7.6m/s | -1.6°C | 79% | 694.4hPa | 2.6V | 08:05:46 | 01:56:52 | 00:00:00 | |
| BIOWL9-15 | 2026-08-31 11:28:30 | 53.24248 | 8.37242 | 52° | 53km/h | 3106m | -8.2m/s | -1.7°C | 74.0% | 693.8hPa | 2.6V | 00:00:00 | 00:00:00 | 00:00:00 | |
| DJ2DS-15 | 2026-08-31 11:28:29 | 53.24248 | 8.37242 | 53° | 55km/h | 3106m | -8.2m/s | -1.6°C | 75.4% | 693.7hPa | 2.6V | 00:00:00 | 01:56:51 | 00:00:00 | |
| DM0DOS-11 | 2026-08-31 11:28:28 | 53.24198 | 8.37135 | 50° | 53km/h | 3154m | -8m/s | -2.1°C | 78.1% | 689.6hPa | 2.6V | 08:05:28 | 01:56:45 | 00:00:00 | |
| DF5WG-10 | 2026-08-31 11:28:27 | 53.24232 | 8.37206 | 54° | 53km/h | 3121m | -8.0m/s | -1.8°C | 76.1% | 692.3hPa | 2.6V | 00:00:00 | 01:56:49 | 00:00:00 | |
| GOEST3-10 | 2026-08-31 11:28:26 | 53.24223 | 8.37188 | 53° | 53km/h | 3129m | -7.7m/s | -1.8°C | 76.5% | 691.7hPa | 2.6V | 00:00:00 | 01:56:48 | 00:00:00 | |
| DL1XH-15 | 2026-08-31 11:28:25 | 53.24181 | 8.37100 | 50° | 53km/h | 3170m | -8.2m/s | -2.2°C | 78.7% | 688.2hPa | 2.6V | 08:05:30 | 01:56:43 | 00:00:00 | |
| BIOWL1-15 | 2026-08-31 11:28:23 | 53.24198 | 8.37135 | 50° | 53km/h | 3154m | -8m/s | -2.1°C | 81.1% | 689.6hPa | 2.6V | 08:05:46 | 01:56:45 | 00:00:00 | |
| DL1XH1-15 | 2026-08-31 11:28:22 | 53.24172 | 8.37083 | 51° | 55km/h | 3178m | -8.6m/s | -2.2°C | 78.9% | 687.6hPa | 2.6V | 08:05:31 | 01:56:42 | 00:00:00 | |
| DL1XH-west | 2026-08-31 11:28:20 | 53.24172 | 8.37083 | 52° | 55km/h | 3178m | -8.6m/s | -2.2°C | 81.8% | 687.6hPa | 2.6V | 08:05:46 | 01:56:42 | 00:00:00 | |
| DL1XH-15 | 2026-08-31 11:28:19 | 53.24138 | 8.37012 | 52° | 55km/h | 3211m | -8.2m/s | -2.2°C | 76.4% | 684.8hPa | 2.6V | 08:05:35 | 01:56:38 | 00:00:00 | |
| DM0DOS-11 | 2026-08-31 11:28:18 | 53.24113 | 8.36956 | 53° | 57km/h | 3235m | -8.6m/s | -2.5°C | 76.8% | 682.7hPa | 2.6V | 08:05:38 | 01:56:35 | 00:00:00 | |
| DL1XH1-15 | 2026-08-31 11:28:17 | 53.24129 | 8.36994 | 52° | 55km/h | 3219m | -7.8m/s | -2.3°C | 76.3% | 684hPa | 2.7V | 08:05:36 | 01:56:37 | 00:00:00 | |
| DF5WG-10 | 2026-08-31 11:28:17 | 53.24147 | 8.37030 | 51° | 57km/h | 3203m | -8.0m/s | -2.1°C | 76.0% | 685.3hPa | 2.6V | 00:00:00 | 01:56:39 | 00:00:00 | |
| GOEST3-10 | 2026-08-31 11:28:16 | 53.24138 | 8.37012 | 53° | 55km/h | 3211m | -8.2m/s | -2.2°C | 76.4% | 684.7hPa | 2.6V | 00:00:00 | 01:56:38 | 00:00:00 | |
| DD8BA-10 | 2026-08-31 11:28:15 | 53.24130 | 8.36993 | 53° | 57km/h | 3219m | -7.7m/s | -2.3°C | 76.3% | 684.0hPa | 2.6V | 00:00:00 | 00:00:00 | 00:00:00 | |
| BIOWL1-15 | 2026-08-31 11:28:15 | 53.24096 | 8.36918 | 52° | 57km/h | 3252m | -8.4m/s | -2.4°C | 77.6% | 681.2hPa | 2.6V | 08:05:46 | 01:56:33 | 00:00:00 | |
| DL1XH-15 | 2026-08-31 11:28:14 | 53.24096 | 8.36918 | 52° | 57km/h | 3252m | -8.4m/s | -2.4°C | 73.5% | 681.2hPa | 2.6V | 08:05:40 | 01:56:33 | 00:00:00 | |
| DF4FW | 2026-08-31 11:28:14 | 53.24121 | 8.36975 | 55° | 55km/h | 3227m | -7.9m/s | -2.4°C | 74.6% | 683.3hPa | 2.7V | 08:05:00 | 00:00:00 | 00:00:00 | |
| DM0DOS-11 | 2026-08-31 11:28:13 | 53.24069 | 8.36862 | 52° | 57km/h | 3276m | -8.3m/s | -2.3°C | 66.2% | 679.1hPa | 2.7V | 08:05:43 | 01:56:30 | 00:00:00 | |
| DL1XH1-15 | 2026-08-31 11:28:12 | 53.24087 | 8.36899 | 52° | 57km/h | 3260m | -8.2m/s | -2.2°C | 68.4% | 680.6hPa | 2.6V | 08:05:41 | 01:56:32 | 00:00:00 | |
| DL1XH-west | 2026-08-31 11:28:10 | 53.24078 | 8.36881 | 51° | 57km/h | 3268m | -8.1m/s | -2.2°C | 72.6% | 679.8hPa | 2.7V | 08:05:46 | 01:56:31 | 00:00:00 | |
| DJ2DS-15 | 2026-08-31 11:28:09 | 53.24078 | 8.36880 | 51° | 57km/h | 3268m | -8.0m/s | -2.2°C | 67.3% | 679.8hPa | 2.6V | 00:00:00 | 01:56:31 | 00:00:00 | |
| DL1XH-15 | 2026-08-31 11:28:06 | 53.24051 | 8.36824 | 53° | 58km/h | 3292m | -8.3m/s | -2.4°C | 67.1% | 677.8hPa | 2.6V | 08:05:45 | 01:56:28 | 00:00:00 | |
| DL1XH-15 | 2026-08-31 11:28:06 | 53.24006 | 8.36727 | 53° | 57km/h | 3334m | -8m/s | -2.7°C | 71.9% | 674.2hPa | 2.6V | 08:05:50 | 01:56:23 | 00:00:00 | |
| DL1XH1-15 | 2026-08-31 11:28:05 | 53.24043 | 8.36805 | 53° | 57km/h | 3301m | -8.5m/s | -2.5°C | 67.8% | 676.9hPa | 2.6V | 08:05:46 | 01:56:27 | 00:00:00 | |
| DL1XH1-15 | 2026-08-31 11:28:05 | 53.23997 | 8.36708 | 53° | 57km/h | 3342m | -7.8m/s | -2.8°C | 72.5% | 673.6hPa | 2.6V | 08:05:51 | 01:56:22 | 00:00:00 | |
| DM0DOS-11 | 2026-08-31 11:28:02 | 53.23980 | 8.36670 | 53° | 57km/h | 3358m | -8.2m/s | -2.9°C | 73.5% | 672.1hPa | 2.7V | 08:05:53 | 01:56:20 | 00:00:00 | |
| BIOWL1-15 | 2026-08-31 11:28:02 | 53.24015 | 8.36747 | 52° | 58km/h | 3326m | -8m/s | -2.6°C | 74.5% | 674.9hPa | 2.7V | 08:06:37 | 01:56:24 | 00:00:00 | |
| DL1XH-west | 2026-08-31 11:27:59 | 53.23980 | 8.36670 | 53° | 57km/h | 3358m | -8.2m/s | -2.9°C | 78.7% | 672.1hPa | 2.7V | 08:06:37 | 01:56:20 | 00:00:00 | |
| BIOWL9-15 | 2026-08-31 11:27:59 | 53.23980 | 8.36670 | 53° | 57km/h | 3358m | -8.2m/s | -2.9°C | 72.0% | 672.1hPa | 2.6V | 00:00:00 | 00:00:00 | 00:00:00 | |
| DL1XH1-15 | 2026-08-31 11:27:57 | 53.23954 | 8.36612 | 53° | 58km/h | 3383m | -8.6m/s | -3.1°C | 74.8% | 670.1hPa | 2.6V | 08:05:56 | 01:56:17 | 00:00:00 | |
| DF5WG-10 | 2026-08-31 11:27:57 | 53.23971 | 8.36651 | 54° | 57km/h | 3366m | -8.3m/s | -2.9°C | 73.8% | 671.5hPa | 2.7V | 00:00:00 | 01:56:19 | 00:00:00 | |
| DM0DOS-11 | 2026-08-31 11:27:56 | 53.23927 | 8.36554 | 52° | 57km/h | 3409m | -8.6m/s | -3.3°C | 75.7% | 667.9hPa | 2.6V | 08:05:59 | 01:56:14 | 00:00:00 | |
| GOEST3-10 | 2026-08-31 11:27:56 | 53.23963 | 8.36631 | 54° | 58km/h | 3374m | -8.5m/s | -3.0°C | 74.4% | 670.7hPa | 2.7V | 00:00:00 | 01:56:18 | 00:00:00 | |
| DL1XH-15 | 2026-08-31 11:27:55 | 53.23918 | 8.36535 | 50° | 58km/h | 3417m | -9m/s | -3.4°C | 76.2% | 667.2hPa | 2.7V | 08:06:00 | 01:56:13 | 00:00:00 | |
| BIOWL1-15 | 2026-08-31 11:27:52 | 53.23918 | 8.36535 | 50° | 58km/h | 3417m | -9m/s | -3.4°C | 81.2% | 667.2hPa | 2.7V | 08:06:37 | 01:56:13 | 00:00:00 | |
| DL1XH1-15 | 2026-08-31 11:27:51 | 53.23909 | 8.36516 | 52° | 58km/h | 3426m | -8.9m/s | -3.5°C | 76.1% | 666.5hPa | 2.6V | 08:06:01 | 01:56:12 | 00:00:00 | |
| GOEST3-10 | 2026-08-31 11:27:51 | 53.23918 | 8.36535 | 51° | 57km/h | 3417m | -8.9m/s | -3.4°C | 76.2% | 667.1hPa | 2.6V | 00:00:00 | 00:00:00 | 00:00:00 | |
| SMARD9-10 | 2026-08-31 11:27:50 | 53.23918 | 8.36535 | 51° | 58km/h | 3417m | -9.0m/s | -3.4°C | 74.6% | 667.2hPa | 2.6V | 00:00:00 | 00:00:00 | 00:00:00 | |
| DL1XH-15 | 2026-08-31 11:27:49 | 53.23873 | 8.36442 | 52° | 55km/h | 3460m | -8.6m/s | -3.8°C | 76.6% | 663.7hPa | 2.6V | 08:06:05 | 01:56:08 | 00:00:00 | |
| DJ2DS-15 | 2026-08-31 11:27:49 | 53.23900 | 8.36497 | 53° | 57km/h | 3435m | -8.5m/s | -3.5°C | 76.7% | 665.7hPa | 2.6V | 00:00:00 | 01:56:11 | 00:00:00 | |
| DM0DOS-11 | 2026-08-31 11:27:48 | 53.23882 | 8.36460 | 50° | 57km/h | 3451m | -8.2m/s | -3.7°C | 76.4% | 664.3hPa | 2.6V | 08:06:04 | 01:56:09 | 00:00:00 | |
| DL1XH-west | 2026-08-31 11:27:47 | 53.23882 | 8.36460 | 51° | 57km/h | 3451m | -8.3m/s | -3.7°C | 81.1% | 664.3hPa | 2.6V | 08:06:37 | 01:56:09 | 00:00:00 | |
| DF5WG-10 | 2026-08-31 11:27:47 | 53.23882 | 8.36460 | 51° | 57km/h | 3452m | -8.2m/s | -3.7°C | 76.4% | 664.2hPa | 2.6V | 00:00:00 | 01:56:09 | 00:00:00 | |
| DL1XH1-15 | 2026-08-31 11:27:45 | 53.23864 | 8.36423 | 49° | 57km/h | 3468m | -8.5m/s | -3.8°C | 76.7% | 662.9hPa | 2.6V | 08:06:06 | 01:56:07 | 00:00:00 | |
| DL1XH1-15 | 2026-08-31 11:27:45 | 53.23818 | 8.36330 | 50° | 57km/h | 3510m | -8.3m/s | -4.2°C | 78.3% | 659.4hPa | 2.6V | 08:06:11 | 01:56:02 | 00:00:00 | |
| BIOWL1-15 | 2026-08-31 11:27:40 | 53.23818 | 8.36330 | 51° | 57km/h | 3510m | -8.3m/s | -4.2°C | 82.9% | 659.4hPa | 2.6V | 08:06:37 | 01:56:02 | 00:00:00 | |
| DM0DOS-11 | 2026-08-31 11:27:39 | 53.23800 | 8.36293 | 50° | 57km/h | 3526m | -8.3m/s | -4.3°C | 79.2% | 658hPa | 2.5V | 08:06:13 | 01:56:00 | 00:00:00 | |
| DM0DOS-11 | 2026-08-31 11:27:39 | 53.23754 | 8.36198 | 50° | 58km/h | 3570m | -8.4m/s | -4.7°C | 81.3% | 654.5hPa | 2.6V | 08:06:18 | 01:55:55 | 00:00:00 | |
| DL1XH-15 | 2026-08-31 11:27:37 | 53.23782 | 8.36255 | 51° | 58km/h | 3544m | -8.8m/s | -4.4°C | 80% | 656.5hPa | 2.6V | 08:06:15 | 01:55:58 | 00:00:00 | |
| DL1XH-west | 2026-08-31 11:27:37 | 53.23791 | 8.36274 | 51° | 58km/h | 3535m | -8.6m/s | -4.4°C | 84.2% | 657.3hPa | 2.6V | 08:06:37 | 01:55:59 | 00:00:00 | |
| DF5WG-10 | 2026-08-31 11:27:37 | 53.23790 | 8.36274 | 52° | 57km/h | 3535m | -8.6m/s | -4.3°C | 79.5% | 657.3hPa | 2.6V | 00:00:00 | 01:55:59 | 00:00:00 | |
| GOEST3-10 | 2026-08-31 11:27:36 | 53.23781 | 8.36255 | 52° | 58km/h | 3544m | -8.7m/s | -4.4°C | 80.0% | 656.5hPa | 2.6V | 00:00:00 | 01:55:58 | 00:00:00 | |
| DL1XH1-15 | 2026-08-31 11:27:35 | 53.23726 | 8.36143 | 48° | 57km/h | 3595m | -8.7m/s | -4.9°C | 82.5% | 652.3hPa | 2.6V | 08:06:21 | 01:55:52 | 00:00:00 | |
| DD8BA-10 | 2026-08-31 11:27:35 | 53.23772 | 8.36236 | 52° | 57km/h | 3552m | -8.7m/s | -4.5°C | 80.5% | 655.9hPa | 2.6V | 00:00:00 | 00:00:00 | 00:00:00 | |
| DL1LOL-11 | 2026-08-31 11:27:32 | 53.23754 | 8.36198 | 51° | 58km/h | 3570m | -8.4m/s | -4.7°C | 79.5% | 654.5hPa | 2.7V | 00:00:00 | 00:00:00 | 00:00:00 | |
| DL1XH-15 | 2026-08-31 11:27:31 | 53.23735 | 8.36161 | 50° | 57km/h | 3587m | -8.5m/s | -4.8°C | 82.2% | 653.1hPa | 2.7V | 08:06:20 | 01:55:53 | 00:00:00 | |
| DL1XH-15 | 2026-08-31 11:27:31 | 53.23689 | 8.36071 | 48° | 57km/h | 3629m | -8.2m/s | -5.2°C | 84.4% | 649.6hPa | 2.6V | 08:06:25 | 01:55:48 | 00:00:00 | |
| BIOWL1-15 | 2026-08-31 11:27:30 | 53.23679 | 8.36052 | 51° | 58km/h | 3637m | -8.7m/s | -5.3°C | 87.4% | 649hPa | 2.6V | 08:06:37 | 01:55:47 | 00:00:00 | |
| DM0DOS-11 | 2026-08-31 11:27:29 | 53.23707 | 8.36107 | 49° | 57km/h | 3613m | -8.5m/s | -5.1°C | 83.7% | 650.9hPa | 2.6V | 08:06:23 | 01:55:50 | 00:00:00 | |
| DM0DOS-11 | 2026-08-31 11:27:29 | 53.23660 | 8.36015 | 49° | 57km/h | 3654m | -8.3m/s | -5.5°C | 86.2% | 647.6hPa | 2.6V | 08:06:28 | 01:55:45 | 00:00:00 | |
| DL1XH-west | 2026-08-31 11:27:26 | 53.23688 | 8.36071 | 48° | 57km/h | 3629m | -8.2m/s | -5.2°C | 87.2% | 649.6hPa | 2.6V | 08:06:37 | 01:55:48 | 00:00:00 | |
| GOEST3-10 | 2026-08-31 11:27:26 | 53.23688 | 8.36071 | 49° | 58km/h | 3629m | -8.1m/s | -5.2°C | 84.4% | 649.5hPa | 2.6V | 00:00:00 | 01:55:48 | 00:00:00 | |
| DD8BA-10 | 2026-08-31 11:27:25 | 53.23679 | 8.36052 | 51° | 58km/h | 3637m | -8.7m/s | -5.3°C | 84.9% | 648.9hPa | 2.6V | 00:00:00 | 00:00:00 | 00:00:00 | |
| DM0DOS-11 | 2026-08-31 11:27:23 | 53.23610 | 8.35924 | 48° | 58km/h | 3695m | -7.6m/s | -5.8°C | 89.9% | 644.2hPa | 2.6V | 08:06:33 | 01:55:40 | 00:00:00 | |
| DL1XH1-15 | 2026-08-31 11:27:22 | 53.23630 | 8.35961 | 47° | 60km/h | 3679m | -7.9m/s | -5.7°C | 88.9% | 645.6hPa | 2.6V | 08:06:31 | 01:55:42 | 00:00:00 | |
| GOEST3-10 | 2026-08-31 11:27:21 | 53.23640 | 8.35979 | 48° | 58km/h | 3671m | -7.8m/s | -5.5°C | 88.6% | 646.3hPa | 2.6V | 00:00:00 | 00:00:00 | 00:00:00 | |
| DL1XH-15 | 2026-08-31 11:27:20 | 53.23590 | 8.35887 | 47° | 60km/h | 3711m | -8.6m/s | -5.9°C | 90.6% | 642.9hPa | 2.6V | 08:06:35 | 01:55:38 | 00:00:00 | |
| BIOWL1-15 | 2026-08-31 11:27:19 | 53.23620 | 8.35942 | 48° | 60km/h | 3687m | -8.1m/s | -5.7°C | 91.3% | 644.8hPa | 2.6V | 08:06:37 | 01:55:41 | 00:00:00 | |
| DM0DOS-11 | 2026-08-31 11:27:18 | 53.23558 | 8.35832 | 45° | 60km/h | 3738m | -9.4m/s | -6.1°C | 90.7% | 640.8hPa | 2.6V | 08:06:38 | 01:55:35 | 00:00:00 | |
| DL1XH-west | 2026-08-31 11:27:16 | 53.23590 | 8.35887 | 47° | 60km/h | 3711m | -8.6m/s | -5.9°C | 92.9% | 642.9hPa | 2.6V | 08:06:37 | 01:55:38 | 00:00:00 | |
| DL1XH1-15 | 2026-08-31 11:27:15 | 53.23579 | 8.35868 | 47° | 60km/h | 3720m | -9.1m/s | -6°C | 90.6% | 642.2hPa | 2.6V | 08:06:36 | 01:55:37 | 00:00:00 | |
| DD8BA-10 | 2026-08-31 11:27:15 | 53.23580 | 8.35868 | 48° | 60km/h | 3720m | -9.1m/s | -6.0°C | 90.6% | 642.1hPa | 2.6V | 00:00:00 | 00:00:00 | 00:00:00 | |
| DL1XH-15 | 2026-08-31 11:27:13 | 53.23537 | 8.35795 | 45° | 62km/h | 3756m | -8.7m/s | -6.3°C | 91.7% | 639.2hPa | 2.6V | 08:06:40 | 01:55:33 | 00:00:00 | |
| BIOWL1-15 | 2026-08-31 11:27:09 | 53.23515 | 8.35758 | 44° | 62km/h | 3774m | -8.7m/s | -6.4°C | 93.8% | 637.9hPa | 2.6V | 08:07:28 | 01:55:31 | 00:00:00 | |
| DM0DOS-11 | 2026-08-31 11:27:08 | 53.23504 | 8.35741 | 44° | 60km/h | 3783m | -8.9m/s | -6.5°C | 92% | 637.1hPa | 2.6V | 08:06:43 | 01:55:30 | 00:00:00 | |
| DL1XH-15 | 2026-08-31 11:27:06 | 53.23481 | 8.35706 | 41° | 60km/h | 3801m | -8.6m/s | -6.5°C | 91.8% | 635.5hPa | 2.6V | 08:06:45 | 01:55:28 | 00:00:00 | |
| DL1XH1-15 | 2026-08-31 11:27:06 | 53.23470 | 8.35689 | 42° | 62km/h | 3809m | -8.6m/s | -6.6°C | 92% | 634.7hPa | 2.6V | 08:06:46 | 01:55:27 | 00:00:00 | |
| DL1XH1-15 | 2026-08-31 11:27:06 | 53.23413 | 8.35603 | 42° | 60km/h | 3853m | -8.6m/s | -6.8°C | 92.7% | 631.2hPa | 2.6V | 08:06:51 | 01:55:22 | 00:00:00 | |
| DL1XH-west | 2026-08-31 11:27:05 | 53.23470 | 8.35689 | 42° | 62km/h | 3809m | -8.6m/s | -6.6°C | 94.1% | 634.7hPa | 2.6V | 08:07:28 | 01:55:27 | 00:00:00 | |
| DD8BA-10 | 2026-08-31 11:27:05 | 53.23470 | 8.35689 | 43° | 60km/h | 3809m | -8.6m/s | -6.5°C | 92.0% | 634.7hPa | 2.6V | 08:06:00 | 00:00:00 | 00:00:00 | |
| DL1CLM-18 | 2026-08-31 11:27:03 | 53.23458 | 8.35671 | 43° | 60km/h | 3818m | -8.6m/s | -6.6°C | 90.0% | 634.1hPa | 2.6V | 00:00:00 | 00:00:00 | 00:00:00 | |
| DL1XH-15 | 2026-08-31 11:27:01 | 53.23424 | 8.35620 | 42° | 60km/h | 3844m | -8.8m/s | -6.8°C | 92.7% | 632.1hPa | 2.6V | 08:06:50 | 01:55:23 | 00:00:00 | |
| DL1XH-15 | 2026-08-31 11:27:01 | 53.23368 | 8.35536 | 40° | 60km/h | 3887m | -8.7m/s | -7°C | 93.7% | 628.4hPa | 2.5V | 08:06:55 | 01:55:18 | 00:00:00 | |
| GOEST3-10 | 2026-08-31 11:27:01 | 53.23424 | 8.35620 | 43° | 60km/h | 3844m | -8.8m/s | -6.7°C | 92.7% | 632.1hPa | 2.6V | 00:00:00 | 00:00:00 | 00:00:00 | |
| DM0DOS-11 | 2026-08-31 11:26:59 | 53.23391 | 8.35569 | 42° | 60km/h | 3870m | -8.7m/s | -6.9°C | 92.5% | 629.8hPa | 2.6V | 08:06:53 | 01:55:20 | 00:00:00 | |
| BIOWL1-15 | 2026-08-31 11:26:58 | 53.23391 | 8.35569 | 42° | 60km/h | 3870m | -8.7m/s | -6.9°C | 94.4% | 629.8hPa | 2.6V | 08:07:28 | 01:55:20 | 00:00:00 | |
| BIOWL9-15 | 2026-08-31 11:26:57 | 53.23368 | 8.35536 | 40° | 58km/h | 3887m | -8.7m/s | -7.0°C | 91.3% | 628.4hPa | 2.6V | 00:00:00 | 00:00:00 | 00:00:00 | |
| DL1XH1-15 | 2026-08-31 11:26:55 | 53.23357 | 8.35519 | 40° | 60km/h | 3896m | -9.3m/s | -7°C | 93.5% | 627.7hPa | 2.6V | 08:06:56 | 01:55:17 | 00:00:00 | |
| DL1XH1-15 | 2026-08-31 11:26:55 | 53.23296 | 8.35434 | 40° | 64km/h | 3942m | -8.7m/s | -7.2°C | 92% | 624.2hPa | 2.5V | 08:07:01 | 01:55:12 | 00:00:00 | |
| DD8BA-10 | 2026-08-31 11:26:55 | 53.23356 | 8.35519 | 41° | 62km/h | 3896m | -9.2m/s | -7.0°C | 93.5% | 627.7hPa | 2.6V | 00:00:00 | 00:00:00 | 00:00:00 | |
| DM0DOS-11 | 2026-08-31 11:26:54 | 53.23332 | 8.35486 | 38° | 62km/h | 3915m | -9.1m/s | -7.1°C | 93.8% | 626.3hPa | 2.6V | 08:06:58 | 01:55:15 | 00:00:00 | |
| DL1XH-west | 2026-08-31 11:26:54 | 53.23345 | 8.35503 | 39° | 62km/h | 3905m | -9.3m/s | -7.1°C | 95.6% | 626.9hPa | 2.6V | 08:07:28 | 01:55:16 | 00:00:00 | |
| DL1XH-15 | 2026-08-31 11:26:53 | 53.23308 | 8.35452 | 41° | 64km/h | 3933m | -9.2m/s | -7.2°C | 92.6% | 624.8hPa | 2.5V | 08:07:00 | 01:55:13 | 00:00:00 | |
| GOEST3-10 | 2026-08-31 11:26:51 | 53.23308 | 8.35452 | 42° | 64km/h | 3933m | -9.2m/s | -7.1°C | 92.6% | 624.8hPa | 2.6V | 00:00:00 | 00:00:00 | 00:00:00 | |
| DJ2DS-15 | 2026-08-31 11:26:49 | 53.23284 | 8.35417 | 41° | 68km/h | 3951m | -8.9m/s | -7.2°C | 91.4% | 623.3hPa | 2.6V | 00:00:00 | 01:55:11 | 00:00:00 | |
| DM0DOS-11 | 2026-08-31 11:26:48 | 53.23211 | 8.35312 | 39° | 66km/h | 4005m | -9.2m/s | -7.7°C | 89.9% | 619.1hPa | 2.6V | 08:07:08 | 01:55:05 | 00:00:00 | |
| DL1XH-15 | 2026-08-31 11:26:47 | 53.23248 | 8.35364 | 41° | 64km/h | 3978m | -9m/s | -7.5°C | 90.1% | 621.2hPa | 2.5V | 08:07:05 | 01:55:08 | 00:00:00 | |
| BIOWL1-15 | 2026-08-31 11:26:47 | 53.23260 | 8.35382 | 41° | 64km/h | 3969m | -8.9m/s | -7.4°C | 92.3% | 622hPa | 2.6V | 08:07:28 | 01:55:09 | 00:00:00 | |
| DF5WG-10 | 2026-08-31 11:26:47 | 53.23260 | 8.35382 | 42° | 66km/h | 3969m | -8.9m/s | -7.3°C | 89.8% | 621.9hPa | 2.5V | 00:00:00 | 01:55:09 | 00:00:00 | |
| DL1XH1-15 | 2026-08-31 11:26:45 | 53.23236 | 8.35347 | 40° | 64km/h | 3987m | -9.3m/s | -7.5°C | 90.4% | 620.5hPa | 2.5V | 08:07:06 | 01:55:07 | 00:00:00 | |
| DL1XH1-15 | 2026-08-31 11:26:45 | 53.23172 | 8.35257 | 41° | 68km/h | 4032m | -9.2m/s | -7.9°C | 89% | 616.9hPa | 2.6V | 08:07:11 | 01:55:02 | 00:00:00 | |
| DL1XH-west | 2026-08-31 11:26:43 | 53.23211 | 8.35312 | 40° | 66km/h | 4005m | -9.3m/s | -7.7°C | 92.2% | 619.1hPa | 2.6V | 08:07:28 | 01:55:05 | 00:00:00 | |
| DL1XH-15 | 2026-08-31 11:26:42 | 53.23185 | 8.35276 | 40° | 68km/h | 4023m | -9m/s | -7.8°C | 88.5% | 617.6hPa | 2.5V | 08:07:10 | 01:55:03 | 00:00:00 | |
| DL1XH-15 | 2026-08-31 11:26:42 | 53.23121 | 8.35180 | 40° | 69km/h | 4069m | -9m/s | -8.2°C | 89.4% | 614hPa | 2.5V | 08:07:15 | 01:54:58 | 00:00:00 | |
| GOEST3-10 | 2026-08-31 11:26:41 | 53.23185 | 8.35276 | 41° | 68km/h | 4023m | -8.9m/s | -7.8°C | 88.5% | 617.6hPa | 2.6V | 00:00:00 | 00:00:00 | 00:00:00 | |
| DM0DOS-11 | 2026-08-31 11:26:39 | 53.23147 | 8.35219 | 41° | 69km/h | 4051m | -9.5m/s | -8°C | 89.6% | 615.5hPa | 2.6V | 08:07:13 | 01:55:00 | 00:00:00 | |
| BIOWL1-15 | 2026-08-31 11:26:36 | 53.23121 | 8.35180 | 41° | 69km/h | 4069m | -9m/s | -8.2°C | 91.8% | 614hPa | 2.5V | 08:07:28 | 01:54:58 | 00:00:00 | |
| DL1XH1-15 | 2026-08-31 11:26:35 | 53.23108 | 8.35162 | 39° | 69km/h | 4078m | -9m/s | -8.2°C | 89.6% | 613.3hPa | 2.6V | 08:07:16 | 01:54:57 | 00:00:00 | |
| DL1XH1-15 | 2026-08-31 11:26:35 | 53.23041 | 8.35069 | 39° | 69km/h | 4124m | -9.7m/s | -8.6°C | 91.8% | 609.7hPa | 2.6V | 08:07:21 | 01:54:52 | 00:00:00 | |
| DD8BA-10 | 2026-08-31 11:26:35 | 53.23108 | 8.35162 | 40° | 69km/h | 4079m | -9.0m/s | -8.2°C | 89.6% | 613.3hPa | 2.6V | 00:00:00 | 00:00:00 | 00:00:00 | |
| DM0DOS-11 | 2026-08-31 11:26:34 | 53.23081 | 8.35125 | 39° | 68km/h | 4097m | -9.2m/s | -8.4°C | 90.5% | 611.9hPa | 2.6V | 08:07:18 | 01:54:55 | 00:00:00 | |
| DL1XH-west | 2026-08-31 11:26:32 | 53.23068 | 8.35106 | 40° | 69km/h | 4106m | -9.3m/s | -8.5°C | 92.6% | 611.1hPa | 2.6V | 08:07:28 | 01:54:54 | 00:00:00 | |
| DM0DOS-11 | 2026-08-31 11:26:29 | 53.23014 | 8.35032 | 40° | 69km/h | 4143m | -9.2m/s | -8.8°C | 92.5% | 608.2hPa | 2.6V | 08:07:23 | 01:54:50 | 00:00:00 | |
| DM0DOS-11 | 2026-08-31 11:26:29 | 53.22950 | 8.34939 | 41° | 68km/h | 4189m | -9.2m/s | -9.2°C | 94.7% | 604.5hPa | 2.6V | 08:07:28 | 01:54:45 | 00:00:00 | |
| BIOWL1-15 | 2026-08-31 11:26:27 | 53.22988 | 8.34995 | 41° | 68km/h | 4162m | -9.1m/s | -8.9°C | 94.8% | 606.8hPa | 2.5V | 08:07:28 | 01:54:48 | 00:00:00 | |
| DL1XH-15 | 2026-08-31 11:26:26 | 53.22910 | 8.34882 | 40° | 69km/h | 4216m | -9m/s | -9.4°C | 96% | 602.5hPa | 2.6V | 08:07:31 | 01:54:42 | 00:00:00 | |
| DL1XH1-15 | 2026-08-31 11:26:26 | 53.22976 | 8.34976 | 41° | 68km/h | 4171m | -9.1m/s | -9°C | 93.9% | 606.1hPa | 2.6V | 08:07:26 | 01:54:47 | 00:00:00 | |
| DL1XH-west | 2026-08-31 11:26:21 | 53.22924 | 8.34901 | 40° | 69km/h | 4207m | -9.2m/s | -9.3°C | 96.2% | 603.2hPa | 2.5V | 08:08:19 | 01:54:43 | 00:00:00 | |
| GOEST3-10 | 2026-08-31 11:26:21 | 53.22923 | 8.34901 | 41° | 69km/h | 4207m | -9.1m/s | -9.3°C | 95.8% | 603.2hPa | 2.6V | 00:00:00 | 00:00:00 | 00:00:00 | |
| DM0DOS-11 | 2026-08-31 11:26:18 | 53.22884 | 8.34845 | 39° | 68km/h | 4234m | -9.1m/s | -9.5°C | 94.1% | 601.1hPa | 2.6V | 08:07:33 | 01:54:40 | 00:00:00 | |
| DM0DOS-11 | 2026-08-31 11:26:18 | 53.22819 | 8.34756 | 38° | 66km/h | 4280m | -8.9m/s | -9.9°C | 95.7% | 597.5hPa | 2.6V | 08:07:38 | 01:54:35 | 00:00:00 | |
| DF5WG-10 | 2026-08-31 11:26:17 | 53.22871 | 8.34827 | 40° | 66km/h | 4243m | -9.0m/s | -9.5°C | 94.3% | 600.2hPa | 2.5V | 00:00:00 | 01:54:39 | 00:00:00 | |
| DL1XH1-15 | 2026-08-31 11:26:16 | 53.22845 | 8.34791 | 40° | 66km/h | 4261m | -9.1m/s | -9.7°C | 94.9% | 598.9hPa | 2.5V | 08:07:36 | 01:54:37 | 00:00:00 | |
| BIOWL1-15 | 2026-08-31 11:26:15 | 53.22845 | 8.34791 | 40° | 66km/h | 4261m | -9.1m/s | -9.7°C | 95.6% | 598.9hPa | 2.5V | 08:08:19 | 01:54:37 | 00:00:00 | |
| DD8BA-10 | 2026-08-31 11:26:15 | 53.22845 | 8.34791 | 41° | 66km/h | 4261m | -9.1m/s | -9.7°C | 94.9% | 598.9hPa | 2.5V | 00:00:00 | 00:00:00 | 00:00:00 | |
| BUE01 | 2026-08-31 11:26:14 | 53.22819 | 8.34756 | 38° | 66km/h | 4280m | -8.9m/s | -9.9°C | 92.9% | 597.5hPa | 2.5V | 00:00:00 | 00:00:00 | 00:00:00 | |
| DL1XH-15 | 2026-08-31 11:26:13 | 53.22780 | 8.34703 | 40° | 66km/h | 4307m | -9m/s | -10.1°C | 96.5% | 595.3hPa | 2.5V | 08:07:41 | 01:54:32 | 00:00:00 | |
| DL1XH-west | 2026-08-31 11:26:10 | 53.22780 | 8.34703 | 40° | 66km/h | 4307m | -9m/s | -10.1°C | 96.3% | 595.3hPa | 2.5V | 08:08:19 | 01:54:32 | 00:00:00 | |
| DM0DOS-11 | 2026-08-31 11:26:08 | 53.22755 | 8.34668 | 39° | 66km/h | 4325m | -9.1m/s | -10.2°C | 95.6% | 594hPa | 2.6V | 08:07:43 | 01:54:30 | 00:00:00 | |
| DM0DOS-11 | 2026-08-31 11:26:08 | 53.22691 | 8.34582 | 37° | 66km/h | 4370m | -8.9m/s | -10.4°C | 92.4% | 590.5hPa | 2.6V | 08:07:48 | 01:54:25 | 00:00:00 | |
| BIOWL1-15 | 2026-08-31 11:26:04 | 53.22704 | 8.34599 | 37° | 66km/h | 4361m | -8.5m/s | -10.4°C | 93% | 591.2hPa | 2.6V | 08:08:19 | 01:54:26 | 00:00:00 | |
| DM0DOS-11 | 2026-08-31 11:26:03 | 53.22626 | 8.34496 | 38° | 66km/h | 4415m | -8.7m/s | -10.5°C | 87.2% | 587hPa | 2.5V | 08:07:53 | 01:54:20 | 00:00:00 | |
| DL1XH-15 | 2026-08-31 11:26:00 | 53.22652 | 8.34531 | 39° | 66km/h | 4397m | -9.3m/s | -10.4°C | 89.8% | 588.4hPa | 2.5V | 08:07:51 | 01:54:22 | 00:00:00 | |
| DL1XH-west | 2026-08-31 11:26:00 | 53.22652 | 8.34531 | 40° | 66km/h | 4397m | -9.3m/s | -10.4°C | 90.5% | 588.4hPa | 2.5V | 08:08:19 | 01:54:22 | 00:00:00 | |
| DM0DOS-11 | 2026-08-31 11:25:58 | 53.22561 | 8.34408 | 39° | 68km/h | 4460m | -9.2m/s | -10.8°C | 87.8% | 583.7hPa | 2.5V | 08:07:58 | 01:54:15 | 00:00:00 | |
| DO9LL-15 | 2026-08-31 11:25:58 | 53.22626 | 8.34496 | 39° | 71km/h | 4415m | -8.7m/s | -10.4°C | 87.2% | 587.0hPa | 2.5V | 08:07:00 | 01:54:20 | 00:00:00 | |
| DF5WG-10 | 2026-08-31 11:25:57 | 53.22613 | 8.34479 | 40° | 68km/h | 4424m | -8.9m/s | -10.5°C | 86.5% | 586.2hPa | 2.6V | 08:07:00 | 01:54:19 | 00:00:00 | |
| GOEST3-10 | 2026-08-31 11:25:56 | 53.22600 | 8.34462 | 38° | 68km/h | 4433m | -9.1m/s | -10.5°C | 85.1% | 585.5hPa | 2.5V | 00:00:00 | 01:54:18 | 00:00:00 | |
| DL1XH-15 | 2026-08-31 11:25:55 | 53.22493 | 8.34317 | 39° | 69km/h | 4503m | -8.8m/s | -11.1°C | 86.7% | 580.3hPa | 2.5V | 08:08:03 | 01:54:10 | 00:00:00 | |
| DL1XH1-15 | 2026-08-31 11:25:54 | 53.22520 | 8.34354 | 39° | 69km/h | 4485m | -8.5m/s | -11.1°C | 88.4% | 581.7hPa | 2.6V | 08:08:01 | 01:54:12 | 00:00:00 | |
| DL1XH-west | 2026-08-31 11:25:49 | 53.22507 | 8.34336 | 39° | 69km/h | 4494m | -8.6m/s | -11.1°C | 87.5% | 581hPa | 2.6V | 08:08:19 | 01:54:11 | 00:00:00 | |
| DC4HF-4 | 2026-08-31 11:25:47 | 53.22467 | 8.34279 | 40° | 69km/h | 4520m | -8.5m/s | -11.2°C | 84.1% | 579.1hPa | 2.5V | 00:00:00 | 00:00:00 | 00:00:00 | |
| DM0DOS-11 | 2026-08-31 11:25:46 | 53.22467 | 8.34279 | 40° | 69km/h | 4520m | -8.5m/s | -11.2°C | 86.8% | 579.1hPa | 2.5V | 08:08:05 | 01:54:08 | 00:00:00 | |
| DM0DOS-11 | 2026-08-31 11:25:46 | 53.22402 | 8.34182 | 42° | 69km/h | 4563m | -8.7m/s | -11.6°C | 88.9% | 575.8hPa | 2.5V | 08:08:10 | 01:54:03 | 00:00:00 | |
| GOEST3-10 | 2026-08-31 11:25:46 | 53.22467 | 8.34279 | 41° | 69km/h | 4520m | -8.5m/s | -11.2°C | 86.8% | 579.1hPa | 2.5V | 08:08:00 | 01:54:08 | 00:00:00 | |
| DL1XH1-15 | 2026-08-31 11:25:45 | 53.22389 | 8.34162 | 43° | 69km/h | 4572m | -8.8m/s | -11.7°C | 89.5% | 575.1hPa | 2.5V | 08:08:11 | 01:54:02 | 00:00:00 | |
| DD8BA-10 | 2026-08-31 11:25:45 | 53.22453 | 8.34260 | 42° | 69km/h | 4528m | -8.6m/s | -11.2°C | 87.3% | 578.3hPa | 2.6V | 00:00:00 | 00:00:00 | 00:00:00 | |
| DL1XH-15 | 2026-08-31 11:25:43 | 53.22428 | 8.34221 | 42° | 69km/h | 4546m | -8.8m/s | -11.4°C | 88.2% | 577.1hPa | 2.6V | 08:08:08 | 01:54:05 | 00:00:00 | |
| DL1XH-15 | 2026-08-31 11:25:43 | 53.22364 | 8.34121 | 44° | 69km/h | 4589m | -8.6m/s | -11.8°C | 90.4% | 573.8hPa | 2.6V | 08:08:13 | 01:54:00 | 00:00:00 | |
| BIOWL1-15 | 2026-08-31 11:25:42 | 53.22389 | 8.34162 | 44° | 69km/h | 4572m | -8.8m/s | -11.7°C | 89.9% | 575.1hPa | 2.5V | 08:08:19 | 01:54:02 | 00:00:00 | |
| DL1XH-west | 2026-08-31 11:25:39 | 53.22377 | 8.34142 | 45° | 69km/h | 4581m | -8.5m/s | -11.7°C | 90.1% | 574.5hPa | 2.5V | 08:08:19 | 01:54:01 | 00:00:00 | |
| DM0DOS-11 | 2026-08-31 11:25:38 | 53.22339 | 8.34081 | 43° | 69km/h | 4606m | -8.3m/s | -11.9°C | 90.6% | 572.6hPa | 2.6V | 08:08:15 | 01:53:58 | 00:00:00 | |
| DL1XH1-15 | 2026-08-31 11:25:38 | 53.22326 | 8.34060 | 44° | 69km/h | 4615m | -8.4m/s | -12°C | 90.2% | 571.9hPa | 2.6V | 08:08:16 | 01:53:57 | 00:00:00 | |
| DF5WG-10 | 2026-08-31 11:25:37 | 53.22352 | 8.34101 | 44° | 71km/h | 4598m | -8.9m/s | -11.8°C | 90.6% | 573.1hPa | 2.6V | 00:00:00 | 01:53:59 | 00:00:00 | |
| GOEST3-10 | 2026-08-31 11:25:36 | 53.22339 | 8.34080 | 44° | 71km/h | 4606m | -8.3m/s | -11.9°C | 90.6% | 572.5hPa | 2.6V | 00:00:00 | 01:53:58 | 00:00:00 | |
| DD8BA-10 | 2026-08-31 11:25:35 | 53.22326 | 8.34060 | 45° | 71km/h | 4615m | -8.4m/s | -11.9°C | 90.2% | 571.8hPa | 2.6V | 08:08:00 | 00:00:00 | 00:00:00 | |
| DL1XH-15 | 2026-08-31 11:25:34 | 53.22239 | 8.33909 | 45° | 71km/h | 4674m | -8.4m/s | -12.3°C | 78.7% | 567.5hPa | 2.6V | 08:08:23 | 01:53:50 | 00:00:00 | |
| DF4FW | 2026-08-31 11:25:33 | 53.22301 | 8.34017 | 47° | 71km/h | 4631m | -8.7m/s | -12.1°C | 87.2% | 570.7hPa | 2.6V | 08:08:00 | 00:00:00 | 00:00:00 | |
| DL1XH1-15 | 2026-08-31 11:25:32 | 53.22264 | 8.33953 | 47° | 69km/h | 4657m | -8.6m/s | -12.3°C | 86.6% | 568.7hPa | 2.6V | 08:08:21 | 01:53:52 | 00:00:00 | |
| BIOWL1-15 | 2026-08-31 11:25:29 | 53.22214 | 8.33865 | 45° | 71km/h | 4691m | -8.7m/s | -12.4°C | 75.4% | 566.2hPa | 2.5V | 08:09:10 | 01:53:48 | 00:00:00 | |
| DL1XH-west | 2026-08-31 11:25:29 | 53.22252 | 8.33931 | 48° | 73km/h | 4666m | -8.3m/s | -12.3°C | 85% | 568.1hPa | 2.6V | 08:09:10 | 01:53:51 | 00:00:00 | |
| DJ2DS-15 | 2026-08-31 11:25:29 | 53.22251 | 8.33931 | 48° | 73km/h | 4666m | -8.3m/s | -12.3°C | 85.1% | 568.0hPa | 2.6V | 00:00:00 | 01:53:51 | 00:00:00 | |
| DL1LOL-11 | 2026-08-31 11:25:28 | 53.22251 | 8.33931 | 49° | 73km/h | 4666m | -8.3m/s | -12.3°C | 82.3% | 568.1hPa | 2.5V | 08:09:00 | 00:00:00 | 00:00:00 | |
| DF5WG-10 | 2026-08-31 11:25:27 | 53.22227 | 8.33887 | 48° | 71km/h | 4683m | -8.3m/s | -12.3°C | 75.6% | 566.8hPa | 2.5V | 00:00:00 | 01:53:49 | 00:00:00 | |
| DL1XH1-15 | 2026-08-31 11:25:25 | 53.22202 | 8.33843 | 48° | 71km/h | 4699m | -8.3m/s | -12.4°C | 72% | 565.6hPa | 2.5V | 08:08:26 | 01:53:47 | 00:00:00 | |
| DD8BA-10 | 2026-08-31 11:25:25 | 53.22202 | 8.33843 | 49° | 73km/h | 4699m | -8.3m/s | -12.4°C | 72.0% | 565.5hPa | 2.6V | 00:00:00 | 00:00:00 | 00:00:00 | |
| DL1XH-15 | 2026-08-31 11:25:23 | 53.22128 | 8.33711 | 46° | 73km/h | 4749m | -8.5m/s | -12.7°C | 61.2% | 561.7hPa | 2.6V | 08:08:32 | 01:53:41 | 00:00:00 | |
| DM0DOS-11 | 2026-08-31 11:25:22 | 53.22140 | 8.33733 | 46° | 71km/h | 4741m | -8.4m/s | -12.6°C | 61.3% | 562.4hPa | 2.5V | 08:08:31 | 01:53:42 | 00:00:00 | |
| DO9LL-15 | 2026-08-31 11:25:21 | 53.22153 | 8.33755 | 46° | 73km/h | 4733m | -8.2m/s | -12.5°C | 60.6% | 562.9hPa | 2.5V | 00:00:00 | 01:53:43 | 00:00:00 | |
| DL1XH1-15 | 2026-08-31 11:25:18 | 53.22076 | 8.33623 | 46° | 73km/h | 4783m | -8.5m/s | -12.9°C | 62.9% | 559.2hPa | 2.5V | 08:08:36 | 01:53:37 | 00:00:00 | |
| DL1XH-west | 2026-08-31 11:25:18 | 53.22115 | 8.33689 | 47° | 73km/h | 4758m | -8.7m/s | -12.7°C | 63.6% | 561.1hPa | 2.6V | 08:09:10 | 01:53:40 | 00:00:00 | |
| BIOWL1-15 | 2026-08-31 11:25:17 | 53.22102 | 8.33666 | 45° | 73km/h | 4766m | -8.3m/s | -12.8°C | 63.5% | 560.5hPa | 2.6V | 08:09:10 | 01:53:39 | 00:00:00 | |
| DF5WG-10 | 2026-08-31 11:25:17 | 53.22102 | 8.33666 | 45° | 73km/h | 4766m | -8.2m/s | -12.7°C | 60.9% | 560.5hPa | 2.5V | 00:00:00 | 01:53:39 | 00:00:00 | |
| GOEST3-10 | 2026-08-31 11:25:16 | 53.22089 | 8.33645 | 46° | 73km/h | 4775m | -9.1m/s | -12.8°C | 62.3% | 559.8hPa | 2.5V | 00:00:00 | 01:53:38 | 00:00:00 | |
| DL1XH-15 | 2026-08-31 11:25:14 | 53.22063 | 8.33600 | 45° | 75km/h | 4792m | -8.6m/s | -13°C | 64.6% | 558.6hPa | 2.6V | 08:08:37 | 01:53:36 | 00:00:00 | |
| DL1XH1-15 | 2026-08-31 11:25:12 | 53.22011 | 8.33512 | 44° | 73km/h | 4827m | -9.1m/s | -13.1°C | 65.7% | 556.1hPa | 2.6V | 08:08:41 | 01:53:32 | 00:00:00 | |
| BUE01 | 2026-08-31 11:25:12 | 53.22024 | 8.33534 | 46° | 73km/h | 4818m | -8.6m/s | -13.1°C | 65.7% | 556.7hPa | 2.6V | 00:00:00 | 00:00:00 | 00:00:00 | |
| GOEST3-10 | 2026-08-31 11:25:11 | 53.22024 | 8.33534 | 47° | 75km/h | 4818m | -8.5m/s | -13.1°C | 68.1% | 556.7hPa | 2.6V | 00:00:00 | 00:00:00 | 00:00:00 | |
| DF4FW | 2026-08-31 11:25:10 | 53.22024 | 8.33534 | 47° | 75km/h | 4818m | -8.6m/s | -13.1°C | 65.7% | 556.7hPa | 2.6V | 08:09:00 | 00:00:00 | 00:00:00 | |
| DJ2DS-15 | 2026-08-31 11:25:09 | 53.21997 | 8.33490 | 47° | 73km/h | 4836m | -8.6m/s | -13.2°C | 65.3% | 555.4hPa | 2.6V | 00:00:00 | 01:53:31 | 00:00:00 | |
| DM0DOS-11 | 2026-08-31 11:25:07 | 53.21931 | 8.33380 | 44° | 75km/h | 4879m | -8.9m/s | -13.3°C | 61.1% | 552.3hPa | 2.6V | 08:08:47 | 01:53:26 | 00:00:00 | |
| DL1XH-west | 2026-08-31 11:25:07 | 53.21971 | 8.33446 | 46° | 75km/h | 4852m | -8.8m/s | -13.3°C | 65.8% | 554.2hPa | 2.5V | 08:09:10 | 01:53:29 | 00:00:00 | |
| BIOWL1-15 | 2026-08-31 11:25:06 | 53.21958 | 8.33424 | 44° | 73km/h | 4861m | -9.2m/s | -13.3°C | 67.9% | 553.6hPa | 2.5V | 08:09:10 | 01:53:28 | 00:00:00 | |
| DL1XH1-15 | 2026-08-31 11:25:05 | 53.21945 | 8.33402 | 44° | 75km/h | 4870m | -8.6m/s | -13.2°C | 62.4% | 553hPa | 2.6V | 08:08:46 | 01:53:27 | 00:00:00 | |
| DL1XH1-15 | 2026-08-31 11:25:05 | 53.21878 | 8.33296 | 43° | 73km/h | 4912m | -8.5m/s | -13.5°C | 60.8% | 549.9hPa | 2.5V | 08:08:51 | 01:53:22 | 00:00:00 | |
| DD8BA-10 | 2026-08-31 11:25:05 | 53.21945 | 8.33402 | 45° | 73km/h | 4870m | -8.5m/s | -13.2°C | 62.4% | 552.9hPa | 2.6V | 00:00:00 | 00:00:00 | 00:00:00 | |
| DL4XJ-10 | 2026-08-31 11:25:03 | 53.21918 | 8.33359 | 42° | 73km/h | 4887m | -8.5m/s | -12.5°C | 0% | 0hPa | 2.6V | 00:00:00 | 00:00:00 | 00:00:00 | |
| DM0DOS-11 | 2026-08-31 11:25:02 | 53.21864 | 8.33275 | 42° | 73km/h | 4921m | -8.4m/s | -13.5°C | 61% | 549.2hPa | 2.6V | 08:08:52 | 01:53:21 | 00:00:00 | |
| GOEST3-10 | 2026-08-31 11:25:01 | 53.21891 | 8.33317 | 44° | 73km/h | 4905m | -8.4m/s | -13.4°C | 60.4% | 550.5hPa | 2.5V | 08:08:00 | 00:00:00 | 00:00:00 | |
| DF4FW | 2026-08-31 11:24:59 | 53.21878 | 8.33296 | 44° | 73km/h | 4913m | -8.5m/s | -13.5°C | 58.6% | 549.9hPa | 2.5V | 08:09:00 | 00:00:00 | 00:00:00 | |
| DL1XH-15 | 2026-08-31 11:24:58 | 53.21781 | 8.33152 | 41° | 73km/h | 4973m | -8.5m/s | -13.8°C | 65.2% | 545.6hPa | 2.5V | 08:08:58 | 01:53:15 | 00:00:00 | |
| DL1XH1-15 | 2026-08-31 11:24:58 | 53.21809 | 8.33192 | 39° | 73km/h | 4955m | -8.7m/s | -13.6°C | 62.9% | 546.8hPa | 2.5V | 08:08:56 | 01:53:17 | 00:00:00 | |
| DM0DOS-11 | 2026-08-31 11:24:57 | 53.21795 | 8.33172 | 40° | 73km/h | 4964m | -8.8m/s | -13.7°C | 63.9% | 546.2hPa | 2.5V | 08:08:57 | 01:53:16 | 00:00:00 | |
| DL1XH-west | 2026-08-31 11:24:57 | 53.21837 | 8.33233 | 43° | 73km/h | 4938m | -8.9m/s | -13.6°C | 64.5% | 548.1hPa | 2.6V | 08:09:10 | 01:53:19 | 00:00:00 | |
| BIOWL1-15 | 2026-08-31 11:24:55 | 53.21781 | 8.33152 | 42° | 73km/h | 4973m | -8.5m/s | -13.8°C | 67.4% | 545.6hPa | 2.5V | 08:09:10 | 01:53:15 | 00:00:00 | |
| DD8BA-10 | 2026-08-31 11:24:55 | 53.21809 | 8.33192 | 40° | 73km/h | 4955m | -8.6m/s | -13.6°C | 62.9% | 546.7hPa | 2.5V | 00:00:00 | 00:00:00 | 00:00:00 | |
| DL1XH-15 | 2026-08-31 11:24:53 | 53.21711 | 8.33053 | 41° | 73km/h | 5015m | -8.5m/s | -14°C | 68% | 542.5hPa | 2.5V | 08:09:03 | 01:53:10 | 00:00:00 | |
| DL1XH1-15 | 2026-08-31 11:24:52 | 53.21739 | 8.33092 | 39° | 71km/h | 4998m | -9m/s | -13.9°C | 66.6% | 543.8hPa | 2.6V | 08:09:01 | 01:53:12 | 00:00:00 | |
| DM0DOS-11 | 2026-08-31 11:24:52 | 53.21725 | 8.33073 | 40° | 73km/h | 5007m | -8.9m/s | -14°C | 67.3% | 543.1hPa | 2.5V | 08:09:02 | 01:53:11 | 00:00:00 | |
| DO9LL-15 | 2026-08-31 11:24:51 | 53.21753 | 8.33112 | 42° | 75km/h | 4990m | -8.5m/s | -13.8°C | 65.9% | 544.3hPa | 2.5V | 00:00:00 | 01:53:13 | 00:00:00 | |
| DJ2DS-15 | 2026-08-31 11:24:49 | 53.21725 | 8.33073 | 41° | 73km/h | 5007m | -8.9m/s | -13.9°C | 67.3% | 543.0hPa | 2.5V | 00:00:00 | 01:53:11 | 00:00:00 | |
| DF4FW | 2026-08-31 11:24:48 | 53.21725 | 8.33073 | 41° | 73km/h | 5007m | -8.9m/s | -14.0°C | 64.8% | 543.1hPa | 2.5V | 08:09:00 | 00:00:00 | 00:00:00 | |
| DL1XH1-15 | 2026-08-31 11:24:47 | 53.21628 | 8.32934 | 39° | 73km/h | 5066m | -9.1m/s | -14.2°C | 61.6% | 538.8hPa | 2.5V | 08:09:09 | 01:53:04 | 00:00:00 | |
| DL1XH-west | 2026-08-31 11:24:46 | 53.21683 | 8.33013 | 41° | 73km/h | 5032m | -8.4m/s | -14.2°C | 70.1% | 541.2hPa | 2.6V | 08:09:10 | 01:53:08 | 00:00:00 | |
| BIOWL1-15 | 2026-08-31 11:24:44 | 53.21628 | 8.32934 | 40° | 73km/h | 5066m | -9.1m/s | -14.2°C | 64.3% | 538.8hPa | 2.5V | 08:09:10 | 01:53:04 | 00:00:00 | |
| DL1XH-15 | 2026-08-31 11:24:43 | 53.21573 | 8.32851 | 43° | 73km/h | 5101m | -9m/s | -14.5°C | 58.8% | 536.4hPa | 2.5V | 08:09:13 | 01:53:00 | 00:00:00 | |
| DL4XJ-10 | 2026-08-31 11:24:43 | 53.21642 | 8.32954 | 42° | 75km/h | 5058m | -8.9m/s | -13.3°C | 0% | 0hPa | 2.6V | 00:00:00 | 00:00:00 | 00:00:00 | |
| DM0DOS-11 | 2026-08-31 11:24:42 | 53.21587 | 8.32872 | 40° | 73km/h | 5092m | -8.8m/s | -14.5°C | 59.4% | 536.9hPa | 2.6V | 08:09:12 | 01:53:01 | 00:00:00 | |
| DB0DAN | 2026-08-31 11:24:40 | 53.21601 | 8.32893 | 43° | 71km/h | 5084m | -8.8m/s | -14.4°C | 59% | 537.62hPa | 2.6V | 00:00:00 | 00:00:00 | 00:00:00 | |
| DF5WG-10 | 2026-08-31 11:24:37 | 53.21560 | 8.32830 | 44° | 75km/h | 5110m | -8.9m/s | -14.6°C | 58.8% | 535.7hPa | 2.5V | 00:00:00 | 01:52:59 | 00:00:00 | |
| DL1XH1-15 | 2026-08-31 11:24:36 | 53.21491 | 8.32724 | 41° | 75km/h | 5152m | -9.1m/s | -14.9°C | 59.6% | 532.8hPa | 2.5V | 08:09:19 | 01:52:54 | 00:00:00 | |
| DL1XH-west | 2026-08-31 11:24:36 | 53.21546 | 8.32809 | 43° | 73km/h | 5118m | -8.7m/s | -14.7°C | 61.5% | 535.2hPa | 2.6V | 08:10:01 | 01:52:58 | 00:00:00 | |
| DD8BA-10 | 2026-08-31 11:24:35 | 53.21532 | 8.32788 | 42° | 75km/h | 5127m | -8.8m/s | -14.7°C | 59.3% | 534.5hPa | 2.6V | 00:00:00 | 00:00:00 | 00:00:00 | |
| DL1XH-15 | 2026-08-31 11:24:34 | 53.21437 | 8.32635 | 45° | 75km/h | 5187m | -8.6m/s | -15°C | 54.9% | 530.3hPa | 2.6V | 08:09:23 | 01:52:50 | 00:00:00 | |
| DM0DOS-11 | 2026-08-31 11:24:32 | 53.21450 | 8.32658 | 45° | 77km/h | 5179m | -8.7m/s | -15°C | 56.6% | 530.8hPa | 2.6V | 08:09:22 | 01:52:51 | 00:00:00 | |
| BIOWL1-15 | 2026-08-31 11:24:31 | 53.21477 | 8.32703 | 43° | 75km/h | 5161m | -9.3m/s | -15°C | 62% | 532.1hPa | 2.5V | 08:10:01 | 01:52:53 | 00:00:00 | |
| GOEST3-10 | 2026-08-31 11:24:31 | 53.21477 | 8.32703 | 44° | 75km/h | 5161m | -9.2m/s | -15.0°C | 59.6% | 532.0hPa | 2.5V | 00:00:00 | 00:00:00 | 00:00:00 | |
| DJ2DS-15 | 2026-08-31 11:24:29 | 53.21450 | 8.32658 | 46° | 77km/h | 5179m | -8.6m/s | -15.0°C | 56.6% | 530.8hPa | 2.6V | 08:09:00 | 01:52:51 | 00:00:00 | |
| DF5WG-10 | 2026-08-31 11:24:27 | 53.21424 | 8.32613 | 46° | 77km/h | 5196m | -8.7m/s | -15.0°C | 53.6% | 529.6hPa | 2.5V | 08:09:00 | 01:52:49 | 00:00:00 | |
| GOEST3-10 | 2026-08-31 11:24:26 | 53.21410 | 8.32590 | 45° | 77km/h | 5204m | -9.1m/s | -15.1°C | 53.2% | 529.0hPa | 2.6V | 00:00:00 | 01:52:48 | 00:00:00 | |
| DD8BA-10 | 2026-08-31 11:24:25 | 53.21397 | 8.32569 | 44° | 77km/h | 5214m | -9.0m/s | -15.1°C | 52.4% | 528.4hPa | 2.6V | 00:00:00 | 00:00:00 | 00:00:00 | |
| DL1XH-west | 2026-08-31 11:24:25 | 53.21397 | 8.32569 | 43° | 77km/h | 5213m | -9.1m/s | -15.2°C | 55.7% | 528.5hPa | 2.6V | 08:10:01 | 01:52:47 | 00:00:00 | |
| HTAHTA | 2026-08-31 11:24:24 | 53.21383 | 8.32546 | 43° | 77km/h | 5222m | -8.9m/s | -15.3°C | 50.2% | 527.9hPa | 2.6V | 00:00:00 | 00:00:00 | 00:00:00 | |
| DL1XH-15 | 2026-08-31 11:24:23 | 53.21300 | 8.32409 | 43° | 77km/h | 5276m | -8.9m/s | -15.7°C | 52.7% | 524.3hPa | 2.6V | 08:09:33 | 01:52:40 | 00:00:00 | |
| DL1XH1-15 | 2026-08-31 11:24:22 | 53.21355 | 8.32500 | 45° | 78km/h | 5240m | -9.2m/s | -15.4°C | 52.9% | 526.7hPa | 2.5V | 08:09:29 | 01:52:44 | 00:00:00 | |
| BIOWL1-15 | 2026-08-31 11:24:21 | 53.21341 | 8.32477 | 45° | 78km/h | 5249m | -9.1m/s | -15.5°C | 56% | 526.1hPa | 2.5V | 08:10:01 | 01:52:43 | 00:00:00 | |
| GOEST3-10 | 2026-08-31 11:24:21 | 53.21341 | 8.32477 | 46° | 77km/h | 5249m | -9.1m/s | -15.4°C | 53.0% | 526.1hPa | 2.6V | 00:00:00 | 00:00:00 | 00:00:00 | |
| DM0DOS-11 | 2026-08-31 11:24:20 | 53.21314 | 8.32431 | 44° | 77km/h | 5267m | -9.1m/s | -15.6°C | 53.1% | 524.9hPa | 2.6V | 08:09:32 | 01:52:41 | 00:00:00 | |
| DL4XJ-10 | 2026-08-31 11:24:19 | 53.21314 | 8.32431 | 45° | 77km/h | 5268m | -9.1m/s | -14.8°C | 0% | 0hPa | 2.5V | 00:00:00 | 00:00:00 | 00:00:00 | |
| DF5WG-10 | 2026-08-31 11:24:17 | 53.21286 | 8.32386 | 44° | 77km/h | 5285m | -8.8m/s | -15.7°C | 51.7% | 523.7hPa | 2.5V | 00:00:00 | 01:52:39 | 00:00:00 | |
| DL1XH1-15 | 2026-08-31 11:24:16 | 53.21219 | 8.32270 | 45° | 78km/h | 5326m | -9.1m/s | -16°C | 50.3% | 520.7hPa | 2.5V | 08:09:39 | 01:52:34 | 00:00:00 | |
| DL1XH-west | 2026-08-31 11:24:15 | 53.21259 | 8.32342 | 47° | 75km/h | 5302m | -8.3m/s | -15.9°C | 52.6% | 522.5hPa | 2.5V | 08:10:01 | 01:52:37 | 00:00:00 | |
| DO9LL-15 | 2026-08-31 11:24:15 | 53.21259 | 8.32342 | 48° | 78km/h | 5302m | -8.2m/s | -15.8°C | 49.6% | 522.5hPa | 2.5V | 00:00:00 | 01:52:37 | 00:00:00 | |
| DL1XH-15 | 2026-08-31 11:24:13 | 53.21166 | 8.32176 | 45° | 75km/h | 5360m | -9.1m/s | -16.3°C | 48.7% | 518.4hPa | 2.6V | 08:09:43 | 01:52:30 | 00:00:00 | |
| BIOWL1-15 | 2026-08-31 11:24:10 | 53.21192 | 8.32224 | 48° | 77km/h | 5343m | -8.4m/s | -16.2°C | 53.8% | 519.6hPa | 2.6V | 08:10:01 | 01:52:32 | 00:00:00 | |
| DJ2DS-15 | 2026-08-31 11:24:09 | 53.21179 | 8.32200 | 47° | 77km/h | 5352m | -9.0m/s | -16.2°C | 50.5% | 519.0hPa | 2.6V | 00:00:00 | 01:52:31 | 00:00:00 | |
| DF5WG-10 | 2026-08-31 11:24:07 | 53.21153 | 8.32153 | 49° | 77km/h | 5369m | -8.4m/s | -16.4°C | 48.7% | 517.8hPa | 2.6V | 00:00:00 | 01:52:29 | 00:00:00 | |
| DL1XH1-15 | 2026-08-31 11:24:06 | 53.21087 | 8.32035 | 46° | 78km/h | 5411m | -9.1m/s | -16.8°C | 48.9% | 514.8hPa | 2.6V | 08:09:49 | 01:52:24 | 00:00:00 | |
| DL1XH-west | 2026-08-31 11:24:04 | 53.21113 | 8.32083 | 48° | 75km/h | 5394m | -8.3m/s | -16.6°C | 51.7% | 516.1hPa | 2.6V | 08:10:01 | 01:52:26 | 00:00:00 | |
| DL1XH-15 | 2026-08-31 11:24:03 | 53.21033 | 8.31941 | 44° | 77km/h | 5446m | -8.9m/s | -17.1°C | 43.3% | 512.6hPa | 2.6V | 08:09:53 | 01:52:20 | 00:00:00 | |
| BIOWL1-15 | 2026-08-31 11:23:59 | 53.21047 | 8.31965 | 47° | 78km/h | 5437m | -8.5m/s | -17°C | 48.6% | 513.2hPa | 2.6V | 08:10:01 | 01:52:21 | 00:00:00 | |
| DC4HF-4 | 2026-08-31 11:23:58 | 53.21033 | 8.31941 | 44° | 75km/h | 5445m | -9.0m/s | -17.1°C | 41.3% | 512.6hPa | 2.6V | 00:00:00 | 00:00:00 | 00:00:00 | |
| DF5WG-10 | 2026-08-31 11:23:57 | 53.21020 | 8.31918 | 48° | 77km/h | 5454m | -8.5m/s | -17.1°C | 41.6% | 511.9hPa | 2.6V | 00:00:00 | 01:52:19 | 00:00:00 | |
| DL1XH1-15 | 2026-08-31 11:23:56 | 53.20953 | 8.31802 | 44° | 75km/h | 5497m | -9.2m/s | -17.5°C | 45.8% | 509hPa | 2.6V | 08:09:59 | 01:52:14 | 00:00:00 | |
| DJ2DS-15 | 2026-08-31 11:23:55 | 53.20980 | 8.31848 | 47° | 75km/h | 5480m | -8.8m/s | -17.4°C | 41.7% | 510.2hPa | 2.5V | 00:00:00 | 00:00:00 | 00:00:00 | |
| DM0DOS-11 | 2026-08-31 11:23:54 | 53.20912 | 8.31734 | 44° | 75km/h | 5524m | -9.2m/s | -17.7°C | 48.8% | 507.3hPa | 2.5V | 08:10:02 | 01:52:11 | 00:00:00 | |
| DL1XH-15 | 2026-08-31 11:23:53 | 53.20899 | 8.31711 | 45° | 78km/h | 5532m | -8.9m/s | -17.8°C | 48.7% | 506.7hPa | 2.5V | 08:10:03 | 01:52:10 | 00:00:00 | |
| DL1XH-west | 2026-08-31 11:23:53 | 53.20966 | 8.31825 | 45° | 77km/h | 5489m | -9.2m/s | -17.5°C | 47.7% | 509.7hPa | 2.6V | 08:10:01 | 01:52:15 | 00:00:00 | |
| BIOWL1-15 | 2026-08-31 11:23:49 | 53.20912 | 8.31734 | 45° | 75km/h | 5524m | -9.2m/s | -17.7°C | 51.4% | 507.3hPa | 2.5V | 08:10:52 | 01:52:11 | 00:00:00 | |
| DJ2DS-15 | 2026-08-31 11:23:49 | 53.20912 | 8.31734 | 45° | 78km/h | 5524m | -9.2m/s | -17.7°C | 48.8% | 507.2hPa | 2.6V | 00:00:00 | 01:52:11 | 00:00:00 | |
| DL1XH1-15 | 2026-08-31 11:23:47 | 53.20815 | 8.31573 | 45° | 78km/h | 5583m | -8.8m/s | -18.2°C | 48.3% | 503.2hPa | 2.6V | 08:10:09 | 01:52:04 | 00:00:00 | |
| DL1XH-west | 2026-08-31 11:23:43 | 53.20829 | 8.31597 | 46° | 77km/h | 5575m | -8.5m/s | -18.1°C | 51.1% | 503.8hPa | 2.5V | 08:10:52 | 01:52:05 | 00:00:00 | |
| DL1XH-15 | 2026-08-31 11:23:41 | 53.20758 | 8.31482 | 43° | 77km/h | 5617m | -8.8m/s | -18.4°C | 49.9% | 500.9hPa | 2.6V | 08:10:13 | 01:52:00 | 00:00:00 | |
| GOEST3-10 | 2026-08-31 11:23:41 | 53.20801 | 8.31550 | 42° | 78km/h | 5592m | -9.1m/s | -18.2°C | 48.4% | 502.6hPa | 2.5V | 00:00:00 | 00:00:00 | 00:00:00 | |
| BIOWL1-15 | 2026-08-31 11:23:39 | 53.20545 | 8.31127 | 46° | 82km/h | 5748m | -9.6m/s | -19.4°C | 51.2% | 492.2hPa | 2.5V | 08:10:52 | 01:51:45 | 00:00:00 | |
| BUE01 | 2026-08-31 11:23:38 | 53.20758 | 8.31482 | 43° | 75km/h | 5617m | -8.8m/s | -18.4°C | 47.5% | 500.9hPa | 2.6V | 00:00:00 | 00:00:00 | 00:00:00 | |
| DL1XH1-15 | 2026-08-31 11:23:37 | 53.20672 | 8.31342 | 43° | 80km/h | 5669m | -9.2m/s | -18.7°C | 48.2% | 497.4hPa | 2.6V | 08:10:19 | 01:51:54 | 00:00:00 | |
| GOEST3-10 | 2026-08-31 11:23:36 | 53.20730 | 8.31436 | 43° | 80km/h | 5635m | -9.3m/s | -18.4°C | 44.1% | 499.7hPa | 2.5V | 00:00:00 | 01:51:58 | 00:00:00 | |
| DL1XH-15 | 2026-08-31 11:23:35 | 53.20531 | 8.31103 | 44° | 80km/h | 5757m | -9.6m/s | -19.4°C | 47% | 491.6hPa | 2.5V | 08:10:29 | 01:51:44 | 00:00:00 | |
| DL1XH-west | 2026-08-31 11:23:34 | 53.20573 | 8.31176 | 45° | 80km/h | 5730m | -9.4m/s | -19.2°C | 50.7% | 493.3hPa | 2.6V | 08:10:52 | 01:51:47 | 00:00:00 | |
| DF5WG-10 | 2026-08-31 11:23:34 | 53.20601 | 8.31223 | 43° | 80km/h | 5713m | -9.0m/s | -19.0°C | 48.8% | 494.4hPa | 2.5V | 00:00:00 | 01:51:49 | 00:00:00 | |
| GOEST3-10 | 2026-08-31 11:23:33 | 53.20586 | 8.31200 | 48° | 80km/h | 5722m | -8.5m/s | -19.1°C | 48.3% | 493.8hPa | 2.5V | 00:00:00 | 01:51:48 | 00:00:00 | |
| DD8BA-10 | 2026-08-31 11:23:31 | 53.20573 | 8.31176 | 45° | 82km/h | 5730m | -9.4m/s | -19.2°C | 48.6% | 493.3hPa | 2.5V | 00:00:00 | 00:00:00 | 00:00:00 | |
| DL1XH1-15 | 2026-08-31 11:23:30 | 53.20531 | 8.31103 | 44° | 80km/h | 5757m | -9.6m/s | -19.4°C | 47% | 491.6hPa | 2.5V | 08:10:29 | 01:51:44 | 00:00:00 | |
| DM0DOS-11 | 2026-08-31 11:23:24 | 53.20488 | 8.31028 | 44° | 82km/h | 5785m | -9.4m/s | -19.6°C | 42.6% | 489.8hPa | 2.5V | 08:10:32 | 01:51:41 | 00:00:00 | |
| DL1XH-west | 2026-08-31 11:23:19 | 53.20488 | 8.31027 | 44° | 82km/h | 5785m | -9.4m/s | -19.6°C | 44.9% | 489.8hPa | 2.5V | 08:10:52 | 01:51:41 | 00:00:00 | |
| BIOWL1-15 | 2026-08-31 11:23:18 | 53.20401 | 8.30879 | 48° | 82km/h | 5838m | -8.7m/s | -20°C | 49.4% | 486.3hPa | 2.6V | 08:10:52 | 01:51:35 | 00:00:00 | |
| DL1XH1-15 | 2026-08-31 11:23:17 | 53.20387 | 8.30853 | 47° | 86km/h | 5846m | -8.9m/s | -20.1°C | 48.6% | 485.7hPa | 2.6V | 08:10:39 | 01:51:34 | 00:00:00 | |
| DF5WG-10 | 2026-08-31 11:23:17 | 53.20458 | 8.30979 | 45° | 84km/h | 5802m | -9.0m/s | -19.7°C | 44.5% | 488.6hPa | 2.5V | 00:00:00 | 01:51:39 | 00:00:00 | |
| DL1XH-15 | 2026-08-31 11:23:16 | 53.20429 | 8.30930 | 45° | 82km/h | 5820m | -9.3m/s | -19.9°C | 46.7% | 487.5hPa | 2.5V | 08:10:36 | 01:51:37 | 00:00:00 | |
| GOEST3-10 | 2026-08-31 11:23:16 | 53.20443 | 8.30954 | 45° | 82km/h | 5811m | -9.0m/s | -19.8°C | 46.0% | 488.1hPa | 2.6V | 00:00:00 | 01:51:38 | 00:00:00 | |
| DD8BA-10 | 2026-08-31 11:23:15 | 53.20429 | 8.30930 | 46° | 84km/h | 5820m | -9.3m/s | -19.8°C | 46.7% | 487.5hPa | 2.6V | 00:00:00 | 00:00:00 | 00:00:00 | |
| GOEST3-10 | 2026-08-31 11:23:11 | 53.20371 | 8.30827 | 45° | 84km/h | 5856m | -9.3m/s | -20.1°C | 51.7% | 485.2hPa | 2.6V | 00:00:00 | 00:00:00 | 00:00:00 | |
| DL1XH-15 | 2026-08-31 11:23:10 | 53.20284 | 8.30672 | 44° | 84km/h | 5907m | -9.4m/s | -20.5°C | 62% | 481.8hPa | 2.6V | 08:10:46 | 01:51:27 | 00:00:00 | |
| DM0DOS-11 | 2026-08-31 11:23:09 | 53.20342 | 8.30776 | 44° | 84km/h | 5873m | -9.2m/s | -20.3°C | 61.9% | 484.1hPa | 2.5V | 08:10:42 | 01:51:31 | 00:00:00 | |
| DL1XH-west | 2026-08-31 11:23:08 | 53.20328 | 8.30750 | 49° | 84km/h | 5881m | -8.9m/s | -20.4°C | 64.5% | 483.5hPa | 2.5V | 08:10:52 | 01:51:30 | 00:00:00 | |
| DF5WG-10 | 2026-08-31 11:23:07 | 53.20313 | 8.30724 | 46° | 86km/h | 5890m | -9.4m/s | -20.4°C | 64.8% | 482.8hPa | 2.6V | 00:00:00 | 01:51:29 | 00:00:00 | |
| GOEST3-10 | 2026-08-31 11:23:06 | 53.20299 | 8.30698 | 49° | 86km/h | 5899m | -8.8m/s | -20.4°C | 63.5% | 482.2hPa | 2.6V | 00:00:00 | 01:51:28 | 00:00:00 | |
| DD8BA-10 | 2026-08-31 11:23:05 | 53.20284 | 8.30672 | 45° | 86km/h | 5908m | -9.4m/s | -20.5°C | 62.0% | 481.7hPa | 2.6V | 00:00:00 | 00:00:00 | 00:00:00 | |
| DL1XH1-15 | 2026-08-31 11:23:04 | 53.20240 | 8.30594 | 47° | 88km/h | 5934m | -9.1m/s | -20.6°C | 52.3% | 480.1hPa | 2.5V | 08:10:49 | 01:51:24 | 00:00:00 | |
| DL1CLM-18 | 2026-08-31 11:23:02 | 53.20255 | 8.30620 | 47° | 84km/h | 5925m | -9.3m/s | -20.6°C | 52.4% | 480.7hPa | 2.6V | 08:10:00 | 00:00:00 | 00:00:00 | |
| DM0DOS-11 | 2026-08-31 11:23:01 | 53.20196 | 8.30514 | 48° | 84km/h | 5962m | -8.8m/s | -20.8°C | 59.2% | 478.3hPa | 2.6V | 08:10:52 | 01:51:21 | 00:00:00 | |
| DL1XH-west | 2026-08-31 11:22:57 | 53.20167 | 8.30462 | 48° | 86km/h | 5980m | -8.9m/s | -20.9°C | 58.7% | 477.1hPa | 2.5V | 08:11:43 | 01:51:19 | 00:00:00 | |
| DF5WG-10 | 2026-08-31 11:22:57 | 53.20167 | 8.30462 | 49° | 84km/h | 5980m | -8.9m/s | -20.9°C | 57.3% | 477.1hPa | 2.5V | 08:10:00 | 01:51:19 | 00:00:00 | |
| DL1XH-15 | 2026-08-31 11:22:56 | 53.20137 | 8.30411 | 46° | 88km/h | 5997m | -9.3m/s | -21°C | 53.1% | 476.1hPa | 2.6V | 08:10:56 | 01:51:17 | 00:00:00 | |
| BIOWL1-15 | 2026-08-31 11:22:54 | 53.20079 | 8.30307 | 46° | 84km/h | 6032m | -9.8m/s | -21.2°C | 36.9% | 473.7hPa | 2.5V | 08:11:43 | 01:51:13 | 00:00:00 | |
| DL3AQ-11 | 2026-08-31 11:22:53 | 53.20079 | 8.30307 | 46° | 82km/h | 6032m | -9.8m/s | 0°C | -1.0% | -1.0hPa | 2.6V | 00:00:00 | 00:00:00 | 00:00:00 | |
| DM0DOS-11 | 2026-08-31 11:22:51 | 53.20050 | 8.30254 | 48° | 82km/h | 6050m | -9.2m/s | -21.4°C | 34.6% | 472.6hPa | 2.6V | 08:11:02 | 01:51:11 | 00:00:00 | |
| DL1XH-west | 2026-08-31 11:22:47 | 53.20021 | 8.30203 | 48° | 84km/h | 6069m | -9.4m/s | -21.5°C | 49.1% | 471.4hPa | 2.6V | 08:11:43 | 01:51:09 | 00:00:00 | |
| DL1XH-15 | 2026-08-31 11:22:46 | 53.19991 | 8.30152 | 46° | 86km/h | 6088m | -9.6m/s | -21.7°C | 44.9% | 470.2hPa | 2.5V | 08:11:06 | 01:51:07 | 00:00:00 | |
| GOEST3-10 | 2026-08-31 11:22:46 | 53.20006 | 8.30177 | 45° | 84km/h | 6078m | -10.0m/s | -21.6°C | 46.1% | 470.7hPa | 2.5V | 08:11:00 | 01:51:08 | 00:00:00 | |
| DD8BA-10 | 2026-08-31 11:22:45 | 53.19991 | 8.30152 | 47° | 82km/h | 6088m | -9.6m/s | -21.6°C | 44.9% | 470.2hPa | 2.6V | 00:00:00 | 00:00:00 | 00:00:00 | |
| DL1XH1-15 | 2026-08-31 11:22:44 | 53.19947 | 8.30075 | 47° | 84km/h | 6116m | -9.2m/s | -21.9°C | 43.7% | 468.5hPa | 2.6V | 08:11:09 | 01:51:04 | 00:00:00 | |
| DO2JMG | 2026-08-31 11:22:44 | 53.19977 | 8.30126 | 47° | 82km/h | 6097m | -9.3m/s | -21.7°C | 47.4% | 469.7hPa | 2.5V | 08:11:43 | 01:51:06 | 00:00:00 | |
| BIOWL1-15 | 2026-08-31 11:22:42 | 53.19948 | 8.30075 | 48° | 84km/h | 6116m | -9.2m/s | -21.9°C | 46.5% | 468.5hPa | 2.6V | 08:11:43 | 01:51:04 | 00:00:00 | |
| WEDDY | 2026-08-31 11:22:42 | 53.19962 | 8.30101 | 45° | 84km/h | 6106m | -9.7m/s | -21.8°C | 42.2% | 469.1hPa | 2.5V | 00:00:00 | 00:00:00 | 00:00:00 | |
| GOEST3-10 | 2026-08-31 11:22:41 | 53.19933 | 8.30050 | 46° | 82km/h | 6125m | -9.5m/s | -21.9°C | 40.7% | 467.8hPa | 2.5V | 00:00:00 | 00:00:00 | 00:00:00 | |
| DL4XJ-10 | 2026-08-31 11:22:39 | 53.19905 | 8.29999 | 48° | 80km/h | 6144m | -9.0m/s | -21.2°C | 0% | 0hPa | 2.5V | 00:00:00 | 00:00:00 | 00:00:00 | |
| DL1XH1-15 | 2026-08-31 11:22:37 | 53.19805 | 8.29825 | 44° | 80km/h | 6206m | -9.6m/s | -22.7°C | 28.5% | 462.7hPa | 2.5V | 08:11:19 | 01:50:54 | 00:00:00 | |
| DF5WG-10 | 2026-08-31 11:22:37 | 53.19875 | 8.29950 | 48° | 82km/h | 6161m | -9.1m/s | -22.2°C | 32.2% | 465.5hPa | 2.6V | 00:00:00 | 01:50:59 | 00:00:00 | |
| DL1XH-15 | 2026-08-31 11:22:36 | 53.19848 | 8.29900 | 44° | 80km/h | 6179m | -9.6m/s | -22.4°C | 29% | 464.4hPa | 2.6V | 08:11:16 | 01:50:57 | 00:00:00 | |
| DL1XH-west | 2026-08-31 11:22:36 | 53.19862 | 8.29925 | 48° | 80km/h | 6170m | -9.1m/s | -22.3°C | 33.2% | 465.1hPa | 2.6V | 08:11:43 | 01:50:58 | 00:00:00 | |
| DO2JMG | 2026-08-31 11:22:34 | 53.19833 | 8.29875 | 46° | 84km/h | 6188m | -9.6m/s | -22.5°C | 31.9% | 463.9hPa | 2.5V | 08:11:43 | 01:50:56 | 00:00:00 | |
| BIOWL1-15 | 2026-08-31 11:22:32 | 53.19805 | 8.29825 | 44° | 80km/h | 6206m | -9.6m/s | -22.7°C | 31.6% | 462.7hPa | 2.5V | 08:11:43 | 01:50:54 | 00:00:00 | |
| GOEST3-10 | 2026-08-31 11:22:31 | 53.19790 | 8.29801 | 47° | 80km/h | 6216m | -9.1m/s | -22.7°C | 28.4% | 462.0hPa | 2.6V | 00:00:00 | 00:00:00 | 00:00:00 | |
| DM0DOS-11 | 2026-08-31 11:22:29 | 53.19762 | 8.29752 | 43° | 80km/h | 6233m | -9.8m/s | -22.9°C | 27% | 460.9hPa | 2.6V | 08:11:22 | 01:50:51 | 00:00:00 | |
| DJ2DS-15 | 2026-08-31 11:22:29 | 53.19762 | 8.29752 | 44° | 80km/h | 6233m | -9.7m/s | -22.9°C | 27.0% | 460.9hPa | 2.6V | 00:00:00 | 01:50:51 | 00:00:00 | |
| DL4BBY-15 | 2026-08-31 11:22:28 | 53.19749 | 8.29727 | 47° | 78km/h | 6243m | -9.4m/s | -22.1°C | 0% | 0hPa | 2.5V | 00:00:00 | 00:00:00 | 00:00:00 | |
| DF5WG-10 | 2026-08-31 11:22:27 | 53.19734 | 8.29703 | 47° | 80km/h | 6252m | -9.3m/s | -23.0°C | 25.2% | 459.7hPa | 2.5V | 00:00:00 | 01:50:49 | 00:00:00 | |
| DB0DAN | 2026-08-31 11:22:25 | 53.19706 | 8.29655 | 47° | 78km/h | 6271m | -9.5m/s | -23.1°C | 22.3% | 458.62hPa | 2.6V | 00:00:00 | 00:00:00 | 00:00:00 | |
| DL1XH-west | 2026-08-31 11:22:25 | 53.19706 | 8.29655 | 47° | 82km/h | 6271m | -9.5m/s | -23.1°C | 26.9% | 458.6hPa | 2.6V | 08:11:43 | 01:50:47 | 00:00:00 | |
| DL1XH1-15 | 2026-08-31 11:22:24 | 53.19663 | 8.29582 | 47° | 80km/h | 6299m | -9.4m/s | -23.3°C | 23.5% | 456.9hPa | 2.5V | 08:11:29 | 01:50:44 | 00:00:00 | |
| DO2JMG | 2026-08-31 11:22:23 | 53.19677 | 8.29606 | 44° | 82km/h | 6289m | -10m/s | -23.3°C | 26.7% | 457.4hPa | 2.6V | 08:11:43 | 01:50:45 | 00:00:00 | |
| BIOWL1-15 | 2026-08-31 11:22:22 | 53.19649 | 8.29558 | 45° | 78km/h | 6308m | -9.9m/s | -23.4°C | 26% | 456.3hPa | 2.5V | 08:11:43 | 01:50:43 | 00:00:00 | |
| GOEST3-10 | 2026-08-31 11:22:21 | 53.19649 | 8.29558 | 45° | 80km/h | 6308m | -9.8m/s | -23.3°C | 23.1% | 456.2hPa | 2.6V | 00:00:00 | 00:00:00 | 00:00:00 | |
| HTAHTA | 2026-08-31 11:22:20 | 53.19635 | 8.29534 | 44° | 80km/h | 6318m | -10.1m/s | -23.4°C | 21.3% | 455.6hPa | 2.6V | 00:00:00 | 00:00:00 | 00:00:00 | |
| DL4XJ-10 | 2026-08-31 11:22:19 | 53.19621 | 8.29510 | 48° | 78km/h | 6328m | -9.4m/s | -22.6°C | 0% | 0hPa | 2.6V | 00:00:00 | 00:00:00 | 00:00:00 | |
| DF4FW | 2026-08-31 11:22:18 | 53.19621 | 8.29510 | 48° | 80km/h | 6327m | -9.4m/s | -23.5°C | 21.4% | 455.1hPa | 2.6V | 08:11:00 | 00:00:00 | 00:00:00 | |
| DL1XH1-15 | 2026-08-31 11:22:17 | 53.19522 | 8.29346 | 44° | 77km/h | 6393m | -9.8m/s | -24.1°C | 23.4% | 451.1hPa | 2.6V | 08:11:39 | 01:50:34 | 00:00:00 | |
| DL1XH-west | 2026-08-31 11:22:14 | 53.19550 | 8.29393 | 43° | 80km/h | 6374m | -10m/s | -23.9°C | 26.4% | 452.2hPa | 2.5V | 08:11:43 | 01:50:36 | 00:00:00 | |
| DO2JMG | 2026-08-31 11:22:11 | 53.19507 | 8.29323 | 44° | 80km/h | 6403m | -9.8m/s | -24.2°C | 26.4% | 450.5hPa | 2.6V | 08:11:43 | 01:50:33 | 00:00:00 | |
| BIOWL1-15 | 2026-08-31 11:22:11 | 53.19480 | 8.29277 | 43° | 77km/h | 6421m | -9.6m/s | -24.3°C | 26.6% | 449.4hPa | 2.5V | 08:11:43 | 01:50:31 | 00:00:00 | |
| DB0DAN | 2026-08-31 11:22:10 | 53.19493 | 8.29300 | 47° | 75km/h | 6412m | -9.2m/s | -24.2°C | 21.8% | 449.96hPa | 2.5V | 00:00:00 | 00:00:00 | 00:00:00 | |
| DJ2DS-15 | 2026-08-31 11:22:09 | 53.19480 | 8.29277 | 43° | 75km/h | 6421m | -9.6m/s | -24.3°C | 23.6% | 449.3hPa | 2.6V | 00:00:00 | 01:50:31 | 00:00:00 | |
| DF5WG-10 | 2026-08-31 11:22:07 | 53.19452 | 8.29230 | 47° | 75km/h | 6439m | -9.2m/s | -24.4°C | 23.8% | 448.1hPa | 2.6V | 00:00:00 | 01:50:29 | 00:00:00 | |
| DL1XH-15 | 2026-08-31 11:22:06 | 53.19424 | 8.29185 | 46° | 78km/h | 6458m | -9.4m/s | -24.6°C | 24% | 447hPa | 2.6V | 08:11:46 | 01:50:27 | 00:00:00 | |
| GOEST3-10 | 2026-08-31 11:22:06 | 53.19438 | 8.29208 | 43° | 77km/h | 6449m | -9.7m/s | -24.5°C | 23.9% | 447.5hPa | 2.5V | 00:00:00 | 01:50:28 | 00:00:00 | |
| BUE01 | 2026-08-31 11:22:05 | 53.19424 | 8.29185 | 46° | 77km/h | 6458m | -9.4m/s | -24.6°C | 22.2% | 447.0hPa | 2.5V | 00:00:00 | 00:00:00 | 00:00:00 | |
| DL1XH1-15 | 2026-08-31 11:22:04 | 53.19384 | 8.29116 | 45° | 73km/h | 6485m | -9.6m/s | -24.9°C | 24.4% | 445.3hPa | 2.5V | 08:11:49 | 01:50:24 | 00:00:00 | |
| DL1XH-west | 2026-08-31 11:22:03 | 53.19397 | 8.29139 | 47° | 77km/h | 6476m | -9.2m/s | -24.8°C | 27.4% | 446hPa | 2.5V | 08:12:34 | 01:50:25 | 00:00:00 | |
| DO2JMG | 2026-08-31 11:22:01 | 53.19371 | 8.29094 | 46° | 77km/h | 6495m | -9.9m/s | -25°C | 27.7% | 444.8hPa | 2.6V | 08:13:25 | 01:50:23 | 00:00:00 | |
| BIOWL1-15 | 2026-08-31 11:22:00 | 53.19345 | 8.29048 | 45° | 77km/h | 6514m | -10.1m/s | -25.2°C | 28% | 443.6hPa | 2.6V | 08:12:34 | 01:50:21 | 00:00:00 | |
| DL1XH-west | 2026-08-31 11:21:53 | 53.19268 | 8.28915 | 47° | 73km/h | 6570m | -9.3m/s | -25.6°C | 28% | 440.3hPa | 2.5V | 08:12:34 | 01:50:15 | 00:00:00 | |
| DO2JMG | 2026-08-31 11:21:50 | 53.19232 | 8.28848 | 48° | 69km/h | 6596m | -9.3m/s | -25.8°C | 27.4% | 438.6hPa | 2.6V | 08:13:25 | 01:50:12 | 00:00:00 | |
| BIOWL1-15 | 2026-08-31 11:21:48 | 53.19208 | 8.28805 | 46° | 69km/h | 6614m | -10m/s | -25.9°C | 25.8% | 437.6hPa | 2.5V | 08:12:34 | 01:50:10 | 00:00:00 | |
| DF5WG-10 | 2026-08-31 11:21:47 | 53.19196 | 8.28784 | 45° | 71km/h | 6625m | -9.8m/s | -26.0°C | 22.7% | 436.9hPa | 2.5V | 00:00:00 | 01:50:09 | 00:00:00 | |
| DL1XH-15 | 2026-08-31 11:21:46 | 53.19170 | 8.28743 | 44° | 71km/h | 6644m | -10.1m/s | -26.2°C | 22.8% | 435.9hPa | 2.5V | 08:12:06 | 01:50:07 | 00:00:00 | |
| GOEST3-10 | 2026-08-31 11:21:46 | 53.19183 | 8.28764 | 45° | 71km/h | 6634m | -10.0m/s | -26.0°C | 22.7% | 436.4hPa | 2.6V | 00:00:00 | 01:50:08 | 00:00:00 | |
| DL1XH1-15 | 2026-08-31 11:21:44 | 53.19132 | 8.28680 | 46° | 71km/h | 6673m | -9.4m/s | -26.4°C | 22.9% | 434.2hPa | 2.6V | 08:12:09 | 01:50:04 | 00:00:00 | |
| DL1XH-west | 2026-08-31 11:21:43 | 53.19145 | 8.28701 | 46° | 71km/h | 6664m | -9.6m/s | -26.4°C | 26.2% | 434.7hPa | 2.5V | 08:12:34 | 01:50:05 | 00:00:00 | |
| DB0DAN | 2026-08-31 11:21:40 | 53.19107 | 8.28636 | 47° | 69km/h | 6692m | -9.4m/s | -26.6°C | 20.8% | 433hPa | 2.6V | 00:00:00 | 00:00:00 | 00:00:00 | |
| DO2JMG | 2026-08-31 11:21:39 | 53.19094 | 8.28614 | 47° | 71km/h | 6701m | -9.6m/s | -26.7°C | 26% | 432.4hPa | 2.5V | 08:13:25 | 01:50:01 | 00:00:00 | |
| BIOWL1-15 | 2026-08-31 11:21:38 | 53.19057 | 8.28548 | 49° | 71km/h | 6729m | -9.5m/s | -26.9°C | 25.9% | 430.8hPa | 2.6V | 08:12:34 | 01:49:58 | 00:00:00 | |
| DL1XH1-15 | 2026-08-31 11:21:37 | 53.19009 | 8.28458 | 48° | 69km/h | 6767m | -9.8m/s | -27.2°C | 22.9% | 428.5hPa | 2.5V | 08:12:19 | 01:49:54 | 00:00:00 | |
| DF5WG-10 | 2026-08-31 11:21:37 | 53.19069 | 8.28570 | 48° | 71km/h | 6720m | -9.6m/s | -26.8°C | 22.6% | 431.4hPa | 2.6V | 00:00:00 | 01:49:59 | 00:00:00 | |
| DL1XH-15 | 2026-08-31 11:21:36 | 53.19045 | 8.28525 | 49° | 71km/h | 6739m | -9.3m/s | -27°C | 22.5% | 430.2hPa | 2.6V | 08:12:16 | 01:49:57 | 00:00:00 | |
| DL1XH-west | 2026-08-31 11:21:33 | 53.19021 | 8.28480 | 49° | 69km/h | 6758m | -9.5m/s | -27.2°C | 26.2% | 429hPa | 2.5V | 08:12:34 | 01:49:55 | 00:00:00 | |
| DJ2DS-15 | 2026-08-31 11:21:31 | 53.18985 | 8.28415 | 46° | 69km/h | 6785m | -9.8m/s | -27.4°C | 21.3% | 427.4hPa | 2.6V | 00:00:00 | 00:00:00 | 00:00:00 | |
| DL1XH-15 | 2026-08-31 11:21:30 | 53.18921 | 8.28309 | 47° | 73km/h | 6836m | -10m/s | -27.9°C | 24.2% | 424.6hPa | 2.6V | 08:12:26 | 01:49:47 | 00:00:00 | |
| BIOWL1-15 | 2026-08-31 11:21:28 | 53.18960 | 8.28373 | 45° | 71km/h | 6805m | -10.3m/s | -27.6°C | 27% | 426.3hPa | 2.5V | 08:12:34 | 01:49:50 | 00:00:00 | |
| DL4BBY-15 | 2026-08-31 11:21:28 | 53.18960 | 8.28373 | 45° | 71km/h | 6805m | -10.2m/s | -26.8°C | 0% | 0hPa | 2.5V | 00:00:00 | 00:00:00 | 00:00:00 | |
| DF5WG-10 | 2026-08-31 11:21:27 | 53.18947 | 8.28352 | 46° | 73km/h | 6816m | -10.3m/s | -27.6°C | 23.7% | 425.6hPa | 2.5V | 08:12:00 | 01:49:49 | 00:00:00 | |
| DB0DAN | 2026-08-31 11:21:25 | 53.18921 | 8.28309 | 47° | 69km/h | 6836m | -10m/s | -27.9°C | 22.1% | 424.63hPa | 2.6V | 00:00:00 | 00:00:00 | 00:00:00 | |
| DL1XH1-15 | 2026-08-31 11:21:24 | 53.18883 | 8.28240 | 48° | 75km/h | 6867m | -10m/s | -28.1°C | 25% | 422.9hPa | 2.5V | 08:12:29 | 01:49:44 | 00:00:00 | |
| DL1XH-west | 2026-08-31 11:21:23 | 53.18895 | 8.28263 | 48° | 75km/h | 6856m | -9.8m/s | -28°C | 28.2% | 423.5hPa | 2.5V | 08:12:34 | 01:49:45 | 00:00:00 | |
| DM0DOS-11 | 2026-08-31 11:21:21 | 53.18845 | 8.28170 | 50° | 75km/h | 6896m | -9.6m/s | -28.4°C | 25.6% | 421.3hPa | 2.6V | 08:12:32 | 01:49:41 | 00:00:00 | |
| GOEST3-10 | 2026-08-31 11:21:21 | 53.18870 | 8.28217 | 50° | 75km/h | 6876m | -9.7m/s | -28.1°C | 25.1% | 422.3hPa | 2.6V | 00:00:00 | 00:00:00 | 00:00:00 | |
| DL1XH-15 | 2026-08-31 11:21:19 | 53.18797 | 8.28075 | 51° | 71km/h | 6934m | -9.2m/s | -28.7°C | 26.5% | 419.1hPa | 2.6V | 08:12:36 | 01:49:37 | 00:00:00 | |
| BIOWL1-15 | 2026-08-31 11:21:17 | 53.18773 | 8.28028 | 51° | 71km/h | 6952m | -9.5m/s | -28.9°C | 30.9% | 417.9hPa | 2.6V | 08:13:25 | 01:49:35 | 00:00:00 | |
| DL1XH-west | 2026-08-31 11:21:12 | 53.18761 | 8.28005 | 51° | 71km/h | 6963m | -9.4m/s | -29°C | 31.1% | 417.4hPa | 2.5V | 08:13:25 | 01:49:34 | 00:00:00 | |
| DM0DOS-11 | 2026-08-31 11:21:11 | 53.18726 | 8.27935 | 50° | 71km/h | 6992m | -9.4m/s | -29.3°C | 28.3% | 415.7hPa | 2.6V | 08:12:42 | 01:49:31 | 00:00:00 | |
| DO2JMG | 2026-08-31 11:21:11 | 53.18750 | 8.27981 | 51° | 71km/h | 6972m | -9.4m/s | -29.1°C | 31.5% | 416.8hPa | 2.5V | 08:13:25 | 01:49:33 | 00:00:00 | |
| DB0DAN | 2026-08-31 11:21:10 | 53.18738 | 8.27958 | 51° | 68km/h | 6982m | -9.5m/s | -29.2°C | 25.7% | 416.21hPa | 2.5V | 00:00:00 | 00:00:00 | 00:00:00 | |
| DL1XH-15 | 2026-08-31 11:21:09 | 53.18679 | 8.27843 | 50° | 71km/h | 7031m | -9.5m/s | -29.6°C | 29.3% | 413.5hPa | 2.6V | 08:12:46 | 01:49:27 | 00:00:00 | |
| BIOWL1-15 | 2026-08-31 11:21:08 | 53.18667 | 8.27820 | 51° | 71km/h | 7040m | -9.5m/s | -29.7°C | 33.3% | 412.9hPa | 2.6V | 08:13:25 | 01:49:26 | 00:00:00 | |
| DF5WG-10 | 2026-08-31 11:21:07 | 53.18702 | 8.27889 | 52° | 71km/h | 7011m | -9.4m/s | -29.4°C | 28.8% | 414.4hPa | 2.5V | 00:00:00 | 01:49:29 | 00:00:00 | |
| GOEST3-10 | 2026-08-31 11:21:06 | 53.18690 | 8.27866 | 52° | 71km/h | 7021m | -9.4m/s | -29.5°C | 29.1% | 413.9hPa | 2.5V | 00:00:00 | 01:49:28 | 00:00:00 | |
| DL1XH1-15 | 2026-08-31 11:21:04 | 53.18643 | 8.27775 | 50° | 71km/h | 7060m | -9.3m/s | -29.9°C | 29.8% | 411.7hPa | 2.5V | 08:12:49 | 01:49:24 | 00:00:00 | |
| DD8BA-10 | 2026-08-31 11:21:04 | 53.18667 | 8.27820 | 51° | 71km/h | 7041m | -9.5m/s | -29.7°C | 29.4% | 412.8hPa | 2.6V | 08:12:00 | 00:00:00 | 00:00:00 | |
| BUE01 | 2026-08-31 11:21:03 | 53.18655 | 8.27797 | 50° | 69km/h | 7050m | -9.5m/s | -29.8°C | 27.1% | 412.3hPa | 2.6V | 00:00:00 | 00:00:00 | 00:00:00 | |
| BIOWL7-15 | 2026-08-31 11:21:02 | 53.18655 | 8.27797 | 52° | 71km/h | 7051m | -9.5m/s | -29.8°C | 27.1% | 412.3hPa | 2.6V | 00:00:00 | 00:00:00 | 00:00:00 | |
| DM0DOS-11 | 2026-08-31 11:21:01 | 53.18608 | 8.27706 | 50° | 71km/h | 7090m | -9.3m/s | -30.2°C | 30.5% | 410hPa | 2.6V | 08:12:52 | 01:49:21 | 00:00:00 | |
| DL1XH-west | 2026-08-31 11:21:01 | 53.18631 | 8.27752 | 51° | 71km/h | 7070m | -9.4m/s | -30°C | 33.9% | 411.2hPa | 2.5V | 08:13:25 | 01:49:23 | 00:00:00 | |
| DO2JMG | 2026-08-31 11:21:00 | 53.18619 | 8.27729 | 51° | 71km/h | 7081m | -9.3m/s | -30.1°C | 34.2% | 410.6hPa | 2.6V | 08:13:25 | 01:49:22 | 00:00:00 | |
| DL4XJ-10 | 2026-08-31 11:20:59 | 53.18608 | 8.27706 | 51° | 71km/h | 7090m | -9.3m/s | -29.4°C | 0% | 0hPa | 2.5V | 00:00:00 | 00:00:00 | 00:00:00 | |
| DL4BBY-15 | 2026-08-31 11:20:58 | 53.18596 | 8.27683 | 52° | 71km/h | 7100m | -9.2m/s | -29.5°C | 0% | 0hPa | 2.5V | 00:00:00 | 00:00:00 | 00:00:00 | |
| DL1XH1-15 | 2026-08-31 11:20:57 | 53.18526 | 8.27545 | 51° | 71km/h | 7155m | -9.5m/s | -30.8°C | 32.2% | 406.1hPa | 2.5V | 08:12:59 | 01:49:14 | 00:00:00 | |
| AA1-15 | 2026-08-31 11:20:56 | 53.18573 | 8.27637 | 51° | 71km/h | 7117m | -9.4m/s | -30.5°C | 35.1% | 408.4hPa | 2.5V | 08:13:25 | 01:49:18 | 00:00:00 | |
| BIOWL1-15 | 2026-08-31 11:20:54 | 53.18549 | 8.27591 | 51° | 71km/h | 7137m | -9.1m/s | -30.7°C | 35.5% | 407.2hPa | 2.6V | 08:13:25 | 01:49:16 | 00:00:00 | |
| DB0UT-7 | 2026-08-31 11:20:53 | 53.18538 | 8.27568 | 52° | 71km/h | 7146m | -9.2m/s | -30.7°C | 31.9% | 406.7hPa | 2.6V | 00:00:00 | 00:00:00 | 00:00:00 | |
| DF4FW | 2026-08-31 11:20:52 | 53.18538 | 8.27568 | 52° | 71km/h | 7146m | -9.2m/s | -30.7°C | 29.2% | 406.7hPa | 2.6V | 08:13:00 | 00:00:00 | 00:00:00 | |
| DM0DOS-11 | 2026-08-31 11:20:51 | 53.18492 | 8.27475 | 51° | 71km/h | 7185m | -9.2m/s | -31.1°C | 33% | 404.5hPa | 2.6V | 08:13:02 | 01:49:11 | 00:00:00 | |
| DO2JMG | 2026-08-31 11:20:50 | 53.18503 | 8.27499 | 52° | 71km/h | 7175m | -9.3m/s | -31°C | 36.4% | 405hPa | 2.6V | 08:13:25 | 01:49:12 | 00:00:00 | |
| BIOWL1-15 | 2026-08-31 11:20:46 | 53.18434 | 8.27361 | 51° | 71km/h | 7231m | -9.6m/s | -31.6°C | 37.6% | 401.7hPa | 2.6V | 08:13:25 | 01:49:06 | 00:00:00 | |
| AA1-15 | 2026-08-31 11:20:45 | 53.18446 | 8.27384 | 51° | 71km/h | 7222m | -9.6m/s | -31.5°C | 37.5% | 402.2hPa | 2.6V | 08:13:25 | 01:49:07 | 00:00:00 | |
| DL1XH1-15 | 2026-08-31 11:20:44 | 53.18412 | 8.27315 | 51° | 71km/h | 7251m | -9.8m/s | -31.8°C | 34.3% | 400.5hPa | 2.5V | 08:13:09 | 01:49:04 | 00:00:00 | |
| DD8BA-10 | 2026-08-31 11:20:44 | 53.18434 | 8.27361 | 52° | 71km/h | 7231m | -9.6m/s | -31.5°C | 34.0% | 401.6hPa | 2.5V | 00:00:00 | 00:00:00 | 00:00:00 | |
| DF4FW | 2026-08-31 11:20:41 | 53.18412 | 8.27315 | 52° | 71km/h | 7251m | -9.8m/s | -31.8°C | 31.3% | 400.5hPa | 2.5V | 08:13:00 | 00:00:00 | 00:00:00 | |
| DB0DAN | 2026-08-31 11:20:40 | 53.18389 | 8.27269 | 51° | 68km/h | 7271m | -9.8m/s | -32°C | 31.7% | 399.39hPa | 2.5V | 00:00:00 | 00:00:00 | 00:00:00 | |
| DL1XH-west | 2026-08-31 11:20:40 | 53.18389 | 8.27269 | 51° | 71km/h | 7270m | -9.8m/s | -32°C | 38.4% | 399.4hPa | 2.5V | 08:13:25 | 01:49:02 | 00:00:00 | |
| DO2JMG | 2026-08-31 11:20:39 | 53.18377 | 8.27247 | 51° | 69km/h | 7281m | -9.5m/s | -32.1°C | 38.7% | 398.9hPa | 2.6V | 08:13:25 | 01:49:01 | 00:00:00 | |
| DL1XH1-15 | 2026-08-31 11:20:37 | 53.18298 | 8.27085 | 51° | 71km/h | 7347m | -9.5m/s | -32.6°C | 36.8% | 395hPa | 2.5V | 08:13:19 | 01:48:54 | 00:00:00 | |
| AA1-15 | 2026-08-31 11:20:34 | 53.18320 | 8.27132 | 52° | 71km/h | 7328m | -9.3m/s | -32.5°C | 40.6% | 396.1hPa | 2.6V | 08:13:25 | 01:48:56 | 00:00:00 | |
| BIOWL1-15 | 2026-08-31 11:20:33 | 53.18287 | 8.27062 | 52° | 71km/h | 7357m | -9.5m/s | -32.8°C | 40.8% | 394.5hPa | 2.5V | 08:13:25 | 01:48:53 | 00:00:00 | |
| DM0DOS-11 | 2026-08-31 11:20:32 | 53.18264 | 8.27015 | 51° | 73km/h | 7375m | -9.9m/s | -33°C | 37.5% | 393.4hPa | 2.6V | 08:13:22 | 01:48:51 | 00:00:00 | |
| DL1XH-west | 2026-08-31 11:20:29 | 53.18264 | 8.27015 | 52° | 73km/h | 7375m | -9.9m/s | -33°C | 41.2% | 393.4hPa | 2.6V | 08:13:25 | 01:48:51 | 00:00:00 | |
| DO2JMG | 2026-08-31 11:20:28 | 53.18253 | 8.26991 | 51° | 73km/h | 7385m | -10m/s | -33°C | 41.3% | 392.7hPa | 2.6V | 08:13:25 | 01:48:50 | 00:00:00 | |
| DF5WG-10 | 2026-08-31 11:20:27 | 53.18241 | 8.26967 | 52° | 73km/h | 7394m | -10.0m/s | -33.1°C | 37.6% | 392.2hPa | 2.5V | 00:00:00 | 01:48:49 | 00:00:00 | |
| DB0DAN | 2026-08-31 11:20:25 | 53.18218 | 8.26920 | 51° | 69km/h | 7414m | -10.2m/s | -33.3°C | 34.7% | 391.12hPa | 2.5V | 00:00:00 | 00:00:00 | 00:00:00 | |
| DL1XH1-15 | 2026-08-31 11:20:24 | 53.18184 | 8.26848 | 50° | 75km/h | 7443m | -10.1m/s | -33.6°C | 39% | 389.5hPa | 2.5V | 08:13:29 | 01:48:44 | 00:00:00 | |
| AA1-15 | 2026-08-31 11:20:23 | 53.18195 | 8.26872 | 50° | 73km/h | 7433m | -9.9m/s | -33.5°C | 42.1% | 390.1hPa | 2.6V | 08:14:16 | 01:48:45 | 00:00:00 | |
| SONCRA | 2026-08-31 11:20:23 | 53.18195 | 8.26872 | 50° | 73km/h | 7433m | -9.9m/s | -33.5°C | 35.1% | 390.1hPa | 2.6V | 00:00:00 | 00:00:00 | 00:00:00 | |
| DC4HF-4 | 2026-08-31 11:20:22 | 53.18183 | 8.26848 | 50° | 73km/h | 7443m | -10.1m/s | -33.6°C | 35.5% | 389.5hPa | 2.6V | 00:00:00 | 00:00:00 | 00:00:00 | |
| DM0DOS-11 | 2026-08-31 11:20:21 | 53.18148 | 8.26776 | 50° | 73km/h | 7472m | -9.9m/s | -33.9°C | 40.8% | 387.8hPa | 2.6V | 08:13:32 | 01:48:41 | 00:00:00 | |
| DL1XH-west | 2026-08-31 11:20:19 | 53.18148 | 8.26776 | 50° | 73km/h | 7472m | -9.9m/s | -33.9°C | 44.3% | 387.8hPa | 2.6V | 08:14:16 | 01:48:41 | 00:00:00 | |
| DL4XJ-10 | 2026-08-31 11:20:19 | 53.18149 | 8.26776 | 51° | 75km/h | 7472m | -9.9m/s | -33.1°C | 0% | 0hPa | 2.6V | 00:00:00 | 00:00:00 | 00:00:00 | |
| DJ2DS-15 | 2026-08-31 11:20:18 | 53.18137 | 8.26752 | 49° | 73km/h | 7481m | -10.0m/s | -34.0°C | 37.6% | 387.3hPa | 2.6V | 00:00:00 | 00:00:00 | 00:00:00 | |
| DL1XH1-15 | 2026-08-31 11:20:17 | 53.18066 | 8.26608 | 48° | 75km/h | 7538m | -10.7m/s | -34.5°C | 46.2% | 383.9hPa | 2.6V | 08:13:39 | 01:48:34 | 00:00:00 | |
| DO2JMG | 2026-08-31 11:20:17 | 53.18125 | 8.26728 | 50° | 75km/h | 7490m | -10m/s | -34°C | 45.4% | 386.7hPa | 2.6V | 08:14:16 | 01:48:39 | 00:00:00 | |
| DF5WG-10 | 2026-08-31 11:20:17 | 53.18125 | 8.26728 | 50° | 75km/h | 7490m | -9.9m/s | -34.0°C | 41.9% | 386.6hPa | 2.5V | 00:00:00 | 01:48:39 | 00:00:00 | |
| DL1XH-15 | 2026-08-31 11:20:16 | 53.18101 | 8.26681 | 49° | 75km/h | 7509m | -10.2m/s | -34.2°C | 43.5% | 385.6hPa | 2.5V | 08:13:36 | 01:48:37 | 00:00:00 | |
| AA1-15 | 2026-08-31 11:20:12 | 53.18066 | 8.26608 | 49° | 75km/h | 7538m | -10.7m/s | -34.5°C | 49.5% | 384hPa | 2.6V | 08:14:16 | 01:48:34 | 00:00:00 | |
| DM0DOS-11 | 2026-08-31 11:20:11 | 53.18029 | 8.26536 | 48° | 75km/h | 7568m | -10.8m/s | -34.8°C | 47.6% | 382.3hPa | 2.6V | 08:13:42 | 01:48:31 | 00:00:00 | |
| DB0DAN | 2026-08-31 11:20:10 | 53.18041 | 8.26560 | 48° | 71km/h | 7559m | -10.9m/s | -34.7°C | 43% | 382.85hPa | 2.5V | 00:00:00 | 00:00:00 | 00:00:00 | |
| DL1XH-west | 2026-08-31 11:20:09 | 53.18029 | 8.26536 | 48° | 75km/h | 7568m | -10.8m/s | -34.8°C | 50.8% | 382.3hPa | 2.6V | 08:14:16 | 01:48:31 | 00:00:00 | |
| DO2JMG | 2026-08-31 11:20:07 | 53.18005 | 8.26488 | 48° | 75km/h | 7589m | -11m/s | -35°C | 51.7% | 381.2hPa | 2.5V | 08:14:16 | 01:48:29 | 00:00:00 | |
| DF5WG-10 | 2026-08-31 11:20:07 | 53.18005 | 8.26488 | 48° | 75km/h | 7589m | -10.9m/s | -35.0°C | 48.5% | 381.2hPa | 2.5V | 00:00:00 | 01:48:29 | 00:00:00 | |
| DL1XH-15 | 2026-08-31 11:20:06 | 53.17980 | 8.26440 | 47° | 75km/h | 7610m | -10.9m/s | -35.2°C | 49.4% | 380.1hPa | 2.5V | 08:13:46 | 01:48:27 | 00:00:00 | |
| BIOWL1-15 | 2026-08-31 11:20:05 | 53.17980 | 8.26440 | 48° | 75km/h | 7610m | -10.9m/s | -35.2°C | 52.4% | 380.1hPa | 2.5V | 08:14:16 | 01:48:27 | 00:00:00 | |
| AA1-15 | 2026-08-31 11:20:01 | 53.17930 | 8.26343 | 48° | 77km/h | 7651m | -11.1m/s | -35.6°C | 52.8% | 377.9hPa | 2.5V | 08:14:16 | 01:48:23 | 00:00:00 | |
| DM0DOS-11 | 2026-08-31 11:20:01 | 53.17905 | 8.26293 | 48° | 75km/h | 7672m | -10.8m/s | -35.8°C | 50.2% | 376.8hPa | 2.5V | 08:13:52 | 01:48:21 | 00:00:00 | |
| DL1XH-west | 2026-08-31 11:19:58 | 53.17892 | 8.26269 | 49° | 77km/h | 7683m | -10.9m/s | -35.8°C | 52.9% | 376.2hPa | 2.6V | 08:14:16 | 01:48:20 | 00:00:00 | |
| DO2JMG | 2026-08-31 11:19:57 | 53.17880 | 8.26244 | 49° | 77km/h | 7693m | -10.8m/s | -35.9°C | 52.9% | 375.7hPa | 2.6V | 08:14:16 | 01:48:19 | 00:00:00 | |
| GOEST3-10 | 2026-08-31 11:19:56 | 53.17867 | 8.26219 | 49° | 77km/h | 7704m | -10.8m/s | -36.0°C | 50.3% | 375.1hPa | 2.5V | 00:00:00 | 01:48:18 | 00:00:00 | |
| DD8BA-10 | 2026-08-31 11:19:52 | 53.17817 | 8.26119 | 51° | 78km/h | 7746m | -10.5m/s | -36.3°C | 49.4% | 373.0hPa | 2.5V | 00:00:00 | 00:00:00 | 00:00:00 | |
| DM0DOS-11 | 2026-08-31 11:19:51 | 53.17779 | 8.26042 | 50° | 78km/h | 7776m | -10.7m/s | -36.6°C | 48.6% | 371.3hPa | 2.5V | 08:14:02 | 01:48:11 | 00:00:00 | |
| AA1-15 | 2026-08-31 11:19:50 | 53.17792 | 8.26068 | 51° | 77km/h | 7766m | -10.5m/s | -36.6°C | 51.5% | 371.9hPa | 2.5V | 08:14:16 | 01:48:12 | 00:00:00 | |
| DL1XH-west | 2026-08-31 11:19:48 | 53.17767 | 8.26017 | 51° | 78km/h | 7786m | -10.6m/s | -36.7°C | 50.9% | 370.8hPa | 2.5V | 08:14:16 | 01:48:10 | 00:00:00 | |
| DO2JMG | 2026-08-31 11:19:46 | 53.17742 | 8.25965 | 51° | 78km/h | 7807m | -10.5m/s | -36.9°C | 49.9% | 369.7hPa | 2.6V | 08:14:16 | 01:48:08 | 00:00:00 | |
| HTAHTA | 2026-08-31 11:19:45 | 53.17729 | 8.25939 | 50° | 78km/h | 7817m | -10.7m/s | -37.0°C | 42.0% | 369.1hPa | 2.5V | 00:00:00 | 00:00:00 | 00:00:00 | |
| DL1LOL-11 | 2026-08-31 11:19:44 | 53.17729 | 8.25939 | 52° | 78km/h | 7817m | -10.7m/s | -37.0°C | 42.1% | 369.1hPa | 2.5V | 00:00:00 | 00:00:00 | 00:00:00 | |
| DD8BA-10 | 2026-08-31 11:19:42 | 53.17691 | 8.25860 | 53° | 82km/h | 7849m | -10.4m/s | -37.2°C | 46.2% | 367.5hPa | 2.5V | 00:00:00 | 00:00:00 | 00:00:00 | |
| DM0DOS-11 | 2026-08-31 11:19:41 | 53.17654 | 8.25780 | 53° | 80km/h | 7879m | -9.8m/s | -37.5°C | 45.9% | 365.9hPa | 2.5V | 08:14:12 | 01:48:01 | 00:00:00 | |
| DB0DAN | 2026-08-31 11:19:40 | 53.17666 | 8.25807 | 53° | 77km/h | 7869m | -10.1m/s | -37.4°C | 41.6% | 366.43hPa | 2.6V | 00:00:00 | 00:00:00 | 00:00:00 | |
| BIOWL1-15 | 2026-08-31 11:19:40 | 53.17666 | 8.25807 | 53° | 80km/h | 7869m | -10.1m/s | -37.4°C | 48.9% | 366.4hPa | 2.6V | 08:14:16 | 01:48:02 | 00:00:00 | |
| AA1-15 | 2026-08-31 11:19:39 | 53.17654 | 8.25780 | 53° | 80km/h | 7879m | -9.8m/s | -37.5°C | 48.7% | 365.9hPa | 2.5V | 08:14:16 | 01:48:01 | 00:00:00 | |
| DL4XJ-10 | 2026-08-31 11:19:39 | 53.17654 | 8.25780 | 54° | 84km/h | 7880m | -9.7m/s | -36.7°C | 0% | 0hPa | 2.5V | 00:00:00 | 00:00:00 | 00:00:00 | |
| DL1XH1-15 | 2026-08-31 11:19:37 | 53.17569 | 8.25584 | 53° | 84km/h | 7947m | -10.2m/s | -38.1°C | 47% | 362.1hPa | 2.5V | 08:14:19 | 01:47:54 | 00:00:00 | |
| DL1XH-west | 2026-08-31 11:19:37 | 53.17630 | 8.25726 | 54° | 80km/h | 7899m | -9.7m/s | -37.6°C | 48.7% | 364.9hPa | 2.5V | 08:14:16 | 01:47:59 | 00:00:00 | |
| DL1XH-15 | 2026-08-31 11:19:36 | 53.17606 | 8.25670 | 54° | 82km/h | 7918m | -10.2m/s | -37.8°C | 46.3% | 363.7hPa | 2.6V | 08:14:16 | 01:47:57 | 00:00:00 | |
| GOEST3-10 | 2026-08-31 11:19:36 | 53.17618 | 8.25698 | 55° | 84km/h | 7909m | -9.9m/s | -37.7°C | 46.0% | 364.2hPa | 2.5V | 00:00:00 | 01:47:58 | 00:00:00 | |
| DO2JMG | 2026-08-31 11:19:36 | 53.17618 | 8.25698 | 54° | 82km/h | 7908m | -10m/s | -37.7°C | 48.9% | 364.2hPa | 2.6V | 08:14:16 | 01:47:58 | 00:00:00 | |
| DF4FW | 2026-08-31 11:19:35 | 53.17618 | 8.25698 | 55° | 82km/h | 7909m | -10.0m/s | -37.7°C | 41.5% | 364.3hPa | 2.5V | 08:14:00 | 00:00:00 | 00:00:00 | |
| DD8BA-10 | 2026-08-31 11:19:32 | 53.17569 | 8.25584 | 54° | 84km/h | 7947m | -10.2m/s | -38.1°C | 47.0% | 362.0hPa | 2.5V | 08:14:00 | 00:00:00 | 00:00:00 | |
| GOEST3-10 | 2026-08-31 11:19:31 | 53.17556 | 8.25556 | 53° | 84km/h | 7957m | -10.3m/s | -38.2°C | 47.1% | 361.5hPa | 2.6V | 00:00:00 | 00:00:00 | 00:00:00 | |
| DM0DOS-11 | 2026-08-31 11:19:30 | 53.17530 | 8.25499 | 51° | 84km/h | 7977m | -10.4m/s | -38.4°C | 47.7% | 360.4hPa | 2.6V | 08:14:22 | 01:47:51 | 00:00:00 | |
| DF8AY | 2026-08-31 11:19:29 | 53.17504 | 8.25442 | 51° | 84km/h | 7997m | -11m/s | -38.6°C | 50.8% | 359.3hPa | 2.5V | 08:15:07 | 01:47:49 | 00:00:00 | |
| BIOWL1-15 | 2026-08-31 11:19:29 | 53.17530 | 8.25499 | 52° | 84km/h | 7977m | -10.4m/s | -38.4°C | 50.3% | 360.4hPa | 2.6V | 08:15:07 | 01:47:51 | 00:00:00 | |
| AA1-15 | 2026-08-31 11:19:28 | 53.17517 | 8.25471 | 51° | 86km/h | 7987m | -10.7m/s | -38.5°C | 50.5% | 359.9hPa | 2.5V | 08:15:07 | 01:47:50 | 00:00:00 | |
| DF5WG-10 | 2026-08-31 11:19:27 | 53.17503 | 8.25442 | 52° | 84km/h | 7997m | -11.0m/s | -38.5°C | 48.4% | 359.3hPa | 2.5V | 00:00:00 | 01:47:49 | 00:00:00 | |
| DL1XH-15 | 2026-08-31 11:19:26 | 53.17477 | 8.25386 | 50° | 86km/h | 8018m | -11.1m/s | -38.8°C | 48.8% | 358.3hPa | 2.6V | 08:14:26 | 01:47:47 | 00:00:00 | |
| DL1XH-west | 2026-08-31 11:19:26 | 53.17490 | 8.25414 | 51° | 86km/h | 8008m | -10.9m/s | -38.7°C | 51% | 358.8hPa | 2.5V | 08:15:07 | 01:47:48 | 00:00:00 | |
| DB0DAN | 2026-08-31 11:19:25 | 53.17477 | 8.25386 | 51° | 80km/h | 8018m | -11.1m/s | -38.8°C | 44% | 358.33hPa | 2.6V | 00:00:00 | 00:00:00 | 00:00:00 | |
| DO2JMG | 2026-08-31 11:19:25 | 53.17477 | 8.25386 | 51° | 86km/h | 8018m | -11.1m/s | -38.8°C | 51.2% | 358.3hPa | 2.6V | 08:15:07 | 01:47:47 | 00:00:00 | |
| DL1XH1-15 | 2026-08-31 11:19:24 | 53.17436 | 8.25302 | 49° | 84km/h | 8051m | -11.1m/s | -39.1°C | 49.6% | 356.7hPa | 2.5V | 08:14:29 | 01:47:44 | 00:00:00 | |
| BIOWL1-15 | 2026-08-31 11:19:20 | 53.17327 | 8.25087 | 51° | 80km/h | 8137m | -10.3m/s | -39.8°C | 53.5% | 352.5hPa | 2.6V | 08:15:07 | 01:47:36 | 00:00:00 | |
| DL1XH-15 | 2026-08-31 11:19:20 | 53.17340 | 8.25114 | 50° | 80km/h | 8126m | -10.4m/s | -39.7°C | 51.3% | 352.9hPa | 2.5V | 08:14:36 | 01:47:37 | 00:00:00 | |
| DM0DOS-11 | 2026-08-31 11:19:20 | 53.17395 | 8.25221 | 49° | 84km/h | 8082m | -10.9m/s | -39.4°C | 50.2% | 355.1hPa | 2.6V | 08:14:32 | 01:47:41 | 00:00:00 | |
| AA1-15 | 2026-08-31 11:19:18 | 53.17381 | 8.25194 | 49° | 82km/h | 8093m | -10.9m/s | -39.5°C | 52.6% | 354.6hPa | 2.6V | 08:15:07 | 01:47:40 | 00:00:00 | |
| DL1XH1-15 | 2026-08-31 11:19:17 | 53.17302 | 8.25034 | 50° | 80km/h | 8157m | -10.2m/s | -40°C | 52% | 351.3hPa | 2.5V | 08:14:39 | 01:47:34 | 00:00:00 | |
| DO2JMG | 2026-08-31 11:19:15 | 53.17341 | 8.25114 | 51° | 80km/h | 8126m | -10.4m/s | -39.7°C | 53.3% | 352.9hPa | 2.5V | 08:15:07 | 01:47:37 | 00:00:00 | |
| DF8AY | 2026-08-31 11:19:11 | 53.17289 | 8.25008 | 51° | 80km/h | 8167m | -10.4m/s | -40.1°C | 54% | 350.8hPa | 2.5V | 08:15:07 | 01:47:33 | 00:00:00 | |
| DM0DOS-11 | 2026-08-31 11:19:10 | 53.17264 | 8.24955 | 50° | 78km/h | 8186m | -10.4m/s | -40.3°C | 52.6% | 349.7hPa | 2.6V | 08:14:42 | 01:47:31 | 00:00:00 | |
| AA1-15 | 2026-08-31 11:19:07 | 53.17238 | 8.24905 | 48° | 78km/h | 8207m | -10.4m/s | -40.5°C | 54.1% | 348.6hPa | 2.6V | 08:15:07 | 01:47:29 | 00:00:00 | |
| DO2JMG | 2026-08-31 11:19:05 | 53.17211 | 8.24855 | 48° | 78km/h | 8228m | -10.9m/s | -40.7°C | 54.5% | 347.6hPa | 2.5V | 08:15:07 | 01:47:27 | 00:00:00 | |
| BIOWL1-15 | 2026-08-31 11:19:04 | 53.17081 | 8.24613 | 51° | 75km/h | 8335m | -10m/s | -41.6°C | 56.4% | 342.4hPa | 2.5V | 08:15:07 | 01:47:17 | 00:00:00 | |
| BIOWL1-15 | 2026-08-31 11:18:59 | 53.17009 | 8.24463 | 54° | 78km/h | 8396m | -10.2m/s | -42.1°C | 56.8% | 339.3hPa | 2.5V | 08:15:07 | 01:47:11 | 00:00:00 | |
| DL4XJ-10 | 2026-08-31 11:18:59 | 53.17132 | 8.24709 | 48° | 78km/h | 8293m | -10.5m/s | -40.4°C | 0% | 0hPa | 2.6V | 00:00:00 | 00:00:00 | 00:00:00 | |
| DL4BBY-15 | 2026-08-31 11:18:58 | 53.17119 | 8.24685 | 49° | 78km/h | 8303m | -10.5m/s | -40.5°C | 0% | 0hPa | 2.6V | 00:00:00 | 00:00:00 | 00:00:00 | |
| DL1XH1-15 | 2026-08-31 11:18:57 | 53.17045 | 8.24539 | 52° | 77km/h | 8366m | -9.8m/s | -41.8°C | 55.2% | 340.8hPa | 2.6V | 08:14:59 | 01:47:14 | 00:00:00 | |
| AA1-15 | 2026-08-31 11:18:57 | 53.17106 | 8.24661 | 50° | 75km/h | 8314m | -10.4m/s | -41.4°C | 56.1% | 343.5hPa | 2.6V | 08:15:07 | 01:47:19 | 00:00:00 | |
| DL1XH-15 | 2026-08-31 11:18:56 | 53.17081 | 8.24613 | 51° | 75km/h | 8335m | -10m/s | -41.5°C | 54.6% | 342.4hPa | 2.5V | 08:14:56 | 01:47:17 | 00:00:00 | |
| DB0DAN | 2026-08-31 11:18:55 | 53.17081 | 8.24613 | 51° | 71km/h | 8335m | -10m/s | -41.6°C | 48.9% | 342.39hPa | 2.5V | 00:00:00 | 00:00:00 | 00:00:00 | |
| DO2JMG | 2026-08-31 11:18:54 | 53.17069 | 8.24589 | 52° | 77km/h | 8346m | -9.7m/s | -41.6°C | 56.5% | 341.9hPa | 2.5V | 08:15:07 | 01:47:16 | 00:00:00 | |
| AA1-15 | 2026-08-31 11:18:46 | 53.16973 | 8.24386 | 53° | 78km/h | 8426m | -10.4m/s | -42.3°C | 57.7% | 337.7hPa | 2.6V | 08:15:07 | 01:47:08 | 00:00:00 | |
| DL1XH-15 | 2026-08-31 11:18:46 | 53.16961 | 8.24360 | 52° | 80km/h | 8436m | -10.5m/s | -42.5°C | 56.3% | 337.2hPa | 2.6V | 08:15:06 | 01:47:07 | 00:00:00 | |
| DF5WG-10 | 2026-08-31 11:18:46 | 53.16973 | 8.24386 | 54° | 78km/h | 8426m | -10.3m/s | -42.3°C | 55.9% | 337.6hPa | 2.5V | 00:00:00 | 01:47:08 | 00:00:00 | |
| DL1XH1-15 | 2026-08-31 11:18:44 | 53.16925 | 8.24281 | 53° | 78km/h | 8468m | -10.7m/s | -42.7°C | 57% | 335.6hPa | 2.5V | 08:15:09 | 01:47:04 | 00:00:00 | |
| DF8AY | 2026-08-31 11:18:43 | 53.16925 | 8.24281 | 53° | 78km/h | 8468m | -10.7m/s | -42.7°C | 58.6% | 335.6hPa | 2.5V | 08:15:58 | 01:47:04 | 00:00:00 | |
| DL1XH-west | 2026-08-31 11:18:43 | 53.16937 | 8.24307 | 53° | 80km/h | 8458m | -10.4m/s | -42.6°C | 58.5% | 336.1hPa | 2.5V | 08:15:58 | 01:47:05 | 00:00:00 | |
| DO9LL-15 | 2026-08-31 11:18:42 | 53.16925 | 8.24281 | 54° | 77km/h | 8468m | -10.6m/s | -42.7°C | 57.0% | 335.6hPa | 2.6V | 00:00:00 | 01:47:04 | 00:00:00 | |
| DB0DAN | 2026-08-31 11:18:40 | 53.16900 | 8.24229 | 53° | 75km/h | 8490m | -10.7m/s | -42.9°C | 51% | 334.62hPa | 2.6V | 00:00:00 | 00:00:00 | 00:00:00 | |
| DM0DOS-11 | 2026-08-31 11:18:40 | 53.16888 | 8.24203 | 52° | 78km/h | 8501m | -10.8m/s | -43°C | 57.4% | 334.1hPa | 2.5V | 08:15:12 | 01:47:01 | 00:00:00 | |
| BIOWL9-15 | 2026-08-31 11:18:40 | 53.16888 | 8.24203 | 52° | 78km/h | 8501m | -10.9m/s | -43.0°C | 51.3% | 334.1hPa | 2.5V | 00:00:00 | 00:00:00 | 00:00:00 | |
| DL4XJ-10 | 2026-08-31 11:18:39 | 53.16888 | 8.24203 | 53° | 75km/h | 8501m | -10.8m/s | -42.2°C | 0% | 0hPa | 2.5V | 00:00:00 | 00:00:00 | 00:00:00 | |
| DK9SH | 2026-08-31 11:18:38 | 53.16888 | 8.24203 | 54° | 78km/h | 8501m | -10.9m/s | -43.0°C | 51.3% | 334.1hPa | 2.5V | 00:00:00 | 00:00:00 | 00:00:00 | |
| DL1XH1-15 | 2026-08-31 11:18:37 | 53.16803 | 8.24026 | 51° | 77km/h | 8576m | -10.4m/s | -43.6°C | 58.8% | 330.4hPa | 2.5V | 08:15:19 | 01:46:54 | 00:00:00 | |
| DL1XH-15 | 2026-08-31 11:18:36 | 53.16839 | 8.24101 | 51° | 77km/h | 8544m | -10.4m/s | -43.4°C | 58.9% | 332hPa | 2.6V | 08:15:16 | 01:46:57 | 00:00:00 | |
| AA1-15 | 2026-08-31 11:18:35 | 53.16839 | 8.24101 | 52° | 77km/h | 8544m | -10.4m/s | -43.4°C | 60.3% | 332hPa | 2.6V | 08:15:58 | 01:46:57 | 00:00:00 | |
| DO2JMG | 2026-08-31 11:18:33 | 53.16815 | 8.24051 | 52° | 77km/h | 8565m | -10.3m/s | -43.5°C | 60.2% | 331hPa | 2.5V | 08:15:58 | 01:46:55 | 00:00:00 | |
| DL1XH-west | 2026-08-31 11:18:32 | 53.16803 | 8.24026 | 52° | 77km/h | 8576m | -10.4m/s | -43.6°C | 60.3% | 330.4hPa | 2.5V | 08:15:58 | 01:46:54 | 00:00:00 | |
| DF8AY | 2026-08-31 11:18:31 | 53.16790 | 8.24001 | 52° | 77km/h | 8587m | -10.4m/s | -43.7°C | 60.4% | 329.9hPa | 2.5V | 08:15:58 | 01:46:53 | 00:00:00 | |
| GOEST3-10 | 2026-08-31 11:18:31 | 53.16790 | 8.24001 | 53° | 75km/h | 8587m | -10.4m/s | -43.6°C | 58.8% | 329.9hPa | 2.5V | 00:00:00 | 00:00:00 | 00:00:00 | |
| DJ2DS-15 | 2026-08-31 11:18:30 | 53.16778 | 8.23976 | 51° | 75km/h | 8598m | -10.5m/s | -43.8°C | 52.7% | 329.4hPa | 2.6V | 00:00:00 | 00:00:00 | 00:00:00 | |
| DJ2DS-15 | 2026-08-31 11:18:29 | 53.16766 | 8.23951 | 53° | 73km/h | 8609m | -10.2m/s | -43.8°C | 59.6% | 328.8hPa | 2.6V | 08:15:00 | 01:46:51 | 00:00:00 | |
| DL4BBY-15 | 2026-08-31 11:18:28 | 53.16754 | 8.23926 | 53° | 75km/h | 8620m | -10.1m/s | -43.2°C | 0% | 0hPa | 2.6V | 00:00:00 | 00:00:00 | 00:00:00 | |
| DB0DAN | 2026-08-31 11:18:25 | 53.16719 | 8.23852 | 52° | 69km/h | 8651m | -9.5m/s | -44.1°C | 55.3% | 326.8hPa | 2.6V | 00:00:00 | 00:00:00 | 00:00:00 | |
| DL1XH1-15 | 2026-08-31 11:18:24 | 53.16685 | 8.23780 | 52° | 73km/h | 8679m | -9.6m/s | -44.4°C | 63.9% | 325.2hPa | 2.5V | 08:15:29 | 01:46:44 | 00:00:00 | |
| AA1-15 | 2026-08-31 11:18:24 | 53.16707 | 8.23828 | 53° | 73km/h | 8660m | -9.5m/s | -44.2°C | 63.9% | 326.3hPa | 2.6V | 08:15:58 | 01:46:46 | 00:00:00 | |
| DL1XH-west | 2026-08-31 11:18:22 | 53.16685 | 8.23780 | 52° | 73km/h | 8679m | -9.6m/s | -44.4°C | 65.1% | 325.2hPa | 2.5V | 08:15:58 | 01:46:44 | 00:00:00 | |
| DF8AY | 2026-08-31 11:18:20 | 53.16662 | 8.23732 | 52° | 73km/h | 8700m | -9.8m/s | -44.6°C | 66.1% | 324.3hPa | 2.5V | 08:15:58 | 01:46:42 | 00:00:00 | |
| DL4XJ-10 | 2026-08-31 11:18:19 | 53.16650 | 8.23707 | 53° | 77km/h | 8710m | -9.7m/s | -44.0°C | 0% | 0hPa | 2.6V | 00:00:00 | 00:00:00 | 00:00:00 | |
| DL1XH1-15 | 2026-08-31 11:18:17 | 53.16566 | 8.23543 | 47° | 77km/h | 8779m | -10.7m/s | -45.4°C | 69.1% | 320.3hPa | 2.6V | 08:15:39 | 01:46:34 | 00:00:00 | |
| AA1-15 | 2026-08-31 11:18:13 | 53.16579 | 8.23566 | 45° | 75km/h | 8769m | -10.9m/s | -45.3°C | 68% | 320.7hPa | 2.6V | 08:15:58 | 01:46:35 | 00:00:00 | |
| DM0DOS-11 | 2026-08-31 11:18:12 | 53.16528 | 8.23471 | 45° | 77km/h | 8809m | -10.8m/s | -45.7°C | 69.8% | 318.8hPa | 2.5V | 08:15:42 | 01:46:31 | 00:00:00 | |
| DL1XH-west | 2026-08-31 11:18:12 | 53.16566 | 8.23543 | 47° | 77km/h | 8779m | -10.7m/s | -45.4°C | 68.2% | 320.3hPa | 2.6V | 08:15:58 | 01:46:34 | 00:00:00 | |
| BIOWL1-15 | 2026-08-31 11:18:11 | 53.16528 | 8.23471 | 46° | 77km/h | 8809m | -10.8m/s | -45.7°C | 68.5% | 318.8hPa | 2.5V | 08:15:58 | 01:46:31 | 00:00:00 | |
| DF8AY | 2026-08-31 11:18:10 | 53.16541 | 8.23495 | 49° | 75km/h | 8800m | -10.4m/s | -45.6°C | 68.5% | 319.3hPa | 2.5V | 08:15:58 | 01:46:32 | 00:00:00 | |
| BIOWL9-15 | 2026-08-31 11:18:09 | 53.16515 | 8.23448 | 46° | 77km/h | 8820m | -10.7m/s | -45.8°C | 62.2% | 318.2hPa | 2.6V | 00:00:00 | 00:00:00 | 00:00:00 | |
| GOEST3-10 | 2026-08-31 11:18:06 | 53.16489 | 8.23398 | 50° | 78km/h | 8841m | -10.2m/s | -45.9°C | 69.3% | 317.2hPa | 2.6V | 00:00:00 | 01:46:28 | 00:00:00 | |
| DL1XH1-15 | 2026-08-31 11:18:04 | 53.16436 | 8.23297 | 50° | 80km/h | 8882m | -10.2m/s | -46.2°C | 67.7% | 315.3hPa | 2.6V | 08:15:49 | 01:46:24 | 00:00:00 | |
| AA1-15 | 2026-08-31 11:18:03 | 53.16449 | 8.23323 | 49° | 82km/h | 8873m | -10.3m/s | -46.2°C | 66.8% | 315.8hPa | 2.6V | 08:15:58 | 01:46:25 | 00:00:00 | |
| DM0DOS-11 | 2026-08-31 11:18:02 | 53.16398 | 8.23219 | 48° | 78km/h | 8913m | -10.4m/s | -46.4°C | 65.8% | 313.8hPa | 2.5V | 08:15:52 | 01:46:21 | 00:00:00 | |
| DL1XH-west | 2026-08-31 11:18:01 | 53.16423 | 8.23271 | 51° | 78km/h | 8893m | -10.1m/s | -46.3°C | 65.7% | 314.8hPa | 2.6V | 08:15:58 | 01:46:23 | 00:00:00 | |
| DF8AY | 2026-08-31 11:17:59 | 53.16398 | 8.23219 | 48° | 80km/h | 8913m | -10.4m/s | -46.4°C | 64.2% | 313.9hPa | 2.5V | 08:15:58 | 01:46:21 | 00:00:00 | |
| DC4HF-4 | 2026-08-31 11:17:58 | 53.16371 | 8.23168 | 47° | 80km/h | 8933m | -10.9m/s | -46.5°C | 56.6% | 312.8hPa | 2.5V | 00:00:00 | 00:00:00 | 00:00:00 | |
| BUE01 | 2026-08-31 11:17:57 | 53.16371 | 8.23168 | 47° | 80km/h | 8933m | -10.9m/s | -46.5°C | 56.6% | 312.8hPa | 2.5V | 00:00:00 | 00:00:00 | 00:00:00 | |
| DL1XH1-15 | 2026-08-31 11:17:57 | 53.16302 | 8.23040 | 48° | 82km/h | 8987m | -11m/s | -46.9°C | 59.9% | 310.4hPa | 2.6V | 08:15:59 | 01:46:14 | 00:00:00 | |
| DL1XH-15 | 2026-08-31 11:17:56 | 53.16343 | 8.23117 | 47° | 82km/h | 8955m | -11m/s | -46.6°C | 62.2% | 311.9hPa | 2.5V | 08:15:56 | 01:46:17 | 00:00:00 | |
| DB0DAN | 2026-08-31 11:17:55 | 53.16343 | 8.23117 | 47° | 78km/h | 8955m | -11m/s | -46.6°C | 54.9% | 311.89hPa | 2.5V | 00:00:00 | 00:00:00 | 00:00:00 | |
| AA1-15 | 2026-08-31 11:17:53 | 53.16302 | 8.23040 | 48° | 82km/h | 8987m | -11m/s | -46.9°C | 57.8% | 310.4hPa | 2.6V | 08:16:49 | 01:46:14 | 00:00:00 | |
| DM0DOS-11 | 2026-08-31 11:17:52 | 53.16261 | 8.22962 | 49° | 84km/h | 9020m | -10.9m/s | -46.7°C | 54.8% | 308.9hPa | 2.5V | 08:16:02 | 01:46:11 | 00:00:00 | |
| DL1XH-west | 2026-08-31 11:17:51 | 53.16289 | 8.23014 | 49° | 82km/h | 8998m | -11.1m/s | -46.9°C | 56.4% | 309.9hPa | 2.6V | 08:16:49 | 01:46:13 | 00:00:00 | |
| BIOWL1-15 | 2026-08-31 11:17:49 | 53.16261 | 8.22962 | 50° | 84km/h | 9020m | -10.9m/s | -46.7°C | 53.1% | 308.9hPa | 2.5V | 08:16:49 | 01:46:11 | 00:00:00 | |
| DF8AY | 2026-08-31 11:17:48 | 53.16248 | 8.22935 | 51° | 84km/h | 9032m | -11m/s | -46.6°C | 51.7% | 308.4hPa | 2.5V | 08:16:49 | 01:46:10 | 00:00:00 | |
| SONCRA | 2026-08-31 11:17:48 | 53.16235 | 8.22907 | 52° | 84km/h | 9042m | -10.7m/s | -46.6°C | 44.9% | 307.9hPa | 2.6V | 00:00:00 | 00:00:00 | 00:00:00 | |
| AA1-15 | 2026-08-31 11:17:41 | 53.16159 | 8.22738 | 56° | 84km/h | 9106m | -10.1m/s | -46.6°C | 46.2% | 304.9hPa | 2.6V | 08:16:49 | 01:46:03 | 00:00:00 | |
| GOEST3-10 | 2026-08-31 11:17:41 | 53.16159 | 8.22738 | 56° | 82km/h | 9106m | -10.1m/s | -46.6°C | 46.3% | 304.9hPa | 2.6V | 00:00:00 | 00:00:00 | 00:00:00 | |
| DM0DOS-11 | 2026-08-31 11:17:40 | 53.16136 | 8.22680 | 56° | 80km/h | 9127m | -9.9m/s | -46.6°C | 44.4% | 304hPa | 2.6V | 08:16:12 | 01:46:01 | 00:00:00 | |
| DB0DAN | 2026-08-31 11:17:40 | 53.16147 | 8.22709 | 57° | 78km/h | 9117m | -9.9m/s | -46.6°C | 39.3% | 304.49hPa | 2.6V | 00:00:00 | 00:00:00 | 00:00:00 | |
| DL1XH-west | 2026-08-31 11:17:40 | 53.16147 | 8.22709 | 57° | 82km/h | 9117m | -9.9m/s | -46.6°C | 45.4% | 304.5hPa | 2.6V | 08:16:49 | 01:46:02 | 00:00:00 | |
| BIOWL1-15 | 2026-08-31 11:17:38 | 53.16031 | 8.22433 | 54° | 82km/h | 9220m | -10.9m/s | -47.1°C | 38.7% | 299.8hPa | 2.6V | 08:16:49 | 01:45:52 | 00:00:00 | |
| DF8AY | 2026-08-31 11:17:38 | 53.16113 | 8.22624 | 56° | 78km/h | 9146m | -10.4m/s | -46.7°C | 43.7% | 303hPa | 2.5V | 08:16:49 | 01:45:59 | 00:00:00 | |
| DL1XH1-15 | 2026-08-31 11:17:37 | 53.16055 | 8.22489 | 54° | 82km/h | 9198m | -11.1m/s | -47.1°C | 41.2% | 300.6hPa | 2.5V | 08:16:19 | 01:45:54 | 00:00:00 | |
| DL1XH-15 | 2026-08-31 11:17:36 | 53.16091 | 8.22570 | 53° | 78km/h | 9167m | -10.8m/s | -46.9°C | 42.8% | 302.1hPa | 2.6V | 08:16:16 | 01:45:57 | 00:00:00 | |
| DF5WG-10 | 2026-08-31 11:17:36 | 53.16102 | 8.22597 | 55° | 80km/h | 9156m | -10.8m/s | -46.8°C | 43.3% | 302.5hPa | 2.6V | 00:00:00 | 01:45:58 | 00:00:00 | |
| DM0DOS-11 | 2026-08-31 11:17:32 | 53.16018 | 8.22405 | 54° | 82km/h | 9231m | -10.7m/s | -47.1°C | 38.9% | 299.2hPa | 2.6V | 08:16:22 | 01:45:51 | 00:00:00 | |
| AA1-15 | 2026-08-31 11:17:31 | 53.16043 | 8.22461 | 54° | 82km/h | 9210m | -10.8m/s | -47.1°C | 39.5% | 300.1hPa | 2.5V | 08:16:49 | 01:45:53 | 00:00:00 | |
| DL1XH-west | 2026-08-31 11:17:29 | 53.16018 | 8.22405 | 55° | 82km/h | 9231m | -10.7m/s | -47.1°C | 38.1% | 299.2hPa | 2.6V | 08:16:49 | 01:45:51 | 00:00:00 | |
| DF8AY | 2026-08-31 11:17:26 | 53.15983 | 8.22323 | 55° | 80km/h | 9264m | -10.7m/s | -47.1°C | 36.2% | 297.8hPa | 2.5V | 08:16:49 | 01:45:48 | 00:00:00 | |
| DB0DAN | 2026-08-31 11:17:25 | 53.15971 | 8.22295 | 55° | 75km/h | 9274m | -10.6m/s | -47.2°C | 30.5% | 297.32hPa | 2.5V | 00:00:00 | 00:00:00 | 00:00:00 | |
| DL1XH1-15 | 2026-08-31 11:17:24 | 53.15937 | 8.22215 | 55° | 77km/h | 9306m | -10.3m/s | -47.3°C | 33% | 295.9hPa | 2.5V | 08:16:29 | 01:45:44 | 00:00:00 | |
| BIOWL1-15 | 2026-08-31 11:17:21 | 53.15927 | 8.22189 | 56° | 75km/h | 9317m | -10.5m/s | -47.3°C | 32.2% | 295.4hPa | 2.5V | 08:16:49 | 01:45:43 | 00:00:00 | |
| AA1-15 | 2026-08-31 11:17:20 | 53.15916 | 8.22164 | 54° | 75km/h | 9327m | -10.6m/s | -47.2°C | 31.2% | 295hPa | 2.5V | 08:16:49 | 01:45:42 | 00:00:00 | |
| DL1XH-15 | 2026-08-31 11:17:20 | 53.15859 | 8.22039 | 54° | 73km/h | 9381m | -10.4m/s | -46.4°C | 25.6% | 292.6hPa | 2.5V | 08:16:36 | 01:45:37 | 00:00:00 | |
| DM0DOS-11 | 2026-08-31 11:17:20 | 53.15904 | 8.22139 | 51° | 75km/h | 9338m | -10.8m/s | -47°C | 29.5% | 294.5hPa | 2.6V | 08:16:32 | 01:45:41 | 00:00:00 | |
| DL1XH-west | 2026-08-31 11:17:18 | 53.15893 | 8.22114 | 53° | 75km/h | 9349m | -10.9m/s | -46.8°C | 29.2% | 294hPa | 2.6V | 08:16:49 | 01:45:40 | 00:00:00 | |
| DF8AY | 2026-08-31 11:17:15 | 53.15859 | 8.22039 | 54° | 73km/h | 9381m | -10.4m/s | -46.4°C | 27.4% | 292.6hPa | 2.5V | 08:16:49 | 01:45:37 | 00:00:00 | |
| BIOWL1-15 | 2026-08-31 11:17:10 | 53.15784 | 8.21880 | 49° | 69km/h | 9456m | -11m/s | -46.6°C | 26.3% | 289.2hPa | 2.6V | 08:16:49 | 01:45:30 | 00:00:00 | |
| DL1XH-15 | 2026-08-31 11:17:10 | 53.15751 | 8.21815 | 49° | 68km/h | 9488m | -10.6m/s | -46.8°C | 23.9% | 287.8hPa | 2.5V | 08:16:46 | 01:45:27 | 00:00:00 | |
| DB0DAN | 2026-08-31 11:17:10 | 53.15807 | 8.21923 | 48° | 64km/h | 9434m | -10.9m/s | -46.5°C | 20.4% | 290.18hPa | 2.5V | 00:00:00 | 00:00:00 | 00:00:00 | |
| AA1-15 | 2026-08-31 11:17:09 | 53.15795 | 8.21902 | 47° | 68km/h | 9444m | -11.4m/s | -46.6°C | 26.3% | 289.7hPa | 2.5V | 08:16:49 | 01:45:31 | 00:00:00 | |
| DL1XH-west | 2026-08-31 11:17:07 | 53.15773 | 8.21858 | 50° | 69km/h | 9467m | -10.5m/s | -46.6°C | 26.1% | 288.8hPa | 2.6V | 08:16:49 | 01:45:29 | 00:00:00 | |
| DF8AY | 2026-08-31 11:17:04 | 53.15740 | 8.21794 | 47° | 66km/h | 9498m | -10.7m/s | -46.8°C | 25.7% | 287.4hPa | 2.5V | 08:16:49 | 01:45:26 | 00:00:00 | |
| DL1XH1-15 | 2026-08-31 11:17:04 | 53.15717 | 8.21754 | 44° | 66km/h | 9519m | -11.1m/s | -47°C | 23.8% | 286.4hPa | 2.6V | 08:16:49 | 01:45:24 | 00:00:00 | |
| DD8BA-10 | 2026-08-31 11:17:02 | 53.15717 | 8.21753 | 45° | 71km/h | 9519m | -11.0m/s | -46.9°C | 23.8% | 286.4hPa | 2.6V | 00:00:00 | 00:00:00 | 00:00:00 | |
| GOEST3-10 | 2026-08-31 11:17:01 | 53.15705 | 8.21734 | 44° | 68km/h | 9530m | -11.1m/s | -47.0°C | 23.9% | 285.9hPa | 2.6V | 00:00:00 | 00:00:00 | 00:00:00 | |
| DM0DOS-11 | 2026-08-31 11:17:00 | 53.15680 | 8.21696 | 41° | 68km/h | 9552m | -11.5m/s | -47.3°C | 23.9% | 285hPa | 2.5V | 08:16:52 | 01:45:21 | 00:00:00 | |
| DL1XH-15 | 2026-08-31 11:17:00 | 53.15628 | 8.21617 | 43° | 73km/h | 9598m | -11.1m/s | -47.6°C | 23.9% | 283hPa | 2.6V | 08:16:56 | 01:45:17 | 00:00:00 | |
| AA1-15 | 2026-08-31 11:16:59 | 53.15668 | 8.21677 | 41° | 69km/h | 9563m | -11.7m/s | -47.4°C | 25.1% | 284.5hPa | 2.5V | 08:17:40 | 01:45:20 | 00:00:00 | |
| BIOWL1-15 | 2026-08-31 11:16:59 | 53.15628 | 8.21617 | 44° | 73km/h | 9598m | -11.1m/s | -47.6°C | 24.7% | 283hPa | 2.6V | 08:17:40 | 01:45:17 | 00:00:00 | |
| DL1XH1-15 | 2026-08-31 11:16:58 | 53.15588 | 8.21553 | 43° | 77km/h | 9631m | -11.3m/s | -47.9°C | 23.6% | 281.6hPa | 2.5V | 08:16:59 | 01:45:14 | 00:00:00 | |
| DO2JMG | 2026-08-31 11:16:57 | 53.15655 | 8.21657 | 41° | 71km/h | 9575m | -11.7m/s | -47.4°C | 24.9% | 284.1hPa | 2.6V | 08:17:40 | 01:45:19 | 00:00:00 | |
| DL1XH-west | 2026-08-31 11:16:56 | 53.15641 | 8.21638 | 43° | 71km/h | 9587m | -11.6m/s | -47.5°C | 24.8% | 283.5hPa | 2.6V | 08:17:40 | 01:45:18 | 00:00:00 | |
| DB0DAN | 2026-08-31 11:16:55 | 53.15628 | 8.21617 | 44° | 69km/h | 9598m | -11.1m/s | -47.6°C | 19.7% | 283.03hPa | 2.6V | 00:00:00 | 00:00:00 | 00:00:00 | |
| DF8AY | 2026-08-31 11:16:53 | 53.15602 | 8.21574 | 43° | 71km/h | 9620m | -11.3m/s | -47.8°C | 24.4% | 282.1hPa | 2.5V | 08:18:31 | 01:45:15 | 00:00:00 | |
| DM0DOS-11 | 2026-08-31 11:16:52 | 53.15548 | 8.21485 | 45° | 77km/h | 9664m | -10.7m/s | -48.1°C | 22.9% | 280.2hPa | 2.5V | 08:17:02 | 01:45:11 | 00:00:00 | |
| DD8BA-10 | 2026-08-31 11:16:51 | 53.15575 | 8.21530 | 46° | 80km/h | 9642m | -10.7m/s | -47.9°C | 23.4% | 281.1hPa | 2.6V | 00:00:00 | 00:00:00 | 00:00:00 | |
| DL1XH-15 | 2026-08-31 11:16:50 | 53.15494 | 8.21387 | 47° | 82km/h | 9707m | -11.3m/s | -48.4°C | 21.6% | 278.4hPa | 2.6V | 08:17:06 | 01:45:07 | 00:00:00 | |
| AA1-15 | 2026-08-31 11:16:48 | 53.15535 | 8.21461 | 47° | 80km/h | 9675m | -11m/s | -48.2°C | 23% | 279.8hPa | 2.5V | 08:20:13 | 01:45:10 | 00:00:00 | |
| DO2JMG | 2026-08-31 11:16:47 | 53.15521 | 8.21437 | 44° | 78km/h | 9685m | -11.1m/s | -48.3°C | 22.6% | 279.3hPa | 2.5V | 08:17:40 | 01:45:09 | 00:00:00 | |
| DL1XH-west | 2026-08-31 11:16:45 | 53.15480 | 8.21362 | 50° | 80km/h | 9719m | -10.9m/s | -48.4°C | 21.3% | 277.9hPa | 2.6V | 08:17:40 | 01:45:06 | 00:00:00 | |
| BIOWL1-15 | 2026-08-31 11:16:45 | 53.15453 | 8.21310 | 49° | 84km/h | 9740m | -11.7m/s | -48.3°C | 20.2% | 276.9hPa | 2.5V | 08:17:40 | 01:45:04 | 00:00:00 | |
| DF4FW | 2026-08-31 11:16:44 | 53.15494 | 8.21387 | 48° | 82km/h | 9707m | -11.3m/s | -48.4°C | 17.5% | 278.4hPa | 2.6V | 08:17:00 | 00:00:00 | 00:00:00 | |
| DJ2DS-15 | 2026-08-31 11:16:42 | 53.15453 | 8.21310 | 48° | 84km/h | 9740m | -11.7m/s | -48.3°C | 16.1% | 276.9hPa | 2.6V | 00:00:00 | 00:00:00 | 00:00:00 | |
| DB0DAN | 2026-08-31 11:16:40 | 53.15426 | 8.21254 | 51° | 82km/h | 9762m | -11m/s | -48.2°C | 15.3% | 276.01hPa | 2.6V | 00:00:00 | 00:00:00 | 00:00:00 | |
| DL1XH-15 | 2026-08-31 11:16:40 | 53.15357 | 8.21111 | 50° | 88km/h | 9818m | -12.2m/s | -48.1°C | 17.1% | 273.7hPa | 2.6V | 08:17:16 | 01:44:57 | 00:00:00 | |
| AA1-15 | 2026-08-31 11:16:38 | 53.15398 | 8.21197 | 51° | 88km/h | 9784m | -11.5m/s | -48.1°C | 18.4% | 275hPa | 2.5V | 08:17:40 | 01:45:00 | 00:00:00 | |
| DO2JMG | 2026-08-31 11:16:37 | 53.15385 | 8.21168 | 50° | 88km/h | 9795m | -11.9m/s | -48.1°C | 18% | 274.6hPa | 2.5V | 08:17:40 | 01:44:59 | 00:00:00 | |
| BIOWL1-15 | 2026-08-31 11:16:34 | 53.15343 | 8.21082 | 50° | 88km/h | 9829m | -11.9m/s | -48.1°C | 16.7% | 273.2hPa | 2.6V | 08:17:40 | 01:44:56 | 00:00:00 | |
| DL1XH-west | 2026-08-31 11:16:33 | 53.15315 | 8.21025 | 50° | 88km/h | 9853m | -12.2m/s | -48°C | 15.8% | 272.3hPa | 2.5V | 08:17:40 | 01:44:54 | 00:00:00 | |
| AA1-15 | 2026-08-31 11:16:27 | 53.15245 | 8.20884 | 49° | 86km/h | 9911m | -11.5m/s | -47.6°C | 14.4% | 269.9hPa | 2.5V | 08:17:40 | 01:44:49 | 00:00:00 | |
| DO2JMG | 2026-08-31 11:16:26 | 53.15231 | 8.20857 | 50° | 86km/h | 9922m | -11.6m/s | -47.6°C | 14.2% | 269.4hPa | 2.5V | 08:17:40 | 01:44:48 | 00:00:00 | |
| DB0DAN | 2026-08-31 11:16:25 | 53.15217 | 8.20829 | 51° | 82km/h | 9933m | -11.6m/s | -47.6°C | 10.9% | 269hPa | 2.6V | 00:00:00 | 00:00:00 | 00:00:00 | |
| BIOWL1-15 | 2026-08-31 11:16:24 | 53.15204 | 8.20800 | 51° | 86km/h | 9944m | -11.9m/s | -47.6°C | 13.8% | 268.6hPa | 2.6V | 08:17:40 | 01:44:46 | 00:00:00 | |
| DL1XH-west | 2026-08-31 11:16:23 | 53.15191 | 8.20771 | 52° | 86km/h | 9955m | -12.1m/s | -47.5°C | 13.6% | 268.1hPa | 2.5V | 08:17:40 | 01:44:45 | 00:00:00 | |
| DL1XH1-15 | 2026-08-31 11:16:23 | 53.15178 | 8.20742 | 52° | 86km/h | 9967m | -11.9m/s | -47.6°C | 13.5% | 267.5hPa | 2.5V | 08:17:29 | 01:44:44 | 00:00:00 | |
| DM0DOS-11 | 2026-08-31 11:16:21 | 53.15139 | 8.20657 | 52° | 82km/h | 10003m | -11.8m/s | -47.7°C | 13.1% | 266.2hPa | 2.6V | 08:17:32 | 01:44:41 | 00:00:00 | |
| DD8BA-10 | 2026-08-31 11:16:21 | 53.15164 | 8.20714 | 53° | 82km/h | 9979m | -11.8m/s | -47.6°C | 13.4% | 267.1hPa | 2.5V | 00:00:00 | 00:00:00 | 00:00:00 | |
| DL1XH-15 | 2026-08-31 11:16:20 | 53.15089 | 8.20544 | 52° | 80km/h | 10051m | -11.8m/s | -47.5°C | 12.3% | 264.3hPa | 2.5V | 08:17:36 | 01:44:37 | 00:00:00 | |
| BIOWL1-15 | 2026-08-31 11:16:17 | 53.15013 | 8.20385 | 51° | 80km/h | 10121m | -11.8m/s | -47.8°C | 10.9% | 261.6hPa | 2.5V | 08:18:31 | 01:44:31 | 00:00:00 | |
| DL1XH1-15 | 2026-08-31 11:16:17 | 53.15051 | 8.20463 | 50° | 80km/h | 10087m | -11.7m/s | -47.5°C | 11.8% | 263hPa | 2.6V | 08:17:39 | 01:44:34 | 00:00:00 | |
| DO2JMG | 2026-08-31 11:16:16 | 53.15101 | 8.20572 | 53° | 82km/h | 10039m | -11.8m/s | -47.5°C | 12.2% | 264.8hPa | 2.5V | 08:17:40 | 01:44:38 | 00:00:00 | |
| AA1-15 | 2026-08-31 11:16:15 | 53.15089 | 8.20544 | 52° | 82km/h | 10051m | -11.8m/s | -47.5°C | 12% | 264.3hPa | 2.5V | 08:17:40 | 01:44:37 | 00:00:00 | |
| DF8AY | 2026-08-31 11:16:13 | 53.15063 | 8.20490 | 52° | 80km/h | 10075m | -11.7m/s | -47.5°C | 11.7% | 263.4hPa | 2.6V | 08:18:31 | 01:44:35 | 00:00:00 | |
| DL1XH-west | 2026-08-31 11:16:12 | 53.15051 | 8.20463 | 51° | 80km/h | 10087m | -11.7m/s | -47.5°C | 11.5% | 263hPa | 2.6V | 08:17:40 | 01:44:34 | 00:00:00 | |
| DF4FW | 2026-08-31 11:16:11 | 53.15051 | 8.20463 | 52° | 80km/h | 10087m | -11.7m/s | -47.5°C | 8.9% | 263.0hPa | 2.5V | 08:17:00 | 00:00:00 | 00:00:00 | |
| DB0DAN | 2026-08-31 11:16:10 | 53.15025 | 8.20411 | 51° | 75km/h | 10109m | -11.8m/s | -47.7°C | 8.6% | 262.04hPa | 2.5V | 00:00:00 | 00:00:00 | 00:00:00 | |
| DO2JMG | 2026-08-31 11:16:05 | 53.14962 | 8.20280 | 52° | 80km/h | 10168m | -11.4m/s | -47.9°C | 9.6% | 259.7hPa | 2.5V | 08:18:31 | 01:44:27 | 00:00:00 | |
| AA1-15 | 2026-08-31 11:16:04 | 53.14949 | 8.20254 | 52° | 80km/h | 10179m | -11.1m/s | -47.7°C | 9.1% | 259.3hPa | 2.5V | 08:18:31 | 01:44:26 | 00:00:00 | |
| DL1XH1-15 | 2026-08-31 11:16:04 | 53.14923 | 8.20199 | 51° | 82km/h | 10202m | -11.1m/s | -47.5°C | 9.5% | 258.5hPa | 2.6V | 08:17:49 | 01:44:24 | 00:00:00 | |
| DL1XH-west | 2026-08-31 11:16:02 | 53.14923 | 8.20199 | 52° | 82km/h | 10202m | -11.1m/s | -47.5°C | 8.5% | 258.5hPa | 2.6V | 08:18:31 | 01:44:24 | 00:00:00 | |
| GOEST3-10 | 2026-08-31 11:16:01 | 53.14910 | 8.20172 | 53° | 86km/h | 10214m | -10.8m/s | -47.4°C | 9.2% | 257.9hPa | 2.5V | 08:17:00 | 00:00:00 | 00:00:00 | |
| DL4XJ-10 | 2026-08-31 11:15:59 | 53.14883 | 8.20115 | 53° | 88km/h | 10235m | -11.0m/s | -46.7°C | 0% | 0hPa | 2.5V | 00:00:00 | 00:00:00 | 00:00:00 | |
| DL1XH-15 | 2026-08-31 11:15:58 | 53.14830 | 8.20000 | 51° | 88km/h | 10281m | -12.2m/s | -47.4°C | 8.9% | 255.2hPa | 2.5V | 08:17:56 | 01:44:17 | 00:00:00 | |
| DF8AY | 2026-08-31 11:15:57 | 53.14857 | 8.20058 | 53° | 88km/h | 10257m | -11.7m/s | -47.3°C | 7.6% | 256.1hPa | 2.6V | 08:18:31 | 01:44:19 | 00:00:00 | |
| DO2JMG | 2026-08-31 11:15:54 | 53.14816 | 8.19971 | 50° | 88km/h | 10292m | -12.3m/s | -47.4°C | 7.9% | 254.8hPa | 2.5V | 08:18:31 | 01:44:16 | 00:00:00 | |
| AA1-15 | 2026-08-31 11:15:53 | 53.14802 | 8.19942 | 50° | 88km/h | 10304m | -12.5m/s | -47.4°C | 8.1% | 254.3hPa | 2.5V | 08:18:31 | 01:44:15 | 00:00:00 | |
| DL1XH-west | 2026-08-31 11:15:52 | 53.14787 | 8.19914 | 49° | 88km/h | 10317m | -12.5m/s | -47.4°C | 8.3% | 253.9hPa | 2.6V | 08:18:31 | 01:44:14 | 00:00:00 | |
| BIOWL1-15 | 2026-08-31 11:15:51 | 53.14745 | 8.19830 | 51° | 86km/h | 10353m | -12.2m/s | -47.3°C | 8.3% | 252.5hPa | 2.5V | 08:18:31 | 01:44:11 | 00:00:00 | |
| DD8BA-10 | 2026-08-31 11:15:51 | 53.14773 | 8.19886 | 50° | 86km/h | 10329m | -12.3m/s | -47.4°C | 9.7% | 253.3hPa | 2.6V | 00:00:00 | 00:00:00 | 00:00:00 | |
| DL1XH-15 | 2026-08-31 11:15:50 | 53.14694 | 8.19713 | 55° | 88km/h | 10400m | -11.7m/s | -47.5°C | 9.2% | 250.7hPa | 2.6V | 08:18:06 | 01:44:07 | 00:00:00 | |
| DD1CC8 | 2026-08-31 11:15:46 | 53.14694 | 8.19713 | 55° | 86km/h | 10400m | -11.7m/s | -47.5°C | 6.5% | 250.7hPa | 2.5V | 00:00:00 | 00:00:00 | 00:00:00 | |
| DL3AQ-11 | 2026-08-31 11:15:45 | 53.14681 | 8.19683 | 55° | 86km/h | 10411m | -11.8m/s | -47.5°C | 6.4% | 250.2hPa | 2.5V | 00:00:00 | 00:00:00 | 00:00:00 | |
| DL1XH1-15 | 2026-08-31 11:15:44 | 53.14656 | 8.19622 | 54° | 88km/h | 10435m | -12.1m/s | -47.5°C | 8.9% | 249.3hPa | 2.5V | 08:18:09 | 01:44:04 | 00:00:00 | |
| DO2JMG | 2026-08-31 11:15:44 | 53.14681 | 8.19683 | 56° | 88km/h | 10411m | -11.8m/s | -47.5°C | 7.7% | 250.2hPa | 2.5V | 08:18:31 | 01:44:06 | 00:00:00 | |
| AA1-15 | 2026-08-31 11:15:43 | 53.14669 | 8.19652 | 55° | 88km/h | 10423m | -12m/s | -47.5°C | 7.6% | 249.8hPa | 2.5V | 08:18:31 | 01:44:05 | 00:00:00 | |
| DL1XH-west | 2026-08-31 11:15:41 | 53.14643 | 8.19592 | 54° | 88km/h | 10446m | -12.5m/s | -47.4°C | 7% | 248.9hPa | 2.6V | 08:18:31 | 01:44:03 | 00:00:00 | |
| DB0DAN | 2026-08-31 11:15:40 | 53.14630 | 8.19562 | 54° | 82km/h | 10459m | -12.9m/s | -47.4°C | 5.7% | 248.41hPa | 2.6V | 00:00:00 | 00:00:00 | 00:00:00 | |
| BIOWL1-15 | 2026-08-31 11:15:38 | 53.14443 | 8.19133 | 53° | 77km/h | 10652m | -13.1m/s | -45.5°C | 3.1% | 241.3hPa | 2.6V | 08:18:31 | 01:43:46 | 00:00:00 | |
| DL1XH1-15 | 2026-08-31 11:15:37 | 53.14533 | 8.19343 | 53° | 75km/h | 10557m | -12.2m/s | -46.3°C | 5.9% | 244.8hPa | 2.5V | 08:18:19 | 01:43:54 | 00:00:00 | |
| DF8AY | 2026-08-31 11:15:36 | 53.14580 | 8.19448 | 53° | 80km/h | 10510m | -12.2m/s | -46.4°C | 4.9% | 246.6hPa | 2.6V | 08:18:31 | 01:43:58 | 00:00:00 | |
| DO2JMG | 2026-08-31 11:15:33 | 53.14545 | 8.19369 | 53° | 77km/h | 10545m | -12.3m/s | -46.4°C | 4.4% | 245.3hPa | 2.5V | 08:18:31 | 01:43:55 | 00:00:00 | |
| AA1-15 | 2026-08-31 11:15:32 | 53.14533 | 8.19343 | 54° | 75km/h | 10557m | -12.2m/s | -46.3°C | 4.1% | 244.8hPa | 2.5V | 08:18:31 | 01:43:54 | 00:00:00 | |
| DD8BA-10 | 2026-08-31 11:15:31 | 53.14522 | 8.19317 | 55° | 77km/h | 10569m | -11.9m/s | -46.0°C | 5.7% | 244.3hPa | 2.5V | 00:00:00 | 00:00:00 | 00:00:00 | |
| DL1XH-15 | 2026-08-31 11:15:30 | 53.14455 | 8.19160 | 54° | 78km/h | 10639m | -12.6m/s | -45.5°C | 5% | 241.7hPa | 2.6V | 08:18:26 | 01:43:47 | 00:00:00 | |
| DL1XH-west | 2026-08-31 11:15:30 | 53.14511 | 8.19292 | 54° | 75km/h | 10581m | -11.9m/s | -45.9°C | 3.7% | 243.9hPa | 2.6V | 08:18:31 | 01:43:52 | 00:00:00 | |
| BIOWL1-15 | 2026-08-31 11:15:28 | 53.14432 | 8.19108 | 52° | 77km/h | 10664m | -12.9m/s | -45.6°C | 3.1% | 240.8hPa | 2.6V | 08:18:31 | 01:43:45 | 00:00:00 | |
| DB0DAN | 2026-08-31 11:15:25 | 53.14455 | 8.19160 | 54° | 75km/h | 10639m | -12.6m/s | -45.5°C | 3.1% | 241.7hPa | 2.6V | 00:00:00 | 00:00:00 | 00:00:00 | |
| DL1XH1-15 | 2026-08-31 11:15:24 | 53.14420 | 8.19082 | 51° | 75km/h | 10677m | -12.8m/s | -45.7°C | 5.2% | 240.4hPa | 2.5V | 08:18:29 | 01:43:44 | 00:00:00 | |
| DO2JMG | 2026-08-31 11:15:22 | 53.14420 | 8.19082 | 52° | 75km/h | 10677m | -12.8m/s | -45.7°C | 3.2% | 240.4hPa | 2.5V | 08:18:31 | 01:43:44 | 00:00:00 | |
| DL4BBY-15 | 2026-08-31 11:15:22 | 53.14420 | 8.19082 | 52° | 77km/h | 10677m | -12.8m/s | -45.0°C | 0% | 0hPa | 2.6V | 00:00:00 | 00:00:00 | 00:00:00 | |
| DM0DOS-11 | 2026-08-31 11:15:21 | 53.14386 | 8.19007 | 54° | 75km/h | 10715m | -12.1m/s | -46°C | 5.2% | 239hPa | 2.6V | 08:18:32 | 01:43:41 | 00:00:00 | |
| AA1-15 | 2026-08-31 11:15:21 | 53.14409 | 8.19057 | 53° | 75km/h | 10690m | -12.8m/s | -45.9°C | 3.1% | 239.9hPa | 2.5V | 08:18:31 | 01:43:43 | 00:00:00 | |
| DL1XH-west | 2026-08-31 11:15:20 | 53.14387 | 8.19007 | 55° | 75km/h | 10715m | -12.1m/s | -46°C | 3.2% | 239hPa | 2.6V | 08:19:22 | 01:43:41 | 00:00:00 | |
| DL4XJ-10 | 2026-08-31 11:15:20 | 53.14386 | 8.19007 | 55° | 77km/h | 10715m | -12.1m/s | -45.3°C | 0% | 0hPa | 2.5V | 00:00:00 | 00:00:00 | 00:00:00 | |
| DL1XH-15 | 2026-08-31 11:15:19 | 53.14343 | 8.18903 | 52° | 77km/h | 10762m | -12.9m/s | -46°C | 5.1% | 237.2hPa | 2.5V | 08:18:36 | 01:43:37 | 00:00:00 | |
| DL3AQ-11 | 2026-08-31 11:15:19 | 53.14365 | 8.18955 | 55° | 75km/h | 10739m | -12.6m/s | -46.1°C | 3.1% | 238.1hPa | 2.6V | 00:00:00 | 00:00:00 | 00:00:00 | |
| DL1XH1-15 | 2026-08-31 11:15:18 | 53.14307 | 8.18829 | 48° | 75km/h | 10801m | -13.3m/s | -46.1°C | 5% | 235.9hPa | 2.6V | 08:18:39 | 01:43:34 | 00:00:00 | |
| BIOWL1-15 | 2026-08-31 11:15:17 | 53.14343 | 8.18903 | 53° | 77km/h | 10762m | -12.9m/s | -46°C | 3.1% | 237.2hPa | 2.5V | 08:19:22 | 01:43:37 | 00:00:00 | |
| DF8AY | 2026-08-31 11:15:13 | 53.14319 | 8.18853 | 49° | 77km/h | 10788m | -13.4m/s | -46.1°C | 2.9% | 236.3hPa | 2.6V | 08:21:04 | 01:43:35 | 00:00:00 | |
| DO2JMG | 2026-08-31 11:15:11 | 53.14294 | 8.18805 | 48° | 77km/h | 10814m | -13.4m/s | -46.1°C | 2.6% | 235.4hPa | 2.5V | 08:19:22 | 01:43:33 | 00:00:00 | |
| DM0DOS-11 | 2026-08-31 11:15:11 | 53.14268 | 8.18757 | 47° | 77km/h | 10840m | -13.2m/s | -45.9°C | 4.4% | 234.6hPa | 2.5V | 08:18:42 | 01:43:31 | 00:00:00 | |
| DB0DAN | 2026-08-31 11:15:10 | 53.14281 | 8.18781 | 48° | 73km/h | 10827m | -13.1m/s | -46°C | 2.7% | 234.98hPa | 2.5V | 00:00:00 | 00:00:00 | 00:00:00 | |
| AA1-15 | 2026-08-31 11:15:10 | 53.14281 | 8.18781 | 48° | 77km/h | 10827m | -13.1m/s | -46°C | 2.4% | 235hPa | 2.5V | 08:19:22 | 01:43:32 | 00:00:00 | |
| DL1XH-west | 2026-08-31 11:15:08 | 53.14255 | 8.18733 | 48° | 77km/h | 10852m | -13.1m/s | -45.9°C | 1.8% | 234.1hPa | 2.6V | 08:19:22 | 01:43:30 | 00:00:00 | |
| BIOWL1-15 | 2026-08-31 11:15:05 | 53.14215 | 8.18661 | 46° | 77km/h | 10891m | -13m/s | -45.8°C | 1.2% | 232.8hPa | 2.5V | 08:19:22 | 01:43:27 | 00:00:00 | |
| DF8AY | 2026-08-31 11:15:02 | 53.14176 | 8.18590 | 50° | 77km/h | 10930m | -12.7m/s | -45.6°C | 1% | 231.5hPa | 2.6V | 08:21:04 | 01:43:24 | 00:00:00 | |
| DO2JMG | 2026-08-31 11:15:00 | 53.14151 | 8.18539 | 52° | 78km/h | 10955m | -12.6m/s | -45.5°C | 1% | 230.7hPa | 2.5V | 08:19:22 | 01:43:22 | 00:00:00 | |
| DL1XH-west | 2026-08-31 11:14:57 | 53.14115 | 8.18460 | 54° | 78km/h | 10993m | -12.5m/s | -45.5°C | 0.9% | 229.4hPa | 2.6V | 08:19:22 | 01:43:19 | 00:00:00 | |
| DL8OAI-8 | 2026-08-31 11:14:56 | 53.14115 | 8.18460 | 55° | 78km/h | 10993m | -12.5m/s | -45.5°C | 1.8% | 229.4hPa | 2.5V | 08:19:00 | 00:00:00 | 00:00:00 | |
| DB0DAN | 2026-08-31 11:14:55 | 53.14091 | 8.18405 | 56° | 77km/h | 11018m | -12.2m/s | -45.1°C | 1.7% | 228.52hPa | 2.5V | 00:00:00 | 00:00:00 | 00:00:00 | |
| BIOWL1-15 | 2026-08-31 11:14:54 | 53.14080 | 8.18377 | 56° | 80km/h | 11029m | -12.3m/s | -45°C | 0.7% | 228.1hPa | 2.5V | 08:19:22 | 01:43:16 | 00:00:00 | |
| DD1CC3-15 | 2026-08-31 11:14:53 | 53.14080 | 8.18377 | 57° | 80km/h | 11029m | -12.3m/s | -45.0°C | 1.7% | 228.1hPa | 2.5V | 08:19:00 | 00:00:00 | 00:00:00 | |
| DL4BBY-15 | 2026-08-31 11:14:52 | 53.14056 | 8.18320 | 55° | 75km/h | 11054m | -13.1m/s | -44.3°C | 0% | 0hPa | 2.5V | 00:00:00 | 00:00:00 | 00:00:00 | |
| DM0DOS-11 | 2026-08-31 11:14:51 | 53.14021 | 8.18237 | 53° | 78km/h | 11093m | -13m/s | -45.2°C | 3.5% | 226hPa | 2.5V | 08:19:02 | 01:43:11 | 00:00:00 | |
| BUE01 | 2026-08-31 11:14:51 | 53.14032 | 8.18264 | 53° | 78km/h | 11081m | -13.2m/s | -45.2°C | 1.7% | 226.3hPa | 2.6V | 00:00:00 | 00:00:00 | 00:00:00 | |
| DL1XH-15 | 2026-08-31 11:14:50 | 53.13977 | 8.18128 | 57° | 78km/h | 11143m | -12.7m/s | -44.9°C | 3.3% | 224.2hPa | 2.6V | 08:19:06 | 01:43:07 | 00:00:00 | |
| AA1-15 | 2026-08-31 11:14:50 | 53.14032 | 8.18264 | 54° | 80km/h | 11081m | -13.2m/s | -45.2°C | 0.7% | 226.3hPa | 2.6V | 08:20:13 | 01:43:12 | 00:00:00 | |
| DO2JMG | 2026-08-31 11:14:49 | 53.14021 | 8.18237 | 54° | 78km/h | 11094m | -13m/s | -45.2°C | 0.8% | 226hPa | 2.5V | 08:19:22 | 01:43:11 | 00:00:00 | |
| DL1XH-west | 2026-08-31 11:14:46 | 53.13988 | 8.18156 | 58° | 78km/h | 11132m | -12.8m/s | -44.9°C | 0.6% | 224.6hPa | 2.6V | 08:19:22 | 01:43:08 | 00:00:00 | |
| DF8AY | 2026-08-31 11:14:43 | 53.13955 | 8.18073 | 56° | 78km/h | 11170m | -13.2m/s | -45°C | 0.6% | 223.4hPa | 2.5V | 08:21:04 | 01:43:05 | 00:00:00 | |
| DM0DOS-11 | 2026-08-31 11:14:41 | 53.13913 | 8.17969 | 57° | 73km/h | 11221m | -12.7m/s | -44.9°C | 3.3% | 221.7hPa | 2.6V | 08:19:12 | 01:43:01 | 00:00:00 | |
| DB0DAN | 2026-08-31 11:14:40 | 53.13923 | 8.17995 | 56° | 69km/h | 11208m | -13.1m/s | -44.9°C | 1.5% | 222.07hPa | 2.6V | 00:00:00 | 00:00:00 | 00:00:00 | |
| DO2JMG | 2026-08-31 11:14:39 | 53.13913 | 8.17969 | 58° | 73km/h | 11221m | -12.7m/s | -44.9°C | 0.5% | 221.7hPa | 2.6V | 08:19:22 | 01:43:01 | 00:00:00 | |
| DL1XH-15 | 2026-08-31 11:14:37 | 53.13874 | 8.17859 | 58° | 77km/h | 11271m | -13.1m/s | -44.7°C | 3.3% | 219.9hPa | 2.6V | 08:19:16 | 01:42:57 | 00:00:00 | |
| DL1XH1-15 | 2026-08-31 11:14:37 | 53.13844 | 8.17778 | 58° | 73km/h | 11311m | -13.2m/s | -44.5°C | 3.3% | 218.7hPa | 2.5V | 08:19:19 | 01:42:54 | 00:00:00 | |
| DL1XH-west | 2026-08-31 11:14:36 | 53.13884 | 8.17887 | 60° | 78km/h | 11258m | -13.1m/s | -44.7°C | 0.5% | 220.4hPa | 2.5V | 08:19:22 | 01:42:58 | 00:00:00 | |
| BIOWL1-15 | 2026-08-31 11:14:32 | 53.13825 | 8.17725 | 62° | 73km/h | 11338m | -12.6m/s | -44.3°C | 0.5% | 217.8hPa | 2.6V | 08:19:22 | 01:42:52 | 00:00:00 | |
| DO9LL-15 | 2026-08-31 11:14:32 | 53.13843 | 8.17778 | 59° | 69km/h | 11312m | -13.1m/s | -44.5°C | 3.3% | 218.6hPa | 2.6V | 00:00:00 | 01:42:54 | 00:00:00 | |
| DM0DOS-11 | 2026-08-31 11:14:31 | 53.13816 | 8.17698 | 60° | 73km/h | 11350m | -12.8m/s | -44.3°C | 3.2% | 217.4hPa | 2.6V | 08:19:22 | 01:42:51 | 00:00:00 | |
| DD8BA-10 | 2026-08-31 11:14:31 | 53.13834 | 8.17752 | 61° | 69km/h | 11325m | -12.5m/s | -44.4°C | 3.2% | 218.2hPa | 2.5V | 00:00:00 | 00:00:00 | 00:00:00 | |
| DL1XH-15 | 2026-08-31 11:14:30 | 53.13778 | 8.17597 | 54° | 68km/h | 11402m | -13.2m/s | -44.3°C | 3.2% | 215.7hPa | 2.5V | 08:19:26 | 01:42:47 | 00:00:00 | |
| DO2JMG | 2026-08-31 11:14:28 | 53.13807 | 8.17671 | 59° | 73km/h | 11363m | -13.1m/s | -44.2°C | 0.5% | 217.1hPa | 2.6V | 08:20:13 | 01:42:50 | 00:00:00 | |
| DL1XH-west | 2026-08-31 11:14:26 | 53.13787 | 8.17621 | 55° | 69km/h | 11389m | -13.2m/s | -44.3°C | 0.5% | 216.2hPa | 2.5V | 08:20:13 | 01:42:48 | 00:00:00 | |
| DB0DAN | 2026-08-31 11:14:25 | 53.13778 | 8.17597 | 55° | 64km/h | 11403m | -13.2m/s | -44.3°C | 1.5% | 215.74hPa | 2.5V | 00:00:00 | 00:00:00 | 00:00:00 | |
| DL4BBY-15 | 2026-08-31 11:14:22 | 53.13750 | 8.17527 | 59° | 68km/h | 11441m | -12.4m/s | -43.1°C | 0% | 0hPa | 2.6V | 00:00:00 | 00:00:00 | 00:00:00 | |
| DM0DOS-11 | 2026-08-31 11:14:21 | 53.13724 | 8.17456 | 58° | 68km/h | 11478m | -13.2m/s | -43.6°C | 3% | 213.3hPa | 2.6V | 08:19:32 | 01:42:41 | 00:00:00 | |
| BIOWL1-15 | 2026-08-31 11:14:21 | 53.13741 | 8.17504 | 59° | 66km/h | 11453m | -12.4m/s | -43.7°C | 0.3% | 214.1hPa | 2.5V | 08:20:13 | 01:42:43 | 00:00:00 | |
| DO2JMG | 2026-08-31 11:14:18 | 53.13715 | 8.17432 | 57° | 68km/h | 11491m | -13.4m/s | -43.7°C | 0.3% | 212.9hPa | 2.6V | 08:20:13 | 01:42:40 | 00:00:00 | |
| DJ2DS-15 | 2026-08-31 11:14:18 | 53.13706 | 8.17409 | 56° | 64km/h | 11504m | -13.5m/s | -43.8°C | 1.4% | 212.5hPa | 2.5V | 00:00:00 | 00:00:00 | 00:00:00 | |
| DL1XH-15 | 2026-08-31 11:14:17 | 53.13689 | 8.17364 | 59° | 64km/h | 11531m | -13.1m/s | -43.8°C | 3% | 211.7hPa | 2.5V | 08:19:36 | 01:42:37 | 00:00:00 | |
| AA1-15 | 2026-08-31 11:14:17 | 53.13706 | 8.17409 | 57° | 66km/h | 11504m | -13.5m/s | -43.8°C | 0.3% | 212.5hPa | 2.6V | 08:20:13 | 01:42:39 | 00:00:00 | |
| DL1XH-west | 2026-08-31 11:14:15 | 53.13688 | 8.17364 | 59° | 64km/h | 11531m | -13.1m/s | -43.8°C | 0.2% | 211.7hPa | 2.5V | 08:20:13 | 01:42:37 | 00:00:00 | |
| DL8OAI-8 | 2026-08-31 11:14:14 | 53.13688 | 8.17364 | 60° | 64km/h | 11531m | -13.1m/s | -43.8°C | 1.4% | 211.7hPa | 2.5V | 08:20:00 | 00:00:00 | 00:00:00 | |
| DD1CC3-15 | 2026-08-31 11:14:12 | 53.13673 | 8.17317 | 63° | 66km/h | 11557m | -12.7m/s | -43.8°C | 1.4% | 210.8hPa | 2.5V | 08:20:00 | 00:00:00 | 00:00:00 | |
| DB0DAN | 2026-08-31 11:14:10 | 53.13649 | 8.17243 | 60° | 64km/h | 11595m | -13.4m/s | -44.1°C | 1.3% | 209.62hPa | 2.5V | 00:00:00 | 00:00:00 | 00:00:00 | |
| DM0DOS-11 | 2026-08-31 11:14:10 | 53.13640 | 8.17219 | 57° | 68km/h | 11608m | -13.4m/s | -44.1°C | 3% | 209.2hPa | 2.5V | 08:19:42 | 01:42:31 | 00:00:00 | |
| DO2JMG | 2026-08-31 11:14:07 | 53.13623 | 8.17172 | 59° | 66km/h | 11634m | -13m/s | -44.3°C | 0.2% | 208.4hPa | 2.6V | 08:20:13 | 01:42:29 | 00:00:00 | |
| AA1-15 | 2026-08-31 11:14:06 | 53.13614 | 8.17148 | 61° | 68km/h | 11647m | -12.8m/s | -44.3°C | 0.2% | 208hPa | 2.6V | 08:20:13 | 01:42:28 | 00:00:00 | |
| DL1XH-15 | 2026-08-31 11:14:05 | 53.13606 | 8.17123 | 62° | 69km/h | 11659m | -12.7m/s | -44.3°C | 3% | 207.6hPa | 2.5V | 08:19:46 | 01:42:27 | 00:00:00 | |
| DL1XH-west | 2026-08-31 11:14:05 | 53.13606 | 8.17123 | 62° | 69km/h | 11659m | -12.7m/s | -44.3°C | 0.2% | 207.6hPa | 2.5V | 08:20:13 | 01:42:27 | 00:00:00 | |
| DL1XH1-15 | 2026-08-31 11:14:04 | 53.13580 | 8.17045 | 59° | 69km/h | 11699m | -13.5m/s | -44.4°C | 3% | 206.4hPa | 2.6V | 08:19:49 | 01:42:24 | 00:00:00 | |
| HTAHTA | 2026-08-31 11:14:03 | 53.13580 | 8.17045 | 59° | 69km/h | 11699m | -13.5m/s | -44.4°C | 1.3% | 206.4hPa | 2.6V | 00:00:00 | 00:00:00 | 00:00:00 | |
| DO9LL-15 | 2026-08-31 11:14:02 | 53.13580 | 8.17045 | 60° | 68km/h | 11699m | -13.4m/s | -44.4°C | 3.0% | 206.3hPa | 2.6V | 00:00:00 | 01:42:24 | 00:00:00 | |
| DD8BA-10 | 2026-08-31 11:14:01 | 53.13571 | 8.17020 | 59° | 69km/h | 11712m | -13.1m/s | -44.4°C | 3.0% | 205.9hPa | 2.6V | 00:00:00 | 00:00:00 | 00:00:00 | |
| DL1XH-15 | 2026-08-31 11:14:00 | 53.13519 | 8.16867 | 59° | 71km/h | 11790m | -13.7m/s | -44.5°C | 3% | 203.6hPa | 2.6V | 08:19:56 | 01:42:17 | 00:00:00 | |
| BIOWL1-15 | 2026-08-31 11:13:58 | 53.13545 | 8.16946 | 62° | 69km/h | 11750m | -12.9m/s | -44.6°C | 0.3% | 204.8hPa | 2.5V | 08:20:13 | 01:42:20 | 00:00:00 | |
| DF5WG-10 | 2026-08-31 11:13:58 | 53.13545 | 8.16946 | 63° | 69km/h | 11751m | -12.8m/s | -44.6°C | 3.1% | 204.7hPa | 2.5V | 00:00:00 | 01:42:20 | 00:00:00 | |
| DL1XH1-15 | 2026-08-31 11:13:57 | 53.13492 | 8.16794 | 60° | 68km/h | 11830m | -13m/s | -44.5°C | 3% | 202.4hPa | 2.5V | 08:19:59 | 01:42:14 | 00:00:00 | |
| DO2JMG | 2026-08-31 11:13:56 | 53.13528 | 8.16893 | 61° | 71km/h | 11776m | -13.4m/s | -44.5°C | 0.3% | 204hPa | 2.6V | 08:20:13 | 01:42:18 | 00:00:00 | |
| AA1-15 | 2026-08-31 11:13:55 | 53.13519 | 8.16867 | 60° | 71km/h | 11790m | -13.7m/s | -44.5°C | 0.2% | 203.6hPa | 2.6V | 08:20:13 | 01:42:17 | 00:00:00 | |
| DL1XH-west | 2026-08-31 11:13:54 | 53.13510 | 8.16842 | 58° | 68km/h | 11804m | -13.4m/s | -44.4°C | 0.2% | 203.2hPa | 2.5V | 08:20:13 | 01:42:16 | 00:00:00 | |
| EDDB2-12 | 2026-08-31 11:13:53 | 53.13428 | 8.16626 | 57° | 66km/h | 11922m | -13.0m/s | -44.9°C | 1.3% | 199.6hPa | 2.6V | 00:00:00 | 00:00:00 | 00:00:00 | |
| DL4BBY-15 | 2026-08-31 11:13:52 | 53.13492 | 8.16793 | 61° | 69km/h | 11830m | -13.0m/s | -43.7°C | 0% | 0hPa | 2.6V | 00:00:00 | 00:00:00 | 00:00:00 | |
| DD8BA-10 | 2026-08-31 11:13:51 | 53.13484 | 8.16769 | 61° | 68km/h | 11843m | -13.3m/s | -44.5°C | 3.0% | 201.9hPa | 2.6V | 00:00:00 | 00:00:00 | 00:00:00 | |
| DL1XH-15 | 2026-08-31 11:13:50 | 53.13428 | 8.16626 | 57° | 66km/h | 11922m | -12.9m/s | -44.9°C | 3% | 199.6hPa | 2.6V | 08:20:06 | 01:42:07 | 00:00:00 | |
| BIOWL1-15 | 2026-08-31 11:13:47 | 53.13447 | 8.16672 | 55° | 68km/h | 11896m | -13.6m/s | -44.9°C | 0.2% | 200.4hPa | 2.5V | 08:20:13 | 01:42:09 | 00:00:00 | |
| DO2JMG | 2026-08-31 11:13:45 | 53.13428 | 8.16626 | 58° | 66km/h | 11922m | -13m/s | -44.9°C | 0.2% | 199.6hPa | 2.6V | 08:20:13 | 01:42:07 | 00:00:00 | |
| DL1XH-west | 2026-08-31 11:13:44 | 53.13419 | 8.16602 | 60° | 68km/h | 11935m | -13m/s | -45°C | 0.2% | 199.2hPa | 2.6V | 08:20:13 | 01:42:06 | 00:00:00 | |
| DF8AY | 2026-08-31 11:13:43 | 53.13410 | 8.16577 | 58° | 69km/h | 11948m | -13.3m/s | -45°C | 0.2% | 198.8hPa | 2.5V | 08:21:04 | 01:42:05 | 00:00:00 | |
| HSKMA3-T | 2026-08-31 11:13:42 | 53.13401 | 8.16553 | 56° | 68km/h | 11961m | -13.6m/s | -45°C | 0.2% | 198.4hPa | 2.5V | 08:22:46 | 01:42:04 | 00:00:00 | |
| DJ2DS-15 | 2026-08-31 11:13:42 | 53.13391 | 8.16529 | 54° | 66km/h | 11975m | -13.7m/s | -45.1°C | 1.3% | 198.0hPa | 2.5V | 00:00:00 | 00:00:00 | 00:00:00 | |
| DD8BA-10 | 2026-08-31 11:13:41 | 53.13391 | 8.16529 | 55° | 69km/h | 11975m | -13.6m/s | -45.0°C | 3.0% | 198.0hPa | 2.5V | 00:00:00 | 00:00:00 | 00:00:00 | |
| DL1XH-15 | 2026-08-31 11:13:40 | 53.13337 | 8.16379 | 58° | 71km/h | 12056m | -13.9m/s | -44.8°C | 3% | 195.6hPa | 2.5V | 08:20:16 | 01:41:57 | 00:00:00 | |
| DB0DAN | 2026-08-31 11:13:40 | 53.13382 | 8.16507 | 57° | 62km/h | 11988m | -13.6m/s | -45.1°C | 1.3% | 197.65hPa | 2.5V | 00:00:00 | 00:00:00 | 00:00:00 | |
| DL4XJ-10 | 2026-08-31 11:13:39 | 53.13373 | 8.16483 | 59° | 71km/h | 12002m | -13.5m/s | -44.3°C | 0% | 0hPa | 2.6V | 00:00:00 | 00:00:00 | 00:00:00 | |
| DF5WG-10 | 2026-08-31 11:13:38 | 53.13364 | 8.16457 | 61° | 73km/h | 12015m | -13.5m/s | -45.0°C | 3.0% | 196.8hPa | 2.6V | 00:00:00 | 01:42:00 | 00:00:00 | |
| DL1XH1-15 | 2026-08-31 11:13:37 | 53.13311 | 8.16300 | 64° | 73km/h | 12096m | -13.3m/s | -44.9°C | 3% | 194.4hPa | 2.6V | 08:20:19 | 01:41:54 | 00:00:00 | |
| BIOWL1-15 | 2026-08-31 11:13:36 | 53.13278 | 8.16190 | 62° | 71km/h | 12151m | -14.3m/s | -45.3°C | 0.2% | 192.8hPa | 2.6V | 08:21:04 | 01:41:50 | 00:00:00 | |
| DO2JMG | 2026-08-31 11:13:34 | 53.13328 | 8.16353 | 60° | 71km/h | 12070m | -13.6m/s | -44.8°C | 0.2% | 195.2hPa | 2.5V | 08:21:04 | 01:41:56 | 00:00:00 | |
| DL1XH-west | 2026-08-31 11:13:33 | 53.13319 | 8.16327 | 63° | 71km/h | 12083m | -13m/s | -44.9°C | 0.2% | 194.8hPa | 2.6V | 08:21:04 | 01:41:55 | 00:00:00 | |
| DK9SH | 2026-08-31 11:13:33 | 53.13328 | 8.16353 | 61° | 71km/h | 12070m | -13.6m/s | -44.8°C | 1.3% | 195.2hPa | 2.5V | 08:21:00 | 00:00:00 | 00:00:00 | |
| HTAHTA | 2026-08-31 11:13:32 | 53.13311 | 8.16300 | 64° | 73km/h | 12096m | -13.3m/s | -44.9°C | 1.3% | 194.4hPa | 2.5V | 00:00:00 | 00:00:00 | 00:00:00 | |
| DD8BA-10 | 2026-08-31 11:13:31 | 53.13303 | 8.16272 | 65° | 71km/h | 12109m | -13.7m/s | -45.0°C | 3.0% | 194.0hPa | 2.5V | 08:20:00 | 00:00:00 | 00:00:00 | |
| DL1XH-15 | 2026-08-31 11:13:30 | 53.13255 | 8.16108 | 65° | 73km/h | 12193m | -14.2m/s | -45.6°C | 3.1% | 191.6hPa | 2.5V | 08:20:26 | 01:41:47 | 00:00:00 | |
| BIOWL1-15 | 2026-08-31 11:13:28 | 53.13262 | 8.16136 | 66° | 73km/h | 12180m | -14m/s | -45.5°C | 0.3% | 192hPa | 2.6V | 08:21:04 | 01:41:48 | 00:00:00 | |
| DF5WG-10 | 2026-08-31 11:13:28 | 53.13278 | 8.16190 | 63° | 69km/h | 12152m | -14.2m/s | -45.3°C | 3.1% | 192.8hPa | 2.6V | 00:00:00 | 01:41:50 | 00:00:00 | |
| BIOWL7-15 | 2026-08-31 11:13:27 | 53.13278 | 8.16190 | 63° | 71km/h | 12152m | -14.3m/s | -45.3°C | 1.3% | 192.8hPa | 2.5V | 00:00:00 | 00:00:00 | 00:00:00 | |
| DB0DAN | 2026-08-31 11:13:25 | 53.13255 | 8.16108 | 65° | 69km/h | 12194m | -14.2m/s | -45.6°C | 1.3% | 191.64hPa | 2.5V | 00:00:00 | 00:00:00 | 00:00:00 | |
| DO2JMG | 2026-08-31 11:13:23 | 53.13239 | 8.16054 | 64° | 68km/h | 12222m | -14.3m/s | -45.8°C | 0.3% | 190.8hPa | 2.5V | 08:21:04 | 01:41:45 | 00:00:00 | |
| DL1XH1-15 | 2026-08-31 11:13:23 | 53.13232 | 8.16028 | 66° | 68km/h | 12236m | -14.2m/s | -45.8°C | 3.2% | 190.4hPa | 2.6V | 08:20:29 | 01:41:44 | 00:00:00 | |
| DL1XH-west | 2026-08-31 11:13:22 | 53.13232 | 8.16028 | 67° | 68km/h | 12236m | -14.2m/s | -45.8°C | 0.3% | 190.4hPa | 2.6V | 08:21:04 | 01:41:44 | 00:00:00 | |
| DL4BBY-15 | 2026-08-31 11:13:22 | 53.13232 | 8.16028 | 67° | 68km/h | 12236m | -14.1m/s | -45.1°C | 0% | 0hPa | 2.6V | 00:00:00 | 00:00:00 | 00:00:00 | |
| DD8BA-10 | 2026-08-31 11:13:21 | 53.13225 | 8.16002 | 69° | 64km/h | 12251m | -13.6m/s | -45.8°C | 3.2% | 190.0hPa | 2.6V | 00:00:00 | 00:00:00 | 00:00:00 | |
| DL1XH-15 | 2026-08-31 11:13:20 | 53.13189 | 8.15851 | 70° | 64km/h | 12337m | -14.1m/s | -45.9°C | 3.2% | 187.6hPa | 2.6V | 08:20:36 | 01:41:37 | 00:00:00 | |
| DL4XJ-10 | 2026-08-31 11:13:19 | 53.13213 | 8.15949 | 68° | 68km/h | 12279m | -14.4m/s | -45.2°C | 0% | 0hPa | 2.5V | 00:00:00 | 00:00:00 | 00:00:00 | |
| DL1XH1-15 | 2026-08-31 11:13:18 | 53.13171 | 8.15775 | 65° | 62km/h | 12380m | -14.4m/s | -45.6°C | 3.1% | 186.4hPa | 2.5V | 08:20:39 | 01:41:34 | 00:00:00 | |
| BIOWL1-15 | 2026-08-31 11:13:16 | 53.13159 | 8.15727 | 69° | 66km/h | 12408m | -14.1m/s | -45.6°C | 0.2% | 185.6hPa | 2.6V | 08:21:04 | 01:41:32 | 00:00:00 | |
| DF8AY | 2026-08-31 11:13:15 | 53.13189 | 8.15851 | 70° | 64km/h | 12337m | -14.1m/s | -45.9°C | 0.3% | 187.7hPa | 2.6V | 08:21:04 | 01:41:37 | 00:00:00 | |
| DO2JMG | 2026-08-31 11:13:13 | 53.13177 | 8.15800 | 68° | 64km/h | 12365m | -14.7m/s | -45.8°C | 0.3% | 186.8hPa | 2.5V | 08:21:04 | 01:41:35 | 00:00:00 | |
| AA1-15 | 2026-08-31 11:13:12 | 53.13171 | 8.15775 | 66° | 62km/h | 12380m | -14.4m/s | -45.6°C | 0.3% | 186.4hPa | 2.5V | 08:21:04 | 01:41:34 | 00:00:00 | |
| DM0DOS-11 | 2026-08-31 11:13:11 | 53.13153 | 8.15701 | 67° | 69km/h | 12421m | -14.2m/s | -45.6°C | 3% | 185.2hPa | 2.5V | 08:20:42 | 01:41:31 | 00:00:00 | |
| DB0DAN | 2026-08-31 11:13:10 | 53.13159 | 8.15727 | 69° | 62km/h | 12408m | -14.1m/s | -45.6°C | 1.3% | 185.64hPa | 2.6V | 00:00:00 | 00:00:00 | 00:00:00 | |
| DJ2DS-15 | 2026-08-31 11:13:09 | 53.13153 | 8.15701 | 68° | 69km/h | 12421m | -14.2m/s | -45.5°C | 3.0% | 185.2hPa | 2.6V | 00:00:00 | 01:41:31 | 00:00:00 | |
| DF5WG-10 | 2026-08-31 11:13:08 | 53.13145 | 8.15674 | 66° | 69km/h | 12436m | -14.6m/s | -45.6°C | 3.1% | 184.8hPa | 2.6V | 00:00:00 | 01:41:30 | 00:00:00 | |
| DL1XH-15 | 2026-08-31 11:13:05 | 53.13123 | 8.15597 | 65° | 69km/h | 12478m | -14.1m/s | -45.9°C | 3.1% | 183.7hPa | 2.6V | 08:20:46 | 01:41:27 | 00:00:00 | |
| DF8AY | 2026-08-31 11:13:04 | 53.13116 | 8.15569 | 67° | 73km/h | 12493m | -13.9m/s | -46°C | 0.3% | 183.2hPa | 2.6V | 08:21:04 | 01:41:26 | 00:00:00 | |
| DL1XH1-15 | 2026-08-31 11:13:03 | 53.13101 | 8.15514 | 63° | 69km/h | 12522m | -14.9m/s | -46.2°C | 3.2% | 182.4hPa | 2.5V | 08:20:49 | 01:41:24 | 00:00:00 | |
| DO2JMG | 2026-08-31 11:13:03 | 53.13109 | 8.15541 | 66° | 73km/h | 12507m | -14.8m/s | -46.1°C | 0.3% | 182.8hPa | 2.5V | 08:21:04 | 01:41:25 | 00:00:00 | |
| DL1XH-west | 2026-08-31 11:13:01 | 53.13093 | 8.15488 | 66° | 68km/h | 12537m | -14.3m/s | -46.2°C | 0.4% | 182.1hPa | 2.5V | 08:21:04 | 01:41:23 | 00:00:00 | |
| DL4XJ-10 | 2026-08-31 11:12:59 | 53.13079 | 8.15434 | 65° | 66km/h | 12566m | -14.5m/s | -45.6°C | 0% | 0hPa | 2.5V | 00:00:00 | 00:00:00 | 00:00:00 | |
| DF5WG-10 | 2026-08-31 11:12:58 | 53.13071 | 8.15407 | 63° | 69km/h | 12581m | -14.5m/s | -46.4°C | 3.3% | 180.8hPa | 2.5V | 08:20:00 | 01:41:20 | 00:00:00 | |
| DL1XH1-15 | 2026-08-31 11:12:57 | 53.13029 | 8.15247 | 65° | 69km/h | 12667m | -15.1m/s | -46.3°C | 3.2% | 178.5hPa | 2.5V | 08:20:59 | 01:41:14 | 00:00:00 | |
| DL1XH-15 | 2026-08-31 11:12:55 | 53.13050 | 8.15327 | 65° | 69km/h | 12623m | -15.1m/s | -46°C | 3.1% | 179.7hPa | 2.6V | 08:20:56 | 01:41:17 | 00:00:00 | |
| DO2JMG | 2026-08-31 11:12:52 | 53.13029 | 8.15247 | 66° | 69km/h | 12667m | -15.1m/s | -46.3°C | 0.3% | 178.5hPa | 2.5V | 08:21:04 | 01:41:14 | 00:00:00 | |
| DL4BBY-15 | 2026-08-31 11:12:52 | 53.13029 | 8.15247 | 66° | 60km/h | 12666m | -15.1m/s | -45.6°C | 0% | 0hPa | 2.5V | 00:00:00 | 00:00:00 | 00:00:00 | |
| DM0DOS-11 | 2026-08-31 11:12:51 | 53.13008 | 8.15169 | 65° | 68km/h | 12711m | -14.9m/s | -46.6°C | 3.2% | 177.3hPa | 2.5V | 08:21:02 | 01:41:11 | 00:00:00 | |
| DL1XH-west | 2026-08-31 11:12:50 | 53.13015 | 8.15195 | 68° | 68km/h | 12697m | -14.2m/s | -46.5°C | 0.3% | 177.7hPa | 2.5V | 08:21:04 | 01:41:12 | 00:00:00 | |
| SONDE2-11 | 2026-08-31 11:12:50 | 53.13015 | 8.15195 | 67° | 66km/h | 12697m | -14.2m/s | -46.5°C | 1.3% | 177.7hPa | 2.5V | 00:00:00 | 00:00:00 | 00:00:00 | |
| BUE01 | 2026-08-31 11:12:46 | 53.12986 | 8.15094 | 65° | 66km/h | 12758m | -14.5m/s | -46.5°C | 1.3% | 176.2hPa | 2.5V | 00:00:00 | 00:00:00 | 00:00:00 | |
| DF8AY | 2026-08-31 11:12:44 | 53.12964 | 8.15021 | 65° | 64km/h | 12803m | -14.4m/s | -46.4°C | 0.4% | 175hPa | 2.5V | 08:21:55 | 01:41:05 | 00:00:00 | |
| DL1XH1-15 | 2026-08-31 11:12:44 | 53.12957 | 8.14997 | 62° | 64km/h | 12817m | -15m/s | -46.4°C | 3.2% | 174.6hPa | 2.6V | 08:21:09 | 01:41:04 | 00:00:00 | |
| DO2JMG | 2026-08-31 11:12:42 | 53.12957 | 8.14997 | 63° | 64km/h | 12817m | -15m/s | -46.4°C | 0.4% | 174.6hPa | 2.6V | 08:21:55 | 01:41:04 | 00:00:00 | |
| BIOWL1-15 | 2026-08-31 11:12:41 | 53.12950 | 8.14975 | 61° | 58km/h | 12832m | -14.9m/s | -46.4°C | 0.4% | 174.2hPa | 2.6V | 08:21:55 | 01:41:03 | 00:00:00 | |
| DB0DAN | 2026-08-31 11:12:40 | 53.12943 | 8.14952 | 66° | 57km/h | 12847m | -14.3m/s | -46.4°C | 1.3% | 173.81hPa | 2.5V | 00:00:00 | 00:00:00 | 00:00:00 | |
| DL1XH-west | 2026-08-31 11:12:40 | 53.12943 | 8.14952 | 66° | 60km/h | 12847m | -14.3m/s | -46.4°C | 0.4% | 173.8hPa | 2.5V | 08:21:55 | 01:41:02 | 00:00:00 | |
| DL4XJ-10 | 2026-08-31 11:12:39 | 53.12936 | 8.14929 | 63° | 57km/h | 12863m | -15.0m/s | -45.7°C | 0% | 0hPa | 2.5V | 00:00:00 | 00:00:00 | 00:00:00 | |
| DF5WG-10 | 2026-08-31 11:12:38 | 53.12929 | 8.14908 | 62° | 57km/h | 12878m | -15.0m/s | -46.5°C | 3.2% | 173.0hPa | 2.5V | 00:00:00 | 01:41:00 | 00:00:00 | |
| DL1XH1-15 | 2026-08-31 11:12:37 | 53.12888 | 8.14783 | 59° | 55km/h | 12967m | -15.1m/s | -47.4°C | 3.4% | 170.7hPa | 2.5V | 08:21:19 | 01:40:54 | 00:00:00 | |
| DF8AY | 2026-08-31 11:12:32 | 53.12888 | 8.14783 | 60° | 55km/h | 12967m | -15.1m/s | -47.4°C | 0.5% | 170.7hPa | 2.5V | 08:21:55 | 01:40:54 | 00:00:00 | |
| DM0DOS-11 | 2026-08-31 11:12:31 | 53.12867 | 8.14724 | 58° | 55km/h | 13012m | -15.1m/s | -47.8°C | 3.5% | 169.6hPa | 2.5V | 08:21:22 | 01:40:51 | 00:00:00 | |
| DO2JMG | 2026-08-31 11:12:31 | 53.12882 | 8.14763 | 61° | 58km/h | 12982m | -15.1m/s | -47.5°C | 0.5% | 170.3hPa | 2.6V | 08:21:55 | 01:40:53 | 00:00:00 | |
| DL1XH-west | 2026-08-31 11:12:30 | 53.12874 | 8.14743 | 56° | 55km/h | 12997m | -15.7m/s | -47.7°C | 0.5% | 169.9hPa | 2.6V | 08:21:55 | 01:40:52 | 00:00:00 | |
| AA1-15 | 2026-08-31 11:12:29 | 53.12867 | 8.14724 | 59° | 55km/h | 13012m | -15.1m/s | -47.8°C | 0.6% | 169.6hPa | 2.5V | 08:22:46 | 01:40:51 | 00:00:00 | |
| DJ2DS-15 | 2026-08-31 11:12:28 | 53.12859 | 8.14703 | 58° | 62km/h | 13027m | -15.1m/s | -47.8°C | 3.5% | 169.1hPa | 2.5V | 08:21:00 | 01:40:50 | 00:00:00 | |
| BIOWL9-15 | 2026-08-31 11:12:27 | 53.12851 | 8.14684 | 53° | 55km/h | 13042m | -15.5m/s | -47.9°C | 1.4% | 168.8hPa | 2.5V | 00:00:00 | 00:00:00 | 00:00:00 | |
| GOEST3-10 | 2026-08-31 11:12:26 | 53.12843 | 8.14665 | 57° | 58km/h | 13057m | -14.8m/s | -48.0°C | 3.6% | 168.3hPa | 2.5V | 00:00:00 | 01:40:48 | 00:00:00 | |
| DL3AQ-11 | 2026-08-31 11:12:25 | 53.12826 | 8.14625 | 50° | 57km/h | 13087m | -15.5m/s | -48.0°C | 1.4% | 167.6hPa | 2.5V | 00:00:00 | 00:00:00 | 00:00:00 | |
| DL1XH1-15 | 2026-08-31 11:12:23 | 53.12808 | 8.14586 | 52° | 60km/h | 13117m | -15.6m/s | -48°C | 3.5% | 166.8hPa | 2.5V | 08:21:29 | 01:40:44 | 00:00:00 | |
| HSKMA3-T | 2026-08-31 11:12:23 | 53.12817 | 8.14606 | 55° | 60km/h | 13102m | -15.1m/s | -48°C | 0.6% | 167.2hPa | 2.5V | 08:22:46 | 01:40:45 | 00:00:00 | |
| DF8AY | 2026-08-31 11:12:22 | 53.12808 | 8.14586 | 52° | 60km/h | 13117m | -15.6m/s | -48°C | 0.5% | 166.8hPa | 2.5V | 08:21:55 | 01:40:44 | 00:00:00 | |
| DL4BBY-15 | 2026-08-31 11:12:22 | 53.12808 | 8.14586 | 53° | 64km/h | 13117m | -15.6m/s | -47.3°C | 0% | 0hPa | 2.6V | 00:00:00 | 00:00:00 | 00:00:00 | |
| DD8BA-10 | 2026-08-31 11:12:21 | 53.12798 | 8.14566 | 50° | 62km/h | 13133m | -15.2m/s | -47.9°C | 3.5% | 166.4hPa | 2.6V | 00:00:00 | 00:00:00 | 00:00:00 | |
| DM0DOS-11 | 2026-08-31 11:12:20 | 53.12779 | 8.14526 | 49° | 62km/h | 13162m | -15.8m/s | -47.9°C | 3.6% | 165.7hPa | 2.6V | 08:21:32 | 01:40:41 | 00:00:00 | |
| DO2JMG | 2026-08-31 11:12:20 | 53.12789 | 8.14546 | 54° | 62km/h | 13148m | -15m/s | -47.9°C | 0.6% | 166.1hPa | 2.6V | 08:21:55 | 01:40:42 | 00:00:00 | |
| BIOWL1-15 | 2026-08-31 11:12:19 | 53.12759 | 8.14486 | 52° | 64km/h | 13193m | -15m/s | -47.8°C | 0.5% | 164.9hPa | 2.5V | 08:21:55 | 01:40:39 | 00:00:00 | |
| DL1XH-west | 2026-08-31 11:12:19 | 53.12779 | 8.14526 | 50° | 62km/h | 13162m | -15.9m/s | -47.9°C | 0.6% | 165.7hPa | 2.6V | 08:21:55 | 01:40:41 | 00:00:00 | |
| AA1-15 | 2026-08-31 11:12:18 | 53.12769 | 8.14506 | 50° | 60km/h | 13178m | -15.3m/s | -47.8°C | 0.6% | 165.3hPa | 2.5V | 08:22:46 | 01:40:40 | 00:00:00 | |
| DF5WG-10 | 2026-08-31 11:12:18 | 53.12769 | 8.14506 | 50° | 64km/h | 13178m | -15.2m/s | -47.8°C | 3.5% | 165.3hPa | 2.5V | 00:00:00 | 01:40:40 | 00:00:00 | |
| DL1XH1-15 | 2026-08-31 11:12:17 | 53.12708 | 8.14383 | 53° | 66km/h | 13269m | -15.2m/s | -47.8°C | 3.5% | 163hPa | 2.5V | 08:21:39 | 01:40:34 | 00:00:00 | |
| DF8AY | 2026-08-31 11:12:11 | 53.12698 | 8.14361 | 50° | 66km/h | 13284m | -16.2m/s | -47.8°C | 0.5% | 162.6hPa | 2.5V | 08:21:55 | 01:40:33 | 00:00:00 | |
| DD8BA-10 | 2026-08-31 11:12:11 | 53.12698 | 8.14361 | 51° | 66km/h | 13284m | -16.2m/s | -47.8°C | 3.5% | 162.6hPa | 2.6V | 00:00:00 | 00:00:00 | 00:00:00 | |
| DM0DOS-11 | 2026-08-31 11:12:10 | 53.12678 | 8.14317 | 55° | 68km/h | 13315m | -15.2m/s | -47.6°C | 3.5% | 161.8hPa | 2.6V | 08:21:42 | 01:40:31 | 00:00:00 | |
| HSKMA3-T | 2026-08-31 11:12:10 | 53.12687 | 8.14339 | 53° | 64km/h | 13300m | -15.4m/s | -47.8°C | 0.5% | 162.2hPa | 2.5V | 08:22:46 | 01:40:32 | 00:00:00 | |
| BIOWL1-15 | 2026-08-31 11:12:10 | 53.12668 | 8.14294 | 54° | 66km/h | 13330m | -15.7m/s | -47.6°C | 0.5% | 161.5hPa | 2.6V | 08:21:55 | 01:40:30 | 00:00:00 | |
| DL1XH-west | 2026-08-31 11:12:09 | 53.12678 | 8.14317 | 56° | 68km/h | 13315m | -15.2m/s | -47.6°C | 0.6% | 161.8hPa | 2.6V | 08:21:55 | 01:40:31 | 00:00:00 | |
| AA1-15 | 2026-08-31 11:12:07 | 53.12659 | 8.14271 | 58° | 66km/h | 13345m | -15.2m/s | -47.7°C | 0.5% | 161.1hPa | 2.5V | 08:22:46 | 01:40:29 | 00:00:00 | |
| DF8AY | 2026-08-31 11:12:01 | 53.12608 | 8.14125 | 62° | 68km/h | 13437m | -15.7m/s | -47.4°C | 0.5% | 158.9hPa | 2.5V | 08:21:55 | 01:40:23 | 00:00:00 | |
| DD8BA-10 | 2026-08-31 11:12:01 | 53.12608 | 8.14125 | 62° | 64km/h | 13437m | -15.7m/s | -47.3°C | 3.4% | 158.8hPa | 2.5V | 08:21:00 | 00:00:00 | 00:00:00 | |
| DL1XH-15 | 2026-08-31 11:12:00 | 53.12564 | 8.13980 | 60° | 64km/h | 13529m | -15.7m/s | -47.2°C | 3.5% | 156.7hPa | 2.5V | 08:21:56 | 01:40:17 | 00:00:00 | |
| DM0DOS-11 | 2026-08-31 11:12:00 | 53.12593 | 8.14077 | 64° | 66km/h | 13468m | -15m/s | -47.4°C | 3.5% | 158.2hPa | 2.5V | 08:21:52 | 01:40:21 | 00:00:00 | |
| DO2JMG | 2026-08-31 11:11:59 | 53.12593 | 8.14077 | 65° | 66km/h | 13468m | -15m/s | -47.4°C | 0.5% | 158.2hPa | 2.5V | 08:21:55 | 01:40:21 | 00:00:00 | |
| BIOWL1-15 | 2026-08-31 11:11:58 | 53.12586 | 8.14052 | 62° | 66km/h | 13483m | -16.1m/s | -47.4°C | 0.5% | 157.8hPa | 2.6V | 08:21:55 | 01:40:20 | 00:00:00 | |
| AA1-15 | 2026-08-31 11:11:57 | 53.12578 | 8.14028 | 64° | 62km/h | 13498m | -15.7m/s | -47.4°C | 0.5% | 157.4hPa | 2.6V | 08:21:55 | 01:40:19 | 00:00:00 | |
| DC4HF-4 | 2026-08-31 11:11:57 | 53.12571 | 8.14004 | 64° | 66km/h | 13514m | -15.3m/s | -47.3°C | 1.4% | 157.1hPa | 2.5V | 00:00:00 | 00:00:00 | 00:00:00 | |
| BIOWL9-15 | 2026-08-31 11:11:56 | 53.12571 | 8.14004 | 64° | 66km/h | 13514m | -15.3m/s | -47.3°C | 1.4% | 157.1hPa | 2.5V | 00:00:00 | 00:00:00 | 00:00:00 | |
| DB0DAN | 2026-08-31 11:11:55 | 53.12564 | 8.13980 | 61° | 60km/h | 13529m | -15.7m/s | -47.2°C | 1.3% | 156.71hPa | 2.5V | 00:00:00 | 00:00:00 | 00:00:00 | |
| DF8AY | 2026-08-31 11:11:50 | 53.12527 | 8.13864 | 61° | 62km/h | 13606m | -16.1m/s | -47°C | 0.4% | 154.9hPa | 2.5V | 08:22:46 | 01:40:12 | 00:00:00 | |
| DM0DOS-11 | 2026-08-31 11:11:50 | 53.12520 | 8.13841 | 64° | 58km/h | 13622m | -15.1m/s | -46.7°C | 3.3% | 154.5hPa | 2.5V | 08:22:02 | 01:40:11 | 00:00:00 | |
| DO2JMG | 2026-08-31 11:11:49 | 53.12520 | 8.13841 | 64° | 58km/h | 13622m | -15.1m/s | -46.8°C | 0.4% | 154.5hPa | 2.5V | 08:22:46 | 01:40:11 | 00:00:00 | |
| DL1XH-west | 2026-08-31 11:11:48 | 53.12514 | 8.13819 | 63° | 60km/h | 13636m | -16.2m/s | -46.5°C | 0.3% | 154.2hPa | 2.5V | 08:22:46 | 01:40:10 | 00:00:00 | |
| BIOWL1-15 | 2026-08-31 11:11:47 | 53.12507 | 8.13797 | 62° | 57km/h | 13652m | -15.8m/s | -46.3°C | 0.3% | 153.8hPa | 2.6V | 08:22:46 | 01:40:09 | 00:00:00 | |
| AA1-15 | 2026-08-31 11:11:46 | 53.12500 | 8.13775 | 65° | 58km/h | 13669m | -14.8m/s | -46.3°C | 0.3% | 153.4hPa | 2.6V | 08:22:46 | 01:40:08 | 00:00:00 | |
| BUE01 | 2026-08-31 11:11:44 | 53.12487 | 8.13733 | 63° | 55km/h | 13699m | -15.3m/s | -46.4°C | 1.2% | 152.7hPa | 2.5V | 00:00:00 | 00:00:00 | 00:00:00 | |
| DD8BA-10 | 2026-08-31 11:11:41 | 53.12467 | 8.13671 | 64° | 49km/h | 13745m | -15.0m/s | -46.1°C | 3.1% | 151.6hPa | 2.5V | 00:00:00 | 00:00:00 | 00:00:00 | |
| DM0DOS-11 | 2026-08-31 11:11:40 | 53.12455 | 8.13633 | 58° | 49km/h | 13775m | -15.5m/s | -46.2°C | 3.1% | 150.9hPa | 2.5V | 08:22:12 | 01:40:01 | 00:00:00 | |
| DB0DAN | 2026-08-31 11:11:40 | 53.12461 | 8.13652 | 62° | 51km/h | 13760m | -15.8m/s | -46.2°C | 1.2% | 151.33hPa | 2.6V | 00:00:00 | 00:00:00 | 00:00:00 | |
| DO2JMG | 2026-08-31 11:11:38 | 53.12449 | 8.13615 | 63° | 51km/h | 13790m | -15.2m/s | -46.2°C | 0.3% | 150.6hPa | 2.5V | 08:22:46 | 01:40:00 | 00:00:00 | |
| DF5WG-10 | 2026-08-31 11:11:38 | 53.12449 | 8.13615 | 64° | 47km/h | 13791m | -15.2m/s | -46.2°C | 3.1% | 150.6hPa | 2.5V | 00:00:00 | 01:40:00 | 00:00:00 | |
| DL1XH1-15 | 2026-08-31 11:11:37 | 53.12413 | 8.13514 | 58° | 47km/h | 13882m | -15.6m/s | -46.1°C | 3.1% | 148.6hPa | 2.5V | 08:22:19 | 01:39:54 | 00:00:00 | |
| BIOWL1-15 | 2026-08-31 11:11:37 | 53.12425 | 8.13546 | 56° | 46km/h | 13852m | -15.9m/s | -46°C | 0.2% | 149.2hPa | 2.6V | 08:22:46 | 01:39:56 | 00:00:00 | |
| HSKMA3-T | 2026-08-31 11:11:36 | 53.12437 | 8.13580 | 60° | 46km/h | 13821m | -15.5m/s | -46.1°C | 0.2% | 149.9hPa | 2.5V | 08:22:46 | 01:39:58 | 00:00:00 | |
| AA1-15 | 2026-08-31 11:11:35 | 53.12431 | 8.13563 | 61° | 47km/h | 13836m | -15.5m/s | -46.1°C | 0.2% | 149.5hPa | 2.6V | 08:22:46 | 01:39:57 | 00:00:00 | |
| DL1LOL-11 | 2026-08-31 11:11:34 | 53.12431 | 8.13563 | 62° | 47km/h | 13837m | -15.5m/s | -46.1°C | 1.2% | 149.5hPa | 2.5V | 00:00:00 | 00:00:00 | 00:00:00 | |
| DO2SHX-10 | 2026-08-31 11:11:33 | 53.12419 | 8.13530 | 62° | 46km/h | 13868m | -14.9m/s | -45.9°C | 3.0% | 148.9hPa | 2.5V | 00:00:00 | 01:39:55 | 00:00:00 | |
| DO2LYB-13 | 2026-08-31 11:11:32 | 53.12419 | 8.13530 | 62° | 46km/h | 13868m | -15.0m/s | -46.0°C | 1.2% | 148.9hPa | 2.5V | 00:00:00 | 00:00:00 | 00:00:00 | |
| DD8BA-10 | 2026-08-31 11:11:31 | 53.12407 | 8.13497 | 57° | 47km/h | 13898m | -15.2m/s | -46.1°C | 3.0% | 148.1hPa | 2.5V | 00:00:00 | 00:00:00 | 00:00:00 | |
| DL1XH-15 | 2026-08-31 11:11:30 | 53.12371 | 8.13398 | 61° | 49km/h | 13990m | -15.7m/s | -46.3°C | 3.1% | 146.1hPa | 2.5V | 08:22:26 | 01:39:47 | 00:00:00 | |
| DF8AY | 2026-08-31 11:11:30 | 53.12395 | 8.13465 | 56° | 46km/h | 13928m | -16.1m/s | -46.3°C | 0.2% | 147.5hPa | 2.6V | 08:22:46 | 01:39:51 | 00:00:00 | |
| DO2JMG | 2026-08-31 11:11:28 | 53.12389 | 8.13449 | 60° | 46km/h | 13944m | -15.1m/s | -46.3°C | 0.2% | 147.1hPa | 2.6V | 08:22:46 | 01:39:50 | 00:00:00 | |
| BIOWL1-15 | 2026-08-31 11:11:26 | 53.12377 | 8.13416 | 59° | 46km/h | 13975m | -15.7m/s | -46.2°C | 0.2% | 146.5hPa | 2.5V | 08:22:46 | 01:39:48 | 00:00:00 | |
| DB0DAN | 2026-08-31 11:11:25 | 53.12371 | 8.13398 | 62° | 47km/h | 13990m | -15.7m/s | -46.3°C | 1.2% | 146.09hPa | 2.5V | 00:00:00 | 00:00:00 | 00:00:00 | |
| AA1-15 | 2026-08-31 11:11:24 | 53.12365 | 8.13381 | 57° | 47km/h | 14006m | -15.8m/s | -46.4°C | 0.2% | 145.8hPa | 2.6V | 08:22:46 | 01:39:46 | 00:00:00 | |
| DO2SHX-10 | 2026-08-31 11:11:24 | 53.12365 | 8.13381 | 58° | 49km/h | 14006m | -15.7m/s | -46.4°C | 3.1% | 145.7hPa | 2.6V | 00:00:00 | 01:39:46 | 00:00:00 | |
| DC4HF-4 | 2026-08-31 11:11:21 | 53.12340 | 8.13309 | 58° | 51km/h | 14070m | -16.1m/s | -47.0°C | 1.2% | 144.4hPa | 2.5V | 00:00:00 | 00:00:00 | 00:00:00 | |
| DL1XH-15 | 2026-08-31 11:11:20 | 53.12304 | 8.13221 | 54° | 51km/h | 14150m | -16.9m/s | -47.3°C | 3.3% | 142.6hPa | 2.5V | 08:22:36 | 01:39:37 | 00:00:00 | |
| DF8AY | 2026-08-31 11:11:19 | 53.12333 | 8.13291 | 55° | 49km/h | 14086m | -16.2m/s | -47.1°C | 0.3% | 144.1hPa | 2.5V | 08:22:46 | 01:39:41 | 00:00:00 | |
| DO2JMG | 2026-08-31 11:11:17 | 53.12319 | 8.13256 | 53° | 51km/h | 14118m | -16.6m/s | -47.3°C | 0.4% | 143.3hPa | 2.6V | 08:22:46 | 01:39:39 | 00:00:00 | |
| HSKMA3-T | 2026-08-31 11:11:15 | 53.12304 | 8.13221 | 55° | 51km/h | 14150m | -16.9m/s | -47.3°C | 0.4% | 142.6hPa | 2.5V | 08:22:46 | 01:39:37 | 00:00:00 | |
| AA1-15 | 2026-08-31 11:11:14 | 53.12290 | 8.13186 | 56° | 53km/h | 14184m | -16.1m/s | -47.5°C | 0.4% | 141.9hPa | 2.6V | 08:22:46 | 01:39:35 | 00:00:00 | |
| BUE01 | 2026-08-31 11:11:13 | 53.12290 | 8.13186 | 56° | 53km/h | 14184m | -16.1m/s | -47.5°C | 1.2% | 141.9hPa | 2.5V | 00:00:00 | 00:00:00 | 00:00:00 | |
| DO2SHX-10 | 2026-08-31 11:11:12 | 53.12282 | 8.13169 | 52° | 49km/h | 14200m | -16.3m/s | -47.5°C | 3.4% | 141.6hPa | 2.5V | 00:00:00 | 01:39:34 | 00:00:00 | |
| DL1XH-15 | 2026-08-31 11:11:11 | 53.12231 | 8.13048 | 51° | 49km/h | 14313m | -16.9m/s | -48°C | 3.5% | 139.2hPa | 2.5V | 08:22:46 | 01:39:27 | 00:00:00 | |
| DM0DOS-11 | 2026-08-31 11:11:11 | 53.12260 | 8.13117 | 56° | 49km/h | 14248m | -16.3m/s | -47.8°C | 3.3% | 140.6hPa | 2.5V | 08:22:42 | 01:39:31 | 00:00:00 | |
| DO2JMG | 2026-08-31 11:11:06 | 53.12239 | 8.13065 | 57° | 53km/h | 14297m | -16.3m/s | -48°C | 0.5% | 139.5hPa | 2.6V | 08:22:46 | 01:39:28 | 00:00:00 | |
| HSKMA3-T | 2026-08-31 11:11:05 | 53.12231 | 8.13048 | 52° | 49km/h | 14313m | -16.9m/s | -48°C | 0.5% | 139.2hPa | 2.5V | 08:22:46 | 01:39:27 | 00:00:00 | |
| AA1-15 | 2026-08-31 11:11:03 | 53.12216 | 8.13012 | 54° | 53km/h | 14346m | -17.3m/s | -47.6°C | 0.4% | 138.5hPa | 2.5V | 08:23:37 | 01:39:25 | 00:00:00 | |
| DO2SHX-10 | 2026-08-31 11:11:03 | 53.12216 | 8.13012 | 55° | 51km/h | 14346m | -17.3m/s | -47.5°C | 3.3% | 138.4hPa | 2.6V | 00:00:00 | 01:39:25 | 00:00:00 | |
| DD8BA-10 | 2026-08-31 11:11:01 | 53.12202 | 8.12977 | 56° | 55km/h | 14379m | -16.8m/s | -47.2°C | 3.3% | 137.7hPa | 2.6V | 00:00:00 | 00:00:00 | 00:00:00 | |
| DL1XH-15 | 2026-08-31 11:11:00 | 53.12156 | 8.12866 | 55° | 55km/h | 14480m | -17m/s | -47.4°C | 3.3% | 135.7hPa | 2.6V | 08:22:56 | 01:39:17 | 00:00:00 | |
| DF8AY | 2026-08-31 11:10:58 | 53.12179 | 8.12923 | 53° | 53km/h | 14429m | -17.4m/s | -47.3°C | 0.4% | 136.7hPa | 2.5V | 08:23:37 | 01:39:20 | 00:00:00 | |
| DL1XH-west | 2026-08-31 11:10:56 | 53.12164 | 8.12885 | 56° | 57km/h | 14462m | -17.4m/s | -47.4°C | 0.3% | 136.1hPa | 2.6V | 08:23:37 | 01:39:18 | 00:00:00 | |
| DO2JMG | 2026-08-31 11:10:55 | 53.12156 | 8.12866 | 55° | 55km/h | 14480m | -17m/s | -47.4°C | 0.4% | 135.7hPa | 2.6V | 08:23:37 | 01:39:17 | 00:00:00 | |
| BIOWL1-15 | 2026-08-31 11:10:54 | 53.12148 | 8.12847 | 57° | 58km/h | 14497m | -16.8m/s | -47.4°C | 0.4% | 135.3hPa | 2.5V | 08:23:37 | 01:39:16 | 00:00:00 | |
| AA1-15 | 2026-08-31 11:10:53 | 53.12132 | 8.12807 | 59° | 58km/h | 14530m | -16.5m/s | -47.4°C | 0.3% | 134.7hPa | 2.5V | 08:23:37 | 01:39:14 | 00:00:00 | |
| DC6BW-12 | 2026-08-31 11:10:52 | 53.12140 | 8.12827 | 55° | 55km/h | 14514m | -17.1m/s | -47.4°C | 1.2% | 135.0hPa | 2.6V | 00:00:00 | 00:00:00 | 00:00:00 | |
| DD8BA-10 | 2026-08-31 11:10:51 | 53.12124 | 8.12787 | 57° | 58km/h | 14547m | -17.5m/s | -47.5°C | 3.3% | 134.3hPa | 2.6V | 00:00:00 | 00:00:00 | 00:00:00 | |
| DL1XH-15 | 2026-08-31 11:10:50 | 53.12077 | 8.12661 | 60° | 58km/h | 14649m | -16.9m/s | -48°C | 3.4% | 132.3hPa | 2.6V | 08:23:06 | 01:39:07 | 00:00:00 | |
| DF8AY | 2026-08-31 11:10:47 | 53.12093 | 8.12704 | 61° | 62km/h | 14615m | -16.9m/s | -47.9°C | 0.4% | 133hPa | 2.5V | 08:23:37 | 01:39:09 | 00:00:00 | |
| DL1XH-west | 2026-08-31 11:10:46 | 53.12085 | 8.12682 | 57° | 58km/h | 14632m | -17.7m/s | -48°C | 0.4% | 132.6hPa | 2.5V | 08:23:37 | 01:39:08 | 00:00:00 | |
| DO2JMG | 2026-08-31 11:10:45 | 53.12077 | 8.12661 | 61° | 58km/h | 14649m | -16.9m/s | -48°C | 0.4% | 132.3hPa | 2.6V | 08:23:37 | 01:39:07 | 00:00:00 | |
| HSKMA3-T | 2026-08-31 11:10:44 | 53.12070 | 8.12639 | 61° | 60km/h | 14665m | -17.6m/s | -48°C | 0.5% | 131.9hPa | 2.6V | 08:23:37 | 01:39:06 | 00:00:00 | |
| BIOWL1-15 | 2026-08-31 11:10:43 | 53.12043 | 8.12553 | 65° | 55km/h | 14735m | -17.1m/s | -48.1°C | 0.4% | 130.5hPa | 2.6V | 08:23:37 | 01:39:02 | 00:00:00 | |
| AA1-15 | 2026-08-31 11:10:43 | 53.12063 | 8.12618 | 61° | 57km/h | 14683m | -17.4m/s | -48°C | 0.5% | 131.6hPa | 2.5V | 08:23:37 | 01:39:05 | 00:00:00 | |
| DL1XH1-15 | 2026-08-31 11:10:43 | 53.12056 | 8.12596 | 64° | 60km/h | 14700m | -16.9m/s | -47.9°C | 3.4% | 131.2hPa | 2.5V | 08:23:09 | 01:39:04 | 00:00:00 | |
| DO2SHX-10 | 2026-08-31 11:10:42 | 53.12056 | 8.12596 | 65° | 60km/h | 14700m | -16.8m/s | -47.9°C | 3.4% | 131.1hPa | 2.6V | 00:00:00 | 01:39:04 | 00:00:00 | |
| DD8BA-10 | 2026-08-31 11:10:41 | 53.12049 | 8.12574 | 63° | 55km/h | 14718m | -17.6m/s | -47.9°C | 3.4% | 130.9hPa | 2.6V | 00:00:00 | 00:00:00 | 00:00:00 | |
| DM0DOS-11 | 2026-08-31 11:10:40 | 53.12037 | 8.12532 | 66° | 57km/h | 14751m | -17.2m/s | -48.2°C | 3.4% | 130.2hPa | 2.6V | 08:23:12 | 01:39:01 | 00:00:00 | |
| DB0DAN | 2026-08-31 11:10:40 | 53.12043 | 8.12553 | 65° | 53km/h | 14735m | -17.1m/s | -48.1°C | 1.2% | 130.53hPa | 2.6V | 00:00:00 | 00:00:00 | 00:00:00 | |
| DO2SHX-10 | 2026-08-31 11:10:39 | 53.12037 | 8.12532 | 67° | 57km/h | 14752m | -17.2m/s | -48.1°C | 3.4% | 130.2hPa | 2.5V | 00:00:00 | 01:39:01 | 00:00:00 | |
| DL1XH1-15 | 2026-08-31 11:10:37 | 53.12000 | 8.12386 | 69° | 57km/h | 14869m | -16.5m/s | -48.5°C | 3.5% | 127.9hPa | 2.5V | 08:23:19 | 01:38:54 | 00:00:00 | |
| DF8AY | 2026-08-31 11:10:36 | 53.12021 | 8.12469 | 67° | 55km/h | 14801m | -17.5m/s | -48.4°C | 0.5% | 129.2hPa | 2.5V | 08:23:37 | 01:38:58 | 00:00:00 | |
| DO2JMG | 2026-08-31 11:10:35 | 53.12016 | 8.12449 | 69° | 51km/h | 14818m | -17.1m/s | -48.4°C | 0.5% | 128.9hPa | 2.5V | 08:23:37 | 01:38:57 | 00:00:00 | |
| HSKMA3-T | 2026-08-31 11:10:34 | 53.12011 | 8.12428 | 69° | 57km/h | 14835m | -16.7m/s | -48.4°C | 0.5% | 128.5hPa | 2.6V | 08:23:37 | 01:38:56 | 00:00:00 | |
| AA1-15 | 2026-08-31 11:10:33 | 53.12006 | 8.12407 | 66° | 51km/h | 14852m | -17m/s | -48.5°C | 0.5% | 128.2hPa | 2.6V | 08:23:37 | 01:38:55 | 00:00:00 | |
| BIOWL1-15 | 2026-08-31 11:10:32 | 53.12000 | 8.12386 | 70° | 57km/h | 14869m | -16.5m/s | -48.5°C | 0.5% | 127.9hPa | 2.5V | 08:23:37 | 01:38:54 | 00:00:00 | |
| DO2SHX-10 | 2026-08-31 11:10:31 | 53.11995 | 8.12364 | 66° | 57km/h | 14885m | -17.3m/s | -48.5°C | 3.6% | 127.5hPa | 2.5V | 00:00:00 | 01:38:53 | 00:00:00 | |
| DL1XH-15 | 2026-08-31 11:10:30 | 53.11954 | 8.12235 | 59° | 60km/h | 14985m | -16.9m/s | -48.4°C | 3.5% | 125.6hPa | 2.5V | 08:23:26 | 01:38:47 | 00:00:00 | |
| SMARD9-10 | 2026-08-31 11:10:29 | 53.11989 | 8.12343 | 67° | 55km/h | 14902m | -16.7m/s | -48.7°C | 1.3% | 127.2hPa | 2.6V | 00:00:00 | 00:00:00 | 00:00:00 | |
| DO2SHX-10 | 2026-08-31 11:10:28 | 53.11976 | 8.12301 | 61° | 60km/h | 14935m | -17.1m/s | -48.5°C | 3.5% | 126.5hPa | 2.6V | 00:00:00 | 01:38:50 | 00:00:00 | |
| DJ2DS-15 | 2026-08-31 11:10:27 | 53.11969 | 8.12279 | 64° | 64km/h | 14952m | -16.5m/s | -48.4°C | 3.5% | 126.2hPa | 2.6V | 00:00:00 | 01:38:49 | 00:00:00 | |
| DB0DAN | 2026-08-31 11:10:25 | 53.11954 | 8.12235 | 60° | 58km/h | 14985m | -16.9m/s | -48.4°C | 1.3% | 125.61hPa | 2.5V | 00:00:00 | 00:00:00 | 00:00:00 | |
| DO2JMG | 2026-08-31 11:10:25 | 53.11954 | 8.12235 | 60° | 60km/h | 14985m | -16.9m/s | -48.4°C | 0.5% | 125.6hPa | 2.5V | 08:23:37 | 01:38:47 | 00:00:00 | |
| HSKMA3-T | 2026-08-31 11:10:24 | 53.11947 | 8.12212 | 63° | 66km/h | 15002m | -16.7m/s | -48.5°C | 0.5% | 125.3hPa | 2.5V | 08:23:37 | 01:38:46 | 00:00:00 | |
| DL1XH1-15 | 2026-08-31 11:10:23 | 53.11931 | 8.12164 | 61° | 64km/h | 15035m | -16.9m/s | -48.6°C | 3.5% | 124.6hPa | 2.6V | 08:23:29 | 01:38:44 | 00:00:00 | |
| AA1-15 | 2026-08-31 11:10:22 | 53.11931 | 8.12164 | 62° | 64km/h | 15036m | -16.9m/s | -48.7°C | 0.5% | 124.6hPa | 2.6V | 08:23:37 | 01:38:44 | 00:00:00 | |
| BIOWL1-15 | 2026-08-31 11:10:22 | 53.11906 | 8.12091 | 64° | 69km/h | 15086m | -16.8m/s | -48.6°C | 0.6% | 123.7hPa | 2.5V | 08:23:37 | 01:38:41 | 00:00:00 | |
| DO2SHX-10 | 2026-08-31 11:10:22 | 53.11931 | 8.12164 | 62° | 66km/h | 15036m | -16.8m/s | -48.6°C | 3.5% | 124.6hPa | 2.5V | 00:00:00 | 01:38:44 | 00:00:00 | |
| DD8BA-10 | 2026-08-31 11:10:21 | 53.11923 | 8.12140 | 61° | 68km/h | 15053m | -17.0m/s | -48.6°C | 3.6% | 124.2hPa | 2.5V | 00:00:00 | 00:00:00 | 00:00:00 | |
| DL1XH-15 | 2026-08-31 11:10:20 | 53.11876 | 8.11988 | 63° | 66km/h | 15157m | -17.3m/s | -48.3°C | 3.4% | 122.4hPa | 2.5V | 08:23:36 | 01:38:37 | 00:00:00 | |
| DL4XJ-10 | 2026-08-31 11:10:19 | 53.11906 | 8.12090 | 64° | 60km/h | 15086m | -16.7m/s | -47.9°C | 0% | 0hPa | 2.7V | 00:00:00 | 00:00:00 | 00:00:00 | |
| DL1XH1-15 | 2026-08-31 11:10:17 | 53.11854 | 8.11913 | 67° | 64km/h | 15209m | -16.6m/s | -48.4°C | 3.4% | 121.4hPa | 2.7V | 08:23:39 | 01:38:34 | 00:00:00 | |
| DF8AY | 2026-08-31 11:10:15 | 53.11875 | 8.11988 | 64° | 66km/h | 15157m | -17.3m/s | -48.3°C | 0.4% | 122.4hPa | 2.5V | 08:23:37 | 01:38:37 | 00:00:00 | |
| DO2JMG | 2026-08-31 11:10:14 | 53.11868 | 8.11963 | 66° | 68km/h | 15174m | -17m/s | -48.4°C | 0.5% | 122.1hPa | 2.5V | 08:23:37 | 01:38:36 | 00:00:00 | |
| HSKMA3-T | 2026-08-31 11:10:13 | 53.11861 | 8.11938 | 63° | 64km/h | 15192m | -17.2m/s | -48.4°C | 0.4% | 121.8hPa | 2.5V | 08:24:28 | 01:38:35 | 00:00:00 | |
| AA1-15 | 2026-08-31 11:10:12 | 53.11854 | 8.11913 | 67° | 64km/h | 15209m | -16.6m/s | -48.4°C | 0.5% | 121.4hPa | 2.7V | 08:27:01 | 01:38:34 | 00:00:00 | |
| DD8BA-10 | 2026-08-31 11:10:11 | 53.11848 | 8.11889 | 67° | 57km/h | 15226m | -18.0m/s | -48.4°C | 3.4% | 121.1hPa | 2.6V | 00:00:00 | 00:00:00 | 00:00:00 | |
| DL1XH-15 | 2026-08-31 11:10:10 | 53.11816 | 8.11752 | 74° | 53km/h | 15331m | -17.5m/s | -48.5°C | 3.4% | 119.2hPa | 2.6V | 08:23:46 | 01:38:27 | 00:00:00 | |
| DB0DAN | 2026-08-31 11:10:10 | 53.11842 | 8.11865 | 67° | 57km/h | 15243m | -17.4m/s | -48.3°C | 1.2% | 120.77hPa | 2.5V | 00:00:00 | 00:00:00 | 00:00:00 | |
| BIOWL1-15 | 2026-08-31 11:10:09 | 53.11804 | 8.11669 | 77° | 46km/h | 15402m | -18m/s | -48.5°C | 0.4% | 117.9hPa | 2.7V | 08:24:28 | 01:38:23 | 00:00:00 | |
| DO2JMG | 2026-08-31 11:10:04 | 53.11813 | 8.11731 | 74° | 55km/h | 15348m | -18.1m/s | -48.4°C | 0.4% | 118.9hPa | 2.5V | 08:24:28 | 01:38:26 | 00:00:00 | |
| DL1XH-west | 2026-08-31 11:10:03 | 53.11810 | 8.11710 | 77° | 49km/h | 15366m | -18.2m/s | -48.4°C | 0.4% | 118.6hPa | 2.5V | 08:24:28 | 01:38:25 | 00:00:00 | |
| AA1-15 | 2026-08-31 11:10:02 | 53.11807 | 8.11689 | 78° | 53km/h | 15384m | -17.6m/s | -48.4°C | 0.4% | 118.2hPa | 2.5V | 08:27:01 | 01:38:24 | 00:00:00 | |
| DD8BA-10 | 2026-08-31 11:10:01 | 53.11804 | 8.11669 | 78° | 40km/h | 15402m | -17.9m/s | -48.4°C | 3.4% | 117.9hPa | 2.7V | 00:00:00 | 00:00:00 | 00:00:00 | |
| DL1XH-15 | 2026-08-31 11:10:00 | 53.11792 | 8.11563 | 78° | 40km/h | 15507m | -17.7m/s | -49.2°C | 3.5% | 116hPa | 2.6V | 08:23:56 | 01:38:17 | 00:00:00 | |
| DL3AQ-11 | 2026-08-31 11:09:58 | 53.11796 | 8.11595 | 78° | 42km/h | 15472m | -17.8m/s | -49.0°C | 1.2% | 116.7hPa | 2.5V | 00:00:00 | 00:00:00 | 00:00:00 | |
| DL1XH1-15 | 2026-08-31 11:09:57 | 53.11786 | 8.11520 | 68° | 33km/h | 15559m | -18.5m/s | -49.6°C | 3.6% | 115.1hPa | 2.5V | 08:23:59 | 01:38:14 | 00:00:00 | |
| BIOWL1-15 | 2026-08-31 11:09:57 | 53.11796 | 8.11595 | 78° | 42km/h | 15472m | -17.8m/s | -49°C | 0.5% | 116.7hPa | 2.5V | 08:24:28 | 01:38:19 | 00:00:00 | |
| DB0DAN | 2026-08-31 11:09:55 | 53.11792 | 8.11563 | 79° | 38km/h | 15507m | -17.7m/s | -49.3°C | 1.2% | 116.03hPa | 2.6V | 00:00:00 | 00:00:00 | 00:00:00 | |
| DO2JMG | 2026-08-31 11:09:54 | 53.11790 | 8.11548 | 73° | 35km/h | 15524m | -18m/s | -49.4°C | 0.6% | 115.7hPa | 2.6V | 08:24:28 | 01:38:16 | 00:00:00 | |
| HSKMA3-T | 2026-08-31 11:09:53 | 53.11788 | 8.11534 | 77° | 37km/h | 15542m | -17.4m/s | -49.5°C | 0.6% | 115.4hPa | 2.5V | 08:24:28 | 01:38:15 | 00:00:00 | |
| DL1XH-west | 2026-08-31 11:09:52 | 53.11786 | 8.11520 | 69° | 33km/h | 15559m | -18.5m/s | -49.6°C | 0.6% | 115.1hPa | 2.5V | 08:24:28 | 01:38:14 | 00:00:00 | |
| AA1-15 | 2026-08-31 11:09:51 | 53.11783 | 8.11507 | 70° | 31km/h | 15577m | -18.1m/s | -49.6°C | 0.6% | 114.8hPa | 2.5V | 08:27:01 | 01:38:13 | 00:00:00 | |
| DM0DOS-11 | 2026-08-31 11:09:50 | 53.11776 | 8.11484 | 59° | 27km/h | 15612m | -17.9m/s | -49.4°C | 3.6% | 114.1hPa | 2.6V | 08:24:02 | 01:38:11 | 00:00:00 | |
| BIOWL1-15 | 2026-08-31 11:09:46 | 53.11764 | 8.11452 | 56° | 31km/h | 15666m | -18.3m/s | -49.6°C | 0.6% | 113.2hPa | 2.6V | 08:24:28 | 01:38:08 | 00:00:00 | |
| DL3AQ-11 | 2026-08-31 11:09:45 | 53.11754 | 8.11432 | 47° | 29km/h | 15702m | -18.1m/s | -49.3°C | 1.2% | 112.6hPa | 2.6V | 00:00:00 | 00:00:00 | 00:00:00 | |
| GOEST3-10 | 2026-08-31 11:09:44 | 53.11753 | 8.11432 | 48° | 35km/h | 15702m | -18.0m/s | -49.3°C | 3.5% | 112.5hPa | 2.6V | 00:00:00 | 01:38:06 | 00:00:00 | |
| DL1XH1-15 | 2026-08-31 11:09:43 | 53.11743 | 8.11411 | 44° | 33km/h | 15738m | -18.6m/s | -49.5°C | 3.6% | 112hPa | 2.5V | 08:24:09 | 01:38:04 | 00:00:00 | |
| DO2JMG | 2026-08-31 11:09:43 | 53.11748 | 8.11421 | 53° | 35km/h | 15720m | -17.9m/s | -49.4°C | 0.5% | 112.3hPa | 2.6V | 08:24:28 | 01:38:05 | 00:00:00 | |
| DL1XH-west | 2026-08-31 11:09:42 | 53.11743 | 8.11411 | 45° | 33km/h | 15738m | -18.7m/s | -49.5°C | 0.5% | 112hPa | 2.5V | 08:24:28 | 01:38:04 | 00:00:00 | |
| DB0DAN | 2026-08-31 11:09:40 | 53.11731 | 8.11388 | 46° | 35km/h | 15774m | -18.6m/s | -49.6°C | 1.3% | 111.34hPa | 2.5V | 00:00:00 | 00:00:00 | 00:00:00 | |
| DM0DOS-11 | 2026-08-31 11:09:40 | 53.11726 | 8.11377 | 53° | 37km/h | 15792m | -17.8m/s | -49.7°C | 3.6% | 111hPa | 2.7V | 08:24:12 | 01:38:01 | 00:00:00 | |
| DL1XH-15 | 2026-08-31 11:09:40 | 53.11702 | 8.11323 | 54° | 40km/h | 15866m | -18.6m/s | -50°C | 3.7% | 109.8hPa | 2.6V | 08:24:16 | 01:37:57 | 00:00:00 | |
| AA1-15 | 2026-08-31 11:09:40 | 53.11731 | 8.11388 | 46° | 37km/h | 15774m | -18.6m/s | -49.6°C | 0.6% | 111.3hPa | 2.5V | 08:24:28 | 01:38:02 | 00:00:00 | |
| DL4XJ-10 | 2026-08-31 11:09:39 | 53.11725 | 8.11377 | 54° | 46km/h | 15792m | -17.8m/s | -49.0°C | 0% | 0hPa | 2.6V | 00:00:00 | 00:00:00 | 00:00:00 | |
| DF4FW | 2026-08-31 11:09:38 | 53.11725 | 8.11377 | 54° | 37km/h | 15793m | -17.8m/s | -49.7°C | 1.2% | 111.0hPa | 2.6V | 08:24:00 | 00:00:00 | 00:00:00 | |
| DL1XH1-15 | 2026-08-31 11:09:37 | 53.11686 | 8.11277 | 57° | 42km/h | 15920m | -18.4m/s | -49.9°C | 3.7% | 108.9hPa | 2.6V | 08:24:19 | 01:37:54 | 00:00:00 | |
| BIOWL1-15 | 2026-08-31 11:09:37 | 53.11702 | 8.11323 | 55° | 40km/h | 15866m | -18.6m/s | -50°C | 0.6% | 109.8hPa | 2.6V | 08:24:28 | 01:37:57 | 00:00:00 | |
| DL1XH-west | 2026-08-31 11:09:32 | 53.11685 | 8.11277 | 57° | 42km/h | 15920m | -18.4m/s | -49.9°C | 0.6% | 108.9hPa | 2.6V | 08:24:28 | 01:37:54 | 00:00:00 | |
| DD8BA-10 | 2026-08-31 11:09:31 | 53.11680 | 8.11261 | 63° | 49km/h | 15938m | -18.3m/s | -49.9°C | 3.7% | 108.5hPa | 2.5V | 00:00:00 | 00:00:00 | 00:00:00 | |
| DM0DOS-11 | 2026-08-31 11:09:30 | 53.11668 | 8.11229 | 60° | 46km/h | 15974m | -18.7m/s | -50°C | 3.7% | 108hPa | 2.5V | 08:24:22 | 01:37:51 | 00:00:00 | |
| AA1-15 | 2026-08-31 11:09:29 | 53.11669 | 8.11229 | 61° | 46km/h | 15974m | -18.7m/s | -50°C | 0.6% | 108hPa | 2.5V | 08:24:28 | 01:37:51 | 00:00:00 | |
| BIOWL1-15 | 2026-08-31 11:09:27 | 53.11643 | 8.11161 | 54° | 47km/h | 16049m | -19m/s | -50.5°C | 0.7% | 106.7hPa | 2.5V | 08:24:28 | 01:37:47 | 00:00:00 | |
| DJ2DS-15 | 2026-08-31 11:09:27 | 53.11656 | 8.11195 | 57° | 49km/h | 16012m | -18.6m/s | -50.1°C | 3.8% | 107.3hPa | 2.6V | 08:24:00 | 01:37:49 | 00:00:00 | |
| DL8OAI-8 | 2026-08-31 11:09:26 | 53.11656 | 8.11195 | 58° | 46km/h | 16012m | -18.7m/s | -50.2°C | 1.4% | 107.4hPa | 2.5V | 08:24:00 | 00:00:00 | 00:00:00 | |
| DB0DAN | 2026-08-31 11:09:25 | 53.11643 | 8.11161 | 53° | 46km/h | 16049m | -19m/s | -50.5°C | 1.3% | 106.74hPa | 2.5V | 00:00:00 | 00:00:00 | 00:00:00 | |
| GOEST3-10 | 2026-08-31 11:09:24 | 53.11636 | 8.11144 | 59° | 53km/h | 16068m | -18.5m/s | -50.5°C | 4.0% | 106.4hPa | 2.6V | 00:00:00 | 01:37:46 | 00:00:00 | |
| DL1XH1-15 | 2026-08-31 11:09:23 | 53.11621 | 8.11108 | 58° | 53km/h | 16104m | -18.9m/s | -50.5°C | 4% | 105.8hPa | 2.6V | 08:24:29 | 01:37:44 | 00:00:00 | |
| DO2JMG | 2026-08-31 11:09:22 | 53.11621 | 8.11108 | 59° | 53km/h | 16104m | -18.9m/s | -50.6°C | 0.8% | 105.8hPa | 2.6V | 08:25:19 | 01:37:44 | 00:00:00 | |
| DF8AY | 2026-08-31 11:09:21 | 53.11614 | 8.11090 | 56° | 55km/h | 16123m | -19.2m/s | -50.4°C | 0.7% | 105.5hPa | 2.6V | 08:25:19 | 01:37:43 | 00:00:00 | |
| DD8BA-10 | 2026-08-31 11:09:21 | 53.11614 | 8.11090 | 57° | 53km/h | 16123m | -19.2m/s | -50.4°C | 3.9% | 105.5hPa | 2.5V | 00:00:00 | 00:00:00 | 00:00:00 | |
| DL1XH-15 | 2026-08-31 11:09:20 | 53.11573 | 8.10973 | 63° | 51km/h | 16236m | -18.6m/s | -50.4°C | 4% | 103.7hPa | 2.5V | 08:24:36 | 01:37:37 | 00:00:00 | |
| DM0DOS-11 | 2026-08-31 11:09:20 | 53.11600 | 8.11052 | 58° | 57km/h | 16160m | -18.4m/s | -50.2°C | 3.9% | 104.9hPa | 2.5V | 08:24:32 | 01:37:41 | 00:00:00 | |
| AA1-15 | 2026-08-31 11:09:18 | 53.11593 | 8.11032 | 57° | 53km/h | 16179m | -18.7m/s | -50.3°C | 0.7% | 104.6hPa | 2.5V | 08:25:19 | 01:37:40 | 00:00:00 | |
| GOEST3-10 | 2026-08-31 11:09:18 | 53.11592 | 8.11032 | 58° | 53km/h | 16180m | -18.6m/s | -50.2°C | 3.9% | 104.6hPa | 2.6V | 00:00:00 | 00:00:00 | 00:00:00 | |
| DL1XH1-15 | 2026-08-31 11:09:17 | 53.11554 | 8.10914 | 66° | 51km/h | 16294m | -18.6m/s | -50.1°C | 3.9% | 102.8hPa | 2.6V | 08:24:39 | 01:37:34 | 00:00:00 | |
| BIOWL1-15 | 2026-08-31 11:09:14 | 53.11538 | 8.10860 | 64° | 47km/h | 16349m | -19.1m/s | -49.6°C | 0.6% | 101.9hPa | 2.5V | 08:25:19 | 01:37:31 | 00:00:00 | |
| DO2SHX-10 | 2026-08-31 11:09:14 | 53.11567 | 8.10953 | 62° | 51km/h | 16254m | -18.8m/s | -50.4°C | 4.0% | 103.4hPa | 2.5V | 00:00:00 | 01:37:36 | 00:00:00 | |
| DM0DOS-11 | 2026-08-31 11:09:13 | 53.11538 | 8.10860 | 63° | 46km/h | 16349m | -19.1m/s | -49.6°C | 3.7% | 101.9hPa | 2.5V | 08:24:42 | 01:37:31 | 00:00:00 | |
| DO2JMG | 2026-08-31 11:09:12 | 53.11554 | 8.10914 | 66° | 51km/h | 16294m | -18.6m/s | -50.1°C | 0.7% | 102.9hPa | 2.6V | 08:25:19 | 01:37:34 | 00:00:00 | |
| DL1XH-west | 2026-08-31 11:09:11 | 53.11549 | 8.10895 | 62° | 49km/h | 16312m | -19.1m/s | -50.1°C | 0.7% | 102.6hPa | 2.6V | 08:25:19 | 01:37:33 | 00:00:00 | |
| DF8AY | 2026-08-31 11:09:10 | 53.11543 | 8.10878 | 65° | 46km/h | 16331m | -18.6m/s | -49.9°C | 0.7% | 102.2hPa | 2.6V | 08:25:19 | 01:37:32 | 00:00:00 | |
| DB0DAN | 2026-08-31 11:09:10 | 53.11543 | 8.10878 | 65° | 44km/h | 16331m | -18.6m/s | -49.9°C | 1.3% | 102.22hPa | 2.6V | 00:00:00 | 00:00:00 | 00:00:00 | |
| AA1-15 | 2026-08-31 11:09:08 | 53.11533 | 8.10844 | 60° | 42km/h | 16368m | -19m/s | -49.5°C | 0.6% | 101.7hPa | 2.5V | 08:27:01 | 01:37:30 | 00:00:00 | |
| DO2SHX-10 | 2026-08-31 11:09:08 | 53.11533 | 8.10844 | 60° | 42km/h | 16368m | -18.9m/s | -49.5°C | 3.7% | 101.6hPa | 2.5V | 08:24:00 | 01:37:30 | 00:00:00 | |
| DJ2DS-15 | 2026-08-31 11:09:07 | 53.11528 | 8.10829 | 63° | 47km/h | 16387m | -18.5m/s | -49.5°C | 3.7% | 101.3hPa | 2.5V | 00:00:00 | 01:37:29 | 00:00:00 | |
| DF8AY-15 | 2026-08-31 11:09:06 | 53.11522 | 8.10814 | 55° | 46km/h | 16405m | -19.3m/s | -49.5°C | 3.7% | 101.0hPa | 2.5V | 00:00:00 | 01:37:28 | 00:00:00 | |
| DL3AQ-11 | 2026-08-31 11:09:05 | 53.11511 | 8.10787 | 49° | 40km/h | 16442m | -19.2m/s | -49.4°C | 1.2% | 100.5hPa | 2.5V | 00:00:00 | 00:00:00 | 00:00:00 | |
| DL1XH1-15 | 2026-08-31 11:09:04 | 53.11497 | 8.10764 | 45° | 40km/h | 16480m | -19.4m/s | -49.3°C | 3.6% | 99.9hPa | 2.5V | 08:24:49 | 01:37:24 | 00:00:00 | |
| HSKMA3-T | 2026-08-31 11:09:02 | 53.11497 | 8.10764 | 46° | 40km/h | 16480m | -19.4m/s | -49.3°C | 0.6% | 99.9hPa | 2.5V | 08:25:19 | 01:37:24 | 00:00:00 | |
| DO2JMG | 2026-08-31 11:09:01 | 53.11489 | 8.10753 | 38° | 42km/h | 16499m | -19.3m/s | -49.2°C | 0.5% | 99.6hPa | 2.7V | 08:25:19 | 01:37:23 | 00:00:00 | |
| DD8BA-10 | 2026-08-31 11:09:01 | 53.11489 | 8.10753 | 38° | 46km/h | 16499m | -19.3m/s | -49.2°C | 3.6% | 99.6hPa | 2.7V | 08:24:00 | 00:00:00 | 00:00:00 | |
| DL1XH-15 | 2026-08-31 11:09:00 | 53.11437 | 8.10686 | 39° | 46km/h | 16613m | -19.3m/s | -48.5°C | 3.4% | 97.9hPa | 2.7V | 08:24:56 | 01:37:17 | 00:00:00 | |
| DM0DOS-11 | 2026-08-31 11:09:00 | 53.11472 | 8.10730 | 38° | 46km/h | 16537m | -19.3m/s | -49.2°C | 3.6% | 99hPa | 2.6V | 08:24:52 | 01:37:21 | 00:00:00 | |
| DL1XH-west | 2026-08-31 11:09:00 | 53.11481 | 8.10742 | 40° | 42km/h | 16518m | -18.8m/s | -49.3°C | 0.5% | 99.3hPa | 2.7V | 08:25:19 | 01:37:22 | 00:00:00 | |
| AA1-15 | 2026-08-31 11:08:58 | 53.11464 | 8.10719 | 35° | 42km/h | 16556m | -19m/s | -48.9°C | 0.5% | 98.7hPa | 2.5V | 08:25:19 | 01:37:20 | 00:00:00 | |
| GOEST3-10 | 2026-08-31 11:08:58 | 53.11464 | 8.10719 | 35° | 46km/h | 16556m | -19.0m/s | -48.9°C | 3.5% | 98.7hPa | 2.5V | 00:00:00 | 00:00:00 | 00:00:00 | |
| DF5WG-10 | 2026-08-31 11:08:57 | 53.11455 | 8.10708 | 41° | 47km/h | 16575m | -19.0m/s | -48.5°C | 3.4% | 98.4hPa | 2.7V | 00:00:00 | 01:37:19 | 00:00:00 | |
| DF4FW | 2026-08-31 11:08:56 | 53.11455 | 8.10708 | 42° | 46km/h | 16575m | -19.0m/s | -48.6°C | 1.1% | 98.4hPa | 2.7V | 08:25:00 | 00:00:00 | 00:00:00 | |
| DB0DAN | 2026-08-31 11:08:55 | 53.11437 | 8.10686 | 39° | 44km/h | 16613m | -19.3m/s | -48.5°C | 1.1% | 97.89hPa | 2.7V | 00:00:00 | 00:00:00 | 00:00:00 | |
| DO2SHX-10 | 2026-08-31 11:08:55 | 53.11437 | 8.10686 | 40° | 46km/h | 16613m | -19.2m/s | -48.4°C | 3.4% | 97.8hPa | 2.5V | 00:00:00 | 01:37:17 | 00:00:00 | |
| DL1XH1-15 | 2026-08-31 11:08:54 | 53.11409 | 8.10650 | 40° | 51km/h | 16672m | -19.8m/s | -48.6°C | 3.5% | 97hPa | 2.5V | 08:24:59 | 01:37:14 | 00:00:00 | |
| HSKMA3-T | 2026-08-31 11:08:52 | 53.11409 | 8.10650 | 40° | 51km/h | 16672m | -19.8m/s | -48.6°C | 0.5% | 97hPa | 2.5V | 08:25:19 | 01:37:14 | 00:00:00 | |
| DO2JMG | 2026-08-31 11:08:51 | 53.11400 | 8.10637 | 36° | 47km/h | 16691m | -19.9m/s | -48.8°C | 0.5% | 96.7hPa | 2.5V | 08:25:19 | 01:37:13 | 00:00:00 | |
| DD8BA-10 | 2026-08-31 11:08:51 | 53.11400 | 8.10637 | 37° | 49km/h | 16691m | -19.9m/s | -48.8°C | 3.5% | 96.7hPa | 2.7V | 00:00:00 | 00:00:00 | 00:00:00 | |
| DM0DOS-11 | 2026-08-31 11:08:50 | 53.11380 | 8.10611 | 35° | 51km/h | 16730m | -19.9m/s | -49.1°C | 3.6% | 96.1hPa | 2.7V | 08:25:02 | 01:37:11 | 00:00:00 | |
| DF8AY | 2026-08-31 11:08:49 | 53.11330 | 8.10547 | 36° | 49km/h | 16828m | -20m/s | -49.9°C | 0.7% | 94.7hPa | 2.6V | 08:25:19 | 01:37:06 | 00:00:00 | |
| DL1XH-west | 2026-08-31 11:08:49 | 53.11380 | 8.10611 | 36° | 51km/h | 16730m | -19.9m/s | -49.1°C | 0.5% | 96.1hPa | 2.7V | 08:25:19 | 01:37:11 | 00:00:00 | |
| AA1-15 | 2026-08-31 11:08:48 | 53.11371 | 8.10599 | 42° | 47km/h | 16749m | -19.5m/s | -49.3°C | 0.5% | 95.8hPa | 2.6V | 08:27:01 | 01:37:10 | 00:00:00 | |
| HSKMA3-T | 2026-08-31 11:08:42 | 53.11310 | 8.10522 | 34° | 47km/h | 16868m | -19.9m/s | -49.8°C | 0.7% | 94.1hPa | 2.5V | 08:25:19 | 01:37:04 | 00:00:00 | |
| DO2JMG | 2026-08-31 11:08:41 | 53.11300 | 8.10510 | 41° | 49km/h | 16887m | -19.4m/s | -49.6°C | 0.7% | 93.8hPa | 2.5V | 08:25:19 | 01:37:03 | 00:00:00 | |
| DD8BA-10 | 2026-08-31 11:08:41 | 53.11300 | 8.10510 | 41° | 46km/h | 16887m | -19.4m/s | -49.5°C | 3.8% | 93.8hPa | 2.6V | 00:00:00 | 00:00:00 | 00:00:00 | |
| DM0DOS-11 | 2026-08-31 11:08:40 | 53.11281 | 8.10485 | 43° | 49km/h | 16926m | -19.7m/s | -49.4°C | 3.7% | 93.2hPa | 2.6V | 08:25:12 | 01:37:01 | 00:00:00 | |
| DL1XH-15 | 2026-08-31 11:08:40 | 53.11248 | 8.10430 | 49° | 44km/h | 17005m | -20.1m/s | -49.2°C | 3.7% | 92.1hPa | 2.7V | 08:25:16 | 01:36:57 | 00:00:00 | |
| DB0DAN | 2026-08-31 11:08:40 | 53.11290 | 8.10498 | 36° | 46km/h | 16907m | -20.1m/s | -49.5°C | 1.2% | 93.56hPa | 2.6V | 00:00:00 | 00:00:00 | 00:00:00 | |
| DL1XH-west | 2026-08-31 11:08:38 | 53.11272 | 8.10471 | 39° | 47km/h | 16946m | -20.5m/s | -49.4°C | 0.6% | 93hPa | 2.5V | 08:25:19 | 01:37:00 | 00:00:00 | |
| AA1-15 | 2026-08-31 11:08:37 | 53.11263 | 8.10458 | 48° | 46km/h | 16966m | -19.6m/s | -49.4°C | 0.6% | 92.7hPa | 2.5V | 08:25:19 | 01:36:59 | 00:00:00 | |
| HSKMA3-T | 2026-08-31 11:08:31 | 53.11219 | 8.10374 | 47° | 40km/h | 17086m | -20.3m/s | -48.8°C | 0.5% | 91hPa | 2.5V | 08:26:10 | 01:36:53 | 00:00:00 | |
| DO2JMG | 2026-08-31 11:08:30 | 53.11212 | 8.10361 | 51° | 42km/h | 17106m | -19.7m/s | -48.9°C | 0.5% | 90.7hPa | 2.5V | 08:26:10 | 01:36:52 | 00:00:00 | |
| DM0DOS-11 | 2026-08-31 11:08:30 | 53.11206 | 8.10349 | 45° | 38km/h | 17126m | -20.4m/s | -48.9°C | 3.6% | 90.5hPa | 2.7V | 08:25:22 | 01:36:51 | 00:00:00 | |
| BIOWL1-15 | 2026-08-31 11:08:29 | 53.11206 | 8.10349 | 45° | 38km/h | 17126m | -20.4m/s | -48.9°C | 0.5% | 90.5hPa | 2.7V | 08:26:10 | 01:36:51 | 00:00:00 | |
| DL1XH-west | 2026-08-31 11:08:28 | 53.11199 | 8.10336 | 52° | 40km/h | 17146m | -19.9m/s | -48.9°C | 0.6% | 90.2hPa | 2.6V | 08:26:10 | 01:36:50 | 00:00:00 | |
| DF8AY | 2026-08-31 11:08:27 | 53.11193 | 8.10324 | 45° | 38km/h | 17165m | -20.7m/s | -48.9°C | 0.6% | 89.9hPa | 2.5V | 08:26:10 | 01:36:49 | 00:00:00 | |
| AA1-15 | 2026-08-31 11:08:26 | 53.11186 | 8.10312 | 50° | 38km/h | 17185m | -20.5m/s | -48.7°C | 0.6% | 89.6hPa | 2.5V | 08:26:10 | 01:36:48 | 00:00:00 | |
| DC6BW-12 | 2026-08-31 11:08:26 | 53.11193 | 8.10324 | 46° | 38km/h | 17165m | -20.7m/s | -48.9°C | 1.2% | 89.9hPa | 2.5V | 08:26:00 | 00:00:00 | 00:00:00 | |
| DB0DAN | 2026-08-31 11:08:25 | 53.11180 | 8.10300 | 47° | 38km/h | 17205m | -20.9m/s | -48.6°C | 1.1% | 89.32hPa | 2.5V | 00:00:00 | 00:00:00 | 00:00:00 | |
| HSKMA3-T | 2026-08-31 11:08:21 | 53.11156 | 8.10252 | 58° | 37km/h | 17288m | -20.3m/s | -48.3°C | 0.4% | 88.2hPa | 2.5V | 08:26:10 | 01:36:43 | 00:00:00 | |
| DJ2DS-15 | 2026-08-31 11:08:21 | 53.11156 | 8.10252 | 58° | 27km/h | 17288m | -20.3m/s | -48.3°C | 3.4% | 88.2hPa | 2.5V | 00:00:00 | 01:36:43 | 00:00:00 | |
| DM0DOS-11 | 2026-08-31 11:08:20 | 53.11146 | 8.10230 | 57° | 31km/h | 17329m | -20m/s | -48.3°C | 3.4% | 87.7hPa | 2.6V | 08:25:32 | 01:36:41 | 00:00:00 | |
| DO2JMG | 2026-08-31 11:08:20 | 53.11150 | 8.10240 | 51° | 33km/h | 17308m | -20.8m/s | -48.3°C | 0.4% | 88hPa | 2.5V | 08:26:10 | 01:36:42 | 00:00:00 | |
| BIOWL1-15 | 2026-08-31 11:08:19 | 53.11132 | 8.10203 | 43° | 27km/h | 17389m | -20.5m/s | -48.2°C | 0.4% | 86.9hPa | 2.5V | 08:26:10 | 01:36:38 | 00:00:00 | |
| DL1XH-west | 2026-08-31 11:08:17 | 53.11137 | 8.10211 | 48° | 26km/h | 17369m | -20.5m/s | -48.1°C | 0.4% | 87.2hPa | 2.7V | 08:26:10 | 01:36:39 | 00:00:00 | |
| AA1-15 | 2026-08-31 11:08:15 | 53.11127 | 8.10197 | 33° | 22km/h | 17410m | -20.5m/s | -48.3°C | 0.4% | 86.6hPa | 2.5V | 08:27:01 | 01:36:37 | 00:00:00 | |
| GOEST3-10 | 2026-08-31 11:08:15 | 53.11127 | 8.10197 | 33° | 24km/h | 17410m | -20.5m/s | -48.3°C | 3.4% | 86.5hPa | 2.7V | 00:00:00 | 00:00:00 | 00:00:00 | |
| DF4FW | 2026-08-31 11:08:14 | 53.11127 | 8.10197 | 34° | 22km/h | 17410m | -20.5m/s | -48.3°C | 1.1% | 86.6hPa | 2.7V | 08:26:00 | 00:00:00 | 00:00:00 | |
| DO2SHX-10 | 2026-08-31 11:08:13 | 53.11117 | 8.10186 | 21° | 26km/h | 17450m | -20.5m/s | -48.2°C | 3.4% | 86.0hPa | 2.7V | 08:25:00 | 01:36:35 | 00:00:00 | |
| DD8BA-10 | 2026-08-31 11:08:11 | 53.11105 | 8.10178 | 19° | 27km/h | 17490m | -20.8m/s | -48.4°C | 3.4% | 85.5hPa | 2.5V | 00:00:00 | 00:00:00 | 00:00:00 | |
| DM0DOS-11 | 2026-08-31 11:08:10 | 53.11093 | 8.10170 | 25° | 27km/h | 17531m | -21m/s | -48.3°C | 3.4% | 85hPa | 2.5V | 08:25:42 | 01:36:31 | 00:00:00 | |
| DB0DAN | 2026-08-31 11:08:10 | 53.11099 | 8.10174 | 21° | 24km/h | 17511m | -20.5m/s | -48.4°C | 1.1% | 85.24hPa | 2.5V | 00:00:00 | 00:00:00 | 00:00:00 | |
| HSKMA3-T | 2026-08-31 11:08:10 | 53.11099 | 8.10174 | 21° | 24km/h | 17511m | -20.5m/s | -48.4°C | 0.4% | 85.2hPa | 2.5V | 08:26:10 | 01:36:32 | 00:00:00 | |
| DO2JMG | 2026-08-31 11:08:09 | 53.11093 | 8.10170 | 25° | 27km/h | 17531m | -21m/s | -48.3°C | 0.4% | 85hPa | 2.5V | 08:26:10 | 01:36:31 | 00:00:00 | |
| BIOWL1-15 | 2026-08-31 11:08:07 | 53.11028 | 8.10104 | 47° | 26km/h | 17763m | -20.9m/s | -48.6°C | 0.4% | 82.1hPa | 2.7V | 08:26:10 | 01:36:20 | 00:00:00 | |
| DL1XH-west | 2026-08-31 11:08:07 | 53.11081 | 8.10161 | 30° | 29km/h | 17574m | -20.8m/s | -48.4°C | 0.4% | 84.5hPa | 2.7V | 08:26:10 | 01:36:29 | 00:00:00 | |
| DF8AY | 2026-08-31 11:08:06 | 53.11074 | 8.10155 | 22° | 27km/h | 17595m | -21.3m/s | -48.4°C | 0.4% | 84.2hPa | 2.7V | 08:26:10 | 01:36:28 | 00:00:00 | |
| AA1-15 | 2026-08-31 11:08:05 | 53.11068 | 8.10150 | 33° | 27km/h | 17616m | -20.7m/s | -48.4°C | 0.4% | 83.9hPa | 2.5V | 08:27:01 | 01:36:27 | 00:00:00 | |
| DF8AY-15 | 2026-08-31 11:08:05 | 53.11068 | 8.10150 | 34° | 26km/h | 17616m | -20.7m/s | -48.4°C | 3.3% | 83.9hPa | 2.6V | 00:00:00 | 01:36:27 | 00:00:00 | |
| DM0DOS-11 | 2026-08-31 11:08:04 | 53.11033 | 8.10111 | 33° | 26km/h | 17742m | -21.6m/s | -48.9°C | 3.4% | 82.3hPa | 2.6V | 08:25:52 | 01:36:21 | 00:00:00 | |
| DL1XH1-15 | 2026-08-31 11:08:04 | 53.11050 | 8.10131 | 35° | 29km/h | 17679m | -21.4m/s | -48.6°C | 3.4% | 83.1hPa | 2.7V | 08:25:49 | 01:36:24 | 00:00:00 | |
| HSKMA3-T | 2026-08-31 11:08:00 | 53.11039 | 8.10118 | 40° | 29km/h | 17722m | -20.8m/s | -48.9°C | 0.4% | 82.6hPa | 2.5V | 08:26:10 | 01:36:22 | 00:00:00 | |
| DO2JMG | 2026-08-31 11:07:59 | 53.11033 | 8.10111 | 33° | 26km/h | 17742m | -21.6m/s | -48.9°C | 0.4% | 82.3hPa | 2.6V | 08:26:10 | 01:36:21 | 00:00:00 | |
| BIOWL1-15 | 2026-08-31 11:07:56 | 53.11000 | 8.10069 | 21° | 26km/h | 17890m | -21.6m/s | -48.7°C | 0.4% | 80.5hPa | 2.7V | 08:26:10 | 01:36:14 | 00:00:00 | |
| DL1XH-west | 2026-08-31 11:07:56 | 53.11019 | 8.10091 | 38° | 20km/h | 17805m | -21.1m/s | -48.7°C | 0.4% | 81.5hPa | 2.7V | 08:26:10 | 01:36:18 | 00:00:00 | |
| DF8AY | 2026-08-31 11:07:55 | 53.10988 | 8.10060 | 24° | 31km/h | 17932m | -21.7m/s | -48.9°C | 0.4% | 80hPa | 2.5V | 08:26:10 | 01:36:12 | 00:00:00 | |
| DB0DAN | 2026-08-31 11:07:55 | 53.11015 | 8.10085 | 40° | 24km/h | 17825m | -21.6m/s | -48.7°C | 1.1% | 81.28hPa | 2.5V | 00:00:00 | 00:00:00 | 00:00:00 | |
| AA1-15 | 2026-08-31 11:07:55 | 53.11015 | 8.10085 | 40° | 26km/h | 17825m | -21.6m/s | -48.7°C | 0.4% | 81.3hPa | 2.5V | 08:27:01 | 01:36:17 | 00:00:00 | |
| GOEST3-10 | 2026-08-31 11:07:55 | 53.11015 | 8.10085 | 40° | 26km/h | 17825m | -21.6m/s | -48.6°C | 3.4% | 81.2hPa | 2.5V | 00:00:00 | 00:00:00 | 00:00:00 | |
| DM0DOS-11 | 2026-08-31 11:07:54 | 53.10981 | 8.10055 | 21° | 29km/h | 17954m | -21.6m/s | -49.1°C | 3.4% | 79.7hPa | 2.5V | 08:26:02 | 01:36:11 | 00:00:00 | |
| DL1XH1-15 | 2026-08-31 11:07:54 | 53.11000 | 8.10069 | 20° | 24km/h | 17890m | -21.6m/s | -48.7°C | 3.4% | 80.5hPa | 2.7V | 08:25:59 | 01:36:14 | 00:00:00 | |
| DO2JMG | 2026-08-31 11:07:49 | 53.10981 | 8.10055 | 22° | 29km/h | 17954m | -21.6m/s | -49.1°C | 0.4% | 79.7hPa | 2.5V | 08:26:10 | 01:36:11 | 00:00:00 | |
| AA1-15 | 2026-08-31 11:07:45 | 53.10950 | 8.10028 | 29° | 42km/h | 18040m | -21.8m/s | -49.8°C | 0.6% | 78.7hPa | 2.6V | 08:26:10 | 01:36:07 | 00:00:00 | |
| DL3AQ-11 | 2026-08-31 11:07:45 | 53.10941 | 8.10019 | 32° | 37km/h | 18062m | -21.8m/s | -49.9°C | 1.2% | 78.4hPa | 2.6V | 00:00:00 | 00:00:00 | 00:00:00 | |
| DL1XH1-15 | 2026-08-31 11:07:44 | 53.10925 | 8.10000 | 36° | 38km/h | 18105m | -22.5m/s | -50.2°C | 3.7% | 77.9hPa | 2.6V | 08:26:09 | 01:36:04 | 00:00:00 | |
| DF8AY | 2026-08-31 11:07:40 | 53.10910 | 8.09978 | 41° | 38km/h | 18149m | -21.8m/s | -50.4°C | 0.7% | 77.4hPa | 2.7V | 08:27:01 | 01:36:02 | 00:00:00 | |
| DB0DAN | 2026-08-31 11:07:40 | 53.10910 | 8.09978 | 40° | 37km/h | 18149m | -21.8m/s | -50.4°C | 1.2% | 77.36hPa | 2.7V | 00:00:00 | 00:00:00 | 00:00:00 | |
| DM0DOS-11 | 2026-08-31 11:07:39 | 53.10903 | 8.09966 | 52° | 38km/h | 18170m | -21.1m/s | -50.3°C | 3.8% | 77.1hPa | 2.5V | 08:26:12 | 01:36:01 | 00:00:00 | |
| DO2JMG | 2026-08-31 11:07:39 | 53.10903 | 8.09966 | 52° | 38km/h | 18170m | -21.1m/s | -50.3°C | 0.7% | 77.1hPa | 2.5V | 08:27:01 | 01:36:01 | 00:00:00 | |
| DL1XH-west | 2026-08-31 11:07:35 | 53.10882 | 8.09919 | 59° | 29km/h | 18256m | -21.9m/s | -49.9°C | 0.6% | 76.1hPa | 2.5V | 08:27:01 | 01:35:57 | 00:00:00 | |
| AA1-15 | 2026-08-31 11:07:34 | 53.10878 | 8.09908 | 60° | 33km/h | 18278m | -22.1m/s | -49.9°C | 0.6% | 75.8hPa | 2.5V | 08:27:01 | 01:35:56 | 00:00:00 | |
| DL1XH1-15 | 2026-08-31 11:07:33 | 53.10869 | 8.09887 | 56° | 31km/h | 18322m | -21.8m/s | -50.2°C | 3.7% | 75.3hPa | 2.7V | 08:26:19 | 01:35:54 | 00:00:00 | |
| BIOWL1-15 | 2026-08-31 11:07:31 | 53.10864 | 8.09877 | 45° | 29km/h | 18343m | -22.1m/s | -50.3°C | 0.6% | 75.1hPa | 2.7V | 08:27:01 | 01:35:53 | 00:00:00 | |
| DD8BA-10 | 2026-08-31 11:07:31 | 53.10864 | 8.09877 | 45° | 38km/h | 18344m | -22.1m/s | -50.2°C | 3.7% | 75.0hPa | 2.7V | 08:26:00 | 00:00:00 | 00:00:00 | |
| DL1XH-15 | 2026-08-31 11:07:30 | 53.10823 | 8.09821 | 38° | 42km/h | 18475m | -21.7m/s | -50.1°C | 3.7% | 73.6hPa | 2.7V | 08:26:26 | 01:35:47 | 00:00:00 | |
| DO2JMG | 2026-08-31 11:07:29 | 53.10854 | 8.09859 | 40° | 35km/h | 18386m | -22m/s | -50.3°C | 0.7% | 74.6hPa | 2.5V | 08:27:01 | 01:35:51 | 00:00:00 | |
| DL1XH1-15 | 2026-08-31 11:07:27 | 53.10797 | 8.09789 | 38° | 46km/h | 18541m | -21.7m/s | -50.5°C | 3.8% | 72.8hPa | 2.7V | 08:26:29 | 01:35:44 | 00:00:00 | |
| GOEST3-10 | 2026-08-31 11:07:27 | 53.10840 | 8.09840 | 39° | 46km/h | 18431m | -21.8m/s | -50.0°C | 3.7% | 74.1hPa | 2.7V | 00:00:00 | 01:35:49 | 00:00:00 | |
| DF4FW | 2026-08-31 11:07:26 | 53.10839 | 8.09840 | 40° | 38km/h | 18431m | -21.8m/s | -50.1°C | 1.2% | 74.1hPa | 2.7V | 00:00:00 | 00:00:00 | 00:00:00 | |
| DB0DAN | 2026-08-31 11:07:25 | 53.10823 | 8.09821 | 38° | 40km/h | 18475m | -21.7m/s | -50.1°C | 1.2% | 73.61hPa | 2.7V | 00:00:00 | 00:00:00 | 00:00:00 | |
| DL1XH-west | 2026-08-31 11:07:24 | 53.10815 | 8.09811 | 35° | 46km/h | 18497m | -22.4m/s | -50.2°C | 0.6% | 73.3hPa | 2.5V | 08:27:01 | 01:35:46 | 00:00:00 | |
| DL8OAI-8 | 2026-08-31 11:07:23 | 53.10815 | 8.09810 | 36° | 46km/h | 18497m | -22.4m/s | -50.2°C | 1.2% | 73.3hPa | 2.7V | 08:27:00 | 00:00:00 | 00:00:00 | |
| DD8BA-10 | 2026-08-31 11:07:21 | 53.10788 | 8.09777 | 38° | 38km/h | 18563m | -22.4m/s | -50.6°C | 3.9% | 72.6hPa | 2.7V | 00:00:00 | 00:00:00 | 00:00:00 | |
| DL1XH-15 | 2026-08-31 11:07:20 | 53.10741 | 8.09711 | 34° | 37km/h | 18695m | -22.5m/s | -50.5°C | 3.8% | 71.2hPa | 2.7V | 08:26:36 | 01:35:37 | 00:00:00 | |
| DF8AY | 2026-08-31 11:07:19 | 53.10771 | 8.09753 | 38° | 42km/h | 18607m | -22.7m/s | -50.7°C | 0.8% | 72.1hPa | 2.5V | 08:27:01 | 01:35:41 | 00:00:00 | |
| DO2JMG | 2026-08-31 11:07:18 | 53.10763 | 8.09742 | 44° | 40km/h | 18629m | -21.9m/s | -50.7°C | 0.7% | 71.8hPa | 2.5V | 08:27:01 | 01:35:40 | 00:00:00 | |
| DL1XH-west | 2026-08-31 11:07:13 | 53.10726 | 8.09693 | 37° | 37km/h | 18739m | -22.2m/s | -50.5°C | 0.7% | 70.7hPa | 2.6V | 08:27:01 | 01:35:35 | 00:00:00 | |
| DF4FW | 2026-08-31 11:07:12 | 53.10726 | 8.09693 | 38° | 37km/h | 18739m | -22.2m/s | -50.5°C | 1.2% | 70.6hPa | 2.7V | 00:00:00 | 00:00:00 | 00:00:00 | |
| DB0DAN | 2026-08-31 11:07:10 | 53.10703 | 8.09667 | 32° | 37km/h | 18807m | -23.2m/s | -50.1°C | 1.2% | 69.93hPa | 2.7V | 00:00:00 | 00:00:00 | 00:00:00 | |
| DL1XH-15 | 2026-08-31 11:07:10 | 53.10664 | 8.09615 | 38° | 38km/h | 18920m | -23m/s | -50.2°C | 3.6% | 68.7hPa | 2.7V | 08:26:46 | 01:35:27 | 00:00:00 | |
| BIOWL1-15 | 2026-08-31 11:07:10 | 53.10703 | 8.09667 | 32° | 38km/h | 18807m | -23.2m/s | -50.1°C | 0.6% | 69.9hPa | 2.7V | 08:27:01 | 01:35:32 | 00:00:00 | |
| DF8AY | 2026-08-31 11:07:08 | 53.10687 | 8.09647 | 39° | 42km/h | 18853m | -22.6m/s | -50°C | 0.5% | 69.4hPa | 2.5V | 08:27:01 | 01:35:30 | 00:00:00 | |
| DO2JMG | 2026-08-31 11:07:07 | 53.10679 | 8.09637 | 36° | 38km/h | 18875m | -22.8m/s | -50.1°C | 0.6% | 69.2hPa | 2.6V | 08:27:01 | 01:35:29 | 00:00:00 | |
| DL1XH-west | 2026-08-31 11:07:03 | 53.10650 | 8.09594 | 39° | 37km/h | 18965m | -23.1m/s | -50.5°C | 0.6% | 68.2hPa | 2.5V | 08:27:01 | 01:35:25 | 00:00:00 | |
| DL8OAI-8 | 2026-08-31 11:07:02 | 53.10650 | 8.09594 | 40° | 37km/h | 18966m | -23.1m/s | -50.5°C | 1.2% | 68.2hPa | 2.6V | 08:27:00 | 00:00:00 | 00:00:00 | |
| DJ2DS-15 | 2026-08-31 11:07:01 | 53.10636 | 8.09572 | 41° | 42km/h | 19011m | -23.3m/s | -50.5°C | 3.7% | 67.7hPa | 2.6V | 00:00:00 | 01:35:23 | 00:00:00 | |
| DL1XH-15 | 2026-08-31 11:07:00 | 53.10593 | 8.09486 | 61° | 51km/h | 19151m | -23m/s | -50.9°C | 3.9% | 66.3hPa | 2.6V | 08:26:56 | 01:35:17 | 00:00:00 | |
| BIOWL1-15 | 2026-08-31 11:06:59 | 53.10587 | 8.09467 | 60° | 49km/h | 19175m | -23.5m/s | -51.1°C | 0.7% | 66hPa | 2.6V | 08:27:01 | 01:35:16 | 00:00:00 | |
| DF8AY | 2026-08-31 11:06:58 | 53.10614 | 8.09534 | 50° | 44km/h | 19081m | -23.5m/s | -50.6°C | 0.7% | 67hPa | 2.6V | 08:27:01 | 01:35:20 | 00:00:00 | |
| DO2JMG | 2026-08-31 11:06:57 | 53.10607 | 8.09519 | 52° | 49km/h | 19105m | -23.3m/s | -50.7°C | 0.7% | 66.8hPa | 2.5V | 08:27:01 | 01:35:19 | 00:00:00 | |
| HSKMA3-T | 2026-08-31 11:06:56 | 53.10599 | 8.09503 | 55° | 47km/h | 19128m | -23.4m/s | -50.8°C | 0.7% | 66.6hPa | 2.5V | 08:27:01 | 01:35:18 | 00:00:00 | |
| SONCRA | 2026-08-31 11:06:56 | 53.10593 | 8.09486 | 61° | 51km/h | 19151m | -23.0m/s | -50.9°C | 1.2% | 66.3hPa | 2.6V | 00:00:00 | 00:00:00 | 00:00:00 | |
| DB0DAN | 2026-08-31 11:06:55 | 53.10593 | 8.09486 | 61° | 49km/h | 19151m | -23m/s | -50.9°C | 1.2% | 66.32hPa | 2.6V | 00:00:00 | 00:00:00 | 00:00:00 | |
| AA1-15 | 2026-08-31 11:06:53 | 53.10582 | 8.09448 | 70° | 51km/h | 19198m | -22.8m/s | -51.2°C | 0.8% | 65.9hPa | 2.7V | 08:27:01 | 01:35:15 | 00:00:00 | |
| DL1XH-west | 2026-08-31 11:06:52 | 53.10577 | 8.09429 | 69° | 49km/h | 19221m | -23.8m/s | -51.4°C | 0.8% | 65.6hPa | 2.7V | 08:27:01 | 01:35:14 | 00:00:00 | |
| DD8BA-10 | 2026-08-31 11:06:51 | 53.10573 | 8.09410 | 75° | 37km/h | 19244m | -23.4m/s | -51.5°C | 4.1% | 65.3hPa | 2.7V | 00:00:00 | 00:00:00 | 00:00:00 | |
| DL1XH-15 | 2026-08-31 11:06:50 | 53.10560 | 8.09313 | 74° | 31km/h | 19384m | -23.7m/s | -51.6°C | 4.1% | 64hPa | 2.7V | 08:27:06 | 01:35:07 | 00:00:00 | |
| DM0DOS-11 | 2026-08-31 11:06:50 | 53.10567 | 8.09373 | 76° | 40km/h | 19291m | -23.6m/s | -51.7°C | 4.1% | 64.9hPa | 2.5V | 08:27:02 | 01:35:11 | 00:00:00 | |
| BIOWL1-15 | 2026-08-31 11:06:50 | 53.10565 | 8.09356 | 80° | 40km/h | 19315m | -22.9m/s | -51.7°C | 0.9% | 64.6hPa | 2.6V | 08:27:52 | 01:35:10 | 00:00:00 | |
| DF8AY | 2026-08-31 11:06:47 | 53.10563 | 8.09340 | 78° | 35km/h | 19337m | -23.6m/s | -51.6°C | 0.9% | 64.5hPa | 2.7V | 08:27:52 | 01:35:09 | 00:00:00 | |
| DO2JMG | 2026-08-31 11:06:46 | 53.10562 | 8.09326 | 81° | 33km/h | 19361m | -23.1m/s | -51.6°C | 0.9% | 64.2hPa | 2.7V | 08:27:52 | 01:35:08 | 00:00:00 | |
| HSKMA3-T | 2026-08-31 11:06:45 | 53.10560 | 8.09313 | 75° | 31km/h | 19384m | -23.7m/s | -51.6°C | 0.9% | 64hPa | 2.7V | 08:27:52 | 01:35:07 | 00:00:00 | |
| AA1-15 | 2026-08-31 11:06:43 | 53.10556 | 8.09288 | 71° | 31km/h | 19431m | -23.7m/s | -51.7°C | 1% | 63.5hPa | 2.5V | 08:27:52 | 01:35:05 | 00:00:00 | |
| DL1XH-west | 2026-08-31 11:06:42 | 53.10554 | 8.09277 | 67° | 27km/h | 19454m | -23.9m/s | -51.7°C | 0.9% | 63.3hPa | 2.6V | 08:27:52 | 01:35:04 | 00:00:00 | |
| DL8OAI-8 | 2026-08-31 11:06:41 | 53.10554 | 8.09277 | 68° | 27km/h | 19454m | -23.9m/s | -51.7°C | 1.3% | 63.3hPa | 2.7V | 08:27:00 | 00:00:00 | 00:00:00 | |
| DB0DAN | 2026-08-31 11:06:40 | 53.10549 | 8.09255 | 64° | 27km/h | 19501m | -24.4m/s | -51.3°C | 1.3% | 62.77hPa | 2.7V | 00:00:00 | 00:00:00 | 00:00:00 | |
| DL1XH-15 | 2026-08-31 11:06:40 | 53.10540 | 8.09200 | 74° | 22km/h | 19621m | -24.2m/s | -51°C | 3.8% | 61.7hPa | 2.7V | 08:27:16 | 01:34:57 | 00:00:00 | |
| DM0DOS-11 | 2026-08-31 11:06:40 | 53.10546 | 8.09243 | 77° | 29km/h | 19525m | -23.6m/s | -51.2°C | 4% | 62.6hPa | 2.5V | 08:27:12 | 01:35:01 | 00:00:00 | |
| DF8AY | 2026-08-31 11:06:37 | 53.10543 | 8.09221 | 80° | 27km/h | 19573m | -23.9m/s | -50.9°C | 0.7% | 62.1hPa | 2.6V | 08:27:52 | 01:34:59 | 00:00:00 | |
| DO2JMG | 2026-08-31 11:06:36 | 53.10541 | 8.09210 | 73° | 26km/h | 19597m | -24.1m/s | -50.9°C | 0.8% | 61.9hPa | 2.7V | 08:27:52 | 01:34:58 | 00:00:00 | |
| HSKMA3-T | 2026-08-31 11:06:34 | 53.10538 | 8.09191 | 70° | 24km/h | 19645m | -24.4m/s | -51.1°C | 0.8% | 61.4hPa | 2.7V | 08:27:52 | 01:34:56 | 00:00:00 | |
| AA1-15 | 2026-08-31 11:06:33 | 53.10533 | 8.09177 | 61° | 20km/h | 19693m | -24.2m/s | -51.3°C | 0.8% | 60.9hPa | 2.6V | 08:27:52 | 01:34:54 | 00:00:00 | |
| DL1XH-west | 2026-08-31 11:06:31 | 53.10530 | 8.09171 | 44° | 16km/h | 19718m | -24.7m/s | -51.3°C | 0.8% | 60.7hPa | 2.6V | 08:27:52 | 01:34:53 | 00:00:00 | |
| DD8BA-10 | 2026-08-31 11:06:31 | 53.10530 | 8.09171 | 45° | 15km/h | 19718m | -24.7m/s | -51.2°C | 3.9% | 60.7hPa | 2.6V | 00:00:00 | 00:00:00 | 00:00:00 | |
| DL1XH-15 | 2026-08-31 11:06:30 | 53.10513 | 8.09151 | 16° | 15km/h | 19864m | -25.1m/s | -50.8°C | 3.8% | 59.4hPa | 2.6V | 08:27:26 | 01:34:47 | 00:00:00 | |
| DF8AY | 2026-08-31 11:06:26 | 53.10516 | 8.09152 | 20° | 11km/h | 19839m | -24.8m/s | -50.9°C | 0.7% | 59.6hPa | 2.6V | 08:27:52 | 01:34:48 | 00:00:00 | |
| DB0DAN | 2026-08-31 11:06:25 | 53.10513 | 8.09151 | 17° | 15km/h | 19864m | -25.1m/s | -50.8°C | 1.2% | 59.37hPa | 2.6V | 00:00:00 | 00:00:00 | 00:00:00 | |
| DO2JMG | 2026-08-31 11:06:25 | 53.10513 | 8.09151 | 17° | 15km/h | 19864m | -25.1m/s | -50.8°C | 0.8% | 59.4hPa | 2.6V | 08:27:52 | 01:34:47 | 00:00:00 | |
| HSKMA3-T | 2026-08-31 11:06:24 | 53.10510 | 8.09150 | 7° | 15km/h | 19889m | -24.7m/s | -50.7°C | 0.7% | 59.2hPa | 2.7V | 08:27:52 | 01:34:46 | 00:00:00 | |
| DL1XH1-15 | 2026-08-31 11:06:23 | 53.10501 | 8.09148 | 10° | 20km/h | 19937m | -25.1m/s | -50.5°C | 3.7% | 58.7hPa | 2.5V | 08:27:29 | 01:34:44 | 00:00:00 | |
| AA1-15 | 2026-08-31 11:06:22 | 53.10501 | 8.09148 | 11° | 20km/h | 19937m | -25.1m/s | -50.6°C | 0.7% | 58.7hPa | 2.5V | 08:27:52 | 01:34:44 | 00:00:00 | |
| DL1XH-west | 2026-08-31 11:06:20 | 53.10489 | 8.09143 | 18° | 26km/h | 19988m | -25.5m/s | -50.9°C | 0.7% | 58.2hPa | 2.6V | 08:27:52 | 01:34:42 | 00:00:00 | |
| DM0DOS-11 | 2026-08-31 11:06:19 | 53.10482 | 8.09139 | 22° | 31km/h | 20014m | -25.1m/s | -51.1°C | 3.8% | 58hPa | 2.7V | 08:27:32 | 01:34:41 | 00:00:00 | |
| DL4XJ-10 | 2026-08-31 11:06:18 | 53.10476 | 8.09134 | 25° | 26km/h | 20039m | -25.0m/s | -50.7°C | 0% | 0hPa | 2.7V | 00:00:00 | 00:00:00 | 00:00:00 | |
| DL1XH1-15 | 2026-08-31 11:06:17 | 53.10437 | 8.09097 | 28° | 27km/h | 20190m | -25.6m/s | -52°C | 4.2% | 56.5hPa | 2.7V | 08:27:39 | 01:34:34 | 00:00:00 | |
| DF8AY | 2026-08-31 11:06:16 | 53.10462 | 8.09122 | 27° | 29km/h | 20089m | -25.3m/s | -51.7°C | 0.9% | 57.3hPa | 2.5V | 08:27:52 | 01:34:38 | 00:00:00 | |
| BIOWL1-15 | 2026-08-31 11:06:15 | 53.10449 | 8.09109 | 26° | 29km/h | 20139m | -25.6m/s | -51.8°C | 0.9% | 56.9hPa | 2.6V | 08:27:52 | 01:34:36 | 00:00:00 | |
| DO2JMG | 2026-08-31 11:06:15 | 53.10456 | 8.09116 | 36° | 31km/h | 20114m | -25m/s | -51.8°C | 0.9% | 57.1hPa | 2.5V | 08:27:52 | 01:34:37 | 00:00:00 | |
| HSKMA3-T | 2026-08-31 11:06:13 | 53.10443 | 8.09103 | 36° | 27km/h | 20165m | -24.9m/s | -51.9°C | 1% | 56.7hPa | 2.7V | 08:27:52 | 01:34:35 | 00:00:00 | |
| AA1-15 | 2026-08-31 11:06:12 | 53.10437 | 8.09097 | 28° | 27km/h | 20190m | -25.7m/s | -52°C | 0.9% | 56.5hPa | 2.7V | 08:27:52 | 01:34:34 | 00:00:00 | |
| DL1XH-west | 2026-08-31 11:06:10 | 53.10425 | 8.09085 | 32° | 29km/h | 20239m | -26.1m/s | -52°C | 1% | 56hPa | 2.5V | 08:27:52 | 01:34:32 | 00:00:00 | |
| DB0DAN | 2026-08-31 11:06:10 | 53.10425 | 8.09085 | 32° | 27km/h | 20239m | -26.1m/s | -52°C | 1.3% | 56.03hPa | 2.5V | 00:00:00 | 00:00:00 | 00:00:00 | |
| DF8AY | 2026-08-31 11:06:05 | 53.10404 | 8.09054 | 45° | 16km/h | 20368m | -25.7m/s | -52.1°C | 1% | 54.9hPa | 2.6V | 08:27:52 | 01:34:27 | 00:00:00 | |
| GOEST3-10 | 2026-08-31 11:06:05 | 53.10404 | 8.09054 | 46° | 22km/h | 20368m | -25.7m/s | -52.1°C | 4.3% | 54.9hPa | 2.6V | 00:00:00 | 01:34:27 | 00:00:00 | |
| DM0DOS-11 | 2026-08-31 11:06:04 | 53.10379 | 8.09021 | 32° | 24km/h | 20523m | -26.6m/s | -51.7°C | 4.1% | 53.6hPa | 2.6V | 08:27:52 | 01:34:21 | 00:00:00 | |
| DO2JMG | 2026-08-31 11:06:04 | 53.10401 | 8.09049 | 46° | 20km/h | 20394m | -26.2m/s | -52°C | 1% | 54.7hPa | 2.6V | 08:27:52 | 01:34:26 | 00:00:00 | |
| DL1XH1-15 | 2026-08-31 11:06:03 | 53.10392 | 8.09038 | 43° | 22km/h | 20446m | -26m/s | -51.9°C | 4.2% | 54.2hPa | 2.7V | 08:27:49 | 01:34:24 | 00:00:00 | |
| HSKMA3-T | 2026-08-31 11:06:02 | 53.10393 | 8.09038 | 44° | 22km/h | 20446m | -26m/s | -51.9°C | 1% | 54.3hPa | 2.7V | 08:27:52 | 01:34:24 | 00:00:00 | |
| DL1XH-west | 2026-08-31 11:05:59 | 53.10379 | 8.09021 | 32° | 24km/h | 20523m | -26.6m/s | -51.7°C | 0.9% | 53.6hPa | 2.6V | 08:27:52 | 01:34:21 | 00:00:00 | |
| GOEST3-10 | 2026-08-31 11:05:59 | 53.10379 | 8.09021 | 33° | 26km/h | 20523m | -26.6m/s | -51.6°C | 4.1% | 53.6hPa | 2.5V | 00:00:00 | 00:00:00 | 00:00:00 | |
| DL1XH1-15 | 2026-08-31 11:05:57 | 53.10353 | 8.08967 | 65° | 20km/h | 20706m | -26.3m/s | -51.2°C | 3.9% | 52.1hPa | 2.5V | 08:27:59 | 01:34:14 | 00:00:00 | |
| BIOWL1-15 | 2026-08-31 11:05:57 | 53.10361 | 8.08991 | 53° | 24km/h | 20628m | -26.8m/s | -51.2°C | 0.8% | 52.7hPa | 2.7V | 08:28:43 | 01:34:17 | 00:00:00 | |
| DD1CC8 | 2026-08-31 11:05:56 | 53.10361 | 8.08991 | 52° | 22km/h | 20628m | -26.8m/s | -51.2°C | 1.2% | 52.7hPa | 2.7V | 00:00:00 | 00:00:00 | 00:00:00 | |
| DB0DAN | 2026-08-31 11:05:55 | 53.10361 | 8.08991 | 53° | 22km/h | 20628m | -26.8m/s | -51.2°C | 1.2% | 52.74hPa | 2.7V | 00:00:00 | 00:00:00 | 00:00:00 | |
| DF8AY | 2026-08-31 11:05:54 | 53.10358 | 8.08982 | 65° | 24km/h | 20654m | -26.2m/s | -51.2°C | 0.8% | 52.5hPa | 2.7V | 08:28:43 | 01:34:16 | 00:00:00 | |
| DM0DOS-11 | 2026-08-31 11:05:54 | 53.10347 | 8.08951 | 45° | 13km/h | 20784m | -26.4m/s | -51.3°C | 4% | 51.5hPa | 2.7V | 08:28:02 | 01:34:11 | 00:00:00 | |
| DO2JMG | 2026-08-31 11:05:53 | 53.10355 | 8.08974 | 63° | 18km/h | 20680m | -26.8m/s | -51.2°C | 0.8% | 52.4hPa | 2.5V | 08:28:43 | 01:34:15 | 00:00:00 | |
| HSKMA3-T | 2026-08-31 11:05:52 | 53.10353 | 8.08967 | 65° | 20km/h | 20707m | -26.3m/s | -51.2°C | 0.8% | 52.1hPa | 2.5V | 08:28:43 | 01:34:14 | 00:00:00 | |
| DD8BA-10 | 2026-08-31 11:05:51 | 53.10351 | 8.08960 | 67° | 18km/h | 20733m | -26.1m/s | -51.2°C | 3.9% | 51.9hPa | 2.7V | 00:00:00 | 00:00:00 | 00:00:00 | |
| DL1XH-15 | 2026-08-31 11:05:50 | 53.10331 | 8.08937 | 18° | 20km/h | 20889m | -26.6m/s | -51.5°C | 4% | 50.6hPa | 2.7V | 08:28:06 | 01:34:07 | 00:00:00 | |
| DL1XH-west | 2026-08-31 11:05:49 | 53.10347 | 8.08951 | 46° | 13km/h | 20784m | -26.4m/s | -51.3°C | 0.9% | 51.5hPa | 2.7V | 08:28:43 | 01:34:11 | 00:00:00 | |
| DF8AY | 2026-08-31 11:05:45 | 53.10326 | 8.08934 | 25° | 26km/h | 20915m | -26m/s | -51.6°C | 0.9% | 50.4hPa | 2.5V | 08:28:43 | 01:34:06 | 00:00:00 | |
| DL3AQ-11 | 2026-08-31 11:05:45 | 53.10326 | 8.08934 | 25° | 24km/h | 20915m | -26.0m/s | -51.6°C | 1.3% | 50.4hPa | 2.6V | 00:00:00 | 00:00:00 | 00:00:00 | |
| GOEST3-10 | 2026-08-31 11:05:44 | 53.10326 | 8.08934 | 26° | 24km/h | 20915m | -26.0m/s | -51.5°C | 4.1% | 50.4hPa | 2.6V | 00:00:00 | 01:34:06 | 00:00:00 | |
| DL1XH1-15 | 2026-08-31 11:05:43 | 53.10314 | 8.08927 | 30° | 24km/h | 20968m | -26.5m/s | -51.6°C | 4.1% | 50hPa | 2.6V | 08:28:09 | 01:34:04 | 00:00:00 | |
| DO2JMG | 2026-08-31 11:05:42 | 53.10314 | 8.08927 | 31° | 24km/h | 20968m | -26.5m/s | -51.6°C | 0.9% | 50hPa | 2.6V | 08:28:43 | 01:34:04 | 00:00:00 | |
| HSKMA3-T | 2026-08-31 11:05:41 | 53.10309 | 8.08922 | 24° | 26km/h | 20994m | -27.1m/s | -51.7°C | 0.9% | 49.8hPa | 2.7V | 08:28:43 | 01:34:03 | 00:00:00 | |
| DB0DAN | 2026-08-31 11:05:40 | 53.10303 | 8.08917 | 33° | 22km/h | 21021m | -26.9m/s | -51.8°C | 1.3% | 49.65hPa | 2.7V | 00:00:00 | 00:00:00 | 00:00:00 | |
| DL1XH-15 | 2026-08-31 11:05:40 | 53.10284 | 8.08880 | 69° | 24km/h | 21157m | -26.4m/s | -52.2°C | 4.4% | 48.6hPa | 2.7V | 08:28:16 | 01:33:57 | 00:00:00 | |
| DM0DOS-11 | 2026-08-31 11:05:39 | 53.10299 | 8.08911 | 38° | 26km/h | 21048m | -26.8m/s | -51.8°C | 4.2% | 49.4hPa | 2.6V | 08:28:12 | 01:34:01 | 00:00:00 | |
| DJ2KF-10 | 2026-08-31 11:05:39 | 53.10298 | 8.08911 | 39° | 11km/h | 21048m | -26.8m/s | -51.8°C | 4.2% | 49.4hPa | 2.6V | 08:28:00 | 01:34:01 | 00:00:00 | |
| DL1XH-west | 2026-08-31 11:05:39 | 53.10298 | 8.08911 | 39° | 26km/h | 21048m | -26.8m/s | -51.8°C | 1% | 49.4hPa | 2.6V | 08:28:43 | 01:34:01 | 00:00:00 | |
| DL1XH1-15 | 2026-08-31 11:05:37 | 53.10278 | 8.08854 | 75° | 18km/h | 21237m | -27.6m/s | -51.8°C | 4.2% | 48hPa | 2.5V | 08:28:19 | 01:33:54 | 00:00:00 | |
| DO9LL-15 | 2026-08-31 11:05:36 | 53.10286 | 8.08889 | 53° | 9km/h | 21129m | -27.7m/s | -52.1°C | 4.3% | 48.8hPa | 2.7V | 00:00:00 | 01:33:58 | 00:00:00 | |
| DL4XJ-10 | 2026-08-31 11:05:35 | 53.10284 | 8.08880 | 70° | 11km/h | 21157m | -26.4m/s | -51.5°C | 0% | 0hPa | 2.7V | 00:00:00 | 00:00:00 | 00:00:00 | |
| DM0DOS-11 | 2026-08-31 11:05:34 | 53.10277 | 8.08831 | 99° | 15km/h | 21319m | -27.5m/s | -51.3°C | 4% | 47.4hPa | 2.7V | 08:28:22 | 01:33:51 | 00:00:00 | |
| DF8AY | 2026-08-31 11:05:34 | 53.10281 | 8.08872 | 65° | 22km/h | 21183m | -27.3m/s | -52.2°C | 1.1% | 48.4hPa | 2.7V | 08:28:43 | 01:33:56 | 00:00:00 | |
| AA1-15 | 2026-08-31 11:05:32 | 53.10278 | 8.08854 | 76° | 18km/h | 21237m | -27.6m/s | -51.8°C | 1% | 48hPa | 2.5V | 08:28:43 | 01:33:54 | 00:00:00 | |
| DO2JMG | 2026-08-31 11:05:31 | 53.10278 | 8.08846 | 90° | 20km/h | 21264m | -27.6m/s | -51.6°C | 1% | 47.8hPa | 2.6V | 08:28:43 | 01:33:53 | 00:00:00 | |
| DD8BA-10 | 2026-08-31 11:05:31 | 53.10278 | 8.08846 | 91° | 9km/h | 21264m | -27.5m/s | -51.6°C | 4.2% | 47.8hPa | 2.6V | 00:00:00 | 00:00:00 | 00:00:00 | |
| DL1XH-15 | 2026-08-31 11:05:30 | 53.10279 | 8.08815 | 144° | 4km/h | 21430m | -27.5m/s | -50.8°C | 3.9% | 46.6hPa | 2.7V | 08:28:26 | 01:33:47 | 00:00:00 | |
| DL1XH-west | 2026-08-31 11:05:28 | 53.10278 | 8.08825 | 92° | 13km/h | 21347m | -28.3m/s | -51.2°C | 0.9% | 47.2hPa | 2.7V | 08:28:43 | 01:33:50 | 00:00:00 | |
| DD1CC8 | 2026-08-31 11:05:25 | 53.10280 | 8.08814 | 131° | 4km/h | 21458m | -27.4m/s | -50.7°C | 1.2% | 46.4hPa | 2.7V | 00:00:00 | 00:00:00 | 00:00:00 | |
| DM0DOS-11 | 2026-08-31 11:05:24 | 53.10282 | 8.08820 | 278° | 4km/h | 21595m | -28.2m/s | -50.4°C | 3.7% | 45.4hPa | 2.7V | 08:28:32 | 01:33:41 | 00:00:00 | |
| DL1XH1-15 | 2026-08-31 11:05:24 | 53.10281 | 8.08815 | 217° | 2km/h | 21512m | -27.7m/s | -50.6°C | 3.8% | 46hPa | 2.6V | 08:28:29 | 01:33:44 | 00:00:00 | |
| BIOWL1-15 | 2026-08-31 11:05:23 | 53.10283 | 8.08827 | 265° | 5km/h | 21737m | -28.8m/s | -50.9°C | 0.8% | 44.4hPa | 2.7V | 08:28:43 | 01:33:36 | 00:00:00 | |
| DO2JMG | 2026-08-31 11:05:21 | 53.10281 | 8.08816 | 274° | 4km/h | 21539m | -28.5m/s | -50.4°C | 0.7% | 45.8hPa | 2.6V | 08:28:43 | 01:33:43 | 00:00:00 | |
| DL1XH-west | 2026-08-31 11:05:18 | 53.10282 | 8.08822 | 262° | 7km/h | 21623m | -28.4m/s | -50.5°C | 0.7% | 45.2hPa | 2.7V | 08:28:43 | 01:33:40 | 00:00:00 | |
| DJ2DS-15 | 2026-08-31 11:05:17 | 53.10282 | 8.08824 | 264° | 4km/h | 21680m | -29.1m/s | -50.8°C | 1.2% | 44.8hPa | 2.6V | 00:00:00 | 00:00:00 | 00:00:00 | |
| DL4XJ-10 | 2026-08-31 11:05:15 | 53.10282 | 8.08826 | 193° | 7km/h | 21709m | -28.2m/s | -50.1°C | 0% | 0hPa | 2.6V | 00:00:00 | 00:00:00 | 00:00:00 | |
| GOEST3-10 | 2026-08-31 11:05:14 | 53.10283 | 8.08827 | 266° | 4km/h | 21737m | -28.8m/s | -50.8°C | 3.9% | 44.4hPa | 2.6V | 00:00:00 | 01:33:36 | 00:00:00 | |
| DM0DOS-11 | 2026-08-31 11:05:13 | 53.10283 | 8.08834 | 270° | 4km/h | 21879m | -29m/s | -51.6°C | 4.1% | 43.4hPa | 2.6V | 08:28:42 | 01:33:31 | 00:00:00 | |
| DF8AY | 2026-08-31 11:05:12 | 53.10284 | 8.08830 | 286° | 5km/h | 21793m | -29.3m/s | -51.2°C | 0.8% | 44hPa | 2.7V | 08:28:43 | 01:33:34 | 00:00:00 | |
| HSKMA3-T | 2026-08-31 11:05:11 | 53.10284 | 8.08831 | 262° | 2km/h | 21822m | -29m/s | -51.4°C | 0.8% | 43.8hPa | 2.5V | 08:28:43 | 01:33:33 | 00:00:00 | |
| DB0DAN | 2026-08-31 11:05:10 | 53.10283 | 8.08832 | 319° | 5km/h | 21850m | -29.7m/s | -51.5°C | 1.2% | 43.63hPa | 2.6V | 00:00:00 | 00:00:00 | 00:00:00 | |
| DO2JMG | 2026-08-31 11:05:10 | 53.10283 | 8.08832 | 319° | 5km/h | 21850m | -29.7m/s | -51.5°C | 0.9% | 43.6hPa | 2.6V | 08:28:43 | 01:33:32 | 00:00:00 | |
| BIOWL1-15 | 2026-08-31 11:05:09 | 53.10275 | 8.08841 | 337° | 15km/h | 21996m | -29.2m/s | -51.7°C | 1% | 42.7hPa | 2.6V | 08:29:34 | 01:33:27 | 00:00:00 | |
| DL1XH-west | 2026-08-31 11:05:07 | 53.10280 | 8.08837 | 326° | 7km/h | 21938m | -29.3m/s | -51.6°C | 1% | 43.1hPa | 2.7V | 08:29:34 | 01:33:29 | 00:00:00 | |
| DO9LL-15 | 2026-08-31 11:05:06 | 53.10278 | 8.08839 | 343° | 15km/h | 21967m | -29.1m/s | -51.6°C | 4.2% | 42.8hPa | 2.5V | 08:28:00 | 01:33:28 | 00:00:00 | |
| DL3AQ-11 | 2026-08-31 11:05:05 | 53.10271 | 8.08842 | 355° | 15km/h | 22024m | -29.2m/s | -51.7°C | 1.3% | 42.5hPa | 2.7V | 00:00:00 | 00:00:00 | 00:00:00 | |
| GOEST3-10 | 2026-08-31 11:05:04 | 53.10271 | 8.08842 | 356° | 18km/h | 22024m | -29.2m/s | -51.6°C | 4.2% | 42.4hPa | 2.7V | 00:00:00 | 01:33:26 | 00:00:00 | |
| DM0DOS-11 | 2026-08-31 11:05:03 | 53.10249 | 8.08841 | 7° | 16km/h | 22172m | -29.8m/s | -51.3°C | 4% | 41.5hPa | 2.7V | 08:28:52 | 01:33:21 | 00:00:00 | |
| AA1-15 | 2026-08-31 11:05:01 | 53.10258 | 8.08843 | 356° | 18km/h | 22113m | -29.7m/s | -51.4°C | 0.9% | 41.9hPa | 2.6V | 08:29:34 | 01:33:23 | 00:00:00 | |
| HSKMA3-T | 2026-08-31 11:05:00 | 53.10253 | 8.08842 | 15° | 20km/h | 22143m | -29.5m/s | -51.3°C | 0.9% | 41.7hPa | 2.6V | 08:29:34 | 01:33:22 | 00:00:00 | |
| DO2JMG | 2026-08-31 11:04:59 | 53.10249 | 8.08841 | 7° | 16km/h | 22172m | -29.8m/s | -51.3°C | 0.9% | 41.5hPa | 2.7V | 08:29:34 | 01:33:21 | 00:00:00 | |
| DL1XH-west | 2026-08-31 11:04:56 | 53.10236 | 8.08833 | 34° | 18km/h | 22260m | -29.1m/s | -51.1°C | 0.8% | 41hPa | 2.6V | 08:29:34 | 01:33:18 | 00:00:00 | |
| DB0DAN | 2026-08-31 11:04:55 | 53.10233 | 8.08830 | 29° | 13km/h | 22289m | -29.8m/s | -50.9°C | 1.2% | 40.77hPa | 2.6V | 00:00:00 | 00:00:00 | 00:00:00 | |
| DD1CC8 | 2026-08-31 11:04:54 | 53.10228 | 8.08823 | 35° | 9km/h | 22349m | -29.7m/s | -50.7°C | 1.1% | 40.4hPa | 2.6V | 00:00:00 | 00:00:00 | 00:00:00 | |
| DM0DOS-11 | 2026-08-31 11:04:53 | 53.10223 | 8.08814 | 40° | 4km/h | 22467m | -30.2m/s | -50.5°C | 3.7% | 39.6hPa | 2.6V | 08:29:02 | 01:33:11 | 00:00:00 | |
| AA1-15 | 2026-08-31 11:04:52 | 53.10225 | 8.08817 | 37° | 5km/h | 22408m | -29.8m/s | -50.7°C | 0.7% | 40hPa | 2.7V | 08:29:34 | 01:33:13 | 00:00:00 | |
| HSKMA3-T | 2026-08-31 11:04:50 | 53.10224 | 8.08815 | 98° | 4km/h | 22437m | -29.3m/s | -50.6°C | 0.7% | 39.8hPa | 2.6V | 08:29:34 | 01:33:12 | 00:00:00 | |
| DO2JMG | 2026-08-31 11:04:49 | 53.10224 | 8.08814 | 40° | 4km/h | 22467m | -30.2m/s | -50.5°C | 0.7% | 39.7hPa | 2.6V | 08:29:34 | 01:33:11 | 00:00:00 | |
| BIOWL1-15 | 2026-08-31 11:04:48 | 53.10223 | 8.08814 | 313° | 0km/h | 22497m | -30m/s | -50.5°C | 0.6% | 39.5hPa | 2.6V | 08:29:34 | 01:33:10 | 00:00:00 | |
| DL1XH-west | 2026-08-31 11:04:46 | 53.10222 | 8.08815 | 292° | 4km/h | 22557m | -30.2m/s | -50.6°C | 0.7% | 39.1hPa | 2.7V | 08:29:34 | 01:33:08 | 00:00:00 | |
| DC4HF-4 | 2026-08-31 11:04:44 | 53.10220 | 8.08816 | 299° | 4km/h | 22618m | -30.4m/s | -50.8°C | 1.1% | 38.8hPa | 2.6V | 00:00:00 | 00:00:00 | 00:00:00 | |
| DM0DOS-11 | 2026-08-31 11:04:43 | 53.10215 | 8.08826 | 297° | 7km/h | 22772m | -30.4m/s | -51.5°C | 3.9% | 37.8hPa | 2.6V | 08:29:12 | 01:33:01 | 00:00:00 | |
| DL1XH1-15 | 2026-08-31 11:04:43 | 53.10218 | 8.08819 | 296° | 7km/h | 22679m | -31m/s | -51.1°C | 3.8% | 38.4hPa | 2.7V | 08:29:09 | 01:33:04 | 00:00:00 | |
| AA1-15 | 2026-08-31 11:04:41 | 53.10217 | 8.08821 | 333° | 5km/h | 22709m | -30.8m/s | -51.2°C | 0.8% | 38.2hPa | 2.6V | 08:29:34 | 01:33:03 | 00:00:00 | |
| DB0DAN | 2026-08-31 11:04:40 | 53.10216 | 8.08823 | 288° | 9km/h | 22740m | -31.5m/s | -51.3°C | 1.2% | 38.07hPa | 2.6V | 00:00:00 | 00:00:00 | 00:00:00 | |
| DL1XH-15 | 2026-08-31 11:04:40 | 53.10208 | 8.08847 | 316° | 15km/h | 22893m | -30.9m/s | -51.9°C | 4.1% | 37.1hPa | 2.6V | 08:29:16 | 01:32:57 | 00:00:00 | |
| DO2JMG | 2026-08-31 11:04:39 | 53.10215 | 8.08826 | 297° | 7km/h | 22772m | -30.4m/s | -51.5°C | 0.8% | 37.9hPa | 2.6V | 08:29:34 | 01:33:01 | 00:00:00 | |
| BIOWL1-15 | 2026-08-31 11:04:37 | 53.10210 | 8.08841 | 297° | 18km/h | 22863m | -30.8m/s | -51.8°C | 0.9% | 37.3hPa | 2.7V | 08:29:34 | 01:32:58 | 00:00:00 | |
| DL1XH-west | 2026-08-31 11:04:35 | 53.10208 | 8.08847 | 317° | 15km/h | 22893m | -31m/s | -51.9°C | 0.9% | 37.1hPa | 2.6V | 08:29:34 | 01:32:57 | 00:00:00 | |
| EDDB2-12 | 2026-08-31 11:04:34 | 53.10205 | 8.08851 | 315° | 15km/h | 22924m | -31.0m/s | -52.0°C | 1.2% | 37.0hPa | 2.7V | 00:00:00 | 00:00:00 | 00:00:00 | |
| SONDE2-11 | 2026-08-31 11:04:33 | 53.10203 | 8.08854 | 348° | 11km/h | 22954m | -30.7m/s | -51.9°C | 1.2% | 36.8hPa | 2.7V | 00:00:00 | 00:00:00 | 00:00:00 | |
| DJ2DS-15 | 2026-08-31 11:04:32 | 53.10199 | 8.08856 | 344° | 7km/h | 22985m | -31.2m/s | -51.9°C | 4.0% | 36.6hPa | 2.7V | 00:00:00 | 01:32:54 | 00:00:00 | |
| DD8BA-10 | 2026-08-31 11:04:31 | 53.10197 | 8.08856 | 33° | 7km/h | 23016m | -30.6m/s | -52.0°C | 4.1% | 36.4hPa | 2.7V | 08:29:00 | 00:00:00 | 00:00:00 | |
| DL1XH-15 | 2026-08-31 11:04:30 | 53.10190 | 8.08840 | 91° | 4km/h | 23201m | -31.2m/s | -52.6°C | 4.5% | 35.4hPa | 2.7V | 08:29:26 | 01:32:47 | 00:00:00 | |
| AA1-15 | 2026-08-31 11:04:30 | 53.10195 | 8.08854 | 20° | 9km/h | 23046m | -31.2m/s | -52.2°C | 1% | 36.2hPa | 2.7V | 08:29:34 | 01:32:52 | 00:00:00 | |
| BIOWL1-15 | 2026-08-31 11:04:29 | 53.10190 | 8.08840 | 91° | 4km/h | 23201m | -31.2m/s | -52.6°C | 1.1% | 35.4hPa | 2.7V | 08:29:34 | 01:32:47 | 00:00:00 | |
| DO2JMG | 2026-08-31 11:04:29 | 53.10194 | 8.08851 | 64° | 11km/h | 23077m | -30.8m/s | -52.4°C | 1.1% | 36.1hPa | 2.6V | 08:29:34 | 01:32:51 | 00:00:00 | |
| HSKMA3-T | 2026-08-31 11:04:28 | 53.10192 | 8.08848 | 44° | 9km/h | 23107m | -31.1m/s | -52.4°C | 1.1% | 35.9hPa | 2.6V | 08:29:34 | 01:32:50 | 00:00:00 | |
| DF8AY | 2026-08-31 11:04:27 | 53.10191 | 8.08845 | 87° | 7km/h | 23138m | -30.7m/s | -52.4°C | 1.1% | 35.7hPa | 2.6V | 08:29:34 | 01:32:49 | 00:00:00 | |
| DO2SHX-10 | 2026-08-31 11:04:27 | 53.10191 | 8.08845 | 88° | 7km/h | 23139m | -30.6m/s | -52.3°C | 4.3% | 35.7hPa | 2.7V | 00:00:00 | 01:32:49 | 00:00:00 | |
| DB0DAN | 2026-08-31 11:04:25 | 53.10190 | 8.08840 | 91° | 4km/h | 23201m | -31.2m/s | -52.6°C | 1.3% | 35.37hPa | 2.7V | 00:00:00 | 00:00:00 | 00:00:00 | |
| DL1XH-west | 2026-08-31 11:04:24 | 53.10189 | 8.08839 | 24° | 5km/h | 23232m | -31.4m/s | -52.7°C | 1.2% | 35.2hPa | 2.6V | 08:29:34 | 01:32:46 | 00:00:00 | |
| DO2SHX-10 | 2026-08-31 11:04:24 | 53.10189 | 8.08839 | 25° | 4km/h | 23233m | -31.4m/s | -52.6°C | 4.6% | 35.2hPa | 2.6V | 08:29:00 | 01:32:46 | 00:00:00 | |
| DM0DOS-11 | 2026-08-31 11:04:23 | 53.10184 | 8.08845 | 304° | 7km/h | 23389m | -32.7m/s | -52°C | 4.3% | 34.3hPa | 2.6V | 08:29:32 | 01:32:41 | 00:00:00 | |
| AA1-15 | 2026-08-31 11:04:20 | 53.10185 | 8.08843 | 342° | 5km/h | 23358m | -32.1m/s | -52°C | 1% | 34.5hPa | 2.5V | 08:29:34 | 01:32:42 | 00:00:00 | |
| DL1XH-15 | 2026-08-31 11:04:19 | 53.10176 | 8.08851 | 341° | 11km/h | 23520m | -33.5m/s | -52.2°C | 4.3% | 33.7hPa | 2.6V | 08:30:00 | 01:32:37 | 00:00:00 | |
| DO2JMG | 2026-08-31 11:04:18 | 53.10182 | 8.08847 | 348° | 7km/h | 23421m | -32.6m/s | -52°C | 1% | 34.2hPa | 2.7V | 08:29:34 | 01:32:40 | 00:00:00 | |
| DF8AY | 2026-08-31 11:04:17 | 53.10180 | 8.08848 | 317° | 9km/h | 23454m | -33.2m/s | -52°C | 1% | 34hPa | 2.7V | 08:29:34 | 01:32:39 | 00:00:00 | |
| BIOWL1-15 | 2026-08-31 11:04:16 | 53.10179 | 8.08850 | 357° | 5km/h | 23487m | -33.2m/s | -52.1°C | 1% | 33.9hPa | 2.5V | 18:12:15 | 01:32:38 | 00:00:00 | |
| GOEST3-10 | 2026-08-31 11:04:16 | 53.10179 | 8.08850 | 358° | 11km/h | 23487m | -33.1m/s | -52.1°C | 4.3% | 33.8hPa | 2.5V | 00:00:00 | 00:00:00 | 00:00:00 | |
| DO2SHX-10 | 2026-08-31 11:04:15 | 53.10176 | 8.08851 | 342° | 13km/h | 23520m | -33.5m/s | -52.1°C | 4.3% | 33.6hPa | 2.6V | 00:00:00 | 01:32:37 | 00:00:00 | |
| DM0DOS-11 | 2026-08-31 11:04:13 | 53.10159 | 8.08843 | 29° | 15km/h | 23716m | -33m/s | -51.6°C | 4.2% | 32.6hPa | 2.6V | 08:30:00 | 01:32:31 | 00:00:00 | |
| DL1XH-west | 2026-08-31 11:04:13 | 53.10171 | 8.08851 | 1° | 13km/h | 23586m | -33.5m/s | -52.2°C | 1% | 33.3hPa | 2.7V | 18:12:15 | 01:32:35 | 00:00:00 | |
| DO2SHX-10 | 2026-08-31 11:04:12 | 53.10168 | 8.08849 | 26° | 11km/h | 23619m | -33.0m/s | -52.0°C | 4.3% | 33.1hPa | 2.6V | 00:00:00 | 01:32:34 | 00:00:00 | |
| DL3OBA | 2026-08-31 11:04:11 | 53.10168 | 8.08849 | 27° | 11km/h | 23619m | -33.1m/s | -52.1°C | 1.3% | 33.2hPa | 2.6V | 00:00:00 | 00:00:00 | 00:00:00 | |
| DB0DAN | 2026-08-31 11:04:10 | 53.10162 | 8.08846 | 28° | 11km/h | 23684m | -32.9m/s | -51.8°C | 1.3% | 32.83hPa | 2.6V | 00:00:00 | 00:00:00 | 00:00:00 | |
| AA1-15 | 2026-08-31 11:04:10 | 53.10162 | 8.08846 | 28° | 11km/h | 23684m | -32.9m/s | -51.8°C | 1% | 32.8hPa | 2.6V | 18:12:15 | 01:32:32 | 00:00:00 | |
| DO2JMG | 2026-08-31 11:04:08 | 53.10156 | 8.08841 | 17° | 9km/h | 23750m | -33.2m/s | -51.4°C | 0.9% | 32.5hPa | 2.6V | 18:12:15 | 01:32:30 | 00:00:00 | |
| DF8AY | 2026-08-31 11:04:07 | 53.10154 | 8.08839 | 37° | 13km/h | 23782m | -33.1m/s | -51.2°C | 0.9% | 32.3hPa | 2.7V | 18:12:15 | 01:32:29 | 00:00:00 | |
| BIOWL1-15 | 2026-08-31 11:04:06 | 53.10152 | 8.08837 | 12° | 7km/h | 23815m | -33.1m/s | -50.9°C | 0.9% | 32.1hPa | 2.7V | 18:12:15 | 01:32:28 | 00:00:00 | |
| DL4XJ-10 | 2026-08-31 11:04:04 | 53.10148 | 8.08836 | 354° | 7km/h | 23881m | -33.1m/s | -50.1°C | 0% | 0hPa | 2.6V | 00:00:00 | 00:00:00 | 00:00:00 | |
| DM0DOS-11 | 2026-08-31 11:04:03 | 53.10139 | 8.08843 | 327° | 7km/h | 24045m | -33.7m/s | -51°C | 4.1% | 31hPa | 2.6V | 08:30:00 | 01:32:21 | 00:00:00 | |
| DL1XH-west | 2026-08-31 11:04:02 | 53.10145 | 8.08836 | 318° | 7km/h | 23946m | -33.6m/s | -50.9°C | 0.9% | 31.5hPa | 2.6V | 18:12:15 | 01:32:24 | 00:00:00 | |
| AA1-15 | 2026-08-31 11:04:00 | 53.10141 | 8.08840 | 319° | 11km/h | 24012m | -33.7m/s | -51.1°C | 0.9% | 31.2hPa | 2.7V | 18:12:15 | 01:32:22 | 00:00:00 | |
| DO2JMG | 2026-08-31 11:03:58 | 53.10137 | 8.08845 | 334° | 15km/h | 24078m | -34m/s | -51°C | 0.9% | 30.8hPa | 2.6V | 18:12:15 | 01:32:20 | 00:00:00 | |
| DF8AY | 2026-08-31 11:03:57 | 53.10134 | 8.08847 | 351° | 13km/h | 24112m | -33.8m/s | -51°C | 0.9% | 30.7hPa | 2.7V | 18:12:15 | 01:32:19 | 00:00:00 | |
| BIOWL1-15 | 2026-08-31 11:03:57 | 53.10126 | 8.08848 | 17° | 13km/h | 24178m | -33.8m/s | -51.1°C | 1% | 30.4hPa | 2.6V | 18:12:15 | 01:32:17 | 00:00:00 | |
| HSKMA3-T | 2026-08-31 11:03:56 | 53.10130 | 8.08848 | 351° | 16km/h | 24145m | -34.3m/s | -51°C | 0.9% | 30.5hPa | 2.7V | 18:12:15 | 01:32:18 | 00:00:00 | |
| DB0DAN | 2026-08-31 11:03:55 | 53.10126 | 8.08848 | 17° | 13km/h | 24178m | -33.8m/s | -51.1°C | 1.2% | 30.37hPa | 2.6V | 00:00:00 | 00:00:00 | 00:00:00 | |
| DL1XH-west | 2026-08-31 11:03:52 | 53.10116 | 8.08840 | 55° | 16km/h | 24277m | -32.3m/s | -50.9°C | 0.9% | 29.9hPa | 2.7V | 18:12:15 | 01:32:14 | 00:00:00 | |
| DO2SHX-10 | 2026-08-31 11:03:51 | 53.10113 | 8.08834 | 48° | 16km/h | 24310m | -33.2m/s | -50.9°C | 4.0% | 29.6hPa | 2.6V | 00:00:00 | 01:32:13 | 00:00:00 | |
| DL1XH-15 | 2026-08-31 11:03:50 | 53.10108 | 8.08799 | 100° | 11km/h | 24507m | -32.8m/s | -50.3°C | 3.8% | 28.8hPa | 2.6V | 08:30:00 | 01:32:07 | 00:00:00 | |
| AA1-15 | 2026-08-31 11:03:50 | 53.10110 | 8.08822 | 63° | 16km/h | 24375m | -34.3m/s | -50.8°C | 0.8% | 29.5hPa | 2.6V | 18:12:15 | 01:32:11 | 00:00:00 | |
| DO2JMG | 2026-08-31 11:03:47 | 53.10108 | 8.08810 | 89° | 16km/h | 24442m | -32.6m/s | -50.4°C | 0.7% | 29.1hPa | 2.7V | 18:12:15 | 01:32:09 | 00:00:00 | |
| HSKMA3-T | 2026-08-31 11:03:46 | 53.10108 | 8.08804 | 80° | 15km/h | 24474m | -33.3m/s | -50.3°C | 0.8% | 29hPa | 2.7V | 18:12:15 | 01:32:08 | 00:00:00 | |
| BIOWL1-15 | 2026-08-31 11:03:46 | 53.10109 | 8.08793 | 87° | 13km/h | 24540m | -32.8m/s | -50.3°C | 0.7% | 28.7hPa | 2.6V | 18:12:15 | 01:32:06 | 00:00:00 | |
| DL3AQ-11 | 2026-08-31 11:03:45 | 53.10109 | 8.08793 | 86° | 13km/h | 24540m | -32.8m/s | -50.3°C | 1.1% | 28.7hPa | 2.6V | 00:00:00 | 00:00:00 | 00:00:00 | |
| DM0DOS-11 | 2026-08-31 11:03:43 | 53.10109 | 8.08776 | 128° | 5km/h | 24710m | -34.9m/s | -50.3°C | 3.8% | 27.9hPa | 2.6V | 08:30:00 | 01:32:01 | 00:00:00 | |
| DL1XH1-15 | 2026-08-31 11:03:43 | 53.10109 | 8.08784 | 93° | 7km/h | 24606m | -35.2m/s | -50.2°C | 3.8% | 28.4hPa | 2.7V | 08:30:00 | 01:32:04 | 00:00:00 | |
| DL1XH-west | 2026-08-31 11:03:42 | 53.10109 | 8.08784 | 93° | 7km/h | 24606m | -35.2m/s | -50.3°C | 0.7% | 28.4hPa | 2.7V | 18:12:15 | 01:32:04 | 00:00:00 | |
| DO2SHX-10 | 2026-08-31 11:03:41 | 53.10109 | 8.08781 | 97° | 7km/h | 24641m | -35.1m/s | -50.2°C | 3.8% | 28.2hPa | 2.7V | 00:00:00 | 01:32:03 | 00:00:00 | |
| DL1XH-15 | 2026-08-31 11:03:40 | 53.10114 | 8.08776 | 180° | 4km/h | 24849m | -33.6m/s | -50.3°C | 3.8% | 27.3hPa | 2.7V | 08:30:00 | 01:31:57 | 00:00:00 | |
| DB0DAN | 2026-08-31 11:03:40 | 53.10109 | 8.08778 | 68° | 5km/h | 24676m | -35.1m/s | -50.3°C | 1.1% | 28.1hPa | 2.7V | 00:00:00 | 00:00:00 | 00:00:00 | |
| AA1-15 | 2026-08-31 11:03:39 | 53.10109 | 8.08776 | 128° | 5km/h | 24711m | -34.9m/s | -50.3°C | 0.7% | 28hPa | 2.6V | 18:12:15 | 01:32:01 | 00:00:00 | |
| DO2JMG | 2026-08-31 11:03:36 | 53.10112 | 8.08776 | 194° | 7km/h | 24815m | -34.7m/s | -50.3°C | 0.7% | 27.5hPa | 2.7V | 18:12:15 | 01:31:58 | 00:00:00 | |
| HSKMA3-T | 2026-08-31 11:03:35 | 53.10113 | 8.08776 | 180° | 4km/h | 24849m | -33.6m/s | -50.3°C | 0.7% | 27.4hPa | 2.7V | 18:12:15 | 01:31:57 | 00:00:00 | |
| DF8AY | 2026-08-31 11:03:34 | 53.10114 | 8.08777 | 257° | 5km/h | 24883m | -33.2m/s | -50.5°C | 0.8% | 27.2hPa | 2.6V | 18:12:15 | 01:31:56 | 00:00:00 | |
| DL1XH1-15 | 2026-08-31 11:03:33 | 53.10114 | 8.08778 | 53° | 2km/h | 24948m | -32.2m/s | -50.7°C | 3.8% | 26.9hPa | 2.7V | 08:30:00 | 01:31:54 | 00:00:00 | |
| BIOWL1-15 | 2026-08-31 11:03:33 | 53.10114 | 8.08778 | 207° | 2km/h | 24916m | -32.9m/s | -50.6°C | 0.8% | 27.1hPa | 2.6V | 18:12:15 | 01:31:55 | 00:00:00 | |
| DL1XH-west | 2026-08-31 11:03:32 | 53.10114 | 8.08778 | 54° | 2km/h | 24948m | -32.2m/s | -50.7°C | 0.7% | 26.9hPa | 2.7V | 18:12:15 | 01:31:54 | 00:00:00 | |
| AA1-15 | 2026-08-31 11:03:28 | 53.10109 | 8.08776 | 5° | 9km/h | 25074m | -30.8m/s | -50.6°C | 0.7% | 26.4hPa | 2.7V | 18:12:15 | 01:31:50 | 00:00:00 | |
| DL1XH-15 | 2026-08-31 11:03:27 | 53.10105 | 8.08777 | 288° | 7km/h | 25164m | -29.7m/s | -50.4°C | 3.7% | 26hPa | 2.6V | 08:30:00 | 01:31:47 | 00:00:00 | |
| DB0DAN | 2026-08-31 11:03:25 | 53.10105 | 8.08777 | 289° | 5km/h | 25164m | -29.7m/s | -50.4°C | 1.1% | 25.99hPa | 2.6V | 00:00:00 | 00:00:00 | 00:00:00 | |
| DO2JMG | 2026-08-31 11:03:25 | 53.10105 | 8.08777 | 289° | 7km/h | 25164m | -29.7m/s | -50.4°C | 0.7% | 26hPa | 2.6V | 18:12:15 | 01:31:47 | 00:00:00 | |
| DF8AY | 2026-08-31 11:03:24 | 53.10105 | 8.08781 | 261° | 11km/h | 25193m | -27.6m/s | -50.5°C | 0.8% | 25.9hPa | 2.6V | 18:12:15 | 01:31:46 | 00:00:00 | |
| DL1XH1-15 | 2026-08-31 11:03:23 | 53.10105 | 8.08789 | 261° | 9km/h | 25233m | -11.9m/s | -50.4°C | 3.8% | 25.6hPa | 2.7V | 08:30:00 | 01:31:44 | 00:00:00 | |
| BIOWL1-15 | 2026-08-31 11:03:22 | 53.10105 | 8.08789 | 262° | 9km/h | 25233m | -11.9m/s | -50.4°C | 0.7% | 25.6hPa | 2.7V | 18:12:15 | 01:31:44 | 00:00:00 | |
| DL1XH-west | 2026-08-31 11:03:21 | 53.10106 | 8.08793 | 261° | 9km/h | 25240m | -2.4m/s | -50.4°C | 0.8% | 25.6hPa | 2.7V | 18:12:15 | 01:31:43 | 00:00:00 | |
| AA1-15 | 2026-08-31 11:03:18 | 53.10102 | 8.08810 | 313° | 15km/h | 25219m | 4.9m/s | -50.4°C | 0.8% | 25.6hPa | 2.7V | 18:12:15 | 01:31:39 | 00:00:00 | |
| DO2JMG | 2026-08-31 11:03:15 | 53.10098 | 8.08818 | 292° | 9km/h | 25208m | 6m/s | -50.4°C | 0.8% | 25.7hPa | 2.7V | 18:12:15 | 01:31:37 | 00:00:00 | |
| DF8AY | 2026-08-31 11:03:13 | 53.10098 | 8.08827 | 258° | 15km/h | 25195m | 6.8m/s | -50.5°C | 0.8% | 25.7hPa | 2.6V | 18:12:15 | 01:31:35 | 00:00:00 | |
| DL1XH1-15 | 2026-08-31 11:03:13 | 53.10099 | 8.08833 | 253° | 16km/h | 25189m | 6.5m/s | -50.4°C | 3.8% | 25.7hPa | 2.6V | 08:30:00 | 01:31:34 | 00:00:00 | |
| BIOWL1-15 | 2026-08-31 11:03:13 | 53.10101 | 8.08840 | 245° | 20km/h | 25183m | 5.1m/s | -50.5°C | 0.8% | 25.8hPa | 2.7V | 18:12:15 | 01:31:33 | 00:00:00 | |
| DO2SHX-10 | 2026-08-31 11:03:13 | 53.10098 | 8.08827 | 259° | 16km/h | 25196m | 6.7m/s | -50.5°C | 3.9% | 25.7hPa | 2.7V | 00:00:00 | 01:31:35 | 00:00:00 | |
| DD1CC3-15 | 2026-08-31 11:03:12 | 53.10098 | 8.08827 | 259° | 15km/h | 25196m | 6.8m/s | -50.5°C | 1.2% | 25.7hPa | 2.7V | 00:00:00 | 00:00:00 | 00:00:00 | |
| DB0DAN | 2026-08-31 11:03:10 | 53.10103 | 8.08847 | 232° | 18km/h | 25177m | 6.9m/s | -50.5°C | 1.1% | 25.79hPa | 2.7V | 00:00:00 | 00:00:00 | 00:00:00 | |
| DL1XH-west | 2026-08-31 11:03:10 | 53.10103 | 8.08847 | 232° | 20km/h | 25177m | 6.9m/s | -50.5°C | 0.8% | 25.8hPa | 2.7V | 18:12:15 | 01:31:32 | 00:00:00 | |
| AA1-15 | 2026-08-31 11:03:07 | 53.10112 | 8.08862 | 228° | 13km/h | 25159m | 6.9m/s | -50.5°C | 0.8% | 25.9hPa | 2.7V | 18:12:15 | 01:31:29 | 00:00:00 | |
| DL4XJ-10 | 2026-08-31 11:03:07 | 53.10112 | 8.08862 | 228° | 9km/h | 25159m | 6.8m/s | -49.8°C | 0% | 0hPa | 2.6V | 00:00:00 | 00:00:00 | 00:00:00 | |
| DL1XH-15 | 2026-08-31 11:03:05 | 53.10114 | 8.08868 | 284° | 5km/h | 25147m | 5m/s | -50.5°C | 3.9% | 25.9hPa | 2.6V | 08:30:00 | 01:31:27 | 00:00:00 | |
| DO2JMG | 2026-08-31 11:03:04 | 53.10113 | 8.08869 | 326° | 4km/h | 25141m | 6.4m/s | -50.5°C | 0.8% | 25.9hPa | 2.6V | 18:12:15 | 01:31:26 | 00:00:00 | |
| DF8AY | 2026-08-31 11:03:03 | 53.10112 | 8.08869 | 43° | 4km/h | 25134m | 6.8m/s | -50.6°C | 0.8% | 26hPa | 2.7V | 18:12:15 | 01:31:25 | 00:00:00 | |
| DL1XH1-15 | 2026-08-31 11:03:03 | 53.10112 | 8.08868 | 50° | 5km/h | 25128m | 5.6m/s | -50.5°C | 3.8% | 26hPa | 2.7V | 08:30:00 | 01:31:24 | 00:00:00 | |
| BIOWL1-15 | 2026-08-31 11:03:01 | 53.10111 | 8.08867 | 29° | 5km/h | 25123m | 5.7m/s | -50.6°C | 0.8% | 26hPa | 2.6V | 18:12:15 | 01:31:23 | 00:00:00 | |
| DO2SHX-10 | 2026-08-31 11:03:01 | 53.10110 | 8.08867 | 29° | 5km/h | 25123m | 5.7m/s | -50.6°C | 3.8% | 26.0hPa | 2.6V | 00:00:00 | 01:31:23 | 08:30:00 | |
| DL1XH-15 | 2026-08-31 11:03:00 | 53.10119 | 8.08883 | 220° | 18km/h | 25086m | 6.4m/s | -50.8°C | 3.9% | 26.2hPa | 2.6V | 08:30:00 | 01:31:17 | 00:00:00 | |
| DL1XH-west | 2026-08-31 11:02:59 | 53.10109 | 8.08868 | 268° | 7km/h | 25111m | 4.5m/s | -50.7°C | 0.8% | 26.1hPa | 2.6V | 18:12:15 | 01:31:21 | 00:00:00 | |
| AA1-15 | 2026-08-31 11:02:57 | 53.10112 | 8.08875 | 218° | 15km/h | 25098m | 6.8m/s | -50.8°C | 0.8% | 26.1hPa | 2.7V | 18:12:15 | 01:31:19 | 00:00:00 | |
| BUE01 | 2026-08-31 11:02:56 | 53.10115 | 8.08879 | 213° | 16km/h | 25092m | 5.7m/s | -50.7°C | 1.1% | 26.1hPa | 2.6V | 00:00:00 | 00:00:00 | 00:00:00 | |
| DB0DAN | 2026-08-31 11:02:55 | 53.10119 | 8.08883 | 220° | 16km/h | 25086m | 6.4m/s | -50.8°C | 1.1% | 26.17hPa | 2.6V | 00:00:00 | 00:00:00 | 00:00:00 | |
| BIOWL1-15 | 2026-08-31 11:02:54 | 53.10128 | 8.08892 | 95° | 5km/h | 25057m | 5m/s | -50.8°C | 0.8% | 26.3hPa | 2.7V | 18:12:15 | 01:31:12 | 00:00:00 | |
| DM0DOS-11 | 2026-08-31 11:02:53 | 53.10128 | 8.08890 | 52° | 7km/h | 25052m | 5.2m/s | -50.9°C | 3.9% | 26.3hPa | 2.6V | 08:30:00 | 01:31:11 | 00:00:00 | |
| DL1XH1-15 | 2026-08-31 11:02:53 | 53.10126 | 8.08894 | 207° | 7km/h | 25069m | 6.5m/s | -50.8°C | 3.9% | 26.2hPa | 2.7V | 08:30:00 | 01:31:14 | 00:00:00 | |
| DO2JMG | 2026-08-31 11:02:53 | 53.10124 | 8.08891 | 223° | 11km/h | 25075m | 4.6m/s | -50.8°C | 0.8% | 26.2hPa | 2.6V | 18:12:15 | 01:31:15 | 00:00:00 | |
| DF8AY | 2026-08-31 11:02:52 | 53.10126 | 8.08894 | 207° | 7km/h | 25069m | 6.5m/s | -50.8°C | 0.8% | 26.2hPa | 2.7V | 18:12:15 | 01:31:14 | 00:00:00 | |
| DL1XH-west | 2026-08-31 11:02:48 | 53.10126 | 8.08888 | 28° | 11km/h | 25046m | 7.7m/s | -50.9°C | 0.8% | 26.3hPa | 2.6V | 18:12:15 | 01:31:10 | 00:00:00 | |
| AA1-15 | 2026-08-31 11:02:47 | 53.10123 | 8.08886 | 10° | 11km/h | 25039m | 5.3m/s | -50.9°C | 0.8% | 26.4hPa | 2.6V | 18:12:15 | 01:31:09 | 00:00:00 | |
| DF8AY-15 | 2026-08-31 11:02:47 | 53.10123 | 8.08886 | 10° | 7km/h | 25040m | 5.2m/s | -50.9°C | 4.0% | 26.3hPa | 2.6V | 00:00:00 | 01:31:09 | 00:00:00 | |
| DJ2DS-15 | 2026-08-31 11:02:46 | 53.10121 | 8.08886 | 7° | 5km/h | 25034m | 5.5m/s | -50.8°C | 3.9% | 26.3hPa | 2.6V | 00:00:00 | 01:31:08 | 00:00:00 | |
| DO2SHX-10 | 2026-08-31 11:02:45 | 53.10119 | 8.08886 | 5° | 4km/h | 25028m | 6.7m/s | -50.9°C | 4.0% | 26.4hPa | 2.6V | 00:00:00 | 01:31:07 | 00:00:00 | |
| DL4XJ-10 | 2026-08-31 11:02:44 | 53.10119 | 8.08886 | 255° | 7km/h | 25021m | 5.6m/s | -50.2°C | 0% | 0hPa | 2.6V | 00:00:00 | 00:00:00 | 00:00:00 | |
| DM0DOS-11 | 2026-08-31 11:02:43 | 53.10124 | 8.08896 | 199° | 9km/h | 24991m | 6.5m/s | -50.9°C | 4% | 26.5hPa | 2.6V | 08:30:00 | 01:31:01 | 00:00:00 | |
| DL1XH1-15 | 2026-08-31 11:02:43 | 53.10120 | 8.08889 | 235° | 7km/h | 25009m | 7m/s | -50.9°C | 4% | 26.5hPa | 2.7V | 08:30:00 | 01:31:04 | 00:00:00 | |
| DO2JMG | 2026-08-31 11:02:43 | 53.10119 | 8.08887 | 230° | 5km/h | 25016m | 6m/s | -50.9°C | 0.9% | 26.5hPa | 2.6V | 18:12:15 | 01:31:05 | 00:00:00 | |
| DF8AY | 2026-08-31 11:02:42 | 53.10121 | 8.08892 | 241° | 9km/h | 25003m | 6.1m/s | -50.9°C | 0.8% | 26.5hPa | 2.7V | 18:12:15 | 01:31:03 | 00:00:00 | |
| HSKMA3-T | 2026-08-31 11:02:42 | 53.10120 | 8.08889 | 235° | 7km/h | 25009m | 7m/s | -50.9°C | 0.9% | 26.5hPa | 2.7V | 18:12:15 | 01:31:04 | 00:00:00 | |
| DO2SHX-10 | 2026-08-31 11:02:42 | 53.10120 | 8.08889 | 236° | 7km/h | 25009m | 6.9m/s | -50.8°C | 4.0% | 26.4hPa | 2.7V | 00:00:00 | 01:31:04 | 00:00:00 | |
| DB0DAN | 2026-08-31 11:02:40 | 53.10122 | 8.08895 | 224° | 7km/h | 24997m | 4.8m/s | -50.8°C | 1.2% | 26.52hPa | 2.6V | 00:00:00 | 00:00:00 | 00:00:00 | |
| BIOWL1-15 | 2026-08-31 11:02:40 | 53.10122 | 8.08895 | 224° | 7km/h | 24997m | 4.8m/s | -50.8°C | 0.9% | 26.5hPa | 2.6V | 18:12:15 | 01:31:02 | 00:00:00 | |
| DO2SHX-10 | 2026-08-31 11:02:39 | 53.10124 | 8.08896 | 200° | 9km/h | 24991m | 6.5m/s | -50.8°C | 4.0% | 26.5hPa | 2.7V | 00:00:00 | 01:31:01 | 00:00:00 | |
| DL1XH-15 | 2026-08-31 11:02:38 | 53.10131 | 8.08896 | 129° | 0km/h | 24967m | 6.1m/s | -50.8°C | 4% | 26.6hPa | 2.7V | 08:30:00 | 01:30:57 | 00:00:00 | |
| DL1XH-west | 2026-08-31 11:02:38 | 53.10126 | 8.08897 | 182° | 9km/h | 24985m | 6.1m/s | -50.9°C | 0.9% | 26.6hPa | 2.6V | 18:12:15 | 01:31:00 | 00:00:00 | |
| AA1-15 | 2026-08-31 11:02:37 | 53.10128 | 8.08897 | 171° | 7km/h | 24979m | 4.9m/s | -50.9°C | 0.8% | 26.6hPa | 2.7V | 18:12:15 | 01:30:59 | 00:00:00 | |
| DL4BBY-15 | 2026-08-31 11:02:36 | 53.10130 | 8.08897 | 175° | 7km/h | 24973m | 6.8m/s | -50.2°C | 0% | 0hPa | 2.7V | 00:00:00 | 00:00:00 | 00:00:00 | |
| DF5WG-10 | 2026-08-31 11:02:35 | 53.10131 | 8.08896 | 130° | 5km/h | 24967m | 6.1m/s | -50.8°C | 4.0% | 26.6hPa | 2.7V | 00:00:00 | 01:30:57 | 00:00:00 | |
| DL8OAI-8 | 2026-08-31 11:02:34 | 53.10131 | 8.08896 | 0° | 0km/h | 24967m | 6.1m/s | -50.8°C | 1.2% | 26.6hPa | 2.7V | 00:00:00 | 00:00:00 | 00:00:00 | |
| DM0DOS-11 | 2026-08-31 11:02:33 | 53.10126 | 8.08899 | 312° | 11km/h | 24931m | 6.5m/s | -50.7°C | 4% | 26.8hPa | 2.7V | 08:30:00 | 01:30:51 | 00:00:00 | |
| DO2JMG | 2026-08-31 11:02:32 | 53.10129 | 8.08895 | 37° | 2km/h | 24949m | 5.7m/s | -50.8°C | 0.9% | 26.7hPa | 2.6V | 18:12:15 | 01:30:54 | 00:00:00 | |
| BIOWL1-15 | 2026-08-31 11:02:31 | 53.10127 | 8.08899 | 313° | 11km/h | 24931m | 6.5m/s | -50.7°C | 0.9% | 26.8hPa | 2.7V | 18:12:15 | 01:30:51 | 00:00:00 | |
| HSKMA3-T | 2026-08-31 11:02:31 | 53.10129 | 8.08895 | 328° | 2km/h | 24943m | 4.9m/s | -50.7°C | 0.8% | 26.8hPa | 2.7V | 18:12:15 | 01:30:53 | 00:00:00 | |
| DD8BA-10 | 2026-08-31 11:02:31 | 53.10129 | 8.08895 | 328° | 7km/h | 24944m | 4.9m/s | -50.6°C | 3.9% | 26.7hPa | 2.7V | 00:00:00 | 00:00:00 | 00:00:00 | |
| DO9LL-15 | 2026-08-31 11:02:30 | 53.10128 | 8.08896 | 313° | 13km/h | 24938m | 6.3m/s | -50.6°C | 3.9% | 26.7hPa | 2.7V | 00:00:00 | 01:30:52 | 00:00:00 | |
| SONDE2-11 | 2026-08-31 11:02:29 | 53.10127 | 8.08899 | 312° | 9km/h | 24931m | 6.5m/s | -50.7°C | 1.2% | 26.8hPa | 2.7V | 00:00:00 | 00:00:00 | 00:00:00 | |
| DL1XH-15 | 2026-08-31 11:02:28 | 53.10119 | 8.08903 | 38° | 7km/h | 24906m | 6.1m/s | -50.5°C | 3.8% | 26.9hPa | 2.7V | 08:30:00 | 01:30:47 | 00:00:00 | |
| DL1XH-west | 2026-08-31 11:02:28 | 53.10125 | 8.08902 | 321° | 11km/h | 24925m | 5.2m/s | -50.6°C | 0.8% | 26.8hPa | 2.6V | 18:12:15 | 01:30:50 | 00:00:00 | |
| AA1-15 | 2026-08-31 11:02:27 | 53.10123 | 8.08904 | 341° | 9km/h | 24920m | 6.4m/s | -50.6°C | 0.9% | 26.9hPa | 2.6V | 18:12:15 | 01:30:49 | 00:00:00 | |
| DO2SHX-10 | 2026-08-31 11:02:27 | 53.10123 | 8.08904 | 341° | 7km/h | 24920m | 6.4m/s | -50.6°C | 3.9% | 26.8hPa | 2.7V | 00:00:00 | 01:30:49 | 00:00:00 | |
| DB0DAN | 2026-08-31 11:02:25 | 53.10119 | 8.08903 | 39° | 7km/h | 24906m | 6.1m/s | -50.5°C | 1.1% | 26.9hPa | 2.7V | 00:00:00 | 00:00:00 | 00:00:00 | |
| DL3AQ-11 | 2026-08-31 11:02:25 | 53.10117 | 8.08900 | 42° | 7km/h | 24900m | 6.7m/s | -50.6°C | 1.1% | 26.9hPa | 2.7V | 00:00:00 | 00:00:00 | 00:00:00 | |
| DO2SHX-10 | 2026-08-31 11:02:24 | 53.10117 | 8.08900 | 43° | 9km/h | 24900m | 6.6m/s | -50.5°C | 3.9% | 26.9hPa | 2.7V | 00:00:00 | 01:30:46 | 00:00:00 | |
| DM0DOS-11 | 2026-08-31 11:02:23 | 53.10114 | 8.08889 | 133° | 7km/h | 24870m | 5.6m/s | -50.5°C | 3.8% | 27.1hPa | 2.6V | 08:30:00 | 01:30:41 | 00:00:00 | |
| DO2JMG | 2026-08-31 11:02:22 | 53.10114 | 8.08896 | 43° | 7km/h | 24888m | 4.8m/s | -50.4°C | 0.8% | 27hPa | 2.6V | 18:12:15 | 01:30:44 | 00:00:00 | |
| DF8AY | 2026-08-31 11:02:21 | 53.10113 | 8.08894 | 66° | 7km/h | 24883m | 6m/s | -50.5°C | 0.7% | 27hPa | 2.7V | 18:12:15 | 01:30:43 | 00:00:00 | |
| HSKMA3-T | 2026-08-31 11:02:20 | 53.10113 | 8.08891 | 102° | 7km/h | 24876m | 7.1m/s | -50.4°C | 0.8% | 27hPa | 2.7V | 18:12:15 | 01:30:42 | 00:00:00 | |
| BIOWL1-15 | 2026-08-31 11:02:18 | 53.10115 | 8.08887 | 171° | 5km/h | 24864m | 6.3m/s | -50.5°C | 0.7% | 27.1hPa | 2.6V | 18:12:15 | 01:30:40 | 00:00:00 | |
| DL1XH-west | 2026-08-31 11:02:17 | 53.10116 | 8.08888 | 222° | 5km/h | 24857m | 6.8m/s | -50.4°C | 0.8% | 27.1hPa | 2.7V | 18:12:15 | 01:30:39 | 00:00:00 | |
| AA1-15 | 2026-08-31 11:02:16 | 53.10117 | 8.08890 | 246° | 7km/h | 24851m | 5.2m/s | -50.5°C | 0.8% | 27.1hPa | 2.7V | 18:12:15 | 01:30:38 | 00:00:00 | |
| DF8AY-15 | 2026-08-31 11:02:16 | 53.10117 | 8.08890 | 247° | 5km/h | 24852m | 5.1m/s | -50.4°C | 3.8% | 27.1hPa | 2.6V | 00:00:00 | 01:30:38 | 00:00:00 | |
| DK9SH | 2026-08-31 11:02:15 | 53.10117 | 8.08893 | 247° | 7km/h | 24846m | 6.5m/s | -50.6°C | 1.1% | 27.2hPa | 2.6V | 00:00:00 | 00:00:00 | 00:00:00 | |
| DL3AQ-11 | 2026-08-31 11:02:14 | 53.10118 | 8.08895 | 174° | 0km/h | 24833m | 6.1m/s | -50.5°C | 1.1% | 27.2hPa | 2.6V | 00:00:00 | 00:00:00 | 00:00:00 | |
| DM0DOS-11 | 2026-08-31 11:02:13 | 53.10113 | 8.08888 | 60° | 15km/h | 24807m | 7.9m/s | -50.4°C | 3.8% | 27.3hPa | 2.6V | 08:30:00 | 01:30:31 | 00:00:00 | |
| DO2JMG | 2026-08-31 11:02:11 | 53.10117 | 8.08894 | 25° | 7km/h | 24819m | 6.4m/s | -50.4°C | 0.7% | 27.3hPa | 2.7V | 18:12:15 | 01:30:33 | 00:00:00 | |
| HSKMA3-T | 2026-08-31 11:02:10 | 53.10115 | 8.08892 | 43° | 11km/h | 24813m | 4.6m/s | -50.5°C | 0.8% | 27.3hPa | 2.7V | 18:12:15 | 01:30:32 | 00:00:00 | |
| BIOWL1-15 | 2026-08-31 11:02:07 | 53.10115 | 8.08845 | 151° | 11km/h | 24762m | 4.8m/s | -50.5°C | 0.8% | 27.5hPa | 2.6V | 18:12:15 | 01:30:24 | 00:00:00 | |
| AA1-15 | 2026-08-31 11:02:06 | 53.10110 | 8.08866 | 84° | 18km/h | 24787m | 7.1m/s | -50.4°C | 0.8% | 27.4hPa | 2.7V | 18:12:15 | 01:30:28 | 00:00:00 | |
| DL4BBY-15 | 2026-08-31 11:02:06 | 53.10110 | 8.08866 | 85° | 11km/h | 24788m | 7.1m/s | -49.7°C | 0% | 0hPa | 2.7V | 00:00:00 | 00:00:00 | 00:00:00 | |
| DO2SHX-10 | 2026-08-31 11:02:04 | 53.10110 | 8.08853 | 114° | 13km/h | 24775m | 7.3m/s | -50.4°C | 3.9% | 27.4hPa | 2.7V | 00:00:00 | 01:30:26 | 08:30:00 | |
| DM0DOS-11 | 2026-08-31 11:02:03 | 53.10120 | 8.08846 | 245° | 5km/h | 24743m | 5.8m/s | -50.6°C | 3.9% | 27.6hPa | 2.7V | 08:30:00 | 01:30:21 | 00:00:00 | |
| DL1XH1-15 | 2026-08-31 11:02:03 | 53.10115 | 8.08845 | 151° | 11km/h | 24762m | 4.8m/s | -50.5°C | 3.9% | 27.5hPa | 2.6V | 08:30:00 | 01:30:24 | 00:00:00 | |
| DO2JMG | 2026-08-31 11:02:01 | 53.10117 | 8.08844 | 171° | 9km/h | 24756m | 7.7m/s | -50.6°C | 0.8% | 27.6hPa | 2.6V | 18:12:15 | 01:30:23 | 00:00:00 | |
| DF8AY | 2026-08-31 11:02:00 | 53.10119 | 8.08844 | 215° | 5km/h | 24749m | 5.8m/s | -50.6°C | 0.8% | 27.6hPa | 2.7V | 18:12:15 | 01:30:22 | 00:00:00 | |
| HSKMA3-T | 2026-08-31 11:01:59 | 53.10120 | 8.08846 | 246° | 5km/h | 24743m | 5.8m/s | -50.6°C | 0.8% | 27.6hPa | 2.7V | 18:12:15 | 01:30:21 | 00:00:00 | |
| BIOWL1-15 | 2026-08-31 11:01:57 | 53.10120 | 8.08848 | 23° | 2km/h | 24730m | 5.7m/s | -50.6°C | 0.8% | 27.6hPa | 2.6V | 18:12:15 | 01:30:19 | 00:00:00 | |
| DL1XH-west | 2026-08-31 11:01:56 | 53.10119 | 8.08847 | 21° | 9km/h | 24724m | 7.1m/s | -50.6°C | 0.8% | 27.7hPa | 2.7V | 18:12:15 | 01:30:18 | 00:00:00 | |
| DB0DAN | 2026-08-31 11:01:55 | 53.10116 | 8.08845 | 35° | 13km/h | 24717m | 6.6m/s | -50.5°C | 1.1% | 27.7hPa | 2.7V | 00:00:00 | 00:00:00 | 00:00:00 | |
| BUE01 | 2026-08-31 11:01:54 | 53.10113 | 8.08840 | 50° | 16km/h | 24711m | 4.7m/s | -50.5°C | 1.1% | 27.7hPa | 2.7V | 00:00:00 | 00:00:00 | 00:00:00 | |
| DM0DOS-11 | 2026-08-31 11:01:53 | 53.10112 | 8.08806 | 125° | 15km/h | 24679m | 5.4m/s | -50.5°C | 3.9% | 27.9hPa | 2.7V | 08:30:00 | 01:30:11 | 00:00:00 | |
| DL1XH1-15 | 2026-08-31 11:01:53 | 53.10110 | 8.08827 | 81° | 20km/h | 24698m | 6.1m/s | -50.4°C | 3.8% | 27.8hPa | 2.6V | 08:30:00 | 01:30:14 | 00:00:00 | |
| DO2JMG | 2026-08-31 11:01:50 | 53.10110 | 8.08812 | 106° | 15km/h | 24686m | 6.7m/s | -50.5°C | 0.7% | 27.9hPa | 2.7V | 18:12:15 | 01:30:12 | 00:00:00 | |
| DF8AY | 2026-08-31 11:01:49 | 53.10112 | 8.08806 | 126° | 15km/h | 24680m | 5.4m/s | -50.5°C | 0.8% | 27.9hPa | 2.7V | 18:12:15 | 01:30:11 | 00:00:00 | |
| HSKMA3-T | 2026-08-31 11:01:48 | 53.10114 | 8.08802 | 140° | 16km/h | 24673m | 6.9m/s | -50.5°C | 0.8% | 27.9hPa | 2.6V | 18:12:15 | 01:30:10 | 00:00:00 | |
| DL1XH-west | 2026-08-31 11:01:46 | 53.10126 | 8.08786 | 124° | 7km/h | 24649m | 5.7m/s | -50.4°C | 0.8% | 28hPa | 2.7V | 18:12:15 | 01:30:06 | 00:00:00 | |
| AA1-15 | 2026-08-31 11:01:46 | 53.10124 | 8.08789 | 137° | 13km/h | 24656m | 7.1m/s | -50.4°C | 0.7% | 28hPa | 2.7V | 18:12:15 | 01:30:07 | 00:00:00 | |
| DC4HF-4 | 2026-08-31 11:01:44 | 53.10127 | 8.08783 | 93° | 5km/h | 24644m | 5.2m/s | -50.5°C | 1.1% | 28.0hPa | 2.7V | 00:00:00 | 00:00:00 | 00:00:00 | |
| DM0DOS-11 | 2026-08-31 11:01:43 | 53.10127 | 8.08770 | 90° | 9km/h | 24619m | 5.7m/s | -50.5°C | 3.9% | 28.2hPa | 2.7V | 08:30:00 | 01:30:01 | 00:00:00 | |
| DL1XH1-15 | 2026-08-31 11:01:43 | 53.10126 | 8.08780 | 93° | 5km/h | 24638m | 6.8m/s | -50.5°C | 3.9% | 28.1hPa | 2.6V | 08:30:00 | 01:30:04 | 00:00:00 | |
| DF4FW | 2026-08-31 11:01:43 | 53.10126 | 8.08783 | 94° | 5km/h | 24645m | 5.2m/s | -50.5°C | 1.1% | 28.0hPa | 2.6V | 00:00:00 | 00:00:00 | 00:00:00 | |
| DL3OBA | 2026-08-31 11:01:42 | 53.10126 | 8.08783 | 94° | 5km/h | 24645m | 5.2m/s | -50.5°C | 1.1% | 28.0hPa | 2.6V | 00:00:00 | 00:00:00 | 00:00:00 | |
| DB0DAN | 2026-08-31 11:01:40 | 53.10127 | 8.08774 | 98° | 9km/h | 24625m | 5.6m/s | -50.5°C | 1.1% | 28.12hPa | 2.6V | 00:00:00 | 00:00:00 | 00:00:00 | |
| DO2JMG | 2026-08-31 11:01:39 | 53.10127 | 8.08770 | 90° | 9km/h | 24619m | 5.7m/s | -50.5°C | 0.8% | 28.2hPa | 2.7V | 18:12:15 | 01:30:01 | 00:00:00 | |
| HSKMA3-T | 2026-08-31 11:01:37 | 53.10126 | 8.08762 | 73° | 13km/h | 24606m | 5.9m/s | -50.5°C | 0.8% | 28.2hPa | 2.6V | 18:12:15 | 01:29:59 | 00:00:00 | |
| BIOWL1-15 | 2026-08-31 11:01:35 | 53.10127 | 8.08744 | 110° | 16km/h | 24586m | 5.8m/s | -50.6°C | 0.8% | 28.3hPa | 2.7V | 18:12:15 | 01:29:56 | 00:00:00 | |
| AA1-15 | 2026-08-31 11:01:35 | 53.10126 | 8.08751 | 101° | 15km/h | 24593m | 7.5m/s | -50.5°C | 0.8% | 28.3hPa | 2.7V | 18:12:15 | 01:29:57 | 00:00:00 | |
| DL1XH-west | 2026-08-31 11:01:33 | 53.10135 | 8.08721 | 130° | 13km/h | 24553m | 6.6m/s | -50.6°C | 0.8% | 28.4hPa | 2.6V | 18:12:15 | 01:29:51 | 00:00:00 | |
| DM0DOS-11 | 2026-08-31 11:01:33 | 53.10135 | 8.08721 | 129° | 13km/h | 24553m | 6.6m/s | -50.6°C | 3.9% | 28.4hPa | 2.6V | 08:30:00 | 01:29:51 | 00:00:00 | |
| DL1XH1-15 | 2026-08-31 11:01:33 | 53.10130 | 8.08733 | 115° | 11km/h | 24573m | 6.4m/s | -50.6°C | 3.9% | 28.4hPa | 2.6V | 08:30:00 | 01:29:54 | 00:00:00 | |
| DO2JMG | 2026-08-31 11:01:28 | 53.10137 | 8.08717 | 127° | 13km/h | 24547m | 6m/s | -50.6°C | 0.8% | 28.5hPa | 2.6V | 18:12:15 | 01:29:50 | 00:00:00 | |
| DL1XH-15 | 2026-08-31 11:01:28 | 53.10137 | 8.08704 | 69° | 13km/h | 24528m | 5m/s | -50.5°C | 3.8% | 28.5hPa | 2.7V | 08:30:00 | 01:29:47 | 00:00:00 | |
| HSKMA3-T | 2026-08-31 11:01:27 | 53.10138 | 8.08713 | 105° | 9km/h | 24540m | 7.7m/s | -50.6°C | 0.8% | 28.5hPa | 2.6V | 18:12:15 | 01:29:49 | 00:00:00 | |
| DO2SHX-10 | 2026-08-31 11:01:27 | 53.10138 | 8.08712 | 105° | 13km/h | 24540m | 7.6m/s | -50.5°C | 3.9% | 28.4hPa | 2.7V | 00:00:00 | 01:29:49 | 00:00:00 | |
| DB0DAN | 2026-08-31 11:01:25 | 53.10137 | 8.08704 | 70° | 13km/h | 24528m | 5.1m/s | -50.6°C | 1.1% | 28.54hPa | 2.7V | 00:00:00 | 00:00:00 | 00:00:00 | |
| AA1-15 | 2026-08-31 11:01:24 | 53.10136 | 8.08698 | 74° | 16km/h | 24522m | 7.2m/s | -50.6°C | 0.8% | 28.6hPa | 2.7V | 18:12:15 | 01:29:46 | 00:00:00 | |
| DO2SHX-10 | 2026-08-31 11:01:23 | 53.10134 | 8.08690 | 78° | 18km/h | 24516m | 5.8m/s | -50.5°C | 3.8% | 28.6hPa | 2.6V | 00:00:00 | 01:29:45 | 08:30:00 | |
| DM0DOS-11 | 2026-08-31 11:01:22 | 53.10127 | 8.08664 | 56° | 15km/h | 24491m | 5.3m/s | -50.6°C | 3.8% | 28.7hPa | 2.7V | 08:30:00 | 01:29:41 | 00:00:00 | |
| DL1XH-west | 2026-08-31 11:01:19 | 53.10127 | 8.08664 | 56° | 15km/h | 24491m | 5.3m/s | -50.6°C | 0.8% | 28.7hPa | 2.7V | 18:12:15 | 01:29:41 | 00:00:00 | |
| DO2JMG | 2026-08-31 11:01:18 | 53.10125 | 8.08659 | 65° | 15km/h | 24485m | 7.5m/s | -50.6°C | 0.7% | 28.8hPa | 2.7V | 18:12:15 | 01:29:40 | 00:00:00 | |
| DL3AQ-11 | 2026-08-31 11:01:18 | 53.10124 | 8.08654 | 64° | 13km/h | 24478m | 5.4m/s | -50.6°C | 1.1% | 28.8hPa | 2.6V | 00:00:00 | 00:00:00 | 00:00:00 | |
| DL1XH-15 | 2026-08-31 11:01:17 | 53.10120 | 8.08645 | 45° | 15km/h | 24466m | 7.2m/s | -50.6°C | 3.9% | 28.8hPa | 2.6V | 08:30:00 | 01:29:37 | 00:00:00 | |
| DL1XH1-15 | 2026-08-31 11:01:17 | 53.10107 | 8.08625 | 51° | 18km/h | 24443m | 6.1m/s | -50.7°C | 3.9% | 28.9hPa | 2.6V | 08:30:00 | 01:29:33 | 00:00:00 | |
| HSKMA3-T | 2026-08-31 11:01:17 | 53.10124 | 8.08654 | 65° | 13km/h | 24478m | 5.4m/s | -50.6°C | 0.8% | 28.8hPa | 2.6V | 18:12:15 | 01:29:39 | 00:00:00 | |
| AA1-15 | 2026-08-31 11:01:14 | 53.10117 | 8.08640 | 37° | 16km/h | 24460m | 5.1m/s | -50.6°C | 0.8% | 28.9hPa | 2.7V | 18:12:15 | 01:29:36 | 00:00:00 | |
| DO2SHX-10 | 2026-08-31 11:01:14 | 53.10117 | 8.08640 | 37° | 18km/h | 24460m | 5.0m/s | -50.5°C | 3.9% | 28.8hPa | 2.7V | 00:00:00 | 01:29:36 | 00:00:00 | |
| DK9SH | 2026-08-31 11:01:13 | 53.10114 | 8.08636 | 39° | 18km/h | 24455m | 4.9m/s | -50.6°C | 1.1% | 28.9hPa | 2.7V | 00:00:00 | 00:00:00 | 00:00:00 | |
| DM0DOS-11 | 2026-08-31 11:01:12 | 53.10101 | 8.08613 | 44° | 22km/h | 24432m | 5.6m/s | -50.8°C | 3.9% | 29hPa | 2.7V | 08:30:00 | 01:29:31 | 00:00:00 | |
| DC6BW-12 | 2026-08-31 11:01:12 | 53.10110 | 8.08631 | 45° | 18km/h | 24449m | 6.9m/s | -50.7°C | 1.2% | 28.9hPa | 2.7V | 00:00:00 | 00:00:00 | 00:00:00 | |
| DB0DAN | 2026-08-31 11:01:10 | 53.10104 | 8.08619 | 50° | 20km/h | 24437m | 4.7m/s | -50.7°C | 1.1% | 28.96hPa | 2.7V | 00:00:00 | 00:00:00 | 00:00:00 | |
| DL1XH-west | 2026-08-31 11:01:08 | 53.10096 | 8.08606 | 33° | 26km/h | 24425m | 7.3m/s | -50.9°C | 0.8% | 29hPa | 2.6V | 18:12:15 | 01:29:30 | 00:00:00 | |
| DO2JMG | 2026-08-31 11:01:07 | 53.10090 | 8.08601 | 24° | 27km/h | 24419m | 5.9m/s | -50.9°C | 0.8% | 29hPa | 2.6V | 18:12:15 | 01:29:29 | 00:00:00 | |
| HSKMA3-T | 2026-08-31 11:01:06 | 53.10084 | 8.08597 | 19° | 27km/h | 24413m | 4.9m/s | -51°C | 0.8% | 29.1hPa | 2.6V | 18:12:15 | 01:29:28 | 00:00:00 | |
| DL1XH-15 | 2026-08-31 11:01:05 | 53.10078 | 8.08594 | 19° | 26km/h | 24407m | 6.4m/s | -51°C | 3.9% | 29.1hPa | 2.7V | 08:30:00 | 01:29:27 | 00:00:00 | |
| DL1XH1-15 | 2026-08-31 11:01:05 | 53.10055 | 8.08579 | 21° | 26km/h | 24383m | 6.1m/s | -51.2°C | 4% | 29.2hPa | 2.6V | 08:30:00 | 01:29:23 | 00:00:00 | |
| AA1-15 | 2026-08-31 11:01:04 | 53.10072 | 8.08590 | 22° | 24km/h | 24401m | 6.1m/s | -51.1°C | 0.8% | 29.1hPa | 2.7V | 18:12:15 | 01:29:26 | 00:00:00 | |
| DF5WG-10 | 2026-08-31 11:01:03 | 53.10066 | 8.08586 | 24° | 22km/h | 24396m | 4.9m/s | -51.0°C | 3.9% | 29.1hPa | 2.6V | 00:00:00 | 01:29:25 | 00:00:00 | |
| DO2SHX-10 | 2026-08-31 11:01:02 | 53.10061 | 8.08582 | 20° | 24km/h | 24390m | 7.5m/s | -51.2°C | 4.0% | 29.1hPa | 2.6V | 00:00:00 | 01:29:24 | 00:00:00 | |
| DD8BA-10 | 2026-08-31 11:01:01 | 53.10055 | 8.08579 | 22° | 20km/h | 24383m | 6.0m/s | -51.2°C | 4.0% | 29.1hPa | 2.6V | 00:00:00 | 00:00:00 | 00:00:00 | |
| DM0DOS-11 | 2026-08-31 11:01:00 | 53.10044 | 8.08570 | 32° | 22km/h | 24370m | 7.7m/s | -51.2°C | 4% | 29.3hPa | 2.7V | 08:30:00 | 01:29:21 | 00:00:00 | |
| DL1XH-15 | 2026-08-31 11:01:00 | 53.09924 | 8.08612 | 329° | 22km/h | 24186m | 5.6m/s | -51.1°C | 3.9% | 30.1hPa | 2.6V | 08:30:00 | 01:28:51 | 00:00:00 | |
| DO2SHX-10 | 2026-08-31 11:00:59 | 53.10044 | 8.08570 | 33° | 20km/h | 24371m | 7.7m/s | -51.2°C | 4.0% | 29.2hPa | 2.6V | 00:00:00 | 01:29:21 | 00:00:00 | |
| BIOWL1-15 | 2026-08-31 11:00:58 | 53.09924 | 8.08612 | 329° | 22km/h | 24186m | 5.6m/s | -51.1°C | 0.8% | 30.1hPa | 2.6V | 18:12:15 | 01:28:51 | 00:00:00 | |
| DO2JMG | 2026-08-31 11:00:57 | 53.09937 | 8.08595 | 314° | 22km/h | 24204m | 5.6m/s | -51.2°C | 0.9% | 30hPa | 2.7V | 18:12:15 | 01:28:54 | 00:00:00 | |
| BUE01 | 2026-08-31 11:00:56 | 53.10013 | 8.08551 | 346° | 16km/h | 24328m | 7.1m/s | -51.1°C | 1.2% | 29.5hPa | 2.6V | 00:00:00 | 00:00:00 | 00:00:00 | |
| DL1XH1-15 | 2026-08-31 11:00:55 | 53.09972 | 8.08567 | 10° | 15km/h | 24260m | 5.5m/s | -51.2°C | 4% | 29.8hPa | 2.6V | 08:30:00 | 01:29:03 | 00:00:00 | |
| DM0DOS-11 | 2026-08-31 11:00:55 | 53.09924 | 8.08612 | 329° | 22km/h | 24186m | 5.6m/s | -51.1°C | 3.9% | 30.1hPa | 2.6V | 08:30:00 | 01:28:51 | 00:00:00 | |
| BIOWL1-15 | 2026-08-31 11:00:54 | 53.09920 | 8.08616 | 324° | 18km/h | 24181m | 6.5m/s | -51.1°C | 0.8% | 30.1hPa | 2.7V | 18:12:15 | 01:28:50 | 00:00:00 | |
| DF8AY | 2026-08-31 11:00:53 | 53.09946 | 8.08582 | 324° | 24km/h | 24217m | 6.2m/s | -51.3°C | 0.9% | 29.9hPa | 2.7V | 18:12:15 | 01:28:56 | 00:00:00 | |
| DL1XH1-15 | 2026-08-31 11:00:53 | 53.09917 | 8.08621 | 316° | 16km/h | 24174m | 6.9m/s | -51.1°C | 4% | 30.2hPa | 2.7V | 08:30:00 | 01:28:49 | 00:00:00 | |
| DO2JMG | 2026-08-31 11:00:51 | 53.09933 | 8.08601 | 319° | 22km/h | 24198m | 5.8m/s | -51.2°C | 0.8% | 30.1hPa | 2.6V | 18:12:15 | 01:28:53 | 00:00:00 | |
| HSKMA3-T | 2026-08-31 11:00:51 | 53.09917 | 8.08621 | 317° | 16km/h | 24174m | 6.9m/s | -51.1°C | 0.9% | 30.2hPa | 2.7V | 18:12:15 | 01:28:49 | 00:00:00 | |
| DF4FW | 2026-08-31 11:00:51 | 53.09929 | 8.08607 | 328° | 24km/h | 24193m | 6.3m/s | -51.2°C | 1.2% | 30.1hPa | 2.6V | 00:00:00 | 00:00:00 | 00:00:00 | |
| GOEST3-10 | 2026-08-31 11:00:50 | 53.09924 | 8.08612 | 330° | 16km/h | 24187m | 5.5m/s | -51.0°C | 3.9% | 30.1hPa | 2.6V | 00:00:00 | 01:28:51 | 00:00:00 | |
| DO2SHX-10 | 2026-08-31 11:00:49 | 53.09924 | 8.08612 | 330° | 18km/h | 24187m | 5.5m/s | -51.0°C | 3.9% | 30.1hPa | 2.6V | 00:00:00 | 00:00:00 | 00:00:00 | |
| DJ2DS-15 | 2026-08-31 11:00:47 | 53.09920 | 8.08616 | 324° | 16km/h | 24181m | 6.5m/s | -51.1°C | 1.2% | 30.1hPa | 2.6V | 00:00:00 | 00:00:00 | 00:00:00 | |
| DM0DOS-11 | 2026-08-31 11:00:46 | 53.09911 | 8.08630 | 315° | 15km/h | 24162m | 6.5m/s | -51.1°C | 4% | 30.2hPa | 2.6V | 08:30:00 | 01:28:47 | 00:00:00 | |
| DD1CC3-15 | 2026-08-31 11:00:42 | 53.09920 | 8.08616 | 325° | 18km/h | 24181m | 6.5m/s | -51.1°C | 1.2% | 30.1hPa | 2.7V | 00:00:00 | 00:00:00 | 00:00:00 | |
| DL1XH1-15 | 2026-08-31 11:00:35 | 53.09909 | 8.08634 | 315° | 15km/h | 24155m | 6.5m/s | -51°C | 3.9% | 30.2hPa | 2.7V | 08:30:00 | 01:28:46 | 00:00:00 | |
| DL1XH-west | 2026-08-31 11:00:30 | 53.09914 | 8.08625 | 310° | 15km/h | 24168m | 4.9m/s | -51.1°C | 0.8% | 30.2hPa | 2.6V | 18:12:15 | 01:28:48 | 00:00:00 | |
| DO2JMG | 2026-08-31 11:00:26 | 53.09912 | 8.08630 | 315° | 15km/h | 24162m | 6.6m/s | -51.1°C | 0.8% | 30.2hPa | 2.6V | 18:12:15 | 01:28:47 | 00:00:00 | |
| DB0DAN | 2026-08-31 11:00:25 | 53.09912 | 8.08630 | 315° | 15km/h | 24162m | 6.6m/s | -51.1°C | 1.2% | 30.24hPa | 2.6V | 00:00:00 | 00:00:00 | 00:00:00 | |
| AA1-15 | 2026-08-31 11:00:22 | 53.09904 | 8.08644 | 306° | 15km/h | 24143m | 7.8m/s | -51.1°C | 0.9% | 30.3hPa | 2.6V | 18:12:15 | 01:28:44 | 00:00:00 | |
| DD8BA-10 | 2026-08-31 11:00:21 | 53.09901 | 8.08649 | 303° | 18km/h | 24136m | 5.9m/s | -51.0°C | 3.9% | 30.3hPa | 2.6V | 00:00:00 | 00:00:00 | 00:00:00 | |
| DO2SHX-10 | 2026-08-31 11:00:20 | 53.09899 | 8.08654 | 307° | 18km/h | 24130m | 5.4m/s | -51.0°C | 4.0% | 30.3hPa | 2.6V | 00:00:00 | 01:28:42 | 00:00:00 | |
| GOEST3-10 | 2026-08-31 11:00:19 | 53.09896 | 8.08660 | 316° | 20km/h | 24124m | 7.4m/s | -51.1°C | 4.0% | 30.4hPa | 2.6V | 00:00:00 | 01:28:41 | 00:00:00 | |
| DF4FW | 2026-08-31 11:00:18 | 53.09896 | 8.08660 | 316° | 18km/h | 24124m | 7.4m/s | -51.1°C | 1.2% | 30.4hPa | 2.6V | 00:00:00 | 00:00:00 | 00:00:00 | |
| DL1XH1-15 | 2026-08-31 11:00:17 | 53.09879 | 8.08689 | 321° | 16km/h | 24094m | 5.4m/s | -51°C | 3.9% | 30.6hPa | 2.6V | 08:30:00 | 01:28:36 | 00:00:00 | |
| DL1XH-west | 2026-08-31 11:00:16 | 53.09885 | 8.08678 | 310° | 22km/h | 24105m | 6.7m/s | -51°C | 0.9% | 30.5hPa | 2.6V | 18:12:15 | 01:28:38 | 00:00:00 | |
| HSKMA3-T | 2026-08-31 11:00:15 | 53.09882 | 8.08684 | 312° | 18km/h | 24099m | 4.7m/s | -51.1°C | 0.8% | 30.5hPa | 2.6V | 18:12:15 | 01:28:37 | 00:00:00 | |
| DO2JMG | 2026-08-31 11:00:14 | 53.09879 | 8.08689 | 321° | 16km/h | 24094m | 5.4m/s | -51°C | 0.8% | 30.6hPa | 2.6V | 18:12:15 | 01:28:36 | 00:00:00 | |
| AA1-15 | 2026-08-31 11:00:11 | 53.09869 | 8.08696 | 343° | 13km/h | 24077m | 6m/s | -51.1°C | 0.9% | 30.6hPa | 2.7V | 18:12:15 | 01:28:33 | 00:00:00 | |
| DB0DAN | 2026-08-31 11:00:10 | 53.09866 | 8.08698 | 329° | 11km/h | 24070m | 6.6m/s | -51.1°C | 1.2% | 30.67hPa | 2.6V | 00:00:00 | 00:00:00 | 00:00:00 | |
| GOEST3-10 | 2026-08-31 11:00:09 | 53.09863 | 8.08701 | 316° | 9km/h | 24064m | 5.5m/s | -51.0°C | 4.0% | 30.6hPa | 2.6V | 00:00:00 | 01:28:31 | 00:00:00 | |
| DM0DOS-11 | 2026-08-31 11:00:08 | 53.09858 | 8.08712 | 289° | 9km/h | 24041m | 5.6m/s | -51.1°C | 4% | 30.8hPa | 2.6V | 08:30:00 | 01:28:27 | 00:00:00 | |
| DO2SHX-10 | 2026-08-31 11:00:08 | 53.09862 | 8.08704 | 311° | 9km/h | 24059m | 4.9m/s | -51.1°C | 4.0% | 30.7hPa | 2.6V | 00:00:00 | 01:28:30 | 00:00:00 | |
| DL1XH1-15 | 2026-08-31 11:00:07 | 53.09857 | 8.08716 | 290° | 11km/h | 24035m | 6.5m/s | -51.1°C | 4% | 30.9hPa | 2.6V | 08:30:00 | 01:28:26 | 00:00:00 | |
| DF8AY | 2026-08-31 11:00:06 | 53.09858 | 8.08712 | 290° | 9km/h | 24041m | 5.6m/s | -51.1°C | 0.9% | 30.8hPa | 2.6V | 18:12:15 | 01:28:27 | 00:00:00 | |
| DL1XH-west | 2026-08-31 11:00:06 | 53.09859 | 8.08709 | 313° | 7km/h | 24046m | 5.1m/s | -51.1°C | 0.8% | 30.8hPa | 2.7V | 18:12:15 | 01:28:28 | 00:00:00 | |
| HSKMA3-T | 2026-08-31 11:00:04 | 53.09857 | 8.08716 | 290° | 11km/h | 24035m | 6.5m/s | -51.1°C | 0.9% | 30.9hPa | 2.6V | 18:12:15 | 01:28:26 | 00:00:00 | |
| DO2JMG | 2026-08-31 11:00:03 | 53.09856 | 8.08720 | 300° | 13km/h | 24030m | 4.6m/s | -51.1°C | 0.9% | 30.9hPa | 2.7V | 18:12:15 | 01:28:25 | 00:00:00 | |
| BIOWL1-15 | 2026-08-31 11:00:01 | 53.09847 | 8.08728 | 5° | 9km/h | 24008m | 4.6m/s | -51.1°C | 0.9% | 31hPa | 2.7V | 18:12:15 | 01:28:21 | 00:00:00 | |
| AA1-15 | 2026-08-31 11:00:01 | 53.09852 | 8.08727 | 332° | 11km/h | 24019m | 6.2m/s | -51.1°C | 0.9% | 30.9hPa | 2.6V | 18:12:15 | 01:28:23 | 00:00:00 | |
| SMARD9-15 | 2026-08-31 11:00:00 | 53.09849 | 8.08728 | 354° | 9km/h | 24013m | 5.4m/s | -51.1°C | 1.2% | 30.9hPa | 2.6V | 00:00:00 | 00:00:00 | 00:00:00 | |
| DO2SHX-10 | 2026-08-31 10:59:59 | 53.09847 | 8.08728 | 6° | 7km/h | 24008m | 4.5m/s | -51.0°C | 4.0% | 30.9hPa | 2.6V | 00:00:00 | 01:28:21 | 00:00:00 | |
| DM0DOS-11 | 2026-08-31 10:59:58 | 53.09840 | 8.08732 | 337° | 11km/h | 23984m | 6.9m/s | -51°C | 4% | 31.1hPa | 2.6V | 08:30:00 | 01:28:17 | 00:00:00 | |
| DL3AQ-11 | 2026-08-31 10:59:58 | 53.09844 | 8.08729 | 335° | 5km/h | 23997m | 6.4m/s | -51.1°C | 1.2% | 31.0hPa | 2.7V | 00:00:00 | 00:00:00 | 00:00:00 | |
| DL1XH1-15 | 2026-08-31 10:59:57 | 53.09837 | 8.08734 | 339° | 13km/h | 23978m | 6.3m/s | -51.1°C | 4% | 31.1hPa | 2.7V | 08:30:00 | 01:28:16 | 00:00:00 | |
| DL1XH-west | 2026-08-31 10:59:55 | 53.09840 | 8.08732 | 337° | 11km/h | 23984m | 6.9m/s | -51°C | 0.9% | 31.1hPa | 2.6V | 18:12:15 | 01:28:17 | 00:00:00 | |
| DF8AY | 2026-08-31 10:59:54 | 53.09837 | 8.08734 | 339° | 13km/h | 23978m | 6.3m/s | -51.1°C | 0.9% | 31.1hPa | 2.7V | 18:12:15 | 01:28:16 | 00:00:00 | |
| DO2JMG | 2026-08-31 10:59:53 | 53.09834 | 8.08736 | 332° | 13km/h | 23972m | 5.5m/s | -51°C | 0.9% | 31.1hPa | 2.7V | 18:12:15 | 01:28:15 | 00:00:00 | |
| BIOWL1-15 | 2026-08-31 10:59:52 | 53.09824 | 8.08752 | 1° | 4km/h | 23936m | 4.8m/s | -50.9°C | 0.8% | 31.3hPa | 2.7V | 18:12:15 | 01:28:09 | 00:00:00 | |
| AA1-15 | 2026-08-31 10:59:50 | 53.09828 | 8.08747 | 307° | 9km/h | 23954m | 5.6m/s | -50.9°C | 0.8% | 31.2hPa | 2.6V | 18:12:15 | 01:28:12 | 00:00:00 | |
| DO2SHX-10 | 2026-08-31 10:59:49 | 53.09826 | 8.08750 | 318° | 5km/h | 23948m | 6.9m/s | -50.9°C | 3.9% | 31.2hPa | 2.6V | 00:00:00 | 01:28:11 | 00:00:00 | |
| DM0DOS-11 | 2026-08-31 10:59:48 | 53.09823 | 8.08753 | 313° | 4km/h | 23924m | 5.3m/s | -50.9°C | 3.9% | 31.4hPa | 2.6V | 08:30:00 | 01:28:07 | 00:00:00 | |
| DL1XH1-15 | 2026-08-31 10:59:47 | 53.09822 | 8.08754 | 334° | 5km/h | 23919m | 4.3m/s | -50.9°C | 3.9% | 31.4hPa | 2.6V | 08:30:00 | 01:28:06 | 00:00:00 | |
| DL1XH-west | 2026-08-31 10:59:45 | 53.09823 | 8.08753 | 314° | 4km/h | 23924m | 5.3m/s | -50.9°C | 0.8% | 31.4hPa | 2.6V | 18:12:15 | 01:28:07 | 00:00:00 | |
| DF8AY | 2026-08-31 10:59:44 | 53.09822 | 8.08754 | 335° | 5km/h | 23919m | 4.4m/s | -50.9°C | 0.8% | 31.4hPa | 2.6V | 18:12:15 | 01:28:06 | 00:00:00 | |
| DO2JMG | 2026-08-31 10:59:42 | 53.09817 | 8.08755 | 3° | 13km/h | 23908m | 6.5m/s | -50.9°C | 0.8% | 31.5hPa | 2.7V | 18:12:15 | 01:28:04 | 00:00:00 | |
| DB0DAN | 2026-08-31 10:59:40 | 53.09809 | 8.08754 | 355° | 16km/h | 23895m | 7m/s | -50.9°C | 1.2% | 31.51hPa | 2.6V | 00:00:00 | 00:00:00 | 00:00:00 | |
| AA1-15 | 2026-08-31 10:59:40 | 53.09809 | 8.08754 | 355° | 16km/h | 23895m | 7m/s | -50.9°C | 0.8% | 31.5hPa | 2.6V | 18:12:15 | 01:28:02 | 00:00:00 | |
| DL4XJ-10 | 2026-08-31 10:59:40 | 53.09809 | 8.08754 | 355° | 15km/h | 23895m | 6.9m/s | -50.2°C | 0% | 0hPa | 2.6V | 00:00:00 | 00:00:00 | 00:00:00 | |
| DO2SHX-10 | 2026-08-31 10:59:39 | 53.09805 | 8.08755 | 353° | 13km/h | 23889m | 5.3m/s | -50.8°C | 3.8% | 31.5hPa | 2.6V | 00:00:00 | 01:28:01 | 00:00:00 | |
| DM0DOS-11 | 2026-08-31 10:59:38 | 53.09794 | 8.08752 | 32° | 7km/h | 23866m | 6m/s | -50.9°C | 3.8% | 31.7hPa | 2.6V | 08:30:00 | 01:27:57 | 00:00:00 | |
| DJ2KF-10 | 2026-08-31 10:59:38 | 53.09802 | 8.08756 | 357° | 13km/h | 23884m | 5.1m/s | -50.7°C | 3.8% | 31.5hPa | 2.7V | 00:00:00 | 01:28:00 | 00:00:00 | |
| DL1XH1-15 | 2026-08-31 10:59:37 | 53.09793 | 8.08751 | 23° | 5km/h | 23859m | 7.1m/s | -50.9°C | 3.8% | 31.7hPa | 2.6V | 08:30:00 | 01:27:56 | 00:00:00 | |
| BIOWL1-15 | 2026-08-31 10:59:36 | 53.09796 | 8.08754 | 28° | 11km/h | 23871m | 5.5m/s | -50.8°C | 0.8% | 31.6hPa | 2.6V | 18:12:15 | 01:27:58 | 00:00:00 | |
| DL1XH-west | 2026-08-31 10:59:34 | 53.09793 | 8.08751 | 23° | 5km/h | 23859m | 7.1m/s | -50.9°C | 0.7% | 31.7hPa | 2.6V | 18:12:15 | 01:27:56 | 00:00:00 | |
| DF8AY | 2026-08-31 10:59:33 | 53.09792 | 8.08750 | 9° | 4km/h | 23853m | 4.6m/s | -50.9°C | 0.8% | 31.7hPa | 2.7V | 18:12:15 | 01:27:55 | 00:00:00 | |
| DO2JMG | 2026-08-31 10:59:31 | 53.09788 | 8.08749 | 17° | 11km/h | 23842m | 6.8m/s | -50.9°C | 0.8% | 31.8hPa | 2.7V | 18:12:15 | 01:27:53 | 00:00:00 | |
| AA1-15 | 2026-08-31 10:59:30 | 53.09785 | 8.08747 | 14° | 15km/h | 23836m | 4.7m/s | -51°C | 0.8% | 31.8hPa | 2.6V | 18:12:15 | 01:27:52 | 00:00:00 | |
| DO2SHX-10 | 2026-08-31 10:59:30 | 53.09785 | 8.08747 | 14° | 16km/h | 23837m | 4.7m/s | -51.0°C | 3.8% | 31.8hPa | 2.6V | 00:00:00 | 01:27:52 | 00:00:00 | |
| GOEST3-10 | 2026-08-31 10:59:29 | 53.09781 | 8.08746 | 8° | 16km/h | 23832m | 5.1m/s | -51.0°C | 3.8% | 31.8hPa | 2.6V | 00:00:00 | 01:27:51 | 08:30:00 | |
| DK9SH | 2026-08-31 10:59:28 | 53.09781 | 8.08746 | 9° | 18km/h | 23832m | 5.1m/s | -51.1°C | 1.1% | 31.8hPa | 2.7V | 00:00:00 | 00:00:00 | 00:00:00 | |
| DO2SHX-10 | 2026-08-31 10:59:27 | 53.09772 | 8.08746 | 354° | 16km/h | 23820m | 5.4m/s | -51.1°C | 3.8% | 31.8hPa | 2.7V | 00:00:00 | 01:27:49 | 00:00:00 | |
| DB0DAN | 2026-08-31 10:59:25 | 53.09764 | 8.08747 | 9° | 15km/h | 23809m | 7.1m/s | -51.4°C | 1.2% | 31.94hPa | 2.7V | 00:00:00 | 00:00:00 | 00:00:00 | |
| BIOWL1-15 | 2026-08-31 10:59:25 | 53.09764 | 8.08747 | 9° | 16km/h | 23809m | 7.1m/s | -51.4°C | 0.8% | 31.9hPa | 2.7V | 18:12:15 | 01:27:47 | 00:00:00 | |
| DL1XH-west | 2026-08-31 10:59:23 | 53.09757 | 8.08743 | 23° | 11km/h | 23797m | 5.3m/s | -51.6°C | 0.8% | 32hPa | 2.6V | 18:12:15 | 01:27:45 | 00:00:00 | |
| DO2JMG | 2026-08-31 10:59:21 | 53.09753 | 8.08741 | 13° | 7km/h | 23785m | 5m/s | -51.7°C | 0.8% | 32.1hPa | 2.7V | 18:12:15 | 01:27:43 | 00:00:00 | |
| AA1-15 | 2026-08-31 10:59:20 | 53.09751 | 8.08740 | 23° | 7km/h | 23780m | 6.6m/s | -51.7°C | 0.9% | 32.1hPa | 2.7V | 18:12:15 | 01:27:42 | 00:00:00 | |
| BIOWL1-15 | 2026-08-31 10:59:17 | 53.09740 | 8.08737 | 346° | 11km/h | 23751m | 3.6m/s | -51.9°C | 0.9% | 32.2hPa | 2.6V | 18:12:15 | 01:27:37 | 00:00:00 | |
| DF8AY | 2026-08-31 10:59:12 | 53.09714 | 8.08734 | 357° | 15km/h | 23711m | 5.6m/s | -52.2°C | 1% | 32.4hPa | 2.7V | 18:12:15 | 01:27:30 | 00:00:00 | |
| DL1XH-west | 2026-08-31 10:59:12 | 53.09730 | 8.08736 | 14° | 16km/h | 23734m | 4.7m/s | -52.1°C | 0.9% | 32.3hPa | 2.7V | 18:12:15 | 01:27:34 | 00:00:00 | |
| DO2JMG | 2026-08-31 10:59:11 | 53.09726 | 8.08735 | 12° | 16km/h | 23729m | 5.2m/s | -52.1°C | 1% | 32.4hPa | 2.6V | 18:12:15 | 01:27:33 | 00:00:00 | |
| DB0DAN | 2026-08-31 10:59:10 | 53.09722 | 8.08734 | 3° | 16km/h | 23723m | 6.7m/s | -52.2°C | 1.2% | 32.39hPa | 2.6V | 00:00:00 | 00:00:00 | 00:00:00 | |
| AA1-15 | 2026-08-31 10:59:09 | 53.09718 | 8.08734 | 356° | 15km/h | 23717m | 5.5m/s | -52.3°C | 1% | 32.4hPa | 2.6V | 18:12:15 | 01:27:31 | 00:00:00 | |
| BIOWL1-15 | 2026-08-31 10:59:06 | 53.09701 | 8.08730 | 5° | 11km/h | 23688m | 6.9m/s | -52.4°C | 1% | 32.6hPa | 2.6V | 18:12:15 | 01:27:26 | 00:00:00 | |
| DL1XH-west | 2026-08-31 10:59:01 | 53.09693 | 8.08728 | 21° | 11km/h | 23671m | 5.6m/s | -52.5°C | 1% | 32.6hPa | 2.7V | 18:12:15 | 01:27:23 | 00:00:00 | |
| DO2JMG | 2026-08-31 10:59:00 | 53.09691 | 8.08726 | 22° | 11km/h | 23665m | 5.1m/s | -52.6°C | 1% | 32.7hPa | 2.7V | 18:12:15 | 01:27:22 | 00:00:00 | |
| AA1-15 | 2026-08-31 10:58:59 | 53.09688 | 8.08725 | 7° | 9km/h | 23659m | 6.8m/s | -52.5°C | 1% | 32.7hPa | 2.6V | 18:12:15 | 01:27:21 | 00:00:00 | |
| DF8AY | 2026-08-31 10:58:58 | 53.09686 | 8.08725 | 0° | 9km/h | 23654m | 4.8m/s | -52.5°C | 1% | 32.7hPa | 2.6V | 18:12:15 | 01:27:20 | 00:00:00 | |
| DL4XJ-10 | 2026-08-31 10:58:58 | 53.09686 | 8.08725 | 1° | 15km/h | 23654m | 4.7m/s | -51.8°C | 0% | 0hPa | 2.6V | 00:00:00 | 00:00:00 | 00:00:00 | |
| DL1XH1-15 | 2026-08-31 10:58:57 | 53.09675 | 8.08722 | 0° | 13km/h | 23633m | 5.7m/s | -52.7°C | 4.3% | 32.8hPa | 2.6V | 08:30:00 | 01:27:16 | 00:00:00 | |
| BIOWL1-15 | 2026-08-31 10:58:54 | 53.09675 | 8.08722 | 0° | 13km/h | 23633m | 5.7m/s | -52.7°C | 1% | 32.8hPa | 2.6V | 18:12:15 | 01:27:16 | 00:00:00 | |
| DL1XH-west | 2026-08-31 10:58:51 | 53.09665 | 8.08726 | 342° | 15km/h | 23615m | 7m/s | -52.7°C | 1.1% | 32.9hPa | 2.7V | 18:12:15 | 01:27:13 | 00:00:00 | |
| HSKMA3-T | 2026-08-31 10:58:50 | 53.09662 | 8.08728 | 339° | 16km/h | 23610m | 4.7m/s | -52.7°C | 1% | 33hPa | 2.6V | 18:12:15 | 01:27:12 | 00:00:00 | |
| DO2JMG | 2026-08-31 10:58:49 | 53.09658 | 8.08732 | 328° | 18km/h | 23605m | 5.2m/s | -52.7°C | 1% | 33hPa | 2.6V | 18:12:15 | 01:27:11 | 00:00:00 | |
| AA1-15 | 2026-08-31 10:58:48 | 53.09654 | 8.08736 | 323° | 20km/h | 23599m | 6.1m/s | -52.7°C | 1% | 33hPa | 2.7V | 18:12:15 | 01:27:10 | 00:00:00 | |
| DF8AY | 2026-08-31 10:58:47 | 53.09650 | 8.08741 | 324° | 20km/h | 23594m | 4.2m/s | -52.7°C | 1% | 33.1hPa | 2.7V | 18:12:15 | 01:27:09 | 00:00:00 | |
| DL1XH1-15 | 2026-08-31 10:58:47 | 53.09636 | 8.08752 | 341° | 18km/h | 23577m | 5m/s | -52.7°C | 4.2% | 33.1hPa | 2.6V | 08:30:00 | 01:27:06 | 00:00:00 | |
| BIOWL1-15 | 2026-08-31 10:58:44 | 53.09632 | 8.08755 | 332° | 16km/h | 23571m | 6.6m/s | -52.6°C | 1% | 33.2hPa | 2.7V | 18:12:15 | 01:27:05 | 00:00:00 | |
| DC4HF-4 | 2026-08-31 10:58:43 | 53.09629 | 8.08758 | 322° | 13km/h | 23565m | 4.9m/s | -52.7°C | 1.3% | 33.2hPa | 2.6V | 00:00:00 | 00:00:00 | 00:00:00 | |
| DO2SHX-10 | 2026-08-31 10:58:42 | 53.09629 | 8.08758 | 323° | 7km/h | 23566m | 4.9m/s | -52.6°C | 4.3% | 33.1hPa | 2.6V | 00:00:00 | 01:27:04 | 00:00:00 | |
| DF4FW | 2026-08-31 10:58:41 | 53.09629 | 8.08758 | 323° | 13km/h | 23566m | 4.9m/s | -52.7°C | 1.3% | 33.2hPa | 2.6V | 00:00:00 | 00:00:00 | 00:00:00 | |
| DB0DAN | 2026-08-31 10:58:40 | 53.09625 | 8.08763 | 331° | 5km/h | 23556m | 6.5m/s | -52.7°C | 1.3% | 33.23hPa | 2.6V | 00:00:00 | 00:00:00 | 00:00:00 | |
| DL1XH-west | 2026-08-31 10:58:40 | 53.09625 | 8.08763 | 331° | 5km/h | 23556m | 6.5m/s | -52.7°C | 1.1% | 33.2hPa | 2.6V | 18:12:15 | 01:27:02 | 00:00:00 | |
| DO2JMG | 2026-08-31 10:58:39 | 53.09624 | 8.08764 | 344° | 5km/h | 23550m | 4.6m/s | -52.7°C | 1.1% | 33.3hPa | 2.6V | 18:12:15 | 01:27:01 | 00:00:00 | |
| DF8AY | 2026-08-31 10:58:37 | 53.09623 | 8.08767 | 290° | 7km/h | 23539m | 6.9m/s | -52.7°C | 1.1% | 33.3hPa | 2.7V | 18:12:15 | 01:26:59 | 00:00:00 | |
| DL1XH-west | 2026-08-31 10:58:31 | 53.09610 | 8.08803 | 304° | 18km/h | 23502m | 4.4m/s | -52.7°C | 1.1% | 33.5hPa | 2.7V | 18:12:15 | 01:26:52 | 00:00:00 | |
| DO2JMG | 2026-08-31 10:58:29 | 53.09607 | 8.08810 | 309° | 20km/h | 23498m | 4.2m/s | -52.7°C | 1% | 33.5hPa | 2.6V | 18:12:15 | 01:26:51 | 00:00:00 | |
| AA1-15 | 2026-08-31 10:58:27 | 53.09601 | 8.08821 | 318° | 16km/h | 23486m | 5.2m/s | -52.6°C | 1% | 33.6hPa | 2.7V | 18:12:15 | 01:26:49 | 00:00:00 | |
| DB0DAN | 2026-08-31 10:58:25 | 53.09595 | 8.08831 | 303° | 13km/h | 23476m | 5.9m/s | -52.6°C | 1.2% | 33.67hPa | 2.6V | 00:00:00 | 00:00:00 | 00:00:00 | |
| DO2JMG | 2026-08-31 10:58:19 | 53.09589 | 8.08848 | 332° | 7km/h | 23445m | 4.5m/s | -52.6°C | 1% | 33.8hPa | 2.6V | 18:12:15 | 01:26:41 | 00:00:00 | |
| HSKMA3-T | 2026-08-31 10:58:18 | 53.09588 | 8.08850 | 316° | 9km/h | 23439m | 6.9m/s | -52.6°C | 1% | 33.9hPa | 2.6V | 18:12:15 | 01:26:40 | 00:00:00 | |
| AA1-15 | 2026-08-31 10:58:17 | 53.09586 | 8.08853 | 303° | 9km/h | 23433m | 5.2m/s | -52.6°C | 1% | 33.9hPa | 2.6V | 18:12:15 | 01:26:39 | 00:00:00 | |
| DO2SHX-10 | 2026-08-31 10:58:16 | 53.09585 | 8.08856 | 308° | 7km/h | 23428m | 5.2m/s | -52.7°C | 4.2% | 33.9hPa | 2.7V | 00:00:00 | 01:26:38 | 00:00:00 | |
| DM0DOS-11 | 2026-08-31 10:58:15 | 53.09583 | 8.08859 | 330° | 5km/h | 23417m | 4.3m/s | -52.7°C | 4.2% | 34hPa | 2.7V | 08:30:00 | 01:26:36 | 00:00:00 | |
| DF2AP-13 | 2026-08-31 10:58:15 | 53.09584 | 8.08858 | 324° | 9km/h | 23422m | 6.2m/s | -52.6°C | 4.1% | 33.9hPa | 2.7V | 00:00:00 | 01:26:37 | 00:00:00 | |
| DL3AQ-11 | 2026-08-31 10:58:14 | 53.09581 | 8.08861 | 329° | 4km/h | 23412m | 5.9m/s | -52.8°C | 1.3% | 34.0hPa | 2.7V | 00:00:00 | 00:00:00 | 00:00:00 | |
| DB0DAN | 2026-08-31 10:58:10 | 53.09580 | 8.08866 | 281° | 2km/h | 23395m | 4.4m/s | -53°C | 1.3% | 34.1hPa | 2.7V | 00:00:00 | 00:00:00 | 00:00:00 | |
| BIOWL1-15 | 2026-08-31 10:58:09 | 53.09580 | 8.08866 | 34° | 2km/h | 23389m | 6.8m/s | -53.2°C | 1.1% | 34.1hPa | 2.7V | 18:12:15 | 01:26:31 | 00:00:00 | |
| HSKMA3-T | 2026-08-31 10:58:08 | 53.09579 | 8.08865 | 57° | 5km/h | 23383m | 5.4m/s | -53.3°C | 1.1% | 34.2hPa | 2.7V | 18:12:15 | 01:26:30 | 00:00:00 | |
| AA1-15 | 2026-08-31 10:58:07 | 53.09578 | 8.08863 | 51° | 7km/h | 23378m | 4.9m/s | -53.3°C | 1.2% | 34.2hPa | 2.6V | 18:12:15 | 01:26:29 | 00:00:00 | |
| BIOWL1-15 | 2026-08-31 10:57:59 | 53.09572 | 8.08843 | 86° | 7km/h | 23333m | 6.2m/s | -53.3°C | 1.2% | 34.4hPa | 2.7V | 18:12:15 | 01:26:21 | 00:00:00 | |
| DL3AQ-11 | 2026-08-31 10:57:58 | 53.09570 | 8.08837 | 64° | 9km/h | 23322m | 6.3m/s | -53.3°C | 1.3% | 34.5hPa | 2.6V | 00:00:00 | 00:00:00 | 00:00:00 | |
| DL1XH-15 | 2026-08-31 10:57:57 | 53.09563 | 8.08821 | 45° | 20km/h | 23305m | 5.3m/s | -53.2°C | 4.5% | 34.6hPa | 2.6V | 08:30:00 | 01:26:16 | 00:00:00 | |
| AA1-15 | 2026-08-31 10:57:57 | 53.09570 | 8.08837 | 65° | 9km/h | 23321m | 6.3m/s | -53.3°C | 1.2% | 34.5hPa | 2.6V | 18:12:15 | 01:26:19 | 00:00:00 | |
| DF8AY | 2026-08-31 10:57:56 | 53.09569 | 8.08833 | 56° | 15km/h | 23315m | 6.3m/s | -53.3°C | 1.2% | 34.5hPa | 2.7V | 18:12:15 | 01:26:18 | 00:00:00 | |
| SMARD9-15 | 2026-08-31 10:57:56 | 53.09563 | 8.08821 | 45° | 20km/h | 23305m | 5.3m/s | -53.2°C | 1.4% | 34.6hPa | 2.7V | 00:00:00 | 00:00:00 | 00:00:00 | |
| DB0DAN | 2026-08-31 10:57:55 | 53.09566 | 8.08827 | 51° | 18km/h | 23310m | 4.5m/s | -53.2°C | 1.3% | 34.55hPa | 2.7V | 00:00:00 | 00:00:00 | 00:00:00 | |
| DL1XH-west | 2026-08-31 10:57:49 | 53.09549 | 8.08795 | 72° | 13km/h | 23275m | 5.3m/s | -53.1°C | 1.1% | 34.7hPa | 2.7V | 18:12:15 | 01:26:11 | 00:00:00 | |
| BIOWL1-15 | 2026-08-31 10:57:48 | 53.09544 | 8.08782 | 43° | 9km/h | 23252m | 4.7m/s | -53.1°C | 1.1% | 34.9hPa | 2.7V | 18:12:15 | 01:26:07 | 00:00:00 | |
| DO2JMG | 2026-08-31 10:57:48 | 53.09548 | 8.08790 | 72° | 11km/h | 23270m | 6.5m/s | -53.2°C | 1.2% | 34.8hPa | 2.6V | 18:12:15 | 01:26:10 | 00:00:00 | |
| HSKMA3-T | 2026-08-31 10:57:47 | 53.09547 | 8.08787 | 57° | 9km/h | 23263m | 6.7m/s | -53.1°C | 1.1% | 34.8hPa | 2.6V | 18:12:15 | 01:26:09 | 00:00:00 | |
| DF8AY | 2026-08-31 10:57:46 | 53.09546 | 8.08784 | 38° | 7km/h | 23257m | 4.7m/s | -53°C | 1.1% | 34.8hPa | 2.6V | 18:12:15 | 01:26:08 | 00:00:00 | |
| DO2SHX-10 | 2026-08-31 10:57:46 | 53.09546 | 8.08784 | 38° | 9km/h | 23257m | 4.7m/s | -53.0°C | 4.4% | 34.8hPa | 2.7V | 00:00:00 | 01:26:08 | 00:00:00 | |
| DC6BW-12 | 2026-08-31 10:57:45 | 53.09544 | 8.08782 | 44° | 9km/h | 23253m | 4.7m/s | -53.1°C | 1.4% | 34.9hPa | 2.7V | 00:00:00 | 00:00:00 | 00:00:00 | |
| GOEST3-10 | 2026-08-31 10:57:44 | 53.09543 | 8.08779 | 56° | 13km/h | 23247m | 6.9m/s | -52.9°C | 4.4% | 34.8hPa | 2.7V | 00:00:00 | 00:00:00 | 00:00:00 | |
| DO2SHX-10 | 2026-08-31 10:57:43 | 53.09541 | 8.08775 | 54° | 15km/h | 23241m | 5.0m/s | -52.9°C | 4.4% | 34.9hPa | 2.7V | 00:00:00 | 01:26:05 | 00:00:00 | |
| DB0DAN | 2026-08-31 10:57:40 | 53.09533 | 8.08763 | 27° | 13km/h | 23223m | 5.8m/s | -52.9°C | 1.3% | 35.05hPa | 2.6V | 00:00:00 | 00:00:00 | 00:00:00 | |
| DL1XH-west | 2026-08-31 10:57:39 | 53.09531 | 8.08761 | 29° | 11km/h | 23217m | 5.2m/s | -52.8°C | 1% | 35.1hPa | 2.7V | 18:12:15 | 01:26:01 | 00:00:00 | |
| DF4FW | 2026-08-31 10:57:38 | 53.09530 | 8.08760 | 30° | 11km/h | 23217m | 5.2m/s | -52.8°C | 1.3% | 35.1hPa | 2.7V | 00:00:00 | 00:00:00 | 00:00:00 | |
| DL1XH1-15 | 2026-08-31 10:57:37 | 53.09522 | 8.08747 | 21° | 7km/h | 23186m | 5.2m/s | -52.7°C | 4.4% | 35.2hPa | 2.7V | 08:30:00 | 01:25:56 | 00:00:00 | |
| DO2JMG | 2026-08-31 10:57:37 | 53.09526 | 8.08755 | 53° | 11km/h | 23204m | 5.5m/s | -52.8°C | 1.1% | 35.2hPa | 2.6V | 18:12:15 | 01:25:59 | 00:00:00 | |
| HSKMA3-T | 2026-08-31 10:57:36 | 53.09525 | 8.08751 | 55° | 9km/h | 23199m | 5.9m/s | -52.8°C | 1.1% | 35.2hPa | 2.6V | 18:12:15 | 01:25:58 | 00:00:00 | |
| DF8AY | 2026-08-31 10:57:35 | 53.09523 | 8.08748 | 37° | 7km/h | 23192m | 7m/s | -52.7°C | 1.1% | 35.2hPa | 2.7V | 18:12:15 | 01:25:57 | 00:00:00 | |
| DL1XH-west | 2026-08-31 10:57:28 | 53.09507 | 8.08737 | 3° | 11km/h | 23153m | 6.9m/s | -52.7°C | 1.1% | 35.4hPa | 2.7V | 18:12:15 | 01:25:50 | 00:00:00 | |
| DO2SHX-10 | 2026-08-31 10:57:28 | 53.09505 | 8.08737 | 344° | 9km/h | 23147m | 4.7m/s | -52.6°C | 4.4% | 35.4hPa | 2.7V | 00:00:00 | 01:25:49 | 00:00:00 | |
| DL1XH1-15 | 2026-08-31 10:57:26 | 53.09498 | 8.08740 | 352° | 9km/h | 23129m | 5.6m/s | -52.7°C | 4.4% | 35.5hPa | 2.7V | 08:30:00 | 01:25:46 | 00:00:00 | |
| DO2JMG | 2026-08-31 10:57:26 | 53.09502 | 8.08738 | 343° | 9km/h | 23142m | 5.5m/s | -52.7°C | 1.1% | 35.5hPa | 2.6V | 18:12:15 | 01:25:48 | 00:00:00 | |
| DB0DAN | 2026-08-31 10:57:25 | 53.09500 | 8.08739 | 350° | 9km/h | 23136m | 6.7m/s | -52.7°C | 1.3% | 35.54hPa | 2.6V | 00:00:00 | 00:00:00 | 00:00:00 | |
| BIOWL1-15 | 2026-08-31 10:57:25 | 53.09500 | 8.08739 | 350° | 9km/h | 23136m | 6.7m/s | -52.7°C | 1.1% | 35.5hPa | 2.6V | 18:12:15 | 01:25:47 | 00:00:00 | |
| DL1XH-west | 2026-08-31 10:57:17 | 53.09487 | 8.08751 | 345° | 4km/h | 23087m | 5.5m/s | -52.5°C | 1.1% | 35.8hPa | 2.7V | 18:12:15 | 01:25:39 | 00:00:00 | |
| DL3OBA | 2026-08-31 10:57:17 | 53.09487 | 8.08751 | 346° | 4km/h | 23087m | 5.5m/s | -52.5°C | 1.3% | 35.8hPa | 2.6V | 00:00:00 | 00:00:00 | 00:00:00 | |
| DL1XH1-15 | 2026-08-31 10:57:16 | 53.09484 | 8.08758 | 311° | 9km/h | 23069m | 6m/s | -52.3°C | 4.3% | 35.9hPa | 2.6V | 08:30:00 | 01:25:36 | 00:00:00 | |
| DO2JMG | 2026-08-31 10:57:16 | 53.09487 | 8.08752 | 303° | 5km/h | 23081m | 6.8m/s | -52.4°C | 1.1% | 35.8hPa | 2.7V | 18:12:15 | 01:25:38 | 00:00:00 | |
| HSKMA3-T | 2026-08-31 10:57:15 | 53.09486 | 8.08755 | 300° | 9km/h | 23075m | 5.1m/s | -52.4°C | 1.1% | 35.9hPa | 2.6V | 18:12:15 | 01:25:37 | 00:00:00 | |
| DO2SHX-10 | 2026-08-31 10:57:14 | 53.09484 | 8.08758 | 312° | 13km/h | 23069m | 6.0m/s | -52.3°C | 4.3% | 35.8hPa | 2.6V | 00:00:00 | 01:25:36 | 00:00:00 | |
| DF2AP-13 | 2026-08-31 10:57:13 | 53.09482 | 8.08761 | 327° | 15km/h | 23063m | 6.5m/s | -52.2°C | 4.2% | 35.9hPa | 2.6V | 00:00:00 | 01:25:35 | 00:00:00 | |
| DB0DAN | 2026-08-31 10:57:10 | 53.09472 | 8.08775 | 311° | 20km/h | 23044m | 7.2m/s | -52.3°C | 1.3% | 36.04hPa | 2.6V | 00:00:00 | 00:00:00 | 00:00:00 | |
| DL4XJ-10 | 2026-08-31 10:57:09 | 53.09469 | 8.08782 | 304° | 13km/h | 23038m | 4.3m/s | -51.6°C | 0% | 0hPa | 2.6V | 00:00:00 | 00:00:00 | 00:00:00 | |
| DL1NUX | 2026-08-31 10:57:08 | 53.09461 | 8.08801 | 306° | 13km/h | 23022m | 5.9m/s | 0°C | 0% | 0hPa | 2.6V | 08:30:00 | 01:25:28 | 00:00:00 | |
| DL1XH-west | 2026-08-31 10:57:07 | 53.09463 | 8.08795 | 305° | 16km/h | 23028m | 6.1m/s | -52.2°C | 1% | 36.1hPa | 2.7V | 18:12:15 | 01:25:29 | 00:00:00 | |
| AA1-15 | 2026-08-31 10:57:06 | 53.09461 | 8.08801 | 306° | 13km/h | 23022m | 5.9m/s | -52.2°C | 1% | 36.1hPa | 2.6V | 18:12:15 | 01:25:28 | 00:00:00 | |
| DO2JMG | 2026-08-31 10:57:05 | 53.09460 | 8.08805 | 288° | 11km/h | 23015m | 6.6m/s | -52.2°C | 1% | 36.2hPa | 2.6V | 18:12:15 | 01:25:27 | 00:00:00 | |
| DL1XH1-15 | 2026-08-31 10:57:04 | 53.09459 | 8.08809 | 271° | 9km/h | 23008m | 7.1m/s | -52.2°C | 4.2% | 36.2hPa | 2.6V | 08:30:00 | 01:25:26 | 00:00:00 | |
| HSKMA3-T | 2026-08-31 10:57:04 | 53.09459 | 8.08809 | 272° | 9km/h | 23008m | 7.1m/s | -52.2°C | 1% | 36.3hPa | 2.6V | 18:12:15 | 01:25:26 | 00:00:00 | |
| DL1XH-west | 2026-08-31 10:56:56 | 53.09454 | 8.08836 | 309° | 15km/h | 22958m | 6.3m/s | -52.3°C | 1% | 36.5hPa | 2.7V | 18:12:15 | 01:25:18 | 00:00:00 | |
| DO2JMG | 2026-08-31 10:56:55 | 53.09452 | 8.08841 | 302° | 16km/h | 22952m | 6.9m/s | -52.2°C | 1.1% | 36.5hPa | 2.7V | 18:12:15 | 01:25:17 | 00:00:00 | |
| DB0DAN | 2026-08-31 10:56:55 | 53.09452 | 8.08841 | 302° | 16km/h | 22952m | 6.9m/s | -52.2°C | 1.3% | 36.55hPa | 2.7V | 00:00:00 | 00:00:00 | 00:00:00 | |
| DL1XH1-15 | 2026-08-31 10:56:54 | 53.09450 | 8.08847 | 292° | 16km/h | 22945m | 5.9m/s | -52.1°C | 4.3% | 36.6hPa | 2.6V | 08:30:00 | 01:25:16 | 00:00:00 | |
| HSKMA3-T | 2026-08-31 10:56:54 | 53.09450 | 8.08847 | 292° | 16km/h | 22945m | 5.9m/s | -52.2°C | 1.1% | 36.6hPa | 2.6V | 18:12:15 | 01:25:16 | 00:00:00 | |
| DF8AY | 2026-08-31 10:56:53 | 53.09448 | 8.08854 | 290° | 16km/h | 22940m | 3.9m/s | -52.1°C | 1.1% | 36.6hPa | 2.6V | 18:12:15 | 01:25:15 | 00:00:00 | |
| DJ2DS-15 | 2026-08-31 10:56:52 | 53.09444 | 8.08865 | 306° | 15km/h | 22928m | 6.3m/s | -52.1°C | 1.3% | 36.7hPa | 2.7V | 00:00:00 | 00:00:00 | 00:00:00 | |
| EDDB2-12 | 2026-08-31 10:56:49 | 53.09438 | 8.08883 | 288° | 16km/h | 22909m | 6.1m/s | -52.1°C | 1.3% | 36.8hPa | 2.7V | 00:00:00 | 00:00:00 | 00:00:00 | |
| DL1XH-15 | 2026-08-31 10:56:48 | 53.09431 | 8.08909 | 303° | 16km/h | 22884m | 5.3m/s | -52°C | 4.2% | 36.9hPa | 2.7V | 08:30:00 | 01:25:06 | 00:00:00 | |
| DL1XH-west | 2026-08-31 10:56:46 | 53.09435 | 8.08897 | 293° | 16km/h | 22897m | 7.4m/s | -52°C | 1% | 36.9hPa | 2.6V | 18:12:15 | 01:25:08 | 00:00:00 | |
| AA1-15 | 2026-08-31 10:56:45 | 53.09433 | 8.08903 | 302° | 16km/h | 22890m | 6.3m/s | -52°C | 1% | 36.9hPa | 2.7V | 18:12:15 | 01:25:07 | 00:00:00 | |
| DO2JMG | 2026-08-31 10:56:44 | 53.09431 | 8.08909 | 304° | 16km/h | 22884m | 5.3m/s | -52°C | 1% | 37hPa | 2.7V | 18:12:15 | 01:25:06 | 00:00:00 | |
| BIOWL1-15 | 2026-08-31 10:56:44 | 53.09428 | 8.08920 | 283° | 15km/h | 22870m | 6.1m/s | -51.9°C | 1% | 37hPa | 2.6V | 18:12:15 | 01:25:04 | 00:00:00 | |
| HSKMA3-T | 2026-08-31 10:56:44 | 53.09428 | 8.08926 | 282° | 13km/h | 22865m | 5.7m/s | -51.9°C | 1% | 37.1hPa | 2.7V | 18:12:15 | 01:25:03 | 00:00:00 | |
| DF8AY | 2026-08-31 10:56:43 | 53.09429 | 8.08914 | 292° | 15km/h | 22877m | 7.5m/s | -52°C | 1% | 37hPa | 2.6V | 18:12:15 | 01:25:05 | 00:00:00 | |
| DD1CC3-15 | 2026-08-31 10:56:43 | 53.09430 | 8.08914 | 293° | 15km/h | 22878m | 7.5m/s | -52.0°C | 1.3% | 37.0hPa | 2.7V | 00:00:00 | 00:00:00 | 00:00:00 | |
| DB0DAN | 2026-08-31 10:56:40 | 53.09427 | 8.08931 | 294° | 11km/h | 22858m | 7.1m/s | -51.9°C | 1.3% | 37.1hPa | 2.7V | 00:00:00 | 00:00:00 | 00:00:00 | |
| AA1-15 | 2026-08-31 10:56:35 | 53.09425 | 8.08948 | 256° | 5km/h | 22827m | 6.7m/s | -51.8°C | 1% | 37.3hPa | 2.7V | 18:12:15 | 01:24:57 | 00:00:00 | |
| DL1XH-15 | 2026-08-31 10:56:35 | 53.09425 | 8.08950 | 300° | 4km/h | 22820m | 6.9m/s | -51.8°C | 4.3% | 37.3hPa | 2.7V | 08:30:00 | 01:24:56 | 00:00:00 | |
| DO2JMG | 2026-08-31 10:56:33 | 53.09424 | 8.08951 | 314° | 4km/h | 22815m | 5m/s | -51.7°C | 1% | 37.3hPa | 2.6V | 18:12:15 | 01:24:55 | 00:00:00 | |
| DF8AY | 2026-08-31 10:56:32 | 53.09424 | 8.08953 | 289° | 4km/h | 22809m | 6.8m/s | -51.7°C | 1% | 37.4hPa | 2.6V | 18:12:15 | 01:24:54 | 00:00:00 | |
| BIOWL1-15 | 2026-08-31 10:56:31 | 53.09424 | 8.08961 | 278° | 9km/h | 22789m | 7.3m/s | -51.6°C | 1.1% | 37.5hPa | 2.7V | 18:12:15 | 01:24:51 | 00:00:00 | |
| HSKMA3-T | 2026-08-31 10:56:30 | 53.09424 | 8.08958 | 263° | 7km/h | 22796m | 5.7m/s | -51.6°C | 1% | 37.5hPa | 2.7V | 18:12:15 | 01:24:52 | 00:00:00 | |
| SONCRA | 2026-08-31 10:56:30 | 53.09424 | 8.08961 | 277° | 9km/h | 22789m | 7.3m/s | -51.6°C | 1.3% | 37.5hPa | 2.6V | 00:00:00 | 00:00:00 | 00:00:00 | |
| DL4XJ-10 | 2026-08-31 10:56:29 | 53.09424 | 8.08961 | 278° | 7km/h | 22789m | 7.2m/s | -50.9°C | 0% | 0hPa | 2.6V | 00:00:00 | 00:00:00 | 00:00:00 | |
| DF8AY-15 | 2026-08-31 10:56:28 | 53.09423 | 8.08965 | 297° | 5km/h | 22783m | 6.7m/s | -51.5°C | 4.2% | 37.5hPa | 2.6V | 00:00:00 | 01:24:50 | 00:00:00 | |
| HTAHTA | 2026-08-31 10:56:27 | 53.09422 | 8.08969 | 306° | 9km/h | 22777m | 3.9m/s | -51.5°C | 1.3% | 37.6hPa | 2.6V | 00:00:00 | 00:00:00 | 00:00:00 | |
| DB0DAN | 2026-08-31 10:56:25 | 53.09419 | 8.08976 | 296° | 9km/h | 22765m | 6.8m/s | -51.4°C | 1.3% | 37.63hPa | 2.6V | 00:00:00 | 00:00:00 | 00:00:00 | |
| DL1XH-west | 2026-08-31 10:56:25 | 53.09419 | 8.08976 | 296° | 9km/h | 22765m | 6.8m/s | -51.4°C | 1% | 37.6hPa | 2.6V | 18:12:15 | 01:24:47 | 00:00:00 | |
| AA1-15 | 2026-08-31 10:56:24 | 53.09418 | 8.08979 | 304° | 7km/h | 22759m | 5.2m/s | -51.4°C | 1% | 37.7hPa | 2.7V | 18:12:15 | 01:24:46 | 00:00:00 | |
| DL1XH1-15 | 2026-08-31 10:56:24 | 53.09418 | 8.08980 | 304° | 7km/h | 22759m | 5.2m/s | -51.4°C | 4.1% | 37.7hPa | 2.7V | 08:30:00 | 01:24:46 | 00:00:00 | |
| DO2JMG | 2026-08-31 10:56:23 | 53.09416 | 8.08982 | 331° | 9km/h | 22753m | 7.6m/s | -51.4°C | 0.9% | 37.7hPa | 2.7V | 18:12:15 | 01:24:45 | 00:00:00 | |
| DF8AY | 2026-08-31 10:56:22 | 53.09414 | 8.08983 | 354° | 7km/h | 22746m | 5.9m/s | -51.4°C | 1% | 37.8hPa | 2.7V | 18:12:15 | 01:24:44 | 00:00:00 | |
| BIOWL1-15 | 2026-08-31 10:56:21 | 53.09413 | 8.08983 | 12° | 7km/h | 22739m | 6.9m/s | -51.3°C | 1% | 37.8hPa | 2.6V | 18:12:15 | 01:24:43 | 00:00:00 | |
| HSKMA3-T | 2026-08-31 10:56:20 | 53.09411 | 8.08982 | 18° | 4km/h | 22732m | 7.4m/s | -51.2°C | 0.9% | 37.8hPa | 2.6V | 18:12:15 | 01:24:42 | 00:00:00 | |
| DL1XH-west | 2026-08-31 10:56:15 | 53.09408 | 8.08976 | 175° | 4km/h | 22696m | 6.3m/s | -51.1°C | 0.9% | 38.1hPa | 2.7V | 18:12:15 | 01:24:36 | 00:00:00 | |
| DO2JMG | 2026-08-31 10:56:14 | 53.09409 | 8.08976 | 204° | 4km/h | 22691m | 4.7m/s | -51°C | 1% | 38.1hPa | 2.7V | 18:12:15 | 01:24:35 | 00:00:00 | |
| DF8AY | 2026-08-31 10:56:14 | 53.09410 | 8.08977 | 247° | 4km/h | 22685m | 6.4m/s | -51°C | 1% | 38.1hPa | 2.6V | 18:12:15 | 01:24:34 | 00:00:00 | |
| WEDDY | 2026-08-31 10:56:12 | 53.09410 | 8.08977 | 248° | 4km/h | 22686m | 6.4m/s | -51.0°C | 1.3% | 38.1hPa | 2.6V | 00:00:00 | 00:00:00 | 00:00:00 | |
| DB0DAN | 2026-08-31 10:56:10 | 53.09409 | 8.08980 | 314° | 4km/h | 22673m | 4.8m/s | -50.9°C | 1.2% | 38.2hPa | 2.6V | 00:00:00 | 00:00:00 | 00:00:00 | |
| BIOWL1-15 | 2026-08-31 10:56:10 | 53.09409 | 8.08980 | 314° | 4km/h | 22673m | 4.8m/s | -50.9°C | 0.9% | 38.2hPa | 2.6V | 18:12:15 | 01:24:32 | 00:00:00 | |
| HSKMA3-T | 2026-08-31 10:56:09 | 53.09408 | 8.08981 | 312° | 4km/h | 22668m | 5m/s | -51°C | 0.9% | 38.2hPa | 2.7V | 18:12:15 | 01:24:31 | 00:00:00 | |
| DL4XJ-10 | 2026-08-31 10:56:09 | 53.09408 | 8.08981 | 312° | 5km/h | 22668m | 4.9m/s | -50.3°C | 0% | 0hPa | 2.7V | 00:00:00 | 00:00:00 | 00:00:00 | |
| DF8AY-15 | 2026-08-31 10:56:08 | 53.09408 | 8.08982 | 282° | 5km/h | 22663m | 6.4m/s | -50.9°C | 4.0% | 38.2hPa | 2.7V | 00:00:00 | 01:24:30 | 00:00:00 | |
| DD1CC8 | 2026-08-31 10:56:06 | 53.09410 | 8.08984 | 216° | 2km/h | 22645m | 6.7m/s | -50.9°C | 1.2% | 38.3hPa | 2.6V | 00:00:00 | 00:00:00 | 00:00:00 | |
| DM0DOS-11 | 2026-08-31 10:56:05 | 53.09412 | 8.08985 | 194° | 7km/h | 22613m | 5.7m/s | -50.6°C | 4% | 38.5hPa | 2.6V | 08:30:00 | 01:24:22 | 00:00:00 | |
| AA1-15 | 2026-08-31 10:56:04 | 53.09410 | 8.08985 | 317° | 2km/h | 22638m | 6.1m/s | -50.8°C | 0.9% | 38.4hPa | 2.6V | 18:12:15 | 01:24:26 | 00:00:00 | |
| DL1XH-west | 2026-08-31 10:56:03 | 53.09410 | 8.08985 | 320° | 0km/h | 22632m | 5.6m/s | -50.8°C | 0.9% | 38.4hPa | 2.7V | 18:12:15 | 01:24:25 | 00:00:00 | |
| DO2JMG | 2026-08-31 10:56:02 | 53.09410 | 8.08985 | 178° | 2km/h | 22626m | 6.7m/s | -50.7°C | 0.9% | 38.5hPa | 2.7V | 18:12:15 | 01:24:24 | 00:00:00 | |
| BIOWL1-15 | 2026-08-31 10:56:02 | 53.09412 | 8.08985 | 195° | 7km/h | 22613m | 5.7m/s | -50.6°C | 0.9% | 38.5hPa | 2.6V | 18:12:15 | 01:24:22 | 00:00:00 | |
| DF8AY | 2026-08-31 10:56:01 | 53.09411 | 8.08985 | 181° | 5km/h | 22620m | 6.5m/s | -50.7°C | 0.9% | 38.5hPa | 2.7V | 18:12:15 | 01:24:23 | 00:00:00 | |
| HSKMA3-T | 2026-08-31 10:55:58 | 53.09415 | 8.08989 | 245° | 7km/h | 22600m | 6.4m/s | -50.6°C | 0.9% | 38.6hPa | 2.6V | 18:12:15 | 01:24:20 | 00:00:00 | |
| DL3AQ-11 | 2026-08-31 10:55:57 | 53.09416 | 8.08992 | 241° | 7km/h | 22594m | 5.6m/s | -50.6°C | 1.2% | 38.6hPa | 2.7V | 00:00:00 | 00:00:00 | 00:00:00 | |
| HTAHTA | 2026-08-31 10:55:56 | 53.09419 | 8.08999 | 224° | 9km/h | 22580m | 5.9m/s | -50.6°C | 1.2% | 38.7hPa | 2.7V | 00:00:00 | 00:00:00 | 00:00:00 | |
| DB0DAN | 2026-08-31 10:55:55 | 53.09419 | 8.08999 | 225° | 9km/h | 22580m | 5.9m/s | -50.6°C | 1.2% | 38.73hPa | 2.7V | 00:00:00 | 00:00:00 | 00:00:00 | |
| DL1XH-15 | 2026-08-31 10:55:54 | 53.09422 | 8.09003 | 237° | 5km/h | 22569m | 7.1m/s | -50.5°C | 4% | 38.8hPa | 2.6V | 08:30:00 | 01:24:15 | 00:00:00 | |
| DL1XH1-15 | 2026-08-31 10:55:54 | 53.09420 | 8.09005 | 49° | 4km/h | 22549m | 6.7m/s | -50.4°C | 3.9% | 38.9hPa | 2.7V | 08:30:00 | 01:24:12 | 00:00:00 | |
| AA1-15 | 2026-08-31 10:55:53 | 53.09422 | 8.09003 | 238° | 5km/h | 22569m | 7.1m/s | -50.5°C | 0.9% | 38.8hPa | 2.6V | 18:12:15 | 01:24:15 | 00:00:00 | |
| DO2JMG | 2026-08-31 10:55:52 | 53.09422 | 8.09005 | 299° | 4km/h | 22562m | 6.9m/s | -50.5°C | 0.9% | 38.8hPa | 2.6V | 18:12:15 | 01:24:14 | 00:00:00 | |
| DF8AY | 2026-08-31 10:55:50 | 53.09420 | 8.09005 | 49° | 4km/h | 22549m | 6.7m/s | -50.4°C | 0.8% | 38.9hPa | 2.7V | 18:12:15 | 01:24:12 | 00:00:00 | |
| BIOWL1-15 | 2026-08-31 10:55:49 | 53.09420 | 8.09003 | 76° | 7km/h | 22542m | 7.2m/s | -50.4°C | 0.8% | 39hPa | 2.6V | 18:12:15 | 01:24:11 | 00:00:00 | |
| HSKMA3-T | 2026-08-31 10:55:47 | 53.09419 | 8.08996 | 82° | 9km/h | 22530m | 7.6m/s | -50.3°C | 0.8% | 39hPa | 2.7V | 18:12:15 | 01:24:09 | 00:00:00 | |
| EDDB2-12 | 2026-08-31 10:55:46 | 53.09418 | 8.08993 | 61° | 7km/h | 22523m | 6.0m/s | -50.3°C | 1.2% | 39.1hPa | 2.6V | 00:00:00 | 00:00:00 | 00:00:00 | |
| DL3AQ-11 | 2026-08-31 10:55:45 | 53.09418 | 8.08989 | 102° | 4km/h | 22512m | 7.7m/s | -50.4°C | 1.2% | 39.1hPa | 2.6V | 00:00:00 | 00:00:00 | 00:00:00 | |
| DL1XH-15 | 2026-08-31 10:55:44 | 53.09418 | 8.08988 | 157° | 2km/h | 22505m | 5.4m/s | -50.3°C | 3.9% | 39.2hPa | 2.6V | 08:30:00 | 01:24:05 | 00:00:00 | |
| DL1XH1-15 | 2026-08-31 10:55:44 | 53.09417 | 8.08992 | 312° | 9km/h | 22487m | 5.9m/s | -50.3°C | 3.9% | 39.3hPa | 2.7V | 08:30:00 | 01:24:02 | 00:00:00 | |
| DL1XH-west | 2026-08-31 10:55:42 | 53.09418 | 8.08988 | 255° | 2km/h | 22499m | 5.2m/s | -50.3°C | 0.8% | 39.2hPa | 2.7V | 18:12:15 | 01:24:04 | 00:00:00 | |
| DO2JMG | 2026-08-31 10:55:41 | 53.09418 | 8.08989 | 299° | 5km/h | 22493m | 7.2m/s | -50.4°C | 0.8% | 39.3hPa | 2.7V | 18:12:15 | 01:24:03 | 00:00:00 | |
| DF8AY | 2026-08-31 10:55:40 | 53.09417 | 8.08992 | 313° | 9km/h | 22487m | 5.9m/s | -50.3°C | 0.8% | 39.3hPa | 2.7V | 18:12:15 | 01:24:02 | 00:00:00 | |
| DB0DAN | 2026-08-31 10:55:40 | 53.09417 | 8.08992 | 313° | 9km/h | 22487m | 5.9m/s | -50.3°C | 1.2% | 39.31hPa | 2.7V | 00:00:00 | 00:00:00 | 00:00:00 | |
| DC6BW-12 | 2026-08-31 10:55:39 | 53.09417 | 8.08992 | 314° | 9km/h | 22487m | 5.9m/s | -50.3°C | 1.2% | 39.3hPa | 2.6V | 00:00:00 | 00:00:00 | 00:00:00 | |
| DL1XH-15 | 2026-08-31 10:55:38 | 53.09402 | 8.08988 | 54° | 16km/h | 22444m | 7.6m/s | -50.3°C | 3.8% | 39.5hPa | 2.6V | 08:30:00 | 01:23:55 | 00:00:00 | |
| HSKMA3-T | 2026-08-31 10:55:36 | 53.09411 | 8.08998 | 17° | 9km/h | 22463m | 5.9m/s | -50.3°C | 0.8% | 39.5hPa | 2.7V | 18:12:15 | 01:23:58 | 00:00:00 | |
| DL4BBY-15 | 2026-08-31 10:55:36 | 53.09410 | 8.08998 | 17° | 11km/h | 22463m | 5.8m/s | -49.6°C | 0% | 0hPa | 2.7V | 00:00:00 | 00:00:00 | 00:00:00 | |
| DD1CC8 | 2026-08-31 10:55:34 | 53.09405 | 8.08993 | 41° | 15km/h | 22451m | 6.0m/s | -50.2°C | 1.1% | 39.5hPa | 2.7V | 00:00:00 | 00:00:00 | 00:00:00 | |
| DL3OBA | 2026-08-31 10:55:33 | 53.09405 | 8.08992 | 43° | 16km/h | 22451m | 6.0m/s | -50.2°C | 1.1% | 39.5hPa | 2.7V | 00:00:00 | 00:00:00 | 00:00:00 | |
| DL1XH1-15 | 2026-08-31 10:55:32 | 53.09396 | 8.08966 | 63° | 20km/h | 22426m | 6.8m/s | -50.3°C | 3.8% | 39.6hPa | 2.7V | 08:30:00 | 01:23:52 | 00:00:00 | |
| DL1XH-west | 2026-08-31 10:55:31 | 53.09398 | 8.08974 | 68° | 20km/h | 22432m | 4.9m/s | -50.3°C | 0.7% | 39.6hPa | 2.6V | 18:12:15 | 01:23:53 | 00:00:00 | |
| DO2JMG | 2026-08-31 10:55:30 | 53.09396 | 8.08966 | 63° | 20km/h | 22426m | 6.8m/s | -50.3°C | 0.8% | 39.6hPa | 2.7V | 18:12:15 | 01:23:52 | 00:00:00 | |
| DF8AY | 2026-08-31 10:55:29 | 53.09394 | 8.08959 | 57° | 18km/h | 22420m | 4.7m/s | -50.4°C | 0.8% | 39.7hPa | 2.7V | 18:12:15 | 01:23:51 | 00:00:00 | |
| DF8AY-15 | 2026-08-31 10:55:28 | 53.09391 | 8.08953 | 58° | 9km/h | 22416m | 5.1m/s | -50.4°C | 3.8% | 39.7hPa | 2.7V | 00:00:00 | 01:23:50 | 00:00:00 | |
| DL1XH-15 | 2026-08-31 10:55:27 | 53.09386 | 8.08950 | 315° | 9km/h | 22385m | 5.3m/s | -50.6°C | 3.9% | 39.9hPa | 2.7V | 08:30:00 | 01:23:45 | 00:00:00 | |
| HSKMA3-T | 2026-08-31 10:55:26 | 53.09389 | 8.08947 | 45° | 4km/h | 22403m | 5.3m/s | -50.5°C | 0.8% | 39.8hPa | 2.6V | 18:12:15 | 01:23:48 | 00:00:00 | |
| BIOWL1-15 | 2026-08-31 10:55:25 | 53.09388 | 8.08947 | 323° | 4km/h | 22398m | 5.6m/s | -50.6°C | 0.8% | 39.9hPa | 2.6V | 18:12:15 | 01:23:47 | 00:00:00 | |
| DB0DAN | 2026-08-31 10:55:25 | 53.09388 | 8.08947 | 323° | 4km/h | 22398m | 5.6m/s | -50.6°C | 1.2% | 39.85hPa | 2.6V | 00:00:00 | 00:00:00 | 00:00:00 | |
| DL4XJ-10 | 2026-08-31 10:55:25 | 53.09388 | 8.08947 | 324° | 11km/h | 22398m | 5.6m/s | -49.9°C | 0% | 0hPa | 2.7V | 00:00:00 | 00:00:00 | 00:00:00 | |
| DL8DAS-14 | 2026-08-31 10:55:23 | 53.09384 | 8.08953 | 300° | 7km/h | 22379m | 6.3m/s | -50.6°C | 1.2% | 40.0hPa | 2.7V | 00:00:00 | 00:00:00 | 00:00:00 | |
| DL1XH1-15 | 2026-08-31 10:55:22 | 53.09383 | 8.08959 | 299° | 5km/h | 22367m | 5.2m/s | -50.6°C | 3.9% | 40hPa | 2.7V | 08:30:00 | 01:23:42 | 00:00:00 | |
| AA1-15 | 2026-08-31 10:55:21 | 53.09383 | 8.08957 | 291° | 9km/h | 22373m | 5.8m/s | -50.6°C | 0.8% | 40hPa | 2.6V | 18:12:15 | 01:23:43 | 00:00:00 | |
| DL1XH-west | 2026-08-31 10:55:20 | 53.09383 | 8.08959 | 300° | 7km/h | 22367m | 5.2m/s | -50.6°C | 0.8% | 40hPa | 2.7V | 18:12:15 | 01:23:42 | 00:00:00 | |
| DO2JMG | 2026-08-31 10:55:19 | 53.09382 | 8.08961 | 331° | 5km/h | 22362m | 6.3m/s | -50.6°C | 0.8% | 40.1hPa | 2.7V | 18:12:15 | 01:23:41 | 00:00:00 | |
| HSKMA3-T | 2026-08-31 10:55:18 | 53.09376 | 8.08958 | 42° | 11km/h | 22345m | 5.1m/s | -50.6°C | 0.8% | 40.2hPa | 2.7V | 18:12:15 | 01:23:38 | 00:00:00 | |
| DL1XH-15 | 2026-08-31 10:55:17 | 53.09372 | 8.08947 | 67° | 11km/h | 22328m | 3.8m/s | -50.5°C | 3.9% | 40.3hPa | 2.6V | 08:30:00 | 01:23:35 | 00:00:00 | |
| DL1XH1-15 | 2026-08-31 10:55:17 | 53.09361 | 8.08937 | 7° | 15km/h | 22304m | 6.7m/s | -50.6°C | 3.8% | 40.5hPa | 2.7V | 08:30:00 | 01:23:31 | 00:00:00 | |
| BIOWL1-15 | 2026-08-31 10:55:17 | 53.09374 | 8.08955 | 62° | 9km/h | 22338m | 7.2m/s | -50.5°C | 0.9% | 40.2hPa | 2.7V | 18:12:15 | 01:23:37 | 00:00:00 | |
| AA1-15 | 2026-08-31 10:55:11 | 53.09368 | 8.08941 | 28° | 15km/h | 22316m | 6.1m/s | -50.5°C | 0.8% | 40.4hPa | 2.7V | 18:12:15 | 01:23:33 | 00:00:00 | |
| DB0DAN | 2026-08-31 10:55:10 | 53.09364 | 8.08938 | 15° | 16km/h | 22310m | 5.8m/s | -50.5°C | 1.2% | 40.42hPa | 2.7V | 00:00:00 | 00:00:00 | 00:00:00 | |
| DL1XH-west | 2026-08-31 10:55:09 | 53.09360 | 8.08937 | 8° | 15km/h | 22304m | 6.7m/s | -50.6°C | 0.8% | 40.5hPa | 2.7V | 18:12:15 | 01:23:31 | 00:00:00 | |
| DO2JMG | 2026-08-31 10:55:08 | 53.09357 | 8.08937 | 355° | 15km/h | 22297m | 6.5m/s | -50.6°C | 0.8% | 40.5hPa | 2.6V | 18:12:15 | 01:23:30 | 00:00:00 | |
| HSKMA3-T | 2026-08-31 10:55:05 | 53.09345 | 8.08942 | 348° | 18km/h | 22279m | 5.1m/s | -50.8°C | 0.8% | 40.6hPa | 2.7V | 18:12:15 | 01:23:27 | 00:00:00 | |
| BIOWL1-15 | 2026-08-31 10:55:04 | 53.09337 | 8.08942 | 20° | 13km/h | 22267m | 5.4m/s | -50.9°C | 0.9% | 40.6hPa | 2.7V | 18:12:15 | 01:23:25 | 00:00:00 | |
| DL1XH1-15 | 2026-08-31 10:55:04 | 53.09328 | 8.08928 | 47° | 22km/h | 22251m | 5.8m/s | -51.1°C | 4% | 40.8hPa | 2.6V | 08:30:00 | 01:23:22 | 00:00:00 | |
| AA1-15 | 2026-08-31 10:55:00 | 53.09328 | 8.08928 | 47° | 22km/h | 22251m | 5.8m/s | -51.1°C | 0.9% | 40.8hPa | 2.6V | 18:12:15 | 01:23:22 | 00:00:00 | |
| DL1XH-west | 2026-08-31 10:54:59 | 53.09324 | 8.08920 | 50° | 26km/h | 22246m | 4.8m/s | -51.1°C | 0.9% | 40.8hPa | 2.7V | 18:12:15 | 01:23:21 | 00:00:00 | |
| DO2JMG | 2026-08-31 10:54:58 | 53.09320 | 8.08912 | 56° | 26km/h | 22240m | 6.3m/s | -51.1°C | 0.8% | 40.9hPa | 2.7V | 18:12:15 | 01:23:20 | 00:00:00 | |
| SONCRA | 2026-08-31 10:54:56 | 53.09314 | 8.08895 | 57° | 22km/h | 22229m | 4.0m/s | -51.1°C | 1.2% | 40.9hPa | 2.7V | 00:00:00 | 00:00:00 | 00:00:00 | |
| DB0DAN | 2026-08-31 10:54:55 | 53.09310 | 8.08888 | 48° | 22km/h | 22224m | 5.5m/s | -51.1°C | 1.2% | 40.95hPa | 2.7V | 00:00:00 | 00:00:00 | 00:00:00 | |
| HSKMA3-T | 2026-08-31 10:54:55 | 53.09310 | 8.08888 | 48° | 24km/h | 22224m | 5.5m/s | -51.1°C | 0.9% | 41hPa | 2.7V | 18:12:15 | 01:23:17 | 00:00:00 | |
| BIOWL1-15 | 2026-08-31 10:54:53 | 53.09301 | 8.08877 | 22° | 22km/h | 22212m | 5.5m/s | -51°C | 0.9% | 41hPa | 2.6V | 18:12:15 | 01:23:15 | 00:00:00 | |
| DL1XH-west | 2026-08-31 10:54:49 | 53.09280 | 8.08874 | 354° | 24km/h | 22188m | 7.1m/s | -51.1°C | 0.9% | 41.2hPa | 2.6V | 18:12:15 | 01:23:11 | 00:00:00 | |
| DL1XH-15 | 2026-08-31 10:54:49 | 53.09251 | 8.08869 | 30° | 18km/h | 22156m | 5.6m/s | -51°C | 4% | 41.4hPa | 2.6V | 08:30:00 | 01:23:05 | 00:00:00 | |
| DO2JMG | 2026-08-31 10:54:49 | 53.09274 | 8.08875 | 354° | 24km/h | 22182m | 4.9m/s | -51°C | 0.9% | 41.2hPa | 2.6V | 18:12:15 | 01:23:10 | 00:00:00 | |
| DF8AY | 2026-08-31 10:54:47 | 53.09268 | 8.08876 | 357° | 22km/h | 22177m | 4m/s | -51°C | 0.9% | 41.2hPa | 2.6V | 18:12:15 | 01:23:09 | 00:00:00 | |
| HSKMA3-T | 2026-08-31 10:54:45 | 53.09258 | 8.08875 | 16° | 16km/h | 22166m | 5.3m/s | -51°C | 0.9% | 41.3hPa | 2.7V | 18:12:15 | 01:23:07 | 00:00:00 | |
| EDDB2-12 | 2026-08-31 10:54:45 | 53.09255 | 8.08873 | 31° | 15km/h | 22161m | 4.3m/s | -51.0°C | 1.2% | 41.4hPa | 2.6V | 00:00:00 | 00:00:00 | 00:00:00 | |
| BIOWL1-15 | 2026-08-31 10:54:43 | 53.09251 | 8.08869 | 31° | 18km/h | 22156m | 5.6m/s | -51.1°C | 0.9% | 41.4hPa | 2.6V | 18:12:15 | 01:23:05 | 00:00:00 | |
| DJ2DS-15 | 2026-08-31 10:54:42 | 53.09247 | 8.08865 | 26° | 18km/h | 22151m | 4.8m/s | -51.0°C | 4.0% | 41.4hPa | 2.7V | 00:00:00 | 01:23:04 | 00:00:00 | |
| DL8OAI-8 | 2026-08-31 10:54:41 | 53.09246 | 8.08865 | 26° | 20km/h | 22151m | 4.8m/s | -51.0°C | 1.3% | 41.4hPa | 2.7V | 00:00:00 | 00:00:00 | 00:00:00 | |
| DB0DAN | 2026-08-31 10:54:40 | 53.09237 | 8.08860 | 5° | 18km/h | 22141m | 6.1m/s | -51.1°C | 1.2% | 41.5hPa | 2.7V | 00:00:00 | 00:00:00 | 00:00:00 | |
| AA1-15 | 2026-08-31 10:54:38 | 53.09227 | 8.08863 | 345° | 22km/h | 22130m | 4.7m/s | -51.1°C | 0.9% | 41.6hPa | 2.7V | 18:12:15 | 01:23:00 | 00:00:00 | |
| DL3AQ-11 | 2026-08-31 10:54:38 | 53.09222 | 8.08865 | 345° | 22km/h | 22125m | 6.7m/s | -51.2°C | 1.2% | 41.6hPa | 2.7V | 00:00:00 | 00:00:00 | 00:00:00 | |
| DL1XH-15 | 2026-08-31 10:54:37 | 53.09200 | 8.08877 | 338° | 16km/h | 22102m | 4.8m/s | -51.1°C | 4% | 41.8hPa | 2.7V | 08:30:00 | 01:22:55 | 00:00:00 | |
| DO2JMG | 2026-08-31 10:54:37 | 53.09222 | 8.08865 | 346° | 24km/h | 22124m | 6.7m/s | -51.2°C | 0.9% | 41.6hPa | 2.6V | 18:12:15 | 01:22:59 | 00:00:00 | |
| DF8AY | 2026-08-31 10:54:36 | 53.09216 | 8.08867 | 345° | 24km/h | 22118m | 5.6m/s | -51.2°C | 0.9% | 41.6hPa | 2.6V | 18:12:15 | 01:22:58 | 00:00:00 | |
| HSKMA3-T | 2026-08-31 10:54:34 | 53.09204 | 8.08874 | 338° | 22km/h | 22107m | 6m/s | -51.2°C | 0.9% | 41.7hPa | 2.7V | 18:12:15 | 01:22:56 | 00:00:00 | |
| BIOWL1-15 | 2026-08-31 10:54:33 | 53.09200 | 8.08877 | 338° | 16km/h | 22102m | 4.8m/s | -51.2°C | 0.8% | 41.8hPa | 2.7V | 18:12:15 | 01:22:55 | 00:00:00 | |
| DL1XH1-15 | 2026-08-31 10:54:32 | 53.09190 | 8.08877 | 18° | 15km/h | 22086m | 4.8m/s | -51.2°C | 4% | 41.8hPa | 2.6V | 08:30:00 | 01:22:52 | 00:00:00 | |
| DL1XH-west | 2026-08-31 10:54:28 | 53.09182 | 8.08874 | 4° | 15km/h | 22075m | 6.3m/s | -51.3°C | 0.9% | 41.9hPa | 2.7V | 18:12:15 | 01:22:50 | 00:00:00 | |
| DF8AY | 2026-08-31 10:54:26 | 53.09175 | 8.08875 | 348° | 16km/h | 22064m | 5.6m/s | -51.3°C | 0.9% | 42hPa | 2.6V | 18:12:15 | 01:22:48 | 00:00:00 | |
| DB0DAN | 2026-08-31 10:54:25 | 53.09171 | 8.08877 | 352° | 18km/h | 22058m | 6.8m/s | -51.4°C | 1.2% | 42.01hPa | 2.6V | 00:00:00 | 00:00:00 | 00:00:00 | |
| BIOWL1-15 | 2026-08-31 10:54:24 | 53.09158 | 8.08885 | 320° | 18km/h | 22040m | 6.3m/s | -51.3°C | 0.9% | 42.1hPa | 2.6V | 18:12:15 | 01:22:44 | 00:00:00 | |
| HSKMA3-T | 2026-08-31 10:54:24 | 53.09166 | 8.08878 | 347° | 18km/h | 22052m | 5.4m/s | -51.3°C | 0.9% | 42.1hPa | 2.7V | 18:12:15 | 01:22:46 | 00:00:00 | |
| HTAHTA | 2026-08-31 10:54:23 | 53.09162 | 8.08881 | 334° | 16km/h | 22046m | 6.4m/s | -51.3°C | 1.2% | 42.1hPa | 2.6V | 00:00:00 | 00:00:00 | 00:00:00 | |
| DM0DOS-11 | 2026-08-31 10:54:22 | 53.09153 | 8.08895 | 306° | 15km/h | 22030m | 5.1m/s | -51.4°C | 4% | 42.2hPa | 2.6V | 08:30:00 | 01:22:42 | 00:00:00 | |
| DL1XH-west | 2026-08-31 10:54:18 | 53.09148 | 8.08902 | 333° | 9km/h | 22018m | 5.5m/s | -51.6°C | 1% | 42.3hPa | 2.7V | 18:12:15 | 01:22:40 | 00:00:00 | |
| DO2JMG | 2026-08-31 10:54:16 | 53.09145 | 8.08904 | 350° | 4km/h | 22007m | 6.3m/s | -51.6°C | 1% | 42.4hPa | 2.6V | 18:12:15 | 01:22:38 | 00:00:00 | |
| HSKMA3-T | 2026-08-31 10:54:13 | 53.09141 | 8.08902 | 17° | 11km/h | 21991m | 6.8m/s | -51.6°C | 1% | 42.4hPa | 2.7V | 18:12:15 | 01:22:35 | 00:00:00 | |
| BIOWL1-15 | 2026-08-31 10:54:12 | 53.09138 | 8.08901 | 9° | 15km/h | 21986m | 4.7m/s | -51.6°C | 0.9% | 42.5hPa | 2.7V | 18:12:15 | 01:22:34 | 00:00:00 | |
| DL3OBA | 2026-08-31 10:54:11 | 53.09138 | 8.08901 | 10° | 15km/h | 21986m | 4.7m/s | -51.6°C | 1.3% | 42.5hPa | 2.6V | 00:00:00 | 00:00:00 | 00:00:00 | |
| DB0DAN | 2026-08-31 10:54:10 | 53.09130 | 8.08902 | 347° | 16km/h | 21975m | 6.4m/s | -51.5°C | 1.3% | 42.58hPa | 2.6V | 00:00:00 | 00:00:00 | 00:00:00 | |
| DL1XH-west | 2026-08-31 10:54:07 | 53.09118 | 8.08909 | 343° | 16km/h | 21959m | 6.5m/s | -51.4°C | 0.9% | 42.7hPa | 2.7V | 18:12:15 | 01:22:29 | 00:00:00 | |
| DO2JMG | 2026-08-31 10:54:05 | 53.09112 | 8.08912 | 344° | 7km/h | 21948m | 5.8m/s | -51.4°C | 0.9% | 42.8hPa | 2.7V | 18:12:15 | 01:22:27 | 00:00:00 | |
| HSKMA3-T | 2026-08-31 10:54:02 | 53.09110 | 8.08915 | 175° | 2km/h | 21931m | 6.2m/s | -51.4°C | 0.9% | 42.9hPa | 2.6V | 18:12:15 | 01:22:24 | 00:00:00 | |
| BIOWL1-15 | 2026-08-31 10:54:01 | 53.09110 | 8.08914 | 43° | 2km/h | 21925m | 5.4m/s | -51.4°C | 0.9% | 42.9hPa | 2.7V | 18:12:15 | 01:22:23 | 00:00:00 | |
| DL1XH-west | 2026-08-31 10:53:57 | 53.09105 | 8.08920 | 314° | 11km/h | 21902m | 4.4m/s | -51.5°C | 0.9% | 43.1hPa | 2.7V | 18:12:15 | 01:22:19 | 00:00:00 | |
| DF8AY | 2026-08-31 10:53:55 | 53.09101 | 8.08925 | 323° | 9km/h | 21891m | 5.2m/s | -51.4°C | 0.9% | 43.1hPa | 2.6V | 18:12:15 | 01:22:17 | 00:00:00 | |
| DO2JMG | 2026-08-31 10:53:54 | 53.09100 | 8.08928 | 298° | 7km/h | 21886m | 4.7m/s | -51.4°C | 1% | 43.2hPa | 2.6V | 18:12:15 | 01:22:16 | 00:00:00 | |
| DL1XH1-15 | 2026-08-31 10:53:54 | 53.09103 | 8.08939 | 198° | 9km/h | 21861m | 6.2m/s | -51.3°C | 4.1% | 43.3hPa | 2.6V | 08:30:00 | 01:22:12 | 00:00:00 | |
| BIOWL1-15 | 2026-08-31 10:53:51 | 53.09101 | 8.08937 | 223° | 9km/h | 21867m | 6.9m/s | -51.3°C | 1% | 43.3hPa | 2.6V | 18:12:15 | 01:22:13 | 00:00:00 | |
| DL8DAS-14 | 2026-08-31 10:53:50 | 53.09103 | 8.08939 | 198° | 9km/h | 21861m | 6.2m/s | -51.3°C | 1.3% | 43.3hPa | 2.6V | 00:00:00 | 00:00:00 | 00:00:00 | |
| DO2SHX-10 | 2026-08-31 10:53:49 | 53.09106 | 8.08940 | 191° | 13km/h | 21855m | 4.6m/s | -51.3°C | 4.1% | 43.3hPa | 2.6V | 00:00:00 | 01:22:11 | 00:00:00 | |
| DL1XH-15 | 2026-08-31 10:53:48 | 53.09116 | 8.08953 | 339° | 4km/h | 21824m | 5.1m/s | -51.1°C | 4% | 43.6hPa | 2.6V | 08:30:00 | 01:22:05 | 00:00:00 | |
| DL1XH-west | 2026-08-31 10:53:47 | 53.09112 | 8.08944 | 213° | 13km/h | 21844m | 5.3m/s | -51.3°C | 0.9% | 43.5hPa | 2.7V | 18:12:15 | 01:22:09 | 00:00:00 | |
| DF8AY | 2026-08-31 10:53:44 | 53.09116 | 8.08953 | 274° | 4km/h | 21829m | 5.9m/s | -51.2°C | 1% | 43.6hPa | 2.6V | 18:12:15 | 01:22:06 | 00:00:00 | |
| DO2JMG | 2026-08-31 10:53:43 | 53.09116 | 8.08954 | 340° | 4km/h | 21824m | 5.1m/s | -51.2°C | 0.9% | 43.6hPa | 2.6V | 18:12:15 | 01:22:05 | 00:00:00 | |
| DM0DOS-11 | 2026-08-31 10:53:42 | 53.09112 | 8.08959 | 331° | 4km/h | 21801m | 6m/s | -51.1°C | 4.1% | 43.7hPa | 2.6V | 08:30:00 | 01:22:01 | 00:00:00 | |
| HSKMA3-T | 2026-08-31 10:53:41 | 53.09114 | 8.08955 | 315° | 5km/h | 21812m | 6.5m/s | -51.1°C | 0.9% | 43.6hPa | 2.7V | 18:12:15 | 01:22:03 | 00:00:00 | |
| DB0DAN | 2026-08-31 10:53:40 | 53.09113 | 8.08957 | 308° | 5km/h | 21807m | 4.7m/s | -51.1°C | 1.2% | 43.71hPa | 2.7V | 00:00:00 | 00:00:00 | 00:00:00 | |
| DL1XH-west | 2026-08-31 10:53:37 | 53.09111 | 8.08960 | 263° | 2km/h | 21791m | 3.3m/s | -51.1°C | 0.9% | 43.8hPa | 2.6V | 18:12:15 | 01:21:59 | 00:00:00 | |
| DL1XH-15 | 2026-08-31 10:53:37 | 53.09114 | 8.08971 | 244° | 9km/h | 21769m | 6.1m/s | -51°C | 4.1% | 44hPa | 2.6V | 08:30:00 | 01:21:55 | 00:00:00 | |
| AA1-15 | 2026-08-31 10:53:36 | 53.09111 | 8.08961 | 250° | 4km/h | 21787m | 6m/s | -51.1°C | 1% | 43.8hPa | 2.7V | 18:12:15 | 01:21:58 | 00:00:00 | |
| DO2JMG | 2026-08-31 10:53:33 | 53.09114 | 8.08971 | 245° | 9km/h | 21769m | 6.1m/s | -51°C | 1% | 44hPa | 2.6V | 18:12:15 | 01:21:55 | 00:00:00 | |
| DO2SHX-10 | 2026-08-31 10:53:32 | 53.09115 | 8.08973 | 239° | 7km/h | 21764m | 5.2m/s | -50.9°C | 4.1% | 43.9hPa | 2.6V | 00:00:00 | 01:21:54 | 00:00:00 | |
| DL1XH1-15 | 2026-08-31 10:53:31 | 53.09118 | 8.08977 | 200° | 7km/h | 21753m | 6.8m/s | -50.9°C | 4.1% | 44.1hPa | 2.6V | 08:30:00 | 01:21:52 | 00:00:00 | |
| HSKMA3-T | 2026-08-31 10:53:30 | 53.09117 | 8.08977 | 201° | 7km/h | 21753m | 6.8m/s | -50.9°C | 1% | 44.1hPa | 2.6V | 18:12:15 | 01:21:52 | 00:00:00 | |
| BIOWL1-15 | 2026-08-31 10:53:29 | 53.09120 | 8.08978 | 189° | 11km/h | 21747m | 5.7m/s | -50.8°C | 0.9% | 44.1hPa | 2.6V | 18:12:15 | 01:21:51 | 00:00:00 | |
| AA1-15 | 2026-08-31 10:53:26 | 53.09132 | 8.08972 | 169° | 9km/h | 21719m | 6.8m/s | -50.6°C | 0.9% | 44.3hPa | 2.6V | 18:12:15 | 01:21:46 | 00:00:00 | |
| DL1XH-15 | 2026-08-31 10:53:26 | 53.09134 | 8.08973 | 197° | 9km/h | 21713m | 5.6m/s | -50.5°C | 4% | 44.3hPa | 2.7V | 08:30:00 | 01:21:45 | 00:00:00 | |
| DL1XH1-15 | 2026-08-31 10:53:26 | 53.09139 | 8.08979 | 232° | 7km/h | 21696m | 4.2m/s | -50.4°C | 3.9% | 44.5hPa | 2.6V | 08:30:00 | 01:21:42 | 00:00:00 | |
| DB0DAN | 2026-08-31 10:53:25 | 53.09130 | 8.08973 | 154° | 9km/h | 21724m | 3.7m/s | -50.6°C | 1.2% | 44.28hPa | 2.6V | 00:00:00 | 00:00:00 | 00:00:00 | |
| DO2JMG | 2026-08-31 10:53:22 | 53.09136 | 8.08974 | 216° | 9km/h | 21707m | 5.7m/s | -50.4°C | 0.8% | 44.4hPa | 2.7V | 18:12:15 | 01:21:44 | 00:00:00 | |
| HSKMA3-T | 2026-08-31 10:53:19 | 53.09141 | 8.08982 | 226° | 9km/h | 21691m | 4.6m/s | -50.3°C | 0.8% | 44.5hPa | 2.6V | 18:12:15 | 01:21:41 | 00:00:00 | |
| DL1XH-west | 2026-08-31 10:53:13 | 53.09155 | 8.08992 | 163° | 9km/h | 21659m | 4.9m/s | -50.2°C | 0.8% | 44.7hPa | 2.6V | 18:12:15 | 01:21:35 | 00:00:00 | |
| DO2JMG | 2026-08-31 10:53:12 | 53.09158 | 8.08991 | 167° | 11km/h | 21653m | 6.4m/s | -50.2°C | 0.8% | 44.8hPa | 2.6V | 18:12:15 | 01:21:34 | 00:00:00 | |
| DB0DAN | 2026-08-31 10:53:10 | 53.09164 | 8.08989 | 176° | 13km/h | 21643m | 3.5m/s | -50.2°C | 1.2% | 44.83hPa | 2.7V | 00:00:00 | 00:00:00 | 00:00:00 | |
| BIOWL1-15 | 2026-08-31 10:53:08 | 53.09177 | 8.08988 | 187° | 11km/h | 21615m | 5.1m/s | -50.1°C | 0.8% | 45hPa | 2.7V | 18:12:15 | 01:21:27 | 00:00:00 | |
| HSKMA3-T | 2026-08-31 10:53:08 | 53.09170 | 8.08988 | 171° | 9km/h | 21633m | 5.5m/s | -50.2°C | 0.8% | 44.9hPa | 2.6V | 18:12:15 | 01:21:30 | 00:00:00 | |
| GOEST3-10 | 2026-08-31 10:53:06 | 53.09174 | 8.08988 | 179° | 9km/h | 21621m | 6.7m/s | -50.1°C | 3.8% | 44.9hPa | 2.6V | 00:00:00 | 01:21:28 | 00:00:00 | |
| DL1XH-15 | 2026-08-31 10:53:03 | 53.09182 | 8.08989 | 182° | 7km/h | 21605m | 7.2m/s | -50.1°C | 3.8% | 45.1hPa | 2.6V | 08:30:00 | 01:21:25 | 00:00:00 | |
| DL1XH-west | 2026-08-31 10:53:03 | 53.09182 | 8.08989 | 182° | 7km/h | 21605m | 7.2m/s | -50.1°C | 0.8% | 45.1hPa | 2.6V | 18:12:15 | 01:21:25 | 00:00:00 | |
| DL1XH1-15 | 2026-08-31 10:53:02 | 53.09188 | 8.08986 | 160° | 11km/h | 21586m | 6.2m/s | -50.1°C | 3.8% | 45.2hPa | 2.7V | 08:30:00 | 01:21:22 | 00:00:00 | |
| DO2JMG | 2026-08-31 10:53:01 | 53.09185 | 8.08987 | 160° | 9km/h | 21593m | 6.2m/s | -50.1°C | 0.7% | 45.2hPa | 2.7V | 18:12:15 | 01:21:23 | 00:00:00 | |
| DD1CC8 | 2026-08-31 10:52:59 | 53.09190 | 8.08985 | 157° | 9km/h | 21581m | 4.5m/s | -50.1°C | 1.2% | 45.3hPa | 2.6V | 00:00:00 | 00:00:00 | 00:00:00 | |
| DL1XH-15 | 2026-08-31 10:52:58 | 53.09193 | 8.08978 | 151° | 5km/h | 21548m | 5m/s | -50.1°C | 3.7% | 45.5hPa | 2.6V | 08:30:00 | 01:21:15 | 00:00:00 | |
| HSKMA3-T | 2026-08-31 10:52:57 | 53.09192 | 8.08982 | 101° | 4km/h | 21569m | 5.8m/s | -50°C | 0.7% | 45.4hPa | 2.7V | 18:12:15 | 01:21:19 | 00:00:00 | |
| WEDDY | 2026-08-31 10:52:57 | 53.09192 | 8.08981 | 52° | 4km/h | 21565m | 4.4m/s | -50.0°C | 1.2% | 45.4hPa | 2.7V | 00:00:00 | 00:00:00 | 00:00:00 | |
| DL1XH1-15 | 2026-08-31 10:52:56 | 53.09196 | 8.08974 | 135° | 4km/h | 21530m | 4.4m/s | -50.1°C | 3.8% | 45.6hPa | 2.7V | 08:30:00 | 01:21:12 | 00:00:00 | |
| DB0DAN | 2026-08-31 10:52:55 | 53.09192 | 8.08980 | 77° | 2km/h | 21559m | 6.1m/s | -50°C | 1.2% | 45.41hPa | 2.6V | 00:00:00 | 00:00:00 | 00:00:00 | |
| BIOWL1-15 | 2026-08-31 10:52:54 | 53.09192 | 8.08979 | 138° | 4km/h | 21553m | 5.9m/s | -50°C | 0.7% | 45.5hPa | 2.6V | 18:12:15 | 01:21:16 | 00:00:00 | |
| DL1XH-west | 2026-08-31 10:52:53 | 53.09193 | 8.08978 | 152° | 5km/h | 21548m | 5m/s | -50.1°C | 0.7% | 45.5hPa | 2.6V | 18:12:15 | 01:21:15 | 00:00:00 | |
| DO2JMG | 2026-08-31 10:52:51 | 53.09195 | 8.08976 | 133° | 4km/h | 21536m | 6.6m/s | -50.1°C | 0.7% | 45.6hPa | 2.7V | 18:12:15 | 01:21:13 | 00:00:00 | |
| HTAHTA | 2026-08-31 10:52:50 | 53.09196 | 8.08974 | 135° | 4km/h | 21530m | 4.4m/s | -50.1°C | 1.2% | 45.6hPa | 2.6V | 00:00:00 | 00:00:00 | 00:00:00 | |
| DL8DAS-14 | 2026-08-31 10:52:48 | 53.09198 | 8.08972 | 151° | 7km/h | 21519m | 5.5m/s | -50.2°C | 1.2% | 45.7hPa | 2.6V | 00:00:00 | 00:00:00 | 00:00:00 | |
| BIOWL9-15 | 2026-08-31 10:52:47 | 53.09200 | 8.08970 | 139° | 7km/h | 21514m | 4.6m/s | -50.2°C | 1.2% | 45.7hPa | 2.6V | 00:00:00 | 00:00:00 | 00:00:00 | |
| DL1XH-15 | 2026-08-31 10:52:46 | 53.09201 | 8.08958 | 74° | 7km/h | 21493m | 6.3m/s | -50.4°C | 3.8% | 45.9hPa | 2.6V | 08:30:00 | 01:21:05 | 00:00:00 | |
| HSKMA3-T | 2026-08-31 10:52:46 | 53.09201 | 8.08968 | 119° | 7km/h | 21508m | 6.6m/s | -50.3°C | 0.8% | 45.8hPa | 2.7V | 18:12:15 | 01:21:08 | 00:00:00 | |
| GOEST3-10 | 2026-08-31 10:52:46 | 53.09201 | 8.08968 | 120° | 7km/h | 21508m | 6.6m/s | -50.2°C | 3.8% | 45.7hPa | 2.7V | 00:00:00 | 01:21:08 | 00:00:00 | |
| DF8AY-15 | 2026-08-31 10:52:45 | 53.09202 | 8.08965 | 84° | 9km/h | 21502m | 4.6m/s | -50.3°C | 3.8% | 45.7hPa | 2.7V | 00:00:00 | 01:21:07 | 00:00:00 | |
| DL1XH1-15 | 2026-08-31 10:52:44 | 53.09198 | 8.08953 | 17° | 7km/h | 21475m | 7m/s | -50.5°C | 3.8% | 46hPa | 2.7V | 08:30:00 | 01:21:02 | 00:00:00 | |
| BIOWL1-15 | 2026-08-31 10:52:43 | 53.09201 | 8.08958 | 74° | 7km/h | 21493m | 6.3m/s | -50.4°C | 0.8% | 45.9hPa | 2.6V | 18:12:15 | 01:21:05 | 00:00:00 | |
| DL1XH-west | 2026-08-31 10:52:42 | 53.09200 | 8.08956 | 73° | 5km/h | 21487m | 5.5m/s | -50.4°C | 0.8% | 45.9hPa | 2.6V | 18:12:15 | 01:21:04 | 00:00:00 | |
| DJ2DS-15 | 2026-08-31 10:52:42 | 53.09200 | 8.08956 | 74° | 11km/h | 21487m | 5.5m/s | -50.4°C | 3.8% | 45.9hPa | 2.7V | 00:00:00 | 01:21:04 | 00:00:00 | |
| DM0DOS-11 | 2026-08-31 10:52:41 | 53.09196 | 8.08952 | 17° | 9km/h | 21469m | 5.2m/s | -50.5°C | 3.8% | 46hPa | 2.7V | 08:30:00 | 01:21:01 | 00:00:00 | |
| DB0DAN | 2026-08-31 10:52:40 | 53.09198 | 8.08953 | 17° | 7km/h | 21475m | 7m/s | -50.5°C | 1.2% | 46hPa | 2.7V | 00:00:00 | 00:00:00 | 00:00:00 | |
| DO2JMG | 2026-08-31 10:52:40 | 53.09198 | 8.08953 | 17° | 7km/h | 21475m | 7m/s | -50.5°C | 0.8% | 46hPa | 2.7V | 18:12:15 | 01:21:02 | 00:00:00 | |
| HSKMA3-T | 2026-08-31 10:52:35 | 53.09191 | 8.08943 | 71° | 11km/h | 21445m | 6.6m/s | -50.6°C | 0.8% | 46.2hPa | 2.6V | 18:12:15 | 01:20:57 | 00:00:00 | |
| DL1XH-15 | 2026-08-31 10:52:35 | 53.09188 | 8.08931 | 79° | 18km/h | 21435m | 4m/s | -50.7°C | 3.9% | 46.3hPa | 2.7V | 08:30:00 | 01:20:55 | 00:00:00 | |
| DM0DOS-11 | 2026-08-31 10:52:35 | 53.09190 | 8.08891 | 96° | 5km/h | 21396m | 5.5m/s | -51°C | 3.8% | 46.6hPa | 2.7V | 08:30:00 | 01:20:48 | 00:00:00 | |
| BIOWL1-15 | 2026-08-31 10:52:33 | 53.09189 | 8.08931 | 79° | 18km/h | 21435m | 4m/s | -50.7°C | 0.8% | 46.3hPa | 2.7V | 18:12:15 | 01:20:55 | 00:00:00 | |
| DL1XH-west | 2026-08-31 10:52:32 | 53.09188 | 8.08923 | 88° | 18km/h | 21430m | 6.1m/s | -50.7°C | 0.8% | 46.3hPa | 2.6V | 18:12:15 | 01:20:54 | 00:00:00 | |
| AA1-15 | 2026-08-31 10:52:31 | 53.09188 | 8.08916 | 99° | 18km/h | 21424m | 5.7m/s | -50.7°C | 0.9% | 46.4hPa | 2.6V | 18:12:15 | 01:20:53 | 00:00:00 | |
| DO2JMG | 2026-08-31 10:52:30 | 53.09190 | 8.08903 | 103° | 15km/h | 21413m | 6m/s | -50.8°C | 0.8% | 46.4hPa | 2.7V | 18:12:15 | 01:20:51 | 00:00:00 | |
| DL1XH-15 | 2026-08-31 10:52:29 | 53.09192 | 8.08885 | 121° | 5km/h | 21380m | 6.1m/s | -51.1°C | 3.9% | 46.7hPa | 2.6V | 08:30:00 | 01:20:45 | 00:00:00 | |
| HSKMA3-T | 2026-08-31 10:52:25 | 53.09190 | 8.08889 | 130° | 5km/h | 21390m | 6.1m/s | -51.1°C | 0.8% | 46.6hPa | 2.7V | 18:12:15 | 01:20:47 | 00:00:00 | |
| DB0DAN | 2026-08-31 10:52:25 | 53.09190 | 8.08889 | 129° | 5km/h | 21390m | 6.1m/s | -51.1°C | 1.2% | 46.61hPa | 2.7V | 00:00:00 | 00:00:00 | 00:00:00 | |
| BIOWL1-15 | 2026-08-31 10:52:24 | 53.09193 | 8.08879 | 102° | 11km/h | 21369m | 4.3m/s | -51.2°C | 0.9% | 46.8hPa | 2.7V | 18:12:15 | 01:20:43 | 00:00:00 | |
| DL1XH-west | 2026-08-31 10:52:22 | 53.09193 | 8.08883 | 106° | 7km/h | 21374m | 5.1m/s | -51.1°C | 0.9% | 46.7hPa | 2.6V | 18:12:15 | 01:20:44 | 00:00:00 | |
| DF8AY-15 | 2026-08-31 10:52:22 | 53.09193 | 8.08883 | 107° | 18km/h | 21374m | 5.1m/s | -51.1°C | 3.9% | 46.7hPa | 2.6V | 00:00:00 | 01:20:44 | 00:00:00 | |
| DM0DOS-11 | 2026-08-31 10:52:21 | 53.09197 | 8.08860 | 99° | 22km/h | 21353m | 4.2m/s | -51.3°C | 4% | 46.9hPa | 2.6V | 08:30:00 | 01:20:40 | 00:00:00 | |
| AA1-15 | 2026-08-31 10:52:21 | 53.09194 | 8.08875 | 110° | 13km/h | 21364m | 6.6m/s | -51.3°C | 0.9% | 46.8hPa | 2.7V | 18:12:15 | 01:20:42 | 00:00:00 | |
| DO2JMG | 2026-08-31 10:52:19 | 53.09196 | 8.08868 | 107° | 18km/h | 21358m | 4.9m/s | -51.3°C | 0.9% | 46.9hPa | 2.7V | 18:12:15 | 01:20:41 | 00:00:00 | |
| DF4FW | 2026-08-31 10:52:18 | 53.09196 | 8.08868 | 108° | 18km/h | 21358m | 4.9m/s | -51.3°C | 1.2% | 46.9hPa | 2.7V | 00:00:00 | 00:00:00 | 00:00:00 | |
| DL8DAS-14 | 2026-08-31 10:52:17 | 53.09197 | 8.08851 | 90° | 22km/h | 21348m | 6.4m/s | -51.3°C | 1.2% | 46.9hPa | 2.7V | 00:00:00 | 00:00:00 | 00:00:00 | |
| BIOWL9-15 | 2026-08-31 10:52:16 | 53.09197 | 8.08842 | 79° | 22km/h | 21342m | 4.9m/s | -51.4°C | 1.2% | 47.0hPa | 2.7V | 00:00:00 | 00:00:00 | 00:00:00 | |
| DL1XH-15 | 2026-08-31 10:52:15 | 53.09193 | 8.08818 | 74° | 15km/h | 21326m | 5m/s | -51.6°C | 4% | 47.1hPa | 2.7V | 08:30:00 | 01:20:35 | 00:00:00 | |
| HSKMA3-T | 2026-08-31 10:52:14 | 53.09194 | 8.08825 | 77° | 18km/h | 21332m | 6.3m/s | -51.5°C | 0.9% | 47.1hPa | 2.7V | 18:12:15 | 01:20:36 | 00:00:00 | |
| DL1XH-west | 2026-08-31 10:52:11 | 53.09190 | 8.08809 | 43° | 13km/h | 21314m | 6.9m/s | -51.7°C | 0.9% | 47.2hPa | 2.6V | 18:12:15 | 01:20:33 | 00:00:00 | |
| DD8BA-10 | 2026-08-31 10:52:11 | 53.09190 | 8.08808 | 44° | 20km/h | 21314m | 6.8m/s | -51.6°C | 4.0% | 47.1hPa | 2.7V | 00:00:00 | 00:00:00 | 00:00:00 | |
| DM0DOS-11 | 2026-08-31 10:52:10 | 53.09184 | 8.08798 | 71° | 11km/h | 21297m | 6.7m/s | -51.8°C | 4% | 47.3hPa | 2.7V | 08:30:00 | 01:20:30 | 00:00:00 | |
| AA1-15 | 2026-08-31 10:52:10 | 53.09187 | 8.08805 | 36° | 13km/h | 21309m | 4.6m/s | -51.8°C | 0.9% | 47.2hPa | 2.6V | 18:12:15 | 01:20:32 | 00:00:00 | |
| DB0DAN | 2026-08-31 10:52:10 | 53.09187 | 8.08805 | 36° | 13km/h | 21309m | 4.6m/s | -51.8°C | 1.3% | 47.22hPa | 2.6V | 00:00:00 | 00:00:00 | 00:00:00 | |
| DO2JMG | 2026-08-31 10:52:09 | 53.09185 | 8.08802 | 49° | 11km/h | 21303m | 5.6m/s | -51.8°C | 0.9% | 47.3hPa | 2.7V | 18:12:15 | 01:20:31 | 00:00:00 | |
| SONDE2-11 | 2026-08-31 10:52:08 | 53.09184 | 8.08798 | 71° | 11km/h | 21297m | 6.7m/s | -51.8°C | 1.2% | 47.3hPa | 2.7V | 00:00:00 | 00:00:00 | 00:00:00 | |
| DC4HF-4 | 2026-08-31 10:52:07 | 53.09183 | 8.08784 | 83° | 20km/h | 21287m | 4.9m/s | -51.8°C | 1.3% | 47.4hPa | 2.7V | 00:00:00 | 00:00:00 | 00:00:00 | |
| DL4BBY-15 | 2026-08-31 10:52:06 | 53.09182 | 8.08784 | 84° | 27km/h | 21286m | 4.9m/s | -51.1°C | 0% | 0hPa | 2.7V | 00:00:00 | 00:00:00 | 00:00:00 | |
| DL1XH1-15 | 2026-08-31 10:52:05 | 53.09164 | 8.08686 | 58° | 35km/h | 21241m | 4.7m/s | -52.1°C | 4.1% | 47.7hPa | 2.7V | 08:30:00 | 01:20:20 | 00:00:00 | |
| HSKMA3-T | 2026-08-31 10:52:04 | 53.09180 | 8.08764 | 76° | 29km/h | 21275m | 5.3m/s | -51.9°C | 0.9% | 47.5hPa | 2.6V | 18:12:15 | 01:20:26 | 00:00:00 | |
| BIOWL1-15 | 2026-08-31 10:52:00 | 53.09172 | 8.08711 | 67° | 35km/h | 21252m | 7m/s | -52.1°C | 1% | 47.6hPa | 2.6V | 18:12:15 | 01:20:22 | 00:00:00 | |
| DM0DOS-11 | 2026-08-31 10:52:00 | 53.09164 | 8.08686 | 58° | 35km/h | 21241m | 4.7m/s | -52.1°C | 4.1% | 47.7hPa | 2.7V | 08:30:00 | 01:20:20 | 00:00:00 | |
| AA1-15 | 2026-08-31 10:52:00 | 53.09168 | 8.08698 | 62° | 35km/h | 21246m | 5.2m/s | -52.1°C | 1% | 47.7hPa | 2.7V | 18:12:15 | 01:20:21 | 00:00:00 | |
| DO2JMG | 2026-08-31 10:51:59 | 53.09164 | 8.08686 | 59° | 35km/h | 21241m | 4.7m/s | -52.1°C | 1% | 47.7hPa | 2.7V | 18:12:15 | 01:20:20 | 00:00:00 | |
| DD1CC8 | 2026-08-31 10:51:57 | 53.09160 | 8.08674 | 62° | 31km/h | 21236m | 6.3m/s | -52.1°C | 1.3% | 47.8hPa | 2.7V | 00:00:00 | 00:00:00 | 00:00:00 | |
| DL8OAI-8 | 2026-08-31 10:51:56 | 53.09160 | 8.08673 | 64° | 33km/h | 21236m | 6.3m/s | -52.1°C | 1.3% | 47.8hPa | 2.7V | 00:00:00 | 00:00:00 | 00:00:00 | |
| DB0DAN | 2026-08-31 10:51:55 | 53.09153 | 8.08652 | 58° | 24km/h | 21225m | 3.7m/s | -52.2°C | 1.3% | 47.84hPa | 2.7V | 00:00:00 | 00:00:00 | 00:00:00 | |
| HSKMA3-T | 2026-08-31 10:51:54 | 53.09149 | 8.08643 | 55° | 24km/h | 21220m | 6.6m/s | -52.2°C | 1% | 47.9hPa | 2.7V | 18:12:15 | 01:20:16 | 00:00:00 | |
| DM0DOS-11 | 2026-08-31 10:51:54 | 53.09130 | 8.08597 | 48° | 24km/h | 21187m | 6.4m/s | -52.3°C | 4.2% | 48.1hPa | 2.7V | 08:30:00 | 01:20:10 | 00:00:00 | |
| BIOWL1-15 | 2026-08-31 10:51:50 | 53.09137 | 8.08612 | 63° | 22km/h | 21198m | 4.1m/s | -52.4°C | 1% | 48hPa | 2.7V | 18:12:15 | 01:20:12 | 00:00:00 | |
| AA1-15 | 2026-08-31 10:51:48 | 53.09130 | 8.08597 | 48° | 24km/h | 21187m | 6.4m/s | -52.3°C | 1% | 48.1hPa | 2.7V | 18:12:15 | 01:20:10 | 00:00:00 | |
| DO2JMG | 2026-08-31 10:51:47 | 53.09126 | 8.08590 | 37° | 24km/h | 21181m | 5.7m/s | -52.3°C | 1.1% | 48.2hPa | 2.6V | 18:12:15 | 01:20:09 | 00:00:00 | |
| DL3AQ-11 | 2026-08-31 10:51:45 | 53.09112 | 8.08575 | 26° | 20km/h | 21165m | 4.6m/s | -52.3°C | 1.3% | 48.3hPa | 2.7V | 00:00:00 | 00:00:00 | 00:00:00 | |
| HSKMA3-T | 2026-08-31 10:51:43 | 53.09106 | 8.08571 | 23° | 26km/h | 21159m | 6.6m/s | -52.3°C | 1% | 48.3hPa | 2.7V | 18:12:15 | 01:20:05 | 00:00:00 | |
| DF2AP-13 | 2026-08-31 10:51:43 | 53.09106 | 8.08571 | 24° | 26km/h | 21159m | 6.6m/s | 0°C | 0% | 0hPa | 2.6V | 00:00:00 | 01:20:05 | 00:00:00 | |
| DJ2DS-15 | 2026-08-31 10:51:42 | 53.09100 | 8.08566 | 22° | 26km/h | 21153m | 5.3m/s | -52.2°C | 4.3% | 48.3hPa | 2.6V | 00:00:00 | 01:20:04 | 00:00:00 | |
| DB0DAN | 2026-08-31 10:51:40 | 53.09088 | 8.08557 | 24° | 24km/h | 21142m | 5.9m/s | -52.2°C | 1.3% | 48.48hPa | 2.6V | 00:00:00 | 00:00:00 | 00:00:00 | |
| DO9LL-15 | 2026-08-31 10:51:40 | 53.09088 | 8.08557 | 25° | 26km/h | 21142m | 5.9m/s | -52.2°C | 4.3% | 48.4hPa | 2.7V | 00:00:00 | 01:20:02 | 00:00:00 | |
| DF8AY-15 | 2026-08-31 10:51:39 | 53.09082 | 8.08553 | 26° | 26km/h | 21136m | 4.7m/s | -52.2°C | 4.3% | 48.5hPa | 2.7V | 00:00:00 | 01:20:01 | 00:00:00 | |
| DL1XH-15 | 2026-08-31 10:51:38 | 53.09036 | 8.08515 | 30° | 27km/h | 21088m | 5.3m/s | -52°C | 4.2% | 48.9hPa | 2.7V | 08:30:00 | 01:19:53 | 00:00:00 | |
| AA1-15 | 2026-08-31 10:51:38 | 53.09076 | 8.08548 | 24° | 26km/h | 21131m | 6.3m/s | -52.2°C | 1% | 48.6hPa | 2.7V | 18:12:15 | 01:20:00 | 00:00:00 | |
| DO2JMG | 2026-08-31 10:51:37 | 53.09070 | 8.08544 | 22° | 27km/h | 21125m | 5.8m/s | -52.2°C | 1.1% | 48.6hPa | 2.7V | 18:12:15 | 01:19:59 | 00:00:00 | |
| DF8AY | 2026-08-31 10:51:33 | 53.09036 | 8.08515 | 30° | 27km/h | 21088m | 5.3m/s | -52°C | 1% | 48.9hPa | 2.7V | 18:12:15 | 01:19:53 | 00:00:00 | |
| HSKMA3-T | 2026-08-31 10:51:33 | 53.09047 | 8.08526 | 33° | 22km/h | 21101m | 6.1m/s | -52.1°C | 1% | 48.8hPa | 2.6V | 18:12:15 | 01:19:55 | 00:00:00 | |
| DL1XH1-15 | 2026-08-31 10:51:33 | 53.09024 | 8.08503 | 29° | 26km/h | 21078m | 6.3m/s | -52°C | 4.2% | 49hPa | 2.6V | 08:30:00 | 01:19:51 | 00:00:00 | |
| BIOWL1-15 | 2026-08-31 10:51:29 | 53.09018 | 8.08499 | 26° | 24km/h | 21072m | 5.5m/s | -52°C | 1% | 49hPa | 2.7V | 18:12:15 | 01:19:50 | 00:00:00 | |
| AA1-15 | 2026-08-31 10:51:27 | 53.09013 | 8.08495 | 18° | 24km/h | 21067m | 5.7m/s | -52°C | 1% | 49hPa | 2.7V | 18:12:15 | 01:19:49 | 00:00:00 | |
| DO2JMG | 2026-08-31 10:51:26 | 53.09007 | 8.08492 | 13° | 26km/h | 21060m | 7.3m/s | -52°C | 1% | 49.1hPa | 2.6V | 18:12:15 | 01:19:48 | 00:00:00 | |
| DB0DAN | 2026-08-31 10:51:25 | 53.09000 | 8.08490 | 7° | 26km/h | 21054m | 4.7m/s | -52°C | 1.3% | 49.12hPa | 2.6V | 00:00:00 | 00:00:00 | 00:00:00 | |
| DL1XH-15 | 2026-08-31 10:51:25 | 53.08987 | 8.08490 | 355° | 24km/h | 21043m | 6.3m/s | -51.9°C | 4.2% | 49.2hPa | 2.7V | 08:30:00 | 01:19:45 | 00:00:00 | |
| DF8AY | 2026-08-31 10:51:23 | 53.08987 | 8.08489 | 356° | 24km/h | 21043m | 6.3m/s | -51.9°C | 1% | 49.2hPa | 2.7V | 18:12:15 | 01:19:45 | 00:00:00 | |
| HSKMA3-T | 2026-08-31 10:51:22 | 53.08981 | 8.08491 | 351° | 22km/h | 21038m | 4.1m/s | -51.9°C | 1% | 49.3hPa | 2.6V | 18:12:15 | 01:19:44 | 00:00:00 | |
| DJ2DS-15 | 2026-08-31 10:51:22 | 53.08981 | 8.08490 | 352° | 20km/h | 21038m | 4.0m/s | -51.9°C | 4.2% | 49.2hPa | 2.7V | 00:00:00 | 01:19:44 | 00:00:00 | |
| DD8BA-10 | 2026-08-31 10:51:21 | 53.08975 | 8.08492 | 353° | 24km/h | 21034m | 4.6m/s | -51.9°C | 4.2% | 49.3hPa | 2.7V | 00:00:00 | 00:00:00 | 00:00:00 | |
| GOEST3-10 | 2026-08-31 10:51:20 | 53.08969 | 8.08493 | 359° | 24km/h | 21028m | 6.3m/s | -51.9°C | 4.2% | 49.3hPa | 2.7V | 00:00:00 | 00:00:00 | 00:00:00 | |
| SONCRA | 2026-08-31 10:51:19 | 53.08963 | 8.08492 | 10° | 24km/h | 21023m | 5.0m/s | -51.9°C | 1.3% | 49.4hPa | 2.7V | 00:00:00 | 00:00:00 | 00:00:00 | |
| DL1XH-15 | 2026-08-31 10:51:18 | 53.08929 | 8.08467 | 21° | 26km/h | 20988m | 5.6m/s | -51.8°C | 4.1% | 49.6hPa | 2.7V | 08:30:00 | 01:19:35 | 00:00:00 | |
| AA1-15 | 2026-08-31 10:51:16 | 53.08946 | 8.08480 | 28° | 24km/h | 21006m | 5.8m/s | -51.8°C | 1% | 49.5hPa | 2.6V | 18:12:15 | 01:19:38 | 00:00:00 | |
| DO2JMG | 2026-08-31 10:51:15 | 53.08941 | 8.08476 | 27° | 22km/h | 21001m | 5m/s | -51.8°C | 1% | 49.6hPa | 2.6V | 18:12:15 | 01:19:37 | 00:00:00 | |
| HSKMA3-T | 2026-08-31 10:51:12 | 53.08923 | 8.08464 | 20° | 24km/h | 20983m | 5.2m/s | -51.9°C | 1% | 49.7hPa | 2.7V | 18:12:15 | 01:19:34 | 00:00:00 | |
| DF2AP-13 | 2026-08-31 10:51:12 | 53.08923 | 8.08464 | 20° | 37km/h | 20983m | 5.2m/s | 0°C | 0% | 0hPa | 2.6V | 00:00:00 | 01:19:34 | 00:00:00 | |
| DC6BW-12 | 2026-08-31 10:51:11 | 53.08923 | 8.08464 | 21° | 24km/h | 20983m | 5.2m/s | -51.9°C | 1.3% | 49.7hPa | 2.6V | 00:00:00 | 00:00:00 | 00:00:00 | |
| DB0DAN | 2026-08-31 10:51:10 | 53.08913 | 8.08458 | 18° | 18km/h | 20971m | 5.1m/s | -51.9°C | 1.3% | 49.77hPa | 2.6V | 00:00:00 | 00:00:00 | 00:00:00 | |
| DO9LL-15 | 2026-08-31 10:51:10 | 53.08913 | 8.08458 | 18° | 18km/h | 20971m | 5.0m/s | -51.9°C | 4.2% | 49.7hPa | 2.6V | 00:00:00 | 01:19:32 | 00:00:00 | |
| DF5WG-10 | 2026-08-31 10:51:09 | 53.08908 | 8.08456 | 15° | 15km/h | 20965m | 7.0m/s | -51.9°C | 4.2% | 49.8hPa | 2.6V | 00:00:00 | 01:19:31 | 00:00:00 | |
| GOEST3-10 | 2026-08-31 10:51:08 | 53.08904 | 8.08454 | 11° | 13km/h | 20959m | 4.8m/s | -51.9°C | 4.2% | 49.8hPa | 2.6V | 00:00:00 | 00:00:00 | 08:30:00 | |
| EDDB2-12 | 2026-08-31 10:51:07 | 53.08900 | 8.08453 | 4° | 13km/h | 20953m | 6.1m/s | -51.9°C | 1.3% | 49.9hPa | 2.6V | 00:00:00 | 00:00:00 | 00:00:00 | |
| DL1XH-15 | 2026-08-31 10:51:06 | 53.08889 | 8.08453 | 13° | 15km/h | 20928m | 5.4m/s | -51.8°C | 4.2% | 50.1hPa | 2.6V | 08:30:00 | 01:19:25 | 00:00:00 | |
| AA1-15 | 2026-08-31 10:51:06 | 53.08889 | 8.08453 | 13° | 15km/h | 20928m | 5.4m/s | -51.8°C | 1% | 50.1hPa | 2.6V | 18:12:15 | 01:19:25 | 00:00:00 | |
| DO2JMG | 2026-08-31 10:51:05 | 53.08894 | 8.08454 | 355° | 9km/h | 20940m | 5.1m/s | -51.9°C | 1% | 50hPa | 2.7V | 18:12:15 | 01:19:27 | 00:00:00 | |
| HSKMA3-T | 2026-08-31 10:51:02 | 53.08885 | 8.08451 | 27° | 16km/h | 20924m | 4.2m/s | -51.8°C | 1% | 50.1hPa | 2.6V | 18:12:15 | 01:19:24 | 00:00:00 | |
| DJ2DS-15 | 2026-08-31 10:51:02 | 53.08885 | 8.08451 | 27° | 18km/h | 20924m | 4.2m/s | -51.7°C | 4.2% | 50.1hPa | 2.6V | 00:00:00 | 01:19:24 | 08:30:00 | |
| DD8BA-10 | 2026-08-31 10:51:01 | 53.08881 | 8.08447 | 40° | 18km/h | 20919m | 5.6m/s | -51.8°C | 4.2% | 50.1hPa | 2.7V | 00:00:00 | 00:00:00 | 08:30:00 | |
| DO2SHX-10 | 2026-08-31 10:51:00 | 53.08878 | 8.08442 | 52° | 16km/h | 20913m | 6.3m/s | -51.7°C | 4.2% | 50.2hPa | 2.6V | 00:00:00 | 01:19:22 | 00:00:00 | |
| DF5WG-10 | 2026-08-31 10:50:59 | 53.08875 | 8.08435 | 58° | 24km/h | 20907m | 5.2m/s | -51.7°C | 4.1% | 50.2hPa | 2.6V | 00:00:00 | 01:19:21 | 00:00:00 | |
| GOEST3-10 | 2026-08-31 10:50:58 | 53.08872 | 8.08428 | 54° | 18km/h | 20901m | 6.1m/s | -51.7°C | 4.1% | 50.3hPa | 2.6V | 00:00:00 | 00:00:00 | 00:00:00 | |
| DB0DAN | 2026-08-31 10:50:55 | 53.08864 | 8.08407 | 67° | 16km/h | 20885m | 7m/s | -51.8°C | 1.3% | 50.43hPa | 2.6V | 00:00:00 | 00:00:00 | 00:00:00 | |
| DC4HF-4 | 2026-08-31 10:50:55 | 53.08863 | 8.08401 | 72° | 15km/h | 20879m | 4.9m/s | -51.8°C | 1.3% | 50.5hPa | 2.7V | 00:00:00 | 00:00:00 | 00:00:00 | |
| DL1XH-15 | 2026-08-31 10:50:54 | 53.08862 | 8.08395 | 66° | 15km/h | 20873m | 6m/s | -51.7°C | 4.1% | 50.5hPa | 2.7V | 08:30:00 | 01:19:15 | 00:00:00 | |
| DO2JMG | 2026-08-31 10:50:54 | 53.08863 | 8.08401 | 72° | 16km/h | 20878m | 4.9m/s | -51.8°C | 1% | 50.5hPa | 2.6V | 18:12:15 | 01:19:16 | 00:00:00 | |
| BIOWL1-15 | 2026-08-31 10:50:53 | 53.08862 | 8.08395 | 66° | 15km/h | 20873m | 6m/s | -51.7°C | 0.9% | 50.5hPa | 2.7V | 18:12:15 | 01:19:15 | 00:00:00 | |
| HSKMA3-T | 2026-08-31 10:50:52 | 53.08860 | 8.08389 | 59° | 15km/h | 20867m | 6.1m/s | -51.7°C | 1% | 50.6hPa | 2.7V | 18:12:15 | 01:19:14 | 00:00:00 | |
| DD8BA-10 | 2026-08-31 10:50:51 | 53.08858 | 8.08384 | 57° | 18km/h | 20862m | 5.1m/s | -51.6°C | 4.1% | 50.6hPa | 2.7V | 00:00:00 | 00:00:00 | 00:00:00 | |
| DL4XJ-10 | 2026-08-31 10:50:50 | 53.08856 | 8.08378 | 63° | 20km/h | 20856m | 6.4m/s | -51.0°C | 0% | 0hPa | 2.7V | 00:00:00 | 00:00:00 | 00:00:00 | |
| DM0DOS-11 | 2026-08-31 10:50:49 | 53.08853 | 8.08366 | 76° | 16km/h | 20844m | 4.8m/s | -51.6°C | 4.1% | 50.8hPa | 2.7V | 08:30:00 | 01:19:10 | 00:00:00 | |
| DL1XH1-15 | 2026-08-31 10:50:49 | 53.08854 | 8.08372 | 72° | 16km/h | 20849m | 6m/s | -51.6°C | 4.1% | 50.7hPa | 2.7V | 08:30:00 | 01:19:11 | 00:00:00 | |
| DO2JMG | 2026-08-31 10:50:44 | 53.08846 | 8.08339 | 68° | 20km/h | 20821m | 7m/s | -51.6°C | 1% | 51hPa | 2.7V | 18:12:15 | 01:19:06 | 00:00:00 | |
| DL1XH-west | 2026-08-31 10:50:43 | 53.08844 | 8.08331 | 68° | 24km/h | 20815m | 5.6m/s | -51.6°C | 1% | 51hPa | 2.7V | 18:12:15 | 01:19:05 | 00:00:00 | |
| BIOWL1-15 | 2026-08-31 10:50:42 | 53.08842 | 8.08321 | 66° | 26km/h | 20810m | 4.7m/s | -51.6°C | 1% | 51hPa | 2.7V | 18:12:15 | 01:19:04 | 00:00:00 | |
| HSKMA3-T | 2026-08-31 10:50:41 | 53.08839 | 8.08311 | 64° | 26km/h | 20804m | 6.5m/s | -51.6°C | 1% | 51.1hPa | 2.6V | 18:12:15 | 01:19:03 | 00:00:00 | |
| DB0DAN | 2026-08-31 10:50:40 | 53.08836 | 8.08302 | 60° | 26km/h | 20798m | 4.8m/s | -51.5°C | 1.3% | 51.14hPa | 2.6V | 00:00:00 | 00:00:00 | 00:00:00 | |
| DO9LL-15 | 2026-08-31 10:50:40 | 53.08836 | 8.08301 | 61° | 24km/h | 20799m | 4.7m/s | -51.5°C | 4.2% | 51.1hPa | 2.6V | 00:00:00 | 01:19:02 | 00:00:00 | |
| DL1XH-15 | 2026-08-31 10:50:37 | 53.08818 | 8.08248 | 58° | 16km/h | 20758m | 6m/s | -51.4°C | 4.1% | 51.5hPa | 2.6V | 08:30:00 | 01:18:55 | 00:00:00 | |
| DO2JMG | 2026-08-31 10:50:34 | 53.08820 | 8.08254 | 56° | 16km/h | 20764m | 5.6m/s | -51.4°C | 1% | 51.4hPa | 2.6V | 18:12:15 | 01:18:56 | 00:00:00 | |
| BIOWL1-15 | 2026-08-31 10:50:34 | 53.08784 | 8.08153 | 49° | 24km/h | 20695m | 6.5m/s | -51.2°C | 0.8% | 52hPa | 2.6V | 18:12:15 | 01:18:44 | 00:00:00 | |
| DL1XH-west | 2026-08-31 10:50:33 | 53.08803 | 8.08201 | 70° | 27km/h | 20723m | 4.9m/s | -51.3°C | 0.9% | 51.7hPa | 2.6V | 18:12:15 | 01:18:49 | 00:00:00 | |
| DK9SH | 2026-08-31 10:50:33 | 53.08818 | 8.08248 | 60° | 16km/h | 20758m | 6.0m/s | -51.4°C | 1.3% | 51.5hPa | 2.6V | 00:00:00 | 00:00:00 | 00:00:00 | |
| AA1-15 | 2026-08-31 10:50:33 | 53.08805 | 8.08212 | 70° | 26km/h | 20729m | 6.2m/s | -51.3°C | 0.9% | 51.7hPa | 2.6V | 18:12:15 | 01:18:50 | 00:00:00 | |
| DM0DOS-11 | 2026-08-31 10:50:32 | 53.08805 | 8.08212 | 69° | 26km/h | 20729m | 6.2m/s | -51.3°C | 4% | 51.7hPa | 2.6V | 08:30:00 | 01:18:50 | 00:00:00 | |
| HSKMA3-T | 2026-08-31 10:50:32 | 53.08810 | 8.08230 | 56° | 20km/h | 20740m | 4.1m/s | -51.3°C | 0.9% | 51.6hPa | 2.7V | 18:12:15 | 01:18:52 | 00:00:00 | |
| DF5WG-10 | 2026-08-31 10:50:26 | 53.08800 | 8.08190 | 67° | 26km/h | 20718m | 6.1m/s | -51.3°C | 4.0% | 51.7hPa | 2.7V | 00:00:00 | 01:18:48 | 08:30:00 | |
| GOEST3-10 | 2026-08-31 10:50:25 | 53.08797 | 8.08179 | 58° | 26km/h | 20712m | 5.7m/s | -51.2°C | 4.0% | 51.8hPa | 2.7V | 00:00:00 | 00:00:00 | 00:00:00 | |
| DB0DAN | 2026-08-31 10:50:25 | 53.08797 | 8.08179 | 58° | 27km/h | 20712m | 5.8m/s | -51.3°C | 1.3% | 51.83hPa | 2.7V | 00:00:00 | 00:00:00 | 00:00:00 | |
| DL1XH1-15 | 2026-08-31 10:50:24 | 53.08772 | 8.08134 | 34° | 22km/h | 20677m | 5.5m/s | -51.2°C | 3.9% | 52.1hPa | 2.7V | 08:30:00 | 01:18:41 | 00:00:00 | |
| DL1XH-15 | 2026-08-31 10:50:23 | 53.08788 | 8.08161 | 49° | 26km/h | 20701m | 5.4m/s | -51.3°C | 4% | 51.9hPa | 2.6V | 08:30:00 | 01:18:45 | 00:00:00 | |
| DO2JMG | 2026-08-31 10:50:23 | 53.08788 | 8.08161 | 49° | 26km/h | 20701m | 5.4m/s | -51.3°C | 0.9% | 51.9hPa | 2.6V | 18:12:15 | 01:18:45 | 00:00:00 | |
| DL1XH-west | 2026-08-31 10:50:21 | 53.08780 | 8.08146 | 48° | 22km/h | 20690m | 5.1m/s | -51.2°C | 0.9% | 52hPa | 2.6V | 18:12:15 | 01:18:43 | 00:00:00 | |
| HSKMA3-T | 2026-08-31 10:50:20 | 53.08776 | 8.08140 | 39° | 22km/h | 20683m | 7.3m/s | -51.2°C | 0.8% | 52hPa | 2.7V | 18:12:15 | 01:18:42 | 00:00:00 | |
| AA1-15 | 2026-08-31 10:50:19 | 53.08772 | 8.08134 | 34° | 22km/h | 20677m | 5.5m/s | -51.2°C | 0.9% | 52.1hPa | 2.7V | 18:12:15 | 01:18:41 | 00:00:00 | |
| DC4HF-4 | 2026-08-31 10:50:19 | 53.08767 | 8.08129 | 37° | 22km/h | 20672m | 5.0m/s | -51.2°C | 1.2% | 52.2hPa | 2.6V | 00:00:00 | 00:00:00 | 00:00:00 | |
| DO2SHX-10 | 2026-08-31 10:50:17 | 53.08763 | 8.08122 | 46° | 24km/h | 20666m | 7.1m/s | -51.2°C | 3.9% | 52.1hPa | 2.6V | 00:00:00 | 01:18:39 | 00:00:00 | |
| DF8AY-15 | 2026-08-31 10:50:16 | 53.08759 | 8.08115 | 53° | 27km/h | 20659m | 4.9m/s | -51.3°C | 4.0% | 52.2hPa | 2.6V | 00:00:00 | 01:18:38 | 00:00:00 | |
| DF5WG-10 | 2026-08-31 10:50:15 | 53.08755 | 8.08107 | 52° | 29km/h | 20654m | 5.9m/s | -51.3°C | 4.0% | 52.2hPa | 2.6V | 00:00:00 | 01:18:37 | 00:00:00 | |
| DL1XH-15 | 2026-08-31 10:50:13 | 53.08746 | 8.08088 | 50° | 31km/h | 20642m | 5.2m/s | -51.5°C | 4% | 52.4hPa | 2.6V | 08:30:00 | 01:18:35 | 00:00:00 | |
| DO2JMG | 2026-08-31 10:50:13 | 53.08746 | 8.08088 | 50° | 31km/h | 20642m | 5.2m/s | -51.5°C | 0.9% | 52.4hPa | 2.6V | 18:12:15 | 01:18:35 | 00:00:00 | |
| DL8DAS-14 | 2026-08-31 10:50:13 | 53.08741 | 8.08078 | 52° | 31km/h | 20636m | 6.5m/s | -51.5°C | 1.3% | 52.4hPa | 2.6V | 00:00:00 | 00:00:00 | 00:00:00 | |
| DL1XH1-15 | 2026-08-31 10:50:12 | 53.08725 | 8.08051 | 34° | 29km/h | 20619m | 6.1m/s | -51.8°C | 4.1% | 52.6hPa | 2.6V | 08:30:00 | 01:18:31 | 00:00:00 | |
| DL1XH-west | 2026-08-31 10:50:11 | 53.08736 | 8.08068 | 48° | 29km/h | 20631m | 4.9m/s | -51.6°C | 0.9% | 52.5hPa | 2.7V | 18:12:15 | 01:18:33 | 00:00:00 | |
| HSKMA3-T | 2026-08-31 10:50:10 | 53.08731 | 8.08059 | 41° | 31km/h | 20625m | 6m/s | -51.7°C | 0.9% | 52.5hPa | 2.6V | 18:12:15 | 01:18:32 | 00:00:00 | |
| DB0DAN | 2026-08-31 10:50:10 | 53.08731 | 8.08059 | 41° | 29km/h | 20625m | 6m/s | -51.7°C | 1.3% | 52.53hPa | 2.6V | 00:00:00 | 00:00:00 | 00:00:00 | |
| DF8AY | 2026-08-31 10:50:09 | 53.08725 | 8.08051 | 35° | 31km/h | 20619m | 6.1m/s | -51.8°C | 1% | 52.6hPa | 2.6V | 18:12:15 | 01:18:31 | 00:00:00 | |
| AA1-15 | 2026-08-31 10:50:09 | 53.08707 | 8.08036 | 22° | 20km/h | 20601m | 5m/s | -52°C | 1% | 52.7hPa | 2.6V | 18:12:15 | 01:18:28 | 00:00:00 | |
| DL1XH-15 | 2026-08-31 10:50:08 | 53.08692 | 8.08028 | 22° | 24km/h | 20586m | 4.6m/s | -52°C | 4.1% | 52.8hPa | 2.7V | 08:30:00 | 01:18:25 | 00:00:00 | |
| DL1XH1-15 | 2026-08-31 10:50:07 | 53.08660 | 8.07982 | 38° | 35km/h | 20554m | 4m/s | -52°C | 4.1% | 53.1hPa | 2.7V | 08:30:00 | 01:18:19 | 00:00:00 | |
| DO2JMG | 2026-08-31 10:50:02 | 53.08687 | 8.08024 | 33° | 24km/h | 20581m | 5.7m/s | -52°C | 0.9% | 52.9hPa | 2.7V | 18:12:15 | 01:18:24 | 00:00:00 | |
| BIOWL1-15 | 2026-08-31 10:50:01 | 53.08682 | 8.08018 | 42° | 26km/h | 20575m | 6m/s | -52°C | 1% | 53hPa | 2.7V | 18:12:15 | 01:18:23 | 00:00:00 | |
| HSKMA3-T | 2026-08-31 10:49:59 | 53.08672 | 8.08001 | 46° | 31km/h | 20565m | 6.3m/s | -52°C | 1% | 53hPa | 2.6V | 18:12:15 | 01:18:21 | 00:00:00 | |
| AA1-15 | 2026-08-31 10:49:59 | 53.08666 | 8.07991 | 43° | 33km/h | 20558m | 5.3m/s | -52°C | 1% | 53.1hPa | 2.6V | 18:12:15 | 01:18:20 | 00:00:00 | |
| DF5WG-10 | 2026-08-31 10:49:58 | 53.08666 | 8.07991 | 43° | 27km/h | 20559m | 5.3m/s | -52.0°C | 4.1% | 53.0hPa | 2.7V | 00:00:00 | 01:18:20 | 00:00:00 | |
| DF8AY-15 | 2026-08-31 10:49:56 | 53.08653 | 8.07973 | 40° | 22km/h | 20549m | 6.0m/s | -51.9°C | 4.1% | 53.1hPa | 2.7V | 00:00:00 | 01:18:18 | 00:00:00 | |
| DL1XH-15 | 2026-08-31 10:49:55 | 53.08637 | 8.07950 | 37° | 26km/h | 20531m | 6.7m/s | -52°C | 4.1% | 53.3hPa | 2.6V | 08:30:00 | 01:18:15 | 00:00:00 | |
| DB0DAN | 2026-08-31 10:49:55 | 53.08648 | 8.07965 | 42° | 27km/h | 20543m | 5.8m/s | -52°C | 1.3% | 53.2hPa | 2.7V | 00:00:00 | 00:00:00 | 00:00:00 | |
| DO2JMG | 2026-08-31 10:49:52 | 53.08632 | 8.07944 | 34° | 24km/h | 20526m | 5m/s | -52°C | 1% | 53.3hPa | 2.6V | 18:12:15 | 01:18:14 | 00:00:00 | |
| DL1XH-west | 2026-08-31 10:49:50 | 53.08625 | 8.07935 | 44° | 16km/h | 20514m | 6.4m/s | -52.1°C | 1% | 53.5hPa | 2.7V | 18:12:15 | 01:18:12 | 00:00:00 | |
| HSKMA3-T | 2026-08-31 10:49:48 | 53.08620 | 8.07925 | 51° | 16km/h | 20503m | 5.8m/s | -52.2°C | 1.1% | 53.5hPa | 2.6V | 18:12:15 | 01:18:10 | 00:00:00 | |
| DL1XH1-15 | 2026-08-31 10:49:47 | 53.08617 | 8.07920 | 51° | 18km/h | 20497m | 5.8m/s | -52.2°C | 4.2% | 53.6hPa | 2.6V | 08:30:00 | 01:18:09 | 00:00:00 | |
| SONCRA | 2026-08-31 10:49:46 | 53.08614 | 8.07913 | 54° | 22km/h | 20492m | 4.3m/s | -52.2°C | 1.3% | 53.6hPa | 2.6V | 00:00:00 | 00:00:00 | 00:00:00 | |
| DL3AQ-11 | 2026-08-31 10:49:45 | 53.08608 | 8.07896 | 61° | 26km/h | 20481m | 4.7m/s | -52.3°C | 1.3% | 53.7hPa | 2.6V | 00:00:00 | 00:00:00 | 00:00:00 | |
| HTAHTA | 2026-08-31 10:49:44 | 53.08600 | 8.07877 | 51° | 27km/h | 20470m | 5.8m/s | -52.3°C | 1.4% | 53.8hPa | 2.6V | 00:00:00 | 00:00:00 | 00:00:00 | |
| DL1XH1-15 | 2026-08-31 10:49:42 | 53.08582 | 8.07839 | 30° | 13km/h | 20437m | 5.6m/s | -52.3°C | 4.2% | 54.1hPa | 2.6V | 08:30:00 | 01:17:58 | 00:00:00 | |
| DO2JMG | 2026-08-31 10:49:41 | 53.08596 | 8.07868 | 50° | 26km/h | 20464m | 5m/s | -52.3°C | 1% | 53.9hPa | 2.6V | 18:12:15 | 01:18:03 | 00:00:00 | |
| DB0DAN | 2026-08-31 10:49:40 | 53.08592 | 8.07860 | 55° | 22km/h | 20458m | 7.2m/s | -52.3°C | 1.4% | 53.91hPa | 2.6V | 00:00:00 | 00:00:00 | 00:00:00 | |
| BIOWL1-15 | 2026-08-31 10:49:40 | 53.08592 | 8.07860 | 55° | 22km/h | 20458m | 7.2m/s | -52.3°C | 1.1% | 53.9hPa | 2.6V | 18:12:15 | 01:18:02 | 00:00:00 | |
| DL1XH-west | 2026-08-31 10:49:39 | 53.08589 | 8.07853 | 57° | 18km/h | 20452m | 4.4m/s | -52.3°C | 1% | 54hPa | 2.7V | 18:12:15 | 01:18:01 | 00:00:00 | |
| DF8AY | 2026-08-31 10:49:38 | 53.08587 | 8.07847 | 54° | 15km/h | 20448m | 3.8m/s | -52.3°C | 1.1% | 54hPa | 2.7V | 18:12:15 | 01:18:00 | 00:00:00 | |
| AA1-15 | 2026-08-31 10:49:38 | 53.08579 | 8.07836 | 25° | 13km/h | 20432m | 5.3m/s | -52.3°C | 1% | 54.1hPa | 2.7V | 18:12:15 | 01:17:57 | 00:00:00 | |
| HSKMA3-T | 2026-08-31 10:49:37 | 53.08576 | 8.07834 | 34° | 11km/h | 20426m | 7m/s | -52.3°C | 1.1% | 54.2hPa | 2.7V | 18:12:15 | 01:17:56 | 00:00:00 | |
| DO2JMG | 2026-08-31 10:49:30 | 53.08567 | 8.07824 | 30° | 15km/h | 20403m | 4.6m/s | -52.4°C | 1.1% | 54.4hPa | 2.7V | 18:12:15 | 01:17:52 | 00:00:00 | |
| DF8AY | 2026-08-31 10:49:29 | 53.08561 | 8.07816 | 42° | 16km/h | 20392m | 4.4m/s | -52.3°C | 1.1% | 54.5hPa | 2.6V | 18:12:15 | 01:17:50 | 00:00:00 | |
| DM0DOS-11 | 2026-08-31 10:49:29 | 53.08553 | 8.07808 | 27° | 18km/h | 20381m | 6.3m/s | -52.3°C | 4.3% | 54.6hPa | 2.7V | 08:30:00 | 01:17:48 | 00:00:00 | |
| DL1XH-15 | 2026-08-31 10:49:28 | 53.08540 | 8.07798 | 28° | 20km/h | 20364m | 4.8m/s | -52.3°C | 4.3% | 54.7hPa | 2.6V | 08:30:00 | 01:17:45 | 00:00:00 | |
| HSKMA3-T | 2026-08-31 10:49:27 | 53.08557 | 8.07812 | 34° | 18km/h | 20387m | 5.8m/s | -52.4°C | 1.1% | 54.5hPa | 2.7V | 18:12:15 | 01:17:49 | 00:00:00 | |
| DF4FW | 2026-08-31 10:49:26 | 53.08558 | 8.07812 | 35° | 18km/h | 20387m | 5.8m/s | -52.4°C | 1.4% | 54.5hPa | 2.6V | 00:00:00 | 00:00:00 | 00:00:00 | |
| DB0DAN | 2026-08-31 10:49:25 | 53.08549 | 8.07805 | 23° | 20km/h | 20376m | 4.6m/s | -52.3°C | 1.4% | 54.63hPa | 2.6V | 00:00:00 | 00:00:00 | 00:00:00 | |
| AA1-15 | 2026-08-31 10:49:24 | 53.08544 | 8.07801 | 26° | 20km/h | 20370m | 6.8m/s | -52.3°C | 1.1% | 54.7hPa | 2.6V | 18:12:15 | 01:17:46 | 00:00:00 | |
| DO2SHX-10 | 2026-08-31 10:49:23 | 53.08540 | 8.07798 | 29° | 20km/h | 20364m | 4.7m/s | -52.3°C | 4.3% | 54.7hPa | 2.7V | 00:00:00 | 01:17:45 | 00:00:00 | |
| DJ2DS-15 | 2026-08-31 10:49:22 | 53.08535 | 8.07794 | 26° | 27km/h | 20359m | 5.5m/s | -52.2°C | 4.3% | 54.7hPa | 2.7V | 00:00:00 | 01:17:44 | 00:00:00 | |
| DL1XH1-15 | 2026-08-31 10:49:21 | 53.08502 | 8.07762 | 35° | 29km/h | 20326m | 6.2m/s | -52.1°C | 4.2% | 55.1hPa | 2.7V | 08:30:00 | 01:17:38 | 00:00:00 | |
| BIOWL1-15 | 2026-08-31 10:49:19 | 53.08496 | 8.07755 | 37° | 31km/h | 20320m | 4.6m/s | -52.1°C | 1.1% | 55.1hPa | 2.7V | 18:12:15 | 01:17:37 | 00:00:00 | |
| DO2JMG | 2026-08-31 10:49:19 | 53.08519 | 8.07781 | 30° | 26km/h | 20342m | 6.5m/s | -52.2°C | 1.1% | 54.9hPa | 2.6V | 18:12:15 | 01:17:41 | 00:00:00 | |
| DL1XH-west | 2026-08-31 10:49:18 | 53.08513 | 8.07775 | 35° | 26km/h | 20337m | 4.9m/s | -52.2°C | 1.1% | 55hPa | 2.6V | 18:12:15 | 01:17:40 | 00:00:00 | |
| DL3AQ-11 | 2026-08-31 10:49:18 | 53.08508 | 8.07769 | 34° | 27km/h | 20332m | 5.6m/s | -52.2°C | 1.3% | 55.0hPa | 2.6V | 00:00:00 | 00:00:00 | 00:00:00 | |
| DL1XH-15 | 2026-08-31 10:49:17 | 53.08485 | 8.07740 | 37° | 26km/h | 20309m | 4.7m/s | -52°C | 4.2% | 55.2hPa | 2.6V | 08:30:00 | 01:17:35 | 00:00:00 | |
| HSKMA3-T | 2026-08-31 10:49:17 | 53.08508 | 8.07769 | 35° | 27km/h | 20331m | 5.6m/s | -52.2°C | 1% | 55hPa | 2.6V | 18:12:15 | 01:17:39 | 00:00:00 | |
| AA1-15 | 2026-08-31 10:49:13 | 53.08484 | 8.07740 | 38° | 27km/h | 20309m | 4.7m/s | -52°C | 1% | 55.2hPa | 2.6V | 18:12:15 | 01:17:35 | 00:00:00 | |
| HTAHTA | 2026-08-31 10:49:13 | 53.08479 | 8.07733 | 33° | 26km/h | 20304m | 5.9m/s | -52.0°C | 1.3% | 55.2hPa | 2.7V | 00:00:00 | 00:00:00 | 00:00:00 | |
| DB0DAN | 2026-08-31 10:49:10 | 53.08467 | 8.07724 | 19° | 26km/h | 20292m | 5m/s | -52°C | 1.3% | 55.32hPa | 2.7V | 00:00:00 | 00:00:00 | 00:00:00 | |
| DO9LL-15 | 2026-08-31 10:49:10 | 53.08467 | 8.07724 | 20° | 31km/h | 20293m | 5.0m/s | -51.9°C | 4.1% | 55.3hPa | 2.6V | 00:00:00 | 01:17:32 | 00:00:00 | |
| DM0DOS-11 | 2026-08-31 10:49:09 | 53.08444 | 8.07707 | 29° | 29km/h | 20271m | 6.5m/s | -52°C | 4.2% | 55.5hPa | 2.6V | 08:30:00 | 01:17:28 | 00:00:00 | |
| DO2JMG | 2026-08-31 10:49:09 | 53.08461 | 8.07720 | 19° | 24km/h | 20287m | 6m/s | -52°C | 1% | 55.4hPa | 2.7V | 18:12:15 | 01:17:31 | 00:00:00 | |
| DL1XH-west | 2026-08-31 10:49:08 | 53.08437 | 8.07700 | 32° | 35km/h | 20266m | 4.7m/s | -51.9°C | 1% | 55.5hPa | 2.6V | 18:12:15 | 01:17:27 | 00:00:00 | |
| HSKMA3-T | 2026-08-31 10:49:07 | 53.08444 | 8.07707 | 29° | 29km/h | 20271m | 6.5m/s | -52°C | 1% | 55.5hPa | 2.6V | 18:12:15 | 01:17:28 | 00:00:00 | |
| BIOWL1-15 | 2026-08-31 10:49:04 | 53.08430 | 8.07692 | 34° | 35km/h | 20260m | 7.1m/s | -51.9°C | 1% | 55.6hPa | 2.7V | 18:12:15 | 01:17:26 | 00:00:00 | |
| DL1XH-15 | 2026-08-31 10:49:04 | 53.08422 | 8.07684 | 35° | 35km/h | 20253m | 5.5m/s | -51.8°C | 4.1% | 55.6hPa | 2.7V | 08:30:00 | 01:17:25 | 00:00:00 | |
| AA1-15 | 2026-08-31 10:49:02 | 53.08415 | 8.07675 | 34° | 37km/h | 20247m | 6.4m/s | -51.8°C | 0.9% | 55.7hPa | 2.7V | 18:12:15 | 01:17:24 | 00:00:00 | |
| DO2JMG | 2026-08-31 10:49:00 | 53.08392 | 8.07651 | 32° | 33km/h | 20231m | 6.9m/s | -51.8°C | 0.9% | 55.8hPa | 2.6V | 18:12:15 | 01:17:21 | 00:00:00 | |
| DL1XH1-15 | 2026-08-31 10:48:58 | 53.08373 | 8.07633 | 24° | 29km/h | 20214m | 6.4m/s | -51.7°C | 4.1% | 56hPa | 2.7V | 08:30:00 | 01:17:18 | 00:00:00 | |
| DO2SHX-10 | 2026-08-31 10:48:58 | 53.08385 | 8.07644 | 31° | 27km/h | 20225m | 4.6m/s | -51.7°C | 4.1% | 55.9hPa | 2.6V | 00:00:00 | 01:17:20 | 00:00:00 | |
| DO2LYB-13 | 2026-08-31 10:48:56 | 53.08379 | 8.07639 | 29° | 27km/h | 20220m | 5.5m/s | -51.7°C | 1.3% | 55.9hPa | 2.6V | 00:00:00 | 00:00:00 | 00:00:00 | |
| DB0DAN | 2026-08-31 10:48:55 | 53.08366 | 8.07628 | 24° | 27km/h | 20208m | 5.4m/s | -51.7°C | 1.3% | 56.04hPa | 2.6V | 00:00:00 | 00:00:00 | 00:00:00 | |
| DL1XH-west | 2026-08-31 10:48:55 | 53.08366 | 8.07628 | 24° | 29km/h | 20208m | 5.4m/s | -51.7°C | 0.9% | 56hPa | 2.6V | 18:12:15 | 01:17:17 | 00:00:00 | |
| AA1-15 | 2026-08-31 10:48:52 | 53.08347 | 8.07613 | 25° | 31km/h | 20190m | 5.2m/s | -52.1°C | 1% | 56.2hPa | 2.7V | 18:12:15 | 01:17:14 | 00:00:00 | |
| DO2JMG | 2026-08-31 10:48:48 | 53.08315 | 8.07588 | 30° | 33km/h | 20168m | 5.9m/s | -52.2°C | 1.1% | 56.4hPa | 2.7V | 18:12:15 | 01:17:10 | 00:00:00 | |
| DF8AY | 2026-08-31 10:48:45 | 53.08294 | 8.07568 | 28° | 33km/h | 20152m | 6.3m/s | -52.1°C | 1% | 56.5hPa | 2.6V | 18:12:15 | 01:17:07 | 00:00:00 | |
| HSKMA3-T | 2026-08-31 10:48:44 | 53.08287 | 8.07562 | 27° | 33km/h | 20146m | 4.8m/s | -52°C | 1.1% | 56.6hPa | 2.7V | 18:12:15 | 01:17:06 | 00:00:00 | |
| AA1-15 | 2026-08-31 10:48:41 | 53.08267 | 8.07546 | 21° | 26km/h | 20129m | 4.6m/s | -51.9°C | 1.1% | 56.8hPa | 2.6V | 18:12:15 | 01:17:03 | 00:00:00 | |
| DB0DAN | 2026-08-31 10:48:40 | 53.08260 | 8.07543 | 19° | 26km/h | 20124m | 6.3m/s | -51.8°C | 1.3% | 56.8hPa | 2.7V | 00:00:00 | 00:00:00 | 00:00:00 | |
| DO2JMG | 2026-08-31 10:48:37 | 53.08242 | 8.07533 | 20° | 22km/h | 20106m | 5m/s | -51.7°C | 1.1% | 57hPa | 2.6V | 18:12:15 | 01:16:59 | 00:00:00 | |
| DF8AY | 2026-08-31 10:48:35 | 53.08205 | 8.07510 | 23° | 20km/h | 20071m | 4.4m/s | -51.4°C | 1% | 57.3hPa | 2.7V | 18:12:15 | 01:16:52 | 00:00:00 | |
| BIOWL1-15 | 2026-08-31 10:48:33 | 53.08214 | 8.07517 | 21° | 22km/h | 20081m | 6.4m/s | -51.5°C | 1% | 57.2hPa | 2.6V | 18:12:15 | 01:16:54 | 00:00:00 | |
| EDDB2-12 | 2026-08-31 10:48:33 | 53.08214 | 8.07517 | 21° | 22km/h | 20081m | 6.4m/s | -51.5°C | 1.3% | 57.2hPa | 2.7V | 00:00:00 | 00:00:00 | 00:00:00 | |
| AA1-15 | 2026-08-31 10:48:32 | 53.08210 | 8.07514 | 24° | 18km/h | 20075m | 4.9m/s | -51.4°C | 0.9% | 57.2hPa | 2.7V | 18:12:15 | 01:16:53 | 00:00:00 | |
| DD8BA-10 | 2026-08-31 10:48:31 | 53.08210 | 8.07514 | 24° | 20km/h | 20076m | 4.9m/s | -51.4°C | 4.1% | 57.2hPa | 2.7V | 00:00:00 | 00:00:00 | 00:00:00 | |
| GOEST3-10 | 2026-08-31 10:48:30 | 53.08205 | 8.07510 | 23° | 20km/h | 20071m | 4.4m/s | -51.3°C | 4.1% | 57.2hPa | 2.7V | 00:00:00 | 01:16:52 | 00:00:00 | |
| DD1CC3-15 | 2026-08-31 10:48:29 | 53.08205 | 8.07510 | 24° | 20km/h | 20071m | 4.4m/s | -51.4°C | 1.4% | 57.3hPa | 2.7V | 00:00:00 | 00:00:00 | 00:00:00 | |
| DL1XH-15 | 2026-08-31 10:48:28 | 53.08171 | 8.07485 | 21° | 20km/h | 20031m | 6.3m/s | -51°C | 4% | 57.6hPa | 2.7V | 08:30:00 | 01:16:45 | 00:00:00 | |
| DO2JMG | 2026-08-31 10:48:27 | 53.08190 | 8.07502 | 23° | 22km/h | 20053m | 6.4m/s | -51.2°C | 0.9% | 57.4hPa | 2.6V | 18:12:15 | 01:16:49 | 00:00:00 | |
| DC6BW-12 | 2026-08-31 10:48:26 | 53.08190 | 8.07501 | 24° | 22km/h | 20054m | 6.4m/s | -51.2°C | 1.3% | 57.4hPa | 2.7V | 00:00:00 | 00:00:00 | 00:00:00 | |
| DB0DAN | 2026-08-31 10:48:25 | 53.08181 | 8.07493 | 32° | 20km/h | 20042m | 4.2m/s | -51.1°C | 1.3% | 57.52hPa | 2.7V | 00:00:00 | 00:00:00 | 00:00:00 | |
| DL1XH-west | 2026-08-31 10:48:22 | 53.08166 | 8.07482 | 15° | 24km/h | 20026m | 4.4m/s | -51°C | 0.9% | 57.7hPa | 2.6V | 18:12:15 | 01:16:44 | 00:00:00 | |
| AA1-15 | 2026-08-31 10:48:21 | 53.08161 | 8.07479 | 20° | 22km/h | 20020m | 6.4m/s | -51°C | 0.9% | 57.7hPa | 2.6V | 18:12:15 | 01:16:43 | 00:00:00 | |
| DF8AY | 2026-08-31 10:48:20 | 53.08156 | 8.07475 | 24° | 22km/h | 20014m | 6m/s | -50.9°C | 0.9% | 57.8hPa | 2.6V | 18:12:15 | 01:16:42 | 00:00:00 | |
| GOEST3-10 | 2026-08-31 10:48:20 | 53.08156 | 8.07475 | 25° | 20km/h | 20014m | 6.0m/s | -50.8°C | 4.0% | 57.7hPa | 2.6V | 00:00:00 | 01:16:42 | 00:00:00 | |
| DO2LYB-13 | 2026-08-31 10:48:19 | 53.08155 | 8.07475 | 25° | 22km/h | 20014m | 6.0m/s | -50.9°C | 1.3% | 57.8hPa | 2.7V | 00:00:00 | 00:00:00 | 00:00:00 | |
| DL1XH-15 | 2026-08-31 10:48:18 | 53.08126 | 8.07460 | 9° | 13km/h | 19974m | 7m/s | -50.7°C | 3.9% | 58.1hPa | 2.7V | 08:30:00 | 01:16:35 | 00:00:00 | |
| DO2JMG | 2026-08-31 10:48:17 | 53.08140 | 8.07468 | 13° | 18km/h | 19997m | 5.2m/s | -50.7°C | 0.8% | 57.9hPa | 2.7V | 18:12:15 | 01:16:39 | 00:00:00 | |
| HSKMA3-T | 2026-08-31 10:48:12 | 53.08123 | 8.07460 | 1° | 13km/h | 19968m | 4.5m/s | -50.7°C | 0.8% | 58.2hPa | 2.7V | 18:12:15 | 01:16:34 | 00:00:00 | |
| DL1XH-west | 2026-08-31 10:48:11 | 53.08120 | 8.07459 | 8° | 13km/h | 19963m | 6.7m/s | -50.7°C | 0.8% | 58.2hPa | 2.7V | 18:12:15 | 01:16:33 | 00:00:00 | |
| AA1-15 | 2026-08-31 10:48:10 | 53.08117 | 8.07458 | 11° | 13km/h | 19957m | 4.8m/s | -50.8°C | 0.8% | 58.3hPa | 2.6V | 18:12:15 | 01:16:32 | 00:00:00 | |
| DF8AY | 2026-08-31 10:48:10 | 53.08113 | 8.07458 | 2° | 15km/h | 19952m | 5.1m/s | -50.9°C | 0.8% | 58.3hPa | 2.6V | 18:12:15 | 01:16:31 | 00:00:00 | |
| DB0DAN | 2026-08-31 10:48:10 | 53.08117 | 8.07458 | 11° | 13km/h | 19957m | 4.8m/s | -50.8°C | 1.2% | 58.28hPa | 2.6V | 00:00:00 | 00:00:00 | 00:00:00 | |
| GOEST3-10 | 2026-08-31 10:48:10 | 53.08117 | 8.07458 | 11° | 16km/h | 19957m | 4.8m/s | -50.7°C | 3.9% | 58.2hPa | 2.6V | 00:00:00 | 01:16:32 | 00:00:00 | |
| DL4XJ-10 | 2026-08-31 10:48:08 | 53.08109 | 8.07458 | 359° | 13km/h | 19946m | 5.9m/s | -50.3°C | 0% | 0hPa | 2.6V | 00:00:00 | 00:00:00 | 00:00:00 | |
| DL1XH-15 | 2026-08-31 10:48:07 | 53.08086 | 8.07456 | 5° | 16km/h | 19918m | 6.5m/s | -51.1°C | 4% | 58.6hPa | 2.6V | 08:30:00 | 01:16:25 | 00:00:00 | |
| DO2JMG | 2026-08-31 10:48:06 | 53.08099 | 8.07459 | 359° | 20km/h | 19935m | 5.8m/s | -51°C | 0.8% | 58.5hPa | 2.7V | 18:12:15 | 01:16:28 | 00:00:00 | |
| HSKMA3-T | 2026-08-31 10:48:01 | 53.08079 | 8.07454 | 12° | 15km/h | 19907m | 6m/s | -51.2°C | 0.9% | 58.7hPa | 2.7V | 18:12:15 | 01:16:23 | 00:00:00 | |
| DL1XH-west | 2026-08-31 10:48:00 | 53.08075 | 8.07453 | 22° | 13km/h | 19900m | 6.5m/s | -51.2°C | 0.9% | 58.8hPa | 2.7V | 18:12:15 | 01:16:22 | 00:00:00 | |
| DF8AY | 2026-08-31 10:47:59 | 53.08072 | 8.07451 | 30° | 13km/h | 19894m | 5.2m/s | -51.2°C | 0.9% | 58.9hPa | 2.7V | 18:12:15 | 01:16:21 | 00:00:00 | |
| DL1XH-15 | 2026-08-31 10:47:59 | 53.08058 | 8.07436 | 48° | 11km/h | 19861m | 5.4m/s | -51.1°C | 4% | 59.1hPa | 2.7V | 08:30:00 | 01:16:15 | 00:00:00 | |
| DO2JMG | 2026-08-31 10:47:56 | 53.08064 | 8.07445 | 22° | 11km/h | 19878m | 3.8m/s | -51.2°C | 0.9% | 59hPa | 2.6V | 18:12:15 | 01:16:18 | 00:00:00 | |
| DB0DAN | 2026-08-31 10:47:55 | 53.08062 | 8.07443 | 34° | 11km/h | 19873m | 6.8m/s | -51.2°C | 1.3% | 59.04hPa | 2.7V | 00:00:00 | 00:00:00 | 00:00:00 | |
| HSKMA3-T | 2026-08-31 10:47:51 | 53.08054 | 8.07430 | 44° | 7km/h | 19849m | 3.9m/s | -51°C | 0.9% | 59.3hPa | 2.6V | 18:12:15 | 01:16:13 | 00:00:00 | |
| AA1-15 | 2026-08-31 10:47:50 | 53.08053 | 8.07428 | 56° | 7km/h | 19846m | 4.1m/s | -51°C | 0.8% | 59.3hPa | 2.6V | 18:12:15 | 01:16:12 | 00:00:00 | |
| DL1XH-west | 2026-08-31 10:47:49 | 53.08052 | 8.07425 | 69° | 9km/h | 19840m | 6.1m/s | -51°C | 0.8% | 59.3hPa | 2.7V | 18:12:15 | 01:16:11 | 00:00:00 | |
| DF8AY | 2026-08-31 10:47:48 | 53.08051 | 8.07421 | 68° | 11km/h | 19835m | 4.7m/s | -51°C | 0.9% | 59.4hPa | 2.7V | 18:12:15 | 01:16:10 | 00:00:00 | |
| DM0DOS-11 | 2026-08-31 10:47:48 | 53.08049 | 8.07414 | 52° | 9km/h | 19824m | 5.3m/s | -51.1°C | 3.9% | 59.5hPa | 2.6V | 08:30:00 | 01:16:08 | 00:00:00 | |
| DO2JMG | 2026-08-31 10:47:46 | 53.08048 | 8.07414 | 53° | 9km/h | 19824m | 5.3m/s | -51.1°C | 0.8% | 59.5hPa | 2.6V | 18:12:15 | 01:16:08 | 00:00:00 | |
| DL3AQ-11 | 2026-08-31 10:47:45 | 53.08046 | 8.07406 | 71° | 11km/h | 19812m | 7.1m/s | -51.1°C | 1.3% | 59.6hPa | 2.7V | 00:00:00 | 00:00:00 | 00:00:00 | |
| HSKMA3-T | 2026-08-31 10:47:41 | 53.08044 | 8.07391 | 79° | 11km/h | 19795m | 4.9m/s | -51.2°C | 0.9% | 59.8hPa | 2.7V | 18:12:15 | 01:16:03 | 00:00:00 | |
| DB0DAN | 2026-08-31 10:47:40 | 53.08044 | 8.07386 | 89° | 13km/h | 19790m | 4.4m/s | -51.4°C | 1.3% | 59.79hPa | 2.7V | 00:00:00 | 00:00:00 | 00:00:00 | |
| AA1-15 | 2026-08-31 10:47:40 | 53.08044 | 8.07386 | 89° | 13km/h | 19790m | 4.4m/s | -51.4°C | 0.9% | 59.8hPa | 2.7V | 18:12:15 | 01:16:02 | 00:00:00 | |
| BIOWL1-15 | 2026-08-31 10:47:39 | 53.08042 | 8.07355 | 71° | 15km/h | 19763m | 4.6m/s | -51.4°C | 0.9% | 60hPa | 2.6V | 18:12:15 | 01:15:57 | 00:00:00 | |
| DL1XH-west | 2026-08-31 10:47:39 | 53.08044 | 8.07381 | 92° | 15km/h | 19785m | 6.5m/s | -51.5°C | 0.9% | 59.8hPa | 2.6V | 18:12:15 | 01:16:01 | 00:00:00 | |
| DF8AY | 2026-08-31 10:47:38 | 53.08044 | 8.07374 | 92° | 16km/h | 19779m | 4.5m/s | -51.5°C | 1% | 59.9hPa | 2.6V | 18:12:15 | 01:16:00 | 00:00:00 | |
| DO2JMG | 2026-08-31 10:47:37 | 53.08043 | 8.07361 | 74° | 15km/h | 19768m | 5.3m/s | -51.4°C | 0.9% | 60hPa | 2.7V | 18:12:15 | 01:15:58 | 00:00:00 | |
| HSKMA3-T | 2026-08-31 10:47:31 | 53.08037 | 8.07333 | 53° | 15km/h | 19742m | 5.9m/s | -51.6°C | 1% | 60.2hPa | 2.6V | 18:12:15 | 01:15:53 | 00:00:00 | |
| AA1-15 | 2026-08-31 10:47:29 | 53.08032 | 8.07323 | 54° | 16km/h | 19732m | 6m/s | -51.6°C | 0.9% | 60.3hPa | 2.7V | 18:12:15 | 01:15:51 | 00:00:00 | |
| DL1XH-15 | 2026-08-31 10:47:28 | 53.08018 | 8.07261 | 79° | 35km/h | 19701m | 5.1m/s | -51.5°C | 4.1% | 60.6hPa | 2.7V | 08:30:00 | 01:15:45 | 00:00:00 | |
| DL1XH-west | 2026-08-31 10:47:28 | 53.08030 | 8.07317 | 64° | 20km/h | 19727m | 3.9m/s | -51.6°C | 1% | 60.4hPa | 2.7V | 18:12:15 | 01:15:50 | 00:00:00 | |
| DF8AY | 2026-08-31 10:47:27 | 53.08027 | 8.07309 | 64° | 24km/h | 19723m | 5.7m/s | -51.6°C | 1% | 60.5hPa | 2.6V | 18:12:15 | 01:15:49 | 00:00:00 | |
| DM0DOS-11 | 2026-08-31 10:47:26 | 53.08025 | 8.07299 | 67° | 27km/h | 19717m | 5.6m/s | -51.6°C | 4.2% | 60.5hPa | 2.6V | 08:30:00 | 01:15:48 | 00:00:00 | |
| BIOWL1-15 | 2026-08-31 10:47:25 | 53.08018 | 8.07261 | 79° | 35km/h | 19701m | 5.1m/s | -51.5°C | 1% | 60.6hPa | 2.7V | 18:12:15 | 01:15:45 | 00:00:00 | |
| DB0DAN | 2026-08-31 10:47:25 | 53.08022 | 8.07288 | 73° | 29km/h | 19712m | 4.1m/s | -51.6°C | 1.3% | 60.53hPa | 2.6V | 00:00:00 | 00:00:00 | 00:00:00 | |
| DO2JMG | 2026-08-31 10:47:25 | 53.08022 | 8.07288 | 73° | 31km/h | 19712m | 4.1m/s | -51.6°C | 1% | 60.5hPa | 2.6V | 18:12:15 | 01:15:47 | 00:00:00 | |
| HSKMA3-T | 2026-08-31 10:47:20 | 53.08011 | 8.07219 | 70° | 35km/h | 19686m | 4.1m/s | -51.4°C | 0.9% | 60.8hPa | 2.6V | 18:12:15 | 01:15:42 | 00:00:00 | |
| AA1-15 | 2026-08-31 10:47:19 | 53.08008 | 8.07206 | 70° | 33km/h | 19681m | 5.8m/s | -51.4°C | 0.9% | 60.8hPa | 2.6V | 18:12:15 | 01:15:41 | 00:00:00 | |
| DL1XH-15 | 2026-08-31 10:47:18 | 53.07991 | 8.07139 | 63° | 26km/h | 19647m | 5.7m/s | -51.1°C | 3.9% | 61.1hPa | 2.6V | 08:30:00 | 01:15:35 | 00:00:00 | |
| DL1XH-west | 2026-08-31 10:47:17 | 53.08003 | 8.07182 | 69° | 27km/h | 19670m | 5m/s | -51.3°C | 0.9% | 60.9hPa | 2.7V | 18:12:15 | 01:15:39 | 00:00:00 | |
| DO2JMG | 2026-08-31 10:47:14 | 53.07994 | 8.07149 | 64° | 27km/h | 19653m | 5.9m/s | -51.2°C | 0.9% | 61.1hPa | 2.6V | 18:12:15 | 01:15:36 | 00:00:00 | |
| DL1XH1-15 | 2026-08-31 10:47:11 | 53.07972 | 8.07071 | 63° | 27km/h | 19608m | 6.5m/s | -51.1°C | 3.9% | 61.5hPa | 2.7V | 08:30:00 | 01:15:28 | 00:00:00 | |
| DB0DAN | 2026-08-31 10:47:10 | 53.07983 | 8.07110 | 63° | 26km/h | 19630m | 4.8m/s | -51.1°C | 1.3% | 61.33hPa | 2.7V | 00:00:00 | 00:00:00 | 00:00:00 | |
| HSKMA3-T | 2026-08-31 10:47:09 | 53.07980 | 8.07100 | 64° | 26km/h | 19624m | 6.7m/s | -51.1°C | 0.9% | 61.4hPa | 2.6V | 18:12:15 | 01:15:31 | 00:00:00 | |
| DF8AY | 2026-08-31 10:47:06 | 53.07972 | 8.07071 | 64° | 27km/h | 19609m | 6.5m/s | -51.1°C | 0.9% | 61.5hPa | 2.7V | 18:12:15 | 01:15:28 | 00:00:00 | |
| BIOWL1-15 | 2026-08-31 10:47:05 | 53.07956 | 8.07016 | 68° | 20km/h | 19577m | 6.1m/s | -51.5°C | 0.9% | 61.8hPa | 2.7V | 18:12:15 | 01:15:22 | 00:00:00 | |
| DO2JMG | 2026-08-31 10:47:03 | 53.07962 | 8.07040 | 63° | 24km/h | 19593m | 6.3m/s | -51.2°C | 0.9% | 61.7hPa | 2.6V | 18:12:15 | 01:15:25 | 00:00:00 | |
| DJ2DS-15 | 2026-08-31 10:47:02 | 53.07960 | 8.07032 | 67° | 24km/h | 19587m | 5.7m/s | -51.3°C | 4.0% | 61.7hPa | 2.6V | 00:00:00 | 01:15:24 | 00:00:00 | |
| BIOWL9-15 | 2026-08-31 10:47:01 | 53.07956 | 8.07016 | 67° | 18km/h | 19577m | 6.1m/s | -51.5°C | 1.3% | 61.8hPa | 2.6V | 00:00:00 | 00:00:00 | 00:00:00 | |
| DL1XH1-15 | 2026-08-31 10:47:00 | 53.07951 | 8.06989 | 86° | 15km/h | 19555m | 3.6m/s | -51.8°C | 4.1% | 62hPa | 2.6V | 08:30:00 | 01:15:18 | 00:00:00 | |
| HSKMA3-T | 2026-08-31 10:46:58 | 53.07953 | 8.07002 | 77° | 16km/h | 19566m | 6.1m/s | -51.8°C | 1% | 61.9hPa | 2.7V | 18:12:15 | 01:15:20 | 00:00:00 | |
| DL1XH-west | 2026-08-31 10:46:56 | 53.07951 | 8.06989 | 86° | 15km/h | 19555m | 3.6m/s | -51.8°C | 0.9% | 62hPa | 2.6V | 18:12:15 | 01:15:18 | 00:00:00 | |
| DF8AY | 2026-08-31 10:46:55 | 53.07951 | 8.06983 | 79° | 16km/h | 19550m | 6.4m/s | -51.7°C | 0.9% | 62.1hPa | 2.6V | 18:12:15 | 01:15:17 | 00:00:00 | |
| DB0DAN | 2026-08-31 10:46:55 | 53.07951 | 8.06983 | 79° | 16km/h | 19550m | 6.4m/s | -51.7°C | 1.3% | 62.07hPa | 2.6V | 00:00:00 | 00:00:00 | 00:00:00 | |
| DO2JMG | 2026-08-31 10:46:53 | 53.07948 | 8.06967 | 74° | 22km/h | 19539m | 4.8m/s | -51.7°C | 1% | 62.2hPa | 2.7V | 18:12:15 | 01:15:15 | 00:00:00 | |
| BIOWL1-15 | 2026-08-31 10:46:49 | 53.07939 | 8.06903 | 81° | 27km/h | 19502m | 6.8m/s | -51.6°C | 0.9% | 62.5hPa | 2.7V | 18:12:15 | 01:15:09 | 00:00:00 | |
| DL1XH-15 | 2026-08-31 10:46:48 | 53.07936 | 8.06856 | 81° | 27km/h | 19480m | 4.9m/s | -51.9°C | 4.1% | 62.8hPa | 2.6V | 08:30:00 | 01:15:05 | 00:00:00 | |
| DM0DOS-11 | 2026-08-31 10:46:48 | 53.07938 | 8.06891 | 85° | 29km/h | 19496m | 5.3m/s | -51.6°C | 4% | 62.6hPa | 2.7V | 08:30:00 | 01:15:08 | 00:00:00 | |
| HSKMA3-T | 2026-08-31 10:46:48 | 53.07941 | 8.06914 | 74° | 27km/h | 19508m | 4.7m/s | -51.5°C | 0.9% | 62.5hPa | 2.7V | 18:12:15 | 01:15:10 | 00:00:00 | |
| DL1XH-west | 2026-08-31 10:46:45 | 53.07938 | 8.06879 | 86° | 29km/h | 19491m | 4.3m/s | -51.7°C | 0.9% | 62.6hPa | 2.6V | 18:12:15 | 01:15:07 | 00:00:00 | |
| DF8AY | 2026-08-31 10:46:44 | 53.07937 | 8.06867 | 84° | 27km/h | 19486m | 6.7m/s | -51.8°C | 0.9% | 62.7hPa | 2.6V | 18:12:15 | 01:15:06 | 00:00:00 | |
| DO2JMG | 2026-08-31 10:46:42 | 53.07935 | 8.06844 | 86° | 27km/h | 19475m | 5.5m/s | -52.1°C | 1% | 62.8hPa | 2.7V | 18:12:15 | 01:15:04 | 00:00:00 | |
| DJ2DS-15 | 2026-08-31 10:46:42 | 53.07935 | 8.06844 | 87° | 37km/h | 19475m | 5.5m/s | -52.0°C | 4.2% | 62.8hPa | 2.7V | 00:00:00 | 01:15:04 | 00:00:00 | |
| DL1XH1-15 | 2026-08-31 10:46:41 | 53.07928 | 8.06768 | 79° | 37km/h | 19440m | 6.1m/s | -52°C | 4.2% | 63.1hPa | 2.7V | 08:30:00 | 01:14:58 | 00:00:00 | |
| DB0DAN | 2026-08-31 10:46:40 | 53.07935 | 8.06821 | 85° | 27km/h | 19464m | 4.5m/s | -52.1°C | 1.3% | 62.93hPa | 2.7V | 00:00:00 | 00:00:00 | 00:00:00 | |
| BIOWL1-15 | 2026-08-31 10:46:39 | 53.07934 | 8.06809 | 80° | 29km/h | 19458m | 6.9m/s | -52.1°C | 1% | 63hPa | 2.6V | 18:12:15 | 01:15:01 | 00:00:00 | |
| AA1-15 | 2026-08-31 10:46:38 | 53.07932 | 8.06796 | 75° | 31km/h | 19452m | 4.9m/s | -52°C | 1% | 63hPa | 2.6V | 18:12:15 | 01:15:00 | 00:00:00 | |
| HSKMA3-T | 2026-08-31 10:46:37 | 53.07930 | 8.06783 | 77° | 35km/h | 19447m | 6m/s | -52°C | 1% | 63.1hPa | 2.6V | 18:12:15 | 01:14:59 | 00:00:00 | |
| DL1XH-west | 2026-08-31 10:46:34 | 53.07924 | 8.06737 | 75° | 42km/h | 19429m | 6.6m/s | -52°C | 1% | 63.3hPa | 2.7V | 18:12:15 | 01:14:56 | 00:00:00 | |
| DO2JMG | 2026-08-31 10:46:32 | 53.07919 | 8.06703 | 78° | 42km/h | 19418m | 6.4m/s | -52°C | 1% | 63.4hPa | 2.6V | 18:12:15 | 01:14:54 | 00:00:00 | |
| BIOWL1-15 | 2026-08-31 10:46:29 | 53.07912 | 8.06653 | 76° | 38km/h | 19402m | 6.5m/s | -52°C | 1% | 63.5hPa | 2.7V | 18:12:15 | 01:14:51 | 00:00:00 | |
| AA1-15 | 2026-08-31 10:46:28 | 53.07910 | 8.06637 | 72° | 38km/h | 19396m | 5.2m/s | -52°C | 1% | 63.6hPa | 2.7V | 18:12:15 | 01:14:50 | 00:00:00 | |
| DL4XJ-10 | 2026-08-31 10:46:28 | 53.07910 | 8.06637 | 73° | 46km/h | 19396m | 5.1m/s | -51.3°C | 0% | 0hPa | 2.6V | 00:00:00 | 00:00:00 | 00:00:00 | |
| DM0DOS-11 | 2026-08-31 10:46:27 | 53.07904 | 8.06607 | 73° | 38km/h | 19385m | 5m/s | -52°C | 4.2% | 63.7hPa | 2.6V | 08:30:00 | 01:14:48 | 00:00:00 | |
| HSKMA3-T | 2026-08-31 10:46:26 | 53.07904 | 8.06607 | 73° | 38km/h | 19385m | 5m/s | -52°C | 1% | 63.7hPa | 2.6V | 18:12:15 | 01:14:48 | 00:00:00 | |
| DB0DAN | 2026-08-31 10:46:25 | 53.07901 | 8.06592 | 70° | 37km/h | 19380m | 4.9m/s | -52°C | 1.3% | 63.74hPa | 2.6V | 00:00:00 | 00:00:00 | 00:00:00 | |
| DL1XH-west | 2026-08-31 10:46:23 | 53.07893 | 8.06562 | 62° | 40km/h | 19369m | 5.2m/s | -52°C | 1% | 63.9hPa | 2.7V | 18:12:15 | 01:14:45 | 00:00:00 | |
| DO2JMG | 2026-08-31 10:46:21 | 53.07884 | 8.06530 | 68° | 44km/h | 19357m | 5.1m/s | -52°C | 1% | 64hPa | 2.6V | 18:12:15 | 01:14:43 | 00:00:00 | |
| AA1-15 | 2026-08-31 10:46:17 | 53.07865 | 8.06451 | 70° | 55km/h | 19335m | 5.3m/s | -51.9°C | 1% | 64.2hPa | 2.7V | 18:12:15 | 01:14:39 | 00:00:00 | |
| HSKMA3-T | 2026-08-31 10:46:15 | 53.07857 | 8.06409 | 72° | 53km/h | 19326m | 3.8m/s | -51.8°C | 1% | 64.3hPa | 2.6V | 18:12:15 | 01:14:37 | 00:00:00 | |
| DL1XH-west | 2026-08-31 10:46:12 | 53.07841 | 8.06350 | 59° | 49km/h | 19311m | 5.2m/s | -51.7°C | 0.9% | 64.5hPa | 2.7V | 18:12:15 | 01:14:34 | 00:00:00 | |
| DO2JMG | 2026-08-31 10:46:11 | 53.07835 | 8.06333 | 58° | 47km/h | 19305m | 4.8m/s | -51.7°C | 0.9% | 64.5hPa | 2.7V | 18:12:15 | 01:14:33 | 00:00:00 | |
| DB0DAN | 2026-08-31 10:46:10 | 53.07828 | 8.06317 | 58° | 42km/h | 19300m | 6.9m/s | -51.7°C | 1.3% | 64.56hPa | 2.7V | 00:00:00 | 00:00:00 | 00:00:00 | |
| BIOWL1-15 | 2026-08-31 10:46:09 | 53.07811 | 8.06271 | 59° | 44km/h | 19283m | 5.1m/s | -51.5°C | 0.9% | 64.7hPa | 2.6V | 18:12:15 | 01:14:29 | 00:00:00 | |
| AA1-15 | 2026-08-31 10:46:08 | 53.07806 | 8.06255 | 61° | 44km/h | 19278m | 4.8m/s | -51.5°C | 0.9% | 64.8hPa | 2.7V | 18:12:15 | 01:14:28 | 00:00:00 | |
| HSKMA3-T | 2026-08-31 10:46:04 | 53.07796 | 8.06222 | 66° | 46km/h | 19266m | 4.4m/s | -51.4°C | 1% | 64.9hPa | 2.7V | 18:12:15 | 01:14:26 | 00:00:00 | |
| DL1XH-west | 2026-08-31 10:46:01 | 53.07780 | 8.06167 | 63° | 51km/h | 19251m | 4.7m/s | -51.3°C | 1% | 65hPa | 2.6V | 18:12:15 | 01:14:23 | 00:00:00 | |
| DO2JMG | 2026-08-31 10:46:00 | 53.07774 | 8.06147 | 64° | 51km/h | 19245m | 6.7m/s | -51.3°C | 0.9% | 65.1hPa | 2.7V | 18:12:15 | 01:14:22 | 00:00:00 | |
| GOEST3-10 | 2026-08-31 10:45:59 | 53.07768 | 8.06128 | 63° | 47km/h | 19239m | 4.7m/s | -51.2°C | 4.1% | 65.1hPa | 2.7V | 00:00:00 | 00:00:00 | 00:00:00 | |
| DM0DOS-11 | 2026-08-31 10:45:58 | 53.07736 | 8.06046 | 59° | 40km/h | 19212m | 4.7m/s | -51°C | 4% | 65.4hPa | 2.7V | 08:30:00 | 01:14:16 | 00:00:00 | |
| BIOWL1-15 | 2026-08-31 10:45:57 | 53.07755 | 8.06092 | 57° | 49km/h | 19228m | 5.8m/s | -51.2°C | 0.9% | 65.3hPa | 2.6V | 18:12:15 | 01:14:19 | 00:00:00 | |
| AA1-15 | 2026-08-31 10:45:56 | 53.07748 | 8.06076 | 54° | 46km/h | 19223m | 3.9m/s | -51.1°C | 0.9% | 65.3hPa | 2.6V | 18:12:15 | 01:14:18 | 00:00:00 | |
| DB0DAN | 2026-08-31 10:45:55 | 53.07742 | 8.06060 | 57° | 40km/h | 19217m | 6.6m/s | -51.1°C | 1.3% | 65.37hPa | 2.6V | 00:00:00 | 00:00:00 | 00:00:00 | |
| HSKMA3-T | 2026-08-31 10:45:54 | 53.07736 | 8.06046 | 59° | 40km/h | 19212m | 4.7m/s | -51°C | 0.9% | 65.4hPa | 2.7V | 18:12:15 | 01:14:16 | 00:00:00 | |
| DF8AY | 2026-08-31 10:45:51 | 53.07720 | 8.06004 | 54° | 40km/h | 19197m | 5.1m/s | -51°C | 0.9% | 65.6hPa | 2.6V | 18:12:15 | 01:14:13 | 00:00:00 | |
| DO2JMG | 2026-08-31 10:45:50 | 53.07714 | 8.05990 | 56° | 42km/h | 19191m | 6.2m/s | -51°C | 0.9% | 65.6hPa | 2.6V | 18:12:15 | 01:14:12 | 00:00:00 | |
| BIOWL1-15 | 2026-08-31 10:45:49 | 53.07696 | 8.05942 | 56° | 49km/h | 19175m | 6.7m/s | -51°C | 0.9% | 65.8hPa | 2.7V | 18:12:15 | 01:14:09 | 00:00:00 | |
| DL1XH-15 | 2026-08-31 10:45:48 | 53.07667 | 8.05874 | 54° | 47km/h | 19152m | 5m/s | -50.9°C | 4% | 66hPa | 2.6V | 08:30:00 | 01:14:05 | 00:00:00 | |
| DL4XJ-10 | 2026-08-31 10:45:48 | 53.07702 | 8.05959 | 60° | 44km/h | 19181m | 4.8m/s | -50.2°C | 0% | 0hPa | 2.6V | 00:00:00 | 00:00:00 | 00:00:00 | |
| DM0DOS-11 | 2026-08-31 10:45:46 | 53.07674 | 8.05890 | 54° | 49km/h | 19157m | 4.9m/s | -50.9°C | 4% | 66hPa | 2.6V | 08:30:00 | 01:14:06 | 00:00:00 | |
| AA1-15 | 2026-08-31 10:45:46 | 53.07689 | 8.05925 | 54° | 51km/h | 19169m | 5m/s | -51°C | 0.9% | 65.9hPa | 2.7V | 18:12:15 | 01:14:08 | 00:00:00 | |
| HSKMA3-T | 2026-08-31 10:45:44 | 53.07674 | 8.05890 | 55° | 49km/h | 19157m | 4.9m/s | -50.9°C | 0.9% | 66hPa | 2.6V | 18:12:15 | 01:14:06 | 00:00:00 | |
| GOEST3-10 | 2026-08-31 10:45:44 | 53.07674 | 8.05890 | 55° | 44km/h | 19158m | 4.9m/s | -50.9°C | 4.0% | 65.9hPa | 2.6V | 00:00:00 | 01:14:06 | 08:30:00 | |
| DO2SHX-10 | 2026-08-31 10:45:43 | 53.07667 | 8.05874 | 55° | 46km/h | 19153m | 5.0m/s | -50.9°C | 4.0% | 66.0hPa | 2.7V | 00:00:00 | 01:14:05 | 00:00:00 | |
| DD1CC3-15 | 2026-08-31 10:45:42 | 53.07667 | 8.05874 | 56° | 47km/h | 19153m | 5.0m/s | -50.9°C | 1.3% | 66.0hPa | 2.7V | 00:00:00 | 00:00:00 | 00:00:00 | |
| DL1XH1-15 | 2026-08-31 10:45:41 | 53.07622 | 8.05781 | 46° | 42km/h | 19114m | 4.8m/s | -50.9°C | 4% | 66.4hPa | 2.7V | 08:30:00 | 01:13:58 | 00:00:00 | |
| DM0DOS-11 | 2026-08-31 10:45:41 | 53.07607 | 8.05753 | 51° | 47km/h | 19104m | 6.4m/s | -50.9°C | 4% | 66.5hPa | 2.7V | 08:30:00 | 01:13:56 | 00:00:00 | |
| DF8AY | 2026-08-31 10:45:41 | 53.07646 | 8.05831 | 51° | 40km/h | 19135m | 7m/s | -50.9°C | 0.9% | 66.2hPa | 2.7V | 18:12:15 | 01:14:02 | 00:00:00 | |
| DB0DAN | 2026-08-31 10:45:40 | 53.07646 | 8.05831 | 51° | 38km/h | 19135m | 7m/s | -50.9°C | 1.3% | 66.24hPa | 2.7V | 00:00:00 | 00:00:00 | 00:00:00 | |
| GOEST3-10 | 2026-08-31 10:45:40 | 53.07640 | 8.05818 | 56° | 40km/h | 19130m | 4.5m/s | -50.8°C | 4.0% | 66.2hPa | 2.6V | 00:00:00 | 00:00:00 | 00:00:00 | |
| DO2JMG | 2026-08-31 10:45:40 | 53.07640 | 8.05818 | 55° | 37km/h | 19130m | 4.6m/s | -50.8°C | 0.9% | 66.3hPa | 2.6V | 18:12:15 | 01:14:01 | 00:00:00 | |
| DL1XH-15 | 2026-08-31 10:45:39 | 53.07600 | 8.05737 | 51° | 47km/h | 19098m | 4.4m/s | -50.9°C | 4% | 66.6hPa | 2.6V | 08:30:00 | 01:13:55 | 00:00:00 | |
| BIOWL1-15 | 2026-08-31 10:45:37 | 53.07629 | 8.05793 | 50° | 38km/h | 19120m | 6.3m/s | -50.9°C | 0.9% | 66.4hPa | 2.6V | 18:12:15 | 01:13:59 | 00:00:00 | |
| AA1-15 | 2026-08-31 10:45:36 | 53.07622 | 8.05781 | 46° | 42km/h | 19114m | 4.8m/s | -50.9°C | 0.8% | 66.4hPa | 2.7V | 18:12:15 | 01:13:58 | 00:00:00 | |
| HSKMA3-T | 2026-08-31 10:45:34 | 53.07607 | 8.05753 | 52° | 47km/h | 19104m | 6.4m/s | -50.9°C | 0.9% | 66.5hPa | 2.7V | 18:12:15 | 01:13:56 | 00:00:00 | |
| GOEST3-10 | 2026-08-31 10:45:34 | 53.07607 | 8.05753 | 52° | 46km/h | 19104m | 6.4m/s | -50.9°C | 4.0% | 66.5hPa | 2.6V | 00:00:00 | 01:13:56 | 00:00:00 | |
| DO2SHX-10 | 2026-08-31 10:45:33 | 53.07600 | 8.05737 | 52° | 47km/h | 19098m | 4.3m/s | -50.9°C | 4.0% | 66.5hPa | 2.6V | 00:00:00 | 01:13:55 | 00:00:00 | |
| DL1XH1-15 | 2026-08-31 10:45:31 | 53.07546 | 8.05653 | 34° | 37km/h | 19060m | 7m/s | -50.8°C | 3.9% | 67hPa | 2.6V | 08:30:00 | 01:13:48 | 00:00:00 | |
| DF8AY | 2026-08-31 10:45:30 | 53.07576 | 8.05695 | 42° | 44km/h | 19082m | 4.9m/s | -50.8°C | 0.9% | 66.8hPa | 2.7V | 18:12:15 | 01:13:52 | 00:00:00 | |
| DO2JMG | 2026-08-31 10:45:29 | 53.07568 | 8.05683 | 43° | 40km/h | 19076m | 6.1m/s | -50.8°C | 0.9% | 66.8hPa | 2.7V | 18:12:15 | 01:13:51 | 00:00:00 | |
| GOEST3-10 | 2026-08-31 10:45:29 | 53.07568 | 8.05683 | 43° | 38km/h | 19077m | 6.0m/s | -50.8°C | 4.0% | 66.8hPa | 2.7V | 00:00:00 | 00:00:00 | 00:00:00 | |
| DL1XH-15 | 2026-08-31 10:45:28 | 53.07522 | 8.05627 | 37° | 40km/h | 19043m | 4.8m/s | -50.8°C | 4% | 67.2hPa | 2.7V | 08:30:00 | 01:13:45 | 00:00:00 | |
| BIOWL1-15 | 2026-08-31 10:45:28 | 53.07546 | 8.05653 | 35° | 37km/h | 19060m | 7m/s | -50.8°C | 0.8% | 67hPa | 2.6V | 18:12:15 | 01:13:48 | 00:00:00 | |
| AA1-15 | 2026-08-31 10:45:25 | 53.07538 | 8.05644 | 31° | 37km/h | 19054m | 4.7m/s | -50.8°C | 0.9% | 67hPa | 2.6V | 18:12:15 | 01:13:47 | 00:00:00 | |
| DB0DAN | 2026-08-31 10:45:25 | 53.07538 | 8.05644 | 31° | 35km/h | 19054m | 4.7m/s | -50.8°C | 1.3% | 67.05hPa | 2.6V | 00:00:00 | 00:00:00 | 00:00:00 | |
| HSKMA3-T | 2026-08-31 10:45:23 | 53.07522 | 8.05627 | 37° | 40km/h | 19043m | 4.8m/s | -50.8°C | 0.9% | 67.2hPa | 2.7V | 18:12:15 | 01:13:45 | 00:00:00 | |
| DD1CC3-15 | 2026-08-31 10:45:22 | 53.07522 | 8.05627 | 38° | 40km/h | 19043m | 4.8m/s | -50.8°C | 1.3% | 67.2hPa | 2.7V | 00:00:00 | 00:00:00 | 00:00:00 | |
| DL1XH1-15 | 2026-08-31 10:45:21 | 53.07453 | 8.05545 | 34° | 49km/h | 19006m | 3.9m/s | -50.5°C | 3.9% | 67.5hPa | 2.7V | 08:30:00 | 01:13:38 | 00:00:00 | |
| DL1XH-west | 2026-08-31 10:45:19 | 53.07484 | 8.05581 | 35° | 51km/h | 19021m | 4.7m/s | -50.7°C | 0.9% | 67.4hPa | 2.6V | 18:12:15 | 01:13:41 | 00:00:00 | |
| DJ2DS-15 | 2026-08-31 10:45:19 | 53.07484 | 8.05581 | 35° | 42km/h | 19022m | 4.6m/s | -50.6°C | 4.0% | 67.3hPa | 2.6V | 00:00:00 | 01:13:41 | 00:00:00 | |
| DL1XH-15 | 2026-08-31 10:45:18 | 53.07423 | 8.05516 | 26° | 40km/h | 18989m | 6.8m/s | -50.5°C | 3.9% | 67.7hPa | 2.6V | 08:30:00 | 01:13:35 | 00:00:00 | |
| BIOWL1-15 | 2026-08-31 10:45:16 | 53.07453 | 8.05545 | 34° | 49km/h | 19007m | 3.9m/s | -50.6°C | 0.8% | 67.5hPa | 2.7V | 18:12:15 | 01:13:38 | 00:00:00 | |
| AA1-15 | 2026-08-31 10:45:14 | 53.07433 | 8.05524 | 28° | 44km/h | 18995m | 5.2m/s | -50.5°C | 0.8% | 67.6hPa | 2.6V | 18:12:15 | 01:13:36 | 00:00:00 | |
| HSKMA3-T | 2026-08-31 10:45:12 | 53.07415 | 8.05509 | 26° | 37km/h | 18983m | 5.7m/s | -50.4°C | 0.8% | 67.8hPa | 2.7V | 18:12:15 | 01:13:34 | 00:00:00 | |
| DB0DAN | 2026-08-31 10:45:10 | 53.07398 | 8.05497 | 20° | 35km/h | 18970m | 4.8m/s | -50.4°C | 1.3% | 67.93hPa | 2.7V | 00:00:00 | 00:00:00 | 00:00:00 | |
| DO9LL-15 | 2026-08-31 10:45:10 | 53.07398 | 8.05497 | 21° | 35km/h | 18971m | 4.8m/s | -50.4°C | 3.9% | 67.9hPa | 2.7V | 00:00:00 | 01:13:32 | 00:00:00 | |
| GOEST3-10 | 2026-08-31 10:45:09 | 53.07389 | 8.05492 | 24° | 40km/h | 18965m | 5.8m/s | -50.4°C | 3.9% | 67.9hPa | 2.6V | 00:00:00 | 00:00:00 | 00:00:00 | |
| DL1XH-15 | 2026-08-31 10:45:08 | 53.07336 | 8.05441 | 32° | 42km/h | 18931m | 5.2m/s | -50.5°C | 3.9% | 68.3hPa | 2.6V | 08:30:00 | 01:13:25 | 00:00:00 | |
| DL1XH-west | 2026-08-31 10:45:08 | 53.07381 | 8.05485 | 29° | 35km/h | 18959m | 6m/s | -50.4°C | 0.8% | 68hPa | 2.6V | 18:12:15 | 01:13:30 | 00:00:00 | |
| BIOWL1-15 | 2026-08-31 10:45:08 | 53.07364 | 8.05469 | 30° | 42km/h | 18948m | 6.5m/s | -50.5°C | 0.8% | 68.2hPa | 2.7V | 18:12:15 | 01:13:28 | 00:00:00 | |
| AA1-15 | 2026-08-31 10:45:04 | 53.07336 | 8.05441 | 32° | 42km/h | 18931m | 5.2m/s | -50.5°C | 0.8% | 68.3hPa | 2.6V | 18:12:15 | 01:13:25 | 00:00:00 | |
| DK9SH | 2026-08-31 10:45:03 | 53.07345 | 8.05450 | 34° | 44km/h | 18937m | 6.0m/s | -50.5°C | 1.3% | 68.3hPa | 2.6V | 00:00:00 | 00:00:00 | 00:00:00 | |
| DO2SHX-10 | 2026-08-31 10:45:02 | 53.07327 | 8.05432 | 28° | 40km/h | 18926m | 5.4m/s | -50.4°C | 3.9% | 68.3hPa | 2.6V | 00:00:00 | 01:13:24 | 08:30:00 | |
| DL1XH1-15 | 2026-08-31 10:45:01 | 53.07280 | 8.05399 | 27° | 29km/h | 18892m | 5.7m/s | -50.6°C | 3.9% | 68.7hPa | 2.6V | 08:30:00 | 01:13:18 | 00:00:00 | |
| HSKMA3-T | 2026-08-31 10:45:01 | 53.07318 | 8.05425 | 22° | 40km/h | 18920m | 6.6m/s | -50.5°C | 0.8% | 68.4hPa | 2.6V | 18:12:15 | 01:13:23 | 00:00:00 | |
| DD8BA-10 | 2026-08-31 10:45:01 | 53.07318 | 8.05425 | 23° | 33km/h | 18920m | 6.5m/s | -50.4°C | 3.8% | 68.4hPa | 2.6V | 00:00:00 | 00:00:00 | 08:30:00 | |
| DM0DOS-11 | 2026-08-31 10:44:59 | 53.07266 | 8.05386 | 34° | 31km/h | 18881m | 4.4m/s | -50.6°C | 3.9% | 68.8hPa | 2.7V | 08:30:00 | 01:13:16 | 00:00:00 | |
| DL1XH-west | 2026-08-31 10:44:58 | 53.07293 | 8.05410 | 23° | 31km/h | 18903m | 6.1m/s | -50.5°C | 0.8% | 68.6hPa | 2.7V | 18:12:15 | 01:13:20 | 00:00:00 | |
| BIOWL1-15 | 2026-08-31 10:44:57 | 53.07273 | 8.05393 | 29° | 31km/h | 18886m | 5.7m/s | -50.6°C | 0.8% | 68.8hPa | 2.6V | 18:12:15 | 01:13:17 | 00:00:00 | |
| BIOWL9-15 | 2026-08-31 10:44:56 | 53.07279 | 8.05399 | 27° | 27km/h | 18892m | 5.7m/s | -50.6°C | 1.3% | 68.7hPa | 2.6V | 00:00:00 | 00:00:00 | 00:00:00 | |
| DB0DAN | 2026-08-31 10:44:55 | 53.07273 | 8.05393 | 29° | 29km/h | 18886m | 5.7m/s | -50.6°C | 1.3% | 68.82hPa | 2.6V | 00:00:00 | 00:00:00 | 00:00:00 | |
| AA1-15 | 2026-08-31 10:44:52 | 53.07253 | 8.05370 | 38° | 33km/h | 18870m | 4.7m/s | -50.6°C | 0.9% | 69hPa | 2.7V | 18:12:15 | 01:13:14 | 00:00:00 | |
| DL1XH1-15 | 2026-08-31 10:44:51 | 53.07210 | 8.05324 | 36° | 33km/h | 18837m | 5.1m/s | -50.7°C | 3.9% | 69.3hPa | 2.7V | 08:30:00 | 01:13:08 | 00:00:00 | |
| HSKMA3-T | 2026-08-31 10:44:50 | 53.07239 | 8.05354 | 31° | 35km/h | 18858m | 5.3m/s | -50.7°C | 0.8% | 69.1hPa | 2.6V | 18:12:15 | 01:13:12 | 00:00:00 | |
| DO2SHX-10 | 2026-08-31 10:44:50 | 53.07239 | 8.05354 | 32° | 35km/h | 18858m | 5.2m/s | -50.6°C | 3.9% | 69.0hPa | 2.6V | 00:00:00 | 01:13:12 | 00:00:00 | |
| DM0DOS-11 | 2026-08-31 10:44:49 | 53.07196 | 8.05308 | 31° | 35km/h | 18824m | 5.5m/s | -50.8°C | 3.9% | 69.4hPa | 2.6V | 08:30:00 | 01:13:06 | 00:00:00 | |
| DO2JMG | 2026-08-31 10:44:48 | 53.07224 | 8.05340 | 31° | 35km/h | 18848m | 5.9m/s | -50.7°C | 0.9% | 69.2hPa | 2.7V | 18:12:15 | 01:13:10 | 00:00:00 | |
| BIOWL1-15 | 2026-08-31 10:44:46 | 53.07196 | 8.05308 | 31° | 35km/h | 18824m | 5.5m/s | -50.8°C | 0.8% | 69.4hPa | 2.6V | 18:12:15 | 01:13:06 | 00:00:00 | |
| AA1-15 | 2026-08-31 10:44:42 | 53.07182 | 8.05292 | 38° | 29km/h | 18813m | 5.8m/s | -50.8°C | 0.8% | 69.6hPa | 2.7V | 18:12:15 | 01:13:04 | 00:00:00 | |
| DL1XH1-15 | 2026-08-31 10:44:41 | 53.07146 | 8.05243 | 45° | 37km/h | 18779m | 4.7m/s | -50.8°C | 3.9% | 69.9hPa | 2.7V | 08:30:00 | 01:12:58 | 00:00:00 | |
| DB0DAN | 2026-08-31 10:44:40 | 53.07171 | 8.05277 | 35° | 29km/h | 18801m | 6.8m/s | -50.8°C | 1.3% | 69.68hPa | 2.7V | 00:00:00 | 00:00:00 | 00:00:00 | |
| HSKMA3-T | 2026-08-31 10:44:39 | 53.07164 | 8.05270 | 35° | 31km/h | 18795m | 4.9m/s | -50.8°C | 0.9% | 69.8hPa | 2.6V | 18:12:15 | 01:13:01 | 00:00:00 | |
| DJ2DS-15 | 2026-08-31 10:44:39 | 53.07164 | 8.05270 | 36° | 37km/h | 18795m | 4.8m/s | -50.8°C | 4.0% | 69.7hPa | 2.6V | 00:00:00 | 01:13:01 | 00:00:00 | |
| DL1XH-15 | 2026-08-31 10:44:38 | 53.07123 | 8.05207 | 42° | 42km/h | 18761m | 5.6m/s | -50.9°C | 4% | 70.1hPa | 2.6V | 08:30:00 | 01:12:55 | 00:00:00 | |
| DO2JMG | 2026-08-31 10:44:37 | 53.07152 | 8.05254 | 46° | 33km/h | 18784m | 5.3m/s | -50.8°C | 0.9% | 69.9hPa | 2.6V | 18:12:15 | 01:12:59 | 00:00:00 | |
| BIOWL1-15 | 2026-08-31 10:44:34 | 53.07131 | 8.05219 | 42° | 44km/h | 18767m | 5.3m/s | -50.9°C | 0.9% | 70hPa | 2.7V | 18:12:15 | 01:12:56 | 00:00:00 | |
| AA1-15 | 2026-08-31 10:44:31 | 53.07108 | 8.05185 | 38° | 37km/h | 18750m | 4.1m/s | -50.8°C | 0.9% | 0hPa | 2.6V | 18:12:15 | 01:12:53 | 00:00:00 | |
| HSKMA3-T | 2026-08-31 10:44:30 | 53.07092 | 8.05168 | 26° | 37km/h | 18738m | 5.4m/s | -50.8°C | 0.8% | 70.3hPa | 2.7V | 18:12:15 | 01:12:51 | 00:00:00 | |
| GOEST3-10 | 2026-08-31 10:44:30 | 53.07092 | 8.05168 | 26° | 33km/h | 18739m | 5.4m/s | -50.8°C | 3.9% | 70.3hPa | 2.7V | 00:00:00 | 00:00:00 | 00:00:00 | |
| DO2SHX-10 | 2026-08-31 10:44:29 | 53.07092 | 8.05168 | 26° | 33km/h | 18739m | 5.4m/s | -50.8°C | 3.9% | 70.3hPa | 2.7V | 00:00:00 | 01:12:51 | 00:00:00 | |
| DL1XH-15 | 2026-08-31 10:44:28 | 53.07046 | 8.05136 | 30° | 37km/h | 18705m | 5.7m/s | -50.9°C | 4% | 70.7hPa | 2.7V | 08:30:00 | 01:12:45 | 00:00:00 | |
| DO2JMG | 2026-08-31 10:44:27 | 53.07076 | 8.05157 | 21° | 31km/h | 18727m | 5.8m/s | -50.9°C | 0.9% | 70.5hPa | 2.6V | 18:12:15 | 01:12:49 | 00:00:00 | |
| DL1XH-west | 2026-08-31 10:44:26 | 53.07069 | 8.05153 | 20° | 29km/h | 18721m | 5m/s | -50.9°C | 0.9% | 70.5hPa | 2.6V | 18:12:15 | 01:12:48 | 00:00:00 | |
| DB0DAN | 2026-08-31 10:44:25 | 53.07062 | 8.05148 | 19° | 31km/h | 18716m | 6.6m/s | -50.9°C | 1.3% | 70.58hPa | 2.6V | 00:00:00 | 00:00:00 | 00:00:00 | |
| BIOWL1-15 | 2026-08-31 10:44:24 | 53.07054 | 8.05143 | 24° | 37km/h | 18710m | 4.5m/s | -50.9°C | 0.8% | 70.7hPa | 2.7V | 18:12:15 | 01:12:46 | 00:00:00 | |
| AA1-15 | 2026-08-31 10:44:21 | 53.07029 | 8.05116 | 39° | 44km/h | 18693m | 4.8m/s | -51°C | 0.9% | 70.9hPa | 2.6V | 18:12:15 | 01:12:43 | 00:00:00 | |
| HSKMA3-T | 2026-08-31 10:44:18 | 53.06999 | 8.05083 | 28° | 49km/h | 18675m | 4.4m/s | -51°C | 0.9% | 71hPa | 2.7V | 18:12:15 | 01:12:40 | 00:00:00 | |
| DL1XH-15 | 2026-08-31 10:44:18 | 53.06945 | 8.05042 | 22° | 46km/h | 18646m | 5m/s | -51°C | 4% | 71.3hPa | 2.6V | 08:30:00 | 01:12:35 | 00:00:00 | |
| DO2JMG | 2026-08-31 10:44:16 | 53.06977 | 8.05065 | 27° | 47km/h | 18664m | 5.3m/s | -51°C | 0.9% | 71.2hPa | 2.7V | 18:12:15 | 01:12:38 | 00:00:00 | |
| BIOWL1-15 | 2026-08-31 10:44:13 | 53.06945 | 8.05042 | 22° | 46km/h | 18646m | 5.1m/s | -51°C | 0.9% | 71.3hPa | 2.6V | 18:12:15 | 01:12:35 | 00:00:00 | |
| DF8AY-15 | 2026-08-31 10:44:13 | 53.06945 | 8.05042 | 23° | 42km/h | 18646m | 5.0m/s | -51.0°C | 4.0% | 71.3hPa | 2.7V | 00:00:00 | 01:12:35 | 00:00:00 | |
| DD1CC1-15 | 2026-08-31 10:44:11 | 53.06935 | 8.05034 | 28° | 44km/h | 18640m | 6.7m/s | 0°C | 0% | 71.4hPa | 2.7V | 00:00:00 | 00:00:00 | 00:00:00 | |
| DB0DAN | 2026-08-31 10:44:10 | 53.06917 | 8.05017 | 33° | 38km/h | 18630m | 4.6m/s | -51°C | 1.3% | 71.52hPa | 2.7V | 00:00:00 | 00:00:00 | 00:00:00 | |
| AA1-15 | 2026-08-31 10:44:10 | 53.06917 | 8.05017 | 33° | 40km/h | 18630m | 4.6m/s | -51°C | 0.9% | 71.5hPa | 2.7V | 18:12:15 | 01:12:32 | 00:00:00 | |
| DO9LL-15 | 2026-08-31 10:44:10 | 53.06917 | 8.05017 | 34° | 37km/h | 18630m | 4.6m/s | -51.0°C | 4.1% | 71.5hPa | 2.7V | 00:00:00 | 01:12:32 | 00:00:00 | |
| DM0DOS-11 | 2026-08-31 10:44:09 | 53.06866 | 8.04960 | 29° | 44km/h | 18595m | 6.9m/s | -50.9°C | 4.1% | 71.9hPa | 2.7V | 08:30:00 | 01:12:26 | 00:00:00 | |
| HSKMA3-T | 2026-08-31 10:44:08 | 53.06900 | 8.04999 | 32° | 40km/h | 18619m | 5.6m/s | -51°C | 1% | 71.7hPa | 2.6V | 18:12:15 | 01:12:30 | 00:00:00 | |
| DO2JMG | 2026-08-31 10:44:06 | 53.06883 | 8.04980 | 37° | 40km/h | 18607m | 6m/s | -51°C | 0.9% | 71.8hPa | 2.7V | 18:12:15 | 01:12:28 | 00:00:00 | |
| DL1XH-west | 2026-08-31 10:44:05 | 53.06875 | 8.04970 | 35° | 42km/h | 18601m | 4.8m/s | -51°C | 1% | 71.8hPa | 2.7V | 18:12:15 | 01:12:27 | 00:00:00 | |
| BIOWL1-15 | 2026-08-31 10:44:02 | 53.06846 | 8.04945 | 23° | 46km/h | 18584m | 4.9m/s | -50.8°C | 0.9% | 72hPa | 2.6V | 18:12:15 | 01:12:24 | 00:00:00 | |
| AA1-15 | 2026-08-31 10:44:00 | 53.06826 | 8.04931 | 19° | 40km/h | 18573m | 4.7m/s | -50.7°C | 0% | 0hPa | 2.7V | 18:12:15 | 01:12:22 | 00:00:00 | |
| DM0DOS-11 | 2026-08-31 10:44:00 | 53.06777 | 8.04901 | 32° | 27km/h | 18537m | 6.5m/s | -50.5°C | 4% | 72.6hPa | 2.7V | 08:30:00 | 01:12:16 | 00:00:00 | |
| HSKMA3-T | 2026-08-31 10:43:58 | 53.06807 | 8.04922 | 13° | 37km/h | 18561m | 5.6m/s | -50.7°C | 0.9% | 72.3hPa | 2.7V | 18:12:15 | 01:12:20 | 00:00:00 | |
| DL3AQ-11 | 2026-08-31 10:43:58 | 53.06798 | 8.04918 | 17° | 35km/h | 18555m | 5.3m/s | -50.7°C | 1.3% | 72.3hPa | 2.6V | 00:00:00 | 00:00:00 | 00:00:00 | |
| DB0DAN | 2026-08-31 10:43:55 | 53.06783 | 8.04907 | 32° | 29km/h | 18543m | 4.9m/s | -50.5°C | 1.3% | 72.53hPa | 2.6V | 00:00:00 | 00:00:00 | 00:00:00 | |
| DO2JMG | 2026-08-31 10:43:55 | 53.06783 | 8.04907 | 32° | 29km/h | 18543m | 4.9m/s | -50.5°C | 0.9% | 72.5hPa | 2.6V | 18:12:15 | 01:12:17 | 00:00:00 | |
| DL1XH-west | 2026-08-31 10:43:54 | 53.06777 | 8.04901 | 32° | 27km/h | 18537m | 6.5m/s | -50.5°C | 0.9% | 72.6hPa | 2.7V | 18:12:15 | 01:12:16 | 00:00:00 | |
| DF8AY-15 | 2026-08-31 10:43:53 | 53.06771 | 8.04895 | 35° | 33km/h | 18532m | 5.5m/s | -50.4°C | 4.0% | 72.6hPa | 2.7V | 00:00:00 | 01:12:15 | 00:00:00 | |
| DF4FW | 2026-08-31 10:43:52 | 53.06771 | 8.04895 | 35° | 26km/h | 18532m | 5.5m/s | -50.4°C | 1.3% | 72.7hPa | 2.7V | 00:00:00 | 00:00:00 | 00:00:00 | |
| DL1XH1-15 | 2026-08-31 10:43:51 | 53.06721 | 8.04845 | 27° | 38km/h | 18489m | 7.3m/s | -50.1°C | 3.9% | 73.1hPa | 2.7V | 08:30:00 | 01:12:08 | 00:00:00 | |
| BIOWL1-15 | 2026-08-31 10:43:51 | 53.06760 | 8.04880 | 39° | 31km/h | 18519m | 5.9m/s | -50.4°C | 0.9% | 72.8hPa | 2.6V | 18:12:15 | 01:12:13 | 00:00:00 | |
| AA1-15 | 2026-08-31 10:43:50 | 53.06753 | 8.04872 | 36° | 33km/h | 18514m | 4.7m/s | -50.3°C | 0.8% | 72.9hPa | 2.6V | 18:12:15 | 01:12:12 | 00:00:00 | |
| GOEST3-10 | 2026-08-31 10:43:49 | 53.06746 | 8.04865 | 31° | 37km/h | 18508m | 7.3m/s | -50.2°C | 3.9% | 72.9hPa | 2.6V | 00:00:00 | 00:00:00 | 00:00:00 | |
| DL1XH-15 | 2026-08-31 10:43:48 | 53.06698 | 8.04825 | 27° | 31km/h | 18470m | 5.1m/s | -50.1°C | 3.8% | 73.3hPa | 2.6V | 08:30:00 | 01:12:05 | 00:00:00 | |
| HSKMA3-T | 2026-08-31 10:43:47 | 53.06730 | 8.04852 | 25° | 38km/h | 18496m | 5.6m/s | -50.2°C | 0.8% | 73.1hPa | 2.7V | 18:12:15 | 01:12:09 | 00:00:00 | |
| DO2JMG | 2026-08-31 10:43:45 | 53.06713 | 8.04838 | 28° | 37km/h | 18483m | 5.3m/s | -50.1°C | 0.8% | 73.2hPa | 2.6V | 18:12:15 | 01:12:07 | 00:00:00 | |
| DF8AY | 2026-08-31 10:43:44 | 53.06705 | 8.04831 | 26° | 35km/h | 18477m | 7.6m/s | -50.1°C | 0.8% | 73.3hPa | 2.6V | 18:12:15 | 01:12:06 | 00:00:00 | |
| DL1XH-west | 2026-08-31 10:43:43 | 53.06698 | 8.04825 | 28° | 31km/h | 18470m | 5.1m/s | -50.1°C | 0.8% | 73.3hPa | 2.6V | 18:12:15 | 01:12:05 | 00:00:00 | |
| BIOWL1-15 | 2026-08-31 10:43:42 | 53.06679 | 8.04801 | 45° | 31km/h | 18452m | 3.9m/s | -50°C | 0.8% | 73.5hPa | 2.7V | 18:12:15 | 01:12:02 | 00:00:00 | |
| DO2SHX-10 | 2026-08-31 10:43:42 | 53.06691 | 8.04818 | 36° | 31km/h | 18464m | 6.9m/s | -50.0°C | 3.8% | 73.4hPa | 2.7V | 00:00:00 | 01:12:04 | 00:00:00 | |
| DL1XH1-15 | 2026-08-31 10:43:41 | 53.06657 | 8.04765 | 48° | 31km/h | 18429m | 6.5m/s | -50°C | 3.8% | 73.8hPa | 2.7V | 08:30:00 | 01:11:58 | 00:00:00 | |
| AA1-15 | 2026-08-31 10:43:39 | 53.06674 | 8.04792 | 43° | 29km/h | 18447m | 6.6m/s | -50°C | 0% | 0hPa | 2.6V | 18:12:15 | 01:12:01 | 00:00:00 | |
| HSKMA3-T | 2026-08-31 10:43:37 | 53.06663 | 8.04774 | 46° | 31km/h | 18436m | 5.6m/s | -50°C | 0.7% | 73.8hPa | 2.6V | 18:12:15 | 01:11:59 | 00:00:00 | |
| DO2JMG | 2026-08-31 10:43:34 | 53.06646 | 8.04746 | 42° | 31km/h | 18418m | 7.6m/s | -50.1°C | 0.8% | 74hPa | 2.7V | 18:12:15 | 01:11:56 | 00:00:00 | |
| DF8AY | 2026-08-31 10:43:33 | 53.06640 | 8.04738 | 36° | 29km/h | 18411m | 5m/s | -50.1°C | 0.8% | 74hPa | 2.6V | 18:12:15 | 01:11:55 | 00:00:00 | |
| DL1XH-west | 2026-08-31 10:43:32 | 53.06634 | 8.04731 | 34° | 29km/h | 18406m | 4.9m/s | -50.1°C | 0.8% | 74.1hPa | 2.6V | 18:12:15 | 01:11:54 | 00:00:00 | |
| DL1XH1-15 | 2026-08-31 10:43:31 | 53.06601 | 8.04680 | 47° | 33km/h | 18373m | 4.7m/s | -50.2°C | 4% | 74.5hPa | 2.6V | 08:30:00 | 01:11:48 | 00:00:00 | |
| BIOWL1-15 | 2026-08-31 10:43:29 | 53.06618 | 8.04708 | 46° | 29km/h | 18389m | 4.6m/s | -50.1°C | 0.8% | 74.3hPa | 2.7V | 18:12:15 | 01:11:51 | 00:00:00 | |
| GOEST3-10 | 2026-08-31 10:43:29 | 53.06618 | 8.04708 | 46° | 31km/h | 18389m | 4.5m/s | -50.1°C | 3.9% | 74.2hPa | 2.7V | 00:00:00 | 00:00:00 | 08:30:00 | |
| DL1XH-15 | 2026-08-31 10:43:28 | 53.06587 | 8.04648 | 56° | 31km/h | 18357m | 4.2m/s | -50.2°C | 4% | 74.7hPa | 2.7V | 08:30:00 | 01:11:45 | 00:00:00 | |
| AA1-15 | 2026-08-31 10:43:28 | 53.06612 | 8.04699 | 44° | 31km/h | 18383m | 6.7m/s | -50.2°C | 0.9% | 74.3hPa | 2.7V | 18:12:15 | 01:11:50 | 00:00:00 | |
| HSKMA3-T | 2026-08-31 10:43:26 | 53.06601 | 8.04680 | 47° | 33km/h | 18373m | 4.7m/s | -50.3°C | 0.9% | 74.5hPa | 2.6V | 18:12:15 | 01:11:48 | 00:00:00 | |
| DB0DAN | 2026-08-31 10:43:25 | 53.06596 | 8.04670 | 55° | 29km/h | 18367m | 6.7m/s | -50.2°C | 1.3% | 74.52hPa | 2.6V | 00:00:00 | 00:00:00 | 00:00:00 | |
| DO2JMG | 2026-08-31 10:43:24 | 53.06591 | 8.04659 | 59° | 31km/h | 18361m | 4.6m/s | -50.2°C | 0.9% | 74.6hPa | 2.7V | 18:12:15 | 01:11:46 | 00:00:00 | |
| DL1XH-west | 2026-08-31 10:43:22 | 53.06583 | 8.04637 | 54° | 33km/h | 18351m | 6.2m/s | -50.2°C | 0.9% | 74.7hPa | 2.7V | 18:12:15 | 01:11:44 | 00:00:00 | |
| BIOWL1-15 | 2026-08-31 10:43:20 | 53.06560 | 8.04588 | 58° | 40km/h | 18329m | 5.6m/s | -50°C | 0.9% | 75hPa | 2.7V | 18:12:15 | 01:11:40 | 00:00:00 | |
| DL1XH-15 | 2026-08-31 10:43:19 | 53.06531 | 8.04517 | 57° | 38km/h | 18301m | 6.1m/s | -49.8°C | 3.9% | 75.3hPa | 2.6V | 08:30:00 | 01:11:35 | 00:00:00 | |
| AA1-15 | 2026-08-31 10:43:17 | 53.06555 | 8.04574 | 58° | 40km/h | 18324m | 4.5m/s | -50°C | 0.9% | 75hPa | 2.7V | 18:12:15 | 01:11:39 | 00:00:00 | |
| HSKMA3-T | 2026-08-31 10:43:15 | 53.06543 | 8.04545 | 53° | 42km/h | 18313m | 5.6m/s | -49.9°C | 0.8% | 75.2hPa | 2.6V | 18:12:15 | 01:11:37 | 00:00:00 | |
| DO2JMG | 2026-08-31 10:43:14 | 53.06537 | 8.04531 | 54° | 40km/h | 18307m | 5.8m/s | -49.9°C | 0.9% | 75.2hPa | 2.6V | 18:12:15 | 01:11:36 | 00:00:00 | |
| DL1XH-west | 2026-08-31 10:43:11 | 53.06520 | 8.04491 | 51° | 37km/h | 18290m | 7m/s | -49.8°C | 0.8% | 75.4hPa | 2.7V | 18:12:15 | 01:11:33 | 00:00:00 | |
| DB0DAN | 2026-08-31 10:43:10 | 53.06514 | 8.04480 | 47° | 33km/h | 18284m | 5.4m/s | -49.7°C | 1.3% | 75.49hPa | 2.7V | 00:00:00 | 00:00:00 | 00:00:00 | |
| DL9SK-14 | 2026-08-31 10:43:10 | 53.06508 | 8.04470 | 47° | 31km/h | 18278m | 5.8m/s | -49.7°C | -1.0% | 75.5hPa | 2.7V | 00:00:00 | 00:00:00 | 00:00:00 | |
| DM0DOS-11 | 2026-08-31 10:43:09 | 53.06482 | 8.04424 | 47° | 29km/h | 18249m | 5.4m/s | -49.5°C | 3.8% | 75.9hPa | 2.7V | 08:30:00 | 01:11:26 | 00:00:00 | |
| BIOWL1-15 | 2026-08-31 10:43:08 | 53.06503 | 8.04460 | 50° | 31km/h | 18272m | 6.1m/s | -49.6°C | 0.8% | 75.6hPa | 2.6V | 18:12:15 | 01:11:30 | 00:00:00 | |
| AA1-15 | 2026-08-31 10:43:06 | 53.06493 | 8.04442 | 45° | 29km/h | 18261m | 6.8m/s | -49.6°C | 0.8% | 75.8hPa | 2.7V | 18:12:15 | 01:11:28 | 00:00:00 | |
| DO2JMG | 2026-08-31 10:43:04 | 53.06482 | 8.04424 | 47° | 29km/h | 18249m | 5.4m/s | -49.5°C | 0.8% | 75.9hPa | 2.7V | 18:12:15 | 01:11:26 | 00:00:00 | |
| DO2SHX-10 | 2026-08-31 10:43:04 | 53.06482 | 8.04424 | 48° | 31km/h | 18249m | 5.4m/s | -49.4°C | 3.8% | 75.8hPa | 2.7V | 00:00:00 | 01:11:26 | 08:30:00 | |
| DL1XH1-15 | 2026-08-31 10:43:01 | 53.06437 | 8.04352 | 35° | 31km/h | 18202m | 6.4m/s | -49.2°C | 3.7% | 76.5hPa | 2.6V | 08:30:00 | 01:11:18 | 00:00:00 | |
| DL1XH-west | 2026-08-31 10:43:00 | 53.06461 | 8.04386 | 41° | 33km/h | 18226m | 6m/s | -49.3°C | 0.7% | 76.1hPa | 2.7V | 18:12:15 | 01:11:22 | 00:00:00 | |
| DM0DOS-11 | 2026-08-31 10:42:59 | 53.06424 | 8.04336 | 39° | 33km/h | 18190m | 6.9m/s | -49.3°C | 3.7% | 76.6hPa | 2.7V | 08:30:00 | 01:11:16 | 00:00:00 | |
| DJ2DS-15 | 2026-08-31 10:42:59 | 53.06455 | 8.04377 | 41° | 31km/h | 18220m | 6.1m/s | -49.3°C | 3.7% | 76.2hPa | 2.7V | 00:00:00 | 01:11:21 | 00:00:00 | |
| DL1XH-15 | 2026-08-31 10:42:58 | 53.06418 | 8.04327 | 45° | 33km/h | 18184m | 5m/s | -49.4°C | 3.7% | 76.7hPa | 2.7V | 08:30:00 | 01:11:15 | 00:00:00 | |
| BIOWL1-15 | 2026-08-31 10:42:58 | 53.06450 | 8.04368 | 43° | 31km/h | 18214m | 5.4m/s | -49.3°C | 0.7% | 76.3hPa | 2.7V | 18:12:15 | 01:11:20 | 00:00:00 | |
| DO2SHX-10 | 2026-08-31 10:42:58 | 53.06449 | 8.04368 | 44° | 31km/h | 18214m | 5.3m/s | -49.2°C | 3.7% | 76.2hPa | 2.6V | 00:00:00 | 01:11:20 | 00:00:00 | |
| DD1CC3-15 | 2026-08-31 10:42:57 | 53.06444 | 8.04360 | 39° | 31km/h | 18208m | 5.4m/s | -49.2°C | 1.3% | 76.3hPa | 2.6V | 00:00:00 | 00:00:00 | 00:00:00 | |
| DB0DAN | 2026-08-31 10:42:55 | 53.06431 | 8.04344 | 37° | 31km/h | 18197m | 5.1m/s | -49.2°C | 1.2% | 76.51hPa | 2.6V | 00:00:00 | 00:00:00 | 00:00:00 | |
| AA1-15 | 2026-08-31 10:42:55 | 53.06431 | 8.04344 | 37° | 33km/h | 18197m | 5.1m/s | -49.2°C | 0.7% | 76.5hPa | 2.6V | 18:12:15 | 01:11:17 | 00:00:00 | |
| DO2JMG | 2026-08-31 10:42:53 | 53.06418 | 8.04327 | 45° | 33km/h | 18184m | 5m/s | -49.4°C | 0.7% | 76.7hPa | 2.7V | 18:12:15 | 01:11:15 | 00:00:00 | |
| BIOWL9-15 | 2026-08-31 10:42:52 | 53.06413 | 8.04317 | 45° | 33km/h | 18179m | 4.4m/s | -49.3°C | 1.2% | 76.7hPa | 2.7V | 00:00:00 | 00:00:00 | 00:00:00 | |
| DL1XH1-15 | 2026-08-31 10:42:51 | 53.06374 | 8.04264 | 38° | 31km/h | 18147m | 6.5m/s | -49.3°C | 3.7% | 77.1hPa | 2.7V | 08:30:00 | 01:11:08 | 00:00:00 | |
| BIOWL1-15 | 2026-08-31 10:42:51 | 53.06380 | 8.04272 | 39° | 31km/h | 18153m | 4.8m/s | -49.3°C | 0.7% | 77hPa | 2.7V | 18:12:15 | 01:11:09 | 00:00:00 | |
| DF8AY | 2026-08-31 10:42:51 | 53.06400 | 8.04298 | 39° | 35km/h | 18169m | 5.7m/s | -49.3°C | 0.7% | 76.8hPa | 2.6V | 18:12:15 | 01:11:12 | 00:00:00 | |
| DL1XH-west | 2026-08-31 10:42:49 | 53.06393 | 8.04289 | 36° | 35km/h | 18164m | 4.2m/s | -49.3°C | 0.7% | 76.9hPa | 2.6V | 18:12:15 | 01:11:11 | 00:00:00 | |
| GOEST3-10 | 2026-08-31 10:42:49 | 53.06393 | 8.04289 | 37° | 31km/h | 18164m | 4.2m/s | -49.2°C | 3.7% | 76.8hPa | 2.6V | 00:00:00 | 00:00:00 | 00:00:00 | |
| DL1XH-15 | 2026-08-31 10:42:48 | 53.06357 | 8.04242 | 36° | 26km/h | 18130m | 5.1m/s | -49.2°C | 3.7% | 77.3hPa | 2.6V | 08:30:00 | 01:11:05 | 00:00:00 | |
| AA1-15 | 2026-08-31 10:42:44 | 53.06362 | 8.04249 | 39° | 27km/h | 18136m | 5.6m/s | -49.3°C | 0.7% | 77.2hPa | 2.6V | 18:12:15 | 01:11:06 | 00:00:00 | |
| DO2JMG | 2026-08-31 10:42:42 | 53.06351 | 8.04236 | 30° | 26km/h | 18126m | 3.6m/s | -49.2°C | 0.7% | 77.3hPa | 2.7V | 18:12:15 | 01:11:04 | 00:00:00 | |
| DO2SHX-10 | 2026-08-31 10:42:42 | 53.06351 | 8.04236 | 30° | 29km/h | 18126m | 3.6m/s | -49.1°C | 3.7% | 77.3hPa | 2.7V | 00:00:00 | 01:11:04 | 00:00:00 | |
| DL1XH1-15 | 2026-08-31 10:42:41 | 53.06308 | 8.04205 | 24° | 35km/h | 18092m | 4.5m/s | -49.2°C | 3.7% | 77.7hPa | 2.7V | 08:30:00 | 01:10:58 | 00:00:00 | |
| DB0DAN | 2026-08-31 10:42:40 | 53.06338 | 8.04226 | 22° | 31km/h | 18115m | 5.9m/s | -49.1°C | 1.2% | 77.5hPa | 2.7V | 00:00:00 | 00:00:00 | 00:00:00 | |
| DL1XH-west | 2026-08-31 10:42:39 | 53.06331 | 8.04221 | 20° | 35km/h | 18109m | 4.7m/s | -49.2°C | 0.7% | 77.6hPa | 2.6V | 18:12:15 | 01:11:01 | 00:00:00 | |
| BIOWL1-15 | 2026-08-31 10:42:36 | 53.06308 | 8.04205 | 25° | 35km/h | 18092m | 4.5m/s | -49.2°C | 0.7% | 77.7hPa | 2.7V | 18:12:15 | 01:10:58 | 00:00:00 | |
| AA1-15 | 2026-08-31 10:42:33 | 53.06282 | 8.04186 | 24° | 37km/h | 18075m | 6.7m/s | -49.4°C | 0.8% | 77.9hPa | 2.6V | 18:12:15 | 01:10:55 | 00:00:00 | |
| DO2JMG | 2026-08-31 10:42:31 | 53.06265 | 8.04172 | 29° | 38km/h | 18064m | 5.3m/s | -49.4°C | 0.8% | 78.1hPa | 2.6V | 18:12:15 | 01:10:53 | 00:00:00 | |
| DD8BA-10 | 2026-08-31 10:42:31 | 53.06265 | 8.04172 | 29° | 40km/h | 18065m | 5.2m/s | -49.4°C | 3.8% | 78.0hPa | 2.6V | 00:00:00 | 00:00:00 | 00:00:00 | |
| DC4HF-4 | 2026-08-31 10:42:30 | 53.06247 | 8.04155 | 31° | 40km/h | 18053m | 4.9m/s | -49.4°C | 1.3% | 78.2hPa | 2.7V | 00:00:00 | 00:00:00 | 00:00:00 | |
| DM0DOS-11 | 2026-08-31 10:42:29 | 53.06206 | 8.04108 | 33° | 42km/h | 18023m | 5.1m/s | -49.2°C | 3.8% | 78.6hPa | 2.7V | 08:30:00 | 01:10:46 | 00:00:00 | |
| DL1XH-west | 2026-08-31 10:42:28 | 53.06239 | 8.04146 | 36° | 38km/h | 18047m | 6.5m/s | -49.4°C | 0.7% | 78.3hPa | 2.7V | 18:12:15 | 01:10:50 | 00:00:00 | |
| BIOWL1-15 | 2026-08-31 10:42:26 | 53.06215 | 8.04117 | 34° | 40km/h | 18029m | 6.2m/s | -49.3°C | 0.7% | 78.5hPa | 2.6V | 18:12:15 | 01:10:47 | 00:00:00 | |
| DB0DAN | 2026-08-31 10:42:25 | 53.06215 | 8.04117 | 34° | 38km/h | 18029m | 6.2m/s | -49.3°C | 1.3% | 78.5hPa | 2.6V | 00:00:00 | 00:00:00 | 00:00:00 | |
| GOEST3-10 | 2026-08-31 10:42:25 | 53.06206 | 8.04108 | 34° | 40km/h | 18023m | 5.1m/s | -49.2°C | 3.8% | 78.5hPa | 2.7V | 00:00:00 | 01:10:46 | 00:00:00 | |
| AA1-15 | 2026-08-31 10:42:25 | 53.06189 | 8.04089 | 34° | 38km/h | 18010m | 6.2m/s | -49.1°C | 0.7% | 78.7hPa | 2.7V | 18:12:15 | 01:10:44 | 00:00:00 | |
| DL1XH1-15 | 2026-08-31 10:42:23 | 53.06142 | 8.04037 | 35° | 37km/h | 17975m | 6.5m/s | -48.9°C | 3.8% | 79.1hPa | 2.7V | 08:30:00 | 01:10:38 | 00:00:00 | |
| BIOWL9-15 | 2026-08-31 10:42:23 | 53.06180 | 8.04080 | 33° | 40km/h | 18004m | 7.0m/s | -49.1°C | 1.3% | 78.8hPa | 2.6V | 00:00:00 | 00:00:00 | 00:00:00 | |
| DO2JMG | 2026-08-31 10:42:22 | 53.06180 | 8.04080 | 33° | 40km/h | 18004m | 7m/s | -49.1°C | 0.7% | 78.8hPa | 2.6V | 18:12:15 | 01:10:43 | 00:00:00 | |
| DB0UT-7 | 2026-08-31 10:42:21 | 53.06180 | 8.04080 | 34° | 33km/h | 18004m | 7.0m/s | -49.0°C | 3.8% | 78.7hPa | 2.6V | 00:00:00 | 00:00:00 | 00:00:00 | |
| DM0DOS-11 | 2026-08-31 10:42:19 | 53.06127 | 8.04020 | 32° | 37km/h | 17965m | 4.8m/s | -48.8°C | 3.7% | 79.2hPa | 2.6V | 08:30:00 | 01:10:36 | 00:00:00 | |
| DL1XH-west | 2026-08-31 10:42:18 | 53.06156 | 8.04054 | 35° | 35km/h | 17986m | 5m/s | -48.9°C | 0.7% | 79hPa | 2.7V | 18:12:15 | 01:10:40 | 00:00:00 | |
| DF8AY | 2026-08-31 10:42:17 | 53.06149 | 8.04046 | 37° | 35km/h | 17981m | 4.4m/s | -48.9°C | 0.8% | 79.1hPa | 2.7V | 18:12:15 | 01:10:39 | 00:00:00 | |
| BIOWL1-15 | 2026-08-31 10:42:16 | 53.06134 | 8.04028 | 33° | 37km/h | 17970m | 4.6m/s | -48.8°C | 0.8% | 79.2hPa | 2.6V | 18:12:15 | 01:10:37 | 00:00:00 | |
| AA1-15 | 2026-08-31 10:42:12 | 53.06112 | 8.04006 | 30° | 31km/h | 17954m | 4.8m/s | -48.7°C | 0.7% | 79.4hPa | 2.7V | 18:12:15 | 01:10:34 | 00:00:00 | |
| DO2SHX-10 | 2026-08-31 10:42:12 | 53.06112 | 8.04006 | 30° | 33km/h | 17954m | 4.8m/s | -48.7°C | 3.7% | 79.4hPa | 2.7V | 00:00:00 | 01:10:34 | 00:00:00 | |
| DL1XH1-15 | 2026-08-31 10:42:11 | 53.06065 | 8.03967 | 28° | 37km/h | 17919m | 7m/s | -48.5°C | 3.7% | 79.8hPa | 2.7V | 08:30:00 | 01:10:28 | 00:00:00 | |
| DO2JMG | 2026-08-31 10:42:10 | 53.06097 | 8.03993 | 24° | 37km/h | 17941m | 5.8m/s | -48.7°C | 0.7% | 79.5hPa | 2.7V | 18:12:15 | 01:10:32 | 00:00:00 | |
| DO9LL-15 | 2026-08-31 10:42:10 | 53.06097 | 8.03992 | 25° | 27km/h | 17942m | 5.7m/s | -48.7°C | 3.7% | 79.5hPa | 2.7V | 00:00:00 | 01:10:32 | 00:00:00 | |
| GOEST3-10 | 2026-08-31 10:42:09 | 53.06089 | 8.03986 | 26° | 35km/h | 17936m | 5.1m/s | -48.6°C | 3.7% | 79.6hPa | 2.7V | 00:00:00 | 00:00:00 | 00:00:00 | |
| DL4XJ-10 | 2026-08-31 10:42:08 | 53.06081 | 8.03980 | 26° | 29km/h | 17930m | 6.2m/s | -47.9°C | 0% | 0hPa | 2.7V | 00:00:00 | 00:00:00 | 00:00:00 | |
| DM0DOS-11 | 2026-08-31 10:42:07 | 53.06050 | 8.03952 | 33° | 33km/h | 17907m | 5.7m/s | -48.4°C | 3.6% | 80hPa | 2.7V | 08:30:00 | 01:10:26 | 00:00:00 | |
| DL1XH-west | 2026-08-31 10:42:07 | 53.06073 | 8.03974 | 27° | 35km/h | 17925m | 4.7m/s | -48.6°C | 0.7% | 79.8hPa | 2.6V | 18:12:15 | 01:10:29 | 00:00:00 | |
| BIOWL1-15 | 2026-08-31 10:42:05 | 53.06043 | 8.03945 | 32° | 29km/h | 17902m | 5.8m/s | -48.4°C | 0.6% | 80hPa | 2.6V | 18:12:15 | 01:10:25 | 00:00:00 | |
| AA1-15 | 2026-08-31 10:42:01 | 53.06032 | 8.03933 | 29° | 27km/h | 17891m | 5.8m/s | -48.3°C | 0.7% | 80.2hPa | 2.6V | 18:12:15 | 01:10:23 | 00:00:00 | |
| DO2JMG | 2026-08-31 10:41:59 | 53.06019 | 8.03922 | 31° | 27km/h | 17880m | 5.4m/s | -48.2°C | 0.6% | 80.3hPa | 2.7V | 18:12:15 | 01:10:21 | 00:00:00 | |
| DL1XH-west | 2026-08-31 10:41:57 | 53.06008 | 8.03909 | 36° | 26km/h | 17868m | 5m/s | -48.1°C | 0.6% | 80.5hPa | 2.6V | 18:12:15 | 01:10:19 | 00:00:00 | |
| DB0DAN | 2026-08-31 10:41:55 | 53.05995 | 8.03898 | 20° | 27km/h | 17857m | 5.9m/s | -48.1°C | 1.2% | 80.58hPa | 2.6V | 00:00:00 | 00:00:00 | 00:00:00 | |
| BIOWL1-15 | 2026-08-31 10:41:53 | 53.05982 | 8.03890 | 19° | 27km/h | 17846m | 6.9m/s | -48°C | 0.5% | 80.7hPa | 2.7V | 18:12:15 | 01:10:15 | 00:00:00 | |
| DF8AY-15 | 2026-08-31 10:41:53 | 53.05982 | 8.03890 | 19° | 24km/h | 17846m | 6.8m/s | -47.9°C | 3.5% | 80.6hPa | 2.7V | 00:00:00 | 01:10:15 | 08:30:00 | |
| DL1XH1-15 | 2026-08-31 10:41:51 | 53.05943 | 8.03850 | 36° | 26km/h | 17807m | 6.2m/s | -48°C | 3.5% | 81.2hPa | 2.7V | 08:30:00 | 01:10:08 | 00:00:00 | |
| AA1-15 | 2026-08-31 10:41:51 | 53.05970 | 8.03882 | 24° | 27km/h | 17834m | 6.5m/s | 0°C | 0% | 0hPa | 2.6V | 18:12:15 | 01:10:13 | 00:00:00 | |
| DO2JMG | 2026-08-31 10:41:49 | 53.05958 | 8.03871 | 35° | 27km/h | 17823m | 6m/s | -47.9°C | 0.5% | 81hPa | 2.6V | 18:12:15 | 01:10:11 | 00:00:00 | |
| DF8AY | 2026-08-31 10:41:47 | 53.05948 | 8.03857 | 40° | 27km/h | 17812m | 4.3m/s | -48°C | 0.6% | 81.1hPa | 2.7V | 18:12:15 | 01:10:09 | 00:00:00 | |
| DL1XH-west | 2026-08-31 10:41:46 | 53.05942 | 8.03850 | 36° | 26km/h | 17807m | 6.2m/s | -48.1°C | 0.6% | 81.2hPa | 2.7V | 18:12:15 | 01:10:08 | 00:00:00 | |
| DL3AQ-11 | 2026-08-31 10:41:45 | 53.05932 | 8.03839 | 30° | 20km/h | 17796m | 6.1m/s | -48.1°C | 1.2% | 81.3hPa | 2.6V | 00:00:00 | 00:00:00 | 00:00:00 | |
| BIOWL1-15 | 2026-08-31 10:41:43 | 53.05927 | 8.03835 | 30° | 20km/h | 17790m | 5.8m/s | -48.1°C | 0.6% | 81.5hPa | 2.6V | 18:12:15 | 01:10:05 | 00:00:00 | |
| DB0NH | 2026-08-31 10:41:43 | 53.05927 | 8.03835 | 30° | 27km/h | 17790m | 5.8m/s | -48.0°C | 3.5% | 81.4hPa | 2.6V | 00:00:00 | 01:10:05 | 00:00:00 | |
| DL1XH1-15 | 2026-08-31 10:41:41 | 53.05894 | 8.03796 | 51° | 26km/h | 17751m | 5.2m/s | -48°C | 3.5% | 81.9hPa | 2.7V | 08:30:00 | 01:09:58 | 00:00:00 | |
| AA1-15 | 2026-08-31 10:41:40 | 53.05913 | 8.03823 | 29° | 24km/h | 17772m | 5.1m/s | -48°C | 0.6% | 81.7hPa | 2.7V | 18:12:15 | 01:10:02 | 00:00:00 | |
| DB0DAN | 2026-08-31 10:41:40 | 53.05913 | 8.03823 | 29° | 24km/h | 17772m | 5.1m/s | -48°C | 1.2% | 81.65hPa | 2.7V | 00:00:00 | 00:00:00 | 00:00:00 | |
| HSKMA3-T | 2026-08-31 10:41:38 | 53.05903 | 8.03812 | 41° | 24km/h | 17762m | 6.5m/s | -48°C | 0.5% | 81.8hPa | 2.6V | 18:12:15 | 01:10:00 | 00:00:00 | |
| DF8AY | 2026-08-31 10:41:37 | 53.05899 | 8.03804 | 49° | 26km/h | 17756m | 4.9m/s | -48°C | 0.6% | 81.8hPa | 2.6V | 18:12:15 | 01:09:59 | 00:00:00 | |
| DL1XH-west | 2026-08-31 10:41:35 | 53.05890 | 8.03788 | 49° | 26km/h | 17746m | 5.2m/s | -48°C | 0.6% | 81.9hPa | 2.7V | 18:12:15 | 01:09:57 | 00:00:00 | |
| BIOWL1-15 | 2026-08-31 10:41:32 | 53.05878 | 8.03760 | 57° | 27km/h | 17730m | 3.7m/s | -47.9°C | 0.6% | 82.1hPa | 2.6V | 18:12:15 | 01:09:54 | 00:00:00 | |
| AA1-15 | 2026-08-31 10:41:29 | 53.05865 | 8.03736 | 35° | 26km/h | 17715m | 5.1m/s | -47.9°C | 0.6% | 82.3hPa | 2.7V | 18:12:15 | 01:09:51 | 00:00:00 | |
| DO2JMG | 2026-08-31 10:41:28 | 53.05860 | 8.03731 | 32° | 22km/h | 17709m | 5.3m/s | -47.9°C | 0.5% | 82.4hPa | 2.7V | 18:12:15 | 01:09:50 | 00:00:00 | |
| DF8AY | 2026-08-31 10:41:27 | 53.05856 | 8.03726 | 29° | 18km/h | 17704m | 5.3m/s | -47.9°C | 0.5% | 82.5hPa | 2.6V | 18:12:15 | 01:09:49 | 00:00:00 | |
| DB0DAN | 2026-08-31 10:41:25 | 53.05848 | 8.03720 | 25° | 15km/h | 17694m | 6.2m/s | -48°C | 1.2% | 82.61hPa | 2.6V | 00:00:00 | 00:00:00 | 00:00:00 | |
| DL1XH-west | 2026-08-31 10:41:24 | 53.05844 | 8.03717 | 28° | 16km/h | 17688m | 4.1m/s | -48°C | 0.6% | 82.7hPa | 2.7V | 18:12:15 | 01:09:46 | 00:00:00 | |
| BIOWL1-15 | 2026-08-31 10:41:23 | 53.05836 | 8.03703 | 55° | 18km/h | 17673m | 4.7m/s | -48.3°C | 0.7% | 82.9hPa | 2.6V | 18:12:15 | 01:09:43 | 00:00:00 | |
| DO2SHX-10 | 2026-08-31 10:41:23 | 53.05841 | 8.03713 | 42° | 16km/h | 17683m | 6.1m/s | -48.1°C | 3.6% | 82.7hPa | 2.7V | 00:00:00 | 01:09:45 | 00:00:00 | |
| SMARD9-15 | 2026-08-31 10:41:22 | 53.05838 | 8.03709 | 50° | 15km/h | 17678m | 4.8m/s | -48.3°C | 1.2% | 82.8hPa | 2.7V | 00:00:00 | 00:00:00 | 00:00:00 | |
| DL1XH1-15 | 2026-08-31 10:41:21 | 53.05814 | 8.03665 | 42° | 33km/h | 17647m | 4.6m/s | -48.2°C | 3.6% | 83.2hPa | 2.7V | 08:30:00 | 01:09:38 | 00:00:00 | |
| DD8BA-10 | 2026-08-31 10:41:21 | 53.05836 | 8.03703 | 56° | 29km/h | 17673m | 4.6m/s | -48.3°C | 3.7% | 82.8hPa | 2.6V | 00:00:00 | 00:00:00 | 00:00:00 | |
| DO2SHX-10 | 2026-08-31 10:41:20 | 53.05833 | 8.03697 | 46° | 24km/h | 17668m | 5.6m/s | -48.3°C | 3.7% | 82.9hPa | 2.6V | 00:00:00 | 01:09:42 | 00:00:00 | |
| DM0DOS-11 | 2026-08-31 10:41:19 | 53.05800 | 8.03647 | 36° | 37km/h | 17637m | 4m/s | -48.1°C | 3.5% | 83.3hPa | 2.6V | 08:30:00 | 01:09:36 | 00:00:00 | |
| DJ2DS-15 | 2026-08-31 10:41:19 | 53.05829 | 8.03691 | 45° | 29km/h | 17663m | 4.0m/s | -48.2°C | 3.6% | 83.0hPa | 2.6V | 00:00:00 | 01:09:41 | 00:00:00 | |
| DL1XH-15 | 2026-08-31 10:41:18 | 53.05793 | 8.03638 | 38° | 35km/h | 17632m | 5.5m/s | -48.1°C | 3.5% | 83.4hPa | 2.6V | 08:30:00 | 01:09:35 | 00:00:00 | |
| HSKMA3-T | 2026-08-31 10:41:18 | 53.05824 | 8.03683 | 45° | 27km/h | 17658m | 5.3m/s | -48.3°C | 0.6% | 83.1hPa | 2.7V | 18:12:15 | 01:09:40 | 00:00:00 | |
| DO2JMG | 2026-08-31 10:41:17 | 53.05819 | 8.03675 | 47° | 31km/h | 17652m | 5.5m/s | -48.2°C | 0.7% | 83.2hPa | 2.7V | 18:12:15 | 01:09:39 | 00:00:00 | |
| DF8AY | 2026-08-31 10:41:16 | 53.05814 | 8.03665 | 43° | 33km/h | 17647m | 4.6m/s | -48.2°C | 0.7% | 83.2hPa | 2.7V | 18:12:15 | 01:09:38 | 00:00:00 | |
| DL1XH-west | 2026-08-31 10:41:13 | 53.05793 | 8.03638 | 39° | 35km/h | 17632m | 5.6m/s | -48.1°C | 0.6% | 83.4hPa | 2.6V | 18:12:15 | 01:09:35 | 00:00:00 | |
| BIOWL1-15 | 2026-08-31 10:41:12 | 53.05776 | 8.03613 | 44° | 26km/h | 17615m | 5.5m/s | -47.9°C | 0.6% | 83.6hPa | 2.7V | 18:12:15 | 01:09:32 | 00:00:00 | |
| DL1XH1-15 | 2026-08-31 10:41:11 | 53.05760 | 8.03580 | 53° | 26km/h | 17594m | 3.7m/s | -47.9°C | 3.5% | 83.9hPa | 2.7V | 08:30:00 | 01:09:28 | 00:00:00 | |
| DB0DAN | 2026-08-31 10:41:10 | 53.05776 | 8.03613 | 44° | 24km/h | 17615m | 5.5m/s | -47.9°C | 1.2% | 83.64hPa | 2.7V | 00:00:00 | 00:00:00 | 00:00:00 | |
| DO9LL-15 | 2026-08-31 10:41:10 | 53.05776 | 8.03613 | 44° | 24km/h | 17615m | 5.4m/s | -47.9°C | 3.5% | 83.6hPa | 2.6V | 00:00:00 | 01:09:32 | 00:00:00 | |
| GOEST3-10 | 2026-08-31 10:41:09 | 53.05771 | 8.03606 | 47° | 26km/h | 17610m | 4.8m/s | -47.9°C | 3.5% | 83.6hPa | 2.6V | 00:00:00 | 00:00:00 | 00:00:00 | |
| DL1XH-15 | 2026-08-31 10:41:08 | 53.05746 | 8.03557 | 44° | 29km/h | 17578m | 5.5m/s | -47.8°C | 3.4% | 84.1hPa | 2.6V | 08:30:00 | 01:09:25 | 00:00:00 | |
| AA1-15 | 2026-08-31 10:41:08 | 53.05768 | 8.03598 | 54° | 24km/h | 17604m | 6.8m/s | -47.9°C | 0.6% | 83.8hPa | 2.6V | 18:12:15 | 01:09:30 | 00:00:00 | |
| DO2JMG | 2026-08-31 10:41:07 | 53.05764 | 8.03589 | 56° | 26km/h | 17598m | 4.1m/s | -47.9°C | 0.6% | 83.8hPa | 2.6V | 18:12:15 | 01:09:29 | 00:00:00 | |
| DF8AY | 2026-08-31 10:41:05 | 53.05756 | 8.03572 | 49° | 26km/h | 17589m | 6.2m/s | -47.9°C | 0.5% | 83.9hPa | 2.7V | 18:12:15 | 01:09:27 | 00:00:00 | |
| DL3AQ-11 | 2026-08-31 10:41:05 | 53.05751 | 8.03564 | 42° | 26km/h | 17584m | 4.7m/s | -47.9°C | 1.2% | 84.0hPa | 2.6V | 00:00:00 | 00:00:00 | 00:00:00 | |
| GOEST3-10 | 2026-08-31 10:41:03 | 53.05746 | 8.03556 | 45° | 27km/h | 17578m | 5.5m/s | -47.8°C | 3.4% | 84.1hPa | 2.6V | 00:00:00 | 01:09:25 | 00:00:00 | |
| DL1XH-west | 2026-08-31 10:41:03 | 53.05746 | 8.03557 | 44° | 29km/h | 17578m | 5.6m/s | -47.8°C | 0.5% | 84.1hPa | 2.6V | 18:12:15 | 01:09:25 | 00:00:00 | |
| DO2SHX-10 | 2026-08-31 10:41:02 | 53.05741 | 8.03548 | 43° | 29km/h | 17573m | 5.4m/s | -47.8°C | 3.5% | 84.1hPa | 2.6V | 00:00:00 | 01:09:24 | 00:00:00 | |
| DL1XH1-15 | 2026-08-31 10:41:01 | 53.05711 | 8.03504 | 55° | 22km/h | 17541m | 4m/s | -47.8°C | 3.4% | 84.6hPa | 2.6V | 08:30:00 | 01:09:18 | 00:00:00 | |
| DF5WG-10 | 2026-08-31 10:41:01 | 53.05735 | 8.03540 | 40° | 22km/h | 17567m | 6.0m/s | -47.8°C | 3.5% | 84.2hPa | 2.7V | 00:00:00 | 01:09:23 | 00:00:00 | |
| DM0DOS-11 | 2026-08-31 10:40:59 | 53.05706 | 8.03491 | 47° | 16km/h | 17531m | 4.6m/s | -47.8°C | 3.4% | 84.7hPa | 2.7V | 08:30:00 | 01:09:16 | 00:00:00 | |
| BIOWL1-15 | 2026-08-31 10:40:59 | 53.05724 | 8.03526 | 36° | 26km/h | 17556m | 4m/s | -47.8°C | 0.6% | 84.4hPa | 2.7V | 18:12:15 | 01:09:21 | 00:00:00 | |
| HSKMA3-T | 2026-08-31 10:40:58 | 53.05711 | 8.03504 | 56° | 22km/h | 17541m | 4.1m/s | -47.8°C | 0.5% | 84.6hPa | 2.6V | 18:12:15 | 01:09:18 | 00:00:00 | |
| DF8AY | 2026-08-31 10:40:57 | 53.05708 | 8.03497 | 54° | 18km/h | 17536m | 5.6m/s | -47.8°C | 0.5% | 84.6hPa | 2.6V | 18:12:15 | 01:09:17 | 00:00:00 | |
| DL1XH-west | 2026-08-31 10:40:52 | 53.05699 | 8.03480 | 36° | 22km/h | 17520m | 4.8m/s | -47.9°C | 0.6% | 84.9hPa | 2.7V | 18:12:15 | 01:09:14 | 00:00:00 | |
| GOEST3-10 | 2026-08-31 10:40:52 | 53.05699 | 8.03480 | 36° | 22km/h | 17520m | 4.7m/s | -47.9°C | 3.5% | 84.8hPa | 2.7V | 00:00:00 | 01:09:14 | 00:00:00 | |
| DL1XH1-15 | 2026-08-31 10:40:51 | 53.05668 | 8.03456 | 31° | 20km/h | 17489m | 5.4m/s | -48.3°C | 3.6% | 85.3hPa | 2.7V | 08:30:00 | 01:09:08 | 00:00:00 | |
| BIOWL1-15 | 2026-08-31 10:40:50 | 53.05678 | 8.03465 | 27° | 24km/h | 17499m | 6m/s | -48.2°C | 0.6% | 85.2hPa | 2.7V | 18:12:15 | 01:09:10 | 00:00:00 | |
| DF8AY-15 | 2026-08-31 10:40:50 | 53.05689 | 8.03472 | 22° | 22km/h | 17509m | 5.6m/s | -48.0°C | 3.5% | 84.9hPa | 2.6V | 00:00:00 | 01:09:12 | 00:00:00 | |
| DM0DOS-11 | 2026-08-31 10:40:49 | 53.05659 | 8.03447 | 28° | 20km/h | 17478m | 4.5m/s | -48.2°C | 3.5% | 85.4hPa | 2.6V | 08:30:00 | 01:09:06 | 00:00:00 | |
| DL1XH-15 | 2026-08-31 10:40:48 | 53.05655 | 8.03442 | 36° | 22km/h | 17473m | 6.1m/s | -48.3°C | 3.5% | 85.4hPa | 2.6V | 08:30:00 | 01:09:05 | 00:00:00 | |
| DO2JMG | 2026-08-31 10:40:45 | 53.05664 | 8.03451 | 30° | 22km/h | 17483m | 5.6m/s | -48.2°C | 0.6% | 85.3hPa | 2.6V | 18:12:15 | 01:09:07 | 00:00:00 | |
| DF8AY | 2026-08-31 10:40:44 | 53.05659 | 8.03447 | 28° | 22km/h | 17478m | 4.5m/s | -48.2°C | 0.6% | 85.4hPa | 2.6V | 18:12:15 | 01:09:06 | 00:00:00 | |
| DL1XH-west | 2026-08-31 10:40:42 | 53.05650 | 8.03436 | 41° | 26km/h | 17467m | 5.2m/s | -48.2°C | 0.6% | 85.5hPa | 2.7V | 18:12:15 | 01:09:04 | 00:00:00 | |
| GOEST3-10 | 2026-08-31 10:40:42 | 53.05650 | 8.03436 | 42° | 24km/h | 17467m | 5.1m/s | -48.2°C | 3.5% | 85.5hPa | 2.7V | 00:00:00 | 01:09:04 | 00:00:00 | |
| DL1XH1-15 | 2026-08-31 10:40:41 | 53.05625 | 8.03392 | 50° | 24km/h | 17435m | 5.9m/s | -48.4°C | 3.6% | 85.9hPa | 2.7V | 08:30:00 | 01:08:58 | 00:00:00 | |
| DB0DAN | 2026-08-31 10:40:40 | 53.05641 | 8.03423 | 42° | 22km/h | 17456m | 5.2m/s | -48.3°C | 1.2% | 85.67hPa | 2.7V | 00:00:00 | 00:00:00 | 00:00:00 | |
| DO9LL-15 | 2026-08-31 10:40:40 | 53.05641 | 8.03423 | 42° | 31km/h | 17457m | 5.2m/s | -48.3°C | 3.6% | 85.6hPa | 2.7V | 00:00:00 | 01:09:02 | 00:00:00 | |
| DM0DOS-11 | 2026-08-31 10:40:39 | 53.05617 | 8.03378 | 46° | 26km/h | 17426m | 4.3m/s | -48.5°C | 3.6% | 86.1hPa | 2.7V | 08:30:00 | 01:08:56 | 00:00:00 | |
| DJ2DS-15 | 2026-08-31 10:40:39 | 53.05636 | 8.03416 | 47° | 29km/h | 17451m | 4.5m/s | -48.3°C | 3.6% | 85.7hPa | 2.6V | 00:00:00 | 01:09:01 | 00:00:00 | |
| DL1XH-15 | 2026-08-31 10:40:38 | 53.05613 | 8.03370 | 49° | 27km/h | 17421m | 5.5m/s | -48.5°C | 3.6% | 86.2hPa | 2.6V | 08:30:00 | 01:08:55 | 00:00:00 | |
| BIOWL1-15 | 2026-08-31 10:40:37 | 53.05629 | 8.03400 | 54° | 24km/h | 17440m | 4.2m/s | -48.4°C | 0.6% | 85.9hPa | 2.6V | 18:12:15 | 01:08:59 | 00:00:00 | |
| DO2JMG | 2026-08-31 10:40:34 | 53.05617 | 8.03378 | 47° | 26km/h | 17426m | 4.3m/s | -48.5°C | 0.6% | 86.1hPa | 2.7V | 18:12:15 | 01:08:56 | 00:00:00 | |
| DF8AY | 2026-08-31 10:40:33 | 53.05613 | 8.03370 | 50° | 27km/h | 17421m | 5.5m/s | -48.5°C | 0.7% | 86.2hPa | 2.6V | 18:12:15 | 01:08:55 | 00:00:00 | |
| DL1XH-west | 2026-08-31 10:40:31 | 53.05602 | 8.03352 | 40° | 31km/h | 17410m | 5.2m/s | -48.5°C | 0.6% | 86.3hPa | 2.6V | 18:12:15 | 01:08:53 | 00:00:00 | |
| DD8BA-10 | 2026-08-31 10:40:31 | 53.05602 | 8.03352 | 41° | 33km/h | 17410m | 5.2m/s | -48.4°C | 3.6% | 86.2hPa | 2.6V | 00:00:00 | 00:00:00 | 08:30:00 | |
| DM0DOS-11 | 2026-08-31 10:40:30 | 53.05564 | 8.03280 | 52° | 33km/h | 17373m | 6.6m/s | -48.4°C | 3.5% | 86.8hPa | 2.7V | 08:30:00 | 01:08:46 | 00:00:00 | |
| DF8AY-15 | 2026-08-31 10:40:30 | 53.05596 | 8.03343 | 46° | 35km/h | 17405m | 4.8m/s | -48.4°C | 3.6% | 86.3hPa | 2.7V | 00:00:00 | 01:08:52 | 00:00:00 | |
| DL1XH-15 | 2026-08-31 10:40:29 | 53.05560 | 8.03269 | 55° | 33km/h | 17367m | 4.6m/s | -48.5°C | 3.5% | 86.9hPa | 2.7V | 08:30:00 | 01:08:45 | 00:00:00 | |
| BIOWL1-15 | 2026-08-31 10:40:26 | 53.05575 | 8.03301 | 48° | 31km/h | 17383m | 4.8m/s | -48.4°C | 0.6% | 86.7hPa | 2.6V | 18:12:15 | 01:08:48 | 00:00:00 | |
| DB0DAN | 2026-08-31 10:40:25 | 53.05569 | 8.03291 | 51° | 31km/h | 17378m | 4.5m/s | -48.3°C | 1.2% | 86.7hPa | 2.6V | 00:00:00 | 00:00:00 | 00:00:00 | |
| AA1-15 | 2026-08-31 10:40:24 | 53.05564 | 8.03280 | 53° | 33km/h | 17373m | 6.6m/s | -48.4°C | 0.6% | 86.8hPa | 2.7V | 18:12:15 | 01:08:46 | 00:00:00 | |
| DO2JMG | 2026-08-31 10:40:23 | 53.05560 | 8.03269 | 56° | 33km/h | 17367m | 4.6m/s | -48.5°C | 0.6% | 86.9hPa | 2.7V | 18:12:15 | 01:08:45 | 00:00:00 | |
| DO2SHX-10 | 2026-08-31 10:40:23 | 53.05560 | 8.03269 | 56° | 29km/h | 17367m | 4.6m/s | -48.4°C | 3.5% | 86.9hPa | 2.7V | 00:00:00 | 01:08:45 | 00:00:00 | |
| GOEST3-10 | 2026-08-31 10:40:22 | 53.05555 | 8.03259 | 53° | 31km/h | 17362m | 6.4m/s | -48.5°C | 3.5% | 86.9hPa | 2.7V | 00:00:00 | 01:08:44 | 00:00:00 | |
| DL1XH1-15 | 2026-08-31 10:40:21 | 53.05532 | 8.03192 | 64° | 35km/h | 17329m | 4.5m/s | -48.6°C | 3.6% | 87.4hPa | 2.7V | 08:30:00 | 01:08:38 | 00:00:00 | |
| DL1XH-west | 2026-08-31 10:40:21 | 53.05551 | 8.03249 | 55° | 27km/h | 17356m | 5.2m/s | -48.5°C | 0.6% | 87hPa | 2.6V | 18:12:15 | 01:08:43 | 00:00:00 | |
| DB0UT-7 | 2026-08-31 10:40:21 | 53.05551 | 8.03249 | 56° | 38km/h | 17356m | 5.1m/s | -48.5°C | 3.6% | 87.0hPa | 2.6V | 00:00:00 | 00:00:00 | 00:00:00 | |
| DO2SHX-10 | 2026-08-31 10:40:20 | 53.05547 | 8.03239 | 57° | 31km/h | 17351m | 4.7m/s | -48.5°C | 3.5% | 87.0hPa | 2.6V | 00:00:00 | 01:08:42 | 08:30:00 | |
| DM0DOS-11 | 2026-08-31 10:40:19 | 53.05524 | 8.03164 | 64° | 40km/h | 17318m | 4.5m/s | -48.6°C | 3.5% | 87.5hPa | 2.6V | 08:30:00 | 01:08:36 | 00:00:00 | |
| BIOWL1-15 | 2026-08-31 10:40:15 | 53.05528 | 8.03179 | 66° | 38km/h | 17324m | 6.6m/s | -48.7°C | 0.6% | 87.4hPa | 2.6V | 18:12:15 | 01:08:37 | 00:00:00 | |
| DO2JMG | 2026-08-31 10:40:13 | 53.05519 | 8.03148 | 66° | 40km/h | 17314m | 3.8m/s | -48.7°C | 0.6% | 87.6hPa | 2.6V | 18:12:15 | 01:08:35 | 00:00:00 | |
| GOEST3-10 | 2026-08-31 10:40:12 | 53.05515 | 8.03133 | 66° | 38km/h | 17309m | 6.0m/s | -48.6°C | 3.5% | 87.6hPa | 2.7V | 00:00:00 | 01:08:34 | 00:00:00 | |
| DL1XH1-15 | 2026-08-31 10:40:11 | 53.05495 | 8.03044 | 66° | 37km/h | 17279m | 4.5m/s | -48.8°C | 3.6% | 88.1hPa | 2.7V | 08:30:00 | 01:08:28 | 00:00:00 | |
| DL1XH-west | 2026-08-31 10:40:10 | 53.05508 | 8.03104 | 69° | 37km/h | 17300m | 4.3m/s | -48.7°C | 0.6% | 87.8hPa | 2.7V | 18:12:15 | 01:08:32 | 00:00:00 | |
| DB0DAN | 2026-08-31 10:40:10 | 53.05508 | 8.03104 | 69° | 35km/h | 17300m | 4.3m/s | -48.7°C | 1.2% | 87.79hPa | 2.7V | 00:00:00 | 00:00:00 | 00:00:00 | |
| BIOWL1-15 | 2026-08-31 10:40:07 | 53.05491 | 8.03030 | 64° | 38km/h | 17274m | 4.9m/s | -48.8°C | 0.6% | 88.1hPa | 2.7V | 18:12:15 | 01:08:27 | 00:00:00 | |
| DF8AY | 2026-08-31 10:40:03 | 53.05442 | 8.02926 | 49° | 40km/h | 17233m | 5.9m/s | -49°C | 0.7% | 88.7hPa | 2.6V | 18:12:15 | 01:08:19 | 00:00:00 | |
| DO2JMG | 2026-08-31 10:40:03 | 53.05468 | 8.02977 | 48° | 37km/h | 17255m | 5.3m/s | -48.9°C | 0.7% | 88.4hPa | 2.6V | 18:12:15 | 01:08:23 | 00:00:00 | |
| DL1XH1-15 | 2026-08-31 10:40:02 | 53.05435 | 8.02914 | 47° | 38km/h | 17228m | 4.7m/s | -49°C | 3.7% | 88.8hPa | 2.6V | 08:30:00 | 01:08:18 | 00:00:00 | |
| DM0DOS-11 | 2026-08-31 10:40:02 | 53.05421 | 8.02888 | 48° | 44km/h | 17218m | 7m/s | -49.2°C | 3.7% | 88.9hPa | 2.7V | 08:30:00 | 01:08:16 | 00:00:00 | |
| DL1XH-west | 2026-08-31 10:40:02 | 53.05455 | 8.02952 | 50° | 42km/h | 17244m | 6.5m/s | -49°C | 0.7% | 88.5hPa | 2.7V | 18:12:15 | 01:08:21 | 00:00:00 | |
| DL3AQ-11 | 2026-08-31 10:39:57 | 53.05442 | 8.02926 | 49° | 38km/h | 17233m | 5.9m/s | -49.0°C | 1.3% | 88.7hPa | 2.6V | 00:00:00 | 00:00:00 | 00:00:00 | |
| SONCRA | 2026-08-31 10:39:56 | 53.05428 | 8.02902 | 48° | 40km/h | 17223m | 4.3m/s | -49.1°C | 1.3% | 88.8hPa | 2.6V | 00:00:00 | 00:00:00 | 00:00:00 | |
| DB0DAN | 2026-08-31 10:39:55 | 53.05428 | 8.02902 | 49° | 38km/h | 17223m | 4.3m/s | -49.1°C | 1.3% | 88.84hPa | 2.6V | 00:00:00 | 00:00:00 | 00:00:00 | |
| BIOWL1-15 | 2026-08-31 10:39:54 | 53.05421 | 8.02888 | 48° | 44km/h | 17218m | 7m/s | -49.2°C | 0.7% | 88.9hPa | 2.7V | 18:12:15 | 01:08:16 | 00:00:00 | |
| DO2JMG | 2026-08-31 10:39:52 | 53.05406 | 8.02859 | 51° | 46km/h | 17208m | 4.4m/s | -49.2°C | 0.7% | 89.1hPa | 2.7V | 18:12:15 | 01:08:14 | 00:00:00 | |
| AA1-15 | 2026-08-31 10:39:51 | 53.05399 | 8.02845 | 51° | 44km/h | 17203m | 5.3m/s | -49.2°C | 0.7% | 89.1hPa | 2.6V | 18:12:15 | 01:08:13 | 00:00:00 | |
| DL1XH1-15 | 2026-08-31 10:39:51 | 53.05368 | 8.02771 | 57° | 42km/h | 17176m | 5.4m/s | -49.2°C | 3.7% | 89.5hPa | 2.7V | 08:30:00 | 01:08:08 | 00:00:00 | |
| DD8BA-10 | 2026-08-31 10:39:51 | 53.05399 | 8.02845 | 51° | 44km/h | 17203m | 5.3m/s | -49.1°C | 3.7% | 89.1hPa | 2.6V | 00:00:00 | 00:00:00 | 00:00:00 | |
| DO2SHX-10 | 2026-08-31 10:39:50 | 53.05392 | 8.02831 | 52° | 44km/h | 17198m | 4.2m/s | -49.1°C | 3.7% | 89.1hPa | 2.6V | 00:00:00 | 01:08:12 | 00:00:00 | |
| DM0DOS-11 | 2026-08-31 10:39:49 | 53.05356 | 8.02740 | 55° | 46km/h | 17165m | 5.3m/s | -49.2°C | 3.7% | 89.6hPa | 2.6V | 08:30:00 | 01:08:06 | 00:00:00 | |
| DL1XH-west | 2026-08-31 10:39:48 | 53.05380 | 8.02801 | 57° | 46km/h | 17187m | 5.5m/s | -49.2°C | 0.7% | 89.4hPa | 2.7V | 18:12:15 | 01:08:10 | 00:00:00 | |
| DF8AY | 2026-08-31 10:39:47 | 53.05373 | 8.02786 | 57° | 42km/h | 17182m | 5.6m/s | -49.2°C | 0.7% | 89.4hPa | 2.7V | 18:12:15 | 01:08:09 | 00:00:00 | |
| BIOWL9-15 | 2026-08-31 10:39:46 | 53.05368 | 8.02771 | 57° | 40km/h | 17176m | 5.4m/s | -49.2°C | 1.3% | 89.5hPa | 2.6V | 00:00:00 | 00:00:00 | 00:00:00 | |
| DL3AQ-11 | 2026-08-31 10:39:45 | 53.05356 | 8.02740 | 55° | 44km/h | 17165m | 5.4m/s | -49.2°C | 1.3% | 89.6hPa | 2.6V | 00:00:00 | 00:00:00 | 00:00:00 | |
| BIOWL1-15 | 2026-08-31 10:39:43 | 53.05349 | 8.02724 | 55° | 46km/h | 17160m | 5.1m/s | -49.2°C | 0.7% | 89.7hPa | 2.6V | 18:12:15 | 01:08:05 | 00:00:00 | |
| HSKMA3-T | 2026-08-31 10:39:42 | 53.05342 | 8.02709 | 52° | 46km/h | 17154m | 6.4m/s | -49.2°C | 0.7% | 89.8hPa | 2.7V | 18:12:15 | 01:08:04 | 00:00:00 | |
| DO2JMG | 2026-08-31 10:39:41 | 53.05335 | 8.02694 | 51° | 46km/h | 17149m | 4.5m/s | -49.2°C | 0.7% | 89.8hPa | 2.7V | 18:12:15 | 01:08:03 | 00:00:00 | |
| DO2SHX-10 | 2026-08-31 10:39:41 | 53.05335 | 8.02694 | 51° | 47km/h | 17149m | 4.5m/s | -49.1°C | 3.7% | 89.8hPa | 2.7V | 00:00:00 | 01:08:03 | 00:00:00 | |
| DO9LL-15 | 2026-08-31 10:39:40 | 53.05328 | 8.02678 | 55° | 42km/h | 17143m | 6.5m/s | -49.1°C | 3.7% | 89.9hPa | 2.7V | 00:00:00 | 01:08:02 | 00:00:00 | |
| DM0DOS-11 | 2026-08-31 10:39:39 | 53.05287 | 8.02589 | 51° | 44km/h | 17112m | 5.4m/s | -49°C | 3.6% | 90.3hPa | 2.7V | 08:30:00 | 01:07:56 | 00:00:00 | |
| DL1XH-west | 2026-08-31 10:39:37 | 53.05308 | 8.02631 | 53° | 46km/h | 17128m | 6.4m/s | -49.1°C | 0.7% | 90.1hPa | 2.6V | 18:12:15 | 01:07:59 | 00:00:00 | |
| BIOWL1-15 | 2026-08-31 10:39:33 | 53.05281 | 8.02575 | 50° | 40km/h | 17107m | 4.5m/s | -49°C | 0.6% | 90.4hPa | 2.6V | 18:12:15 | 01:07:55 | 00:00:00 | |
| HSKMA3-T | 2026-08-31 10:39:33 | 53.05274 | 8.02563 | 52° | 38km/h | 17102m | 5.4m/s | -49°C | 0.6% | 90.5hPa | 2.6V | 18:12:15 | 01:07:54 | 00:00:00 | |
| DC6BW-12 | 2026-08-31 10:39:33 | 53.05274 | 8.02562 | 52° | 38km/h | 17103m | 5.4m/s | -49.0°C | 1.3% | 90.5hPa | 2.6V | 00:00:00 | 00:00:00 | 00:00:00 | |
| DD8BA-10 | 2026-08-31 10:39:32 | 53.05268 | 8.02550 | 54° | 44km/h | 17097m | 5.4m/s | -49.0°C | 3.6% | 90.5hPa | 2.6V | 00:00:00 | 00:00:00 | 00:00:00 | |
| DO2JMG | 2026-08-31 10:39:32 | 53.05268 | 8.02550 | 54° | 38km/h | 17097m | 5.5m/s | -49°C | 0.6% | 90.6hPa | 2.6V | 18:12:15 | 01:07:53 | 00:00:00 | |
| DO2SHX-10 | 2026-08-31 10:39:31 | 53.05268 | 8.02550 | 54° | 40km/h | 17097m | 5.4m/s | -49.0°C | 3.6% | 90.5hPa | 2.6V | 00:00:00 | 01:07:53 | 00:00:00 | |
| DF8AY-15 | 2026-08-31 10:39:30 | 53.05263 | 8.02536 | 57° | 42km/h | 17091m | 6.2m/s | -49.1°C | 3.6% | 90.6hPa | 2.7V | 00:00:00 | 01:07:52 | 00:00:00 | |
| DM0DOS-11 | 2026-08-31 10:39:29 | 53.05222 | 8.02452 | 46° | 47km/h | 17061m | 5.3m/s | -49.5°C | 3.7% | 91.1hPa | 2.7V | 08:30:00 | 01:07:46 | 00:00:00 | |
| DL1XH-west | 2026-08-31 10:39:28 | 53.05244 | 8.02493 | 51° | 42km/h | 17076m | 5.4m/s | -49.4°C | 0.7% | 90.9hPa | 2.6V | 18:12:15 | 01:07:49 | 00:00:00 | |
| DL4XJ-10 | 2026-08-31 10:39:28 | 53.05251 | 8.02508 | 55° | 40km/h | 17083m | 5.1m/s | -48.6°C | 0% | 0hPa | 2.6V | 00:00:00 | 00:00:00 | 00:00:00 | |
| DO2SHX-10 | 2026-08-31 10:39:27 | 53.05244 | 8.02493 | 52° | 42km/h | 17076m | 5.3m/s | -49.3°C | 3.7% | 90.8hPa | 2.6V | 00:00:00 | 01:07:49 | 00:00:00 | |
| DB0DAN | 2026-08-31 10:39:25 | 53.05230 | 8.02466 | 48° | 44km/h | 17066m | 5.3m/s | -49.5°C | 1.3% | 90.99hPa | 2.6V | 00:00:00 | 00:00:00 | 00:00:00 | |
| BIOWL1-15 | 2026-08-31 10:39:22 | 53.05204 | 8.02425 | 42° | 46km/h | 17052m | 5.3m/s | -49.5°C | 0.7% | 91.2hPa | 2.7V | 18:12:15 | 01:07:44 | 00:00:00 | |
| HSKMA3-T | 2026-08-31 10:39:21 | 53.05196 | 8.02412 | 42° | 44km/h | 17047m | 4.9m/s | -49.6°C | 0.7% | 91.3hPa | 2.6V | 18:12:15 | 01:07:43 | 00:00:00 | |
| DO2JMG | 2026-08-31 10:39:20 | 53.05188 | 8.02400 | 44° | 42km/h | 17041m | 6.4m/s | -49.6°C | 0.7% | 91.4hPa | 2.6V | 18:12:15 | 01:07:42 | 00:00:00 | |
| DM0DOS-11 | 2026-08-31 10:39:19 | 53.05153 | 8.02332 | 58° | 37km/h | 17010m | 4.2m/s | -49.8°C | 3.8% | 91.8hPa | 2.6V | 08:30:00 | 01:07:36 | 00:00:00 | |
| DL1XH-west | 2026-08-31 10:39:17 | 53.05168 | 8.02366 | 48° | 33km/h | 17025m | 4.5m/s | -49.8°C | 0.8% | 91.6hPa | 2.7V | 18:12:15 | 01:07:39 | 00:00:00 | |
| DF8AY | 2026-08-31 10:39:16 | 53.05162 | 8.02355 | 51° | 31km/h | 17020m | 4.2m/s | -49.8°C | 0.8% | 91.7hPa | 2.7V | 18:12:15 | 01:07:38 | 00:00:00 | |
| HSKMA3-T | 2026-08-31 10:39:11 | 53.05137 | 8.02294 | 52° | 40km/h | 16996m | 4.4m/s | -49.8°C | 0.8% | 92hPa | 2.7V | 18:12:15 | 01:07:33 | 00:00:00 | |
| DO2JMG | 2026-08-31 10:39:10 | 53.05130 | 8.02280 | 54° | 40km/h | 16991m | 6.2m/s | -49.8°C | 0.8% | 92.1hPa | 2.7V | 18:12:15 | 01:07:32 | 00:00:00 | |
| DB0DAN | 2026-08-31 10:39:10 | 53.05130 | 8.02280 | 54° | 38km/h | 16991m | 6.2m/s | -49.8°C | 1.3% | 92.07hPa | 2.7V | 00:00:00 | 00:00:00 | 00:00:00 | |
| DO9LL-15 | 2026-08-31 10:39:10 | 53.05130 | 8.02280 | 55° | 47km/h | 16991m | 6.1m/s | -49.8°C | 3.8% | 92.0hPa | 2.7V | 00:00:00 | 01:07:32 | 08:30:00 | |
| DM0DOS-11 | 2026-08-31 10:39:09 | 53.05091 | 8.02199 | 49° | 42km/h | 16959m | 4.5m/s | -49.9°C | 3.8% | 92.5hPa | 2.7V | 08:30:00 | 01:07:26 | 00:00:00 | |
| DF8AY-15 | 2026-08-31 10:39:09 | 53.05124 | 8.02266 | 55° | 53km/h | 16986m | 4.5m/s | -49.8°C | 3.7% | 92.1hPa | 2.6V | 00:00:00 | 01:07:31 | 00:00:00 | |
| DL1XH-15 | 2026-08-31 10:39:08 | 53.05084 | 8.02186 | 49° | 42km/h | 16954m | 6m/s | -50°C | 3.8% | 92.6hPa | 2.6V | 08:30:00 | 01:07:25 | 00:00:00 | |
| DL1XH-west | 2026-08-31 10:39:07 | 53.05111 | 8.02239 | 51° | 42km/h | 16976m | 6.1m/s | -49.9°C | 0.8% | 92.3hPa | 2.6V | 18:12:15 | 01:07:29 | 00:00:00 | |
| DF8AY | 2026-08-31 10:39:06 | 53.05105 | 8.02226 | 48° | 42km/h | 16970m | 4.8m/s | -49.9°C | 0.7% | 92.4hPa | 2.7V | 18:12:15 | 01:07:28 | 00:00:00 | |
| HSKMA3-T | 2026-08-31 10:39:01 | 53.05069 | 8.02158 | 50° | 44km/h | 16944m | 4.5m/s | -49.9°C | 0.7% | 92.7hPa | 2.6V | 18:12:15 | 01:07:23 | 00:00:00 | |
| BIOWL1-15 | 2026-08-31 10:39:00 | 53.05063 | 8.02144 | 52° | 44km/h | 16939m | 5.5m/s | -49.9°C | 0.7% | 92.8hPa | 2.7V | 18:12:15 | 01:07:22 | 00:00:00 | |
| DO2JMG | 2026-08-31 10:39:00 | 53.05041 | 8.02101 | 47° | 47km/h | 16924m | 4.9m/s | -50°C | 0.7% | 93hPa | 2.6V | 18:12:15 | 01:07:19 | 00:00:00 | |
| DL1XH-15 | 2026-08-31 10:39:00 | 53.05004 | 8.02041 | 40° | 57km/h | 16905m | 6.2m/s | -50.5°C | 4% | 93.3hPa | 2.7V | 08:30:00 | 01:07:15 | 00:00:00 | |
| DL1XH-west | 2026-08-31 10:38:56 | 53.05033 | 8.02087 | 45° | 49km/h | 16919m | 4.1m/s | -50.1°C | 0.8% | 93.1hPa | 2.6V | 18:12:15 | 01:07:18 | 00:00:00 | |
| DF8AY | 2026-08-31 10:38:55 | 53.05024 | 8.02072 | 45° | 51km/h | 16915m | 5.2m/s | -50.2°C | 0.8% | 93.2hPa | 2.6V | 18:12:15 | 01:07:17 | 00:00:00 | |
| DB0DAN | 2026-08-31 10:38:55 | 53.05024 | 8.02072 | 45° | 49km/h | 16915m | 5.2m/s | -50.2°C | 1.3% | 93.18hPa | 2.6V | 00:00:00 | 00:00:00 | 00:00:00 | |
| DL3AQ-11 | 2026-08-31 10:38:54 | 53.05004 | 8.02041 | 40° | 57km/h | 16905m | 6.2m/s | -50.5°C | 1.4% | 93.3hPa | 2.6V | 00:00:00 | 00:00:00 | 00:00:00 | |
| DC4HF-4 | 2026-08-31 10:38:53 | 53.05004 | 8.02041 | 40° | 57km/h | 16905m | 6.2m/s | -50.5°C | 1.4% | 93.3hPa | 2.6V | 00:00:00 | 00:00:00 | 00:00:00 | |
| HTAHTA | 2026-08-31 10:38:52 | 53.04980 | 8.02010 | 38° | 62km/h | 16894m | 6.1m/s | -50.5°C | 1.4% | 93.5hPa | 2.6V | 00:00:00 | 00:00:00 | 00:00:00 | |
| DL1XH1-15 | 2026-08-31 10:38:51 | 53.04923 | 8.01933 | 38° | 51km/h | 16866m | 6.8m/s | -50.4°C | 4% | 93.8hPa | 2.6V | 08:30:00 | 01:07:08 | 00:00:00 | |
| BIOWL1-15 | 2026-08-31 10:38:50 | 53.04968 | 8.01993 | 40° | 62km/h | 16887m | 5.7m/s | -50.5°C | 0.9% | 93.6hPa | 2.6V | 18:12:15 | 01:07:12 | 00:00:00 | |
| DO2JMG | 2026-08-31 10:38:49 | 53.04956 | 8.01977 | 40° | 60km/h | 16883m | 3.5m/s | -50.5°C | 0.9% | 93.6hPa | 2.7V | 18:12:15 | 01:07:11 | 00:00:00 | |
| DL1XH-15 | 2026-08-31 10:38:48 | 53.04897 | 8.01895 | 38° | 44km/h | 16850m | 4.2m/s | -50.2°C | 4% | 94.1hPa | 2.6V | 08:30:00 | 01:07:05 | 00:00:00 | |
| DL1XH-west | 2026-08-31 10:38:46 | 53.04923 | 8.01933 | 39° | 51km/h | 16866m | 6.8m/s | -50.4°C | 0.9% | 93.8hPa | 2.6V | 18:12:15 | 01:07:08 | 00:00:00 | |
| DF8AY | 2026-08-31 10:38:45 | 53.04914 | 8.01920 | 41° | 47km/h | 16859m | 6.6m/s | -50.3°C | 0.9% | 93.9hPa | 2.7V | 18:12:15 | 01:07:07 | 00:00:00 | |
| DO2SHX-10 | 2026-08-31 10:38:44 | 53.04905 | 8.01907 | 42° | 44km/h | 16854m | 3.7m/s | -50.2°C | 4.0% | 93.9hPa | 2.7V | 00:00:00 | 01:07:06 | 00:00:00 | |
| DL1XH1-15 | 2026-08-31 10:38:41 | 53.04830 | 8.01818 | 36° | 49km/h | 16810m | 6m/s | -49.9°C | 3.9% | 94.7hPa | 2.7V | 08:30:00 | 01:06:58 | 00:00:00 | |
| BIOWL1-15 | 2026-08-31 10:38:40 | 53.04870 | 8.01865 | 31° | 46km/h | 16833m | 5.3m/s | -50.1°C | 0.9% | 94.3hPa | 2.7V | 18:12:15 | 01:07:02 | 00:00:00 | |
| AA1-15 | 2026-08-31 10:38:39 | 53.04860 | 8.01855 | 33° | 49km/h | 16827m | 6.2m/s | -50.1°C | 0.9% | 94.4hPa | 2.6V | 18:12:15 | 01:07:01 | 00:00:00 | |
| DO2JMG | 2026-08-31 10:38:38 | 53.04850 | 8.01843 | 36° | 51km/h | 16821m | 5.1m/s | -50°C | 0.9% | 94.5hPa | 2.6V | 18:12:15 | 01:07:00 | 00:00:00 | |
| DL1XH-west | 2026-08-31 10:38:36 | 53.04830 | 8.01818 | 36° | 49km/h | 16810m | 6m/s | -49.9°C | 0.8% | 94.7hPa | 2.7V | 18:12:15 | 01:06:58 | 00:00:00 | |
| DL4BBY-15 | 2026-08-31 10:38:36 | 53.04830 | 8.01818 | 37° | 42km/h | 16811m | 6.0m/s | -49.2°C | 0% | 0hPa | 2.6V | 00:00:00 | 00:00:00 | 00:00:00 | |
| DL1XH-15 | 2026-08-31 10:38:35 | 53.04802 | 8.01779 | 43° | 49km/h | 16792m | 5.4m/s | -49.8°C | 3.8% | 94.9hPa | 2.6V | 08:30:00 | 01:06:55 | 00:00:00 | |
| DF8AY | 2026-08-31 10:38:35 | 53.04820 | 8.01806 | 39° | 47km/h | 16805m | 5.8m/s | -49.9°C | 0.8% | 94.7hPa | 2.7V | 18:12:15 | 01:06:57 | 00:00:00 | |
| DO2SHX-10 | 2026-08-31 10:38:35 | 53.04820 | 8.01806 | 39° | 49km/h | 16805m | 5.7m/s | -49.8°C | 3.9% | 94.7hPa | 2.7V | 00:00:00 | 01:06:57 | 00:00:00 | |
| GOEST3-10 | 2026-08-31 10:38:34 | 53.04811 | 8.01793 | 41° | 46km/h | 16798m | 6.8m/s | -49.8°C | 3.9% | 94.8hPa | 2.6V | 00:00:00 | 00:00:00 | 00:00:00 | |
| DD1CC3-15 | 2026-08-31 10:38:33 | 53.04811 | 8.01793 | 42° | 49km/h | 16798m | 6.8m/s | -49.8°C | 1.4% | 94.8hPa | 2.6V | 00:00:00 | 00:00:00 | 00:00:00 | |
| DO2SHX-10 | 2026-08-31 10:38:32 | 53.04793 | 8.01765 | 43° | 44km/h | 16786m | 6.7m/s | -49.7°C | 3.8% | 94.9hPa | 2.6V | 00:00:00 | 01:06:54 | 00:00:00 | |
| DL1XH1-15 | 2026-08-31 10:38:31 | 53.04747 | 8.01692 | 41° | 40km/h | 16754m | 6.2m/s | -49.4°C | 3.8% | 95.5hPa | 2.6V | 08:30:00 | 01:06:48 | 00:00:00 | |
| BIOWL1-15 | 2026-08-31 10:38:30 | 53.04703 | 8.01637 | 33° | 46km/h | 16728m | 6m/s | -49.2°C | 0.7% | 95.8hPa | 2.6V | 18:12:15 | 01:06:43 | 00:00:00 | |
| HSKMA3-T | 2026-08-31 10:38:30 | 53.04769 | 8.01728 | 47° | 42km/h | 16770m | 6.9m/s | -49.6°C | 0.8% | 95.2hPa | 2.7V | 18:12:15 | 01:06:51 | 00:00:00 | |
| AA1-15 | 2026-08-31 10:38:30 | 53.04762 | 8.01715 | 45° | 40km/h | 16764m | 4.6m/s | -49.5°C | 0.8% | 95.3hPa | 2.6V | 18:12:15 | 01:06:50 | 00:00:00 | |
| DL1XH-west | 2026-08-31 10:38:29 | 53.04739 | 8.01681 | 38° | 42km/h | 16749m | 4.1m/s | -49.4°C | 0.7% | 95.5hPa | 2.7V | 18:12:15 | 01:06:47 | 00:00:00 | |
| DF4FW | 2026-08-31 10:38:26 | 53.04755 | 8.01703 | 46° | 40km/h | 16759m | 4.5m/s | -49.5°C | 1.3% | 95.4hPa | 2.7V | 00:00:00 | 00:00:00 | 00:00:00 | |
| DB0DAN | 2026-08-31 10:38:25 | 53.04739 | 8.01681 | 38° | 40km/h | 16749m | 4.1m/s | -49.4°C | 1.3% | 95.53hPa | 2.7V | 00:00:00 | 00:00:00 | 00:00:00 | |
| DF8AY | 2026-08-31 10:38:24 | 53.04731 | 8.01671 | 37° | 44km/h | 16744m | 6.3m/s | -49.4°C | 0.8% | 95.6hPa | 2.7V | 18:12:15 | 01:06:46 | 00:00:00 | |
| GOEST3-10 | 2026-08-31 10:38:24 | 53.04731 | 8.01671 | 38° | 46km/h | 16744m | 6.3m/s | -49.3°C | 3.8% | 95.5hPa | 2.7V | 00:00:00 | 00:00:00 | 00:00:00 | |
| DO2SHX-10 | 2026-08-31 10:38:23 | 53.04722 | 8.01659 | 37° | 46km/h | 16738m | 4.9m/s | -49.3°C | 3.8% | 95.6hPa | 2.6V | 00:00:00 | 01:06:45 | 00:00:00 | |
| DO2LYB-13 | 2026-08-31 10:38:22 | 53.04722 | 8.01659 | 37° | 46km/h | 16738m | 5.0m/s | -49.3°C | 1.3% | 95.7hPa | 2.6V | 00:00:00 | 00:00:00 | 00:00:00 | |
| DL1XH1-15 | 2026-08-31 10:38:21 | 53.04658 | 8.01586 | 35° | 40km/h | 16701m | 6.5m/s | -49.1°C | 3.6% | 96.2hPa | 2.6V | 08:30:00 | 01:06:38 | 00:00:00 | |
| DD8BA-10 | 2026-08-31 10:38:21 | 53.04703 | 8.01637 | 34° | 40km/h | 16728m | 5.9m/s | -49.2°C | 3.7% | 95.8hPa | 2.6V | 00:00:00 | 00:00:00 | 00:00:00 | |
| DM0DOS-11 | 2026-08-31 10:38:20 | 53.04642 | 8.01565 | 42° | 38km/h | 16690m | 6.9m/s | -49°C | 3.6% | 96.4hPa | 2.6V | 08:30:00 | 01:06:36 | 00:00:00 | |
| HSKMA3-T | 2026-08-31 10:38:19 | 53.04684 | 8.01617 | 34° | 44km/h | 16718m | 4.7m/s | -49.2°C | 0.7% | 96hPa | 2.7V | 18:12:15 | 01:06:41 | 00:00:00 | |
| AA1-15 | 2026-08-31 10:38:18 | 53.04675 | 8.01606 | 36° | 44km/h | 16713m | 5.1m/s | -49.2°C | 0.7% | 96hPa | 2.7V | 18:12:15 | 01:06:40 | 00:00:00 | |
| DL1XH-west | 2026-08-31 10:38:15 | 53.04650 | 8.01576 | 39° | 38km/h | 16696m | 4.4m/s | -49°C | 0.7% | 96.3hPa | 2.6V | 18:12:15 | 01:06:37 | 00:00:00 | |
| DO2JMG | 2026-08-31 10:38:14 | 53.04643 | 8.01565 | 43° | 38km/h | 16690m | 6.9m/s | -49°C | 0.7% | 96.4hPa | 2.6V | 18:12:15 | 01:06:36 | 00:00:00 | |
| DF8AY | 2026-08-31 10:38:13 | 53.04636 | 8.01554 | 46° | 37km/h | 16684m | 4.2m/s | -49°C | 0.7% | 96.5hPa | 2.7V | 18:12:15 | 01:06:35 | 00:00:00 | |
| DD1CC3-15 | 2026-08-31 10:38:12 | 53.04636 | 8.01554 | 47° | 37km/h | 16684m | 4.2m/s | -49.0°C | 1.3% | 96.5hPa | 2.7V | 00:00:00 | 00:00:00 | 00:00:00 | |
| DL1XH1-15 | 2026-08-31 10:38:11 | 53.04591 | 8.01484 | 37° | 37km/h | 16644m | 4.9m/s | -48.9°C | 3.6% | 97hPa | 2.7V | 08:30:00 | 01:06:28 | 00:00:00 | |
| DB0DAN | 2026-08-31 10:38:10 | 53.04618 | 8.01523 | 47° | 33km/h | 16667m | 6.9m/s | -49°C | 1.3% | 96.7hPa | 2.6V | 00:00:00 | 00:00:00 | 00:00:00 | |
| DM0DOS-11 | 2026-08-31 10:38:09 | 53.04576 | 8.01465 | 34° | 37km/h | 16633m | 4.6m/s | -49°C | 3.6% | 97.2hPa | 2.6V | 08:30:00 | 01:06:26 | 00:00:00 | |
| HSKMA3-T | 2026-08-31 10:38:08 | 53.04604 | 8.01502 | 41° | 35km/h | 16655m | 6.3m/s | -48.9°C | 0.7% | 96.9hPa | 2.6V | 18:12:15 | 01:06:30 | 00:00:00 | |
| AA1-15 | 2026-08-31 10:38:07 | 53.04598 | 8.01493 | 38° | 35km/h | 16649m | 5.5m/s | -48.9°C | 0.6% | 97hPa | 2.7V | 18:12:15 | 01:06:29 | 00:00:00 | |
| DL4BBY-15 | 2026-08-31 10:38:06 | 53.04590 | 8.01484 | 38° | 37km/h | 16644m | 4.8m/s | -48.2°C | 0% | 0hPa | 2.6V | 00:00:00 | 00:00:00 | 00:00:00 | |
| DL1XH-15 | 2026-08-31 10:38:05 | 53.04568 | 8.01457 | 34° | 35km/h | 16627m | 6.4m/s | -49°C | 3.6% | 97.3hPa | 2.6V | 08:30:00 | 01:06:25 | 00:00:00 | |
| DL1XH-west | 2026-08-31 10:38:04 | 53.04576 | 8.01465 | 35° | 37km/h | 16633m | 4.6m/s | -49°C | 0.7% | 97.2hPa | 2.6V | 18:12:15 | 01:06:26 | 00:00:00 | |
| DO2JMG | 2026-08-31 10:38:03 | 53.04568 | 8.01457 | 34° | 35km/h | 16627m | 6.4m/s | -49°C | 0.6% | 97.3hPa | 2.6V | 18:12:15 | 01:06:25 | 00:00:00 | |
| DF8AY | 2026-08-31 10:38:02 | 53.04561 | 8.01448 | 34° | 35km/h | 16622m | 4.4m/s | -49°C | 0.6% | 97.4hPa | 2.6V | 18:12:15 | 01:06:24 | 00:00:00 | |
| DK1YY | 2026-08-31 10:38:02 | 53.04514 | 8.01371 | 51° | 31km/h | 16576m | 6.5m/s | -49.7°C | 1.3% | 98.1hPa | 2.7V | 00:00:00 | 00:00:00 | 00:00:00 | |
| DL1XH1-15 | 2026-08-31 10:38:01 | 53.04524 | 8.01393 | 52° | 31km/h | 16587m | 6.9m/s | -49.6°C | 3.7% | 97.9hPa | 2.7V | 08:30:00 | 01:06:18 | 00:00:00 | |
| DD8BA-10 | 2026-08-31 10:38:01 | 53.04553 | 8.01440 | 37° | 33km/h | 16617m | 7.2m/s | -49.1°C | 3.6% | 97.4hPa | 2.7V | 00:00:00 | 00:00:00 | 00:00:00 | |
| DM0DOS-11 | 2026-08-31 10:37:59 | 53.04514 | 8.01371 | 51° | 31km/h | 16575m | 6.5m/s | -49.7°C | 3.7% | 98.1hPa | 2.6V | 08:30:00 | 01:06:16 | 00:00:00 | |
| HSKMA3-T | 2026-08-31 10:37:59 | 53.04529 | 8.01403 | 47° | 31km/h | 16593m | 4.7m/s | -49.5°C | 0.7% | 97.8hPa | 2.6V | 18:12:15 | 01:06:19 | 00:00:00 | |
| AA1-15 | 2026-08-31 10:37:58 | 53.04524 | 8.01393 | 52° | 33km/h | 16587m | 6.9m/s | -49.6°C | 0.7% | 97.9hPa | 2.7V | 18:12:15 | 01:06:18 | 00:00:00 | |
| DL1XH-15 | 2026-08-31 10:37:58 | 53.04509 | 8.01361 | 52° | 33km/h | 16570m | 4.6m/s | -49.7°C | 3.7% | 98.2hPa | 2.6V | 08:30:00 | 01:06:15 | 00:00:00 | |
| DJ2DS-15 | 2026-08-31 10:37:57 | 53.04529 | 8.01403 | 48° | 37km/h | 16593m | 4.7m/s | -49.5°C | 3.6% | 97.7hPa | 2.6V | 00:00:00 | 01:06:19 | 00:00:00 | |
| DB0DAN | 2026-08-31 10:37:55 | 53.04519 | 8.01382 | 52° | 31km/h | 16581m | 4.8m/s | -49.6°C | 1.3% | 98hPa | 2.7V | 00:00:00 | 00:00:00 | 00:00:00 | |
| DL1XH-west | 2026-08-31 10:37:53 | 53.04509 | 8.01361 | 52° | 33km/h | 16570m | 4.6m/s | -49.7°C | 0.8% | 98.2hPa | 2.6V | 18:12:15 | 01:06:15 | 00:00:00 | |
| DO2JMG | 2026-08-31 10:37:52 | 53.04504 | 8.01349 | 53° | 37km/h | 16565m | 5m/s | -49.8°C | 0.8% | 98.2hPa | 2.7V | 18:12:15 | 01:06:14 | 00:00:00 | |
| DF8AY | 2026-08-31 10:37:52 | 53.04498 | 8.01336 | 55° | 40km/h | 16559m | 5.6m/s | -49.8°C | 0.8% | 98.3hPa | 2.7V | 18:12:15 | 01:06:13 | 00:00:00 | |
| SONCRA | 2026-08-31 10:37:52 | 53.04498 | 8.01336 | 55° | 40km/h | 16560m | 5.6m/s | -49.8°C | 1.3% | 98.3hPa | 2.6V | 00:00:00 | 00:00:00 | 00:00:00 | |
| DL1XH1-15 | 2026-08-31 10:37:51 | 53.04469 | 8.01266 | 57° | 40km/h | 16535m | 6m/s | -49.8°C | 3.7% | 98.7hPa | 2.6V | 08:30:00 | 01:06:08 | 00:00:00 | |
| HTAHTA | 2026-08-31 10:37:50 | 53.04486 | 8.01307 | 55° | 40km/h | 16551m | 5.1m/s | -49.8°C | 1.3% | 98.5hPa | 2.7V | 00:00:00 | 00:00:00 | 00:00:00 | |
| DM0DOS-11 | 2026-08-31 10:37:49 | 53.04458 | 8.01239 | 56° | 38km/h | 16524m | 4.8m/s | -49.9°C | 3.8% | 98.8hPa | 2.7V | 08:30:00 | 01:06:06 | 00:00:00 | |
| HSKMA3-T | 2026-08-31 10:37:46 | 53.04469 | 8.01266 | 57° | 40km/h | 16535m | 6m/s | -49.8°C | 0.8% | 98.7hPa | 2.6V | 18:12:15 | 01:06:08 | 00:00:00 | |
| AA1-15 | 2026-08-31 10:37:45 | 53.04464 | 8.01252 | 55° | 40km/h | 16529m | 4.9m/s | -49.8°C | 0.8% | 98.8hPa | 2.6V | 18:12:15 | 01:06:07 | 00:00:00 | |
| DL1XH-15 | 2026-08-31 10:37:45 | 53.04453 | 8.01226 | 54° | 37km/h | 16519m | 5.5m/s | -49.9°C | 3.8% | 98.9hPa | 2.7V | 08:30:00 | 01:06:05 | 00:00:00 | |
| DL3AQ-11 | 2026-08-31 10:37:45 | 53.04458 | 8.01239 | 56° | 38km/h | 16524m | 4.8m/s | -49.9°C | 1.4% | 98.8hPa | 2.7V | 00:00:00 | 00:00:00 | 00:00:00 | |
| DO2JMG | 2026-08-31 10:37:42 | 53.04447 | 8.01214 | 54° | 35km/h | 16514m | 4m/s | -50°C | 0.9% | 99hPa | 2.7V | 18:12:15 | 01:06:04 | 00:00:00 | |
| DF8AY | 2026-08-31 10:37:41 | 53.04442 | 8.01202 | 52° | 37km/h | 16509m | 6.1m/s | -50°C | 0.8% | 99.1hPa | 2.6V | 18:12:15 | 01:06:03 | 00:00:00 | |
| DO2SHX-10 | 2026-08-31 10:37:41 | 53.04442 | 8.01202 | 52° | 37km/h | 16509m | 6.1m/s | -50.0°C | 3.8% | 99.0hPa | 2.6V | 00:00:00 | 01:06:03 | 00:00:00 | |
| DM0DOS-11 | 2026-08-31 10:37:39 | 53.04409 | 8.01114 | 69° | 40km/h | 16473m | 4.9m/s | -50.2°C | 3.8% | 99.7hPa | 2.6V | 08:30:00 | 01:05:56 | 00:00:00 | |
| GOEST3-10 | 2026-08-31 10:37:39 | 53.04430 | 8.01177 | 52° | 35km/h | 16499m | 4.7m/s | -50.0°C | 3.8% | 99.2hPa | 2.6V | 00:00:00 | 01:06:01 | 00:00:00 | |
| DL1XH-15 | 2026-08-31 10:37:38 | 53.04406 | 8.01099 | 72° | 40km/h | 16468m | 6m/s | -50.3°C | 3.8% | 99.7hPa | 2.6V | 08:30:00 | 01:05:55 | 00:00:00 | |
| HSKMA3-T | 2026-08-31 10:37:35 | 53.04413 | 8.01129 | 65° | 37km/h | 16479m | 5.8m/s | -50.1°C | 0.8% | 99.5hPa | 2.6V | 18:12:15 | 01:05:57 | 00:00:00 | |
| DO2JMG | 2026-08-31 10:37:32 | 53.04403 | 8.01083 | 74° | 40km/h | 16462m | 5.1m/s | -50.4°C | 0.9% | 99.8hPa | 2.7V | 18:12:15 | 01:05:54 | 00:00:00 | |
| DO2SHX-10 | 2026-08-31 10:37:32 | 53.04403 | 8.01083 | 74° | 40km/h | 16463m | 5.0m/s | -50.4°C | 3.9% | 99.8hPa | 2.7V | 00:00:00 | 01:05:54 | 08:30:00 | |
| DL1XH1-15 | 2026-08-31 10:37:31 | 53.04382 | 8.00986 | 64° | 44km/h | 16429m | 6.1m/s | -50.7°C | 3.9% | 100.3hPa | 2.7V | 08:30:00 | 01:05:48 | 00:00:00 | |
| DF8AY | 2026-08-31 10:37:31 | 53.04400 | 8.01067 | 73° | 40km/h | 16457m | 4.6m/s | -50.5°C | 0.9% | 99.9hPa | 2.7V | 18:12:15 | 01:05:53 | 00:00:00 | |
| DD8BA-10 | 2026-08-31 10:37:31 | 53.04400 | 8.01067 | 73° | 44km/h | 16458m | 4.6m/s | -50.5°C | 3.9% | 99.8hPa | 2.7V | 00:00:00 | 00:00:00 | 08:30:00 | |
| DC6BW-12 | 2026-08-31 10:37:30 | 53.04400 | 8.01067 | 74° | 40km/h | 16458m | 4.6m/s | -50.5°C | 1.4% | 99.9hPa | 2.7V | 00:00:00 | 00:00:00 | 00:00:00 | |
| DM0DOS-11 | 2026-08-31 10:37:29 | 53.04371 | 8.00952 | 65° | 47km/h | 16418m | 4.5m/s | -50.6°C | 4% | 100.5hPa | 2.7V | 08:30:00 | 01:05:46 | 00:00:00 | |
| GOEST3-10 | 2026-08-31 10:37:29 | 53.04393 | 8.01035 | 69° | 44km/h | 16446m | 5.0m/s | -50.6°C | 4.0% | 100.0hPa | 2.6V | 00:00:00 | 01:05:51 | 00:00:00 | |
| DL1XH-15 | 2026-08-31 10:37:28 | 53.04366 | 8.00934 | 66° | 47km/h | 16413m | 6.2m/s | -50.6°C | 4% | 100.6hPa | 2.6V | 08:30:00 | 01:05:45 | 00:00:00 | |
| DD1CC8 | 2026-08-31 10:37:28 | 53.04386 | 8.01003 | 68° | 40km/h | 16435m | 4.0m/s | -50.7°C | 1.4% | 100.2hPa | 2.7V | 00:00:00 | 00:00:00 | 00:00:00 | |
| DL8OAI-8 | 2026-08-31 10:37:26 | 53.04386 | 8.01003 | 69° | 42km/h | 16435m | 4.0m/s | -50.7°C | 1.4% | 100.2hPa | 2.7V | 00:00:00 | 00:00:00 | 00:00:00 | |
| DB0DAN | 2026-08-31 10:37:25 | 53.04376 | 8.00969 | 63° | 44km/h | 16423m | 5.6m/s | -50.7°C | 1.4% | 100.38hPa | 2.7V | 00:00:00 | 00:00:00 | 00:00:00 | |
| HSKMA3-T | 2026-08-31 10:37:25 | 53.04361 | 8.00915 | 67° | 49km/h | 16408m | 4m/s | -50.7°C | 0.9% | 100.7hPa | 2.6V | 18:12:15 | 01:05:44 | 00:00:00 | |
| DL1XH-west | 2026-08-31 10:37:24 | 53.04356 | 8.00896 | 66° | 51km/h | 16403m | 5.6m/s | -50.7°C | 0.9% | 100.7hPa | 2.6V | 18:12:15 | 01:05:43 | 00:00:00 | |
| BIOWL1-15 | 2026-08-31 10:37:22 | 53.04351 | 8.00876 | 64° | 55km/h | 16397m | 5.5m/s | -50.7°C | 0.9% | 100.8hPa | 2.7V | 18:12:15 | 01:05:42 | 00:00:00 | |
| HTAHTA | 2026-08-31 10:37:19 | 53.04326 | 8.00795 | 62° | 55km/h | 16377m | 5.5m/s | -50.7°C | 1.4% | 101.1hPa | 2.6V | 00:00:00 | 00:00:00 | 00:00:00 | |
| DL1XH-15 | 2026-08-31 10:37:18 | 53.04306 | 8.00734 | 62° | 53km/h | 16362m | 6.1m/s | -50.7°C | 3.9% | 101.4hPa | 2.6V | 08:30:00 | 01:05:35 | 00:00:00 | |
| HSKMA3-T | 2026-08-31 10:37:12 | 53.04301 | 8.00713 | 66° | 53km/h | 16356m | 5.6m/s | -50.7°C | 0.9% | 101.5hPa | 2.6V | 18:12:15 | 01:05:34 | 00:00:00 | |
| BIOWL1-15 | 2026-08-31 10:37:11 | 53.04285 | 8.00653 | 68° | 51km/h | 16340m | 4.6m/s | -51°C | 1% | 101.7hPa | 2.6V | 18:12:15 | 01:05:31 | 00:00:00 | |
| DO2JMG | 2026-08-31 10:37:11 | 53.04295 | 8.00693 | 67° | 53km/h | 16350m | 6.4m/s | -50.8°C | 0.9% | 101.6hPa | 2.7V | 18:12:15 | 01:05:33 | 00:00:00 | |
| DB0DAN | 2026-08-31 10:37:10 | 53.04290 | 8.00673 | 65° | 49km/h | 16345m | 4.5m/s | -50.9°C | 1.4% | 101.66hPa | 2.7V | 00:00:00 | 00:00:00 | 00:00:00 | |
| DF8AY | 2026-08-31 10:37:10 | 53.04264 | 8.00575 | 62° | 55km/h | 16321m | 4.4m/s | -51.1°C | 1% | 102hPa | 2.7V | 18:12:15 | 01:05:27 | 00:00:00 | |
| GOEST3-10 | 2026-08-31 10:37:09 | 53.04284 | 8.00653 | 69° | 51km/h | 16340m | 4.5m/s | -51.0°C | 4.0% | 101.7hPa | 2.6V | 00:00:00 | 01:05:31 | 00:00:00 | |
| DL4XJ-10 | 2026-08-31 10:37:08 | 53.04280 | 8.00634 | 70° | 51km/h | 16335m | 5.1m/s | -50.5°C | 0% | 0hPa | 2.6V | 00:00:00 | 00:00:00 | 00:00:00 | |
| DL1XH-15 | 2026-08-31 10:37:07 | 53.04251 | 8.00534 | 59° | 53km/h | 16312m | 6m/s | -51.2°C | 4.1% | 102.2hPa | 2.6V | 08:30:00 | 01:05:25 | 00:00:00 | |
| HSKMA3-T | 2026-08-31 10:37:02 | 53.04244 | 8.00515 | 59° | 53km/h | 16306m | 5.1m/s | -51.2°C | 0.9% | 102.3hPa | 2.6V | 18:12:15 | 01:05:24 | 00:00:00 | |
| DO2SHX-10 | 2026-08-31 10:37:02 | 53.04244 | 8.00515 | 59° | 53km/h | 16306m | 5.1m/s | -51.1°C | 4.0% | 102.2hPa | 2.6V | 00:00:00 | 01:05:24 | 00:00:00 | |
| DL1XH1-15 | 2026-08-31 10:37:01 | 53.04198 | 8.00415 | 51° | 46km/h | 16277m | 3.7m/s | -51.2°C | 4% | 102.7hPa | 2.6V | 08:30:00 | 01:05:18 | 00:00:00 | |
| DO2JMG | 2026-08-31 10:37:01 | 53.04237 | 8.00497 | 57° | 51km/h | 16301m | 4.9m/s | -51.2°C | 1% | 102.3hPa | 2.7V | 18:12:15 | 01:05:23 | 00:00:00 | |
| DL1XH-west | 2026-08-31 10:37:00 | 53.04229 | 8.00478 | 54° | 53km/h | 16296m | 6.3m/s | -51.2°C | 1% | 102.4hPa | 2.7V | 18:12:15 | 01:05:22 | 00:00:00 | |
| BIOWL1-15 | 2026-08-31 10:36:59 | 53.04221 | 8.00461 | 51° | 51km/h | 16290m | 4m/s | -51.2°C | 1% | 102.5hPa | 2.7V | 18:12:15 | 01:05:21 | 00:00:00 | |
| DF8AY | 2026-08-31 10:36:58 | 53.04213 | 8.00445 | 49° | 49km/h | 16286m | 5.4m/s | -51.2°C | 1% | 102.6hPa | 2.6V | 18:12:15 | 01:05:20 | 00:00:00 | |
| DD1CC8 | 2026-08-31 10:36:57 | 53.04198 | 8.00415 | 51° | 44km/h | 16277m | 3.7m/s | -51.2°C | 1.4% | 102.7hPa | 2.7V | 00:00:00 | 00:00:00 | 00:00:00 | |
| DB0DAN | 2026-08-31 10:36:55 | 53.04191 | 8.00399 | 55° | 46km/h | 16272m | 5.6m/s | -51.3°C | 1.5% | 102.82hPa | 2.7V | 00:00:00 | 00:00:00 | 00:00:00 | |
| HSKMA3-T | 2026-08-31 10:36:51 | 53.04160 | 8.00309 | 64° | 51km/h | 16246m | 6.1m/s | -51.4°C | 1% | 103.2hPa | 2.6V | 18:12:15 | 01:05:12 | 00:00:00 | |
| AA1-15 | 2026-08-31 10:36:51 | 53.04149 | 8.00271 | 65° | 47km/h | 16236m | 5m/s | -51.4°C | 1% | 103.4hPa | 2.7V | 18:12:15 | 01:05:10 | 00:00:00 | |
| DL1XH-west | 2026-08-31 10:36:50 | 53.04155 | 8.00290 | 63° | 51km/h | 16240m | 4.4m/s | -51.4°C | 1% | 103.3hPa | 2.7V | 18:12:15 | 01:05:11 | 00:00:00 | |
| DF5WG-10 | 2026-08-31 10:36:50 | 53.04138 | 8.00236 | 63° | 47km/h | 16226m | 3.7m/s | -51.3°C | 4.1% | 103.5hPa | 2.7V | 00:00:00 | 01:05:08 | 00:00:00 | |
| DF8AY | 2026-08-31 10:36:50 | 53.04119 | 8.00188 | 55° | 47km/h | 16211m | 4.5m/s | -51.4°C | 1% | 103.8hPa | 2.7V | 18:12:15 | 01:05:05 | 00:00:00 | |
| DL1XH-15 | 2026-08-31 10:36:49 | 53.04119 | 8.00188 | 55° | 47km/h | 16211m | 4.5m/s | -51.4°C | 4.2% | 103.8hPa | 2.7V | 08:30:00 | 01:05:05 | 00:00:00 | |
| DF8AY-15 | 2026-08-31 10:36:48 | 53.04126 | 8.00204 | 55° | 53km/h | 16216m | 4.5m/s | -51.3°C | 4.1% | 103.7hPa | 2.7V | 00:00:00 | 01:05:06 | 00:00:00 | |
| DL8OAI-8 | 2026-08-31 10:36:46 | 53.04126 | 8.00204 | 55° | 46km/h | 16216m | 4.5m/s | -51.4°C | 1.5% | 103.7hPa | 2.7V | 00:00:00 | 00:00:00 | 00:00:00 | |
| SMARD9-15 | 2026-08-31 10:36:43 | 53.04113 | 8.00172 | 56° | 46km/h | 16206m | 5.7m/s | -51.5°C | 1.5% | 103.9hPa | 2.7V | 00:00:00 | 00:00:00 | 00:00:00 | |
| DL1XH1-15 | 2026-08-31 10:36:41 | 53.04078 | 8.00066 | 69° | 49km/h | 16174m | 4.6m/s | -51.5°C | 4.2% | 104.4hPa | 2.7V | 08:30:00 | 01:04:58 | 00:00:00 | |
| HSKMA3-T | 2026-08-31 10:36:41 | 53.04107 | 8.00156 | 59° | 46km/h | 16201m | 5m/s | -51.6°C | 1% | 104hPa | 2.6V | 18:12:15 | 01:05:03 | 00:00:00 | |
| DB0DAN | 2026-08-31 10:36:40 | 53.04100 | 8.00139 | 58° | 47km/h | 16195m | 6.7m/s | -51.6°C | 1.5% | 104.02hPa | 2.7V | 00:00:00 | 00:00:00 | 00:00:00 | |
| DO2JMG | 2026-08-31 10:36:39 | 53.04094 | 8.00121 | 60° | 49km/h | 16189m | 4.2m/s | -51.6°C | 1.1% | 104.2hPa | 2.7V | 18:12:15 | 01:05:01 | 00:00:00 | |
| DL1XH-west | 2026-08-31 10:36:38 | 53.04088 | 8.00103 | 63° | 49km/h | 16184m | 6.2m/s | -51.5°C | 1.1% | 104.2hPa | 2.6V | 18:12:15 | 01:05:00 | 00:00:00 | |
| AA1-15 | 2026-08-31 10:36:37 | 53.04083 | 8.00085 | 67° | 47km/h | 16179m | 4.6m/s | -51.5°C | 1.1% | 104.3hPa | 2.6V | 18:12:15 | 01:04:59 | 00:00:00 | |
| DJ2DS-15 | 2026-08-31 10:36:37 | 53.04083 | 8.00085 | 68° | 53km/h | 16179m | 4.5m/s | -51.4°C | 4.3% | 104.3hPa | 2.6V | 00:00:00 | 01:04:59 | 00:00:00 | |
| DL1XH-15 | 2026-08-31 10:36:36 | 53.04063 | 8.00008 | 67° | 51km/h | 16159m | 5.9m/s | -51.4°C | 4.2% | 104.6hPa | 2.6V | 08:30:00 | 01:04:55 | 00:00:00 | |
| DF8AY | 2026-08-31 10:36:33 | 53.04063 | 8.00008 | 67° | 51km/h | 16159m | 5.9m/s | -51.4°C | 1% | 104.6hPa | 2.6V | 18:12:15 | 01:04:55 | 00:00:00 | |
| DO2SHX-10 | 2026-08-31 10:36:32 | 53.04058 | 7.99988 | 67° | 53km/h | 16153m | 5.0m/s | -51.3°C | 4.2% | 104.6hPa | 2.6V | 00:00:00 | 01:04:54 | 00:00:00 | |
| DL1XH1-15 | 2026-08-31 10:36:31 | 53.04020 | 7.99866 | 62° | 58km/h | 16123m | 6.2m/s | -51.2°C | 4.2% | 105.2hPa | 2.6V | 08:30:00 | 01:04:48 | 00:00:00 | |
| HSKMA3-T | 2026-08-31 10:36:30 | 53.04046 | 7.99949 | 62° | 53km/h | 16143m | 5.9m/s | -51.3°C | 1% | 104.9hPa | 2.7V | 18:12:15 | 01:04:52 | 00:00:00 | |
| BIOWL1-15 | 2026-08-31 10:36:28 | 53.03991 | 7.99764 | 65° | 49km/h | 16098m | 6.1m/s | -51.1°C | 1% | 105.6hPa | 2.6V | 18:12:15 | 01:04:43 | 00:00:00 | |
| DO2JMG | 2026-08-31 10:36:28 | 53.04033 | 7.99909 | 62° | 57km/h | 16133m | 5.9m/s | -51.3°C | 1% | 105hPa | 2.7V | 18:12:15 | 01:04:50 | 00:00:00 | |
| AA1-15 | 2026-08-31 10:36:26 | 53.04019 | 7.99866 | 62° | 58km/h | 16123m | 6.2m/s | -51.2°C | 1% | 105.2hPa | 2.6V | 18:12:15 | 01:04:48 | 00:00:00 | |
| DF8AY | 2026-08-31 10:36:22 | 53.03996 | 7.99783 | 68° | 49km/h | 16104m | 4.8m/s | -51.1°C | 1% | 105.5hPa | 2.7V | 18:12:15 | 01:04:44 | 00:00:00 | |
| DL1XH1-15 | 2026-08-31 10:36:22 | 53.03962 | 7.99674 | 63° | 49km/h | 16074m | 4.8m/s | -51°C | 4.1% | 106hPa | 2.6V | 08:30:00 | 01:04:38 | 00:00:00 | |
| HSKMA3-T | 2026-08-31 10:36:22 | 53.03979 | 7.99728 | 61° | 49km/h | 16089m | 4m/s | -51°C | 1% | 105.8hPa | 2.7V | 18:12:15 | 01:04:41 | 00:00:00 | |
| DL1XH-west | 2026-08-31 10:36:21 | 53.03973 | 7.99710 | 62° | 49km/h | 16084m | 6m/s | -51°C | 1% | 105.9hPa | 2.7V | 18:12:15 | 01:04:40 | 00:00:00 | |
| BIOWL1-15 | 2026-08-31 10:36:16 | 53.03962 | 7.99674 | 63° | 49km/h | 16074m | 4.9m/s | -51°C | 1% | 106hPa | 2.6V | 18:12:15 | 01:04:38 | 00:00:00 | |
| AA1-15 | 2026-08-31 10:36:15 | 53.03956 | 7.99655 | 62° | 51km/h | 16068m | 6m/s | -51°C | 1% | 106.1hPa | 2.7V | 18:12:15 | 01:04:37 | 00:00:00 | |
| GOEST3-10 | 2026-08-31 10:36:15 | 53.03956 | 7.99655 | 62° | 49km/h | 16068m | 6.0m/s | -50.9°C | 4.1% | 106.1hPa | 2.7V | 00:00:00 | 01:04:37 | 00:00:00 | |
| DL3AQ-11 | 2026-08-31 10:36:14 | 53.03944 | 7.99619 | 64° | 46km/h | 16058m | 5.6m/s | -50.9°C | 1.5% | 106.3hPa | 2.7V | 00:00:00 | 00:00:00 | 00:00:00 | |
| DL1LOL-11 | 2026-08-31 10:36:12 | 53.03944 | 7.99619 | 65° | 47km/h | 16058m | 5.6m/s | -50.9°C | 1.5% | 106.3hPa | 2.7V | 00:00:00 | 00:00:00 | 00:00:00 | |
| DF8AY | 2026-08-31 10:36:12 | 53.03939 | 7.99601 | 61° | 47km/h | 16053m | 5.1m/s | -50.9°C | 1% | 106.4hPa | 2.6V | 18:12:15 | 01:04:34 | 00:00:00 | |
| SMARD9-10 | 2026-08-31 10:36:11 | 53.03939 | 7.99601 | 62° | 47km/h | 16053m | 5.1m/s | -50.9°C | 1.5% | 106.4hPa | 2.7V | 00:00:00 | 00:00:00 | 00:00:00 | |
| DB0DAN | 2026-08-31 10:36:10 | 53.03927 | 7.99567 | 60° | 44km/h | 16042m | 5.3m/s | -50.9°C | 1.5% | 106.54hPa | 2.7V | 00:00:00 | 00:00:00 | 00:00:00 | |
| GOEST3-10 | 2026-08-31 10:36:10 | 53.03927 | 7.99567 | 60° | 46km/h | 16042m | 5.3m/s | -50.8°C | 4.1% | 106.5hPa | 2.7V | 00:00:00 | 00:00:00 | 00:00:00 | |
| DM0DOS-11 | 2026-08-31 10:36:09 | 53.03893 | 7.99470 | 61° | 42km/h | 16010m | 5.6m/s | -50.7°C | 4.1% | 107hPa | 2.7V | 08:30:00 | 01:04:26 | 00:00:00 | |
| BIOWL1-15 | 2026-08-31 10:36:08 | 53.03904 | 7.99501 | 58° | 46km/h | 16020m | 4.7m/s | -50.7°C | 1% | 106.9hPa | 2.6V | 18:12:15 | 01:04:28 | 00:00:00 | |
| DO2JMG | 2026-08-31 10:36:08 | 53.03916 | 7.99534 | 61° | 44km/h | 16031m | 4.6m/s | -50.8°C | 1% | 106.7hPa | 2.6V | 18:12:15 | 01:04:30 | 00:00:00 | |
| DL1XH-west | 2026-08-31 10:36:07 | 53.03910 | 7.99518 | 61° | 46km/h | 16026m | 6.3m/s | -50.8°C | 1% | 106.8hPa | 2.6V | 18:12:15 | 01:04:29 | 00:00:00 | |
| AA1-15 | 2026-08-31 10:36:05 | 53.03898 | 7.99485 | 58° | 44km/h | 16015m | 5.2m/s | -50.7°C | 0.9% | 107hPa | 2.7V | 18:12:15 | 01:04:27 | 00:00:00 | |
| DF8AY | 2026-08-31 10:36:02 | 53.03882 | 7.99439 | 57° | 42km/h | 15999m | 5.8m/s | -50.6°C | 0.9% | 107.2hPa | 2.6V | 18:12:15 | 01:04:24 | 00:00:00 | |
| DF8AY-15 | 2026-08-31 10:36:02 | 53.03882 | 7.99439 | 57° | 37km/h | 15999m | 5.8m/s | -50.6°C | 4.0% | 107.2hPa | 2.6V | 00:00:00 | 01:04:24 | 00:00:00 | |
| DL1XH1-15 | 2026-08-31 10:36:01 | 53.03849 | 7.99349 | 56° | 38km/h | 15967m | 5.6m/s | -50.5°C | 4% | 107.7hPa | 2.6V | 08:30:00 | 01:04:18 | 00:00:00 | |
| DD8BA-10 | 2026-08-31 10:36:01 | 53.03876 | 7.99424 | 59° | 40km/h | 15994m | 4.5m/s | -50.5°C | 4.0% | 107.3hPa | 2.6V | 00:00:00 | 00:00:00 | 08:30:00 | |
| GOEST3-10 | 2026-08-31 10:36:00 | 53.03870 | 7.99408 | 61° | 40km/h | 15988m | 6.4m/s | -50.5°C | 4.0% | 107.4hPa | 2.7V | 00:00:00 | 00:00:00 | 00:00:00 | |
| DO2SHX-10 | 2026-08-31 10:35:59 | 53.03865 | 7.99393 | 62° | 40km/h | 15983m | 4.7m/s | -50.5°C | 4.0% | 107.4hPa | 2.7V | 00:00:00 | 01:04:21 | 00:00:00 | |
| DM0DOS-11 | 2026-08-31 10:35:58 | 53.03839 | 7.99323 | 57° | 38km/h | 15956m | 4.9m/s | -50.4°C | 4% | 108hPa | 2.7V | 08:30:00 | 01:04:16 | 00:00:00 | |
| HSKMA3-T | 2026-08-31 10:35:58 | 53.03860 | 7.99378 | 59° | 42km/h | 15978m | 5.2m/s | -50.6°C | 1% | 107.6hPa | 2.7V | 18:12:15 | 01:04:20 | 00:00:00 | |
| DO2JMG | 2026-08-31 10:35:57 | 53.03855 | 7.99363 | 57° | 40km/h | 15972m | 5.1m/s | -50.5°C | 1% | 107.7hPa | 2.7V | 18:12:15 | 01:04:19 | 00:00:00 | |
| DL1XH-west | 2026-08-31 10:35:56 | 53.03849 | 7.99349 | 57° | 38km/h | 15967m | 5.6m/s | -50.5°C | 1% | 107.7hPa | 2.6V | 18:12:15 | 01:04:18 | 00:00:00 | |
| DB0DAN | 2026-08-31 10:35:55 | 53.03844 | 7.99336 | 59° | 35km/h | 15961m | 5.9m/s | -50.5°C | 1.5% | 107.86hPa | 2.6V | 00:00:00 | 00:00:00 | 00:00:00 | |
| AA1-15 | 2026-08-31 10:35:54 | 53.03839 | 7.99323 | 58° | 38km/h | 15956m | 4.9m/s | -50.4°C | 1% | 108hPa | 2.7V | 18:12:15 | 01:04:16 | 00:00:00 | |
| DF8AY | 2026-08-31 10:35:51 | 53.03818 | 7.99269 | 62° | 37km/h | 15935m | 5.5m/s | -50.4°C | 1% | 108.3hPa | 2.7V | 18:12:15 | 01:04:12 | 00:00:00 | |
| DL1XH1-15 | 2026-08-31 10:35:51 | 53.03800 | 7.99216 | 61° | 33km/h | 15913m | 6.9m/s | -50.4°C | 4.1% | 108.7hPa | 2.7V | 08:30:00 | 01:04:08 | 00:00:00 | |
| DD8BA-10 | 2026-08-31 10:35:51 | 53.03823 | 7.99282 | 58° | 35km/h | 15941m | 5.2m/s | -50.4°C | 4.0% | 108.2hPa | 2.6V | 00:00:00 | 00:00:00 | 00:00:00 | |
| DL1XH-15 | 2026-08-31 10:35:50 | 53.03783 | 7.99173 | 48° | 31km/h | 15893m | 4.8m/s | -50.4°C | 4% | 109hPa | 2.6V | 08:30:00 | 01:04:04 | 00:00:00 | |
| HSKMA3-T | 2026-08-31 10:35:47 | 53.03804 | 7.99228 | 61° | 35km/h | 15918m | 4.6m/s | -50.4°C | 0.9% | 108.6hPa | 2.6V | 18:12:15 | 01:04:09 | 00:00:00 | |
| DO2JMG | 2026-08-31 10:35:46 | 53.03800 | 7.99216 | 61° | 33km/h | 15913m | 6.9m/s | -50.4°C | 1% | 108.7hPa | 2.7V | 18:12:15 | 01:04:08 | 00:00:00 | |
| BIOWL1-15 | 2026-08-31 10:35:45 | 53.03796 | 7.99204 | 61° | 31km/h | 15908m | 3.7m/s | -50.4°C | 1% | 108.8hPa | 2.7V | 18:12:15 | 01:04:07 | 00:00:00 | |
| DL3AQ-11 | 2026-08-31 10:35:45 | 53.03792 | 7.99194 | 56° | 29km/h | 15903m | 5.3m/s | -50.5°C | 1.5% | 108.8hPa | 2.6V | 00:00:00 | 00:00:00 | 00:00:00 | |
| AA1-15 | 2026-08-31 10:35:43 | 53.03788 | 7.99183 | 53° | 31km/h | 15898m | 5.3m/s | -50.4°C | 1% | 108.9hPa | 2.6V | 18:12:15 | 01:04:05 | 00:00:00 | |
| MET0W-2 | 2026-08-31 10:35:43 | 53.03788 | 7.99183 | 53° | 31km/h | 15898m | 5.3m/s | 0°C | -1.0% | 108.9hPa | 2.6V | 00:00:00 | 00:00:00 | 00:00:00 | |
| DL1XH1-15 | 2026-08-31 10:35:41 | 53.03758 | 7.99116 | 63° | 26km/h | 15862m | 5.5m/s | -50.2°C | 4% | 109.5hPa | 2.6V | 08:30:00 | 01:03:58 | 00:00:00 | |
| DB0DAN | 2026-08-31 10:35:40 | 53.03774 | 7.99155 | 52° | 26km/h | 15882m | 5.6m/s | -50.3°C | 1.5% | 109.21hPa | 2.7V | 00:00:00 | 00:00:00 | 00:00:00 | |
| DF8AY | 2026-08-31 10:35:39 | 53.03769 | 7.99145 | 53° | 27km/h | 15877m | 4.4m/s | -50.3°C | 0.9% | 109.3hPa | 2.7V | 18:12:15 | 01:04:01 | 00:00:00 | |
| DM0DOS-11 | 2026-08-31 10:35:38 | 53.03752 | 7.99096 | 65° | 27km/h | 15852m | 6.2m/s | -50.2°C | 4% | 109.7hPa | 2.7V | 08:30:00 | 01:03:56 | 00:00:00 | |
| BIOWL9-15 | 2026-08-31 10:35:38 | 53.03761 | 7.99126 | 58° | 27km/h | 15867m | 4.3m/s | -50.3°C | 1.5% | 109.5hPa | 2.7V | 00:00:00 | 00:00:00 | 00:00:00 | |
| DL1XH-15 | 2026-08-31 10:35:37 | 53.03746 | 7.99076 | 62° | 26km/h | 15841m | 6m/s | -50.1°C | 4% | 109.9hPa | 2.7V | 08:30:00 | 01:03:54 | 00:00:00 | |
| HSKMA3-T | 2026-08-31 10:35:37 | 53.03761 | 7.99126 | 59° | 27km/h | 15867m | 4.3m/s | -50.3°C | 1% | 109.5hPa | 2.6V | 18:12:15 | 01:03:59 | 00:00:00 | |
| DL1XH-west | 2026-08-31 10:35:36 | 53.03758 | 7.99116 | 63° | 27km/h | 15862m | 5.5m/s | -50.2°C | 0.9% | 109.5hPa | 2.6V | 18:12:15 | 01:03:58 | 00:00:00 | |
| BIOWL1-15 | 2026-08-31 10:35:35 | 53.03755 | 7.99106 | 65° | 26km/h | 15858m | 4.7m/s | -50.2°C | 0.9% | 109.7hPa | 2.6V | 18:12:15 | 01:03:57 | 00:00:00 | |
| AA1-15 | 2026-08-31 10:35:33 | 53.03749 | 7.99085 | 63° | 27km/h | 15847m | 4.4m/s | -50.1°C | 0.9% | 109.8hPa | 2.7V | 18:12:15 | 01:03:55 | 00:00:00 | |
| DO2SHX-10 | 2026-08-31 10:35:32 | 53.03746 | 7.99075 | 63° | 26km/h | 15842m | 6.0m/s | -50.1°C | 4.0% | 109.9hPa | 2.6V | 00:00:00 | 01:03:54 | 00:00:00 | |
| DL1XH1-15 | 2026-08-31 10:35:31 | 53.03728 | 7.99021 | 58° | 24km/h | 15811m | 5m/s | -50°C | 3.9% | 110.4hPa | 2.6V | 08:30:00 | 01:03:48 | 00:00:00 | |
| DF8AY | 2026-08-31 10:35:28 | 53.03734 | 7.99038 | 59° | 26km/h | 15821m | 5.4m/s | -50°C | 0.9% | 110.3hPa | 2.7V | 18:12:15 | 01:03:50 | 00:00:00 | |
| DM0DOS-11 | 2026-08-31 10:35:28 | 53.03720 | 7.99002 | 55° | 27km/h | 15801m | 3.6m/s | -49.9°C | 3.9% | 110.6hPa | 2.7V | 08:30:00 | 01:03:46 | 00:00:00 | |
| DL1XH-15 | 2026-08-31 10:35:27 | 53.03713 | 7.98983 | 58° | 27km/h | 15791m | 4.8m/s | -49.8°C | 3.9% | 110.8hPa | 2.6V | 08:30:00 | 01:03:44 | 00:00:00 | |
| HSKMA3-T | 2026-08-31 10:35:26 | 53.03728 | 7.99021 | 58° | 24km/h | 15811m | 5m/s | -50°C | 0.9% | 110.4hPa | 2.6V | 18:12:15 | 01:03:48 | 00:00:00 | |
| BIOWL1-15 | 2026-08-31 10:35:26 | 53.03720 | 7.99002 | 55° | 27km/h | 15801m | 3.6m/s | -49.9°C | 0.9% | 110.6hPa | 2.7V | 18:12:15 | 01:03:46 | 00:00:00 | |
| DB0DAN | 2026-08-31 10:35:25 | 53.03724 | 7.99012 | 57° | 26km/h | 15805m | 5.9m/s | -49.9°C | 1.5% | 110.55hPa | 2.7V | 00:00:00 | 00:00:00 | 00:00:00 | |
| DO2JMG | 2026-08-31 10:35:25 | 53.03724 | 7.99012 | 57° | 27km/h | 15805m | 5.9m/s | -49.9°C | 1% | 110.5hPa | 2.7V | 18:12:15 | 01:03:47 | 00:00:00 | |
| AA1-15 | 2026-08-31 10:35:22 | 53.03713 | 7.98983 | 58° | 27km/h | 15791m | 4.8m/s | -49.8°C | 0.9% | 110.8hPa | 2.6V | 18:12:15 | 01:03:44 | 00:00:00 | |
| DF8AY-15 | 2026-08-31 10:35:21 | 53.03709 | 7.98973 | 59° | 31km/h | 15787m | 4.9m/s | -49.7°C | 3.9% | 110.8hPa | 2.6V | 00:00:00 | 01:03:43 | 00:00:00 | |
| DO2SHX-10 | 2026-08-31 10:35:20 | 53.03705 | 7.98962 | 65° | 33km/h | 15781m | 6.2m/s | -49.7°C | 3.9% | 110.9hPa | 2.6V | 00:00:00 | 01:03:42 | 00:00:00 | |
| DL8OAI-8 | 2026-08-31 10:35:19 | 53.03706 | 7.98962 | 65° | 31km/h | 15781m | 6.2m/s | -49.7°C | 1.4% | 111.0hPa | 2.6V | 00:00:00 | 00:00:00 | 00:00:00 | |
| DM0DOS-11 | 2026-08-31 10:35:18 | 53.03685 | 7.98884 | 65° | 33km/h | 15748m | 5.2m/s | -49.5°C | 3.8% | 111.5hPa | 2.6V | 08:30:00 | 01:03:36 | 00:00:00 | |
| DF8AY | 2026-08-31 10:35:17 | 53.03695 | 7.98924 | 68° | 33km/h | 15764m | 4.5m/s | -49.6°C | 0.8% | 111.3hPa | 2.7V | 18:12:15 | 01:03:39 | 00:00:00 | |
| DL1XH-west | 2026-08-31 10:35:15 | 53.03689 | 7.98897 | 67° | 35km/h | 15753m | 4.7m/s | -49.5°C | 0.9% | 111.4hPa | 2.6V | 18:12:15 | 01:03:37 | 00:00:00 | |
| DO2JMG | 2026-08-31 10:35:14 | 53.03685 | 7.98884 | 66° | 33km/h | 15748m | 5.2m/s | -49.5°C | 0.8% | 111.5hPa | 2.6V | 18:12:15 | 01:03:36 | 00:00:00 | |
| AA1-15 | 2026-08-31 10:35:11 | 53.03676 | 7.98851 | 63° | 27km/h | 15734m | 5.9m/s | -49.5°C | 0.9% | 111.8hPa | 2.7V | 18:12:15 | 01:03:33 | 00:00:00 | |
| DL1XH1-15 | 2026-08-31 10:35:11 | 53.03660 | 7.98800 | 61° | 27km/h | 15709m | 6.1m/s | -49.6°C | 3.8% | 112.2hPa | 2.6V | 08:30:00 | 01:03:28 | 00:00:00 | |
| DD8BA-10 | 2026-08-31 10:35:11 | 53.03676 | 7.98851 | 63° | 29km/h | 15734m | 5.9m/s | -49.5°C | 3.9% | 111.7hPa | 2.7V | 00:00:00 | 00:00:00 | 00:00:00 | |
| DO9LL-15 | 2026-08-31 10:35:10 | 53.03673 | 7.98841 | 62° | 33km/h | 15730m | 4.4m/s | -49.5°C | 3.8% | 111.8hPa | 2.7V | 00:00:00 | 01:03:32 | 00:00:00 | |
| SMARD9-15 | 2026-08-31 10:35:09 | 53.03669 | 7.98831 | 61° | 27km/h | 15725m | 4.8m/s | -49.6°C | 1.4% | 111.9hPa | 2.7V | 00:00:00 | 00:00:00 | 00:00:00 | |
| DM0DOS-11 | 2026-08-31 10:35:08 | 53.03653 | 7.98778 | 65° | 31km/h | 15699m | 5.3m/s | -49.7°C | 3.8% | 112.3hPa | 2.7V | 08:30:00 | 01:03:26 | 00:00:00 | |
| DF8AY | 2026-08-31 10:35:07 | 53.03663 | 7.98811 | 65° | 27km/h | 15714m | 3.8m/s | -49.6°C | 0.9% | 112.1hPa | 2.7V | 18:12:15 | 01:03:29 | 00:00:00 | |
| DL1XH-west | 2026-08-31 10:35:05 | 53.03657 | 7.98790 | 62° | 31km/h | 15704m | 4.5m/s | -49.7°C | 0.8% | 112.3hPa | 2.6V | 18:12:15 | 01:03:27 | 00:00:00 | |
| HSKMA3-T | 2026-08-31 10:35:04 | 53.03653 | 7.98778 | 66° | 31km/h | 15699m | 5.4m/s | -49.7°C | 0.9% | 112.3hPa | 2.7V | 18:12:15 | 01:03:26 | 00:00:00 | |
| DO2JMG | 2026-08-31 10:35:03 | 53.03650 | 7.98766 | 70° | 31km/h | 15694m | 4.7m/s | -49.8°C | 0.9% | 112.5hPa | 2.7V | 18:12:15 | 01:03:25 | 00:00:00 | |
| DO2SHX-10 | 2026-08-31 10:35:02 | 53.03647 | 7.98753 | 68° | 33km/h | 15690m | 5.2m/s | -49.8°C | 3.9% | 112.5hPa | 2.7V | 00:00:00 | 01:03:24 | 00:00:00 | |
| DL1XH1-15 | 2026-08-31 10:35:01 | 53.03631 | 7.98682 | 68° | 29km/h | 15660m | 4.8m/s | -49.9°C | 4.1% | 113hPa | 2.7V | 08:30:00 | 01:03:18 | 00:00:00 | |
| AA1-15 | 2026-08-31 10:35:00 | 53.03641 | 7.98729 | 67° | 31km/h | 15679m | 4.9m/s | -49.9°C | 1% | 112.7hPa | 2.6V | 18:12:15 | 01:03:22 | 00:00:00 | |
| DL8OAI-8 | 2026-08-31 10:35:00 | 53.03641 | 7.98729 | 68° | 31km/h | 15680m | 4.9m/s | -49.9°C | 1.5% | 112.7hPa | 2.6V | 00:00:00 | 00:00:00 | 00:00:00 | |
| DO2SHX-10 | 2026-08-31 10:34:59 | 53.03638 | 7.98717 | 71° | 29km/h | 15674m | 5.9m/s | -49.9°C | 4.0% | 112.8hPa | 2.6V | 00:00:00 | 01:03:21 | 00:00:00 | |
| DO2LYB-13 | 2026-08-31 10:34:58 | 53.03638 | 7.98717 | 72° | 29km/h | 15674m | 5.9m/s | -49.9°C | 1.5% | 112.8hPa | 2.7V | 00:00:00 | 00:00:00 | 00:00:00 | |
| DL1XH-15 | 2026-08-31 10:34:57 | 53.03621 | 7.98635 | 74° | 31km/h | 15641m | 5m/s | -49.6°C | 3.9% | 113.4hPa | 2.7V | 08:30:00 | 01:03:14 | 00:00:00 | |
| DF8AY | 2026-08-31 10:34:56 | 53.03631 | 7.98682 | 69° | 31km/h | 15661m | 4.8m/s | -49.9°C | 1% | 113.1hPa | 2.7V | 18:12:15 | 01:03:18 | 00:00:00 | |
| DB0DAN | 2026-08-31 10:34:55 | 53.03628 | 7.98670 | 67° | 27km/h | 15656m | 5.3m/s | -49.8°C | 1.5% | 113.15hPa | 2.6V | 00:00:00 | 00:00:00 | 00:00:00 | |
| DL1XH-west | 2026-08-31 10:34:54 | 53.03625 | 7.98659 | 71° | 29km/h | 15650m | 5.9m/s | -49.6°C | 0.9% | 113.3hPa | 2.6V | 18:12:15 | 01:03:16 | 00:00:00 | |
| DO2JMG | 2026-08-31 10:34:53 | 53.03623 | 7.98647 | 76° | 29km/h | 15645m | 3.8m/s | -49.5°C | 0.9% | 113.4hPa | 2.6V | 18:12:15 | 01:03:15 | 00:00:00 | |
| DD1CC8 | 2026-08-31 10:34:52 | 53.03621 | 7.98635 | 74° | 31km/h | 15641m | 5.0m/s | -49.6°C | 1.4% | 113.4hPa | 2.7V | 00:00:00 | 00:00:00 | 00:00:00 | |
| DL1XH1-15 | 2026-08-31 10:34:51 | 53.03606 | 7.98549 | 74° | 38km/h | 15610m | 6.2m/s | -49.5°C | 3.8% | 113.9hPa | 2.7V | 08:30:00 | 01:03:08 | 00:00:00 | |
| AA1-15 | 2026-08-31 10:34:49 | 53.03613 | 7.98594 | 73° | 37km/h | 15626m | 6.3m/s | -49.6°C | 0.9% | 113.7hPa | 2.6V | 18:12:15 | 01:03:11 | 00:00:00 | |
| DL4XJ-10 | 2026-08-31 10:34:48 | 53.03611 | 7.98579 | 76° | 38km/h | 15620m | 4.8m/s | -48.8°C | 0% | 0hPa | 2.7V | 00:00:00 | 00:00:00 | 00:00:00 | |
| DL1XH-15 | 2026-08-31 10:34:47 | 53.03598 | 7.98489 | 80° | 37km/h | 15587m | 6.5m/s | -49.3°C | 3.8% | 114.4hPa | 2.7V | 08:30:00 | 01:03:04 | 00:00:00 | |
| DF8AY | 2026-08-31 10:34:46 | 53.03606 | 7.98549 | 75° | 38km/h | 15610m | 6.2m/s | -49.5°C | 0.9% | 113.9hPa | 2.7V | 18:12:15 | 01:03:08 | 00:00:00 | |
| HSKMA3-T | 2026-08-31 10:34:44 | 53.03602 | 7.98518 | 78° | 37km/h | 15599m | 6.7m/s | -49.4°C | 0.8% | 114.2hPa | 2.6V | 18:12:15 | 01:03:06 | 00:00:00 | |
| DO2JMG | 2026-08-31 10:34:43 | 53.03600 | 7.98504 | 81° | 35km/h | 15594m | 5.6m/s | -49.3°C | 0.9% | 114.2hPa | 2.7V | 18:12:15 | 01:03:05 | 00:00:00 | |
| BIOWL1-15 | 2026-08-31 10:34:42 | 53.03598 | 7.98489 | 80° | 37km/h | 15587m | 6.5m/s | -49.3°C | 0.8% | 114.4hPa | 2.7V | 18:12:15 | 01:03:04 | 00:00:00 | |
| DL1XH1-15 | 2026-08-31 10:34:41 | 53.03591 | 7.98406 | 73° | 35km/h | 15555m | 5m/s | -49.3°C | 3.8% | 114.9hPa | 2.6V | 08:30:00 | 01:02:58 | 00:00:00 | |
| DB0DAN | 2026-08-31 10:34:40 | 53.03596 | 7.98460 | 84° | 33km/h | 15577m | 5m/s | -49.3°C | 1.4% | 114.5hPa | 2.6V | 00:00:00 | 00:00:00 | 00:00:00 | |
| DO9LL-15 | 2026-08-31 10:34:40 | 53.03596 | 7.98460 | 84° | 44km/h | 15577m | 4.9m/s | -49.2°C | 3.7% | 114.5hPa | 2.6V | 00:00:00 | 01:03:02 | 00:00:00 | |
| DM0DOS-11 | 2026-08-31 10:34:39 | 53.03586 | 7.98378 | 75° | 38km/h | 15544m | 4.7m/s | -49.3°C | 3.8% | 115.1hPa | 2.6V | 08:30:00 | 01:02:56 | 00:00:00 | |
| AA1-15 | 2026-08-31 10:34:38 | 53.03595 | 7.98434 | 82° | 33km/h | 15567m | 4.2m/s | -49.3°C | 0.8% | 114.7hPa | 2.7V | 18:12:15 | 01:03:00 | 00:00:00 | |
| DJ2DS-15 | 2026-08-31 10:34:38 | 53.03593 | 7.98420 | 78° | 33km/h | 15562m | 6.6m/s | -49.3°C | 1.4% | 114.8hPa | 2.7V | 00:00:00 | 00:00:00 | 00:00:00 | |
| DL1XH-15 | 2026-08-31 10:34:37 | 53.03582 | 7.98343 | 80° | 46km/h | 15534m | 6.5m/s | -49.3°C | 3.9% | 115.3hPa | 2.7V | 08:30:00 | 01:02:54 | 00:00:00 | |
| DF8AY | 2026-08-31 10:34:37 | 53.03589 | 7.98392 | 74° | 35km/h | 15550m | 6m/s | -49.4°C | 0.8% | 115hPa | 2.6V | 18:12:15 | 01:02:57 | 00:00:00 | |
| HSKMA3-T | 2026-08-31 10:34:34 | 53.03586 | 7.98378 | 76° | 38km/h | 15544m | 4.7m/s | -49.3°C | 0.9% | 115.1hPa | 2.6V | 18:12:15 | 01:02:56 | 00:00:00 | |
| DL1XH-west | 2026-08-31 10:34:33 | 53.03584 | 7.98361 | 79° | 44km/h | 15540m | 4.7m/s | -49.3°C | 0.8% | 115.2hPa | 2.8V | 18:12:15 | 01:02:55 | 00:00:00 | |
| DO2JMG | 2026-08-31 10:34:32 | 53.03582 | 7.98343 | 80° | 46km/h | 15534m | 6.5m/s | -49.3°C | 0.9% | 115.3hPa | 2.7V | 18:12:15 | 01:02:54 | 00:00:00 | |
| BIOWL1-15 | 2026-08-31 10:34:31 | 53.03580 | 7.98323 | 83° | 51km/h | 15528m | 4.4m/s | -49.3°C | 0.9% | 115.4hPa | 2.7V | 18:12:15 | 01:02:53 | 00:00:00 | |
| DD8BA-10 | 2026-08-31 10:34:31 | 53.03580 | 7.98323 | 83° | 38km/h | 15528m | 4.4m/s | -49.2°C | 3.9% | 115.3hPa | 2.7V | 00:00:00 | 00:00:00 | 08:30:00 | |
| DM0DOS-11 | 2026-08-31 10:34:30 | 53.03577 | 7.98199 | 79° | 26km/h | 15492m | 5.8m/s | -49.4°C | 3.9% | 116hPa | 2.7V | 08:30:00 | 01:02:46 | 00:00:00 | |
| AA1-15 | 2026-08-31 10:34:28 | 53.03578 | 7.98262 | 91° | 47km/h | 15513m | 4.6m/s | -49.4°C | 0.9% | 115.6hPa | 2.7V | 18:12:15 | 01:02:50 | 00:00:00 | |
| DF8AY | 2026-08-31 10:34:25 | 53.03578 | 7.98211 | 88° | 35km/h | 15498m | 5.7m/s | -49.4°C | 0.9% | 115.9hPa | 2.6V | 18:12:15 | 01:02:47 | 00:00:00 | |
| DB0DAN | 2026-08-31 10:34:25 | 53.03578 | 7.98211 | 88° | 33km/h | 15498m | 5.7m/s | -49.4°C | 1.5% | 115.88hPa | 2.6V | 00:00:00 | 00:00:00 | 00:00:00 | |
| HSKMA3-T | 2026-08-31 10:34:24 | 53.03577 | 7.98199 | 79° | 26km/h | 15492m | 5.9m/s | -49.4°C | 0.9% | 116hPa | 2.7V | 18:12:15 | 01:02:46 | 00:00:00 | |
| DL1XH-west | 2026-08-31 10:34:23 | 53.03576 | 7.98190 | 70° | 18km/h | 15487m | 3.2m/s | -49.4°C | 0.9% | 116hPa | 2.7V | 18:12:15 | 01:02:45 | 00:00:00 | |
| BIOWL1-15 | 2026-08-31 10:34:21 | 53.03571 | 7.98170 | 65° | 29km/h | 15480m | 4.9m/s | -49.3°C | 1% | 116.2hPa | 2.6V | 18:12:15 | 01:02:43 | 00:00:00 | |
| DB0UT-7 | 2026-08-31 10:34:21 | 53.03571 | 7.98170 | 66° | 60km/h | 15480m | 4.8m/s | -49.3°C | 4.0% | 116.1hPa | 2.6V | 00:00:00 | 00:00:00 | 00:00:00 | |
| GOEST3-10 | 2026-08-31 10:34:20 | 53.03567 | 7.98156 | 64° | 58km/h | 15475m | 5.3m/s | -49.3°C | 4.0% | 116.2hPa | 2.6V | 00:00:00 | 00:00:00 | 08:30:00 | |
| DM0DOS-11 | 2026-08-31 10:34:19 | 53.03562 | 7.98007 | 101° | 58km/h | 15425m | 6.1m/s | -49.1°C | 3.9% | 117.2hPa | 2.6V | 08:30:00 | 01:02:36 | 00:00:00 | |
| AA1-15 | 2026-08-31 10:34:17 | 53.03556 | 7.98089 | 85° | 64km/h | 15450m | 11.7m/s | -49.3°C | 0.9% | 116.7hPa | 2.7V | 18:12:15 | 01:02:39 | 00:00:00 | |
| DL1XH-15 | 2026-08-31 10:34:17 | 53.03564 | 7.97962 | 83° | 51km/h | 15412m | 8.9m/s | -49°C | 3.8% | 117.4hPa | 2.7V | 08:30:00 | 01:02:34 | 00:00:00 | |
| DF8AY | 2026-08-31 10:34:14 | 53.03562 | 7.98007 | 101° | 58km/h | 15425m | 6.1m/s | -49.1°C | 0.9% | 117.2hPa | 2.6V | 18:12:15 | 01:02:36 | 00:00:00 | |
| HSKMA3-T | 2026-08-31 10:34:13 | 53.03564 | 7.97984 | 95° | 55km/h | 15420m | 5.4m/s | -49.1°C | 0.9% | 0hPa | 2.6V | 18:12:15 | 01:02:35 | 00:00:00 | |
| DL1XH-west | 2026-08-31 10:34:12 | 53.03564 | 7.97962 | 83° | 51km/h | 15413m | 8.9m/s | -49°C | 0.8% | 117.4hPa | 2.7V | 18:12:15 | 01:02:34 | 00:00:00 | |
| DO2JMG | 2026-08-31 10:34:11 | 53.03561 | 7.97939 | 75° | 57km/h | 15403m | 9.9m/s | -49°C | 0.9% | 117.5hPa | 2.7V | 18:12:15 | 01:02:33 | 00:00:00 | |
| BIOWL1-15 | 2026-08-31 10:34:10 | 53.03556 | 7.97917 | 66° | 60km/h | 15394m | 8.6m/s | -48.9°C | 0.8% | 117.7hPa | 2.7V | 18:12:15 | 01:02:32 | 00:00:00 | |
| DO9LL-15 | 2026-08-31 10:34:10 | 53.03556 | 7.97917 | 67° | 64km/h | 15394m | 8.6m/s | -48.8°C | 3.8% | 117.6hPa | 2.6V | 00:00:00 | 01:02:32 | 00:00:00 | |
| DM0DOS-11 | 2026-08-31 10:34:09 | 53.03529 | 7.97772 | 76° | 60km/h | 15345m | 8m/s | -48.5°C | 3.7% | 118.5hPa | 2.6V | 08:30:00 | 01:02:26 | 00:00:00 | |
| DL4XJ-10 | 2026-08-31 10:34:08 | 53.03543 | 7.97868 | 69° | 64km/h | 15376m | 6.8m/s | -48.0°C | 0% | 0hPa | 2.6V | 00:00:00 | 00:00:00 | 00:00:00 | |
| DL1XH-15 | 2026-08-31 10:34:07 | 53.03519 | 7.97722 | 67° | 68km/h | 15327m | 7.3m/s | -48.4°C | 3.7% | 118.8hPa | 2.6V | 08:30:00 | 01:02:24 | 00:00:00 | |
| AA1-15 | 2026-08-31 10:34:06 | 53.03534 | 7.97819 | 79° | 57km/h | 15360m | 6.2m/s | -48.6°C | 0.8% | 118.3hPa | 2.7V | 18:12:15 | 01:02:28 | 00:00:00 | |
| DF8AY | 2026-08-31 10:34:04 | 53.03519 | 7.97722 | 68° | 68km/h | 15327m | 7.4m/s | -48.4°C | 0.8% | 118.8hPa | 2.6V | 18:12:15 | 01:02:24 | 00:00:00 | |
| HSKMA3-T | 2026-08-31 10:34:03 | 53.03525 | 7.97747 | 72° | 64km/h | 15335m | 9.8m/s | -48.5°C | 0.7% | 0hPa | 2.6V | 18:12:15 | 01:02:25 | 00:00:00 | |
| DL1XH-west | 2026-08-31 10:34:02 | 53.03512 | 7.97696 | 65° | 68km/h | 15319m | 8.6m/s | -48.4°C | 0.7% | 119hPa | 2.7V | 18:12:15 | 01:02:23 | 00:00:00 | |
| DO2JMG | 2026-08-31 10:34:00 | 53.03504 | 7.97670 | 61° | 71km/h | 15312m | 5.4m/s | -48.3°C | 0.8% | 119.2hPa | 2.7V | 18:12:15 | 01:02:22 | 00:00:00 | |
| GOEST3-10 | 2026-08-31 10:34:00 | 53.03504 | 7.97670 | 61° | 69km/h | 15312m | 5.3m/s | -48.2°C | 3.7% | 119.1hPa | 2.6V | 00:00:00 | 00:00:00 | 00:00:00 | |
| DO2SHX-10 | 2026-08-31 10:33:59 | 53.03495 | 7.97645 | 58° | 71km/h | 15305m | 8.2m/s | -48.2°C | 3.7% | 119.2hPa | 2.6V | 00:00:00 | 01:02:21 | 00:00:00 | |
| DL1XH-15 | 2026-08-31 10:33:57 | 53.03447 | 7.97484 | 78° | 60km/h | 15259m | 7.8m/s | -48°C | 3.6% | 120.1hPa | 2.6V | 08:30:00 | 01:02:14 | 00:00:00 | |
| AA1-15 | 2026-08-31 10:33:56 | 53.03458 | 7.97551 | 67° | 55km/h | 15282m | 5.3m/s | -48.1°C | 0.7% | 119.7hPa | 2.7V | 18:12:15 | 01:02:17 | 00:00:00 | |
| DB0DAN | 2026-08-31 10:33:55 | 53.03458 | 7.97551 | 67° | 53km/h | 15282m | 5.3m/s | -48.1°C | 1.4% | 119.69hPa | 2.7V | 00:00:00 | 00:00:00 | 00:00:00 | |
| HSKMA3-T | 2026-08-31 10:33:52 | 53.03447 | 7.97484 | 79° | 60km/h | 15259m | 7.8m/s | -48°C | 0.7% | 0hPa | 2.6V | 18:12:15 | 01:02:14 | 00:00:00 | |
| DF8AY | 2026-08-31 10:33:51 | 53.03444 | 7.97459 | 75° | 66km/h | 15252m | 5m/s | -48°C | 0.7% | 120.2hPa | 2.6V | 18:12:15 | 01:02:13 | 00:00:00 | |
| DL1XH-west | 2026-08-31 10:33:50 | 53.03439 | 7.97431 | 72° | 69km/h | 15248m | 4.2m/s | -48°C | 0.7% | 120.3hPa | 2.7V | 18:12:15 | 01:02:12 | 00:00:00 | |
| DO2JMG | 2026-08-31 10:33:49 | 53.03433 | 7.97404 | 69° | 71km/h | 15242m | 6.7m/s | -47.9°C | 0.7% | 120.4hPa | 2.7V | 18:12:15 | 01:02:11 | 00:00:00 | |
| DL4XJ-10 | 2026-08-31 10:33:48 | 53.03426 | 7.97377 | 66° | 69km/h | 15236m | 6.3m/s | -47.2°C | 0% | 0hPa | 2.6V | 00:00:00 | 00:00:00 | 00:00:00 | |
| DL1XH-15 | 2026-08-31 10:33:47 | 53.03376 | 7.97232 | 61° | 68km/h | 15201m | 6.1m/s | -48.1°C | 3.6% | 121.2hPa | 2.6V | 08:30:00 | 01:02:04 | 00:00:00 | |
| AA1-15 | 2026-08-31 10:33:45 | 53.03403 | 7.97304 | 58° | 64km/h | 15219m | 5.7m/s | -47.9°C | 0.7% | 120.9hPa | 2.7V | 18:12:15 | 01:02:07 | 00:00:00 | |
| DL3AQ-11 | 2026-08-31 10:33:45 | 53.03394 | 7.97281 | 57° | 66km/h | 15212m | 7.4m/s | -47.9°C | 1.4% | 121.0hPa | 2.6V | 00:00:00 | 00:00:00 | 00:00:00 | |
| HSKMA3-T | 2026-08-31 10:33:42 | 53.03376 | 7.97232 | 61° | 68km/h | 15201m | 6.1m/s | -48.1°C | 0.7% | 0hPa | 2.6V | 18:12:15 | 01:02:04 | 00:00:00 | |
| BIOWL1-15 | 2026-08-31 10:33:41 | 53.03368 | 7.97207 | 63° | 68km/h | 15194m | 6.6m/s | -48.2°C | 0.7% | 121.3hPa | 2.6V | 18:12:15 | 01:02:03 | 00:00:00 | |
| DF8AY | 2026-08-31 10:33:40 | 53.03360 | 7.97182 | 64° | 68km/h | 15189m | 3.8m/s | -48.2°C | 0.7% | 121.4hPa | 2.8V | 18:12:15 | 01:02:02 | 00:00:00 | |
| DB0DAN | 2026-08-31 10:33:40 | 53.03360 | 7.97182 | 64° | 64km/h | 15189m | 3.8m/s | -48.2°C | 1.4% | 121.4hPa | 2.8V | 00:00:00 | 00:00:00 | 00:00:00 | |
| DL1XH-west | 2026-08-31 10:33:39 | 53.03353 | 7.97156 | 64° | 69km/h | 15185m | 4.8m/s | -48.1°C | 0.7% | 121.5hPa | 2.7V | 18:12:15 | 01:02:01 | 00:00:00 | |
| DO2JMG | 2026-08-31 10:33:38 | 53.03344 | 7.97129 | 62° | 71km/h | 15179m | 6.6m/s | -48.1°C | 0.7% | 121.6hPa | 2.7V | 18:12:15 | 01:02:00 | 00:00:00 | |
| DO2SHX-10 | 2026-08-31 10:33:38 | 53.03344 | 7.97129 | 62° | 71km/h | 15179m | 6.6m/s | -48.1°C | 3.6% | 121.5hPa | 2.7V | 00:00:00 | 01:02:00 | 00:00:00 | |
| DL1XH-15 | 2026-08-31 10:33:37 | 53.03282 | 7.96983 | 49° | 73km/h | 15148m | 4.2m/s | -47.9°C | 3.6% | 122.2hPa | 2.6V | 08:30:00 | 01:01:54 | 00:00:00 | |
| AA1-15 | 2026-08-31 10:33:34 | 53.03305 | 7.97030 | 52° | 71km/h | 15158m | 4.5m/s | -48°C | 0.7% | 122hPa | 2.7V | 18:12:15 | 01:01:56 | 00:00:00 | |
| DO2SHX-10 | 2026-08-31 10:33:34 | 53.03282 | 7.96983 | 50° | 71km/h | 15149m | 4.2m/s | -47.9°C | 3.6% | 122.2hPa | 2.6V | 00:00:00 | 01:01:54 | 00:00:00 | |
| DB0NH | 2026-08-31 10:33:33 | 53.03282 | 7.96983 | 50° | 68km/h | 15149m | 4.2m/s | 0°C | 0% | 0hPa | 2.6V | 00:00:00 | 01:01:54 | 00:00:00 | |
| DL1XH1-15 | 2026-08-31 10:33:31 | 53.03215 | 7.96847 | 51° | 68km/h | 15120m | 4m/s | -47.8°C | 3.6% | 122.7hPa | 2.6V | 08:30:00 | 01:01:48 | 00:00:00 | |
| HSKMA3-T | 2026-08-31 10:33:30 | 53.03259 | 7.96937 | 51° | 69km/h | 15139m | 5.7m/s | -47.9°C | 0.7% | 0hPa | 2.7V | 18:12:15 | 01:01:52 | 00:00:00 | |
| DL1XH-west | 2026-08-31 10:33:30 | 53.03248 | 7.96914 | 50° | 68km/h | 15134m | 4.4m/s | -47.9°C | 0.7% | 122.5hPa | 2.7V | 18:12:15 | 01:01:51 | 00:00:00 | |
| DO2JMG | 2026-08-31 10:33:28 | 53.03237 | 7.96892 | 51° | 69km/h | 15129m | 5.7m/s | -47.9°C | 0.7% | 122.5hPa | 2.6V | 18:12:15 | 01:01:50 | 00:00:00 | |
| DL4XJ-10 | 2026-08-31 10:33:28 | 53.03237 | 7.96892 | 51° | 69km/h | 15129m | 5.6m/s | -47.2°C | 0% | 0hPa | 2.6V | 00:00:00 | 00:00:00 | 00:00:00 | |
| DL1XH-15 | 2026-08-31 10:33:27 | 53.03172 | 7.96757 | 52° | 73km/h | 15101m | 4.9m/s | -47.8°C | 3.5% | 123hPa | 2.6V | 08:30:00 | 01:01:44 | 00:00:00 | |
| DB0DAN | 2026-08-31 10:33:25 | 53.03205 | 7.96825 | 51° | 64km/h | 15115m | 5.8m/s | -47.9°C | 1.4% | 122.81hPa | 2.7V | 00:00:00 | 00:00:00 | 00:00:00 | |
| AA1-15 | 2026-08-31 10:33:23 | 53.03183 | 7.96781 | 52° | 69km/h | 15106m | 4.7m/s | -47.8°C | 0.7% | 123hPa | 2.7V | 18:12:15 | 01:01:45 | 00:00:00 | |
| BIOWL1-15 | 2026-08-31 10:33:22 | 53.03149 | 7.96707 | 53° | 75km/h | 15092m | 6.1m/s | -47.8°C | 0.7% | 123.2hPa | 2.8V | 18:12:15 | 01:01:42 | 00:00:00 | |
| DL1XH1-15 | 2026-08-31 10:33:21 | 53.03110 | 7.96608 | 58° | 71km/h | 15073m | 4.3m/s | -47.9°C | 3.5% | 123.6hPa | 2.8V | 08:30:00 | 01:01:38 | 00:00:00 | |
| DD8BA-10 | 2026-08-31 10:33:21 | 53.03161 | 7.96732 | 54° | 69km/h | 15097m | 3.5m/s | -47.8°C | 3.5% | 123.1hPa | 2.7V | 00:00:00 | 00:00:00 | 00:00:00 | |
| GOEST3-10 | 2026-08-31 10:33:20 | 53.03149 | 7.96707 | 54° | 71km/h | 15092m | 6.1m/s | -47.8°C | 3.5% | 123.2hPa | 2.7V | 00:00:00 | 00:00:00 | 00:00:00 | |
| DM0DOS-11 | 2026-08-31 10:33:19 | 53.03091 | 7.96559 | 57° | 68km/h | 15063m | 3.8m/s | -48.1°C | 3.6% | 123.8hPa | 2.7V | 08:30:00 | 01:01:36 | 00:00:00 | |
| HSKMA3-T | 2026-08-31 10:33:19 | 53.03139 | 7.96683 | 54° | 71km/h | 15087m | 3.9m/s | -47.8°C | 0.7% | 0hPa | 2.7V | 18:12:15 | 01:01:41 | 00:00:00 | |
| DO2JMG | 2026-08-31 10:33:18 | 53.03128 | 7.96658 | 56° | 71km/h | 15083m | 4.1m/s | -47.9°C | 0.6% | 123.4hPa | 2.6V | 18:12:15 | 01:01:40 | 00:00:00 | |
| AA1-15 | 2026-08-31 10:33:13 | 53.03082 | 7.96535 | 58° | 66km/h | 15059m | 6.1m/s | -48.2°C | 0.7% | 123.9hPa | 2.6V | 18:12:15 | 01:01:35 | 00:00:00 | |
| SONCRA | 2026-08-31 10:33:12 | 53.03073 | 7.96512 | 56° | 64km/h | 15053m | 4.6m/s | -48.2°C | 1.4% | 124.0hPa | 2.6V | 00:00:00 | 00:00:00 | 00:00:00 | |
| DL1XH1-15 | 2026-08-31 10:33:11 | 53.03019 | 7.96380 | 56° | 64km/h | 15024m | 5.8m/s | -48.3°C | 3.8% | 124.5hPa | 2.6V | 08:30:00 | 01:01:28 | 00:00:00 | |
| DF8AY | 2026-08-31 10:33:10 | 53.03045 | 7.96446 | 55° | 62km/h | 15038m | 5m/s | -48.3°C | 0.7% | 124.2hPa | 2.8V | 18:12:15 | 01:01:31 | 00:00:00 | |
| DL1XH-west | 2026-08-31 10:33:08 | 53.03036 | 7.96425 | 57° | 64km/h | 15033m | 5.2m/s | -48.3°C | 0.8% | 124.3hPa | 2.7V | 18:12:15 | 01:01:30 | 00:00:00 | |
| DO2JMG | 2026-08-31 10:33:07 | 53.03027 | 7.96402 | 58° | 64km/h | 15029m | 3.7m/s | -48.3°C | 0.8% | 124.4hPa | 2.6V | 18:12:15 | 01:01:29 | 00:00:00 | |
| HSKMA3-T | 2026-08-31 10:33:02 | 53.02984 | 7.96286 | 63° | 68km/h | 15005m | 4.6m/s | -48.4°C | 0.8% | 0hPa | 2.6V | 18:12:15 | 01:01:24 | 00:00:00 | |
| DO2SHX-10 | 2026-08-31 10:33:02 | 53.02984 | 7.96286 | 63° | 69km/h | 15005m | 4.5m/s | -48.4°C | 3.8% | 124.8hPa | 2.6V | 00:00:00 | 01:01:24 | 08:30:00 | |
| DD8BA-10 | 2026-08-31 10:33:01 | 53.02976 | 7.96261 | 63° | 68km/h | 15000m | 5.4m/s | -48.4°C | 3.8% | 124.9hPa | 2.7V | 00:00:00 | 00:00:00 | 08:30:00 | |
| GOEST3-10 | 2026-08-31 10:33:00 | 53.02968 | 7.96235 | 62° | 69km/h | 14995m | 4.7m/s | -48.3°C | 3.8% | 125.0hPa | 2.7V | 00:00:00 | 00:00:00 | 00:00:00 | |
| DM0DOS-11 | 2026-08-31 10:32:59 | 53.02916 | 7.96085 | 58° | 64km/h | 14964m | 6.5m/s | -48.1°C | 3.6% | 125.6hPa | 2.7V | 08:30:00 | 01:01:16 | 00:00:00 | |
| BIOWL1-15 | 2026-08-31 10:32:59 | 53.02959 | 7.96209 | 61° | 71km/h | 14990m | 4m/s | -48.3°C | 0.8% | 125.2hPa | 2.7V | 18:12:15 | 01:01:21 | 00:00:00 | |
| DL1XH-west | 2026-08-31 10:32:58 | 53.02942 | 7.96158 | 61° | 69km/h | 14981m | 4.3m/s | -48.3°C | 0.8% | 125.3hPa | 2.6V | 18:12:15 | 01:01:19 | 00:00:00 | |
| DO2JMG | 2026-08-31 10:32:56 | 53.02934 | 7.96132 | 59° | 69km/h | 14975m | 6.4m/s | -48.2°C | 0.7% | 125.5hPa | 2.6V | 18:12:15 | 01:01:18 | 00:00:00 | |
| DB0DAN | 2026-08-31 10:32:55 | 53.02925 | 7.96108 | 57° | 64km/h | 14970m | 4.7m/s | -48.2°C | 1.4% | 125.57hPa | 2.8V | 00:00:00 | 00:00:00 | 00:00:00 | |
| HSKMA3-T | 2026-08-31 10:32:52 | 53.02899 | 7.96042 | 57° | 60km/h | 14953m | 6.2m/s | 0°C | 0% | 0hPa | 2.6V | 18:12:15 | 01:01:14 | 00:00:00 | |
| AA1-15 | 2026-08-31 10:32:51 | 53.02891 | 7.96020 | 59° | 60km/h | 14947m | 4.5m/s | -47.9°C | 0.7% | 125.9hPa | 2.6V | 18:12:15 | 01:01:13 | 00:00:00 | |
| DL1XH1-15 | 2026-08-31 10:32:51 | 53.02858 | 7.95902 | 65° | 68km/h | 14924m | 4.5m/s | -47.8°C | 3.7% | 126.4hPa | 2.8V | 08:30:00 | 01:01:08 | 00:00:00 | |
| DB0UT-7 | 2026-08-31 10:32:51 | 53.02891 | 7.96020 | 59° | 58km/h | 14947m | 4.4m/s | -47.9°C | 3.6% | 125.9hPa | 2.7V | 00:00:00 | 01:01:13 | 00:00:00 | |
| GOEST3-10 | 2026-08-31 10:32:50 | 53.02884 | 7.95999 | 63° | 64km/h | 14943m | 4.2m/s | -47.9°C | 3.7% | 126.0hPa | 2.7V | 00:00:00 | 00:00:00 | 08:30:00 | |
| DM0DOS-11 | 2026-08-31 10:32:49 | 53.02843 | 7.95853 | 62° | 64km/h | 14914m | 6.2m/s | -47.7°C | 3.7% | 126.6hPa | 2.7V | 08:30:00 | 01:01:06 | 00:00:00 | |
| BIOWL1-15 | 2026-08-31 10:32:48 | 53.02871 | 7.95952 | 68° | 64km/h | 14933m | 4m/s | -47.8°C | 0.7% | 126.2hPa | 2.6V | 18:12:15 | 01:01:10 | 00:00:00 | |
| DL4XJ-10 | 2026-08-31 10:32:48 | 53.02871 | 7.95953 | 68° | 62km/h | 14933m | 4.0m/s | -47.1°C | 0% | 0hPa | 2.6V | 00:00:00 | 00:00:00 | 00:00:00 | |
| DL1XH-15 | 2026-08-31 10:32:47 | 53.02828 | 7.95809 | 58° | 58km/h | 14903m | 5.5m/s | -47.5°C | 3.6% | 126.8hPa | 2.6V | 08:30:00 | 01:01:04 | 00:00:00 | |
| DL1XH-west | 2026-08-31 10:32:46 | 53.02858 | 7.95902 | 65° | 68km/h | 14924m | 4.5m/s | -47.8°C | 0.8% | 126.4hPa | 2.8V | 18:12:15 | 01:01:08 | 00:00:00 | |
| DO2JMG | 2026-08-31 10:32:45 | 53.02851 | 7.95877 | 63° | 66km/h | 14920m | 4.2m/s | -47.8°C | 0.8% | 126.4hPa | 2.7V | 18:12:15 | 01:01:07 | 00:00:00 | |
| DF4FW | 2026-08-31 10:32:45 | 53.02851 | 7.95877 | 64° | 66km/h | 14920m | 4.2m/s | -47.8°C | 1.5% | 126.4hPa | 2.6V | 00:00:00 | 00:00:00 | 00:00:00 | |
| DL1CLM-18 | 2026-08-31 10:32:44 | 53.02851 | 7.95877 | 64° | 66km/h | 14920m | 4.2m/s | -47.8°C | 1.5% | 126.4hPa | 2.6V | 00:00:00 | 00:00:00 | 00:00:00 | |
| DO2SHX-10 | 2026-08-31 10:32:43 | 53.02836 | 7.95830 | 61° | 58km/h | 14909m | 5.1m/s | -47.5°C | 3.6% | 126.7hPa | 2.6V | 00:00:00 | 01:01:05 | 00:00:00 | |
| DK9SH | 2026-08-31 10:32:42 | 53.02836 | 7.95830 | 61° | 60km/h | 14909m | 5.1m/s | -47.6°C | 1.4% | 126.7hPa | 2.6V | 00:00:00 | 00:00:00 | 00:00:00 | |
| DL1XH1-15 | 2026-08-31 10:32:41 | 53.02781 | 7.95686 | 61° | 60km/h | 14870m | 4.8m/s | -47.6°C | 3.6% | 127.4hPa | 2.6V | 08:30:00 | 01:00:58 | 00:00:00 | |
| HSKMA3-T | 2026-08-31 10:32:41 | 53.02820 | 7.95788 | 57° | 60km/h | 14897m | 6.3m/s | 0°C | 0% | 0hPa | 2.6V | 18:12:15 | 01:01:03 | 00:00:00 | |
| AA1-15 | 2026-08-31 10:32:40 | 53.02812 | 7.95768 | 56° | 58km/h | 14892m | 4.1m/s | -47.6°C | 0.7% | 127hPa | 2.8V | 18:12:15 | 01:01:02 | 00:00:00 | |
| DB0DAN | 2026-08-31 10:32:40 | 53.02812 | 7.95768 | 55° | 57km/h | 14892m | 4.1m/s | -47.6°C | 1.4% | 126.98hPa | 2.8V | 00:00:00 | 00:00:00 | 00:00:00 | |
| DO2SHX-10 | 2026-08-31 10:32:40 | 53.02812 | 7.95768 | 56° | 57km/h | 14892m | 4.0m/s | -47.6°C | 3.5% | 126.9hPa | 2.7V | 00:00:00 | 01:01:02 | 00:00:00 | |
| DM0DOS-11 | 2026-08-31 10:32:39 | 53.02768 | 7.95640 | 66° | 60km/h | 14860m | 5.9m/s | -47.5°C | 3.6% | 127.6hPa | 2.7V | 08:30:00 | 01:00:56 | 00:00:00 | |
| DL1XH-west | 2026-08-31 10:32:37 | 53.02781 | 7.95686 | 62° | 60km/h | 14870m | 4.8m/s | -47.6°C | 0.7% | 127.4hPa | 2.6V | 18:12:15 | 01:00:58 | 00:00:00 | |
| DO2JMG | 2026-08-31 10:32:34 | 53.02768 | 7.95640 | 67° | 60km/h | 14860m | 5.9m/s | -47.5°C | 0.7% | 127.7hPa | 2.7V | 18:12:15 | 01:00:56 | 00:00:00 | |
| DO2SHX-10 | 2026-08-31 10:32:34 | 53.02768 | 7.95640 | 67° | 62km/h | 14860m | 5.8m/s | -47.4°C | 3.6% | 127.6hPa | 2.7V | 00:00:00 | 01:00:56 | 08:30:00 | |
| DB0NH | 2026-08-31 10:32:32 | 53.02756 | 7.95592 | 69° | 58km/h | 14850m | 4.9m/s | 0°C | 0% | 0hPa | 2.6V | 00:00:00 | 01:00:54 | 00:00:00 | |
| DL1XH1-15 | 2026-08-31 10:32:31 | 53.02718 | 7.95455 | 60° | 55km/h | 14821m | 4.6m/s | -47.3°C | 3.5% | 128.4hPa | 2.6V | 08:30:00 | 01:00:48 | 00:00:00 | |
| AA1-15 | 2026-08-31 10:32:30 | 53.02738 | 7.95519 | 67° | 60km/h | 14836m | 5.6m/s | -47.3°C | 0.7% | 128.1hPa | 2.7V | 18:12:15 | 01:00:51 | 00:00:00 | |
| HSKMA3-T | 2026-08-31 10:32:27 | 53.02725 | 7.95475 | 62° | 57km/h | 14826m | 5.9m/s | 0°C | 0% | 0hPa | 2.6V | 18:12:15 | 01:00:49 | 00:00:00 | |
| DO2SHX-10 | 2026-08-31 10:32:27 | 53.02725 | 7.95475 | 62° | 55km/h | 14826m | 5.8m/s | -47.2°C | 3.5% | 128.3hPa | 2.8V | 00:00:00 | 01:00:49 | 00:00:00 | |
| DB0DAN | 2026-08-31 10:32:25 | 53.02711 | 7.95435 | 59° | 49km/h | 14816m | 5.7m/s | -47.3°C | 1.4% | 128.49hPa | 2.8V | 00:00:00 | 00:00:00 | 00:00:00 | |
| DL1XH-west | 2026-08-31 10:32:25 | 53.02711 | 7.95435 | 59° | 53km/h | 14816m | 5.7m/s | -47.3°C | 0.7% | 128.5hPa | 2.8V | 18:12:15 | 01:00:47 | 00:00:00 | |
| DO2JMG | 2026-08-31 10:32:24 | 53.02704 | 7.95416 | 60° | 49km/h | 14810m | 5.1m/s | -47.4°C | 0.7% | 128.6hPa | 2.8V | 18:12:15 | 01:00:46 | 00:00:00 | |
| DO2SHX-10 | 2026-08-31 10:32:24 | 53.02704 | 7.95416 | 60° | 49km/h | 14810m | 5.1m/s | -47.3°C | 3.6% | 128.6hPa | 2.7V | 00:00:00 | 01:00:46 | 00:00:00 | |
| DF4FW | 2026-08-31 10:32:23 | 53.02705 | 7.95416 | 61° | 51km/h | 14810m | 5.1m/s | -47.4°C | 1.4% | 128.6hPa | 2.8V | 00:00:00 | 00:00:00 | 00:00:00 | |
| DD1CC3-15 | 2026-08-31 10:32:22 | 53.02698 | 7.95399 | 60° | 49km/h | 14806m | 4.3m/s | -47.4°C | 1.4% | 128.7hPa | 2.8V | 00:00:00 | 00:00:00 | 00:00:00 | |
| DL1XH1-15 | 2026-08-31 10:32:21 | 53.02661 | 7.95253 | 71° | 62km/h | 14771m | 4.9m/s | -47.5°C | 3.6% | 129.4hPa | 2.8V | 08:30:00 | 01:00:38 | 00:00:00 | |
| AA1-15 | 2026-08-31 10:32:19 | 53.02675 | 7.95322 | 70° | 53km/h | 14786m | 5m/s | -47.4°C | 0.7% | 129.1hPa | 2.7V | 18:12:15 | 01:00:41 | 00:00:00 | |
| HSKMA3-T | 2026-08-31 10:32:17 | 53.02666 | 7.95277 | 72° | 60km/h | 14776m | 6.3m/s | 0°C | 0% | 0hPa | 2.6V | 18:12:15 | 01:00:39 | 00:00:00 | |
| BIOWL1-15 | 2026-08-31 10:32:16 | 53.02661 | 7.95253 | 72° | 62km/h | 14771m | 4.9m/s | -47.5°C | 0.7% | 129.4hPa | 2.8V | 18:12:15 | 01:00:38 | 00:00:00 | |
| DL1XH-west | 2026-08-31 10:32:14 | 53.02652 | 7.95204 | 74° | 62km/h | 14760m | 6.1m/s | -47.4°C | 0.7% | 129.6hPa | 2.7V | 18:12:15 | 01:00:36 | 00:00:00 | |
| DO2JMG | 2026-08-31 10:32:13 | 53.02648 | 7.95179 | 73° | 62km/h | 14754m | 6.1m/s | -47.4°C | 0.7% | 129.7hPa | 2.6V | 18:12:15 | 01:00:35 | 00:00:00 | |
| DO2SHX-10 | 2026-08-31 10:32:12 | 53.02643 | 7.95155 | 71° | 58km/h | 14748m | 6.1m/s | -47.3°C | 3.5% | 129.8hPa | 2.6V | 00:00:00 | 01:00:34 | 00:00:00 | |
| DL1XH1-15 | 2026-08-31 10:32:11 | 53.02618 | 7.95015 | 79° | 58km/h | 14713m | 6.5m/s | -47°C | 3.5% | 130.5hPa | 2.6V | 08:30:00 | 01:00:28 | 00:00:00 | |
| DB0DAN | 2026-08-31 10:32:10 | 53.02633 | 7.95108 | 72° | 55km/h | 14736m | 7.3m/s | -47.3°C | 1.4% | 130.08hPa | 2.8V | 00:00:00 | 00:00:00 | 00:00:00 | |
| DM0DOS-11 | 2026-08-31 10:32:09 | 53.02614 | 7.94965 | 83° | 64km/h | 14703m | 3.9m/s | -47°C | 3.5% | 130.7hPa | 2.7V | 08:30:00 | 01:00:26 | 00:00:00 | |
| AA1-15 | 2026-08-31 10:32:08 | 53.02625 | 7.95063 | 73° | 57km/h | 14724m | 6.7m/s | -47.1°C | 0.6% | 130.3hPa | 2.7V | 18:12:15 | 01:00:30 | 00:00:00 | |
| HSKMA3-T | 2026-08-31 10:32:07 | 53.02621 | 7.95039 | 76° | 58km/h | 14719m | 4.7m/s | 0°C | 0% | 0hPa | 2.6V | 18:12:15 | 01:00:29 | 00:00:00 | |
| BIOWL1-15 | 2026-08-31 10:32:06 | 53.02618 | 7.95015 | 80° | 58km/h | 14713m | 6.5m/s | -47°C | 0.6% | 130.5hPa | 2.6V | 18:12:15 | 01:00:28 | 00:00:00 | |
| DL1XH-west | 2026-08-31 10:32:04 | 53.02614 | 7.94965 | 84° | 64km/h | 14703m | 3.9m/s | -47°C | 0.6% | 130.7hPa | 2.7V | 18:12:15 | 01:00:26 | 00:00:00 | |
| DO2JMG | 2026-08-31 10:32:04 | 53.02612 | 7.94938 | 82° | 68km/h | 14698m | 6.2m/s | -47°C | 0.6% | 130.8hPa | 2.6V | 18:12:15 | 01:00:25 | 00:00:00 | |
| DL1XH1-15 | 2026-08-31 10:32:03 | 53.02573 | 7.94744 | 60° | 62km/h | 14660m | 6m/s | -47°C | 3.5% | 131.6hPa | 2.6V | 08:30:00 | 01:00:18 | 00:00:00 | |
| DD1CC3-15 | 2026-08-31 10:32:03 | 53.02609 | 7.94909 | 80° | 71km/h | 14692m | 5.6m/s | -46.9°C | 1.4% | 130.9hPa | 2.7V | 00:00:00 | 00:00:00 | 00:00:00 | |
| DO2SHX-10 | 2026-08-31 10:32:02 | 53.02605 | 7.94880 | 78° | 71km/h | 14687m | 5.1m/s | -46.9°C | 3.5% | 131.0hPa | 2.7V | 00:00:00 | 01:00:23 | 08:30:00 | |
| DD8BA-10 | 2026-08-31 10:32:01 | 53.02605 | 7.94880 | 78° | 68km/h | 14687m | 5.1m/s | -46.9°C | 3.5% | 131.0hPa | 2.7V | 00:00:00 | 00:00:00 | 00:00:00 | |
| GOEST3-10 | 2026-08-31 10:32:00 | 53.02601 | 7.94851 | 75° | 69km/h | 14682m | 4.8m/s | -46.9°C | 3.6% | 131.1hPa | 2.8V | 00:00:00 | 00:00:00 | 00:00:00 | |
| DM0DOS-11 | 2026-08-31 10:31:59 | 53.02559 | 7.94699 | 64° | 60km/h | 14644m | 7.3m/s | -46.9°C | 3.5% | 131.9hPa | 2.8V | 08:30:00 | 01:00:16 | 00:00:00 | |
| AA1-15 | 2026-08-31 10:31:58 | 53.02589 | 7.94794 | 66° | 73km/h | 14671m | 7.2m/s | -47°C | 0.6% | 131.4hPa | 2.6V | 18:12:15 | 01:00:20 | 00:00:00 | |
| BIOWL1-15 | 2026-08-31 10:31:56 | 53.02573 | 7.94744 | 61° | 64km/h | 14660m | 6.1m/s | -47°C | 0.6% | 131.6hPa | 2.6V | 18:12:15 | 01:00:18 | 00:00:00 | |
| DL1XH-west | 2026-08-31 10:31:53 | 53.02552 | 7.94676 | 65° | 60km/h | 14636m | 6.8m/s | -46.9°C | 0.6% | 132.1hPa | 2.8V | 18:12:15 | 01:00:15 | 00:00:00 | |
| DO2JMG | 2026-08-31 10:31:52 | 53.02545 | 7.94652 | 64° | 62km/h | 14630m | 5.8m/s | -46.9°C | 0.6% | 132.2hPa | 2.6V | 18:12:15 | 01:00:14 | 00:00:00 | |
| AA1-15 | 2026-08-31 10:31:47 | 53.02509 | 7.94543 | 65° | 60km/h | 14600m | 4.9m/s | -46.8°C | 0.6% | 132.8hPa | 2.6V | 18:12:15 | 01:00:09 | 00:00:00 | |
| DF8AY | 2026-08-31 10:31:46 | 53.02503 | 7.94520 | 68° | 58km/h | 14595m | 4.7m/s | -46.9°C | 0.6% | 132.9hPa | 2.6V | 18:12:15 | 01:00:08 | 00:00:00 | |
| BIOWL1-15 | 2026-08-31 10:31:45 | 53.02498 | 7.94498 | 68° | 57km/h | 14589m | 7m/s | -46.9°C | 0.6% | 133hPa | 2.6V | 18:12:15 | 01:00:07 | 00:00:00 | |
| DM0DOS-11 | 2026-08-31 10:31:44 | 53.02492 | 7.94476 | 66° | 58km/h | 14584m | 4m/s | -46.8°C | 3.5% | 133.1hPa | 2.8V | 08:30:00 | 01:00:06 | 00:00:00 | |
| DL1XH-15 | 2026-08-31 10:31:43 | 53.02479 | 7.94430 | 64° | 62km/h | 14573m | 6m/s | -46.7°C | 3.4% | 133.3hPa | 2.7V | 08:30:00 | 01:00:04 | 00:00:00 | |
| DL1XH-west | 2026-08-31 10:31:42 | 53.02479 | 7.94430 | 64° | 62km/h | 14573m | 6m/s | -46.7°C | 0.6% | 133.3hPa | 2.7V | 18:12:15 | 01:00:04 | 00:00:00 | |
| DO2JMG | 2026-08-31 10:31:41 | 53.02472 | 7.94407 | 62° | 64km/h | 14567m | 4.8m/s | -46.7°C | 0.6% | 133.4hPa | 2.6V | 18:12:15 | 01:00:03 | 00:00:00 | |
| DB0DAN | 2026-08-31 10:31:40 | 53.02464 | 7.94384 | 60° | 60km/h | 14562m | 6.6m/s | -46.8°C | 1.3% | 133.52hPa | 2.6V | 00:00:00 | 00:00:00 | 00:00:00 | |
| DO2SHX-10 | 2026-08-31 10:31:40 | 53.02464 | 7.94384 | 60° | 62km/h | 14562m | 6.5m/s | -46.8°C | 3.4% | 133.5hPa | 2.8V | 00:00:00 | 01:00:02 | 00:00:00 | |
| DM0DOS-11 | 2026-08-31 10:31:39 | 53.02411 | 7.94250 | 52° | 64km/h | 14529m | 4.8m/s | -46.7°C | 3.4% | 134.2hPa | 2.8V | 08:30:00 | 00:59:56 | 00:00:00 | |
| AA1-15 | 2026-08-31 10:31:36 | 53.02430 | 7.94293 | 56° | 66km/h | 14540m | 4.8m/s | -46.7°C | 0.6% | 134hPa | 2.6V | 18:12:15 | 00:59:58 | 00:00:00 | |
| BIOWL1-15 | 2026-08-31 10:31:35 | 53.02420 | 7.94271 | 55° | 64km/h | 14534m | 6.3m/s | -46.7°C | 0.6% | 134.1hPa | 2.8V | 18:12:15 | 00:59:57 | 00:00:00 | |
| DL1XH-15 | 2026-08-31 10:31:35 | 53.02390 | 7.94208 | 49° | 64km/h | 14518m | 4.3m/s | -46.6°C | 3.4% | 134.4hPa | 2.6V | 08:30:00 | 00:59:54 | 00:00:00 | |
| DL3AQ-11 | 2026-08-31 10:31:34 | 53.02401 | 7.94228 | 50° | 64km/h | 14523m | 6.2m/s | -46.6°C | 1.3% | 134.4hPa | 2.6V | 00:00:00 | 00:00:00 | 00:00:00 | |
| SMARD9-15 | 2026-08-31 10:31:32 | 53.02390 | 7.94208 | 49° | 62km/h | 14518m | 4.3m/s | -46.6°C | 1.3% | 134.4hPa | 2.6V | 00:00:00 | 00:00:00 | 00:00:00 | |
| DL1XH1-15 | 2026-08-31 10:31:31 | 53.02332 | 7.94093 | 53° | 58km/h | 14488m | 5.4m/s | -46.5°C | 3.4% | 135hPa | 2.6V | 08:30:00 | 00:59:48 | 00:00:00 | |
| DL1XH-west | 2026-08-31 10:31:31 | 53.02380 | 7.94188 | 48° | 60km/h | 14513m | 6.3m/s | -46.6°C | 0.6% | 134.6hPa | 2.6V | 18:12:15 | 00:59:53 | 00:00:00 | |
| DO2JMG | 2026-08-31 10:31:30 | 53.02370 | 7.94169 | 48° | 58km/h | 14507m | 4.9m/s | -46.5°C | 0.6% | 134.6hPa | 2.6V | 18:12:15 | 00:59:52 | 00:00:00 | |
| GOEST3-10 | 2026-08-31 10:31:30 | 53.02370 | 7.94169 | 49° | 58km/h | 14508m | 4.9m/s | -46.5°C | 3.4% | 134.6hPa | 2.8V | 00:00:00 | 00:00:00 | 00:00:00 | |
| DM0DOS-11 | 2026-08-31 10:31:29 | 53.02315 | 7.94052 | 55° | 60km/h | 14478m | 5.5m/s | -46.6°C | 3.4% | 135.2hPa | 2.8V | 08:30:00 | 00:59:46 | 00:00:00 | |
| DF8AY-15 | 2026-08-31 10:31:29 | 53.02360 | 7.94151 | 50° | 60km/h | 14503m | 4.5m/s | 0°C | 0% | 0hPa | 2.7V | 00:00:00 | 00:59:51 | 00:00:00 | |
| DL1XH-15 | 2026-08-31 10:31:27 | 53.02297 | 7.94009 | 54° | 62km/h | 14468m | 5m/s | -47°C | 3.6% | 135.4hPa | 2.7V | 08:30:00 | 00:59:44 | 00:00:00 | |
| AA1-15 | 2026-08-31 10:31:26 | 53.02324 | 7.94073 | 55° | 58km/h | 14483m | 4.9m/s | -46.6°C | 0.6% | 135.1hPa | 2.6V | 18:12:15 | 00:59:47 | 00:00:00 | |
| DB0DAN | 2026-08-31 10:31:25 | 53.02324 | 7.94073 | 55° | 57km/h | 14483m | 4.9m/s | -46.6°C | 1.3% | 135.11hPa | 2.6V | 00:00:00 | 00:00:00 | 00:00:00 | |
| DF8AY | 2026-08-31 10:31:24 | 53.02315 | 7.94052 | 55° | 60km/h | 14478m | 5.6m/s | -46.6°C | 0.6% | 135.2hPa | 2.8V | 18:12:15 | 00:59:46 | 00:00:00 | |
| DO2SHX-10 | 2026-08-31 10:31:22 | 53.02297 | 7.94009 | 55° | 62km/h | 14468m | 5.0m/s | -47.0°C | 3.6% | 135.4hPa | 2.7V | 00:00:00 | 00:59:44 | 00:00:00 | |
| DL1XH1-15 | 2026-08-31 10:31:21 | 53.02240 | 7.93889 | 47° | 57km/h | 14438m | 4.5m/s | -46.9°C | 3.6% | 136.1hPa | 2.7V | 08:30:00 | 00:59:38 | 00:00:00 | |
| DL1XH-west | 2026-08-31 10:31:20 | 53.02279 | 7.93968 | 53° | 62km/h | 14458m | 4.8m/s | -47.1°C | 0.7% | 135.7hPa | 2.6V | 18:12:15 | 00:59:42 | 00:00:00 | |
| DO2JMG | 2026-08-31 10:31:19 | 53.02269 | 7.93947 | 52° | 64km/h | 14453m | 5.5m/s | -47°C | 0.7% | 135.8hPa | 2.6V | 18:12:15 | 00:59:41 | 00:00:00 | |
| AA1-15 | 2026-08-31 10:31:14 | 53.02220 | 7.93854 | 46° | 58km/h | 14427m | 4.2m/s | -46.8°C | 0.6% | 136.3hPa | 2.6V | 18:12:15 | 00:59:36 | 00:00:00 | |
| DF8AY | 2026-08-31 10:31:13 | 53.02210 | 7.93837 | 44° | 57km/h | 14422m | 5.2m/s | -46.8°C | 0.6% | 136.4hPa | 2.8V | 18:12:15 | 00:59:35 | 00:00:00 | |
| DL1XH-15 | 2026-08-31 10:31:12 | 53.02200 | 7.93820 | 42° | 57km/h | 14417m | 4.8m/s | -46.7°C | 3.5% | 136.5hPa | 2.8V | 08:30:00 | 00:59:34 | 00:00:00 | |
| DL1XH1-15 | 2026-08-31 10:31:11 | 53.02135 | 7.93715 | 47° | 60km/h | 14388m | 5.9m/s | -46.5°C | 3.4% | 137.1hPa | 2.6V | 08:30:00 | 00:59:28 | 00:00:00 | |
| DB0DAN | 2026-08-31 10:31:10 | 53.02178 | 7.93787 | 44° | 58km/h | 14407m | 5.1m/s | -46.6°C | 1.4% | 136.69hPa | 2.6V | 00:00:00 | 00:00:00 | 00:00:00 | |
| DO2JMG | 2026-08-31 10:31:09 | 53.02167 | 7.93769 | 44° | 60km/h | 14402m | 4m/s | -46.6°C | 0.6% | 136.8hPa | 2.8V | 18:12:15 | 00:59:31 | 00:00:00 | |
| DF8AY-15 | 2026-08-31 10:31:09 | 53.02167 | 7.93769 | 45° | 58km/h | 14402m | 4.0m/s | 0°C | 0% | 0hPa | 2.8V | 00:00:00 | 00:59:31 | 00:00:00 | |
| DO9LL-15 | 2026-08-31 10:31:08 | 53.02156 | 7.93751 | 45° | 57km/h | 14398m | 5.4m/s | -46.5°C | 3.5% | 136.9hPa | 2.8V | 00:00:00 | 00:59:30 | 00:00:00 | |
| DL1XH-15 | 2026-08-31 10:31:07 | 53.02096 | 7.93641 | 51° | 58km/h | 14366m | 6.5m/s | -46.4°C | 3.4% | 137.6hPa | 2.8V | 08:30:00 | 00:59:24 | 00:00:00 | |
| AA1-15 | 2026-08-31 10:31:03 | 53.02105 | 7.93659 | 50° | 57km/h | 14372m | 4.4m/s | -46.4°C | 0.7% | 137.5hPa | 2.8V | 18:12:15 | 00:59:25 | 00:00:00 | |
| DO2LYB-13 | 2026-08-31 10:31:02 | 53.02105 | 7.93659 | 51° | 57km/h | 14372m | 4.4m/s | -46.4°C | 1.4% | 137.5hPa | 2.8V | 00:00:00 | 00:00:00 | 00:00:00 | |
| DL1XH1-15 | 2026-08-31 10:31:01 | 53.02042 | 7.93531 | 47° | 58km/h | 14336m | 4.1m/s | -46.2°C | 3.4% | 138.2hPa | 2.8V | 08:30:00 | 00:59:18 | 00:00:00 | |
| DL1XH-west | 2026-08-31 10:30:59 | 53.02070 | 7.93584 | 50° | 55km/h | 14349m | 4.6m/s | -46.3°C | 0.6% | 137.9hPa | 2.6V | 18:12:15 | 00:59:21 | 00:00:00 | |
| DO2JMG | 2026-08-31 10:30:58 | 53.02061 | 7.93567 | 50° | 55km/h | 14345m | 4.6m/s | -46.3°C | 0.6% | 138hPa | 2.8V | 18:12:15 | 00:59:20 | 00:00:00 | |
| DO2SHX-10 | 2026-08-31 10:30:58 | 53.02061 | 7.93567 | 50° | 57km/h | 14345m | 4.6m/s | -46.2°C | 3.4% | 137.9hPa | 2.7V | 00:00:00 | 00:59:20 | 00:00:00 | |
| DL1XH-15 | 2026-08-31 10:30:57 | 53.02002 | 7.93461 | 48° | 57km/h | 14316m | 4.6m/s | -46.2°C | 3.4% | 138.6hPa | 2.8V | 08:30:00 | 00:59:14 | 00:00:00 | |
| DB0DAN | 2026-08-31 10:30:55 | 53.02032 | 7.93513 | 45° | 55km/h | 14331m | 5.5m/s | -46.3°C | 1.3% | 138.25hPa | 2.6V | 00:00:00 | 00:00:00 | 00:00:00 | |
| BIOWL1-15 | 2026-08-31 10:30:53 | 53.02011 | 7.93479 | 47° | 58km/h | 14321m | 6.2m/s | -46.3°C | 0.6% | 138.4hPa | 2.6V | 18:12:15 | 00:59:15 | 00:00:00 | |
| AA1-15 | 2026-08-31 10:30:52 | 53.02002 | 7.93461 | 49° | 57km/h | 14316m | 4.6m/s | -46.3°C | 0.6% | 138.6hPa | 2.8V | 18:12:15 | 00:59:14 | 00:00:00 | |
| DL1XH-west | 2026-08-31 10:30:48 | 53.01965 | 7.93391 | 52° | 55km/h | 14296m | 6m/s | -46.2°C | 0.6% | 139hPa | 2.6V | 18:12:15 | 00:59:10 | 00:00:00 | |
| DL1XH-15 | 2026-08-31 10:30:47 | 53.01912 | 7.93281 | 51° | 57km/h | 14267m | 3.8m/s | -46°C | 3.4% | 139.6hPa | 2.8V | 08:30:00 | 00:59:04 | 00:00:00 | |
| DO2JMG | 2026-08-31 10:30:47 | 53.01957 | 7.93372 | 53° | 57km/h | 14291m | 4.6m/s | -46.1°C | 0.6% | 139.1hPa | 2.8V | 18:12:15 | 00:59:09 | 00:00:00 | |
| BIOWL1-15 | 2026-08-31 10:30:44 | 53.01912 | 7.93281 | 52° | 57km/h | 14267m | 3.8m/s | -46.1°C | 0.6% | 139.6hPa | 2.8V | 18:12:15 | 00:59:04 | 00:00:00 | |
| DD1CC8 | 2026-08-31 10:30:44 | 53.01930 | 7.93318 | 50° | 55km/h | 14276m | 3.8m/s | -46.1°C | 1.3% | 139.4hPa | 2.8V | 00:00:00 | 00:00:00 | 00:00:00 | |
| DF8AY | 2026-08-31 10:30:41 | 53.01903 | 7.93263 | 49° | 55km/h | 14263m | 4.6m/s | -46°C | 0.6% | 139.7hPa | 2.8V | 18:12:15 | 00:59:03 | 00:00:00 | |
| DL1XH-west | 2026-08-31 10:30:38 | 53.01874 | 7.93212 | 46° | 57km/h | 14248m | 5.3m/s | -46°C | 0.5% | 140hPa | 2.7V | 18:12:15 | 00:59:00 | 00:00:00 | |
| DO2JMG | 2026-08-31 10:30:37 | 53.01864 | 7.93195 | 45° | 57km/h | 14243m | 4m/s | -46°C | 0.5% | 140.1hPa | 2.8V | 18:12:15 | 00:58:59 | 00:00:00 | |
| BIOWL1-15 | 2026-08-31 10:30:33 | 53.01809 | 7.93094 | 53° | 53km/h | 14213m | 5m/s | -46.1°C | 0.6% | 140.8hPa | 2.8V | 18:12:15 | 00:58:53 | 00:00:00 | |
| DF8AY | 2026-08-31 10:30:30 | 53.01801 | 7.93076 | 54° | 53km/h | 14209m | 3.4m/s | -46.1°C | 0.6% | 140.9hPa | 2.8V | 18:12:15 | 00:58:52 | 00:00:00 | |
| DL1XH-west | 2026-08-31 10:30:28 | 53.01784 | 7.93039 | 54° | 57km/h | 14199m | 4.5m/s | -46°C | 0.6% | 141hPa | 2.6V | 18:12:15 | 00:58:50 | 00:00:00 | |
| DO2JMG | 2026-08-31 10:30:27 | 53.01776 | 7.93020 | 53° | 53km/h | 14195m | 5.1m/s | -46°C | 0.6% | 141.1hPa | 2.7V | 18:12:15 | 00:58:49 | 00:00:00 | |
| DL4XJ-10 | 2026-08-31 10:30:27 | 53.01776 | 7.93020 | 54° | 51km/h | 14195m | 5.1m/s | -45.3°C | 0% | 0hPa | 2.8V | 00:00:00 | 00:00:00 | 00:00:00 | |
| DL1LOL-11 | 2026-08-31 10:30:26 | 53.01776 | 7.93020 | 54° | 53km/h | 14195m | 5.1m/s | -46.0°C | 1.4% | 141.1hPa | 2.8V | 00:00:00 | 00:00:00 | 00:00:00 | |
| GOEST3-10 | 2026-08-31 10:30:25 | 53.01760 | 7.92987 | 50° | 49km/h | 14184m | 4.8m/s | -45.9°C | 3.4% | 141.3hPa | 2.8V | 00:00:00 | 00:58:47 | 00:00:00 | |
| DB0DAN | 2026-08-31 10:30:25 | 53.01760 | 7.92987 | 49° | 49km/h | 14184m | 4.8m/s | -46°C | 1.4% | 141.35hPa | 2.8V | 00:00:00 | 00:00:00 | 00:00:00 | |
| DF4FW | 2026-08-31 10:30:23 | 53.01751 | 7.92971 | 49° | 51km/h | 14180m | 5.3m/s | -46.0°C | 1.4% | 141.5hPa | 2.8V | 00:00:00 | 00:00:00 | 00:00:00 | |
| DL8OAI-8 | 2026-08-31 10:30:22 | 53.01742 | 7.92955 | 47° | 49km/h | 14175m | 4.2m/s | -46.0°C | 1.4% | 141.6hPa | 2.8V | 00:00:00 | 00:00:00 | 00:00:00 | |
| DL1XH1-15 | 2026-08-31 10:30:21 | 53.01689 | 7.92839 | 59° | 55km/h | 14139m | 6.2m/s | -46.1°C | 3.4% | 142.3hPa | 2.8V | 08:30:00 | 00:58:38 | 00:00:00 | |
| AA1-15 | 2026-08-31 10:30:20 | 53.01718 | 7.92910 | 51° | 49km/h | 14160m | 5.8m/s | -46°C | 0.6% | 141.9hPa | 2.8V | 18:12:15 | 00:58:42 | 00:00:00 | |
| DF8AY | 2026-08-31 10:30:19 | 53.01710 | 7.92894 | 55° | 51km/h | 14155m | 4.7m/s | -46.1°C | 0.6% | 142hPa | 2.6V | 18:12:15 | 00:58:41 | 00:00:00 | |
| DL1XH-west | 2026-08-31 10:30:18 | 53.01703 | 7.92876 | 56° | 51km/h | 14150m | 6m/s | -46.1°C | 0.6% | 142.1hPa | 2.6V | 18:12:15 | 00:58:40 | 00:00:00 | |
| DL1XH-15 | 2026-08-31 10:30:17 | 53.01661 | 7.92760 | 58° | 51km/h | 14120m | 4.6m/s | -46.2°C | 3.4% | 142.7hPa | 2.6V | 08:30:00 | 00:58:34 | 00:00:00 | |
| DO2JMG | 2026-08-31 10:30:16 | 53.01689 | 7.92839 | 60° | 55km/h | 14139m | 6.2m/s | -46.1°C | 0.6% | 142.3hPa | 2.8V | 18:12:15 | 00:58:38 | 00:00:00 | |
| DO2SHX-10 | 2026-08-31 10:30:16 | 53.01689 | 7.92839 | 60° | 57km/h | 14139m | 6.1m/s | -46.1°C | 3.4% | 142.2hPa | 2.8V | 00:00:00 | 00:58:38 | 00:00:00 | |
| GOEST3-10 | 2026-08-31 10:30:15 | 53.01682 | 7.92819 | 60° | 53km/h | 14134m | 4.0m/s | -46.2°C | 3.4% | 142.3hPa | 2.8V | 00:00:00 | 00:58:37 | 00:00:00 | |
| DL3AQ-11 | 2026-08-31 10:30:14 | 53.01668 | 7.92779 | 59° | 53km/h | 14125m | 4.9m/s | -46.3°C | 1.4% | 142.6hPa | 2.8V | 00:00:00 | 00:00:00 | 00:00:00 | |
| DJ2DS-15 | 2026-08-31 10:30:13 | 53.01668 | 7.92779 | 60° | 57km/h | 14125m | 4.8m/s | -46.2°C | 3.4% | 142.6hPa | 2.8V | 00:00:00 | 00:58:35 | 00:00:00 | |
| SMARD9-10 | 2026-08-31 10:30:12 | 53.01668 | 7.92778 | 60° | 53km/h | 14125m | 4.9m/s | 0°C | 0% | 0hPa | 2.8V | 00:00:00 | 00:00:00 | 00:00:00 | |
| DL1XH1-15 | 2026-08-31 10:30:11 | 53.01615 | 7.92656 | 46° | 53km/h | 14088m | 6.7m/s | -46°C | 3.3% | 143.4hPa | 2.8V | 08:30:00 | 00:58:28 | 00:00:00 | |
| AA1-15 | 2026-08-31 10:30:10 | 53.01647 | 7.92724 | 57° | 51km/h | 14110m | 5.7m/s | -46.1°C | 0.6% | 142.9hPa | 2.8V | 18:12:15 | 00:58:32 | 00:00:00 | |
| DB0DAN | 2026-08-31 10:30:10 | 53.01647 | 7.92724 | 57° | 49km/h | 14110m | 5.7m/s | -46.1°C | 1.4% | 142.92hPa | 2.8V | 00:00:00 | 00:00:00 | 00:00:00 | |
| BIOWL1-15 | 2026-08-31 10:30:09 | 53.01640 | 7.92706 | 55° | 51km/h | 14105m | 4.5m/s | -46.1°C | 0.6% | 143.1hPa | 2.8V | 18:12:15 | 00:58:31 | 00:00:00 | |
| DL1XH-west | 2026-08-31 10:30:08 | 53.01632 | 7.92688 | 52° | 51km/h | 14099m | 6.2m/s | -46°C | 0.6% | 143.1hPa | 2.6V | 18:12:15 | 00:58:30 | 00:00:00 | |
| DO9LL-15 | 2026-08-31 10:30:08 | 53.01632 | 7.92688 | 52° | 58km/h | 14100m | 6.2m/s | -46.0°C | 3.4% | 143.1hPa | 2.6V | 00:00:00 | 00:58:30 | 00:00:00 | |
| DL4XJ-10 | 2026-08-31 10:30:07 | 53.01623 | 7.92672 | 48° | 58km/h | 14095m | 4.5m/s | -45.2°C | 0% | 0hPa | 2.7V | 00:00:00 | 00:00:00 | 00:00:00 | |
| DO2SHX-10 | 2026-08-31 10:30:06 | 53.01615 | 7.92656 | 47° | 57km/h | 14089m | 6.6m/s | -45.9°C | 3.3% | 143.3hPa | 2.7V | 00:00:00 | 00:58:28 | 00:00:00 | |
| DO2JMG | 2026-08-31 10:30:06 | 53.01615 | 7.92656 | 47° | 53km/h | 14088m | 6.7m/s | -46°C | 0.5% | 143.4hPa | 2.8V | 18:12:15 | 00:58:28 | 00:00:00 | |
| GOEST3-10 | 2026-08-31 10:30:05 | 53.01605 | 7.92640 | 45° | 58km/h | 14082m | 5.5m/s | -45.9°C | 3.4% | 143.5hPa | 2.7V | 00:00:00 | 00:58:27 | 00:00:00 | |
| HTAHTA | 2026-08-31 10:30:04 | 53.01594 | 7.92623 | 41° | 58km/h | 14078m | 3.7m/s | -45.9°C | 1.4% | 143.7hPa | 2.6V | 00:00:00 | 00:00:00 | 00:00:00 | |
| DO2SHX-10 | 2026-08-31 10:30:03 | 53.01583 | 7.92607 | 40° | 62km/h | 14073m | 6.4m/s | -45.8°C | 3.3% | 143.7hPa | 2.6V | 00:00:00 | 00:58:25 | 00:00:00 | |
| DF4FW | 2026-08-31 10:30:02 | 53.01583 | 7.92607 | 41° | 58km/h | 14073m | 6.5m/s | -45.9°C | 1.4% | 143.8hPa | 2.6V | 00:00:00 | 00:00:00 | 00:00:00 | |
| DL1XH1-15 | 2026-08-31 10:30:01 | 53.01501 | 7.92490 | 44° | 58km/h | 14041m | 4.5m/s | -45.9°C | 3.3% | 144.5hPa | 2.6V | 08:30:00 | 00:58:18 | 00:00:00 | |
| DD8BA-10 | 2026-08-31 10:30:01 | 53.01559 | 7.92575 | 40° | 58km/h | 14065m | 4.1m/s | -45.8°C | 3.3% | 143.9hPa | 2.7V | 00:00:00 | 00:00:00 | 08:30:00 | |
| GOEST3-10 | 2026-08-31 10:30:00 | 53.01547 | 7.92558 | 40° | 60km/h | 14060m | 5.7m/s | -45.8°C | 3.3% | 144.0hPa | 2.8V | 00:00:00 | 00:00:00 | 00:00:00 | |
| DM0DOS-11 | 2026-08-31 10:29:59 | 53.01481 | 7.92455 | 48° | 57km/h | 14031m | 4.4m/s | -46°C | 3.3% | 144.7hPa | 2.8V | 08:30:00 | 00:58:16 | 00:00:00 | |
| AA1-15 | 2026-08-31 10:29:59 | 53.01535 | 7.92541 | 41° | 64km/h | 14055m | 3.9m/s | -45.9°C | 0.6% | 144.2hPa | 2.8V | 18:12:15 | 00:58:21 | 00:00:00 | |
| DF8AY | 2026-08-31 10:29:58 | 53.01523 | 7.92524 | 42° | 62km/h | 14051m | 4m/s | -45.9°C | 0.5% | 144.2hPa | 2.8V | 18:12:15 | 00:58:20 | 00:00:00 | |
| DL1XH-west | 2026-08-31 10:29:57 | 53.01512 | 7.92507 | 42° | 60km/h | 14046m | 5.2m/s | -45.9°C | 0.5% | 144.3hPa | 2.6V | 18:12:15 | 00:58:19 | 00:00:00 | |
| DO2JMG | 2026-08-31 10:29:55 | 53.01491 | 7.92473 | 46° | 58km/h | 14036m | 5.6m/s | -46°C | 0.5% | 144.6hPa | 2.8V | 18:12:15 | 00:58:17 | 00:00:00 | |
| DB0DAN | 2026-08-31 10:29:55 | 53.01491 | 7.92473 | 46° | 55km/h | 14036m | 5.6m/s | -46°C | 1.3% | 144.56hPa | 2.8V | 00:00:00 | 00:00:00 | 00:00:00 | |
| DC4HF-4 | 2026-08-31 10:29:52 | 53.01463 | 7.92420 | 50° | 53km/h | 14021m | 3.7m/s | -46.1°C | 1.3% | 144.9hPa | 2.7V | 00:00:00 | 00:00:00 | 00:00:00 | |
| DL1XH1-15 | 2026-08-31 10:29:51 | 53.01411 | 7.92308 | 50° | 60km/h | 13994m | 4.2m/s | -46.1°C | 3.3% | 145.4hPa | 2.7V | 08:30:00 | 00:58:08 | 00:00:00 | |
| BIOWL1-15 | 2026-08-31 10:29:49 | 53.01438 | 7.92365 | 54° | 57km/h | 14008m | 4.3m/s | -46.2°C | 0.6% | 145.2hPa | 2.8V | 18:12:15 | 00:58:11 | 00:00:00 | |
| DF8AY | 2026-08-31 10:29:48 | 53.01429 | 7.92346 | 53° | 57km/h | 14003m | 5.6m/s | -46.1°C | 0.6% | 145.3hPa | 2.6V | 18:12:15 | 00:58:10 | 00:00:00 | |
| DL1XH-west | 2026-08-31 10:29:46 | 53.01411 | 7.92308 | 50° | 60km/h | 13994m | 4.3m/s | -46.1°C | 0.5% | 145.4hPa | 2.7V | 18:12:15 | 00:58:08 | 00:00:00 | |
| GOEST3-10 | 2026-08-31 10:29:45 | 53.01401 | 7.92288 | 50° | 62km/h | 13989m | 5.2m/s | -46.0°C | 3.3% | 145.5hPa | 2.6V | 00:00:00 | 00:58:07 | 00:00:00 | |
| DO2JMG | 2026-08-31 10:29:45 | 53.01401 | 7.92288 | 50° | 62km/h | 13989m | 5.3m/s | -46°C | 0.5% | 145.6hPa | 2.8V | 18:12:15 | 00:58:07 | 00:00:00 | |
| DO2SHX-10 | 2026-08-31 10:29:44 | 53.01390 | 7.92269 | 48° | 62km/h | 13984m | 4.9m/s | -46.0°C | 3.3% | 145.6hPa | 2.6V | 00:00:00 | 00:58:06 | 00:00:00 | |
| DD1CC8 | 2026-08-31 10:29:42 | 53.01369 | 7.92231 | 46° | 62km/h | 13974m | 3.9m/s | -45.9°C | 1.3% | 145.9hPa | 2.6V | 00:00:00 | 00:00:00 | 00:00:00 | |
| DL1XH1-15 | 2026-08-31 10:29:41 | 53.01310 | 7.92117 | 53° | 57km/h | 13946m | 4.6m/s | -46.2°C | 3.3% | 146.5hPa | 2.6V | 08:30:00 | 00:57:58 | 00:00:00 | |
| BIOWL1-15 | 2026-08-31 10:29:39 | 53.01338 | 7.92174 | 49° | 58km/h | 13960m | 5.2m/s | -45.9°C | 0.5% | 146.2hPa | 2.8V | 18:12:15 | 00:58:01 | 00:00:00 | |
| AA1-15 | 2026-08-31 10:29:37 | 53.01319 | 7.92136 | 52° | 58km/h | 13950m | 5.3m/s | -46.1°C | 0.5% | 146.5hPa | 2.6V | 18:12:15 | 00:57:59 | 00:00:00 | |
| DL1XH-15 | 2026-08-31 10:29:36 | 53.01280 | 7.92043 | 55° | 53km/h | 13925m | 3.1m/s | -46.7°C | 3.5% | 147hPa | 2.8V | 08:30:00 | 00:57:54 | 00:00:00 | |
| DL1XH-west | 2026-08-31 10:29:36 | 53.01311 | 7.92117 | 54° | 57km/h | 13946m | 4.6m/s | -46.2°C | 0.6% | 146.6hPa | 2.6V | 18:12:15 | 00:57:58 | 00:00:00 | |
| DO2JMG | 2026-08-31 10:29:34 | 53.01295 | 7.92080 | 57° | 53km/h | 13935m | 4.6m/s | -46.7°C | 0.6% | 146.8hPa | 2.8V | 18:12:15 | 00:57:56 | 00:00:00 | |
| DJ2DS-15 | 2026-08-31 10:29:33 | 53.01287 | 7.92061 | 58° | 55km/h | 13930m | 5.9m/s | -46.7°C | 3.5% | 146.8hPa | 2.6V | 00:00:00 | 00:57:55 | 00:00:00 | |
| DO2SHX-10 | 2026-08-31 10:29:32 | 53.01280 | 7.92043 | 56° | 51km/h | 13925m | 3.0m/s | -46.7°C | 3.5% | 147.0hPa | 2.6V | 00:00:00 | 00:57:54 | 00:00:00 | |
| DL1XH1-15 | 2026-08-31 10:29:31 | 53.01227 | 7.91941 | 44° | 57km/h | 13897m | 4.9m/s | -46.8°C | 3.5% | 147.6hPa | 2.6V | 08:30:00 | 00:57:48 | 00:00:00 | |
| BIOWL1-15 | 2026-08-31 10:29:28 | 53.01247 | 7.91975 | 48° | 55km/h | 13907m | 4.6m/s | -46.8°C | 0.7% | 147.4hPa | 2.8V | 18:12:15 | 00:57:50 | 00:00:00 | |
| DF8AY | 2026-08-31 10:29:26 | 53.01227 | 7.91941 | 45° | 57km/h | 13897m | 4.9m/s | -46.8°C | 0.7% | 147.7hPa | 2.6V | 18:12:15 | 00:57:48 | 00:00:00 | |
| DL1XH-15 | 2026-08-31 10:29:26 | 53.01188 | 7.91872 | 47° | 55km/h | 13878m | 5.7m/s | -46.7°C | 3.4% | 148.1hPa | 2.8V | 08:30:00 | 00:57:44 | 00:00:00 | |
| DL1XH-west | 2026-08-31 10:29:25 | 53.01217 | 7.91925 | 46° | 57km/h | 13892m | 4.6m/s | -46.7°C | 0.7% | 147.8hPa | 2.6V | 18:12:15 | 00:57:47 | 00:00:00 | |
| DO2JMG | 2026-08-31 10:29:24 | 53.01207 | 7.91907 | 47° | 58km/h | 13887m | 5.5m/s | -46.7°C | 0.6% | 147.9hPa | 2.7V | 18:12:15 | 00:57:46 | 00:00:00 | |
| DL1XH1-15 | 2026-08-31 10:29:21 | 53.01134 | 7.91765 | 51° | 55km/h | 13847m | 5.9m/s | -46.8°C | 3.4% | 148.8hPa | 2.8V | 08:30:00 | 00:57:38 | 00:00:00 | |
| DD8BA-10 | 2026-08-31 10:29:21 | 53.01179 | 7.91855 | 49° | 55km/h | 13873m | 4.0m/s | -46.7°C | 3.4% | 148.2hPa | 2.6V | 00:00:00 | 00:00:00 | 00:00:00 | |
| GOEST3-10 | 2026-08-31 10:29:20 | 53.01169 | 7.91838 | 50° | 57km/h | 13868m | 5.7m/s | -46.6°C | 3.4% | 148.2hPa | 2.6V | 00:00:00 | 00:00:00 | 00:00:00 | |
| DM0DOS-11 | 2026-08-31 10:29:19 | 53.01117 | 7.91728 | 53° | 55km/h | 13837m | 5.5m/s | -47°C | 3.5% | 149hPa | 2.6V | 08:30:00 | 00:57:36 | 00:00:00 | |
| BIOWL1-15 | 2026-08-31 10:29:18 | 53.01151 | 7.91801 | 52° | 57km/h | 13858m | 5.8m/s | -46.7°C | 0.6% | 148.5hPa | 2.8V | 18:12:15 | 00:57:40 | 00:00:00 | |
| DD1CC3-15 | 2026-08-31 10:29:17 | 53.01151 | 7.91801 | 53° | 57km/h | 13858m | 5.8m/s | -46.7°C | 1.4% | 148.5hPa | 2.8V | 00:00:00 | 00:00:00 | 00:00:00 | |
| DL1XH-15 | 2026-08-31 10:29:16 | 53.01101 | 7.91691 | 56° | 55km/h | 13827m | 5m/s | -47°C | 3.5% | 149.2hPa | 2.8V | 08:30:00 | 00:57:34 | 00:00:00 | |
| DL1XH-west | 2026-08-31 10:29:15 | 53.01125 | 7.91746 | 52° | 57km/h | 13842m | 4.6m/s | -46.9°C | 0.7% | 148.9hPa | 2.6V | 18:12:15 | 00:57:37 | 00:00:00 | |
| DO2JMG | 2026-08-31 10:29:13 | 53.01109 | 7.91709 | 55° | 53km/h | 13832m | 4.9m/s | -47°C | 0.7% | 149.1hPa | 2.7V | 18:12:15 | 00:57:35 | 00:00:00 | |
| DJ2DS-15 | 2026-08-31 10:29:13 | 53.01109 | 7.91709 | 55° | 58km/h | 13832m | 4.8m/s | -47.0°C | 3.6% | 149.1hPa | 2.8V | 00:00:00 | 00:57:35 | 00:00:00 | |
| DL1XH1-15 | 2026-08-31 10:29:11 | 53.01057 | 7.91572 | 55° | 58km/h | 13798m | 4.8m/s | -47°C | 3.5% | 149.9hPa | 2.8V | 08:30:00 | 00:57:28 | 00:00:00 | |
| BIOWL1-15 | 2026-08-31 10:29:10 | 53.01073 | 7.91612 | 59° | 53km/h | 13809m | 4.4m/s | -47.1°C | 0.7% | 149.6hPa | 2.7V | 18:12:15 | 00:57:30 | 00:00:00 | |
| DB0DAN | 2026-08-31 10:29:10 | 53.01086 | 7.91651 | 60° | 53km/h | 13818m | 3.4m/s | -47.1°C | 1.5% | 149.44hPa | 2.8V | 00:00:00 | 00:00:00 | 00:00:00 | |
| GOEST3-10 | 2026-08-31 10:29:10 | 53.01086 | 7.91651 | 60° | 55km/h | 13818m | 3.4m/s | -47.0°C | 3.5% | 149.4hPa | 2.6V | 00:00:00 | 00:00:00 | 00:00:00 | |
| DM0DOS-11 | 2026-08-31 10:29:09 | 53.01040 | 7.91534 | 52° | 57km/h | 13788m | 5.1m/s | -47.1°C | 3.5% | 150.1hPa | 2.6V | 08:30:00 | 00:57:26 | 00:00:00 | |
| DO9LL-15 | 2026-08-31 10:29:08 | 53.01073 | 7.91612 | 59° | 60km/h | 13809m | 4.3m/s | -47.1°C | 3.6% | 149.6hPa | 2.7V | 00:00:00 | 00:57:30 | 00:00:00 | |
| DL4XJ-10 | 2026-08-31 10:29:07 | 53.01066 | 7.91592 | 58° | 60km/h | 13803m | 6.2m/s | -46.3°C | 0% | 0hPa | 2.7V | 00:00:00 | 00:00:00 | 00:00:00 | |
| DL1XH-15 | 2026-08-31 10:29:06 | 53.01023 | 7.91495 | 54° | 60km/h | 13778m | 5.7m/s | -47.1°C | 3.5% | 150.3hPa | 2.7V | 08:30:00 | 00:57:24 | 00:00:00 | |
| DL1XH-west | 2026-08-31 10:29:04 | 53.01040 | 7.91534 | 53° | 57km/h | 13788m | 5.1m/s | -47.1°C | 0.7% | 150.1hPa | 2.6V | 18:12:15 | 00:57:26 | 00:00:00 | |
| DO2JMG | 2026-08-31 10:29:03 | 53.01032 | 7.91515 | 53° | 58km/h | 13783m | 4.3m/s | -47.1°C | 0.7% | 150.2hPa | 2.6V | 18:12:15 | 00:57:25 | 00:00:00 | |
| DO2SHX-10 | 2026-08-31 10:29:03 | 53.01032 | 7.91514 | 54° | 58km/h | 13784m | 4.2m/s | -47.1°C | 3.5% | 150.1hPa | 2.8V | 00:00:00 | 00:57:25 | 00:00:00 | |
| HTAHTA | 2026-08-31 10:29:02 | 53.01023 | 7.91495 | 54° | 58km/h | 13778m | 5.7m/s | -47.1°C | 1.4% | 150.3hPa | 2.8V | 00:00:00 | 00:00:00 | 00:00:00 | |
| DL1XH1-15 | 2026-08-31 10:29:01 | 53.00974 | 7.91363 | 60° | 64km/h | 13747m | 6.1m/s | -47°C | 3.5% | 151hPa | 2.8V | 08:30:00 | 00:57:18 | 00:00:00 | |
| DD8BA-10 | 2026-08-31 10:29:01 | 53.01014 | 7.91474 | 56° | 64km/h | 13773m | 4.9m/s | -47.1°C | 3.5% | 150.4hPa | 2.7V | 00:00:00 | 00:00:00 | 00:00:00 | |
| GOEST3-10 | 2026-08-31 10:29:00 | 53.01006 | 7.91453 | 57° | 62km/h | 13768m | 5.5m/s | -47.0°C | 3.5% | 150.5hPa | 2.8V | 00:00:00 | 00:00:00 | 00:00:00 | |
| DM0DOS-11 | 2026-08-31 10:28:59 | 53.00957 | 7.91316 | 60° | 66km/h | 13736m | 6.1m/s | -46.9°C | 3.5% | 151.3hPa | 2.8V | 08:30:00 | 00:57:16 | 00:00:00 | |
| BIOWL1-15 | 2026-08-31 10:28:57 | 53.00981 | 7.91386 | 61° | 64km/h | 13752m | 4.4m/s | -47°C | 0.7% | 150.9hPa | 2.7V | 18:12:15 | 00:57:19 | 00:00:00 | |
| SMARD9-15 | 2026-08-31 10:28:57 | 53.00973 | 7.91363 | 60° | 62km/h | 13747m | 6.1m/s | -47.0°C | 1.4% | 151.0hPa | 2.8V | 00:00:00 | 00:00:00 | 00:00:00 | |
| DD1CC3-15 | 2026-08-31 10:28:56 | 53.00982 | 7.91386 | 62° | 64km/h | 13753m | 4.4m/s | -47.0°C | 1.5% | 150.9hPa | 2.8V | 00:00:00 | 00:00:00 | 00:00:00 | |
| DB0DAN | 2026-08-31 10:28:55 | 53.00966 | 7.91340 | 61° | 62km/h | 13742m | 5.1m/s | -47°C | 1.4% | 151.18hPa | 2.8V | 00:00:00 | 00:00:00 | 00:00:00 | |
| DL1XH-west | 2026-08-31 10:28:54 | 53.00957 | 7.91316 | 60° | 66km/h | 13736m | 6.1m/s | -46.9°C | 0.7% | 151.3hPa | 2.8V | 18:12:15 | 00:57:16 | 00:00:00 | |
| DO2JMG | 2026-08-31 10:28:53 | 53.00949 | 7.91293 | 58° | 66km/h | 13731m | 4m/s | -47°C | 0.8% | 151.4hPa | 2.7V | 18:12:15 | 00:57:15 | 00:00:00 | |
| DJ2DS-15 | 2026-08-31 10:28:53 | 53.00949 | 7.91292 | 59° | 58km/h | 13731m | 4.0m/s | -47.0°C | 3.5% | 151.4hPa | 2.7V | 00:00:00 | 00:57:15 | 00:00:00 | |
| DL1XH1-15 | 2026-08-31 10:28:51 | 53.00890 | 7.91142 | 60° | 57km/h | 13696m | 5m/s | -47.5°C | 3.6% | 152.2hPa | 2.7V | 08:30:00 | 00:57:08 | 00:00:00 | |
| SONDE2-11 | 2026-08-31 10:28:51 | 53.00922 | 7.91227 | 55° | 62km/h | 13716m | 4.4m/s | 0°C | -1.0% | -1.0hPa | 2.8V | 00:00:00 | 00:00:00 | 00:00:00 | |
| DO2SHX-10 | 2026-08-31 10:28:50 | 53.00922 | 7.91227 | 56° | 62km/h | 13716m | 4.3m/s | -47.1°C | 3.5% | 151.7hPa | 2.8V | 00:00:00 | 00:57:12 | 00:00:00 | |
| DM0DOS-11 | 2026-08-31 10:28:49 | 53.00876 | 7.91101 | 62° | 55km/h | 13686m | 5m/s | -47.6°C | 3.6% | 152.4hPa | 2.8V | 08:30:00 | 00:57:06 | 00:00:00 | |
| BIOWL1-15 | 2026-08-31 10:28:47 | 53.00897 | 7.91163 | 58° | 57km/h | 13702m | 5.5m/s | -47.4°C | 0.8% | 152.1hPa | 2.7V | 18:12:15 | 00:57:09 | 00:00:00 | |
| DL4XJ-10 | 2026-08-31 10:28:47 | 53.00897 | 7.91163 | 59° | 60km/h | 13702m | 5.5m/s | -46.6°C | 0% | 0hPa | 2.6V | 00:00:00 | 00:00:00 | 00:00:00 | |
| DL1XH-15 | 2026-08-31 10:28:46 | 53.00863 | 7.91061 | 61° | 55km/h | 13676m | 4.2m/s | -47.6°C | 3.7% | 152.7hPa | 2.6V | 08:30:00 | 00:57:04 | 00:00:00 | |
| DO2JMG | 2026-08-31 10:28:43 | 53.00870 | 7.91081 | 62° | 53km/h | 13681m | 5.7m/s | -47.6°C | 0.9% | 152.6hPa | 2.8V | 18:12:15 | 00:57:05 | 00:00:00 | |
| DF8AY | 2026-08-31 10:28:42 | 53.00863 | 7.91061 | 61° | 55km/h | 13676m | 4.2m/s | -47.6°C | 0.9% | 152.7hPa | 2.6V | 18:12:15 | 00:57:04 | 00:00:00 | |
| DL1XH1-15 | 2026-08-31 10:28:41 | 53.00821 | 7.90935 | 59° | 62km/h | 13645m | 4.7m/s | -47.7°C | 3.6% | 153.3hPa | 2.7V | 08:30:00 | 00:56:58 | 00:00:00 | |
| DB0DAN | 2026-08-31 10:28:40 | 53.00849 | 7.91020 | 61° | 55km/h | 13666m | 4.1m/s | -47.6°C | 1.5% | 152.92hPa | 2.7V | 00:00:00 | 00:00:00 | 00:00:00 | |
| DO2SHX-10 | 2026-08-31 10:28:40 | 53.00849 | 7.91020 | 61° | 57km/h | 13666m | 4.0m/s | -47.5°C | 3.6% | 152.9hPa | 2.8V | 00:00:00 | 00:57:02 | 00:00:00 | |
| DM0DOS-11 | 2026-08-31 10:28:39 | 53.00806 | 7.90891 | 61° | 60km/h | 13634m | 4.4m/s | -47.7°C | 3.6% | 153.6hPa | 2.8V | 08:30:00 | 00:56:56 | 00:00:00 | |
| BIOWL1-15 | 2026-08-31 10:28:36 | 53.00820 | 7.90935 | 60° | 62km/h | 13645m | 4.7m/s | -47.7°C | 0.9% | 153.3hPa | 2.7V | 18:12:15 | 00:56:58 | 00:00:00 | |
| DL1XH-15 | 2026-08-31 10:28:36 | 53.00791 | 7.90845 | 62° | 64km/h | 13624m | 5.9m/s | -47.8°C | 3.6% | 153.9hPa | 2.8V | 08:30:00 | 00:56:54 | 00:00:00 | |
| DL1XH-west | 2026-08-31 10:28:33 | 53.00798 | 7.90868 | 63° | 62km/h | 13629m | 5.1m/s | -47.7°C | 0.8% | 153.7hPa | 2.8V | 18:12:15 | 00:56:55 | 00:00:00 | |
| DO2JMG | 2026-08-31 10:28:32 | 53.00791 | 7.90845 | 63° | 64km/h | 13624m | 5.9m/s | -47.8°C | 0.9% | 153.9hPa | 2.8V | 18:12:15 | 00:56:54 | 00:00:00 | |
| DL1XH1-15 | 2026-08-31 10:28:31 | 53.00751 | 7.90697 | 66° | 62km/h | 13594m | 5m/s | -48.1°C | 3.8% | 154.6hPa | 2.8V | 08:30:00 | 00:56:48 | 00:00:00 | |
| DD8BA-10 | 2026-08-31 10:28:31 | 53.00784 | 7.90821 | 65° | 64km/h | 13619m | 4.5m/s | -47.8°C | 3.6% | 153.9hPa | 2.6V | 00:00:00 | 00:00:00 | 08:30:00 | |
| DF5WG-10 | 2026-08-31 10:28:30 | 53.00777 | 7.90796 | 67° | 64km/h | 13614m | 6.0m/s | -47.9°C | 3.7% | 154.1hPa | 2.7V | 00:00:00 | 00:56:52 | 00:00:00 | |
| DM0DOS-11 | 2026-08-31 10:28:29 | 53.00737 | 7.90650 | 62° | 62km/h | 13584m | 5.8m/s | -48.2°C | 3.7% | 154.8hPa | 2.7V | 08:30:00 | 00:56:46 | 00:00:00 | |
| DO2SHX-10 | 2026-08-31 10:28:28 | 53.00764 | 7.90746 | 66° | 64km/h | 13604m | 5.4m/s | -48.0°C | 3.7% | 154.4hPa | 2.7V | 00:00:00 | 00:56:50 | 00:00:00 | |
| DL4XJ-10 | 2026-08-31 10:28:27 | 53.00758 | 7.90721 | 66° | 64km/h | 13599m | 4.2m/s | -47.4°C | 0% | 0hPa | 2.8V | 00:00:00 | 00:00:00 | 00:00:00 | |
| DL1XH-15 | 2026-08-31 10:28:26 | 53.00723 | 7.90604 | 61° | 62km/h | 13574m | 6m/s | -48.3°C | 3.8% | 155hPa | 2.8V | 08:30:00 | 00:56:44 | 00:00:00 | |
| DB0DAN | 2026-08-31 10:28:25 | 53.00744 | 7.90674 | 65° | 58km/h | 13589m | 4.2m/s | -48.1°C | 1.6% | 154.69hPa | 2.7V | 00:00:00 | 00:00:00 | 00:00:00 | |
| DL1XH-west | 2026-08-31 10:28:23 | 53.00730 | 7.90627 | 62° | 62km/h | 13579m | 4.3m/s | -48.3°C | 0.9% | 155hPa | 2.8V | 18:12:15 | 00:56:45 | 00:00:00 | |
| DO2JMG | 2026-08-31 10:28:22 | 53.00722 | 7.90604 | 62° | 62km/h | 13574m | 6m/s | -48.3°C | 0.9% | 155hPa | 2.8V | 18:12:15 | 00:56:44 | 00:00:00 | |
| DF8AY | 2026-08-31 10:28:21 | 53.00715 | 7.90581 | 61° | 62km/h | 13569m | 4.2m/s | -48.3°C | 0.9% | 155.2hPa | 2.8V | 18:12:15 | 00:56:43 | 00:00:00 | |
| DB0UT-7 | 2026-08-31 10:28:21 | 53.00715 | 7.90581 | 61° | 64km/h | 13569m | 4.2m/s | -48.2°C | 3.8% | 155.1hPa | 2.7V | 00:00:00 | 00:00:00 | 00:00:00 | |
| GOEST3-10 | 2026-08-31 10:28:20 | 53.00707 | 7.90558 | 60° | 66km/h | 13565m | 5.1m/s | -48.3°C | 3.8% | 155.2hPa | 2.7V | 00:00:00 | 00:00:00 | 08:30:00 | |
| DM0DOS-11 | 2026-08-31 10:28:19 | 53.00660 | 7.90415 | 63° | 64km/h | 13536m | 4.5m/s | -48.3°C | 3.8% | 156hPa | 2.7V | 08:30:00 | 00:56:36 | 00:00:00 | |
| BIOWL1-15 | 2026-08-31 10:28:15 | 53.00667 | 7.90439 | 63° | 66km/h | 13541m | 5.2m/s | -48.4°C | 0.9% | 155.8hPa | 2.8V | 18:12:15 | 00:56:37 | 00:00:00 | |
| DL1XH-west | 2026-08-31 10:28:12 | 53.00645 | 7.90367 | 63° | 62km/h | 13526m | 3.9m/s | -48.3°C | 0.9% | 156.3hPa | 2.8V | 18:12:15 | 00:56:34 | 00:00:00 | |
| DO2JMG | 2026-08-31 10:28:11 | 53.00638 | 7.90344 | 62° | 62km/h | 13521m | 5.9m/s | -48.3°C | 0.9% | 156.3hPa | 2.8V | 18:12:15 | 00:56:33 | 00:00:00 | |
| DB0DAN | 2026-08-31 10:28:10 | 53.00631 | 7.90322 | 61° | 58km/h | 13515m | 4.7m/s | -48.2°C | 1.6% | 156.44hPa | 2.8V | 00:00:00 | 00:00:00 | 00:00:00 | |
| DO2SHX-10 | 2026-08-31 10:28:10 | 53.00630 | 7.90321 | 62° | 60km/h | 13515m | 4.7m/s | -48.1°C | 3.7% | 156.4hPa | 2.7V | 00:00:00 | 00:56:32 | 00:00:00 | |
| DM0DOS-11 | 2026-08-31 10:28:09 | 53.00587 | 7.90183 | 64° | 62km/h | 13484m | 5m/s | -48.3°C | 3.8% | 157.2hPa | 2.8V | 08:30:00 | 00:56:26 | 00:00:00 | |
| DD1CC8 | 2026-08-31 10:28:09 | 53.00616 | 7.90277 | 62° | 60km/h | 13504m | 4.7m/s | -48.2°C | 1.6% | 156.7hPa | 2.7V | 00:00:00 | 00:00:00 | 00:00:00 | |
| DO9LL-15 | 2026-08-31 10:28:08 | 53.00616 | 7.90277 | 63° | 64km/h | 13504m | 4.6m/s | -48.1°C | 3.7% | 156.6hPa | 2.7V | 00:00:00 | 00:56:30 | 00:00:00 | |
| DL4XJ-10 | 2026-08-31 10:28:07 | 53.00608 | 7.90254 | 62° | 64km/h | 13499m | 6.0m/s | -47.6°C | 0% | 0hPa | 2.7V | 00:00:00 | 00:00:00 | 00:00:00 | |
| DL1XH-15 | 2026-08-31 10:28:06 | 53.00574 | 7.90135 | 65° | 66km/h | 13474m | 6.4m/s | -48.2°C | 3.7% | 157.4hPa | 2.7V | 08:30:00 | 00:56:24 | 00:00:00 | |
| BIOWL1-15 | 2026-08-31 10:28:04 | 53.00587 | 7.90183 | 65° | 62km/h | 13484m | 5m/s | -48.3°C | 0.9% | 157.2hPa | 2.8V | 18:12:15 | 00:56:26 | 00:00:00 | |
| DL1XH-west | 2026-08-31 10:28:02 | 53.00574 | 7.90135 | 65° | 66km/h | 13474m | 6.4m/s | -48.3°C | 0.9% | 157.4hPa | 2.7V | 18:12:15 | 00:56:24 | 00:00:00 | |
| DF8AY | 2026-08-31 10:28:01 | 53.00524 | 7.89988 | 58° | 69km/h | 13443m | 4.3m/s | -48.2°C | 0.9% | 158.2hPa | 2.7V | 18:12:15 | 00:56:18 | 00:00:00 | |
| DO2JMG | 2026-08-31 10:28:00 | 53.00558 | 7.90084 | 62° | 68km/h | 13464m | 4.8m/s | -48.3°C | 0.9% | 157.7hPa | 2.8V | 18:12:15 | 00:56:22 | 00:00:00 | |
| HTAHTA | 2026-08-31 10:28:00 | 53.00550 | 7.90060 | 60° | 66km/h | 13459m | 5.1m/s | -48.2°C | 1.6% | 157.8hPa | 2.8V | 00:00:00 | 00:00:00 | 00:00:00 | |
| DL3AQ-11 | 2026-08-31 10:27:58 | 53.00533 | 7.90013 | 57° | 68km/h | 13449m | 6.5m/s | -48.2°C | 1.6% | 158.0hPa | 2.8V | 00:00:00 | 00:00:00 | 00:00:00 | |
| DL1XH-15 | 2026-08-31 10:27:57 | 53.00489 | 7.89893 | 60° | 66km/h | 13424m | 5.9m/s | -48.1°C | 3.7% | 158.6hPa | 2.8V | 08:30:00 | 00:56:14 | 00:00:00 | |
| BIOWL1-15 | 2026-08-31 10:27:54 | 53.00506 | 7.89940 | 59° | 66km/h | 13433m | 5.2m/s | -48.2°C | 0.9% | 158.4hPa | 2.8V | 18:12:15 | 00:56:16 | 00:00:00 | |
| DL1XH-west | 2026-08-31 10:27:52 | 53.00489 | 7.89893 | 60° | 66km/h | 13424m | 5.9m/s | -48.2°C | 0.9% | 158.6hPa | 2.8V | 18:12:15 | 00:56:14 | 00:00:00 | |
| DO2JMG | 2026-08-31 10:27:50 | 53.00473 | 7.89847 | 60° | 62km/h | 13414m | 6m/s | -48.2°C | 0.8% | 158.8hPa | 2.7V | 18:12:15 | 00:56:12 | 00:00:00 | |
| AA1-15 | 2026-08-31 10:27:49 | 53.00466 | 7.89824 | 62° | 60km/h | 13408m | 4.9m/s | -48.2°C | 0.9% | 159hPa | 2.7V | 18:12:15 | 00:56:11 | 00:00:00 | |
| DF8AY | 2026-08-31 10:27:47 | 53.00451 | 7.89780 | 63° | 60km/h | 13398m | 5.1m/s | -48.1°C | 0.9% | 159.3hPa | 2.8V | 18:12:15 | 00:56:09 | 00:00:00 | |
| BIOWL1-15 | 2026-08-31 10:27:45 | 53.00424 | 7.89690 | 63° | 62km/h | 13378m | 5.1m/s | -48.3°C | 0.9% | 159.8hPa | 2.8V | 18:12:15 | 00:56:05 | 00:00:00 | |
| DL3AQ-11 | 2026-08-31 10:27:44 | 53.00431 | 7.89712 | 62° | 60km/h | 13383m | 4.6m/s | -48.2°C | 1.6% | 159.6hPa | 2.8V | 00:00:00 | 00:00:00 | 00:00:00 | |
| DL1XH-west | 2026-08-31 10:27:42 | 53.00417 | 7.89667 | 64° | 62km/h | 13373m | 5.1m/s | -48.3°C | 0.9% | 159.9hPa | 2.8V | 18:12:15 | 00:56:04 | 00:00:00 | |
| DL1XH1-15 | 2026-08-31 10:27:41 | 53.00376 | 7.89530 | 65° | 58km/h | 13343m | 5.1m/s | -48.3°C | 3.8% | 160.6hPa | 2.8V | 08:30:00 | 00:55:58 | 00:00:00 | |
| DO2JMG | 2026-08-31 10:27:40 | 53.00403 | 7.89620 | 64° | 60km/h | 13362m | 4.7m/s | -48.2°C | 0.9% | 160.1hPa | 2.7V | 18:12:15 | 00:56:02 | 00:00:00 | |
| DO2SHX-10 | 2026-08-31 10:27:40 | 53.00403 | 7.89620 | 65° | 60km/h | 13363m | 4.6m/s | -48.2°C | 3.8% | 160.1hPa | 2.7V | 00:00:00 | 00:56:02 | 00:00:00 | |
| DM0DOS-11 | 2026-08-31 10:27:39 | 53.00364 | 7.89485 | 65° | 60km/h | 13334m | 5.1m/s | -48.4°C | 3.8% | 160.8hPa | 2.7V | 08:30:00 | 00:55:56 | 00:00:00 | |
| AA1-15 | 2026-08-31 10:27:38 | 53.00389 | 7.89575 | 62° | 60km/h | 13352m | 4.2m/s | -48.3°C | 1% | 160.4hPa | 2.7V | 18:12:15 | 00:56:00 | 00:00:00 | |
| DO9LL-15 | 2026-08-31 10:27:38 | 53.00389 | 7.89575 | 63° | 64km/h | 13352m | 4.1m/s | -48.2°C | 3.9% | 160.4hPa | 2.8V | 00:00:00 | 00:56:00 | 00:00:00 | |
| DL1XH-15 | 2026-08-31 10:27:37 | 53.00351 | 7.89440 | 63° | 60km/h | 13325m | 5.1m/s | -48.4°C | 3.8% | 161hPa | 2.8V | 08:30:00 | 00:55:54 | 00:00:00 | |
| DF8AY | 2026-08-31 10:27:37 | 53.00382 | 7.89553 | 64° | 58km/h | 13348m | 4.1m/s | -48.2°C | 1% | 160.5hPa | 2.8V | 18:12:15 | 00:55:59 | 00:00:00 | |
| DL1XH-west | 2026-08-31 10:27:32 | 53.00350 | 7.89440 | 64° | 60km/h | 13325m | 5.1m/s | -48.4°C | 1% | 161hPa | 2.8V | 18:12:15 | 00:55:54 | 00:00:00 | |
| DL1XH1-15 | 2026-08-31 10:27:31 | 53.00303 | 7.89304 | 54° | 66km/h | 13292m | 7.3m/s | -48.6°C | 3.8% | 161.8hPa | 2.8V | 08:30:00 | 00:55:48 | 00:00:00 | |
| DO2JMG | 2026-08-31 10:27:30 | 53.00337 | 7.89396 | 63° | 58km/h | 13314m | 3.5m/s | -48.5°C | 1% | 161.4hPa | 2.8V | 18:12:15 | 00:55:52 | 00:00:00 | |
| DO2SHX-10 | 2026-08-31 10:27:30 | 53.00337 | 7.89395 | 63° | 62km/h | 13314m | 3.4m/s | -48.5°C | 3.9% | 161.3hPa | 2.8V | 00:00:00 | 00:55:52 | 00:00:00 | |
| DM0DOS-11 | 2026-08-31 10:27:29 | 53.00284 | 7.89260 | 54° | 66km/h | 13281m | 4.5m/s | -48.6°C | 3.9% | 162.1hPa | 2.8V | 08:30:00 | 00:55:46 | 00:00:00 | |
| AA1-15 | 2026-08-31 10:27:28 | 53.00322 | 7.89350 | 58° | 66km/h | 13304m | 6m/s | -48.6°C | 1% | 161.6hPa | 2.7V | 18:12:15 | 00:55:50 | 00:00:00 | |
| DF8AY | 2026-08-31 10:27:26 | 53.00303 | 7.89304 | 54° | 66km/h | 13292m | 7.3m/s | -48.6°C | 0.9% | 161.8hPa | 2.8V | 18:12:15 | 00:55:48 | 00:00:00 | |
| DB0DAN | 2026-08-31 10:27:25 | 53.00294 | 7.89282 | 53° | 62km/h | 13286m | 5.5m/s | -48.6°C | 1.7% | 162hPa | 2.8V | 00:00:00 | 00:00:00 | 00:00:00 | |
| BIOWL1-15 | 2026-08-31 10:27:24 | 53.00265 | 7.89214 | 58° | 66km/h | 13271m | 3.8m/s | -48.5°C | 1.1% | 162.4hPa | 2.7V | 18:12:15 | 00:55:44 | 00:00:00 | |
| DO2LYB-13 | 2026-08-31 10:27:23 | 53.00284 | 7.89260 | 55° | 66km/h | 13281m | 4.5m/s | -48.6°C | 1.7% | 162.1hPa | 2.7V | 00:00:00 | 00:00:00 | 00:00:00 | |
| DL1XH1-15 | 2026-08-31 10:27:21 | 53.00210 | 7.89075 | 55° | 66km/h | 13241m | 4.5m/s | -48.4°C | 3.8% | 163.1hPa | 2.7V | 08:30:00 | 00:55:38 | 00:00:00 | |
| DL1XH-west | 2026-08-31 10:27:21 | 53.00256 | 7.89190 | 58° | 66km/h | 13266m | 5.6m/s | -48.6°C | 1% | 162.5hPa | 2.7V | 18:12:15 | 00:55:43 | 00:00:00 | |
| DO2JMG | 2026-08-31 10:27:19 | 53.00238 | 7.89144 | 57° | 68km/h | 13257m | 6.1m/s | -48.5°C | 1% | 162.8hPa | 2.8V | 18:12:15 | 00:55:41 | 00:00:00 | |
| AA1-15 | 2026-08-31 10:27:17 | 53.00219 | 7.89098 | 56° | 66km/h | 13247m | 5.6m/s | -48.5°C | 1% | 163hPa | 2.8V | 18:12:15 | 00:55:39 | 00:00:00 | |
| BIOWL1-15 | 2026-08-31 10:27:12 | 53.00176 | 7.88981 | 65° | 64km/h | 13222m | 4.6m/s | -48.2°C | 1% | 163.6hPa | 2.8V | 18:12:15 | 00:55:34 | 00:00:00 | |
| DL1XH-west | 2026-08-31 10:27:11 | 53.00170 | 7.88956 | 67° | 64km/h | 13217m | 5.3m/s | -48.2°C | 1% | 163.7hPa | 2.7V | 18:12:15 | 00:55:33 | 00:00:00 | |
| DB0DAN | 2026-08-31 10:27:10 | 53.00163 | 7.88931 | 66° | 62km/h | 13212m | 5.1m/s | -48.2°C | 1.6% | 163.88hPa | 2.7V | 00:00:00 | 00:00:00 | 00:00:00 | |
| DO2JMG | 2026-08-31 10:27:09 | 53.00157 | 7.88906 | 66° | 66km/h | 13207m | 3.9m/s | -48.2°C | 1% | 164hPa | 2.7V | 18:12:15 | 00:55:31 | 00:00:00 | |
| DO9LL-15 | 2026-08-31 10:27:08 | 53.00150 | 7.88881 | 66° | 64km/h | 13202m | 6.0m/s | -48.1°C | 3.8% | 164.0hPa | 2.7V | 00:00:00 | 00:55:30 | 00:00:00 | |
| DL1XH-15 | 2026-08-31 10:27:07 | 53.00107 | 7.88740 | 62° | 64km/h | 13172m | 3.9m/s | -48°C | 3.8% | 164.8hPa | 2.7V | 08:30:00 | 00:55:24 | 00:00:00 | |
| DF8AY | 2026-08-31 10:27:07 | 53.00143 | 7.88858 | 64° | 62km/h | 13197m | 5.1m/s | -48.2°C | 1% | 164.2hPa | 2.8V | 18:12:15 | 00:55:29 | 00:00:00 | |
| AA1-15 | 2026-08-31 10:27:06 | 53.00136 | 7.88834 | 63° | 64km/h | 13192m | 4.9m/s | -48.2°C | 1% | 164.3hPa | 2.8V | 18:12:15 | 00:55:28 | 00:00:00 | |
| DL1XH-west | 2026-08-31 10:27:01 | 53.00099 | 7.88716 | 63° | 64km/h | 13167m | 5.4m/s | -48°C | 1% | 165hPa | 2.8V | 18:12:15 | 00:55:23 | 00:00:00 | |
| SONCRA | 2026-08-31 10:27:00 | 53.00085 | 7.88668 | 63° | 62km/h | 13157m | 6.2m/s | -47.9°C | 1.6% | 165.2hPa | 2.8V | 00:00:00 | 00:00:00 | 00:00:00 | |
| DM0DOS-11 | 2026-08-31 10:26:59 | 53.00052 | 7.88547 | 68° | 62km/h | 13131m | 3.7m/s | -47.9°C | 3.8% | 165.9hPa | 2.8V | 08:30:00 | 00:55:16 | 00:00:00 | |
| DO2JMG | 2026-08-31 10:26:58 | 53.00078 | 7.88644 | 64° | 62km/h | 13152m | 4.5m/s | -47.9°C | 1% | 165.3hPa | 2.7V | 18:12:15 | 00:55:20 | 00:00:00 | |
| HTAHTA | 2026-08-31 10:26:58 | 53.00058 | 7.88571 | 67° | 62km/h | 13136m | 6.0m/s | -48.0°C | 1.6% | 165.8hPa | 2.7V | 00:00:00 | 00:00:00 | 00:00:00 | |
| DL1XH-15 | 2026-08-31 10:26:57 | 53.00040 | 7.88497 | 68° | 66km/h | 13121m | 4.9m/s | -47.9°C | 3.8% | 166.1hPa | 2.7V | 08:30:00 | 00:55:14 | 00:00:00 | |
| AA1-15 | 2026-08-31 10:26:56 | 53.00064 | 7.88596 | 67° | 64km/h | 13141m | 4.6m/s | -47.9°C | 0.9% | 165.7hPa | 2.8V | 18:12:15 | 00:55:18 | 00:00:00 | |
| DB0DAN | 2026-08-31 10:26:55 | 53.00058 | 7.88571 | 67° | 60km/h | 13136m | 6m/s | -48°C | 1.6% | 165.77hPa | 2.8V | 00:00:00 | 00:00:00 | 00:00:00 | |
| BIOWL1-15 | 2026-08-31 10:26:51 | 53.00034 | 7.88472 | 68° | 64km/h | 13116m | 5.5m/s | -47.9°C | 1% | 166.3hPa | 2.7V | 18:12:15 | 00:55:13 | 00:00:00 | |
| DL1XH-west | 2026-08-31 10:26:50 | 53.00028 | 7.88447 | 67° | 62km/h | 13110m | 5.1m/s | -47.9°C | 1% | 166.4hPa | 2.8V | 18:12:15 | 00:55:12 | 00:00:00 | |
| Es werden nur die letzten 3500 von 5408 Frames angezeigt. GPX/KML und Diagramme bleiben verfügbar. | |||||||||||||||